<?xml version='1.0' encoding='UTF-8'?><gpx version="1.1" creator="JPX - https://github.com/jenetics/jpx" xmlns="http://www.topografix.com/GPX/1/1"><trk><trkseg><trkpt lat="44.1795331738207" lon="12.427206894903279"><ele>2.9999999999999996</ele><time>2026-04-18T08:30:34Z</time></trkpt><trkpt lat="44.17958868036887" lon="12.42728720330301"><ele>3.0</ele><time>2026-04-18T08:30:37Z</time></trkpt><trkpt lat="44.17964845754472" lon="12.42737332104807"><ele>3.0</ele><time>2026-04-18T08:30:40Z</time></trkpt><trkpt lat="44.179692164984026" lon="12.427440070877877"><ele>3.0</ele><time>2026-04-18T08:30:42Z</time></trkpt><trkpt lat="44.17974488985145" lon="12.427512851902181"><ele>3.0</ele><time>2026-04-18T08:30:46Z</time></trkpt><trkpt lat="44.17980796070245" lon="12.427528580110431"><ele>2.9999999999999996</ele><time>2026-04-18T08:31:01Z</time></trkpt><trkpt lat="44.17985586641261" lon="12.427464044400358"><ele>3.0</ele><time>2026-04-18T08:31:03Z</time></trkpt><trkpt lat="44.179924858143224" lon="12.427377956785618"><ele>2.8</ele><time>2026-04-18T08:31:04.999Z</time></trkpt><trkpt lat="44.18003286183295" lon="12.427272421016534"><ele>2.5999999999999996</ele><time>2026-04-18T08:31:06.999Z</time></trkpt><trkpt lat="44.18010825141728" lon="12.427181207971257"><ele>2.4000000000000004</ele><time>2026-04-18T08:31:07.999Z</time></trkpt><trkpt lat="44.18016968283801" lon="12.427107304948679"><ele>2.2</ele><time>2026-04-18T08:31:08.999Z</time></trkpt><trkpt lat="44.180228258240504" lon="12.42703683775615"><ele>2.0</ele><time>2026-04-18T08:31:09.999Z</time></trkpt><trkpt lat="44.18028837146466" lon="12.426964520546816"><ele>1.9999999999999998</ele><time>2026-04-18T08:31:10.999Z</time></trkpt><trkpt lat="44.180349345884736" lon="12.4268911671647"><ele>2.0</ele><time>2026-04-18T08:31:11.999Z</time></trkpt><trkpt lat="44.180428378508864" lon="12.42679732496798"><ele>2.0</ele><time>2026-04-18T08:31:12.999Z</time></trkpt><trkpt lat="44.18048733205079" lon="12.42672740016189"><ele>2.0</ele><time>2026-04-18T08:31:13.999Z</time></trkpt><trkpt lat="44.18053968646253" lon="12.426638869840025"><ele>1.9999999999999998</ele><time>2026-04-18T08:31:14.999Z</time></trkpt><trkpt lat="44.18061157761187" lon="12.426580406243986"><ele>2.0</ele><time>2026-04-18T08:31:15.999Z</time></trkpt><trkpt lat="44.18068245481616" lon="12.426507419924967"><ele>1.9999999999999998</ele><time>2026-04-18T08:31:16.999Z</time></trkpt><trkpt lat="44.180741867210685" lon="12.426421722581255"><ele>2.0</ele><time>2026-04-18T08:31:17.999Z</time></trkpt><trkpt lat="44.180802094796796" lon="12.426351343661308"><ele>2.0</ele><time>2026-04-18T08:31:18.999Z</time></trkpt><trkpt lat="44.180863802779264" lon="12.426282634506952"><ele>2.0</ele><time>2026-04-18T08:31:19.999Z</time></trkpt><trkpt lat="44.18092149253451" lon="12.426201518491279"><ele>1.9999999999999998</ele><time>2026-04-18T08:31:20.999Z</time></trkpt><trkpt lat="44.180981227761855" lon="12.426120900529671"><ele>2.0</ele><time>2026-04-18T08:31:21.999Z</time></trkpt><trkpt lat="44.181047032564614" lon="12.42604266112943"><ele>2.5</ele><time>2026-04-18T08:31:22.999Z</time></trkpt><trkpt lat="44.18111088230945" lon="12.425964927789227"><ele>3.0</ele><time>2026-04-18T08:31:23.999Z</time></trkpt><trkpt lat="44.181179465934406" lon="12.425890510813689"><ele>3.5</ele><time>2026-04-18T08:31:24.999Z</time></trkpt><trkpt lat="44.18124302184624" lon="12.425809683319994"><ele>4.0</ele><time>2026-04-18T08:31:25.999Z</time></trkpt><trkpt lat="44.18130860313373" lon="12.42573066810597"><ele>4.5</ele><time>2026-04-18T08:31:26.999Z</time></trkpt><trkpt lat="44.18136499018259" lon="12.425661924690507"><ele>5.0</ele><time>2026-04-18T08:31:27.999Z</time></trkpt><trkpt lat="44.181420472631515" lon="12.425594322150413"><ele>5.0</ele><time>2026-04-18T08:31:28.999Z</time></trkpt><trkpt lat="44.18148244555802" lon="12.42552709916945"><ele>5.0</ele><time>2026-04-18T08:31:29.999Z</time></trkpt><trkpt lat="44.181542833523146" lon="12.425454299709854"><ele>5.0</ele><time>2026-04-18T08:31:30.999Z</time></trkpt><trkpt lat="44.181600735658876" lon="12.425370056155392"><ele>5.0</ele><time>2026-04-18T08:31:31.999Z</time></trkpt><trkpt lat="44.18166558422473" lon="12.42529696473177"><ele>5.0</ele><time>2026-04-18T08:31:32.999Z</time></trkpt><trkpt lat="44.181731292839906" lon="12.425216542198829"><ele>5.0</ele><time>2026-04-18T08:31:33.999Z</time></trkpt><trkpt lat="44.18179556861657" lon="12.42513459921676"><ele>4.5</ele><time>2026-04-18T08:31:34.999Z</time></trkpt><trkpt lat="44.181863488837436" lon="12.42508385029577"><ele>4.0</ele><time>2026-04-18T08:31:35.999Z</time></trkpt><trkpt lat="44.181926810805834" lon="12.425008639815552"><ele>3.5</ele><time>2026-04-18T08:31:36.999Z</time></trkpt><trkpt lat="44.18199191047004" lon="12.424931317880986"><ele>3.0</ele><time>2026-04-18T08:31:37.999Z</time></trkpt><trkpt lat="44.18205087644375" lon="12.424861281067265"><ele>2.5</ele><time>2026-04-18T08:31:38.999Z</time></trkpt><trkpt lat="44.18210785629134" lon="12.424794340482698"><ele>2.0</ele><time>2026-04-18T08:31:39.999Z</time></trkpt><trkpt lat="44.18216278231262" lon="12.424729507600512"><ele>2.0</ele><time>2026-04-18T08:31:40.999Z</time></trkpt><trkpt lat="44.18221317794703" lon="12.424670022215446"><ele>2.0</ele><time>2026-04-18T08:31:41.999Z</time></trkpt><trkpt lat="44.18226628152563" lon="12.424606570918652"><ele>2.0</ele><time>2026-04-18T08:31:42.999Z</time></trkpt><trkpt lat="44.18232750761287" lon="12.424541950949283"><ele>2.0</ele><time>2026-04-18T08:31:43.999Z</time></trkpt><trkpt lat="44.18241501551497" lon="12.42442726789702"><ele>2.0</ele><time>2026-04-18T08:31:45.999Z</time></trkpt><trkpt lat="44.182507922885286" lon="12.42432002874969"><ele>1.9999999999999998</ele><time>2026-04-18T08:31:47.999Z</time></trkpt><trkpt lat="44.18260104979269" lon="12.424204527342068"><ele>2.0</ele><time>2026-04-18T08:31:49.999Z</time></trkpt><trkpt lat="44.182652208057625" lon="12.42415283057072"><ele>2.0</ele><time>2026-04-18T08:31:50.999Z</time></trkpt><trkpt lat="44.18270382128835" lon="12.424088738559124"><ele>2.0</ele><time>2026-04-18T08:31:51.999Z</time></trkpt><trkpt lat="44.18277913679509" lon="12.423981630586162"><ele>1.9999999999999998</ele><time>2026-04-18T08:31:53.999Z</time></trkpt><trkpt lat="44.182842663404564" lon="12.423903273951602"><ele>2.0</ele><time>2026-04-18T08:31:55.999Z</time></trkpt><trkpt lat="44.18289702767507" lon="12.42385863209364"><ele>2.6</ele><time>2026-04-18T08:31:57.999Z</time></trkpt><trkpt lat="44.1829399488014" lon="12.423791843142341"><ele>3.2</ele><time>2026-04-18T08:32:00.999Z</time></trkpt><trkpt lat="44.18286228091866" lon="12.423670406335834"><ele>3.8</ele><time>2026-04-18T08:32:01.999Z</time></trkpt><trkpt lat="44.18280181598698" lon="12.423592779410159"><ele>4.4</ele><time>2026-04-18T08:32:03.999Z</time></trkpt><trkpt lat="44.1827309939481" lon="12.423509476391908"><ele>5.0</ele><time>2026-04-18T08:32:05.999Z</time></trkpt><trkpt lat="44.18266991170574" lon="12.423410106408964"><ele>5.0</ele><time>2026-04-18T08:32:07.999Z</time></trkpt><trkpt lat="44.18263083500997" lon="12.423340712540105"><ele>5.0</ele><time>2026-04-18T08:32:09.999Z</time></trkpt><trkpt lat="44.182583627843286" lon="12.423254961080946"><ele>5.0</ele><time>2026-04-18T08:32:12.999Z</time></trkpt><trkpt lat="44.18253174059255" lon="12.423131189158005"><ele>5.0</ele><time>2026-04-18T08:32:15.999Z</time></trkpt><trkpt lat="44.18245304956612" lon="12.423080402434687"><ele>5.0</ele><time>2026-04-18T08:32:17.999Z</time></trkpt><trkpt lat="44.18237092832035" lon="12.4231087713989"><ele>5.0</ele><time>2026-04-18T08:32:19.999Z</time></trkpt><trkpt lat="44.18230272445932" lon="12.42318991571327"><ele>5.0</ele><time>2026-04-18T08:32:21.999Z</time></trkpt><trkpt lat="44.18234454759077" lon="12.423336705393103"><ele>5.0</ele><time>2026-04-18T08:32:23.999Z</time></trkpt><trkpt lat="44.182423547521545" lon="12.423391389486078"><ele>5.0</ele><time>2026-04-18T08:32:25.999Z</time></trkpt><trkpt lat="44.182510048345485" lon="12.423314150337248"><ele>5.0</ele><time>2026-04-18T08:32:27.999Z</time></trkpt><trkpt lat="44.182551723800984" lon="12.423158817815061"><ele>5.0</ele><time>2026-04-18T08:32:29.999Z</time></trkpt><trkpt lat="44.1825257838739" lon="12.422987917280722"><ele>5.166666666666667</ele><time>2026-04-18T08:32:31.999Z</time></trkpt><trkpt lat="44.182501724259915" lon="12.4228825806116"><ele>5.333333333333334</ele><time>2026-04-18T08:32:32.999Z</time></trkpt><trkpt lat="44.1824757767987" lon="12.422772428212935"><ele>5.5</ele><time>2026-04-18T08:32:33.999Z</time></trkpt><trkpt lat="44.182456304652426" lon="12.422673106785204"><ele>5.666666666666667</ele><time>2026-04-18T08:32:34.999Z</time></trkpt><trkpt lat="44.182430888356066" lon="12.422492647786065"><ele>5.833333333333333</ele><time>2026-04-18T08:32:36.999Z</time></trkpt><trkpt lat="44.182412139648406" lon="12.422389072108789"><ele>6.0</ele><time>2026-04-18T08:32:37.999Z</time></trkpt><trkpt lat="44.18239627491991" lon="12.422299445374296"><ele>6.0</ele><time>2026-04-18T08:32:38.999Z</time></trkpt><trkpt lat="44.18238589425873" lon="12.422205785629805"><ele>6.0</ele><time>2026-04-18T08:32:39.999Z</time></trkpt><trkpt lat="44.18236084276944" lon="12.422097101860047"><ele>6.0</ele><time>2026-04-18T08:32:40.999Z</time></trkpt><trkpt lat="44.18234000409541" lon="12.421987549566648"><ele>6.0</ele><time>2026-04-18T08:32:41.999Z</time></trkpt><trkpt lat="44.182320417908144" lon="12.421882207552423"><ele>6.0</ele><time>2026-04-18T08:32:42.999Z</time></trkpt><trkpt lat="44.18229441982447" lon="12.421778932497705"><ele>6.0</ele><time>2026-04-18T08:32:43.999Z</time></trkpt><trkpt lat="44.18228716667397" lon="12.421663972459545"><ele>5.5</ele><time>2026-04-18T08:32:44.999Z</time></trkpt><trkpt lat="44.18225222015346" lon="12.421556002730766"><ele>5.0</ele><time>2026-04-18T08:32:45.999Z</time></trkpt><trkpt lat="44.182254662660895" lon="12.421445669334242"><ele>4.5</ele><time>2026-04-18T08:32:46.999Z</time></trkpt><trkpt lat="44.182237465027576" lon="12.421349994024686"><ele>4.0</ele><time>2026-04-18T08:32:47.999Z</time></trkpt><trkpt lat="44.182209569959824" lon="12.421245358493664"><ele>3.5</ele><time>2026-04-18T08:32:48.999Z</time></trkpt><trkpt lat="44.182188960145325" lon="12.421137564112463"><ele>3.0</ele><time>2026-04-18T08:32:49.999Z</time></trkpt><trkpt lat="44.182166227494925" lon="12.421021427394983"><ele>3.0</ele><time>2026-04-18T08:32:50.999Z</time></trkpt><trkpt lat="44.18215223210051" lon="12.42090342158079"><ele>3.0</ele><time>2026-04-18T08:32:51.999Z</time></trkpt><trkpt lat="44.18213182390026" lon="12.420774931970934"><ele>3.0</ele><time>2026-04-18T08:32:52.999Z</time></trkpt><trkpt lat="44.182104351896804" lon="12.420662101321733"><ele>3.0</ele><time>2026-04-18T08:32:53.999Z</time></trkpt><trkpt lat="44.182097392559626" lon="12.420549412935491"><ele>3.0</ele><time>2026-04-18T08:32:54.999Z</time></trkpt><trkpt lat="44.18207706357226" lon="12.42043485190516"><ele>3.0</ele><time>2026-04-18T08:32:55.999Z</time></trkpt><trkpt lat="44.182042731960905" lon="12.420331429113425"><ele>3.0</ele><time>2026-04-18T08:32:56.999Z</time></trkpt><trkpt lat="44.182027095451815" lon="12.420218583306884"><ele>3.0</ele><time>2026-04-18T08:32:57.999Z</time></trkpt><trkpt lat="44.18200347595722" lon="12.420105038300594"><ele>3.0</ele><time>2026-04-18T08:32:58.999Z</time></trkpt><trkpt lat="44.18198015874334" lon="12.419982428619742"><ele>3.0</ele><time>2026-04-18T08:32:59.999Z</time></trkpt><trkpt lat="44.181972989550786" lon="12.419849645869418"><ele>3.0</ele><time>2026-04-18T08:33:00.999Z</time></trkpt><trkpt lat="44.18193419375918" lon="12.419723112830233"><ele>3.4</ele><time>2026-04-18T08:33:01.999Z</time></trkpt><trkpt lat="44.1819263181593" lon="12.419590212239711"><ele>3.8</ele><time>2026-04-18T08:33:02.998Z</time></trkpt><trkpt lat="44.181903172401036" lon="12.41945566593152"><ele>4.2</ele><time>2026-04-18T08:33:03.998Z</time></trkpt><trkpt lat="44.18188119140344" lon="12.419329582176625"><ele>4.6</ele><time>2026-04-18T08:33:04.998Z</time></trkpt><trkpt lat="44.18186069327533" lon="12.419204800394393"><ele>5.0</ele><time>2026-04-18T08:33:05.998Z</time></trkpt><trkpt lat="44.18183890396346" lon="12.419073223768228"><ele>5.0</ele><time>2026-04-18T08:33:06.998Z</time></trkpt><trkpt lat="44.181817001069554" lon="12.418940961280592"><ele>5.0</ele><time>2026-04-18T08:33:07.998Z</time></trkpt><trkpt lat="44.181795000032515" lon="12.418808106137961"><ele>5.0</ele><time>2026-04-18T08:33:08.998Z</time></trkpt><trkpt lat="44.181779802492464" lon="12.418686001569895"><ele>5.0</ele><time>2026-04-18T08:33:09.998Z</time></trkpt><trkpt lat="44.18176120696411" lon="12.41856849778243"><ele>5.0</ele><time>2026-04-18T08:33:10.998Z</time></trkpt><trkpt lat="44.18174298801041" lon="12.41845641392038"><ele>4.833333333333334</ele><time>2026-04-18T08:33:11.998Z</time></trkpt><trkpt lat="44.18171736251412" lon="12.418338236510847"><ele>4.666666666666667</ele><time>2026-04-18T08:33:12.998Z</time></trkpt><trkpt lat="44.18169406475068" lon="12.418222268286028"><ele>4.5</ele><time>2026-04-18T08:33:13.998Z</time></trkpt><trkpt lat="44.18167656073492" lon="12.41811287569688"><ele>4.333333333333333</ele><time>2026-04-18T08:33:14.998Z</time></trkpt><trkpt lat="44.18166095646601" lon="12.418018557457792"><ele>4.166666666666666</ele><time>2026-04-18T08:33:15.998Z</time></trkpt><trkpt lat="44.18162768616033" lon="12.417880547911428"><ele>4.0</ele><time>2026-04-18T08:33:17.998Z</time></trkpt><trkpt lat="44.18154554072814" lon="12.417785966519116"><ele>3.4999999999999996</ele><time>2026-04-18T08:33:19.998Z</time></trkpt><trkpt lat="44.18143795638684" lon="12.417818918930307"><ele>3.0</ele><time>2026-04-18T08:33:21.998Z</time></trkpt><trkpt lat="44.181375279116644" lon="12.417838116582478"><ele>2.5</ele><time>2026-04-18T08:33:22.998Z</time></trkpt><trkpt lat="44.18130947178909" lon="12.41784843721909"><ele>2.0</ele><time>2026-04-18T08:33:23.998Z</time></trkpt><trkpt lat="44.18120506061714" lon="12.417876264083047"><ele>1.5</ele><time>2026-04-18T08:33:25.998Z</time></trkpt><trkpt lat="44.18114016958636" lon="12.4178990861407"><ele>1.0</ele><time>2026-04-18T08:33:26.998Z</time></trkpt><trkpt lat="44.181072892808615" lon="12.41792405445174"><ele>1.0</ele><time>2026-04-18T08:33:27.998Z</time></trkpt><trkpt lat="44.18096509276512" lon="12.417972104276094"><ele>1.0</ele><time>2026-04-18T08:33:29.998Z</time></trkpt><trkpt lat="44.18084873383449" lon="12.41798786603018"><ele>1.0</ele><time>2026-04-18T08:33:32.998Z</time></trkpt><trkpt lat="44.18077953775567" lon="12.417955528344638"><ele>1.0</ele><time>2026-04-18T08:33:48.998Z</time></trkpt><trkpt lat="44.18085606800403" lon="12.417802925716428"><ele>1.0</ele><time>2026-04-18T08:33:49.998Z</time></trkpt><trkpt lat="44.180911414131984" lon="12.417747588870895"><ele>1.0</ele><time>2026-04-18T08:33:50.998Z</time></trkpt><trkpt lat="44.18096103546148" lon="12.4176903146289"><ele>0.9999999999999999</ele><time>2026-04-18T08:33:51.998Z</time></trkpt><trkpt lat="44.18101002922844" lon="12.417615202344543"><ele>1.0</ele><time>2026-04-18T08:33:52.998Z</time></trkpt><trkpt lat="44.18106420618587" lon="12.41754680168679"><ele>1.0</ele><time>2026-04-18T08:33:53.998Z</time></trkpt><trkpt lat="44.181117172911605" lon="12.417470325541311"><ele>0.9999999999999999</ele><time>2026-04-18T08:33:54.998Z</time></trkpt><trkpt lat="44.18117384709286" lon="12.417398647147749"><ele>1.0</ele><time>2026-04-18T08:33:55.998Z</time></trkpt><trkpt lat="44.181225441945806" lon="12.417330711570768"><ele>1.0</ele><time>2026-04-18T08:33:56.998Z</time></trkpt><trkpt lat="44.18127770728353" lon="12.417268922134479"><ele>0.9999999999999999</ele><time>2026-04-18T08:33:57.998Z</time></trkpt><trkpt lat="44.181376887003864" lon="12.417179765815106"><ele>1.0</ele><time>2026-04-18T08:33:59.998Z</time></trkpt><trkpt lat="44.18144036713917" lon="12.417166737934485"><ele>1.0</ele><time>2026-04-18T08:34:01.998Z</time></trkpt><trkpt lat="44.181524379005246" lon="12.41721599599223"><ele>1.0</ele><time>2026-04-18T08:34:03.998Z</time></trkpt><trkpt lat="44.181584060915704" lon="12.417174998865615"><ele>0.9999999999999999</ele><time>2026-04-18T08:34:04.998Z</time></trkpt><trkpt lat="44.18162386978552" lon="12.417093504670062"><ele>1.0</ele><time>2026-04-18T08:34:05.998Z</time></trkpt><trkpt lat="44.181656026371954" lon="12.417012764766298"><ele>0.6666666666666666</ele><time>2026-04-18T08:34:06.998Z</time></trkpt><trkpt lat="44.1816427510868" lon="12.416807324074794"><ele>0.3333333333333333</ele><time>2026-04-18T08:34:08.998Z</time></trkpt><trkpt lat="44.181674358256465" lon="12.416728722878341"><ele>0.0</ele><time>2026-04-18T08:34:09.998Z</time></trkpt><trkpt lat="44.18170864960592" lon="12.416653014461748"><ele>-0.3333333333333333</ele><time>2026-04-18T08:34:10.998Z</time></trkpt><trkpt lat="44.18178030227474" lon="12.416593331141577"><ele>-0.6666666666666666</ele><time>2026-04-18T08:34:11.998Z</time></trkpt><trkpt lat="44.18184056210494" lon="12.41651085835161"><ele>-1.0</ele><time>2026-04-18T08:34:12.998Z</time></trkpt><trkpt lat="44.181905402610305" lon="12.416435191043243"><ele>-1.0</ele><time>2026-04-18T08:34:13.998Z</time></trkpt><trkpt lat="44.181955891659165" lon="12.41636523500565"><ele>-0.9999999999999999</ele><time>2026-04-18T08:34:14.998Z</time></trkpt><trkpt lat="44.182006893262816" lon="12.416287903039406"><ele>-1.0</ele><time>2026-04-18T08:34:15.998Z</time></trkpt><trkpt lat="44.18205457256847" lon="12.41622628834271"><ele>-1.0</ele><time>2026-04-18T08:34:16.998Z</time></trkpt><trkpt lat="44.182122763348616" lon="12.416224007911364"><ele>-0.9999999999999999</ele><time>2026-04-18T08:34:17.998Z</time></trkpt><trkpt lat="44.18219370336585" lon="12.416220661969497"><ele>-1.0</ele><time>2026-04-18T08:34:18.998Z</time></trkpt><trkpt lat="44.182256081866996" lon="12.416284442367552"><ele>-1.0</ele><time>2026-04-18T08:34:19.998Z</time></trkpt><trkpt lat="44.18231831524256" lon="12.416342082917335"><ele>-0.6666666666666666</ele><time>2026-04-18T08:34:20.998Z</time></trkpt><trkpt lat="44.18238140663522" lon="12.416411462958155"><ele>-0.3333333333333333</ele><time>2026-04-18T08:34:21.998Z</time></trkpt><trkpt lat="44.18241408714454" lon="12.416540427625618"><ele>0.0</ele><time>2026-04-18T08:34:22.998Z</time></trkpt><trkpt lat="44.182444610493086" lon="12.41664976146354"><ele>0.3333333333333333</ele><time>2026-04-18T08:34:23.998Z</time></trkpt><trkpt lat="44.182466521881004" lon="12.416760272454628"><ele>0.6666666666666666</ele><time>2026-04-18T08:34:24.998Z</time></trkpt><trkpt lat="44.18247099665551" lon="12.416869331870029"><ele>1.0</ele><time>2026-04-18T08:34:25.998Z</time></trkpt><trkpt lat="44.182449482845456" lon="12.41697448282589"><ele>0.9999999999999999</ele><time>2026-04-18T08:34:26.998Z</time></trkpt><trkpt lat="44.182420210479" lon="12.417075024150444"><ele>1.0</ele><time>2026-04-18T08:34:27.998Z</time></trkpt><trkpt lat="44.18237582397862" lon="12.417168559658954"><ele>1.0</ele><time>2026-04-18T08:34:28.998Z</time></trkpt><trkpt lat="44.18231332356288" lon="12.417255533700631"><ele>1.0</ele><time>2026-04-18T08:34:29.998Z</time></trkpt><trkpt lat="44.18223853134185" lon="12.41732959700512"><ele>0.9999999999999999</ele><time>2026-04-18T08:34:30.998Z</time></trkpt><trkpt lat="44.182156718528105" lon="12.417379397248096"><ele>1.0</ele><time>2026-04-18T08:34:31.998Z</time></trkpt><trkpt lat="44.18206661914306" lon="12.417396686597572"><ele>0.8</ele><time>2026-04-18T08:34:32.998Z</time></trkpt><trkpt lat="44.1819740633101" lon="12.417388090257129"><ele>0.6000000000000001</ele><time>2026-04-18T08:34:33.998Z</time></trkpt><trkpt lat="44.18188956001861" lon="12.417351519807225"><ele>0.4</ele><time>2026-04-18T08:34:34.998Z</time></trkpt><trkpt lat="44.18180745662875" lon="12.417291727019807"><ele>0.2</ele><time>2026-04-18T08:34:35.998Z</time></trkpt><trkpt lat="44.181717379211214" lon="12.417229384490737"><ele>0.0</ele><time>2026-04-18T08:34:36.998Z</time></trkpt><trkpt lat="44.18163402040345" lon="12.417163977721312"><ele>-0.2</ele><time>2026-04-18T08:34:37.998Z</time></trkpt><trkpt lat="44.18154706608356" lon="12.41710079016074"><ele>-0.4</ele><time>2026-04-18T08:34:38.998Z</time></trkpt><trkpt lat="44.18146509139159" lon="12.417039288566528"><ele>-0.6000000000000001</ele><time>2026-04-18T08:34:39.998Z</time></trkpt><trkpt lat="44.181381342929626" lon="12.416971643880487"><ele>-0.8</ele><time>2026-04-18T08:34:40.998Z</time></trkpt><trkpt lat="44.18129629536421" lon="12.416904652910503"><ele>-1.0</ele><time>2026-04-18T08:34:41.998Z</time></trkpt><trkpt lat="44.18121189771955" lon="12.41684279152732"><ele>-0.6000000000000001</ele><time>2026-04-18T08:34:42.998Z</time></trkpt><trkpt lat="44.18113293281472" lon="12.416785539596333"><ele>-0.20000000000000007</ele><time>2026-04-18T08:34:43.998Z</time></trkpt><trkpt lat="44.18105046000285" lon="12.416726541408787"><ele>0.20000000000000007</ele><time>2026-04-18T08:34:44.997Z</time></trkpt><trkpt lat="44.18097230300226" lon="12.416663159709689"><ele>0.6000000000000001</ele><time>2026-04-18T08:34:45.997Z</time></trkpt><trkpt lat="44.18088829258388" lon="12.416603504364371"><ele>1.0</ele><time>2026-04-18T08:34:46.997Z</time></trkpt><trkpt lat="44.18081472398475" lon="12.416524644934254"><ele>0.9999999999999999</ele><time>2026-04-18T08:34:47.997Z</time></trkpt><trkpt lat="44.18073683815584" lon="12.416457672189818"><ele>1.0</ele><time>2026-04-18T08:34:48.997Z</time></trkpt><trkpt lat="44.18065866186917" lon="12.416391686976974"><ele>1.0</ele><time>2026-04-18T08:34:49.997Z</time></trkpt><trkpt lat="44.18059058988332" lon="12.41631037695429"><ele>1.0</ele><time>2026-04-18T08:34:50.997Z</time></trkpt><trkpt lat="44.180529175465594" lon="12.416221729350015"><ele>0.9999999999999999</ele><time>2026-04-18T08:34:51.997Z</time></trkpt><trkpt lat="44.18048019720313" lon="12.41613275287182"><ele>1.0</ele><time>2026-04-18T08:34:52.997Z</time></trkpt><trkpt lat="44.180434704256875" lon="12.416052082201608"><ele>1.0</ele><time>2026-04-18T08:34:53.997Z</time></trkpt><trkpt lat="44.180394107808915" lon="12.415973620053999"><ele>0.9999999999999999</ele><time>2026-04-18T08:34:54.997Z</time></trkpt><trkpt lat="44.180364272827504" lon="12.41589553920349"><ele>1.0</ele><time>2026-04-18T08:34:55.997Z</time></trkpt><trkpt lat="44.180351048996016" lon="12.4158020351007"><ele>1.0</ele><time>2026-04-18T08:34:56.997Z</time></trkpt><trkpt lat="44.18034727048925" lon="12.415702039560518"><ele>0.9999999999999999</ele><time>2026-04-18T08:34:57.997Z</time></trkpt><trkpt lat="44.18034640110156" lon="12.415610116278106"><ele>1.0</ele><time>2026-04-18T08:34:58.997Z</time></trkpt><trkpt lat="44.180331192698524" lon="12.41552208871563"><ele>1.0</ele><time>2026-04-18T08:34:59.997Z</time></trkpt><trkpt lat="44.180231793673656" lon="12.41540985026115"><ele>1.0</ele><time>2026-04-18T08:35:01.997Z</time></trkpt><trkpt lat="44.18011115996506" lon="12.415402928990964"><ele>1.0</ele><time>2026-04-18T08:35:03.997Z</time></trkpt><trkpt lat="44.18006409260988" lon="12.415516242033728"><ele>1.0</ele><time>2026-04-18T08:35:04.997Z</time></trkpt><trkpt lat="44.180017557822474" lon="12.415621308945164"><ele>1.0</ele><time>2026-04-18T08:35:05.997Z</time></trkpt><trkpt lat="44.179965775119726" lon="12.415735238980874"><ele>1.0</ele><time>2026-04-18T08:35:06.997Z</time></trkpt><trkpt lat="44.17989995279206" lon="12.415839144186483"><ele>0.8</ele><time>2026-04-18T08:35:07.997Z</time></trkpt><trkpt lat="44.17983088066184" lon="12.415925913843989"><ele>0.6000000000000001</ele><time>2026-04-18T08:35:08.997Z</time></trkpt><trkpt lat="44.1797569471799" lon="12.416013756965272"><ele>0.4</ele><time>2026-04-18T08:35:09.997Z</time></trkpt><trkpt lat="44.179687568960354" lon="12.416103798959007"><ele>0.2</ele><time>2026-04-18T08:35:10.997Z</time></trkpt><trkpt lat="44.17962434365876" lon="12.416184934226791"><ele>0.0</ele><time>2026-04-18T08:35:11.997Z</time></trkpt><trkpt lat="44.17955511795538" lon="12.416240061974396"><ele>0.0</ele><time>2026-04-18T08:35:12.997Z</time></trkpt><trkpt lat="44.17951625585958" lon="12.416311499448094"><ele>0.0</ele><time>2026-04-18T08:35:13.997Z</time></trkpt><trkpt lat="44.17944986684882" lon="12.416361194159558"><ele>0.0</ele><time>2026-04-18T08:35:15.997Z</time></trkpt><trkpt lat="44.17943354674491" lon="12.41644599724712"><ele>0.0</ele><time>2026-04-18T08:35:28.997Z</time></trkpt><trkpt lat="44.17953615394168" lon="12.416560747182622"><ele>0.0</ele><time>2026-04-18T08:35:32.997Z</time></trkpt><trkpt lat="44.17961170808885" lon="12.416514660105731"><ele>0.0</ele><time>2026-04-18T08:35:34.997Z</time></trkpt><trkpt lat="44.179658351248904" lon="12.416443451927035"><ele>0.0</ele><time>2026-04-18T08:35:37.997Z</time></trkpt><trkpt lat="44.1795805276401" lon="12.416479866697989"><ele>0.0</ele><time>2026-04-18T08:38:07.996Z</time></trkpt><trkpt lat="44.17951544197817" lon="12.41649092240626"><ele>0.0</ele><time>2026-04-18T08:38:10.996Z</time></trkpt><trkpt lat="44.17949554505502" lon="12.41639450707213"><ele>0.0</ele><time>2026-04-18T08:38:20.996Z</time></trkpt><trkpt lat="44.17957433416342" lon="12.416312417881237"><ele>0.0</ele><time>2026-04-18T08:38:22.996Z</time></trkpt><trkpt lat="44.17963157491798" lon="12.416255317567932"><ele>0.0</ele><time>2026-04-18T08:38:23.996Z</time></trkpt><trkpt lat="44.17968694707941" lon="12.41619083782441"><ele>0.0</ele><time>2026-04-18T08:38:24.996Z</time></trkpt><trkpt lat="44.17973944390091" lon="12.416133092942689"><ele>0.0</ele><time>2026-04-18T08:38:25.995Z</time></trkpt><trkpt lat="44.179800366968706" lon="12.416062899204858"><ele>0.0</ele><time>2026-04-18T08:38:26.995Z</time></trkpt><trkpt lat="44.17985814089414" lon="12.416011813730405"><ele>0.0</ele><time>2026-04-18T08:38:27.995Z</time></trkpt><trkpt lat="44.179918047128766" lon="12.415953006844711"><ele>0.0</ele><time>2026-04-18T08:38:28.995Z</time></trkpt><trkpt lat="44.17998514904127" lon="12.415907454238498"><ele>0.0</ele><time>2026-04-18T08:38:29.995Z</time></trkpt><trkpt lat="44.18009419647363" lon="12.415852972086665"><ele>0.16666666666666666</ele><time>2026-04-18T08:38:31.995Z</time></trkpt><trkpt lat="44.18016347901829" lon="12.415834935332079"><ele>0.3333333333333333</ele><time>2026-04-18T08:38:32.995Z</time></trkpt><trkpt lat="44.18027795718788" lon="12.415810643815222"><ele>0.5</ele><time>2026-04-18T08:38:34.995Z</time></trkpt><trkpt lat="44.18032430667538" lon="12.415740218562581"><ele>0.6666666666666666</ele><time>2026-04-18T08:38:35.995Z</time></trkpt><trkpt lat="44.18034211881996" lon="12.415647031687572"><ele>0.8333333333333333</ele><time>2026-04-18T08:38:36.995Z</time></trkpt><trkpt lat="44.18033765069986" lon="12.415476031127929"><ele>1.0</ele><time>2026-04-18T08:38:38.995Z</time></trkpt><trkpt lat="44.18024007508484" lon="12.415412876855939"><ele>0.9999999999999999</ele><time>2026-04-18T08:38:39.995Z</time></trkpt><trkpt lat="44.180160128757485" lon="12.415362411706043"><ele>1.0</ele><time>2026-04-18T08:38:40.995Z</time></trkpt><trkpt lat="44.180093281733896" lon="12.415322194345938"><ele>1.0</ele><time>2026-04-18T08:38:41.995Z</time></trkpt><trkpt lat="44.18003169337758" lon="12.415241343152577"><ele>1.0</ele><time>2026-04-18T08:38:42.995Z</time></trkpt><trkpt lat="44.17997694507676" lon="12.415155450342052"><ele>0.9999999999999999</ele><time>2026-04-18T08:38:43.995Z</time></trkpt><trkpt lat="44.17992979205025" lon="12.41504094055722"><ele>1.0</ele><time>2026-04-18T08:38:44.995Z</time></trkpt><trkpt lat="44.179893798386225" lon="12.414946856962514"><ele>1.0</ele><time>2026-04-18T08:38:45.995Z</time></trkpt><trkpt lat="44.17995437705747" lon="12.41466550576416"><ele>1.0</ele><time>2026-04-18T08:38:47.995Z</time></trkpt><trkpt lat="44.179996444235" lon="12.414542085252927"><ele>1.0</ele><time>2026-04-18T08:38:48.995Z</time></trkpt><trkpt lat="44.18003352838883" lon="12.41442558289429"><ele>1.0</ele><time>2026-04-18T08:38:49.995Z</time></trkpt><trkpt lat="44.18012567178533" lon="12.41433396128213"><ele>0.20000000000000007</ele><time>2026-04-18T08:38:50.995Z</time></trkpt><trkpt lat="44.180185102240785" lon="12.414216840566695"><ele>-0.5999999999999999</ele><time>2026-04-18T08:38:51.995Z</time></trkpt><trkpt lat="44.18022642052468" lon="12.414077711686417"><ele>-1.4</ele><time>2026-04-18T08:38:52.995Z</time></trkpt><trkpt lat="44.18025170693906" lon="12.413936802845575"><ele>-2.1999999999999997</ele><time>2026-04-18T08:38:53.995Z</time></trkpt><trkpt lat="44.18025828547482" lon="12.41378990338863"><ele>-3.0</ele><time>2026-04-18T08:38:54.995Z</time></trkpt><trkpt lat="44.180262583717145" lon="12.413640150629986"><ele>-3.0</ele><time>2026-04-18T08:38:55.995Z</time></trkpt><trkpt lat="44.180251754895636" lon="12.413510242334585"><ele>-3.0</ele><time>2026-04-18T08:38:56.995Z</time></trkpt><trkpt lat="44.18021378326519" lon="12.413359616494802"><ele>-3.0</ele><time>2026-04-18T08:38:57.995Z</time></trkpt><trkpt lat="44.18015875738311" lon="12.413232640666763"><ele>-3.0</ele><time>2026-04-18T08:38:58.995Z</time></trkpt><trkpt lat="44.18010815158547" lon="12.413108221689619"><ele>-3.0</ele><time>2026-04-18T08:38:59.995Z</time></trkpt><trkpt lat="44.18007531471103" lon="12.412990034351562"><ele>-2.8</ele><time>2026-04-18T08:39:00.995Z</time></trkpt><trkpt lat="44.180067056689744" lon="12.412850359852508"><ele>-2.5999999999999996</ele><time>2026-04-18T08:39:01.995Z</time></trkpt><trkpt lat="44.18008989873077" lon="12.412716683795376"><ele>-2.4000000000000004</ele><time>2026-04-18T08:39:02.995Z</time></trkpt><trkpt lat="44.18013068892206" lon="12.412590586432596"><ele>-2.2</ele><time>2026-04-18T08:39:03.995Z</time></trkpt><trkpt lat="44.180204632029564" lon="12.412511852892752"><ele>-2.0</ele><time>2026-04-18T08:39:04.995Z</time></trkpt><trkpt lat="44.18028153101915" lon="12.412411349746185"><ele>-2.0</ele><time>2026-04-18T08:39:05.995Z</time></trkpt><trkpt lat="44.180350837527456" lon="12.412309788077147"><ele>-2.0</ele><time>2026-04-18T08:39:06.995Z</time></trkpt><trkpt lat="44.180453018449136" lon="12.412256312578725"><ele>-2.0</ele><time>2026-04-18T08:39:07.995Z</time></trkpt><trkpt lat="44.18056645590299" lon="12.41217962177529"><ele>-2.0</ele><time>2026-04-18T08:39:08.995Z</time></trkpt><trkpt lat="44.18068520642732" lon="12.412099845752298"><ele>-1.75</ele><time>2026-04-18T08:39:09.995Z</time></trkpt><trkpt lat="44.180817104911355" lon="12.412016746213766"><ele>-1.5</ele><time>2026-04-18T08:39:10.995Z</time></trkpt><trkpt lat="44.18094543613945" lon="12.411930350337228"><ele>-1.25</ele><time>2026-04-18T08:39:11.995Z</time></trkpt><trkpt lat="44.18107476962623" lon="12.411847183846987"><ele>-1.0</ele><time>2026-04-18T08:39:12.995Z</time></trkpt><trkpt lat="44.18120670100146" lon="12.411761485870533"><ele>-1.0</ele><time>2026-04-18T08:39:13.995Z</time></trkpt><trkpt lat="44.181341449677106" lon="12.411669828318363"><ele>-1.0</ele><time>2026-04-18T08:39:14.995Z</time></trkpt><trkpt lat="44.18147369021758" lon="12.4115830066596"><ele>-1.0</ele><time>2026-04-18T08:39:15.995Z</time></trkpt><trkpt lat="44.18161109873101" lon="12.411495473275783"><ele>-1.0</ele><time>2026-04-18T08:39:16.995Z</time></trkpt><trkpt lat="44.181746735307705" lon="12.411402573280402"><ele>-1.3333333333333333</ele><time>2026-04-18T08:39:17.995Z</time></trkpt><trkpt lat="44.181887611846996" lon="12.411306577766101"><ele>-1.6666666666666665</ele><time>2026-04-18T08:39:18.995Z</time></trkpt><trkpt lat="44.18204077761446" lon="12.4112186500999"><ele>-2.0</ele><time>2026-04-18T08:39:19.995Z</time></trkpt><trkpt lat="44.18217999300324" lon="12.411129835593686"><ele>-2.0</ele><time>2026-04-18T08:39:20.995Z</time></trkpt><trkpt lat="44.182314331393556" lon="12.41103326682708"><ele>-2.0</ele><time>2026-04-18T08:39:21.995Z</time></trkpt><trkpt lat="44.18245901712713" lon="12.410943190984671"><ele>-2.0</ele><time>2026-04-18T08:39:22.995Z</time></trkpt><trkpt lat="44.18261143063508" lon="12.410844694339042"><ele>-2.0</ele><time>2026-04-18T08:39:23.995Z</time></trkpt><trkpt lat="44.18275028144134" lon="12.410747128201452"><ele>-2.0</ele><time>2026-04-18T08:39:24.995Z</time></trkpt><trkpt lat="44.1828862238915" lon="12.41065461208479"><ele>-2.0</ele><time>2026-04-18T08:39:25.995Z</time></trkpt><trkpt lat="44.183023199995596" lon="12.41055651952197"><ele>-1.6666666666666665</ele><time>2026-04-18T08:39:26.995Z</time></trkpt><trkpt lat="44.18316066127955" lon="12.410458600906736"><ele>-1.3333333333333333</ele><time>2026-04-18T08:39:27.995Z</time></trkpt><trkpt lat="44.18330457243531" lon="12.410368970945994"><ele>-1.0</ele><time>2026-04-18T08:39:28.995Z</time></trkpt><trkpt lat="44.18344771895287" lon="12.410268860041185"><ele>-1.0</ele><time>2026-04-18T08:39:29.995Z</time></trkpt><trkpt lat="44.183599545714024" lon="12.4101804439932"><ele>-1.0</ele><time>2026-04-18T08:39:30.995Z</time></trkpt><trkpt lat="44.18374551939209" lon="12.41008709199397"><ele>-1.0</ele><time>2026-04-18T08:39:31.995Z</time></trkpt><trkpt lat="44.18389250204127" lon="12.409992814720136"><ele>-1.0</ele><time>2026-04-18T08:39:32.995Z</time></trkpt><trkpt lat="44.18404928694453" lon="12.409892043841378"><ele>-1.0</ele><time>2026-04-18T08:39:33.995Z</time></trkpt><trkpt lat="44.18420091322776" lon="12.409782504628177"><ele>-1.0</ele><time>2026-04-18T08:39:34.995Z</time></trkpt><trkpt lat="44.18435063560836" lon="12.40967772980161"><ele>-1.3333333333333333</ele><time>2026-04-18T08:39:35.995Z</time></trkpt><trkpt lat="44.184511966393934" lon="12.409580842663813"><ele>-1.6666666666666665</ele><time>2026-04-18T08:39:36.995Z</time></trkpt><trkpt lat="44.18466516544393" lon="12.409480231119616"><ele>-2.0</ele><time>2026-04-18T08:39:37.995Z</time></trkpt><trkpt lat="44.184815995666426" lon="12.409366643229225"><ele>-2.0</ele><time>2026-04-18T08:39:38.995Z</time></trkpt><trkpt lat="44.18497067418454" lon="12.409256094933191"><ele>-2.0</ele><time>2026-04-18T08:39:39.995Z</time></trkpt><trkpt lat="44.185132823683475" lon="12.409146478737355"><ele>-2.0</ele><time>2026-04-18T08:39:40.995Z</time></trkpt><trkpt lat="44.18528712664357" lon="12.409037372972552"><ele>-2.0</ele><time>2026-04-18T08:39:41.995Z</time></trkpt><trkpt lat="44.185445328765454" lon="12.40891915739824"><ele>-2.0</ele><time>2026-04-18T08:39:42.995Z</time></trkpt><trkpt lat="44.185596324245545" lon="12.408793178026215"><ele>-2.0</ele><time>2026-04-18T08:39:43.995Z</time></trkpt><trkpt lat="44.1857554749227" lon="12.408678107430186"><ele>-1.3333333333333333</ele><time>2026-04-18T08:39:44.995Z</time></trkpt><trkpt lat="44.18590932814601" lon="12.40855264449959"><ele>-0.6666666666666666</ele><time>2026-04-18T08:39:45.995Z</time></trkpt><trkpt lat="44.18606038556309" lon="12.40842016165127"><ele>0.0</ele><time>2026-04-18T08:39:46.995Z</time></trkpt><trkpt lat="44.18620770057869" lon="12.408267430331168"><ele>0.0</ele><time>2026-04-18T08:39:47.995Z</time></trkpt><trkpt lat="44.186360285212146" lon="12.408127416208613"><ele>0.0</ele><time>2026-04-18T08:39:48.995Z</time></trkpt><trkpt lat="44.18650784953623" lon="12.407985276714053"><ele>0.0</ele><time>2026-04-18T08:39:49.995Z</time></trkpt><trkpt lat="44.1866526653897" lon="12.407847075815024"><ele>0.6666666666666666</ele><time>2026-04-18T08:39:50.995Z</time></trkpt><trkpt lat="44.18680174125712" lon="12.407691196804414"><ele>1.3333333333333333</ele><time>2026-04-18T08:39:51.995Z</time></trkpt><trkpt lat="44.18695049827342" lon="12.407529889983952"><ele>2.0</ele><time>2026-04-18T08:39:52.995Z</time></trkpt><trkpt lat="44.18709709397433" lon="12.407371662967348"><ele>2.0</ele><time>2026-04-18T08:39:53.995Z</time></trkpt><trkpt lat="44.18724013579587" lon="12.40720144324136"><ele>2.0</ele><time>2026-04-18T08:39:54.995Z</time></trkpt><trkpt lat="44.1873798361828" lon="12.40701904819055"><ele>2.0</ele><time>2026-04-18T08:39:55.995Z</time></trkpt><trkpt lat="44.187514889206696" lon="12.406839318207764"><ele>2.0</ele><time>2026-04-18T08:39:56.995Z</time></trkpt><trkpt lat="44.187657057629195" lon="12.406670143283295"><ele>2.0</ele><time>2026-04-18T08:39:57.995Z</time></trkpt><trkpt lat="44.187792083461815" lon="12.40650144524118"><ele>2.0</ele><time>2026-04-18T08:39:58.995Z</time></trkpt><trkpt lat="44.18791128785445" lon="12.40634425020996"><ele>2.0</ele><time>2026-04-18T08:39:59.995Z</time></trkpt><trkpt lat="44.18802301619096" lon="12.406169312537335"><ele>2.0</ele><time>2026-04-18T08:40:00.995Z</time></trkpt><trkpt lat="44.188136958006865" lon="12.405988033758417"><ele>2.0</ele><time>2026-04-18T08:40:01.995Z</time></trkpt><trkpt lat="44.1882546869146" lon="12.405816433961107"><ele>2.0</ele><time>2026-04-18T08:40:02.995Z</time></trkpt><trkpt lat="44.18837239912514" lon="12.40563249636911"><ele>2.0</ele><time>2026-04-18T08:40:03.995Z</time></trkpt><trkpt lat="44.18849156580067" lon="12.405453719905603"><ele>2.0</ele><time>2026-04-18T08:40:04.995Z</time></trkpt><trkpt lat="44.18860462613804" lon="12.405270570102203"><ele>2.0</ele><time>2026-04-18T08:40:05.995Z</time></trkpt><trkpt lat="44.188714102462086" lon="12.405100300886774"><ele>2.0</ele><time>2026-04-18T08:40:06.995Z</time></trkpt><trkpt lat="44.18881836677561" lon="12.404920844645051"><ele>2.0</ele><time>2026-04-18T08:40:07.995Z</time></trkpt><trkpt lat="44.18891997243405" lon="12.404753627417533"><ele>2.0</ele><time>2026-04-18T08:40:08.995Z</time></trkpt><trkpt lat="44.18900801398549" lon="12.40458448595774"><ele>2.0</ele><time>2026-04-18T08:40:09.995Z</time></trkpt><trkpt lat="44.18910169728583" lon="12.404408772130466"><ele>2.0</ele><time>2026-04-18T08:40:10.995Z</time></trkpt><trkpt lat="44.18921191652298" lon="12.404234412861545"><ele>2.0</ele><time>2026-04-18T08:40:11.994Z</time></trkpt><trkpt lat="44.18932010722926" lon="12.404066552901233"><ele>2.0</ele><time>2026-04-18T08:40:12.994Z</time></trkpt><trkpt lat="44.189432874463954" lon="12.403907489871406"><ele>2.0</ele><time>2026-04-18T08:40:13.994Z</time></trkpt><trkpt lat="44.18952533951593" lon="12.403742258532944"><ele>2.0</ele><time>2026-04-18T08:40:14.994Z</time></trkpt><trkpt lat="44.18961072869402" lon="12.403593536504246"><ele>2.0</ele><time>2026-04-18T08:40:15.994Z</time></trkpt><trkpt lat="44.18970929903533" lon="12.403431270292755"><ele>2.0</ele><time>2026-04-18T08:40:16.994Z</time></trkpt><trkpt lat="44.18981155754769" lon="12.403270825942196"><ele>2.0</ele><time>2026-04-18T08:40:17.994Z</time></trkpt><trkpt lat="44.189915751760616" lon="12.403114423458588"><ele>1.75</ele><time>2026-04-18T08:40:18.994Z</time></trkpt><trkpt lat="44.190008261762735" lon="12.40295823564295"><ele>1.5</ele><time>2026-04-18T08:40:19.994Z</time></trkpt><trkpt lat="44.19010785131206" lon="12.402806927841558"><ele>1.25</ele><time>2026-04-18T08:40:20.994Z</time></trkpt><trkpt lat="44.19020359182225" lon="12.402645084927128"><ele>1.0</ele><time>2026-04-18T08:40:21.994Z</time></trkpt><trkpt lat="44.19030519920346" lon="12.402484276982413"><ele>1.0</ele><time>2026-04-18T08:40:22.994Z</time></trkpt><trkpt lat="44.19040522083667" lon="12.4023215425458"><ele>1.0</ele><time>2026-04-18T08:40:23.994Z</time></trkpt><trkpt lat="44.19050862672353" lon="12.402152776805485"><ele>1.0</ele><time>2026-04-18T08:40:24.994Z</time></trkpt><trkpt lat="44.190612093152296" lon="12.401982241540898"><ele>1.3333333333333333</ele><time>2026-04-18T08:40:25.994Z</time></trkpt><trkpt lat="44.19070952525065" lon="12.401810812252718"><ele>1.6666666666666665</ele><time>2026-04-18T08:40:26.994Z</time></trkpt><trkpt lat="44.19081018156855" lon="12.401642472752647"><ele>2.0</ele><time>2026-04-18T08:40:27.994Z</time></trkpt><trkpt lat="44.190919459597445" lon="12.401475160088928"><ele>1.3333333333333333</ele><time>2026-04-18T08:40:28.994Z</time></trkpt><trkpt lat="44.191025893475626" lon="12.401300481368056"><ele>0.6666666666666666</ele><time>2026-04-18T08:40:29.994Z</time></trkpt><trkpt lat="44.191146216359705" lon="12.401110211582775"><ele>0.0</ele><time>2026-04-18T08:40:30.994Z</time></trkpt><trkpt lat="44.19126469781357" lon="12.40092539978046"><ele>0.0</ele><time>2026-04-18T08:40:31.994Z</time></trkpt><trkpt lat="44.191384332448514" lon="12.400740258346215"><ele>0.0</ele><time>2026-04-18T08:40:32.994Z</time></trkpt><trkpt lat="44.19149811875536" lon="12.400552606170022"><ele>0.0</ele><time>2026-04-18T08:40:33.994Z</time></trkpt><trkpt lat="44.19161022440591" lon="12.400369397631737"><ele>0.0</ele><time>2026-04-18T08:40:34.994Z</time></trkpt><trkpt lat="44.19172154866094" lon="12.400193143139711"><ele>0.0</ele><time>2026-04-18T08:40:35.994Z</time></trkpt><trkpt lat="44.19183201935488" lon="12.400016107662953"><ele>0.0</ele><time>2026-04-18T08:40:36.994Z</time></trkpt><trkpt lat="44.19194317672432" lon="12.399843545575932"><ele>0.3333333333333333</ele><time>2026-04-18T08:40:37.994Z</time></trkpt><trkpt lat="44.19205469716143" lon="12.399663303481672"><ele>0.6666666666666666</ele><time>2026-04-18T08:40:38.994Z</time></trkpt><trkpt lat="44.192163711579624" lon="12.39948186955673"><ele>1.0</ele><time>2026-04-18T08:40:39.994Z</time></trkpt><trkpt lat="44.19227055401828" lon="12.399306962855777"><ele>1.0</ele><time>2026-04-18T08:40:40.994Z</time></trkpt><trkpt lat="44.19237897367704" lon="12.399125894883392"><ele>1.0</ele><time>2026-04-18T08:40:41.994Z</time></trkpt><trkpt lat="44.1924919089449" lon="12.398948059211461"><ele>1.0</ele><time>2026-04-18T08:40:42.994Z</time></trkpt><trkpt lat="44.19260469603846" lon="12.398775607335155"><ele>1.6666666666666665</ele><time>2026-04-18T08:40:43.994Z</time></trkpt><trkpt lat="44.19271022760743" lon="12.398601834937779"><ele>2.3333333333333335</ele><time>2026-04-18T08:40:44.994Z</time></trkpt><trkpt lat="44.192818176547256" lon="12.398419789269331"><ele>3.0</ele><time>2026-04-18T08:40:45.994Z</time></trkpt><trkpt lat="44.1929180524023" lon="12.398263433848406"><ele>3.0</ele><time>2026-04-18T08:40:46.994Z</time></trkpt><trkpt lat="44.193019442325" lon="12.39809186436455"><ele>3.0</ele><time>2026-04-18T08:40:47.994Z</time></trkpt><trkpt lat="44.19312372663224" lon="12.397922285237987"><ele>3.0</ele><time>2026-04-18T08:40:48.994Z</time></trkpt><trkpt lat="44.193226979847" lon="12.397754568722029"><ele>2.25</ele><time>2026-04-18T08:40:49.994Z</time></trkpt><trkpt lat="44.193331712084756" lon="12.39759928585975"><ele>1.5</ele><time>2026-04-18T08:40:50.994Z</time></trkpt><trkpt lat="44.19343718518012" lon="12.397458665089808"><ele>0.75</ele><time>2026-04-18T08:40:51.994Z</time></trkpt><trkpt lat="44.19354204704797" lon="12.397313060426876"><ele>0.0</ele><time>2026-04-18T08:40:52.994Z</time></trkpt><trkpt lat="44.193647076930866" lon="12.397175185476614"><ele>0.3333333333333333</ele><time>2026-04-18T08:40:53.994Z</time></trkpt><trkpt lat="44.19374927361355" lon="12.397033772378363"><ele>0.6666666666666666</ele><time>2026-04-18T08:40:54.994Z</time></trkpt><trkpt lat="44.19384423884847" lon="12.396874086991003"><ele>1.0</ele><time>2026-04-18T08:40:55.994Z</time></trkpt><trkpt lat="44.19394716389048" lon="12.396708559134705"><ele>0.6666666666666666</ele><time>2026-04-18T08:40:56.994Z</time></trkpt><trkpt lat="44.19405094407868" lon="12.396534942031519"><ele>0.3333333333333333</ele><time>2026-04-18T08:40:57.994Z</time></trkpt><trkpt lat="44.19415415237037" lon="12.396365498203595"><ele>0.0</ele><time>2026-04-18T08:40:58.994Z</time></trkpt><trkpt lat="44.194265557928745" lon="12.396190909611267"><ele>0.0</ele><time>2026-04-18T08:40:59.994Z</time></trkpt><trkpt lat="44.19436405358885" lon="12.396026672770535"><ele>0.0</ele><time>2026-04-18T08:41:00.994Z</time></trkpt><trkpt lat="44.19448119914588" lon="12.39585777548914"><ele>0.0</ele><time>2026-04-18T08:41:01.994Z</time></trkpt><trkpt lat="44.19457776718605" lon="12.395676876896648"><ele>0.0</ele><time>2026-04-18T08:41:02.994Z</time></trkpt><trkpt lat="44.19468887725981" lon="12.395509055877634"><ele>0.0</ele><time>2026-04-18T08:41:03.994Z</time></trkpt><trkpt lat="44.1948001804932" lon="12.395341671088957"><ele>0.0</ele><time>2026-04-18T08:41:04.994Z</time></trkpt><trkpt lat="44.19491270138624" lon="12.395179527929438"><ele>0.0</ele><time>2026-04-18T08:41:05.994Z</time></trkpt><trkpt lat="44.19501584597858" lon="12.395020216703436"><ele>0.0</ele><time>2026-04-18T08:41:06.994Z</time></trkpt><trkpt lat="44.195126351887694" lon="12.394857608605278"><ele>0.0</ele><time>2026-04-18T08:41:07.994Z</time></trkpt><trkpt lat="44.19523433065808" lon="12.394696345471392"><ele>0.0</ele><time>2026-04-18T08:41:08.994Z</time></trkpt><trkpt lat="44.19534199203059" lon="12.394538599269977"><ele>0.0</ele><time>2026-04-18T08:41:09.994Z</time></trkpt><trkpt lat="44.195449159443534" lon="12.394383005050045"><ele>0.0</ele><time>2026-04-18T08:41:10.994Z</time></trkpt><trkpt lat="44.195555288537946" lon="12.394229063700227"><ele>0.0</ele><time>2026-04-18T08:41:11.994Z</time></trkpt><trkpt lat="44.195654908798495" lon="12.394085948467012"><ele>0.0</ele><time>2026-04-18T08:41:12.994Z</time></trkpt><trkpt lat="44.19574871924848" lon="12.39394919038772"><ele>0.0</ele><time>2026-04-18T08:41:13.994Z</time></trkpt><trkpt lat="44.19584283383254" lon="12.393815563749888"><ele>0.0</ele><time>2026-04-18T08:41:14.994Z</time></trkpt><trkpt lat="44.19593433836849" lon="12.393686066799665"><ele>-0.5</ele><time>2026-04-18T08:41:15.994Z</time></trkpt><trkpt lat="44.196021523027945" lon="12.393561370943598"><ele>-1.0</ele><time>2026-04-18T08:41:16.994Z</time></trkpt><trkpt lat="44.19610363321968" lon="12.393444788020865"><ele>-1.5</ele><time>2026-04-18T08:41:17.994Z</time></trkpt><trkpt lat="44.196180837833246" lon="12.393332686737883"><ele>-2.0</ele><time>2026-04-18T08:41:18.994Z</time></trkpt><trkpt lat="44.1962538238677" lon="12.393224547252865"><ele>-1.9999999999999998</ele><time>2026-04-18T08:41:19.994Z</time></trkpt><trkpt lat="44.1963189527358" lon="12.393123000948773"><ele>-2.0</ele><time>2026-04-18T08:41:20.994Z</time></trkpt><trkpt lat="44.1963886076614" lon="12.393023133640154"><ele>-2.0</ele><time>2026-04-18T08:41:21.994Z</time></trkpt><trkpt lat="44.19644701086949" lon="12.392928238967583"><ele>-2.0</ele><time>2026-04-18T08:41:22.994Z</time></trkpt><trkpt lat="44.1964977055494" lon="12.39283652529327"><ele>-1.9999999999999998</ele><time>2026-04-18T08:41:23.994Z</time></trkpt><trkpt lat="44.19653005951499" lon="12.392750932560556"><ele>-2.0</ele><time>2026-04-18T08:41:24.994Z</time></trkpt><trkpt lat="44.19657441229433" lon="12.392618898116984"><ele>-1.8</ele><time>2026-04-18T08:41:26.994Z</time></trkpt><trkpt lat="44.19660593636247" lon="12.392531228651855"><ele>-1.6</ele><time>2026-04-18T08:41:28.994Z</time></trkpt><trkpt lat="44.196641884135786" lon="12.392404922552258"><ele>-1.4000000000000001</ele><time>2026-04-18T08:41:32.994Z</time></trkpt><trkpt lat="44.19671380768554" lon="12.392240420714563"><ele>-1.2000000000000002</ele><time>2026-04-18T08:41:34.994Z</time></trkpt><trkpt lat="44.19677491373491" lon="12.392151835651624"><ele>-1.0</ele><time>2026-04-18T08:41:35.994Z</time></trkpt><trkpt lat="44.196833746540314" lon="12.392060030191711"><ele>-0.8333333333333333</ele><time>2026-04-18T08:41:36.994Z</time></trkpt><trkpt lat="44.196900015371966" lon="12.391972518395642"><ele>-0.6666666666666666</ele><time>2026-04-18T08:41:37.994Z</time></trkpt><trkpt lat="44.196961640984966" lon="12.391899771721455"><ele>-0.5</ele><time>2026-04-18T08:41:38.994Z</time></trkpt><trkpt lat="44.197014239584746" lon="12.3918261425437"><ele>-0.3333333333333333</ele><time>2026-04-18T08:41:39.994Z</time></trkpt><trkpt lat="44.19706772240893" lon="12.391755839802107"><ele>-0.16666666666666666</ele><time>2026-04-18T08:41:40.994Z</time></trkpt><trkpt lat="44.19712066697846" lon="12.391694900232755"><ele>0.0</ele><time>2026-04-18T08:41:41.994Z</time></trkpt><trkpt lat="44.19718134030239" lon="12.39162440052535"><ele>0.0</ele><time>2026-04-18T08:41:43.994Z</time></trkpt><trkpt lat="44.1971062190357" lon="12.391497264164732"><ele>0.0</ele><time>2026-04-18T08:41:44.994Z</time></trkpt><trkpt lat="44.197045667459044" lon="12.391471828970069"><ele>0.0</ele><time>2026-04-18T08:41:45.994Z</time></trkpt><trkpt lat="44.19695330617829" lon="12.391505217948493"><ele>0.0</ele><time>2026-04-18T08:41:46.994Z</time></trkpt><trkpt lat="44.19689054255513" lon="12.391579310536807"><ele>0.0</ele><time>2026-04-18T08:41:47.994Z</time></trkpt><trkpt lat="44.19683542966124" lon="12.391660486449744"><ele>0.0</ele><time>2026-04-18T08:41:48.994Z</time></trkpt><trkpt lat="44.19678325432992" lon="12.391713216098005"><ele>0.0</ele><time>2026-04-18T08:41:49.994Z</time></trkpt><trkpt lat="44.19663586448591" lon="12.391655718593118"><ele>0.0</ele><time>2026-04-18T08:41:51.994Z</time></trkpt><trkpt lat="44.19656231517662" lon="12.391596276474854"><ele>0.0</ele><time>2026-04-18T08:41:52.994Z</time></trkpt><trkpt lat="44.19649577461982" lon="12.391452193346737"><ele>0.0</ele><time>2026-04-18T08:41:53.994Z</time></trkpt><trkpt lat="44.19642311703088" lon="12.391351194598164"><ele>0.0</ele><time>2026-04-18T08:41:54.994Z</time></trkpt><trkpt lat="44.196350314403844" lon="12.39125020620369"><ele>0.0</ele><time>2026-04-18T08:41:55.994Z</time></trkpt><trkpt lat="44.19628184170836" lon="12.391152628590962"><ele>0.0</ele><time>2026-04-18T08:41:56.994Z</time></trkpt><trkpt lat="44.19621139761215" lon="12.391052380121845"><ele>0.0</ele><time>2026-04-18T08:41:57.994Z</time></trkpt><trkpt lat="44.19613562150645" lon="12.390957997984831"><ele>0.0</ele><time>2026-04-18T08:41:58.994Z</time></trkpt><trkpt lat="44.19606101834445" lon="12.390859898399581"><ele>0.0</ele><time>2026-04-18T08:41:59.994Z</time></trkpt><trkpt lat="44.195982921718084" lon="12.3907605415091"><ele>0.0</ele><time>2026-04-18T08:42:00.994Z</time></trkpt><trkpt lat="44.195908550217304" lon="12.39065965293112"><ele>0.0</ele><time>2026-04-18T08:42:01.994Z</time></trkpt><trkpt lat="44.195839533005824" lon="12.390571704333336"><ele>0.0</ele><time>2026-04-18T08:42:02.993Z</time></trkpt><trkpt lat="44.19576509306157" lon="12.39048181005188"><ele>0.0</ele><time>2026-04-18T08:42:03.993Z</time></trkpt><trkpt lat="44.19569018904742" lon="12.390378441681877"><ele>0.2</ele><time>2026-04-18T08:42:04.993Z</time></trkpt><trkpt lat="44.19561449739216" lon="12.390271109443498"><ele>0.4</ele><time>2026-04-18T08:42:05.993Z</time></trkpt><trkpt lat="44.195535969437245" lon="12.390168140818373"><ele>0.6000000000000001</ele><time>2026-04-18T08:42:06.993Z</time></trkpt><trkpt lat="44.19545538147947" lon="12.390072409355609"><ele>0.8</ele><time>2026-04-18T08:42:07.993Z</time></trkpt><trkpt lat="44.19537550455915" lon="12.389975244635178"><ele>1.0</ele><time>2026-04-18T08:42:08.993Z</time></trkpt><trkpt lat="44.19529503965233" lon="12.389871521435012"><ele>1.0</ele><time>2026-04-18T08:42:09.993Z</time></trkpt><trkpt lat="44.195216908331574" lon="12.389765582840374"><ele>1.0</ele><time>2026-04-18T08:42:10.993Z</time></trkpt><trkpt lat="44.19513663268712" lon="12.389658683373078"><ele>1.0</ele><time>2026-04-18T08:42:11.993Z</time></trkpt><trkpt lat="44.19506060761316" lon="12.389556780891521"><ele>1.0</ele><time>2026-04-18T08:42:12.993Z</time></trkpt><trkpt lat="44.19499743169449" lon="12.389464817034797"><ele>1.0</ele><time>2026-04-18T08:42:13.993Z</time></trkpt><trkpt lat="44.194932644141744" lon="12.389376471745738"><ele>0.6666666666666666</ele><time>2026-04-18T08:42:14.993Z</time></trkpt><trkpt lat="44.19487123890508" lon="12.389294931645063"><ele>0.3333333333333333</ele><time>2026-04-18T08:42:15.993Z</time></trkpt><trkpt lat="44.19480629698605" lon="12.389216801303258"><ele>0.0</ele><time>2026-04-18T08:42:16.993Z</time></trkpt><trkpt lat="44.19473849964574" lon="12.389142486801799"><ele>-0.3333333333333333</ele><time>2026-04-18T08:42:17.993Z</time></trkpt><trkpt lat="44.19467263876561" lon="12.389053192938798"><ele>-0.6666666666666666</ele><time>2026-04-18T08:42:18.993Z</time></trkpt><trkpt lat="44.19460794662729" lon="12.38897114199174"><ele>-1.0</ele><time>2026-04-18T08:42:19.993Z</time></trkpt><trkpt lat="44.194538630113385" lon="12.388887476719978"><ele>-0.6000000000000001</ele><time>2026-04-18T08:42:20.993Z</time></trkpt><trkpt lat="44.194468490964034" lon="12.388801922634492"><ele>-0.20000000000000007</ele><time>2026-04-18T08:42:21.993Z</time></trkpt><trkpt lat="44.19440656017152" lon="12.38871757500862"><ele>0.20000000000000007</ele><time>2026-04-18T08:42:22.993Z</time></trkpt><trkpt lat="44.194337161656904" lon="12.388628926567707"><ele>0.6000000000000001</ele><time>2026-04-18T08:42:23.993Z</time></trkpt><trkpt lat="44.19427003731334" lon="12.388539124227567"><ele>1.0</ele><time>2026-04-18T08:42:24.993Z</time></trkpt><trkpt lat="44.19420306442493" lon="12.388451823768085"><ele>1.0</ele><time>2026-04-18T08:42:25.993Z</time></trkpt><trkpt lat="44.19413397862877" lon="12.388364410792569"><ele>1.0</ele><time>2026-04-18T08:42:26.993Z</time></trkpt><trkpt lat="44.19406204166717" lon="12.388280310356091"><ele>1.0</ele><time>2026-04-18T08:42:27.993Z</time></trkpt><trkpt lat="44.193987658141886" lon="12.388191528976154"><ele>1.0</ele><time>2026-04-18T08:42:28.993Z</time></trkpt><trkpt lat="44.19391309038711" lon="12.388102268874542"><ele>1.0</ele><time>2026-04-18T08:42:29.993Z</time></trkpt><trkpt lat="44.193853528049566" lon="12.38799476056546"><ele>0.8</ele><time>2026-04-18T08:42:30.993Z</time></trkpt><trkpt lat="44.19377788511441" lon="12.387894650070855"><ele>0.6000000000000001</ele><time>2026-04-18T08:42:31.993Z</time></trkpt><trkpt lat="44.19370187917976" lon="12.387799020789123"><ele>0.4</ele><time>2026-04-18T08:42:32.993Z</time></trkpt><trkpt lat="44.19362391288854" lon="12.387706054808355"><ele>0.2</ele><time>2026-04-18T08:42:33.993Z</time></trkpt><trkpt lat="44.19354302836969" lon="12.38761889311213"><ele>0.0</ele><time>2026-04-18T08:42:34.993Z</time></trkpt><trkpt lat="44.19345340948638" lon="12.387527334428384"><ele>0.0</ele><time>2026-04-18T08:42:35.993Z</time></trkpt><trkpt lat="44.19336174635587" lon="12.38744296581371"><ele>0.0</ele><time>2026-04-18T08:42:36.993Z</time></trkpt><trkpt lat="44.193261970818234" lon="12.38736311496037"><ele>0.0</ele><time>2026-04-18T08:42:37.993Z</time></trkpt><trkpt lat="44.19315687935095" lon="12.387292817595753"><ele>0.0</ele><time>2026-04-18T08:42:38.993Z</time></trkpt><trkpt lat="44.193050581954004" lon="12.387228762891892"><ele>0.0</ele><time>2026-04-18T08:42:39.993Z</time></trkpt><trkpt lat="44.19294259422338" lon="12.387165194801963"><ele>0.0</ele><time>2026-04-18T08:42:40.993Z</time></trkpt><trkpt lat="44.19282799432188" lon="12.387100061727262"><ele>0.0</ele><time>2026-04-18T08:42:41.993Z</time></trkpt><trkpt lat="44.192716539849705" lon="12.387037224760347"><ele>0.0</ele><time>2026-04-18T08:42:42.993Z</time></trkpt><trkpt lat="44.19260531668109" lon="12.38697451833403"><ele>0.0</ele><time>2026-04-18T08:42:43.993Z</time></trkpt><trkpt lat="44.19249118609803" lon="12.386913327364441"><ele>0.0</ele><time>2026-04-18T08:42:44.993Z</time></trkpt><trkpt lat="44.192373966659126" lon="12.386851344838366"><ele>0.0</ele><time>2026-04-18T08:42:45.993Z</time></trkpt><trkpt lat="44.192257457620414" lon="12.386790881291326"><ele>0.0</ele><time>2026-04-18T08:42:46.993Z</time></trkpt><trkpt lat="44.192144442762384" lon="12.386732231085325"><ele>0.25</ele><time>2026-04-18T08:42:47.993Z</time></trkpt><trkpt lat="44.19202759416366" lon="12.38667159132965"><ele>0.5</ele><time>2026-04-18T08:42:48.993Z</time></trkpt><trkpt lat="44.19191324085002" lon="12.386611627389682"><ele>0.75</ele><time>2026-04-18T08:42:49.993Z</time></trkpt><trkpt lat="44.19180735234541" lon="12.386553451076868"><ele>1.0</ele><time>2026-04-18T08:42:50.993Z</time></trkpt><trkpt lat="44.191700934394014" lon="12.386494631743394"><ele>1.0</ele><time>2026-04-18T08:42:51.993Z</time></trkpt><trkpt lat="44.19159989759449" lon="12.386437145696597"><ele>1.0</ele><time>2026-04-18T08:42:52.993Z</time></trkpt><trkpt lat="44.19150626963522" lon="12.386381086281533"><ele>1.0</ele><time>2026-04-18T08:42:53.993Z</time></trkpt><trkpt lat="44.191413745972525" lon="12.38632488432656"><ele>1.0</ele><time>2026-04-18T08:42:54.993Z</time></trkpt><trkpt lat="44.19134290393669" lon="12.3862800131305"><ele>1.0</ele><time>2026-04-18T08:42:55.993Z</time></trkpt><trkpt lat="44.19126633211339" lon="12.386230788457475"><ele>1.2000000000000002</ele><time>2026-04-18T08:42:56.993Z</time></trkpt><trkpt lat="44.1912073781469" lon="12.386190293639745"><ele>1.4000000000000001</ele><time>2026-04-18T08:42:57.993Z</time></trkpt><trkpt lat="44.19113539319895" lon="12.386138817609703"><ele>1.6</ele><time>2026-04-18T08:42:59.993Z</time></trkpt><trkpt lat="44.19105267733282" lon="12.386086557325683"><ele>1.8</ele><time>2026-04-18T08:43:07.993Z</time></trkpt><trkpt lat="44.190959548103834" lon="12.386001429701707"><ele>2.0</ele><time>2026-04-18T08:43:09.993Z</time></trkpt><trkpt lat="44.19085230444402" lon="12.3859024891191"><ele>2.0</ele><time>2026-04-18T08:43:11.993Z</time></trkpt><trkpt lat="44.19078601789874" lon="12.385843397755096"><ele>2.0</ele><time>2026-04-18T08:43:12.993Z</time></trkpt><trkpt lat="44.19071352869958" lon="12.385773499143186"><ele>2.0</ele><time>2026-04-18T08:43:13.993Z</time></trkpt><trkpt lat="44.190633636928595" lon="12.385695007249726"><ele>2.0</ele><time>2026-04-18T08:43:14.993Z</time></trkpt><trkpt lat="44.190564987151994" lon="12.385608491977814"><ele>2.0</ele><time>2026-04-18T08:43:15.993Z</time></trkpt><trkpt lat="44.190489840940295" lon="12.385532285566653"><ele>2.0</ele><time>2026-04-18T08:43:16.993Z</time></trkpt><trkpt lat="44.19040775796763" lon="12.385455928519457"><ele>2.0</ele><time>2026-04-18T08:43:17.993Z</time></trkpt><trkpt lat="44.19032165109893" lon="12.385379972210815"><ele>2.0</ele><time>2026-04-18T08:43:18.993Z</time></trkpt><trkpt lat="44.1902316810664" lon="12.385301568904687"><ele>2.0</ele><time>2026-04-18T08:43:19.993Z</time></trkpt><trkpt lat="44.19013909901936" lon="12.385223663933822"><ele>2.0</ele><time>2026-04-18T08:43:20.993Z</time></trkpt><trkpt lat="44.19004153198538" lon="12.385136324204558"><ele>2.0</ele><time>2026-04-18T08:43:21.993Z</time></trkpt><trkpt lat="44.18994162825627" lon="12.385049333278825"><ele>2.0</ele><time>2026-04-18T08:43:22.993Z</time></trkpt><trkpt lat="44.18983976177503" lon="12.38495554129475"><ele>2.0</ele><time>2026-04-18T08:43:23.993Z</time></trkpt><trkpt lat="44.18973794107121" lon="12.384862249703176"><ele>2.0</ele><time>2026-04-18T08:43:24.993Z</time></trkpt><trkpt lat="44.18963931406402" lon="12.384764038973099"><ele>2.0</ele><time>2026-04-18T08:43:25.993Z</time></trkpt><trkpt lat="44.18953756242682" lon="12.384669761531047"><ele>2.0</ele><time>2026-04-18T08:43:26.993Z</time></trkpt><trkpt lat="44.18943207247357" lon="12.384576329337246"><ele>2.0</ele><time>2026-04-18T08:43:27.993Z</time></trkpt><trkpt lat="44.18933122810898" lon="12.384478709616882"><ele>2.0</ele><time>2026-04-18T08:43:28.993Z</time></trkpt><trkpt lat="44.189231011864386" lon="12.38437345841408"><ele>2.0</ele><time>2026-04-18T08:43:29.993Z</time></trkpt><trkpt lat="44.189129852451885" lon="12.384265129012245"><ele>2.0</ele><time>2026-04-18T08:43:30.993Z</time></trkpt><trkpt lat="44.18903028085886" lon="12.384159564429781"><ele>2.0</ele><time>2026-04-18T08:43:31.993Z</time></trkpt><trkpt lat="44.188928144384555" lon="12.384043872942367"><ele>2.0</ele><time>2026-04-18T08:43:32.993Z</time></trkpt><trkpt lat="44.18882865833315" lon="12.383928966752235"><ele>2.0</ele><time>2026-04-18T08:43:33.993Z</time></trkpt><trkpt lat="44.18873313827312" lon="12.383823133543611"><ele>2.0</ele><time>2026-04-18T08:43:34.993Z</time></trkpt><trkpt lat="44.18864351060885" lon="12.38372901009386"><ele>2.0</ele><time>2026-04-18T08:43:35.993Z</time></trkpt><trkpt lat="44.18855104293298" lon="12.383636561143943"><ele>2.0</ele><time>2026-04-18T08:43:36.993Z</time></trkpt><trkpt lat="44.18846572002858" lon="12.383546016773563"><ele>2.0</ele><time>2026-04-18T08:43:37.993Z</time></trkpt><trkpt lat="44.18838237557903" lon="12.383454399759717"><ele>2.0</ele><time>2026-04-18T08:43:38.993Z</time></trkpt><trkpt lat="44.18830452033834" lon="12.383371856233119"><ele>2.0</ele><time>2026-04-18T08:43:39.993Z</time></trkpt><trkpt lat="44.18822845268389" lon="12.383287384642266"><ele>2.0</ele><time>2026-04-18T08:43:40.993Z</time></trkpt><trkpt lat="44.188160950223626" lon="12.38320765426346"><ele>2.0</ele><time>2026-04-18T08:43:41.993Z</time></trkpt><trkpt lat="44.18809645612208" lon="12.383134799452563"><ele>1.8333333333333333</ele><time>2026-04-18T08:43:42.993Z</time></trkpt><trkpt lat="44.188037368538964" lon="12.383071991975616"><ele>1.6666666666666665</ele><time>2026-04-18T08:43:43.993Z</time></trkpt><trkpt lat="44.1879778826363" lon="12.383004251706222"><ele>1.5</ele><time>2026-04-18T08:43:44.993Z</time></trkpt><trkpt lat="44.18791462919788" lon="12.382935895761689"><ele>1.3333333333333333</ele><time>2026-04-18T08:43:45.993Z</time></trkpt><trkpt lat="44.187859189797" lon="12.382851817936908"><ele>1.1666666666666665</ele><time>2026-04-18T08:43:46.993Z</time></trkpt><trkpt lat="44.18780614378137" lon="12.382776932033947"><ele>1.0</ele><time>2026-04-18T08:43:47.993Z</time></trkpt><trkpt lat="44.18774672010314" lon="12.38271466789124"><ele>1.4</ele><time>2026-04-18T08:43:48.993Z</time></trkpt><trkpt lat="44.18766778711698" lon="12.382661453385426"><ele>1.8</ele><time>2026-04-18T08:43:49.993Z</time></trkpt><trkpt lat="44.18758273241514" lon="12.382588326743415"><ele>2.1999999999999997</ele><time>2026-04-18T08:43:50.993Z</time></trkpt><trkpt lat="44.187504144672204" lon="12.382498337315889"><ele>2.6</ele><time>2026-04-18T08:43:51.992Z</time></trkpt><trkpt lat="44.18743209124126" lon="12.382412651338814"><ele>3.0</ele><time>2026-04-18T08:43:52.992Z</time></trkpt><trkpt lat="44.187348876138834" lon="12.382322987380533"><ele>2.8</ele><time>2026-04-18T08:43:53.992Z</time></trkpt><trkpt lat="44.18726106665154" lon="12.382229157227485"><ele>2.5999999999999996</ele><time>2026-04-18T08:43:54.992Z</time></trkpt><trkpt lat="44.18717936931274" lon="12.38213291859451"><ele>2.4000000000000004</ele><time>2026-04-18T08:43:55.992Z</time></trkpt><trkpt lat="44.1871010438592" lon="12.382045118086749"><ele>2.2</ele><time>2026-04-18T08:43:56.992Z</time></trkpt><trkpt lat="44.18702033969306" lon="12.381959127233081"><ele>2.0</ele><time>2026-04-18T08:43:57.992Z</time></trkpt><trkpt lat="44.1869396033328" lon="12.381877912733863"><ele>2.4000000000000004</ele><time>2026-04-18T08:43:58.992Z</time></trkpt><trkpt lat="44.186860586039344" lon="12.381794363369734"><ele>2.8000000000000003</ele><time>2026-04-18T08:43:59.992Z</time></trkpt><trkpt lat="44.18677976203371" lon="12.381715282683246"><ele>3.2</ele><time>2026-04-18T08:44:00.992Z</time></trkpt><trkpt lat="44.186698197545844" lon="12.381643266645813"><ele>3.6</ele><time>2026-04-18T08:44:01.992Z</time></trkpt><trkpt lat="44.18660857290417" lon="12.381567300363459"><ele>4.0</ele><time>2026-04-18T08:44:02.992Z</time></trkpt><trkpt lat="44.18651896667594" lon="12.381486607459285"><ele>3.75</ele><time>2026-04-18T08:44:03.992Z</time></trkpt><trkpt lat="44.18643691529331" lon="12.381385390702382"><ele>3.5</ele><time>2026-04-18T08:44:04.992Z</time></trkpt><trkpt lat="44.18634444750003" lon="12.381295917679585"><ele>3.25</ele><time>2026-04-18T08:44:05.992Z</time></trkpt><trkpt lat="44.18624065395945" lon="12.381221308611767"><ele>3.0</ele><time>2026-04-18T08:44:06.992Z</time></trkpt><trkpt lat="44.186152632930266" lon="12.381110754241412"><ele>3.4</ele><time>2026-04-18T08:44:07.992Z</time></trkpt><trkpt lat="44.18605760227304" lon="12.381018991980673"><ele>3.8</ele><time>2026-04-18T08:44:08.992Z</time></trkpt><trkpt lat="44.18596810261728" lon="12.380932570493407"><ele>4.2</ele><time>2026-04-18T08:44:09.992Z</time></trkpt><trkpt lat="44.18588517198842" lon="12.380852492117356"><ele>4.6</ele><time>2026-04-18T08:44:10.992Z</time></trkpt><trkpt lat="44.185804370013074" lon="12.380774457101888"><ele>5.0</ele><time>2026-04-18T08:44:11.992Z</time></trkpt><trkpt lat="44.185733818858864" lon="12.38070537767665"><ele>4.833333333333334</ele><time>2026-04-18T08:44:12.992Z</time></trkpt><trkpt lat="44.18566571986314" lon="12.380628218223139"><ele>4.666666666666667</ele><time>2026-04-18T08:44:13.992Z</time></trkpt><trkpt lat="44.18561039176462" lon="12.380560115122806"><ele>4.5</ele><time>2026-04-18T08:44:14.992Z</time></trkpt><trkpt lat="44.18552531710418" lon="12.380479237942495"><ele>4.333333333333333</ele><time>2026-04-18T08:44:16.992Z</time></trkpt><trkpt lat="44.18545569373837" lon="12.380419765477672"><ele>4.166666666666666</ele><time>2026-04-18T08:44:18.992Z</time></trkpt><trkpt lat="44.18540479339633" lon="12.38035799100914"><ele>4.0</ele><time>2026-04-18T08:44:20.992Z</time></trkpt><trkpt lat="44.185356639773644" lon="12.380293914452663"><ele>4.333333333333333</ele><time>2026-04-18T08:44:22.992Z</time></trkpt><trkpt lat="44.18529382988134" lon="12.380238302020889"><ele>4.666666666666666</ele><time>2026-04-18T08:44:25.992Z</time></trkpt><trkpt lat="44.18523356139184" lon="12.38016324128212"><ele>5.0</ele><time>2026-04-18T08:44:28.992Z</time></trkpt><trkpt lat="44.18512918076535" lon="12.380086169984114"><ele>5.333333333333333</ele><time>2026-04-18T08:44:30.992Z</time></trkpt><trkpt lat="44.18507410570011" lon="12.380040888697081"><ele>5.666666666666667</ele><time>2026-04-18T08:44:31.992Z</time></trkpt><trkpt lat="44.185010519177425" lon="12.379989965797234"><ele>6.0</ele><time>2026-04-18T08:44:32.992Z</time></trkpt><trkpt lat="44.184945212705834" lon="12.379936169180652"><ele>6.0</ele><time>2026-04-18T08:44:33.992Z</time></trkpt><trkpt lat="44.18486809163352" lon="12.379871851587987"><ele>6.0</ele><time>2026-04-18T08:44:34.992Z</time></trkpt><trkpt lat="44.18479454051495" lon="12.37980446201852"><ele>6.0</ele><time>2026-04-18T08:44:35.992Z</time></trkpt><trkpt lat="44.18470878029263" lon="12.379727794580758"><ele>6.0</ele><time>2026-04-18T08:44:36.992Z</time></trkpt><trkpt lat="44.184621612466486" lon="12.37965551049598"><ele>6.0</ele><time>2026-04-18T08:44:37.992Z</time></trkpt><trkpt lat="44.18453610585376" lon="12.379575341777468"><ele>5.8</ele><time>2026-04-18T08:44:38.992Z</time></trkpt><trkpt lat="44.18444617927323" lon="12.37949308061294"><ele>5.6</ele><time>2026-04-18T08:44:39.992Z</time></trkpt><trkpt lat="44.18435499524949" lon="12.379410339002796"><ele>5.4</ele><time>2026-04-18T08:44:40.992Z</time></trkpt><trkpt lat="44.18426439296406" lon="12.37932880316422"><ele>5.2</ele><time>2026-04-18T08:44:41.992Z</time></trkpt><trkpt lat="44.18417095554149" lon="12.379246011964348"><ele>5.0</ele><time>2026-04-18T08:44:42.992Z</time></trkpt><trkpt lat="44.18406941294811" lon="12.379161525817972"><ele>5.0</ele><time>2026-04-18T08:44:43.992Z</time></trkpt><trkpt lat="44.18396221662088" lon="12.379077278517073"><ele>5.0</ele><time>2026-04-18T08:44:44.992Z</time></trkpt><trkpt lat="44.183853687137486" lon="12.378981306403608"><ele>5.0</ele><time>2026-04-18T08:44:45.992Z</time></trkpt><trkpt lat="44.18373978461146" lon="12.378891642017226"><ele>5.0</ele><time>2026-04-18T08:44:46.992Z</time></trkpt><trkpt lat="44.18363122578911" lon="12.378807829432612"><ele>5.25</ele><time>2026-04-18T08:44:47.992Z</time></trkpt><trkpt lat="44.183519091576514" lon="12.378718054423741"><ele>5.5</ele><time>2026-04-18T08:44:48.992Z</time></trkpt><trkpt lat="44.183399786077615" lon="12.378629913278713"><ele>5.75</ele><time>2026-04-18T08:44:49.992Z</time></trkpt><trkpt lat="44.18328325807462" lon="12.378526988501934"><ele>6.0</ele><time>2026-04-18T08:44:50.992Z</time></trkpt><trkpt lat="44.18316253305962" lon="12.378425580854438"><ele>6.25</ele><time>2026-04-18T08:44:51.992Z</time></trkpt><trkpt lat="44.1830422338211" lon="12.378326165542973"><ele>6.5</ele><time>2026-04-18T08:44:52.992Z</time></trkpt><trkpt lat="44.18292225861983" lon="12.37822740273385"><ele>6.75</ele><time>2026-04-18T08:44:53.992Z</time></trkpt><trkpt lat="44.18280616872015" lon="12.378128764873185"><ele>7.0</ele><time>2026-04-18T08:44:54.992Z</time></trkpt><trkpt lat="44.18268965153395" lon="12.378042747698395"><ele>6.5</ele><time>2026-04-18T08:44:55.992Z</time></trkpt><trkpt lat="44.182571540145986" lon="12.377944246620574"><ele>6.0</ele><time>2026-04-18T08:44:56.992Z</time></trkpt><trkpt lat="44.182442452196526" lon="12.377853352852426"><ele>5.5</ele><time>2026-04-18T08:44:57.992Z</time></trkpt><trkpt lat="44.18231334668599" lon="12.377765467268357"><ele>5.0</ele><time>2026-04-18T08:44:58.992Z</time></trkpt><trkpt lat="44.18218126124556" lon="12.377684799688534"><ele>5.0</ele><time>2026-04-18T08:44:59.992Z</time></trkpt><trkpt lat="44.182054279945255" lon="12.37760121446095"><ele>5.0</ele><time>2026-04-18T08:45:00.992Z</time></trkpt><trkpt lat="44.18193153950771" lon="12.377515030794733"><ele>5.0</ele><time>2026-04-18T08:45:01.992Z</time></trkpt><trkpt lat="44.1818098574344" lon="12.377426422406032"><ele>5.0</ele><time>2026-04-18T08:45:02.992Z</time></trkpt><trkpt lat="44.18168324978745" lon="12.377350934238843"><ele>5.0</ele><time>2026-04-18T08:45:03.992Z</time></trkpt><trkpt lat="44.18156388964643" lon="12.37727626373659"><ele>5.0</ele><time>2026-04-18T08:45:04.992Z</time></trkpt><trkpt lat="44.181441647721556" lon="12.37720127368341"><ele>5.0</ele><time>2026-04-18T08:45:05.992Z</time></trkpt><trkpt lat="44.1813217062559" lon="12.377124319619174"><ele>5.0</ele><time>2026-04-18T08:45:06.992Z</time></trkpt><trkpt lat="44.18120584305381" lon="12.377047628337865"><ele>5.25</ele><time>2026-04-18T08:45:07.992Z</time></trkpt><trkpt lat="44.18108375969573" lon="12.37696959113666"><ele>5.5</ele><time>2026-04-18T08:45:08.992Z</time></trkpt><trkpt lat="44.180970799607984" lon="12.376901233756287"><ele>5.75</ele><time>2026-04-18T08:45:09.992Z</time></trkpt><trkpt lat="44.1808673180386" lon="12.37682149424611"><ele>6.0</ele><time>2026-04-18T08:45:10.992Z</time></trkpt><trkpt lat="44.18076539081686" lon="12.376742970714089"><ele>5.8</ele><time>2026-04-18T08:45:11.992Z</time></trkpt><trkpt lat="44.18066611046683" lon="12.376670797243122"><ele>5.6</ele><time>2026-04-18T08:45:12.992Z</time></trkpt><trkpt lat="44.18056651664085" lon="12.37661197229975"><ele>5.4</ele><time>2026-04-18T08:45:13.992Z</time></trkpt><trkpt lat="44.180478171084616" lon="12.376528872971502"><ele>5.2</ele><time>2026-04-18T08:45:14.992Z</time></trkpt><trkpt lat="44.18038434982758" lon="12.37645978214836"><ele>5.0</ele><time>2026-04-18T08:45:15.992Z</time></trkpt><trkpt lat="44.18029305443744" lon="12.376396382977779"><ele>5.2</ele><time>2026-04-18T08:45:16.992Z</time></trkpt><trkpt lat="44.18020762678445" lon="12.376320564969777"><ele>5.4</ele><time>2026-04-18T08:45:17.992Z</time></trkpt><trkpt lat="44.18012452972442" lon="12.376253210835612"><ele>5.6</ele><time>2026-04-18T08:45:18.992Z</time></trkpt><trkpt lat="44.18003874689135" lon="12.376199178977792"><ele>5.8</ele><time>2026-04-18T08:45:19.992Z</time></trkpt><trkpt lat="44.17994863711657" lon="12.376145573747165"><ele>6.0</ele><time>2026-04-18T08:45:20.992Z</time></trkpt><trkpt lat="44.17986470041201" lon="12.3760809983791"><ele>6.199999999999999</ele><time>2026-04-18T08:45:21.992Z</time></trkpt><trkpt lat="44.17978321668285" lon="12.376005831806042"><ele>6.3999999999999995</ele><time>2026-04-18T08:45:22.992Z</time></trkpt><trkpt lat="44.17969758283872" lon="12.375930520509401"><ele>6.6</ele><time>2026-04-18T08:45:23.992Z</time></trkpt><trkpt lat="44.17961544980055" lon="12.375847461068428"><ele>6.8</ele><time>2026-04-18T08:45:24.992Z</time></trkpt><trkpt lat="44.179535034497974" lon="12.375754961858032"><ele>7.0</ele><time>2026-04-18T08:45:25.992Z</time></trkpt><trkpt lat="44.17944762628623" lon="12.375663678390772"><ele>7.0</ele><time>2026-04-18T08:45:26.992Z</time></trkpt><trkpt lat="44.179364421489595" lon="12.375570272946431"><ele>6.999999999999999</ele><time>2026-04-18T08:45:27.992Z</time></trkpt><trkpt lat="44.179277192594284" lon="12.375473593919066"><ele>6.999999999999999</ele><time>2026-04-18T08:45:28.992Z</time></trkpt><trkpt lat="44.17920202122647" lon="12.375361555746519"><ele>7.0</ele><time>2026-04-18T08:45:29.992Z</time></trkpt><trkpt lat="44.179122253222815" lon="12.37525475142231"><ele>7.0</ele><time>2026-04-18T08:45:30.992Z</time></trkpt><trkpt lat="44.17903977399132" lon="12.375152536805567"><ele>6.75</ele><time>2026-04-18T08:45:31.992Z</time></trkpt><trkpt lat="44.178972854166574" lon="12.375025530784265"><ele>6.5</ele><time>2026-04-18T08:45:32.992Z</time></trkpt><trkpt lat="44.1788883933718" lon="12.374914369836379"><ele>6.25</ele><time>2026-04-18T08:45:33.992Z</time></trkpt><trkpt lat="44.17882629036458" lon="12.374774975169478"><ele>6.0</ele><time>2026-04-18T08:45:34.992Z</time></trkpt><trkpt lat="44.17874767342242" lon="12.37465268576679"><ele>6.0</ele><time>2026-04-18T08:45:35.992Z</time></trkpt><trkpt lat="44.178675170177755" lon="12.374506868325732"><ele>6.0</ele><time>2026-04-18T08:45:36.992Z</time></trkpt><trkpt lat="44.17860001719724" lon="12.374368634221868"><ele>6.0</ele><time>2026-04-18T08:45:37.992Z</time></trkpt><trkpt lat="44.17852356881201" lon="12.37422801738258"><ele>6.0</ele><time>2026-04-18T08:45:38.991Z</time></trkpt><trkpt lat="44.178445922012585" lon="12.374085196197116"><ele>6.0</ele><time>2026-04-18T08:45:39.991Z</time></trkpt><trkpt lat="44.178367681609004" lon="12.373943530579087"><ele>6.0</ele><time>2026-04-18T08:45:40.991Z</time></trkpt><trkpt lat="44.17828589399849" lon="12.373794685290248"><ele>6.0</ele><time>2026-04-18T08:45:41.991Z</time></trkpt><trkpt lat="44.178194414978435" lon="12.373641214391633"><ele>6.0</ele><time>2026-04-18T08:45:42.991Z</time></trkpt><trkpt lat="44.17810027906174" lon="12.373497628974423"><ele>6.25</ele><time>2026-04-18T08:45:43.991Z</time></trkpt><trkpt lat="44.17800801680915" lon="12.373371577214982"><ele>6.5</ele><time>2026-04-18T08:45:44.991Z</time></trkpt><trkpt lat="44.177911490152745" lon="12.37325091890813"><ele>6.75</ele><time>2026-04-18T08:45:45.991Z</time></trkpt><trkpt lat="44.177814870247104" lon="12.373133402825324"><ele>7.0</ele><time>2026-04-18T08:45:46.991Z</time></trkpt><trkpt lat="44.17771601851055" lon="12.373013422460314"><ele>7.0</ele><time>2026-04-18T08:45:47.991Z</time></trkpt><trkpt lat="44.177615988872155" lon="12.372891876061153"><ele>7.0</ele><time>2026-04-18T08:45:48.991Z</time></trkpt><trkpt lat="44.177520309092415" lon="12.37277478543199"><ele>7.0</ele><time>2026-04-18T08:45:49.991Z</time></trkpt><trkpt lat="44.17742318939574" lon="12.372655932627744"><ele>7.0</ele><time>2026-04-18T08:45:50.991Z</time></trkpt><trkpt lat="44.17733030101832" lon="12.372542258056983"><ele>7.0</ele><time>2026-04-18T08:45:51.991Z</time></trkpt><trkpt lat="44.17724118427063" lon="12.372429990192927"><ele>6.999999999999999</ele><time>2026-04-18T08:45:52.991Z</time></trkpt><trkpt lat="44.17715587930224" lon="12.37231922078891"><ele>6.999999999999999</ele><time>2026-04-18T08:45:53.991Z</time></trkpt><trkpt lat="44.17708673201148" lon="12.372212243520103"><ele>7.0</ele><time>2026-04-18T08:45:54.991Z</time></trkpt><trkpt lat="44.177026041756534" lon="12.372113062128854"><ele>7.0</ele><time>2026-04-18T08:45:55.991Z</time></trkpt><trkpt lat="44.17697674447122" lon="12.372024931846306"><ele>7.000000000000001</ele><time>2026-04-18T08:45:56.991Z</time></trkpt><trkpt lat="44.176938062993955" lon="12.371951014246628"><ele>7.0</ele><time>2026-04-18T08:45:57.991Z</time></trkpt><trkpt lat="44.176847702020794" lon="12.371878119303489"><ele>7.0</ele><time>2026-04-18T08:45:59.991Z</time></trkpt><trkpt lat="44.17687994343023" lon="12.371788635676676"><ele>7.0</ele><time>2026-04-18T08:46:01.991Z</time></trkpt><trkpt lat="44.17696287528366" lon="12.371750675471466"><ele>7.000000000000001</ele><time>2026-04-18T08:46:03.991Z</time></trkpt><trkpt lat="44.177045252495084" lon="12.37164930853778"><ele>7.0</ele><time>2026-04-18T08:53:11.989Z</time></trkpt><trkpt lat="44.1768847946177" lon="12.37156117052418"><ele>7.0</ele><time>2026-04-18T08:53:17.989Z</time></trkpt><trkpt lat="44.176911970804696" lon="12.371651031354038"><ele>7.0</ele><time>2026-04-18T08:53:20.989Z</time></trkpt><trkpt lat="44.17689478229922" lon="12.371753665097895"><ele>7.0</ele><time>2026-04-18T08:53:23.989Z</time></trkpt><trkpt lat="44.176780807516295" lon="12.371228570429432"><ele>7.3999999999999995</ele><time>2026-04-18T08:53:45.989Z</time></trkpt><trkpt lat="44.17682689240366" lon="12.37106413893015"><ele>7.799999999999999</ele><time>2026-04-18T08:53:47.989Z</time></trkpt><trkpt lat="44.17687313377469" lon="12.37097903002354"><ele>8.2</ele><time>2026-04-18T08:53:48.989Z</time></trkpt><trkpt lat="44.17696605123409" lon="12.370848292512042"><ele>8.6</ele><time>2026-04-18T08:53:49.989Z</time></trkpt><trkpt lat="44.1770406119053" lon="12.370758130522185"><ele>9.0</ele><time>2026-04-18T08:53:50.989Z</time></trkpt><trkpt lat="44.17710433108441" lon="12.370655560159301"><ele>9.0</ele><time>2026-04-18T08:53:51.989Z</time></trkpt><trkpt lat="44.17717551593056" lon="12.370555689245435"><ele>9.0</ele><time>2026-04-18T08:53:52.989Z</time></trkpt><trkpt lat="44.177247204816744" lon="12.370447601056787"><ele>9.0</ele><time>2026-04-18T08:53:53.989Z</time></trkpt><trkpt lat="44.17731272769062" lon="12.370349537551373"><ele>9.0</ele><time>2026-04-18T08:53:54.989Z</time></trkpt><trkpt lat="44.17738283353926" lon="12.370252125516263"><ele>9.0</ele><time>2026-04-18T08:53:55.989Z</time></trkpt><trkpt lat="44.17745778028521" lon="12.370156554042126"><ele>8.2</ele><time>2026-04-18T08:53:56.989Z</time></trkpt><trkpt lat="44.177531597114225" lon="12.370056949376425"><ele>7.4</ele><time>2026-04-18T08:53:57.989Z</time></trkpt><trkpt lat="44.17761469839628" lon="12.36995254642611"><ele>6.6</ele><time>2026-04-18T08:53:58.989Z</time></trkpt><trkpt lat="44.177698669235944" lon="12.369838524698116"><ele>5.8</ele><time>2026-04-18T08:53:59.989Z</time></trkpt><trkpt lat="44.17778227507402" lon="12.369726895231087"><ele>5.0</ele><time>2026-04-18T08:54:00.989Z</time></trkpt><trkpt lat="44.177874745325376" lon="12.36960460991688"><ele>5.0</ele><time>2026-04-18T08:54:01.989Z</time></trkpt><trkpt lat="44.17796627085711" lon="12.369469966692483"><ele>5.0</ele><time>2026-04-18T08:54:02.989Z</time></trkpt><trkpt lat="44.178062067510005" lon="12.369335901164119"><ele>5.0</ele><time>2026-04-18T08:54:03.989Z</time></trkpt><trkpt lat="44.17815882935941" lon="12.369205839656722"><ele>5.0</ele><time>2026-04-18T08:54:04.989Z</time></trkpt><trkpt lat="44.17825924083325" lon="12.369071942167253"><ele>4.75</ele><time>2026-04-18T08:54:05.989Z</time></trkpt><trkpt lat="44.17836287093423" lon="12.368934784181183"><ele>4.5</ele><time>2026-04-18T08:54:06.989Z</time></trkpt><trkpt lat="44.17846997103789" lon="12.368793338806192"><ele>4.25</ele><time>2026-04-18T08:54:07.989Z</time></trkpt><trkpt lat="44.17857265633333" lon="12.368653682909322"><ele>4.0</ele><time>2026-04-18T08:54:08.989Z</time></trkpt><trkpt lat="44.17867154710659" lon="12.368520816720283"><ele>4.0</ele><time>2026-04-18T08:54:09.989Z</time></trkpt><trkpt lat="44.17876676430251" lon="12.36839337524532"><ele>4.0</ele><time>2026-04-18T08:54:10.989Z</time></trkpt><trkpt lat="44.178862262023266" lon="12.36826745985815"><ele>4.0</ele><time>2026-04-18T08:54:11.989Z</time></trkpt><trkpt lat="44.17896325693496" lon="12.3681367106676"><ele>4.0</ele><time>2026-04-18T08:54:12.989Z</time></trkpt><trkpt lat="44.17906368543279" lon="12.367995840748767"><ele>3.75</ele><time>2026-04-18T08:54:13.989Z</time></trkpt><trkpt lat="44.179163736101884" lon="12.367856723829332"><ele>3.5</ele><time>2026-04-18T08:54:14.989Z</time></trkpt><trkpt lat="44.17926620137841" lon="12.367717073364727"><ele>3.25</ele><time>2026-04-18T08:54:15.989Z</time></trkpt><trkpt lat="44.179367552168124" lon="12.367579886731274"><ele>3.0</ele><time>2026-04-18T08:54:16.989Z</time></trkpt><trkpt lat="44.17947787138404" lon="12.36744279795741"><ele>3.0</ele><time>2026-04-18T08:54:17.989Z</time></trkpt><trkpt lat="44.17958363317004" lon="12.367298545169694"><ele>3.0</ele><time>2026-04-18T08:54:18.989Z</time></trkpt><trkpt lat="44.17968874845843" lon="12.367149651881343"><ele>3.0</ele><time>2026-04-18T08:54:19.989Z</time></trkpt><trkpt lat="44.17980384712743" lon="12.367003766560744"><ele>3.0</ele><time>2026-04-18T08:54:20.989Z</time></trkpt><trkpt lat="44.1799175985666" lon="12.366858218588359"><ele>3.0</ele><time>2026-04-18T08:54:21.989Z</time></trkpt><trkpt lat="44.180033037094766" lon="12.366698032193316"><ele>3.0</ele><time>2026-04-18T08:54:22.989Z</time></trkpt><trkpt lat="44.18014972918705" lon="12.366543815687393"><ele>3.0</ele><time>2026-04-18T08:54:23.989Z</time></trkpt><trkpt lat="44.18026787212567" lon="12.366386854697014"><ele>3.0</ele><time>2026-04-18T08:54:24.989Z</time></trkpt><trkpt lat="44.18038582253157" lon="12.366229601569938"><ele>3.0</ele><time>2026-04-18T08:54:25.989Z</time></trkpt><trkpt lat="44.18049503665206" lon="12.366078516072617"><ele>3.0</ele><time>2026-04-18T08:54:26.989Z</time></trkpt><trkpt lat="44.180599271572056" lon="12.365933843877135"><ele>3.0</ele><time>2026-04-18T08:54:27.989Z</time></trkpt><trkpt lat="44.18069769841082" lon="12.365789196769768"><ele>3.0</ele><time>2026-04-18T08:54:28.989Z</time></trkpt><trkpt lat="44.180787672718836" lon="12.365645265630146"><ele>3.0</ele><time>2026-04-18T08:54:29.989Z</time></trkpt><trkpt lat="44.18087449522279" lon="12.365500927249567"><ele>3.0</ele><time>2026-04-18T08:54:30.989Z</time></trkpt><trkpt lat="44.180965146799885" lon="12.365346749689685"><ele>3.0</ele><time>2026-04-18T08:54:31.989Z</time></trkpt><trkpt lat="44.18105071698476" lon="12.36520610453657"><ele>3.0</ele><time>2026-04-18T08:54:32.989Z</time></trkpt><trkpt lat="44.18113121447225" lon="12.365053491208656"><ele>3.0</ele><time>2026-04-18T08:54:33.989Z</time></trkpt><trkpt lat="44.18121009798288" lon="12.364896219503876"><ele>3.0</ele><time>2026-04-18T08:54:34.989Z</time></trkpt><trkpt lat="44.18129245544799" lon="12.364746333137484"><ele>3.0</ele><time>2026-04-18T08:54:35.989Z</time></trkpt><trkpt lat="44.181376842521466" lon="12.364592013418498"><ele>3.0</ele><time>2026-04-18T08:54:36.989Z</time></trkpt><trkpt lat="44.18146170906223" lon="12.364441375087663"><ele>3.0</ele><time>2026-04-18T08:54:37.989Z</time></trkpt><trkpt lat="44.18154303819146" lon="12.364286188849269"><ele>2.75</ele><time>2026-04-18T08:54:38.988Z</time></trkpt><trkpt lat="44.18162999768653" lon="12.364139612327154"><ele>2.5</ele><time>2026-04-18T08:54:39.988Z</time></trkpt><trkpt lat="44.18170788561323" lon="12.363980856657856"><ele>2.25</ele><time>2026-04-18T08:54:40.988Z</time></trkpt><trkpt lat="44.18178380933767" lon="12.36383059347365"><ele>2.0</ele><time>2026-04-18T08:54:41.988Z</time></trkpt><trkpt lat="44.1818696900614" lon="12.363670036632492"><ele>2.5</ele><time>2026-04-18T08:54:42.987Z</time></trkpt><trkpt lat="44.18195337719768" lon="12.363512433944317"><ele>3.0</ele><time>2026-04-18T08:54:43.987Z</time></trkpt><trkpt lat="44.18204420505803" lon="12.36336260391713"><ele>3.5</ele><time>2026-04-18T08:54:44.987Z</time></trkpt><trkpt lat="44.182127680930726" lon="12.363200274139325"><ele>4.0</ele><time>2026-04-18T08:54:45.987Z</time></trkpt><trkpt lat="44.1822143244774" lon="12.36304668039897"><ele>3.75</ele><time>2026-04-18T08:54:46.987Z</time></trkpt><trkpt lat="44.18230666467823" lon="12.362891314829147"><ele>3.5</ele><time>2026-04-18T08:54:47.987Z</time></trkpt><trkpt lat="44.1823915641264" lon="12.36273374778255"><ele>3.25</ele><time>2026-04-18T08:54:48.987Z</time></trkpt><trkpt lat="44.18247645460829" lon="12.362578682939448"><ele>3.0</ele><time>2026-04-18T08:54:49.987Z</time></trkpt><trkpt lat="44.182564849585745" lon="12.36243222725125"><ele>3.0</ele><time>2026-04-18T08:54:50.987Z</time></trkpt><trkpt lat="44.18266238538976" lon="12.362278401280651"><ele>3.0</ele><time>2026-04-18T08:54:51.988Z</time></trkpt><trkpt lat="44.18276044242467" lon="12.362130490052094"><ele>3.0</ele><time>2026-04-18T08:54:52.988Z</time></trkpt><trkpt lat="44.18285339747642" lon="12.361970797176012"><ele>3.0</ele><time>2026-04-18T08:54:53.988Z</time></trkpt><trkpt lat="44.18295236134098" lon="12.361806881879458"><ele>3.0</ele><time>2026-04-18T08:54:54.988Z</time></trkpt><trkpt lat="44.18305023954246" lon="12.361650853956904"><ele>3.0</ele><time>2026-04-18T08:54:55.988Z</time></trkpt><trkpt lat="44.1831423341635" lon="12.361496135769354"><ele>3.0</ele><time>2026-04-18T08:54:56.988Z</time></trkpt><trkpt lat="44.183233309757476" lon="12.361343729315147"><ele>3.0</ele><time>2026-04-18T08:54:57.988Z</time></trkpt><trkpt lat="44.1833261420565" lon="12.361196109933001"><ele>3.0</ele><time>2026-04-18T08:54:58.988Z</time></trkpt><trkpt lat="44.18341154131639" lon="12.361032315970728"><ele>3.0</ele><time>2026-04-18T08:54:59.988Z</time></trkpt><trkpt lat="44.18351156963046" lon="12.360877679494513"><ele>3.0</ele><time>2026-04-18T08:55:00.988Z</time></trkpt><trkpt lat="44.183618979863255" lon="12.360733644564927"><ele>3.0</ele><time>2026-04-18T08:55:01.988Z</time></trkpt><trkpt lat="44.18371451140042" lon="12.360578271009876"><ele>3.0</ele><time>2026-04-18T08:55:02.988Z</time></trkpt><trkpt lat="44.18381234883607" lon="12.360418789778878"><ele>3.0</ele><time>2026-04-18T08:55:03.988Z</time></trkpt><trkpt lat="44.18390925250215" lon="12.360260619284372"><ele>3.0</ele><time>2026-04-18T08:55:04.988Z</time></trkpt><trkpt lat="44.184003927481236" lon="12.360105999108097"><ele>3.0</ele><time>2026-04-18T08:55:05.988Z</time></trkpt><trkpt lat="44.18410004654316" lon="12.35995114056405"><ele>3.0</ele><time>2026-04-18T08:55:06.988Z</time></trkpt><trkpt lat="44.18419943823182" lon="12.35979375933659"><ele>3.0</ele><time>2026-04-18T08:55:07.988Z</time></trkpt><trkpt lat="44.184298510234534" lon="12.359642243609853"><ele>3.0</ele><time>2026-04-18T08:55:08.988Z</time></trkpt><trkpt lat="44.184404545927414" lon="12.359486269321506"><ele>2.6666666666666665</ele><time>2026-04-18T08:55:09.988Z</time></trkpt><trkpt lat="44.18450605399383" lon="12.359338205088882"><ele>2.333333333333333</ele><time>2026-04-18T08:55:10.988Z</time></trkpt><trkpt lat="44.18461402617704" lon="12.359182397359865"><ele>2.0</ele><time>2026-04-18T08:55:11.988Z</time></trkpt><trkpt lat="44.18472338217705" lon="12.35902399115334"><ele>2.0</ele><time>2026-04-18T08:55:12.988Z</time></trkpt><trkpt lat="44.18482740118619" lon="12.358872168908707"><ele>2.0</ele><time>2026-04-18T08:55:13.988Z</time></trkpt><trkpt lat="44.184933427947634" lon="12.358717416201468"><ele>2.0</ele><time>2026-04-18T08:55:14.988Z</time></trkpt><trkpt lat="44.185038338968724" lon="12.358564291993183"><ele>2.0</ele><time>2026-04-18T08:55:15.988Z</time></trkpt><trkpt lat="44.18514598052566" lon="12.358407182379516"><ele>2.0</ele><time>2026-04-18T08:55:16.988Z</time></trkpt><trkpt lat="44.185242178662385" lon="12.358240136067282"><ele>2.0</ele><time>2026-04-18T08:55:17.987Z</time></trkpt><trkpt lat="44.18536477085684" lon="12.358102094212937"><ele>1.6666666666666665</ele><time>2026-04-18T08:55:18.987Z</time></trkpt><trkpt lat="44.18547099789531" lon="12.357944048296838"><ele>1.3333333333333333</ele><time>2026-04-18T08:55:19.987Z</time></trkpt><trkpt lat="44.1855667076757" lon="12.357779972236537"><ele>1.0</ele><time>2026-04-18T08:55:20.987Z</time></trkpt><trkpt lat="44.18567227736715" lon="12.357612580305686"><ele>1.6666666666666665</ele><time>2026-04-18T08:55:21.987Z</time></trkpt><trkpt lat="44.185777155392955" lon="12.357455215806631"><ele>2.3333333333333335</ele><time>2026-04-18T08:55:22.987Z</time></trkpt><trkpt lat="44.18587974126384" lon="12.357294436901508"><ele>3.0</ele><time>2026-04-18T08:55:23.987Z</time></trkpt><trkpt lat="44.185979436257924" lon="12.357135337937558"><ele>3.0</ele><time>2026-04-18T08:55:24.987Z</time></trkpt><trkpt lat="44.18607809449317" lon="12.356970394565916"><ele>3.0</ele><time>2026-04-18T08:55:25.987Z</time></trkpt><trkpt lat="44.18617499895296" lon="12.356814244016817"><ele>3.0</ele><time>2026-04-18T08:55:26.987Z</time></trkpt><trkpt lat="44.186271831690256" lon="12.356654336499897"><ele>3.0</ele><time>2026-04-18T08:55:27.987Z</time></trkpt><trkpt lat="44.18636593969554" lon="12.356488673531633"><ele>3.0</ele><time>2026-04-18T08:55:28.987Z</time></trkpt><trkpt lat="44.186465500940955" lon="12.35633039115255"><ele>3.0</ele><time>2026-04-18T08:55:29.987Z</time></trkpt><trkpt lat="44.18656677916109" lon="12.356161037502405"><ele>3.333333333333333</ele><time>2026-04-18T08:55:30.987Z</time></trkpt><trkpt lat="44.18666734816549" lon="12.35600218382941"><ele>3.6666666666666665</ele><time>2026-04-18T08:55:31.987Z</time></trkpt><trkpt lat="44.186772765722544" lon="12.355840698357323"><ele>4.0</ele><time>2026-04-18T08:55:32.987Z</time></trkpt><trkpt lat="44.18687952082317" lon="12.355670391211612"><ele>3.6666666666666665</ele><time>2026-04-18T08:55:33.987Z</time></trkpt><trkpt lat="44.18698240245217" lon="12.355497336406584"><ele>3.333333333333333</ele><time>2026-04-18T08:55:34.987Z</time></trkpt><trkpt lat="44.187084884636704" lon="12.355321311812483"><ele>3.0</ele><time>2026-04-18T08:55:35.987Z</time></trkpt><trkpt lat="44.187192469601015" lon="12.355154849307516"><ele>3.0</ele><time>2026-04-18T08:55:36.987Z</time></trkpt><trkpt lat="44.18729630565355" lon="12.354981796313611"><ele>3.0</ele><time>2026-04-18T08:55:37.987Z</time></trkpt><trkpt lat="44.18738880906238" lon="12.35479970816748"><ele>3.0</ele><time>2026-04-18T08:55:38.987Z</time></trkpt><trkpt lat="44.18750433694392" lon="12.354650386975921"><ele>3.0</ele><time>2026-04-18T08:55:39.987Z</time></trkpt><trkpt lat="44.18760353527008" lon="12.354473641809742"><ele>3.0</ele><time>2026-04-18T08:55:40.987Z</time></trkpt><trkpt lat="44.18769196788808" lon="12.3543206018666"><ele>3.0</ele><time>2026-04-18T08:55:41.987Z</time></trkpt><trkpt lat="44.1877666248384" lon="12.354192827988792"><ele>3.0</ele><time>2026-04-18T08:55:42.987Z</time></trkpt><trkpt lat="44.18782518465374" lon="12.354086781641143"><ele>3.0</ele><time>2026-04-18T08:55:43.987Z</time></trkpt><trkpt lat="44.18787227482202" lon="12.35399669533499"><ele>3.0</ele><time>2026-04-18T08:55:44.987Z</time></trkpt><trkpt lat="44.18794273318354" lon="12.353889278253869"><ele>3.0</ele><time>2026-04-18T08:55:46.987Z</time></trkpt><trkpt lat="44.18799874796319" lon="12.353773163854598"><ele>3.0</ele><time>2026-04-18T08:55:48.987Z</time></trkpt><trkpt lat="44.18804266089665" lon="12.353680897360277"><ele>3.0</ele><time>2026-04-18T08:55:50.987Z</time></trkpt><trkpt lat="44.18810724916795" lon="12.353603126154367"><ele>3.0</ele><time>2026-04-18T08:55:58.987Z</time></trkpt><trkpt lat="44.18817353829702" lon="12.353489970966088"><ele>3.0</ele><time>2026-04-18T08:56:00.987Z</time></trkpt><trkpt lat="44.188247438021385" lon="12.353335626144144"><ele>3.0</ele><time>2026-04-18T08:56:02.987Z</time></trkpt><trkpt lat="44.1883094651" lon="12.353254023981233"><ele>3.0</ele><time>2026-04-18T08:56:03.987Z</time></trkpt><trkpt lat="44.1883554067465" lon="12.353138661340882"><ele>3.0</ele><time>2026-04-18T08:56:04.987Z</time></trkpt><trkpt lat="44.18843631626905" lon="12.353043690403055"><ele>3.0</ele><time>2026-04-18T08:56:05.987Z</time></trkpt><trkpt lat="44.18850574447593" lon="12.352921005144195"><ele>2.8</ele><time>2026-04-18T08:56:06.987Z</time></trkpt><trkpt lat="44.18857084636942" lon="12.352810536442178"><ele>2.5999999999999996</ele><time>2026-04-18T08:56:07.987Z</time></trkpt><trkpt lat="44.18863897633669" lon="12.35270227240466"><ele>2.4000000000000004</ele><time>2026-04-18T08:56:08.987Z</time></trkpt><trkpt lat="44.18870984405219" lon="12.352582723702497"><ele>2.2</ele><time>2026-04-18T08:56:09.987Z</time></trkpt><trkpt lat="44.18879122282435" lon="12.352460045005186"><ele>2.0</ele><time>2026-04-18T08:56:10.987Z</time></trkpt><trkpt lat="44.18886808980574" lon="12.35232747377745"><ele>2.0</ele><time>2026-04-18T08:56:11.987Z</time></trkpt><trkpt lat="44.18894885820404" lon="12.35219803395412"><ele>2.0</ele><time>2026-04-18T08:56:12.987Z</time></trkpt><trkpt lat="44.18903510381175" lon="12.352065950814588"><ele>2.0</ele><time>2026-04-18T08:56:13.987Z</time></trkpt><trkpt lat="44.18912284478213" lon="12.35192746839641"><ele>2.0</ele><time>2026-04-18T08:56:14.987Z</time></trkpt><trkpt lat="44.18920567820614" lon="12.351797387659223"><ele>2.25</ele><time>2026-04-18T08:56:15.987Z</time></trkpt><trkpt lat="44.18928898359739" lon="12.351666702076926"><ele>2.5</ele><time>2026-04-18T08:56:16.987Z</time></trkpt><trkpt lat="44.18937645734311" lon="12.351528160506456"><ele>2.75</ele><time>2026-04-18T08:56:17.987Z</time></trkpt><trkpt lat="44.18946501897166" lon="12.351387253690175"><ele>3.0</ele><time>2026-04-18T08:56:18.987Z</time></trkpt><trkpt lat="44.189558135972604" lon="12.351234420635759"><ele>2.75</ele><time>2026-04-18T08:56:19.987Z</time></trkpt><trkpt lat="44.18965360178651" lon="12.351091057620858"><ele>2.5</ele><time>2026-04-18T08:56:20.987Z</time></trkpt><trkpt lat="44.18975364119437" lon="12.350938208174979"><ele>2.25</ele><time>2026-04-18T08:56:21.987Z</time></trkpt><trkpt lat="44.18984250050014" lon="12.350783947200723"><ele>2.0</ele><time>2026-04-18T08:56:22.987Z</time></trkpt><trkpt lat="44.18993754911227" lon="12.350624326316192"><ele>1.6666666666666665</ele><time>2026-04-18T08:56:23.987Z</time></trkpt><trkpt lat="44.19004037896195" lon="12.350464780522382"><ele>1.3333333333333333</ele><time>2026-04-18T08:56:24.987Z</time></trkpt><trkpt lat="44.190135296784504" lon="12.35030575969038"><ele>1.0</ele><time>2026-04-18T08:56:25.987Z</time></trkpt><trkpt lat="44.19023794923924" lon="12.350146529356273"><ele>1.0</ele><time>2026-04-18T08:56:26.987Z</time></trkpt><trkpt lat="44.190341125694125" lon="12.349992647907444"><ele>1.0</ele><time>2026-04-18T08:56:27.987Z</time></trkpt><trkpt lat="44.190443678855345" lon="12.349837172912464"><ele>1.0</ele><time>2026-04-18T08:56:28.987Z</time></trkpt><trkpt lat="44.190540332125174" lon="12.349678729348152"><ele>1.25</ele><time>2026-04-18T08:56:29.987Z</time></trkpt><trkpt lat="44.190639603997774" lon="12.34952296398411"><ele>1.5</ele><time>2026-04-18T08:56:30.987Z</time></trkpt><trkpt lat="44.190733285537505" lon="12.349372740309011"><ele>1.75</ele><time>2026-04-18T08:56:31.987Z</time></trkpt><trkpt lat="44.190831851539095" lon="12.349208126953178"><ele>2.0</ele><time>2026-04-18T08:56:32.987Z</time></trkpt><trkpt lat="44.190926343616226" lon="12.349050012723739"><ele>2.25</ele><time>2026-04-18T08:56:33.987Z</time></trkpt><trkpt lat="44.19102384879871" lon="12.348900360254866"><ele>2.5</ele><time>2026-04-18T08:56:34.987Z</time></trkpt><trkpt lat="44.19112049641291" lon="12.34874598372806"><ele>2.75</ele><time>2026-04-18T08:56:35.987Z</time></trkpt><trkpt lat="44.19121441297977" lon="12.348598751859903"><ele>3.0</ele><time>2026-04-18T08:56:36.987Z</time></trkpt><trkpt lat="44.19131487584946" lon="12.34844227556577"><ele>3.25</ele><time>2026-04-18T08:56:37.987Z</time></trkpt><trkpt lat="44.191413160897405" lon="12.348284822336371"><ele>3.5</ele><time>2026-04-18T08:56:38.987Z</time></trkpt><trkpt lat="44.19150769068633" lon="12.348124513194435"><ele>3.75</ele><time>2026-04-18T08:56:39.987Z</time></trkpt><trkpt lat="44.191602697533256" lon="12.34796241335553"><ele>4.0</ele><time>2026-04-18T08:56:40.987Z</time></trkpt><trkpt lat="44.19169559015527" lon="12.347812534746996"><ele>4.666666666666666</ele><time>2026-04-18T08:56:41.987Z</time></trkpt><trkpt lat="44.191802964954285" lon="12.347667295119575"><ele>5.333333333333333</ele><time>2026-04-18T08:56:42.987Z</time></trkpt><trkpt lat="44.191899837362584" lon="12.347504649751578"><ele>6.0</ele><time>2026-04-18T08:56:43.987Z</time></trkpt><trkpt lat="44.19199869222107" lon="12.347346926666575"><ele>5.333333333333333</ele><time>2026-04-18T08:56:44.986Z</time></trkpt><trkpt lat="44.192092094432745" lon="12.347184305538374"><ele>4.666666666666666</ele><time>2026-04-18T08:56:45.987Z</time></trkpt><trkpt lat="44.19219246341048" lon="12.347027675295342"><ele>4.0</ele><time>2026-04-18T08:56:46.987Z</time></trkpt><trkpt lat="44.19228682862085" lon="12.34686077959345"><ele>3.6666666666666665</ele><time>2026-04-18T08:56:47.986Z</time></trkpt><trkpt lat="44.1923827415212" lon="12.346700015418547"><ele>3.333333333333333</ele><time>2026-04-18T08:56:48.986Z</time></trkpt><trkpt lat="44.19248288818737" lon="12.346539205357745"><ele>3.0</ele><time>2026-04-18T08:56:49.986Z</time></trkpt><trkpt lat="44.19258328926253" lon="12.346382576800266"><ele>3.0</ele><time>2026-04-18T08:56:50.986Z</time></trkpt><trkpt lat="44.19268344053584" lon="12.346222025203463"><ele>3.0</ele><time>2026-04-18T08:56:51.987Z</time></trkpt><trkpt lat="44.19278441760067" lon="12.346054187598336"><ele>3.0</ele><time>2026-04-18T08:56:52.987Z</time></trkpt><trkpt lat="44.19288976209037" lon="12.345890238560122"><ele>3.0</ele><time>2026-04-18T08:56:53.986Z</time></trkpt><trkpt lat="44.19299058757105" lon="12.345723771639289"><ele>3.0</ele><time>2026-04-18T08:56:54.986Z</time></trkpt><trkpt lat="44.19308759282131" lon="12.345558242110162"><ele>3.0</ele><time>2026-04-18T08:56:55.986Z</time></trkpt><trkpt lat="44.19318798483866" lon="12.345393466935887"><ele>3.0</ele><time>2026-04-18T08:56:56.986Z</time></trkpt><trkpt lat="44.19328427828773" lon="12.345225000565708"><ele>3.0</ele><time>2026-04-18T08:56:57.987Z</time></trkpt><trkpt lat="44.19339004743668" lon="12.345058950198988"><ele>3.0</ele><time>2026-04-18T08:56:58.987Z</time></trkpt><trkpt lat="44.193494601064955" lon="12.344891273242034"><ele>3.0</ele><time>2026-04-18T08:56:59.987Z</time></trkpt><trkpt lat="44.19359472766658" lon="12.344719161049037"><ele>3.0</ele><time>2026-04-18T08:57:00.987Z</time></trkpt><trkpt lat="44.1937014857094" lon="12.344550591509895"><ele>3.0</ele><time>2026-04-18T08:57:01.986Z</time></trkpt><trkpt lat="44.19380883990114" lon="12.34437398927781"><ele>3.0</ele><time>2026-04-18T08:57:02.986Z</time></trkpt><trkpt lat="44.19391489523575" lon="12.344198188377852"><ele>3.0</ele><time>2026-04-18T08:57:03.986Z</time></trkpt><trkpt lat="44.19402206382431" lon="12.344025900715492"><ele>3.0</ele><time>2026-04-18T08:57:04.986Z</time></trkpt><trkpt lat="44.19413040256398" lon="12.343834425946365"><ele>3.0</ele><time>2026-04-18T08:57:05.986Z</time></trkpt><trkpt lat="44.19423876607535" lon="12.343658518685803"><ele>3.0</ele><time>2026-04-18T08:57:06.986Z</time></trkpt><trkpt lat="44.19434409254841" lon="12.343482068357991"><ele>3.0</ele><time>2026-04-18T08:57:07.986Z</time></trkpt><trkpt lat="44.194450916947225" lon="12.343306913245327"><ele>3.0</ele><time>2026-04-18T08:57:08.986Z</time></trkpt><trkpt lat="44.19455575241222" lon="12.343138621135957"><ele>3.0</ele><time>2026-04-18T08:57:09.986Z</time></trkpt><trkpt lat="44.19466703079675" lon="12.342958624894331"><ele>3.0</ele><time>2026-04-18T08:57:10.986Z</time></trkpt><trkpt lat="44.194773430168134" lon="12.342780415144361"><ele>3.333333333333333</ele><time>2026-04-18T08:57:11.986Z</time></trkpt><trkpt lat="44.194875384952766" lon="12.342607225368102"><ele>3.6666666666666665</ele><time>2026-04-18T08:57:12.986Z</time></trkpt><trkpt lat="44.19497808470705" lon="12.342433131634273"><ele>4.0</ele><time>2026-04-18T08:57:13.986Z</time></trkpt><trkpt lat="44.19508582993108" lon="12.342251457615014"><ele>4.333333333333333</ele><time>2026-04-18T08:57:14.986Z</time></trkpt><trkpt lat="44.195193614776606" lon="12.342075137845114"><ele>4.666666666666667</ele><time>2026-04-18T08:57:15.986Z</time></trkpt><trkpt lat="44.195301574874044" lon="12.341895547358474"><ele>5.0</ele><time>2026-04-18T08:57:16.986Z</time></trkpt><trkpt lat="44.195408575266896" lon="12.341713166834312"><ele>5.0</ele><time>2026-04-18T08:57:17.986Z</time></trkpt><trkpt lat="44.195514977734625" lon="12.3415322807268"><ele>5.0</ele><time>2026-04-18T08:57:18.986Z</time></trkpt><trkpt lat="44.19561954270002" lon="12.341355481168883"><ele>5.0</ele><time>2026-04-18T08:57:19.986Z</time></trkpt><trkpt lat="44.19572467433458" lon="12.34118093906959"><ele>4.333333333333334</ele><time>2026-04-18T08:57:20.986Z</time></trkpt><trkpt lat="44.19583941156322" lon="12.341006005056833"><ele>3.666666666666667</ele><time>2026-04-18T08:57:21.986Z</time></trkpt><trkpt lat="44.195937938617874" lon="12.34082749892491"><ele>3.0</ele><time>2026-04-18T08:57:22.986Z</time></trkpt><trkpt lat="44.19603478759724" lon="12.340642100187415"><ele>3.0</ele><time>2026-04-18T08:57:23.986Z</time></trkpt><trkpt lat="44.19614036357908" lon="12.340473986142326"><ele>3.0</ele><time>2026-04-18T08:57:24.986Z</time></trkpt><trkpt lat="44.19624822573395" lon="12.34030148547717"><ele>3.0</ele><time>2026-04-18T08:57:25.986Z</time></trkpt><trkpt lat="44.19635167616327" lon="12.340134954955351"><ele>3.0</ele><time>2026-04-18T08:57:26.986Z</time></trkpt><trkpt lat="44.196458521362615" lon="12.339957008657937"><ele>3.0</ele><time>2026-04-18T08:57:27.986Z</time></trkpt><trkpt lat="44.196561860185916" lon="12.33978133967393"><ele>3.0</ele><time>2026-04-18T08:57:28.986Z</time></trkpt><trkpt lat="44.196666613764975" lon="12.339603292816017"><ele>3.333333333333333</ele><time>2026-04-18T08:57:29.986Z</time></trkpt><trkpt lat="44.19677187836511" lon="12.339423321582387"><ele>3.6666666666666665</ele><time>2026-04-18T08:57:30.986Z</time></trkpt><trkpt lat="44.19687240911536" lon="12.339252027720503"><ele>4.0</ele><time>2026-04-18T08:57:31.986Z</time></trkpt><trkpt lat="44.19697529784887" lon="12.339071744217373"><ele>4.0</ele><time>2026-04-18T08:57:32.986Z</time></trkpt><trkpt lat="44.19708178794782" lon="12.33889264111195"><ele>4.0</ele><time>2026-04-18T08:57:33.986Z</time></trkpt><trkpt lat="44.19718153520686" lon="12.338714231044024"><ele>4.0</ele><time>2026-04-18T08:57:34.986Z</time></trkpt><trkpt lat="44.19728807909819" lon="12.338535776505914"><ele>3.6666666666666665</ele><time>2026-04-18T08:57:35.986Z</time></trkpt><trkpt lat="44.197398205289275" lon="12.338360474144315"><ele>3.333333333333333</ele><time>2026-04-18T08:57:36.986Z</time></trkpt><trkpt lat="44.19750459564113" lon="12.338190271576671"><ele>3.0</ele><time>2026-04-18T08:57:37.986Z</time></trkpt><trkpt lat="44.197615466445015" lon="12.338007758654207"><ele>3.0</ele><time>2026-04-18T08:57:38.986Z</time></trkpt><trkpt lat="44.19772656443408" lon="12.337829089578822"><ele>3.0</ele><time>2026-04-18T08:57:39.986Z</time></trkpt><trkpt lat="44.19784071379187" lon="12.33765225495837"><ele>3.0</ele><time>2026-04-18T08:57:40.986Z</time></trkpt><trkpt lat="44.19795706713368" lon="12.33747550117765"><ele>3.0</ele><time>2026-04-18T08:57:41.986Z</time></trkpt><trkpt lat="44.198075314699665" lon="12.33729848686947"><ele>3.0</ele><time>2026-04-18T08:57:42.986Z</time></trkpt><trkpt lat="44.198191100141" lon="12.337119310316467"><ele>3.0</ele><time>2026-04-18T08:57:43.986Z</time></trkpt><trkpt lat="44.19830619717665" lon="12.336931234238557"><ele>3.333333333333333</ele><time>2026-04-18T08:57:44.986Z</time></trkpt><trkpt lat="44.19842395759916" lon="12.336748883379013"><ele>3.6666666666666665</ele><time>2026-04-18T08:57:45.986Z</time></trkpt><trkpt lat="44.198546129353275" lon="12.336571183294"><ele>4.0</ele><time>2026-04-18T08:57:46.986Z</time></trkpt><trkpt lat="44.19866257840481" lon="12.336393195827815"><ele>4.0</ele><time>2026-04-18T08:57:47.986Z</time></trkpt><trkpt lat="44.19878149872078" lon="12.336213835356991"><ele>4.0</ele><time>2026-04-18T08:57:48.986Z</time></trkpt><trkpt lat="44.19890196371592" lon="12.336041520206733"><ele>4.0</ele><time>2026-04-18T08:57:49.986Z</time></trkpt><trkpt lat="44.19901795353866" lon="12.335859202614321"><ele>4.0</ele><time>2026-04-18T08:57:50.986Z</time></trkpt><trkpt lat="44.199136995091735" lon="12.335687037496758"><ele>4.0</ele><time>2026-04-18T08:57:51.986Z</time></trkpt><trkpt lat="44.19925906919119" lon="12.335524823646095"><ele>4.0</ele><time>2026-04-18T08:57:52.986Z</time></trkpt><trkpt lat="44.199377014951914" lon="12.335346762653634"><ele>3.6666666666666665</ele><time>2026-04-18T08:57:53.986Z</time></trkpt><trkpt lat="44.1994861149314" lon="12.335155221352306"><ele>3.333333333333333</ele><time>2026-04-18T08:57:54.986Z</time></trkpt><trkpt lat="44.19960721690937" lon="12.33497809853254"><ele>3.0</ele><time>2026-04-18T08:57:55.986Z</time></trkpt><trkpt lat="44.19972749074743" lon="12.33479761460514"><ele>3.0</ele><time>2026-04-18T08:57:56.986Z</time></trkpt><trkpt lat="44.19984947882859" lon="12.334614968235137"><ele>3.0</ele><time>2026-04-18T08:57:57.986Z</time></trkpt><trkpt lat="44.19997090843161" lon="12.334428148446426"><ele>3.0</ele><time>2026-04-18T08:57:58.986Z</time></trkpt><trkpt lat="44.20009244315407" lon="12.334240654030808"><ele>3.0</ele><time>2026-04-18T08:57:59.986Z</time></trkpt><trkpt lat="44.200216132653686" lon="12.334044031768508"><ele>3.0</ele><time>2026-04-18T08:58:00.986Z</time></trkpt><trkpt lat="44.20033867343856" lon="12.333853716954307"><ele>3.0</ele><time>2026-04-18T08:58:01.986Z</time></trkpt><trkpt lat="44.200460661703595" lon="12.333671733646131"><ele>3.0</ele><time>2026-04-18T08:58:02.986Z</time></trkpt><trkpt lat="44.20057459513631" lon="12.333467358032589"><ele>3.0</ele><time>2026-04-18T08:58:03.986Z</time></trkpt><trkpt lat="44.20069062624516" lon="12.333272232209582"><ele>3.0</ele><time>2026-04-18T08:58:04.986Z</time></trkpt><trkpt lat="44.20081097817429" lon="12.33308012682011"><ele>3.0</ele><time>2026-04-18T08:58:05.986Z</time></trkpt><trkpt lat="44.20092953638608" lon="12.332896506278873"><ele>3.0</ele><time>2026-04-18T08:58:06.986Z</time></trkpt><trkpt lat="44.201041929464196" lon="12.332705809606066"><ele>3.0</ele><time>2026-04-18T08:58:07.986Z</time></trkpt><trkpt lat="44.20115571173812" lon="12.33251666718927"><ele>3.0</ele><time>2026-04-18T08:58:08.986Z</time></trkpt><trkpt lat="44.20127098250564" lon="12.332321860450213"><ele>3.0</ele><time>2026-04-18T08:58:09.986Z</time></trkpt><trkpt lat="44.201378995098395" lon="12.332122864033037"><ele>3.0</ele><time>2026-04-18T08:58:10.986Z</time></trkpt><trkpt lat="44.20149845081832" lon="12.331930262615385"><ele>2.6666666666666665</ele><time>2026-04-18T08:58:11.986Z</time></trkpt><trkpt lat="44.20161092280788" lon="12.33173874685552"><ele>2.333333333333333</ele><time>2026-04-18T08:58:12.986Z</time></trkpt><trkpt lat="44.20172258610853" lon="12.331552896547876"><ele>2.0</ele><time>2026-04-18T08:58:13.986Z</time></trkpt><trkpt lat="44.20183172940357" lon="12.331360690805742"><ele>2.0</ele><time>2026-04-18T08:58:14.986Z</time></trkpt><trkpt lat="44.201948704939916" lon="12.331170967715963"><ele>2.0</ele><time>2026-04-18T08:58:15.986Z</time></trkpt><trkpt lat="44.20205929853453" lon="12.330979395259616"><ele>2.0</ele><time>2026-04-18T08:58:16.986Z</time></trkpt><trkpt lat="44.20217025872655" lon="12.33078431424354"><ele>2.0</ele><time>2026-04-18T08:58:17.986Z</time></trkpt><trkpt lat="44.20228521599392" lon="12.330590202288308"><ele>2.0</ele><time>2026-04-18T08:58:18.986Z</time></trkpt><trkpt lat="44.20239915187894" lon="12.330399106255044"><ele>2.0</ele><time>2026-04-18T08:58:19.986Z</time></trkpt><trkpt lat="44.20251213949011" lon="12.330206515305289"><ele>2.0</ele><time>2026-04-18T08:58:20.986Z</time></trkpt><trkpt lat="44.20262342179691" lon="12.330019256900979"><ele>2.0</ele><time>2026-04-18T08:58:21.986Z</time></trkpt><trkpt lat="44.202733304501216" lon="12.329830867351056"><ele>2.0</ele><time>2026-04-18T08:58:22.986Z</time></trkpt><trkpt lat="44.20284530393227" lon="12.329643313571202"><ele>2.0</ele><time>2026-04-18T08:58:23.986Z</time></trkpt><trkpt lat="44.202954913095326" lon="12.329455926541895"><ele>2.0</ele><time>2026-04-18T08:58:24.986Z</time></trkpt><trkpt lat="44.20306362531571" lon="12.329272300306581"><ele>2.0</ele><time>2026-04-18T08:58:25.986Z</time></trkpt><trkpt lat="44.203171177403966" lon="12.329089656220562"><ele>2.0</ele><time>2026-04-18T08:58:26.986Z</time></trkpt><trkpt lat="44.203283017018634" lon="12.328908102655442"><ele>2.0</ele><time>2026-04-18T08:58:27.986Z</time></trkpt><trkpt lat="44.20338376127471" lon="12.328731622008979"><ele>2.0</ele><time>2026-04-18T08:58:28.986Z</time></trkpt><trkpt lat="44.203489703044234" lon="12.328551884297868"><ele>2.0</ele><time>2026-04-18T08:58:29.986Z</time></trkpt><trkpt lat="44.20359102551896" lon="12.328373800630711"><ele>2.0</ele><time>2026-04-18T08:58:30.986Z</time></trkpt><trkpt lat="44.2036915326515" lon="12.32820409120767"><ele>2.0</ele><time>2026-04-18T08:58:31.986Z</time></trkpt><trkpt lat="44.203787752889426" lon="12.328043659439093"><ele>2.0</ele><time>2026-04-18T08:58:32.986Z</time></trkpt><trkpt lat="44.20387930086318" lon="12.327879922307313"><ele>2.0</ele><time>2026-04-18T08:58:33.986Z</time></trkpt><trkpt lat="44.20396413896483" lon="12.327727141758952"><ele>2.0</ele><time>2026-04-18T08:58:34.986Z</time></trkpt><trkpt lat="44.20404902404897" lon="12.327577088502196"><ele>2.0</ele><time>2026-04-18T08:58:35.986Z</time></trkpt><trkpt lat="44.20414392892314" lon="12.32742364679827"><ele>2.0</ele><time>2026-04-18T08:58:36.986Z</time></trkpt><trkpt lat="44.20423889443881" lon="12.327269442619887"><ele>2.0</ele><time>2026-04-18T08:58:37.986Z</time></trkpt><trkpt lat="44.20432423461972" lon="12.32711218998166"><ele>2.0</ele><time>2026-04-18T08:58:38.986Z</time></trkpt><trkpt lat="44.20441126058289" lon="12.326972501567631"><ele>2.0</ele><time>2026-04-18T08:58:39.986Z</time></trkpt><trkpt lat="44.20448922244805" lon="12.326835805754433"><ele>1.9999999999999998</ele><time>2026-04-18T08:58:40.986Z</time></trkpt><trkpt lat="44.20455940080174" lon="12.326712026997214"><ele>2.0</ele><time>2026-04-18T08:58:41.986Z</time></trkpt><trkpt lat="44.20461885429445" lon="12.326612451247081"><ele>2.0</ele><time>2026-04-18T08:58:42.986Z</time></trkpt><trkpt lat="44.20467353911739" lon="12.326519886143716"><ele>2.0</ele><time>2026-04-18T08:58:43.986Z</time></trkpt><trkpt lat="44.204725495793795" lon="12.326439967745372"><ele>1.9999999999999998</ele><time>2026-04-18T08:58:44.986Z</time></trkpt><trkpt lat="44.20477076747135" lon="12.326371812451653"><ele>2.0</ele><time>2026-04-18T08:58:45.986Z</time></trkpt><trkpt lat="44.20487387128461" lon="12.326288149037637"><ele>1.9999999999999998</ele><time>2026-04-18T08:58:47.986Z</time></trkpt><trkpt lat="44.20494293460914" lon="12.326259417685982"><ele>2.0</ele><time>2026-04-18T08:58:48.986Z</time></trkpt><trkpt lat="44.205024939336376" lon="12.326245361422187"><ele>2.0</ele><time>2026-04-18T08:58:49.986Z</time></trkpt><trkpt lat="44.20510604616227" lon="12.326216837563484"><ele>2.0</ele><time>2026-04-18T08:58:50.985Z</time></trkpt><trkpt lat="44.205177845043984" lon="12.326167882679805"><ele>1.9999999999999998</ele><time>2026-04-18T08:58:51.985Z</time></trkpt><trkpt lat="44.20523829897869" lon="12.326093928377018"><ele>2.0</ele><time>2026-04-18T08:58:52.985Z</time></trkpt><trkpt lat="44.2052863445779" lon="12.32599723735328"><ele>1.9999999999999998</ele><time>2026-04-18T08:58:53.985Z</time></trkpt><trkpt lat="44.20531531243403" lon="12.325881926736622"><ele>2.0</ele><time>2026-04-18T08:58:54.985Z</time></trkpt><trkpt lat="44.205324256137956" lon="12.325760365272044"><ele>2.0</ele><time>2026-04-18T08:58:55.985Z</time></trkpt><trkpt lat="44.205275198875114" lon="12.325651693319038"><ele>2.0</ele><time>2026-04-18T08:58:56.985Z</time></trkpt><trkpt lat="44.205219130621494" lon="12.325558049904505"><ele>1.9999999999999998</ele><time>2026-04-18T08:58:57.986Z</time></trkpt><trkpt lat="44.20514982872777" lon="12.325495916682884"><ele>2.0</ele><time>2026-04-18T08:58:58.986Z</time></trkpt><trkpt lat="44.205061136060564" lon="12.325468380856698"><ele>1.8</ele><time>2026-04-18T08:58:59.985Z</time></trkpt><trkpt lat="44.204970869610534" lon="12.325460110118481"><ele>1.6</ele><time>2026-04-18T08:59:00.985Z</time></trkpt><trkpt lat="44.20488651431641" lon="12.325443865273167"><ele>1.4000000000000001</ele><time>2026-04-18T08:59:01.985Z</time></trkpt><trkpt lat="44.204791933061244" lon="12.325415118685358"><ele>1.2000000000000002</ele><time>2026-04-18T08:59:02.985Z</time></trkpt><trkpt lat="44.20470039096884" lon="12.325373969844733"><ele>1.0</ele><time>2026-04-18T08:59:03.985Z</time></trkpt><trkpt lat="44.20460291107792" lon="12.325344398229877"><ele>1.6</ele><time>2026-04-18T08:59:04.985Z</time></trkpt><trkpt lat="44.204517184562874" lon="12.325239601674912"><ele>2.2</ele><time>2026-04-18T08:59:05.985Z</time></trkpt><trkpt lat="44.20443401881281" lon="12.325147940791181"><ele>2.8000000000000003</ele><time>2026-04-18T08:59:06.985Z</time></trkpt><trkpt lat="44.204356682068116" lon="12.32503711473129"><ele>3.4000000000000004</ele><time>2026-04-18T08:59:07.985Z</time></trkpt><trkpt lat="44.20426855211811" lon="12.324929738749937"><ele>4.0</ele><time>2026-04-18T08:59:08.985Z</time></trkpt><trkpt lat="44.20416370221666" lon="12.324806214295393"><ele>4.0</ele><time>2026-04-18T08:59:09.985Z</time></trkpt><trkpt lat="44.20406969389868" lon="12.32467886376197"><ele>4.0</ele><time>2026-04-18T08:59:10.985Z</time></trkpt><trkpt lat="44.20396224598732" lon="12.324547687061258"><ele>4.0</ele><time>2026-04-18T08:59:11.985Z</time></trkpt><trkpt lat="44.20385932773393" lon="12.324419098414994"><ele>4.0</ele><time>2026-04-18T08:59:12.985Z</time></trkpt><trkpt lat="44.203747037224495" lon="12.3242938198735"><ele>3.75</ele><time>2026-04-18T08:59:13.985Z</time></trkpt><trkpt lat="44.20363393299297" lon="12.324162178736234"><ele>3.5</ele><time>2026-04-18T08:59:14.985Z</time></trkpt><trkpt lat="44.20352391069983" lon="12.32402943837949"><ele>3.25</ele><time>2026-04-18T08:59:15.985Z</time></trkpt><trkpt lat="44.203410858289814" lon="12.32390000618555"><ele>3.0</ele><time>2026-04-18T08:59:16.985Z</time></trkpt><trkpt lat="44.203295395477184" lon="12.323757768447136"><ele>3.0</ele><time>2026-04-18T08:59:17.985Z</time></trkpt><trkpt lat="44.203179047469824" lon="12.323613462341157"><ele>3.0</ele><time>2026-04-18T08:59:18.985Z</time></trkpt><trkpt lat="44.203059808716745" lon="12.323455315798453"><ele>3.0</ele><time>2026-04-18T08:59:19.985Z</time></trkpt><trkpt lat="44.20294072895416" lon="12.323303822043666"><ele>3.0</ele><time>2026-04-18T08:59:20.985Z</time></trkpt><trkpt lat="44.20281876782935" lon="12.323149246403931"><ele>3.0</ele><time>2026-04-18T08:59:21.985Z</time></trkpt><trkpt lat="44.20269667045709" lon="12.322994138279517"><ele>3.0</ele><time>2026-04-18T08:59:22.985Z</time></trkpt><trkpt lat="44.20256730603139" lon="12.322831738845844"><ele>3.0</ele><time>2026-04-18T08:59:23.985Z</time></trkpt><trkpt lat="44.2024379462412" lon="12.32267789194129"><ele>3.0</ele><time>2026-04-18T08:59:24.985Z</time></trkpt><trkpt lat="44.20230660781292" lon="12.32251768520699"><ele>3.0</ele><time>2026-04-18T08:59:25.985Z</time></trkpt><trkpt lat="44.202182626909234" lon="12.32235995825207"><ele>3.333333333333333</ele><time>2026-04-18T08:59:26.985Z</time></trkpt><trkpt lat="44.20205528979039" lon="12.322195749093103"><ele>3.6666666666666665</ele><time>2026-04-18T08:59:27.985Z</time></trkpt><trkpt lat="44.201930469852414" lon="12.3220393916503"><ele>4.0</ele><time>2026-04-18T08:59:28.985Z</time></trkpt><trkpt lat="44.20180199466705" lon="12.321878125799277"><ele>4.0</ele><time>2026-04-18T08:59:29.985Z</time></trkpt><trkpt lat="44.20167500168893" lon="12.321714714355359"><ele>4.0</ele><time>2026-04-18T08:59:30.985Z</time></trkpt><trkpt lat="44.201547320378666" lon="12.32155750562296"><ele>4.0</ele><time>2026-04-18T08:59:31.985Z</time></trkpt><trkpt lat="44.20141261024535" lon="12.321386072213768"><ele>3.6666666666666665</ele><time>2026-04-18T08:59:32.985Z</time></trkpt><trkpt lat="44.201276713183" lon="12.321214601658493"><ele>3.333333333333333</ele><time>2026-04-18T08:59:33.985Z</time></trkpt><trkpt lat="44.20114301784143" lon="12.321047445853084"><ele>3.0</ele><time>2026-04-18T08:59:34.985Z</time></trkpt><trkpt lat="44.20100519780113" lon="12.320873523331567"><ele>3.0</ele><time>2026-04-18T08:59:35.985Z</time></trkpt><trkpt lat="44.200868552145" lon="12.32070323164649"><ele>3.0</ele><time>2026-04-18T08:59:36.985Z</time></trkpt><trkpt lat="44.20073473106392" lon="12.320531428320797"><ele>3.0</ele><time>2026-04-18T08:59:37.985Z</time></trkpt><trkpt lat="44.20060181152655" lon="12.320362364977392"><ele>3.333333333333333</ele><time>2026-04-18T08:59:38.985Z</time></trkpt><trkpt lat="44.20046774329982" lon="12.320191329565558"><ele>3.6666666666666665</ele><time>2026-04-18T08:59:39.985Z</time></trkpt><trkpt lat="44.200329819428426" lon="12.320014790851161"><ele>4.0</ele><time>2026-04-18T08:59:40.984Z</time></trkpt><trkpt lat="44.20019171858388" lon="12.319844482381832"><ele>3.6666666666666665</ele><time>2026-04-18T08:59:41.984Z</time></trkpt><trkpt lat="44.20005469741631" lon="12.319694140377344"><ele>3.333333333333333</ele><time>2026-04-18T08:59:42.984Z</time></trkpt><trkpt lat="44.19991908854276" lon="12.31953983428488"><ele>3.0</ele><time>2026-04-18T08:59:43.984Z</time></trkpt><trkpt lat="44.199792831460925" lon="12.319395802623719"><ele>3.0</ele><time>2026-04-18T08:59:44.984Z</time></trkpt><trkpt lat="44.19968016559387" lon="12.319248850016438"><ele>3.0</ele><time>2026-04-18T08:59:45.984Z</time></trkpt><trkpt lat="44.19956764742428" lon="12.319113527067172"><ele>3.0</ele><time>2026-04-18T08:59:46.984Z</time></trkpt><trkpt lat="44.19946146069517" lon="12.318986881415128"><ele>3.0</ele><time>2026-04-18T08:59:47.984Z</time></trkpt><trkpt lat="44.199364563343906" lon="12.318859686383062"><ele>3.4</ele><time>2026-04-18T08:59:48.984Z</time></trkpt><trkpt lat="44.19926942724391" lon="12.318746521528306"><ele>3.8</ele><time>2026-04-18T08:59:49.984Z</time></trkpt><trkpt lat="44.199181034630755" lon="12.318644482829704"><ele>4.2</ele><time>2026-04-18T08:59:50.984Z</time></trkpt><trkpt lat="44.199103851869346" lon="12.318551913187004"><ele>4.6</ele><time>2026-04-18T08:59:51.984Z</time></trkpt><trkpt lat="44.19903495028781" lon="12.318467484179758"><ele>5.0</ele><time>2026-04-18T08:59:52.984Z</time></trkpt><trkpt lat="44.19897908334999" lon="12.31838497139261"><ele>5.0</ele><time>2026-04-18T08:59:53.984Z</time></trkpt><trkpt lat="44.19893516043693" lon="12.318290288400625"><ele>5.0</ele><time>2026-04-18T08:59:54.984Z</time></trkpt><trkpt lat="44.19890453239623" lon="12.31817871207159"><ele>5.0</ele><time>2026-04-18T08:59:55.984Z</time></trkpt><trkpt lat="44.198873676049196" lon="12.318043546332454"><ele>5.0</ele><time>2026-04-18T08:59:56.984Z</time></trkpt><trkpt lat="44.198841232655035" lon="12.317907338154804"><ele>5.0</ele><time>2026-04-18T08:59:57.984Z</time></trkpt><trkpt lat="44.19881175419875" lon="12.317793646274989"><ele>5.0</ele><time>2026-04-18T08:59:58.984Z</time></trkpt><trkpt lat="44.19877049596115" lon="12.31769583072146"><ele>5.0</ele><time>2026-04-18T08:59:59.984Z</time></trkpt><trkpt lat="44.19871473916474" lon="12.317616606690802"><ele>5.0</ele><time>2026-04-18T09:00:00.984Z</time></trkpt><trkpt lat="44.19863781415955" lon="12.31756965481132"><ele>5.0</ele><time>2026-04-18T09:00:01.984Z</time></trkpt><trkpt lat="44.19854580794207" lon="12.31755102703074"><ele>5.0</ele><time>2026-04-18T09:00:02.984Z</time></trkpt><trkpt lat="44.198446084751986" lon="12.317548725387262"><ele>5.0</ele><time>2026-04-18T09:00:03.984Z</time></trkpt><trkpt lat="44.19835345303137" lon="12.317644374328019"><ele>5.0</ele><time>2026-04-18T09:00:04.984Z</time></trkpt><trkpt lat="44.19827886476076" lon="12.317746558314578"><ele>5.0</ele><time>2026-04-18T09:00:05.984Z</time></trkpt><trkpt lat="44.198211397471354" lon="12.31787006290734"><ele>5.0</ele><time>2026-04-18T09:00:06.984Z</time></trkpt><trkpt lat="44.19812789018095" lon="12.317971984728395"><ele>5.0</ele><time>2026-04-18T09:00:07.984Z</time></trkpt><trkpt lat="44.19802316383857" lon="12.318042829398713"><ele>5.0</ele><time>2026-04-18T09:00:08.984Z</time></trkpt><trkpt lat="44.197918514533285" lon="12.318127319644498"><ele>5.0</ele><time>2026-04-18T09:00:09.984Z</time></trkpt><trkpt lat="44.19777439220146" lon="12.318108340624658"><ele>5.0</ele><time>2026-04-18T09:00:10.984Z</time></trkpt><trkpt lat="44.19764639096292" lon="12.318114908572374"><ele>5.0</ele><time>2026-04-18T09:00:11.984Z</time></trkpt><trkpt lat="44.19750927819286" lon="12.318117273883532"><ele>5.0</ele><time>2026-04-18T09:00:12.984Z</time></trkpt><trkpt lat="44.197371414694565" lon="12.31811291752243"><ele>5.25</ele><time>2026-04-18T09:00:13.984Z</time></trkpt><trkpt lat="44.197247001945335" lon="12.31810932697151"><ele>5.5</ele><time>2026-04-18T09:00:14.984Z</time></trkpt><trkpt lat="44.19713171270401" lon="12.31809945580626"><ele>5.75</ele><time>2026-04-18T09:00:15.984Z</time></trkpt><trkpt lat="44.19701761861842" lon="12.31808042010975"><ele>6.0</ele><time>2026-04-18T09:00:16.984Z</time></trkpt><trkpt lat="44.196895414495486" lon="12.318069933674662"><ele>6.0</ele><time>2026-04-18T09:00:17.984Z</time></trkpt><trkpt lat="44.1967711846471" lon="12.318032354427828"><ele>6.0</ele><time>2026-04-18T09:00:18.984Z</time></trkpt><trkpt lat="44.19664453631815" lon="12.318003382268275"><ele>6.0</ele><time>2026-04-18T09:00:19.984Z</time></trkpt><trkpt lat="44.19651999891806" lon="12.317961696695008"><ele>6.0</ele><time>2026-04-18T09:00:20.984Z</time></trkpt><trkpt lat="44.196393453050106" lon="12.317912812811242"><ele>5.5</ele><time>2026-04-18T09:00:21.984Z</time></trkpt><trkpt lat="44.196255846129525" lon="12.317850729971994"><ele>5.0</ele><time>2026-04-18T09:00:22.984Z</time></trkpt><trkpt lat="44.19611901025035" lon="12.317771430949987"><ele>4.5</ele><time>2026-04-18T09:00:23.984Z</time></trkpt><trkpt lat="44.195981321871606" lon="12.317691480797059"><ele>4.0</ele><time>2026-04-18T09:00:24.984Z</time></trkpt><trkpt lat="44.19584587968824" lon="12.317599150979897"><ele>4.0</ele><time>2026-04-18T09:00:25.984Z</time></trkpt><trkpt lat="44.19571346316954" lon="12.317497736121053"><ele>4.0</ele><time>2026-04-18T09:00:26.984Z</time></trkpt><trkpt lat="44.195573601248896" lon="12.317393761709612"><ele>4.0</ele><time>2026-04-18T09:00:27.984Z</time></trkpt><trkpt lat="44.195434337709244" lon="12.31728532765994"><ele>4.0</ele><time>2026-04-18T09:00:28.984Z</time></trkpt><trkpt lat="44.19530301165391" lon="12.317144094084322"><ele>4.0</ele><time>2026-04-18T09:00:29.984Z</time></trkpt><trkpt lat="44.19517410423968" lon="12.317004388667778"><ele>4.0</ele><time>2026-04-18T09:00:30.984Z</time></trkpt><trkpt lat="44.19504616589894" lon="12.3168574349036"><ele>4.0</ele><time>2026-04-18T09:00:31.984Z</time></trkpt><trkpt lat="44.1949245507954" lon="12.316703799039505"><ele>4.0</ele><time>2026-04-18T09:00:32.984Z</time></trkpt><trkpt lat="44.19480671003289" lon="12.316545740946953"><ele>4.0</ele><time>2026-04-18T09:00:33.984Z</time></trkpt><trkpt lat="44.19469267302802" lon="12.316376697295961"><ele>4.0</ele><time>2026-04-18T09:00:34.984Z</time></trkpt><trkpt lat="44.194569508999194" lon="12.316212415356455"><ele>4.0</ele><time>2026-04-18T09:00:35.984Z</time></trkpt><trkpt lat="44.19444857167034" lon="12.316056865368854"><ele>4.0</ele><time>2026-04-18T09:00:36.984Z</time></trkpt><trkpt lat="44.19432792823056" lon="12.315901011190638"><ele>4.0</ele><time>2026-04-18T09:00:37.984Z</time></trkpt><trkpt lat="44.194207214973005" lon="12.315739131713443"><ele>4.0</ele><time>2026-04-18T09:00:38.984Z</time></trkpt><trkpt lat="44.194081296120125" lon="12.315570422029914"><ele>4.0</ele><time>2026-04-18T09:00:39.984Z</time></trkpt><trkpt lat="44.1939550081862" lon="12.315407318793962"><ele>4.333333333333333</ele><time>2026-04-18T09:00:40.984Z</time></trkpt><trkpt lat="44.19383695263848" lon="12.31524502536922"><ele>4.666666666666667</ele><time>2026-04-18T09:00:41.984Z</time></trkpt><trkpt lat="44.19371201191433" lon="12.3150785834071"><ele>5.0</ele><time>2026-04-18T09:00:42.984Z</time></trkpt><trkpt lat="44.193588338371725" lon="12.314916267698035"><ele>5.0</ele><time>2026-04-18T09:00:43.984Z</time></trkpt><trkpt lat="44.193462801451744" lon="12.31475681241985"><ele>5.0</ele><time>2026-04-18T09:00:44.984Z</time></trkpt><trkpt lat="44.19334230767268" lon="12.314597241140103"><ele>5.0</ele><time>2026-04-18T09:00:45.984Z</time></trkpt><trkpt lat="44.19322561255441" lon="12.314440477246453"><ele>4.666666666666667</ele><time>2026-04-18T09:00:46.984Z</time></trkpt><trkpt lat="44.1931130471762" lon="12.31429049573446"><ele>4.333333333333333</ele><time>2026-04-18T09:00:47.984Z</time></trkpt><trkpt lat="44.19299064981495" lon="12.314146875040569"><ele>4.0</ele><time>2026-04-18T09:00:48.984Z</time></trkpt><trkpt lat="44.19286749919217" lon="12.313986624965562"><ele>4.0</ele><time>2026-04-18T09:00:49.984Z</time></trkpt><trkpt lat="44.19274905043625" lon="12.313812472304445"><ele>4.0</ele><time>2026-04-18T09:00:50.984Z</time></trkpt><trkpt lat="44.19262846125994" lon="12.313645809296904"><ele>4.0</ele><time>2026-04-18T09:00:51.984Z</time></trkpt><trkpt lat="44.19251297884542" lon="12.31347394598925"><ele>4.0</ele><time>2026-04-18T09:00:52.984Z</time></trkpt><trkpt lat="44.19239177797135" lon="12.313293963552876"><ele>4.0</ele><time>2026-04-18T09:00:53.984Z</time></trkpt><trkpt lat="44.192276177087166" lon="12.313123954817874"><ele>4.0</ele><time>2026-04-18T09:00:54.984Z</time></trkpt><trkpt lat="44.19216004882769" lon="12.312963470722451"><ele>4.333333333333333</ele><time>2026-04-18T09:00:55.984Z</time></trkpt><trkpt lat="44.192038337645116" lon="12.312789161504048"><ele>4.666666666666667</ele><time>2026-04-18T09:00:56.985Z</time></trkpt><trkpt lat="44.19192274661926" lon="12.312612018343664"><ele>5.0</ele><time>2026-04-18T09:00:57.984Z</time></trkpt><trkpt lat="44.19181460561949" lon="12.312449179846569"><ele>5.0</ele><time>2026-04-18T09:00:58.984Z</time></trkpt><trkpt lat="44.191717200909785" lon="12.312288041888227"><ele>5.0</ele><time>2026-04-18T09:00:59.985Z</time></trkpt><trkpt lat="44.19162214789447" lon="12.312126776971693"><ele>5.0</ele><time>2026-04-18T09:01:00.985Z</time></trkpt><trkpt lat="44.1915431793317" lon="12.311949950388541"><ele>5.0</ele><time>2026-04-18T09:01:01.985Z</time></trkpt><trkpt lat="44.19145548933002" lon="12.311765815284001"><ele>5.0</ele><time>2026-04-18T09:01:02.985Z</time></trkpt><trkpt lat="44.19137251374069" lon="12.311581475951066"><ele>5.0</ele><time>2026-04-18T09:01:03.985Z</time></trkpt><trkpt lat="44.191303156411394" lon="12.311388755973182"><ele>5.0</ele><time>2026-04-18T09:01:04.985Z</time></trkpt><trkpt lat="44.19124040794916" lon="12.311198408090815"><ele>5.0</ele><time>2026-04-18T09:01:05.984Z</time></trkpt><trkpt lat="44.19118646399161" lon="12.311011037736844"><ele>5.0</ele><time>2026-04-18T09:01:06.985Z</time></trkpt><trkpt lat="44.191135061939036" lon="12.3108286122506"><ele>5.0</ele><time>2026-04-18T09:01:07.985Z</time></trkpt><trkpt lat="44.19108957826701" lon="12.310649972549049"><ele>5.25</ele><time>2026-04-18T09:01:08.985Z</time></trkpt><trkpt lat="44.19105003826179" lon="12.31047185566066"><ele>5.5</ele><time>2026-04-18T09:01:09.984Z</time></trkpt><trkpt lat="44.191016261641664" lon="12.310304456301555"><ele>5.75</ele><time>2026-04-18T09:01:10.984Z</time></trkpt><trkpt lat="44.19098707162487" lon="12.310144885442194"><ele>6.0</ele><time>2026-04-18T09:01:11.984Z</time></trkpt><trkpt lat="44.1909666904572" lon="12.309990710337749"><ele>6.0</ele><time>2026-04-18T09:01:12.984Z</time></trkpt><trkpt lat="44.19094787364267" lon="12.309853386898402"><ele>6.0</ele><time>2026-04-18T09:01:13.984Z</time></trkpt><trkpt lat="44.19093973895068" lon="12.309716642434616"><ele>6.0</ele><time>2026-04-18T09:01:14.984Z</time></trkpt><trkpt lat="44.19093320231033" lon="12.309599234527843"><ele>6.0</ele><time>2026-04-18T09:01:15.984Z</time></trkpt><trkpt lat="44.19093119188173" lon="12.309504701329908"><ele>6.0</ele><time>2026-04-18T09:01:16.984Z</time></trkpt><trkpt lat="44.19093040133275" lon="12.309399415762662"><ele>6.0</ele><time>2026-04-18T09:01:17.984Z</time></trkpt><trkpt lat="44.19093228515358" lon="12.309302977858223"><ele>6.0</ele><time>2026-04-18T09:01:18.984Z</time></trkpt><trkpt lat="44.190936320554584" lon="12.309189060183378"><ele>6.0</ele><time>2026-04-18T09:01:19.984Z</time></trkpt><trkpt lat="44.19094929861706" lon="12.309060543753573"><ele>6.0</ele><time>2026-04-18T09:01:20.984Z</time></trkpt><trkpt lat="44.190976866751456" lon="12.30893296633968"><ele>6.0</ele><time>2026-04-18T09:01:21.984Z</time></trkpt><trkpt lat="44.19099862765493" lon="12.308813209965068"><ele>6.0</ele><time>2026-04-18T09:01:22.984Z</time></trkpt><trkpt lat="44.191002194361324" lon="12.308692554194081"><ele>6.0</ele><time>2026-04-18T09:01:23.984Z</time></trkpt><trkpt lat="44.190976492354984" lon="12.308575954586354"><ele>6.199999999999999</ele><time>2026-04-18T09:01:24.984Z</time></trkpt><trkpt lat="44.1909333197842" lon="12.308469757615187"><ele>6.3999999999999995</ele><time>2026-04-18T09:01:25.984Z</time></trkpt><trkpt lat="44.19085838143428" lon="12.308394562390104"><ele>6.6</ele><time>2026-04-18T09:01:26.984Z</time></trkpt><trkpt lat="44.19079279213589" lon="12.30827778653526"><ele>6.8</ele><time>2026-04-18T09:01:27.984Z</time></trkpt><trkpt lat="44.190716706010775" lon="12.308178281342188"><ele>7.0</ele><time>2026-04-18T09:01:28.984Z</time></trkpt><trkpt lat="44.19065231521476" lon="12.308085930162802"><ele>7.199999999999999</ele><time>2026-04-18T09:01:29.984Z</time></trkpt><trkpt lat="44.19058211214567" lon="12.308002399527336"><ele>7.3999999999999995</ele><time>2026-04-18T09:01:30.984Z</time></trkpt><trkpt lat="44.19049492779566" lon="12.307929274475212"><ele>7.6000000000000005</ele><time>2026-04-18T09:01:31.984Z</time></trkpt><trkpt lat="44.19039452511815" lon="12.307847630058715"><ele>7.800000000000001</ele><time>2026-04-18T09:01:32.984Z</time></trkpt><trkpt lat="44.19031135213536" lon="12.307711554156002"><ele>8.0</ele><time>2026-04-18T09:01:33.984Z</time></trkpt><trkpt lat="44.19021195111768" lon="12.30759737093922"><ele>8.0</ele><time>2026-04-18T09:01:34.984Z</time></trkpt><trkpt lat="44.19010828924467" lon="12.30747639180123"><ele>8.0</ele><time>2026-04-18T09:01:35.984Z</time></trkpt><trkpt lat="44.189999195800524" lon="12.307348855721992"><ele>8.0</ele><time>2026-04-18T09:01:36.984Z</time></trkpt><trkpt lat="44.18990540204199" lon="12.307220123028728"><ele>8.0</ele><time>2026-04-18T09:01:37.984Z</time></trkpt><trkpt lat="44.18980957195274" lon="12.307099164522278"><ele>8.25</ele><time>2026-04-18T09:01:38.984Z</time></trkpt><trkpt lat="44.18971134728406" lon="12.30697766649627"><ele>8.5</ele><time>2026-04-18T09:01:39.984Z</time></trkpt><trkpt lat="44.18960534750082" lon="12.306856419611847"><ele>8.75</ele><time>2026-04-18T09:01:40.984Z</time></trkpt><trkpt lat="44.18950035130757" lon="12.306731411435969"><ele>9.0</ele><time>2026-04-18T09:01:41.984Z</time></trkpt><trkpt lat="44.18939851595909" lon="12.306599028958237"><ele>9.0</ele><time>2026-04-18T09:01:42.984Z</time></trkpt><trkpt lat="44.189291812513325" lon="12.306479096231076"><ele>9.0</ele><time>2026-04-18T09:01:43.984Z</time></trkpt><trkpt lat="44.18918940522702" lon="12.30634241301872"><ele>9.0</ele><time>2026-04-18T09:01:44.984Z</time></trkpt><trkpt lat="44.18907941529553" lon="12.306222859419396"><ele>9.0</ele><time>2026-04-18T09:01:45.984Z</time></trkpt><trkpt lat="44.18897001988082" lon="12.306098046194938"><ele>9.0</ele><time>2026-04-18T09:01:46.984Z</time></trkpt><trkpt lat="44.188873697521" lon="12.30596898318629"><ele>9.0</ele><time>2026-04-18T09:01:47.984Z</time></trkpt><trkpt lat="44.18876295907371" lon="12.305840459654098"><ele>9.0</ele><time>2026-04-18T09:01:48.984Z</time></trkpt><trkpt lat="44.18865518173617" lon="12.305706320301589"><ele>9.0</ele><time>2026-04-18T09:01:49.984Z</time></trkpt><trkpt lat="44.18854181701009" lon="12.305568420066534"><ele>9.0</ele><time>2026-04-18T09:01:50.984Z</time></trkpt><trkpt lat="44.188428329086" lon="12.305433473526483"><ele>9.0</ele><time>2026-04-18T09:01:51.984Z</time></trkpt><trkpt lat="44.18831583651189" lon="12.305302778693497"><ele>9.0</ele><time>2026-04-18T09:01:52.984Z</time></trkpt><trkpt lat="44.18822123985587" lon="12.305162312926484"><ele>9.0</ele><time>2026-04-18T09:01:53.984Z</time></trkpt><trkpt lat="44.18812085369224" lon="12.305045741390728"><ele>9.0</ele><time>2026-04-18T09:01:54.984Z</time></trkpt><trkpt lat="44.18801017705046" lon="12.30492119848498"><ele>9.0</ele><time>2026-04-18T09:01:55.984Z</time></trkpt><trkpt lat="44.187900238160395" lon="12.30478887206435"><ele>9.0</ele><time>2026-04-18T09:01:56.984Z</time></trkpt><trkpt lat="44.18778912455477" lon="12.304658529966973"><ele>9.0</ele><time>2026-04-18T09:01:57.984Z</time></trkpt><trkpt lat="44.187678698713476" lon="12.304511108156609"><ele>9.0</ele><time>2026-04-18T09:01:58.984Z</time></trkpt><trkpt lat="44.187558495381474" lon="12.304376895237022"><ele>9.0</ele><time>2026-04-18T09:01:59.984Z</time></trkpt><trkpt lat="44.18744253541" lon="12.304244792706934"><ele>9.0</ele><time>2026-04-18T09:02:00.984Z</time></trkpt><trkpt lat="44.18732444711773" lon="12.304094883064389"><ele>9.25</ele><time>2026-04-18T09:02:01.984Z</time></trkpt><trkpt lat="44.187206866284" lon="12.30395487126094"><ele>9.5</ele><time>2026-04-18T09:02:02.984Z</time></trkpt><trkpt lat="44.18709763377166" lon="12.303814374632905"><ele>9.75</ele><time>2026-04-18T09:02:03.984Z</time></trkpt><trkpt lat="44.18698684133122" lon="12.303681797611514"><ele>10.0</ele><time>2026-04-18T09:02:04.984Z</time></trkpt><trkpt lat="44.186882854893526" lon="12.30354969400623"><ele>10.0</ele><time>2026-04-18T09:02:05.984Z</time></trkpt><trkpt lat="44.18677779179554" lon="12.303420467222058"><ele>10.0</ele><time>2026-04-18T09:02:06.984Z</time></trkpt><trkpt lat="44.18666192627332" lon="12.303297290412987"><ele>10.0</ele><time>2026-04-18T09:02:07.984Z</time></trkpt><trkpt lat="44.1865482998892" lon="12.303156795890073"><ele>10.0</ele><time>2026-04-18T09:02:08.984Z</time></trkpt><trkpt lat="44.186440449929904" lon="12.303023147544643"><ele>10.333333333333334</ele><time>2026-04-18T09:02:09.984Z</time></trkpt><trkpt lat="44.18632430161367" lon="12.302889416380248"><ele>10.666666666666666</ele><time>2026-04-18T09:02:10.984Z</time></trkpt><trkpt lat="44.186208527918424" lon="12.302748021184994"><ele>11.0</ele><time>2026-04-18T09:02:11.984Z</time></trkpt><trkpt lat="44.18609133689095" lon="12.302613044362255"><ele>11.0</ele><time>2026-04-18T09:02:12.984Z</time></trkpt><trkpt lat="44.18597668348425" lon="12.30247177017945"><ele>11.0</ele><time>2026-04-18T09:02:13.984Z</time></trkpt><trkpt lat="44.18585349623464" lon="12.302329770009575"><ele>11.0</ele><time>2026-04-18T09:02:14.984Z</time></trkpt><trkpt lat="44.18572720283367" lon="12.302187724789576"><ele>11.0</ele><time>2026-04-18T09:02:15.984Z</time></trkpt><trkpt lat="44.18561208730053" lon="12.302043556773132"><ele>11.0</ele><time>2026-04-18T09:02:16.984Z</time></trkpt><trkpt lat="44.18549392374782" lon="12.301897277694675"><ele>11.0</ele><time>2026-04-18T09:02:17.984Z</time></trkpt><trkpt lat="44.185375771959336" lon="12.3017603483702"><ele>11.0</ele><time>2026-04-18T09:02:18.984Z</time></trkpt><trkpt lat="44.18525448667312" lon="12.301613591992975"><ele>11.0</ele><time>2026-04-18T09:02:19.984Z</time></trkpt><trkpt lat="44.18513715121227" lon="12.301476960752812"><ele>11.0</ele><time>2026-04-18T09:02:20.984Z</time></trkpt><trkpt lat="44.185019180937076" lon="12.301335173553822"><ele>10.666666666666666</ele><time>2026-04-18T09:02:21.984Z</time></trkpt><trkpt lat="44.18490251531252" lon="12.301196066813649"><ele>10.333333333333334</ele><time>2026-04-18T09:02:22.984Z</time></trkpt><trkpt lat="44.184785025647095" lon="12.3010532037128"><ele>10.0</ele><time>2026-04-18T09:02:23.984Z</time></trkpt><trkpt lat="44.184667025638205" lon="12.300910537032227"><ele>10.0</ele><time>2026-04-18T09:02:24.984Z</time></trkpt><trkpt lat="44.184546490760276" lon="12.30076562838626"><ele>10.0</ele><time>2026-04-18T09:02:25.984Z</time></trkpt><trkpt lat="44.18442537592285" lon="12.30062329823646"><ele>10.0</ele><time>2026-04-18T09:02:26.984Z</time></trkpt><trkpt lat="44.18430214576774" lon="12.300486267117286"><ele>10.333333333333334</ele><time>2026-04-18T09:02:27.984Z</time></trkpt><trkpt lat="44.18418334822738" lon="12.300339031932776"><ele>10.666666666666666</ele><time>2026-04-18T09:02:28.984Z</time></trkpt><trkpt lat="44.18406013146226" lon="12.300192516519182"><ele>11.0</ele><time>2026-04-18T09:02:29.984Z</time></trkpt><trkpt lat="44.18393908416844" lon="12.300046365255119"><ele>11.0</ele><time>2026-04-18T09:02:30.984Z</time></trkpt><trkpt lat="44.18381664614309" lon="12.299902435262855"><ele>11.0</ele><time>2026-04-18T09:02:31.984Z</time></trkpt><trkpt lat="44.18369229505886" lon="12.299748192981484"><ele>11.0</ele><time>2026-04-18T09:02:32.984Z</time></trkpt><trkpt lat="44.18357576725985" lon="12.299600922373363"><ele>11.333333333333332</ele><time>2026-04-18T09:02:33.984Z</time></trkpt><trkpt lat="44.18345036249711" lon="12.299450582976462"><ele>11.666666666666666</ele><time>2026-04-18T09:02:34.984Z</time></trkpt><trkpt lat="44.1833224838276" lon="12.299308399369622"><ele>12.0</ele><time>2026-04-18T09:02:35.984Z</time></trkpt><trkpt lat="44.183203344333585" lon="12.299164172540003"><ele>12.0</ele><time>2026-04-18T09:02:36.984Z</time></trkpt><trkpt lat="44.183090581162155" lon="12.299028263783173"><ele>12.0</ele><time>2026-04-18T09:02:37.984Z</time></trkpt><trkpt lat="44.182981166512114" lon="12.298898637264159"><ele>12.0</ele><time>2026-04-18T09:02:38.984Z</time></trkpt><trkpt lat="44.18288199149106" lon="12.298775478291205"><ele>12.0</ele><time>2026-04-18T09:02:39.984Z</time></trkpt><trkpt lat="44.18278802647544" lon="12.298652363911113"><ele>12.0</ele><time>2026-04-18T09:02:40.984Z</time></trkpt><trkpt lat="44.18268336643429" lon="12.2985382730666"><ele>12.0</ele><time>2026-04-18T09:02:41.984Z</time></trkpt><trkpt lat="44.18257966583413" lon="12.298418501016737"><ele>12.0</ele><time>2026-04-18T09:02:42.984Z</time></trkpt><trkpt lat="44.18247441366735" lon="12.298291843641808"><ele>12.0</ele><time>2026-04-18T09:02:43.984Z</time></trkpt><trkpt lat="44.18236859757994" lon="12.298164782384708"><ele>12.25</ele><time>2026-04-18T09:02:44.984Z</time></trkpt><trkpt lat="44.18225995231903" lon="12.298030897290815"><ele>12.5</ele><time>2026-04-18T09:02:45.984Z</time></trkpt><trkpt lat="44.182151118491774" lon="12.297892018737643"><ele>12.75</ele><time>2026-04-18T09:02:46.984Z</time></trkpt><trkpt lat="44.18203496205248" lon="12.297775202745571"><ele>13.0</ele><time>2026-04-18T09:02:47.984Z</time></trkpt><trkpt lat="44.181922683905896" lon="12.297629704668736"><ele>13.0</ele><time>2026-04-18T09:02:48.984Z</time></trkpt><trkpt lat="44.181803776162305" lon="12.297497636228936"><ele>13.0</ele><time>2026-04-18T09:02:49.984Z</time></trkpt><trkpt lat="44.18168157618219" lon="12.297364679872437"><ele>13.0</ele><time>2026-04-18T09:02:50.984Z</time></trkpt><trkpt lat="44.1815832463229" lon="12.297196354059551"><ele>13.0</ele><time>2026-04-18T09:02:51.984Z</time></trkpt><trkpt lat="44.18147520177572" lon="12.29705290801431"><ele>13.0</ele><time>2026-04-18T09:02:52.984Z</time></trkpt><trkpt lat="44.18135831615551" lon="12.296917102620656"><ele>13.0</ele><time>2026-04-18T09:02:53.984Z</time></trkpt><trkpt lat="44.1812403736798" lon="12.29677488169156"><ele>13.0</ele><time>2026-04-18T09:02:54.984Z</time></trkpt><trkpt lat="44.18113089882864" lon="12.296636138434591"><ele>13.0</ele><time>2026-04-18T09:02:55.984Z</time></trkpt><trkpt lat="44.181019778066805" lon="12.296506044620445"><ele>13.0</ele><time>2026-04-18T09:02:56.984Z</time></trkpt><trkpt lat="44.180907297194295" lon="12.296368017572325"><ele>13.0</ele><time>2026-04-18T09:02:57.984Z</time></trkpt><trkpt lat="44.18079715303869" lon="12.29622524301688"><ele>12.75</ele><time>2026-04-18T09:02:58.984Z</time></trkpt><trkpt lat="44.180689394400446" lon="12.296090033962885"><ele>12.5</ele><time>2026-04-18T09:02:59.984Z</time></trkpt><trkpt lat="44.1805929587528" lon="12.295960981198416"><ele>12.25</ele><time>2026-04-18T09:03:00.983Z</time></trkpt><trkpt lat="44.18049827846418" lon="12.295848392446056"><ele>12.0</ele><time>2026-04-18T09:03:01.983Z</time></trkpt><trkpt lat="44.18042290888833" lon="12.295761589010166"><ele>12.0</ele><time>2026-04-18T09:03:02.984Z</time></trkpt><trkpt lat="44.18035463160294" lon="12.295697753240267"><ele>12.0</ele><time>2026-04-18T09:03:03.985Z</time></trkpt><trkpt lat="44.180293426075785" lon="12.295618143991176"><ele>12.0</ele><time>2026-04-18T09:03:04.985Z</time></trkpt><trkpt lat="44.18019898180752" lon="12.295522084347093"><ele>12.0</ele><time>2026-04-18T09:03:06.984Z</time></trkpt><trkpt lat="44.18014919819643" lon="12.295454119724472"><ele>12.0</ele><time>2026-04-18T09:03:24.984Z</time></trkpt><trkpt lat="44.18008307300305" lon="12.295371927209505"><ele>12.0</ele><time>2026-04-18T09:03:27.984Z</time></trkpt><trkpt lat="44.179994778833" lon="12.295252722147172"><ele>12.0</ele><time>2026-04-18T09:03:29.984Z</time></trkpt><trkpt lat="44.17994013274502" lon="12.295183590778644"><ele>12.0</ele><time>2026-04-18T09:03:30.984Z</time></trkpt><trkpt lat="44.17986970879792" lon="12.29509494612098"><ele>12.0</ele><time>2026-04-18T09:03:31.984Z</time></trkpt><trkpt lat="44.179785799474764" lon="12.294997808293045"><ele>12.0</ele><time>2026-04-18T09:03:32.984Z</time></trkpt><trkpt lat="44.17969403604664" lon="12.294884052137506"><ele>12.0</ele><time>2026-04-18T09:03:33.984Z</time></trkpt><trkpt lat="44.17960468798577" lon="12.29477432712093"><ele>12.5</ele><time>2026-04-18T09:03:34.984Z</time></trkpt><trkpt lat="44.179515676527444" lon="12.294667190472454"><ele>13.0</ele><time>2026-04-18T09:03:35.984Z</time></trkpt><trkpt lat="44.179422693908975" lon="12.294558720868919"><ele>13.5</ele><time>2026-04-18T09:03:36.984Z</time></trkpt><trkpt lat="44.179328929547665" lon="12.294444679792823"><ele>14.0</ele><time>2026-04-18T09:03:37.984Z</time></trkpt><trkpt lat="44.179238969787974" lon="12.294335682137582"><ele>14.0</ele><time>2026-04-18T09:03:38.984Z</time></trkpt><trkpt lat="44.17915096593211" lon="12.294225720945919"><ele>14.0</ele><time>2026-04-18T09:03:39.984Z</time></trkpt><trkpt lat="44.17905796588872" lon="12.294122222388937"><ele>14.0</ele><time>2026-04-18T09:03:40.984Z</time></trkpt><trkpt lat="44.17896640216505" lon="12.294024310120742"><ele>14.0</ele><time>2026-04-18T09:03:41.984Z</time></trkpt><trkpt lat="44.178876293312584" lon="12.29392026253782"><ele>13.5</ele><time>2026-04-18T09:03:42.984Z</time></trkpt><trkpt lat="44.17878590301233" lon="12.293809112389663"><ele>13.0</ele><time>2026-04-18T09:03:43.984Z</time></trkpt><trkpt lat="44.17871102187625" lon="12.293669923085318"><ele>12.5</ele><time>2026-04-18T09:03:44.984Z</time></trkpt><trkpt lat="44.17861734638064" lon="12.293554360659805"><ele>12.0</ele><time>2026-04-18T09:03:45.984Z</time></trkpt><trkpt lat="44.178523335959696" lon="12.293437955671955"><ele>12.0</ele><time>2026-04-18T09:03:46.984Z</time></trkpt><trkpt lat="44.17842282812235" lon="12.293313505548564"><ele>12.0</ele><time>2026-04-18T09:03:47.984Z</time></trkpt><trkpt lat="44.17832722902692" lon="12.293199276517875"><ele>12.0</ele><time>2026-04-18T09:03:48.984Z</time></trkpt><trkpt lat="44.178218437623556" lon="12.293070898314058"><ele>12.0</ele><time>2026-04-18T09:03:49.984Z</time></trkpt><trkpt lat="44.17810531367853" lon="12.292944492028598"><ele>12.25</ele><time>2026-04-18T09:03:50.984Z</time></trkpt><trkpt lat="44.17800637759254" lon="12.292803898130368"><ele>12.5</ele><time>2026-04-18T09:03:51.984Z</time></trkpt><trkpt lat="44.17789990083134" lon="12.292680389522593"><ele>12.75</ele><time>2026-04-18T09:03:52.984Z</time></trkpt><trkpt lat="44.17779711994711" lon="12.292561198633324"><ele>13.0</ele><time>2026-04-18T09:03:53.984Z</time></trkpt><trkpt lat="44.17769683153504" lon="12.292432039394205"><ele>13.0</ele><time>2026-04-18T09:03:54.984Z</time></trkpt><trkpt lat="44.17759102175873" lon="12.292300991760534"><ele>13.0</ele><time>2026-04-18T09:03:55.984Z</time></trkpt><trkpt lat="44.17748028709723" lon="12.292165921406315"><ele>13.0</ele><time>2026-04-18T09:03:56.984Z</time></trkpt><trkpt lat="44.17736835199063" lon="12.29202533055925"><ele>13.0</ele><time>2026-04-18T09:03:57.984Z</time></trkpt><trkpt lat="44.177261151327144" lon="12.29189023690254"><ele>13.0</ele><time>2026-04-18T09:03:58.984Z</time></trkpt><trkpt lat="44.177146062014884" lon="12.291748482226943"><ele>13.0</ele><time>2026-04-18T09:03:59.984Z</time></trkpt><trkpt lat="44.177026536175305" lon="12.291605339919679"><ele>13.0</ele><time>2026-04-18T09:04:00.984Z</time></trkpt><trkpt lat="44.17690962710332" lon="12.291459603153955"><ele>13.0</ele><time>2026-04-18T09:04:01.984Z</time></trkpt><trkpt lat="44.17679088722669" lon="12.291312907363714"><ele>13.0</ele><time>2026-04-18T09:04:02.984Z</time></trkpt><trkpt lat="44.17667691960562" lon="12.291173478867899"><ele>13.0</ele><time>2026-04-18T09:04:03.984Z</time></trkpt><trkpt lat="44.17655907274662" lon="12.291029970509685"><ele>12.666666666666666</ele><time>2026-04-18T09:04:04.984Z</time></trkpt><trkpt lat="44.17644572433374" lon="12.290891430150891"><ele>12.333333333333332</ele><time>2026-04-18T09:04:05.984Z</time></trkpt><trkpt lat="44.17632992745478" lon="12.290751499808472"><ele>12.0</ele><time>2026-04-18T09:04:06.984Z</time></trkpt><trkpt lat="44.176213413136544" lon="12.290604929407513"><ele>12.666666666666668</ele><time>2026-04-18T09:04:07.984Z</time></trkpt><trkpt lat="44.17609452401982" lon="12.290466694045026"><ele>13.333333333333334</ele><time>2026-04-18T09:04:08.984Z</time></trkpt><trkpt lat="44.17597488563876" lon="12.29031945971304"><ele>14.0</ele><time>2026-04-18T09:04:09.984Z</time></trkpt><trkpt lat="44.175858935775864" lon="12.290177885147699"><ele>14.0</ele><time>2026-04-18T09:04:10.984Z</time></trkpt><trkpt lat="44.17574253645706" lon="12.290042951985304"><ele>14.0</ele><time>2026-04-18T09:04:11.984Z</time></trkpt><trkpt lat="44.17562256466231" lon="12.2899099724915"><ele>14.0</ele><time>2026-04-18T09:04:12.984Z</time></trkpt><trkpt lat="44.17550768998464" lon="12.289771506474638"><ele>14.25</ele><time>2026-04-18T09:04:13.984Z</time></trkpt><trkpt lat="44.175400582009146" lon="12.28961803455269"><ele>14.5</ele><time>2026-04-18T09:04:14.984Z</time></trkpt><trkpt lat="44.17529350840571" lon="12.289493624688717"><ele>14.75</ele><time>2026-04-18T09:04:15.984Z</time></trkpt><trkpt lat="44.17518746473261" lon="12.289363833276616"><ele>15.0</ele><time>2026-04-18T09:04:16.984Z</time></trkpt><trkpt lat="44.175087981225424" lon="12.28924979212952"><ele>15.0</ele><time>2026-04-18T09:04:17.984Z</time></trkpt><trkpt lat="44.174998403851696" lon="12.289145022560675"><ele>15.0</ele><time>2026-04-18T09:04:18.984Z</time></trkpt><trkpt lat="44.174914854655825" lon="12.289036267901468"><ele>15.0</ele><time>2026-04-18T09:04:19.984Z</time></trkpt><trkpt lat="44.17481881995024" lon="12.288926738308101"><ele>15.0</ele><time>2026-04-18T09:04:20.984Z</time></trkpt><trkpt lat="44.17472829584339" lon="12.288784577604599"><ele>15.0</ele><time>2026-04-18T09:04:21.984Z</time></trkpt><trkpt lat="44.1746220627232" lon="12.288654781388377"><ele>15.0</ele><time>2026-04-18T09:04:22.984Z</time></trkpt><trkpt lat="44.17450906779423" lon="12.288534757118976"><ele>15.0</ele><time>2026-04-18T09:04:23.984Z</time></trkpt><trkpt lat="44.174400809827524" lon="12.28840540921749"><ele>15.0</ele><time>2026-04-18T09:04:24.984Z</time></trkpt><trkpt lat="44.17428752196584" lon="12.288277005300731"><ele>15.0</ele><time>2026-04-18T09:04:25.984Z</time></trkpt><trkpt lat="44.1741784754204" lon="12.288148264224919"><ele>15.0</ele><time>2026-04-18T09:04:26.984Z</time></trkpt><trkpt lat="44.17407240671479" lon="12.288022110777693"><ele>15.0</ele><time>2026-04-18T09:04:27.984Z</time></trkpt><trkpt lat="44.1739665006908" lon="12.287897407113999"><ele>15.0</ele><time>2026-04-18T09:04:28.984Z</time></trkpt><trkpt lat="44.173858169198766" lon="12.287769436584732"><ele>15.25</ele><time>2026-04-18T09:04:29.984Z</time></trkpt><trkpt lat="44.1737529575857" lon="12.287641912324796"><ele>15.5</ele><time>2026-04-18T09:04:30.984Z</time></trkpt><trkpt lat="44.17364428533728" lon="12.287519859510988"><ele>15.75</ele><time>2026-04-18T09:04:31.984Z</time></trkpt><trkpt lat="44.17354212834642" lon="12.287385086488934"><ele>16.0</ele><time>2026-04-18T09:04:32.984Z</time></trkpt><trkpt lat="44.17343175297057" lon="12.28725722108322"><ele>16.0</ele><time>2026-04-18T09:04:33.984Z</time></trkpt><trkpt lat="44.17332020745938" lon="12.287125532009574"><ele>16.0</ele><time>2026-04-18T09:04:34.984Z</time></trkpt><trkpt lat="44.17320076637488" lon="12.28699752216613"><ele>16.0</ele><time>2026-04-18T09:04:35.984Z</time></trkpt><trkpt lat="44.173099249774324" lon="12.28684228849721"><ele>16.0</ele><time>2026-04-18T09:04:36.984Z</time></trkpt><trkpt lat="44.17298262666899" lon="12.286717402099496"><ele>15.75</ele><time>2026-04-18T09:04:37.984Z</time></trkpt><trkpt lat="44.172876883855544" lon="12.286605433613357"><ele>15.5</ele><time>2026-04-18T09:04:38.983Z</time></trkpt><trkpt lat="44.172784645929056" lon="12.286500662248468"><ele>15.25</ele><time>2026-04-18T09:04:39.983Z</time></trkpt><trkpt lat="44.1726946310436" lon="12.28639891566611"><ele>15.0</ele><time>2026-04-18T09:04:40.983Z</time></trkpt><trkpt lat="44.17261867814813" lon="12.28629997224867"><ele>15.0</ele><time>2026-04-18T09:04:41.983Z</time></trkpt><trkpt lat="44.17253881603135" lon="12.28620207603768"><ele>15.0</ele><time>2026-04-18T09:04:42.983Z</time></trkpt><trkpt lat="44.17245928270473" lon="12.286115603272151"><ele>15.0</ele><time>2026-04-18T09:04:43.983Z</time></trkpt><trkpt lat="44.17237337707043" lon="12.286018498870131"><ele>15.0</ele><time>2026-04-18T09:04:44.983Z</time></trkpt><trkpt lat="44.17229167125058" lon="12.28591771570587"><ele>15.0</ele><time>2026-04-18T09:04:45.983Z</time></trkpt><trkpt lat="44.172210419081864" lon="12.285821625974144"><ele>15.166666666666666</ele><time>2026-04-18T09:04:46.983Z</time></trkpt><trkpt lat="44.17213436170105" lon="12.285729786007943"><ele>15.333333333333332</ele><time>2026-04-18T09:04:47.983Z</time></trkpt><trkpt lat="44.17206511133621" lon="12.285644693493067"><ele>15.5</ele><time>2026-04-18T09:04:48.983Z</time></trkpt><trkpt lat="44.17200200535011" lon="12.28557644637376"><ele>15.666666666666666</ele><time>2026-04-18T09:04:49.983Z</time></trkpt><trkpt lat="44.17195593085262" lon="12.285514548766857"><ele>15.833333333333332</ele><time>2026-04-18T09:04:50.983Z</time></trkpt><trkpt lat="44.17188546484366" lon="12.285440720302566"><ele>16.0</ele><time>2026-04-18T09:04:52.983Z</time></trkpt><trkpt lat="44.17180889546746" lon="12.285359899825876"><ele>15.999999999999998</ele><time>2026-04-18T09:04:54.983Z</time></trkpt><trkpt lat="44.17174776133341" lon="12.285297282740926"><ele>16.0</ele><time>2026-04-18T09:04:55.983Z</time></trkpt><trkpt lat="44.171686704929044" lon="12.28521777521219"><ele>16.0</ele><time>2026-04-18T09:04:56.983Z</time></trkpt><trkpt lat="44.171641265656916" lon="12.285131706740149"><ele>16.0</ele><time>2026-04-18T09:04:57.983Z</time></trkpt><trkpt lat="44.17153662379566" lon="12.285024796050795"><ele>15.999999999999998</ele><time>2026-04-18T09:04:59.983Z</time></trkpt><trkpt lat="44.171485121896396" lon="12.284968225943299"><ele>16.0</ele><time>2026-04-18T09:05:00.983Z</time></trkpt><trkpt lat="44.1714363079934" lon="12.2848951317803"><ele>16.166666666666664</ele><time>2026-04-18T09:05:01.983Z</time></trkpt><trkpt lat="44.171373134012455" lon="12.284837550762415"><ele>16.333333333333332</ele><time>2026-04-18T09:05:02.983Z</time></trkpt><trkpt lat="44.171329427239485" lon="12.28476942815944"><ele>16.5</ele><time>2026-04-18T09:05:03.983Z</time></trkpt><trkpt lat="44.17124923893341" lon="12.28467493244562"><ele>16.666666666666668</ele><time>2026-04-18T09:05:05.983Z</time></trkpt><trkpt lat="44.171151657389345" lon="12.284571491177154"><ele>16.833333333333336</ele><time>2026-04-18T09:05:07.983Z</time></trkpt><trkpt lat="44.17110874066603" lon="12.28450254576562"><ele>17.0</ele><time>2026-04-18T09:05:08.984Z</time></trkpt><trkpt lat="44.17106906636377" lon="12.284430296694056"><ele>17.0</ele><time>2026-04-18T09:05:09.984Z</time></trkpt><trkpt lat="44.17101947041246" lon="12.284357733634168"><ele>17.0</ele><time>2026-04-18T09:05:10.984Z</time></trkpt><trkpt lat="44.170964585608516" lon="12.284272683024678"><ele>17.0</ele><time>2026-04-18T09:05:11.984Z</time></trkpt><trkpt lat="44.17090317726372" lon="12.284199443525768"><ele>17.0</ele><time>2026-04-18T09:05:12.984Z</time></trkpt><trkpt lat="44.170840248241284" lon="12.284125056654345"><ele>17.0</ele><time>2026-04-18T09:05:13.984Z</time></trkpt><trkpt lat="44.170777153372356" lon="12.28405866222316"><ele>17.0</ele><time>2026-04-18T09:05:14.984Z</time></trkpt><trkpt lat="44.170713200002176" lon="12.283988688112423"><ele>17.0</ele><time>2026-04-18T09:05:15.984Z</time></trkpt><trkpt lat="44.17063923333735" lon="12.283921233186042"><ele>17.0</ele><time>2026-04-18T09:05:16.984Z</time></trkpt><trkpt lat="44.17057571474332" lon="12.283848026966284"><ele>17.0</ele><time>2026-04-18T09:05:17.985Z</time></trkpt><trkpt lat="44.17050425229806" lon="12.28377474729063"><ele>17.0</ele><time>2026-04-18T09:05:18.984Z</time></trkpt><trkpt lat="44.170447556518816" lon="12.283704798580983"><ele>17.0</ele><time>2026-04-18T09:05:19.984Z</time></trkpt><trkpt lat="44.17039724932412" lon="12.28364630558063"><ele>17.0</ele><time>2026-04-18T09:05:20.984Z</time></trkpt><trkpt lat="44.17034059903067" lon="12.283583204065787"><ele>17.0</ele><time>2026-04-18T09:05:21.984Z</time></trkpt><trkpt lat="44.17026892528721" lon="12.283510848257018"><ele>17.0</ele><time>2026-04-18T09:05:22.984Z</time></trkpt><trkpt lat="44.17018982933472" lon="12.28342656130589"><ele>17.0</ele><time>2026-04-18T09:05:23.984Z</time></trkpt><trkpt lat="44.17011162377018" lon="12.283331737487284"><ele>17.0</ele><time>2026-04-18T09:05:24.984Z</time></trkpt><trkpt lat="44.17003070767193" lon="12.283236296851513"><ele>17.0</ele><time>2026-04-18T09:05:25.984Z</time></trkpt><trkpt lat="44.169955006857556" lon="12.283146777773299"><ele>17.0</ele><time>2026-04-18T09:05:26.984Z</time></trkpt><trkpt lat="44.16989522966661" lon="12.28307580589182"><ele>17.0</ele><time>2026-04-18T09:05:27.984Z</time></trkpt><trkpt lat="44.16984423669532" lon="12.283017970593253"><ele>17.0</ele><time>2026-04-18T09:05:28.984Z</time></trkpt><trkpt lat="44.16975249268283" lon="12.282906772877576"><ele>17.0</ele><time>2026-04-18T09:05:30.984Z</time></trkpt><trkpt lat="44.16971969694149" lon="12.282829470769194"><ele>17.0</ele><time>2026-04-18T09:05:31.984Z</time></trkpt><trkpt lat="44.1696583927103" lon="12.282763143856982"><ele>17.0</ele><time>2026-04-18T09:05:32.984Z</time></trkpt><trkpt lat="44.16958769986839" lon="12.282686411197334"><ele>17.2</ele><time>2026-04-18T09:05:33.984Z</time></trkpt><trkpt lat="44.16950410812702" lon="12.282595088180187"><ele>17.4</ele><time>2026-04-18T09:05:34.984Z</time></trkpt><trkpt lat="44.16941583512559" lon="12.282500935959074"><ele>17.6</ele><time>2026-04-18T09:05:35.984Z</time></trkpt><trkpt lat="44.169332426024326" lon="12.282414363108758"><ele>17.8</ele><time>2026-04-18T09:05:36.984Z</time></trkpt><trkpt lat="44.16925441100497" lon="12.282332003381056"><ele>18.0</ele><time>2026-04-18T09:05:37.984Z</time></trkpt><trkpt lat="44.16918282225605" lon="12.282267144979189"><ele>17.833333333333332</ele><time>2026-04-18T09:05:38.984Z</time></trkpt><trkpt lat="44.1691401824513" lon="12.282159055691725"><ele>17.666666666666668</ele><time>2026-04-18T09:05:39.984Z</time></trkpt><trkpt lat="44.169077067581135" lon="12.282104976353887"><ele>17.5</ele><time>2026-04-18T09:05:40.984Z</time></trkpt><trkpt lat="44.16901106586001" lon="12.282082651044263"><ele>17.333333333333336</ele><time>2026-04-18T09:05:41.984Z</time></trkpt><trkpt lat="44.168949301471635" lon="12.2819951883676"><ele>17.166666666666668</ele><time>2026-04-18T09:05:43.984Z</time></trkpt><trkpt lat="44.16892171757956" lon="12.281871042553444"><ele>17.0</ele><time>2026-04-18T09:05:46.984Z</time></trkpt><trkpt lat="44.16890523355383" lon="12.281784582688745"><ele>16.833333333333336</ele><time>2026-04-18T09:05:47.984Z</time></trkpt><trkpt lat="44.16889212797156" lon="12.281669981178322"><ele>16.666666666666668</ele><time>2026-04-18T09:05:48.984Z</time></trkpt><trkpt lat="44.168857856746676" lon="12.281552390586986"><ele>16.5</ele><time>2026-04-18T09:05:49.984Z</time></trkpt><trkpt lat="44.16889575165927" lon="12.281431164212902"><ele>16.333333333333332</ele><time>2026-04-18T09:05:50.984Z</time></trkpt><trkpt lat="44.16889309154135" lon="12.281320003880497"><ele>16.166666666666664</ele><time>2026-04-18T09:05:51.984Z</time></trkpt><trkpt lat="44.16890417016917" lon="12.281202698336363"><ele>16.0</ele><time>2026-04-18T09:05:52.984Z</time></trkpt><trkpt lat="44.16891728485843" lon="12.281087002754608"><ele>16.333333333333332</ele><time>2026-04-18T09:05:53.984Z</time></trkpt><trkpt lat="44.168922754494126" lon="12.280989541237595"><ele>16.666666666666664</ele><time>2026-04-18T09:05:54.984Z</time></trkpt><trkpt lat="44.168928073948855" lon="12.28089248922522"><ele>17.0</ele><time>2026-04-18T09:05:55.984Z</time></trkpt><trkpt lat="44.1689335805013" lon="12.280804109228864"><ele>17.333333333333332</ele><time>2026-04-18T09:05:56.984Z</time></trkpt><trkpt lat="44.168946894597674" lon="12.280662474925407"><ele>17.666666666666668</ele><time>2026-04-18T09:05:58.984Z</time></trkpt><trkpt lat="44.16894667368817" lon="12.280550111711467"><ele>18.0</ele><time>2026-04-18T09:06:00.984Z</time></trkpt><trkpt lat="44.168950037404045" lon="12.280438118397837"><ele>18.166666666666668</ele><time>2026-04-18T09:06:03.984Z</time></trkpt><trkpt lat="44.16895093686765" lon="12.280338479451371"><ele>18.333333333333332</ele><time>2026-04-18T09:06:06.984Z</time></trkpt><trkpt lat="44.16895071529026" lon="12.280234002933344"><ele>18.5</ele><time>2026-04-18T09:06:17.984Z</time></trkpt><trkpt lat="44.16895530345568" lon="12.28014576067805"><ele>18.666666666666664</ele><time>2026-04-18T09:06:18.984Z</time></trkpt><trkpt lat="44.16895495616594" lon="12.279956450864574"><ele>18.833333333333332</ele><time>2026-04-18T09:06:20.984Z</time></trkpt><trkpt lat="44.16895860953425" lon="12.279859783943264"><ele>19.0</ele><time>2026-04-18T09:06:21.984Z</time></trkpt><trkpt lat="44.16896203505581" lon="12.279750456182407"><ele>19.0</ele><time>2026-04-18T09:06:22.984Z</time></trkpt><trkpt lat="44.16896442250231" lon="12.279631194688502"><ele>19.0</ele><time>2026-04-18T09:06:23.984Z</time></trkpt><trkpt lat="44.16897034061959" lon="12.279517424205034"><ele>19.0</ele><time>2026-04-18T09:06:24.984Z</time></trkpt><trkpt lat="44.16896808420235" lon="12.27938808252943"><ele>19.0</ele><time>2026-04-18T09:06:25.984Z</time></trkpt><trkpt lat="44.16896105150714" lon="12.279254120553274"><ele>19.0</ele><time>2026-04-18T09:06:26.984Z</time></trkpt><trkpt lat="44.16895435551013" lon="12.279102911761374"><ele>19.0</ele><time>2026-04-18T09:06:27.984Z</time></trkpt><trkpt lat="44.16895021374945" lon="12.278951212959122"><ele>19.0</ele><time>2026-04-18T09:06:28.984Z</time></trkpt><trkpt lat="44.1689456234707" lon="12.278809913712275"><ele>19.0</ele><time>2026-04-18T09:06:29.984Z</time></trkpt><trkpt lat="44.1689390068326" lon="12.278648139878612"><ele>19.0</ele><time>2026-04-18T09:06:30.984Z</time></trkpt><trkpt lat="44.168928364162596" lon="12.278483412257438"><ele>19.0</ele><time>2026-04-18T09:06:31.984Z</time></trkpt><trkpt lat="44.16891361174996" lon="12.278330041988086"><ele>18.75</ele><time>2026-04-18T09:06:32.984Z</time></trkpt><trkpt lat="44.16890459138718" lon="12.278181170706866"><ele>18.5</ele><time>2026-04-18T09:06:33.984Z</time></trkpt><trkpt lat="44.16889479192405" lon="12.278028394937502"><ele>18.25</ele><time>2026-04-18T09:06:34.983Z</time></trkpt><trkpt lat="44.16888308512525" lon="12.277867088759644"><ele>18.0</ele><time>2026-04-18T09:06:35.983Z</time></trkpt><trkpt lat="44.16887319865096" lon="12.277694651699935"><ele>18.0</ele><time>2026-04-18T09:06:36.983Z</time></trkpt><trkpt lat="44.16886292700729" lon="12.277522823373278"><ele>18.0</ele><time>2026-04-18T09:06:37.983Z</time></trkpt><trkpt lat="44.16885839609857" lon="12.277358550980736"><ele>18.0</ele><time>2026-04-18T09:06:38.983Z</time></trkpt><trkpt lat="44.16884193407903" lon="12.277190960945445"><ele>18.0</ele><time>2026-04-18T09:06:39.983Z</time></trkpt><trkpt lat="44.168834531879554" lon="12.277037381781563"><ele>18.2</ele><time>2026-04-18T09:06:40.983Z</time></trkpt><trkpt lat="44.16882467092096" lon="12.276888795040806"><ele>18.4</ele><time>2026-04-18T09:06:41.983Z</time></trkpt><trkpt lat="44.16882278794304" lon="12.276751796619003"><ele>18.599999999999998</ele><time>2026-04-18T09:06:42.983Z</time></trkpt><trkpt lat="44.168813103742835" lon="12.276613561528944"><ele>18.8</ele><time>2026-04-18T09:06:43.983Z</time></trkpt><trkpt lat="44.168802048803116" lon="12.276458878094132"><ele>19.0</ele><time>2026-04-18T09:06:44.983Z</time></trkpt><trkpt lat="44.16878585939403" lon="12.276290563527786"><ele>19.0</ele><time>2026-04-18T09:06:45.983Z</time></trkpt><trkpt lat="44.16877409898767" lon="12.276115511215275"><ele>19.0</ele><time>2026-04-18T09:06:46.983Z</time></trkpt><trkpt lat="44.16876648653958" lon="12.275936926836332"><ele>19.0</ele><time>2026-04-18T09:06:47.983Z</time></trkpt><trkpt lat="44.168759376404246" lon="12.275768798399424"><ele>19.0</ele><time>2026-04-18T09:06:48.983Z</time></trkpt><trkpt lat="44.1687556123329" lon="12.275590918490423"><ele>19.0</ele><time>2026-04-18T09:06:49.983Z</time></trkpt><trkpt lat="44.16874026529883" lon="12.275418093755704"><ele>19.0</ele><time>2026-04-18T09:06:50.983Z</time></trkpt><trkpt lat="44.168728124470825" lon="12.275261554365382"><ele>19.0</ele><time>2026-04-18T09:06:51.983Z</time></trkpt><trkpt lat="44.16871977730714" lon="12.275108063365924"><ele>19.0</ele><time>2026-04-18T09:06:52.983Z</time></trkpt><trkpt lat="44.16870874227656" lon="12.27495050892226"><ele>19.0</ele><time>2026-04-18T09:06:53.983Z</time></trkpt><trkpt lat="44.16869931093996" lon="12.274802952213662"><ele>19.0</ele><time>2026-04-18T09:06:54.983Z</time></trkpt><trkpt lat="44.16868995748717" lon="12.274659900754488"><ele>19.0</ele><time>2026-04-18T09:06:55.983Z</time></trkpt><trkpt lat="44.16868162978076" lon="12.274512030603406"><ele>19.0</ele><time>2026-04-18T09:06:56.983Z</time></trkpt><trkpt lat="44.16866942596282" lon="12.27435792123607"><ele>19.0</ele><time>2026-04-18T09:06:57.983Z</time></trkpt><trkpt lat="44.16866794804776" lon="12.274203845454165"><ele>19.0</ele><time>2026-04-18T09:06:58.983Z</time></trkpt><trkpt lat="44.168651962576284" lon="12.274038662150442"><ele>19.0</ele><time>2026-04-18T09:06:59.983Z</time></trkpt><trkpt lat="44.16864316498548" lon="12.273877198710261"><ele>19.0</ele><time>2026-04-18T09:07:00.983Z</time></trkpt><trkpt lat="44.16862485068152" lon="12.27369261704583"><ele>19.0</ele><time>2026-04-18T09:07:01.983Z</time></trkpt><trkpt lat="44.168623286919384" lon="12.27350402119738"><ele>19.0</ele><time>2026-04-18T09:07:02.983Z</time></trkpt><trkpt lat="44.16860780487955" lon="12.273306195574907"><ele>19.0</ele><time>2026-04-18T09:07:03.983Z</time></trkpt><trkpt lat="44.1685964815645" lon="12.273126655108173"><ele>19.0</ele><time>2026-04-18T09:07:04.983Z</time></trkpt><trkpt lat="44.168587127976345" lon="12.272954035450542"><ele>19.0</ele><time>2026-04-18T09:07:05.983Z</time></trkpt><trkpt lat="44.16857868341138" lon="12.272790724314095"><ele>19.0</ele><time>2026-04-18T09:07:06.983Z</time></trkpt><trkpt lat="44.168570038595256" lon="12.272612887344959"><ele>19.0</ele><time>2026-04-18T09:07:07.983Z</time></trkpt><trkpt lat="44.16855771025544" lon="12.272439318797593"><ele>19.0</ele><time>2026-04-18T09:07:08.983Z</time></trkpt><trkpt lat="44.1685467211045" lon="12.272254155252275"><ele>19.0</ele><time>2026-04-18T09:07:09.983Z</time></trkpt><trkpt lat="44.168536532298596" lon="12.272060776022713"><ele>18.75</ele><time>2026-04-18T09:07:10.983Z</time></trkpt><trkpt lat="44.168526129036664" lon="12.271871799539287"><ele>18.5</ele><time>2026-04-18T09:07:11.983Z</time></trkpt><trkpt lat="44.1685153627884" lon="12.27167857569422"><ele>18.25</ele><time>2026-04-18T09:07:12.983Z</time></trkpt><trkpt lat="44.16850607125649" lon="12.271494614674719"><ele>18.0</ele><time>2026-04-18T09:07:13.983Z</time></trkpt><trkpt lat="44.16849489517508" lon="12.271293292454569"><ele>18.0</ele><time>2026-04-18T09:07:14.984Z</time></trkpt><trkpt lat="44.168487102062066" lon="12.271091924145306"><ele>18.0</ele><time>2026-04-18T09:07:15.984Z</time></trkpt><trkpt lat="44.16847782910416" lon="12.270888139685841"><ele>18.0</ele><time>2026-04-18T09:07:16.984Z</time></trkpt><trkpt lat="44.16846738397523" lon="12.270697326730506"><ele>18.0</ele><time>2026-04-18T09:07:17.984Z</time></trkpt><trkpt lat="44.168457889479114" lon="12.270513242859938"><ele>18.0</ele><time>2026-04-18T09:07:18.983Z</time></trkpt><trkpt lat="44.168451385051796" lon="12.270328600014308"><ele>18.0</ele><time>2026-04-18T09:07:19.983Z</time></trkpt><trkpt lat="44.16844116123487" lon="12.27014216150761"><ele>18.0</ele><time>2026-04-18T09:07:20.983Z</time></trkpt><trkpt lat="44.1684294959221" lon="12.26994042490709"><ele>18.0</ele><time>2026-04-18T09:07:21.984Z</time></trkpt><trkpt lat="44.16841755076344" lon="12.269734430540664"><ele>17.75</ele><time>2026-04-18T09:07:22.984Z</time></trkpt><trkpt lat="44.16840422191549" lon="12.269540470891386"><ele>17.5</ele><time>2026-04-18T09:07:23.984Z</time></trkpt><trkpt lat="44.16839435628128" lon="12.269341720502359"><ele>17.25</ele><time>2026-04-18T09:07:24.984Z</time></trkpt><trkpt lat="44.1683836100533" lon="12.269146752153237"><ele>17.0</ele><time>2026-04-18T09:07:25.984Z</time></trkpt><trkpt lat="44.168369490770765" lon="12.268934458606692"><ele>17.5</ele><time>2026-04-18T09:07:26.983Z</time></trkpt><trkpt lat="44.168359036354744" lon="12.268741601327548"><ele>18.0</ele><time>2026-04-18T09:07:27.984Z</time></trkpt><trkpt lat="44.168347274049786" lon="12.268552993241535"><ele>18.5</ele><time>2026-04-18T09:07:28.984Z</time></trkpt><trkpt lat="44.168337438823954" lon="12.268355201801802"><ele>19.0</ele><time>2026-04-18T09:07:29.984Z</time></trkpt><trkpt lat="44.16832804753932" lon="12.268163624305124"><ele>19.0</ele><time>2026-04-18T09:07:30.984Z</time></trkpt><trkpt lat="44.168323747335094" lon="12.267966545009983"><ele>19.0</ele><time>2026-04-18T09:07:31.984Z</time></trkpt><trkpt lat="44.168313568574305" lon="12.267768903593515"><ele>19.0</ele><time>2026-04-18T09:07:32.984Z</time></trkpt><trkpt lat="44.16830045956737" lon="12.267579710988342"><ele>19.0</ele><time>2026-04-18T09:07:33.984Z</time></trkpt><trkpt lat="44.16828307396022" lon="12.267373954607255"><ele>19.25</ele><time>2026-04-18T09:07:34.984Z</time></trkpt><trkpt lat="44.168270500960666" lon="12.267176648951606"><ele>19.5</ele><time>2026-04-18T09:07:35.984Z</time></trkpt><trkpt lat="44.16826157039479" lon="12.266969835311205"><ele>19.75</ele><time>2026-04-18T09:07:36.984Z</time></trkpt><trkpt lat="44.16824770172335" lon="12.266760244270362"><ele>20.0</ele><time>2026-04-18T09:07:37.984Z</time></trkpt><trkpt lat="44.16823812948731" lon="12.266548054859722"><ele>20.25</ele><time>2026-04-18T09:07:38.984Z</time></trkpt><trkpt lat="44.16822646660341" lon="12.266335147544119"><ele>20.5</ele><time>2026-04-18T09:07:39.984Z</time></trkpt><trkpt lat="44.168215810962906" lon="12.266129414343458"><ele>20.75</ele><time>2026-04-18T09:07:40.984Z</time></trkpt><trkpt lat="44.16820631022251" lon="12.26593746629419"><ele>21.0</ele><time>2026-04-18T09:07:41.984Z</time></trkpt><trkpt lat="44.16819614607053" lon="12.265725331431842"><ele>20.75</ele><time>2026-04-18T09:07:42.984Z</time></trkpt><trkpt lat="44.168186818964315" lon="12.2655300771816"><ele>20.5</ele><time>2026-04-18T09:07:43.984Z</time></trkpt><trkpt lat="44.16817865092617" lon="12.265332155398621"><ele>20.25</ele><time>2026-04-18T09:07:44.984Z</time></trkpt><trkpt lat="44.1681695065305" lon="12.265130395261842"><ele>20.0</ele><time>2026-04-18T09:07:45.984Z</time></trkpt><trkpt lat="44.16815793609125" lon="12.264931901971455"><ele>20.0</ele><time>2026-04-18T09:07:46.984Z</time></trkpt><trkpt lat="44.16814549727491" lon="12.264725912267775"><ele>20.0</ele><time>2026-04-18T09:07:47.984Z</time></trkpt><trkpt lat="44.16813440174291" lon="12.264520853782003"><ele>20.0</ele><time>2026-04-18T09:07:48.984Z</time></trkpt><trkpt lat="44.16812354980657" lon="12.264307594532362"><ele>20.0</ele><time>2026-04-18T09:07:49.984Z</time></trkpt><trkpt lat="44.16811324655854" lon="12.264100495414176"><ele>20.5</ele><time>2026-04-18T09:07:50.984Z</time></trkpt><trkpt lat="44.16810247469043" lon="12.263900481426942"><ele>21.0</ele><time>2026-04-18T09:07:51.984Z</time></trkpt><trkpt lat="44.16809201941943" lon="12.263703018130949"><ele>21.5</ele><time>2026-04-18T09:07:52.984Z</time></trkpt><trkpt lat="44.16807924109814" lon="12.263507935881869"><ele>22.0</ele><time>2026-04-18T09:07:53.984Z</time></trkpt><trkpt lat="44.1680688449958" lon="12.26331150812264"><ele>22.0</ele><time>2026-04-18T09:07:54.984Z</time></trkpt><trkpt lat="44.168057764984525" lon="12.263123054741419"><ele>22.0</ele><time>2026-04-18T09:07:55.984Z</time></trkpt><trkpt lat="44.16805122091562" lon="12.262933273988917"><ele>22.0</ele><time>2026-04-18T09:07:56.984Z</time></trkpt><trkpt lat="44.168041741824275" lon="12.262754239427963"><ele>22.0</ele><time>2026-04-18T09:07:57.983Z</time></trkpt><trkpt lat="44.16802561699892" lon="12.26256120358518"><ele>22.5</ele><time>2026-04-18T09:07:58.983Z</time></trkpt><trkpt lat="44.16801992653239" lon="12.26236875907325"><ele>23.0</ele><time>2026-04-18T09:07:59.983Z</time></trkpt><trkpt lat="44.16800720617392" lon="12.262177198494262"><ele>23.5</ele><time>2026-04-18T09:08:00.983Z</time></trkpt><trkpt lat="44.16799491409532" lon="12.26198925012245"><ele>24.0</ele><time>2026-04-18T09:08:01.983Z</time></trkpt><trkpt lat="44.167987604830024" lon="12.2617930996658"><ele>24.25</ele><time>2026-04-18T09:08:02.983Z</time></trkpt><trkpt lat="44.16797702719884" lon="12.261591047103547"><ele>24.5</ele><time>2026-04-18T09:08:03.983Z</time></trkpt><trkpt lat="44.1679669501778" lon="12.261388357794639"><ele>24.75</ele><time>2026-04-18T09:08:04.983Z</time></trkpt><trkpt lat="44.1679526736691" lon="12.26117766695537"><ele>25.0</ele><time>2026-04-18T09:08:05.983Z</time></trkpt><trkpt lat="44.167941359819935" lon="12.26096294039939"><ele>25.0</ele><time>2026-04-18T09:08:06.983Z</time></trkpt><trkpt lat="44.16793076105528" lon="12.260745619452834"><ele>25.0</ele><time>2026-04-18T09:08:07.983Z</time></trkpt><trkpt lat="44.16791977451724" lon="12.260513951645759"><ele>25.0</ele><time>2026-04-18T09:08:08.983Z</time></trkpt><trkpt lat="44.16790385033338" lon="12.2602896112685"><ele>25.0</ele><time>2026-04-18T09:08:09.983Z</time></trkpt><trkpt lat="44.167893751427144" lon="12.260066708862668"><ele>25.0</ele><time>2026-04-18T09:08:10.983Z</time></trkpt><trkpt lat="44.16788577790677" lon="12.25984569315887"><ele>25.0</ele><time>2026-04-18T09:08:11.983Z</time></trkpt><trkpt lat="44.1678735145156" lon="12.259635594454936"><ele>24.333333333333336</ele><time>2026-04-18T09:08:12.983Z</time></trkpt><trkpt lat="44.16785894852465" lon="12.259418427868779"><ele>23.666666666666668</ele><time>2026-04-18T09:08:13.983Z</time></trkpt><trkpt lat="44.1678462194774" lon="12.259207971581018"><ele>23.0</ele><time>2026-04-18T09:08:14.983Z</time></trkpt><trkpt lat="44.167831303165165" lon="12.258993818055982"><ele>23.0</ele><time>2026-04-18T09:08:15.983Z</time></trkpt><trkpt lat="44.16781293523573" lon="12.25877238578331"><ele>23.0</ele><time>2026-04-18T09:08:16.983Z</time></trkpt><trkpt lat="44.16779945147139" lon="12.258563081458599"><ele>23.0</ele><time>2026-04-18T09:08:17.983Z</time></trkpt><trkpt lat="44.1677839943797" lon="12.258352289659108"><ele>23.0</ele><time>2026-04-18T09:08:18.983Z</time></trkpt><trkpt lat="44.167765763489356" lon="12.25814161242007"><ele>23.0</ele><time>2026-04-18T09:08:19.983Z</time></trkpt><trkpt lat="44.16774766610902" lon="12.257932623647166"><ele>23.0</ele><time>2026-04-18T09:08:20.983Z</time></trkpt><trkpt lat="44.16772717838278" lon="12.257716953279484"><ele>23.333333333333336</ele><time>2026-04-18T09:08:21.983Z</time></trkpt><trkpt lat="44.167705486115494" lon="12.257508701273164"><ele>23.666666666666668</ele><time>2026-04-18T09:08:22.983Z</time></trkpt><trkpt lat="44.16767877499963" lon="12.257301680921001"><ele>24.0</ele><time>2026-04-18T09:08:23.983Z</time></trkpt><trkpt lat="44.16765337977642" lon="12.257095629370852"><ele>24.333333333333336</ele><time>2026-04-18T09:08:24.983Z</time></trkpt><trkpt lat="44.16762266521235" lon="12.25688051408055"><ele>24.666666666666668</ele><time>2026-04-18T09:08:25.983Z</time></trkpt><trkpt lat="44.167593461351125" lon="12.256680775526794"><ele>25.0</ele><time>2026-04-18T09:08:26.983Z</time></trkpt><trkpt lat="44.167567409030575" lon="12.25647120401426"><ele>25.0</ele><time>2026-04-18T09:08:27.983Z</time></trkpt><trkpt lat="44.167542045274715" lon="12.256265580610048"><ele>25.0</ele><time>2026-04-18T09:08:28.983Z</time></trkpt><trkpt lat="44.167516965362786" lon="12.25606215936634"><ele>25.0</ele><time>2026-04-18T09:08:29.983Z</time></trkpt><trkpt lat="44.16748864892294" lon="12.25585417913978"><ele>25.0</ele><time>2026-04-18T09:08:30.983Z</time></trkpt><trkpt lat="44.16746088214104" lon="12.255655125634561"><ele>25.0</ele><time>2026-04-18T09:08:31.983Z</time></trkpt><trkpt lat="44.167437924816014" lon="12.255459362875447"><ele>25.0</ele><time>2026-04-18T09:08:32.983Z</time></trkpt><trkpt lat="44.167416219334775" lon="12.255276306509126"><ele>25.0</ele><time>2026-04-18T09:08:33.983Z</time></trkpt><trkpt lat="44.16739727884114" lon="12.255083694232356"><ele>25.0</ele><time>2026-04-18T09:08:34.983Z</time></trkpt><trkpt lat="44.16736720481031" lon="12.25488857645628"><ele>25.0</ele><time>2026-04-18T09:08:35.983Z</time></trkpt><trkpt lat="44.167344057077145" lon="12.254679187067037"><ele>25.0</ele><time>2026-04-18T09:08:36.983Z</time></trkpt><trkpt lat="44.16731354381345" lon="12.254467526602236"><ele>25.333333333333336</ele><time>2026-04-18T09:08:37.983Z</time></trkpt><trkpt lat="44.16728267056194" lon="12.254249108012912"><ele>25.666666666666664</ele><time>2026-04-18T09:08:38.983Z</time></trkpt><trkpt lat="44.167267331229134" lon="12.254036383357969"><ele>26.0</ele><time>2026-04-18T09:08:39.983Z</time></trkpt><trkpt lat="44.167236816985955" lon="12.253815896749565"><ele>26.666666666666664</ele><time>2026-04-18T09:08:40.983Z</time></trkpt><trkpt lat="44.16721224229032" lon="12.253603881711221"><ele>27.333333333333336</ele><time>2026-04-18T09:08:41.983Z</time></trkpt><trkpt lat="44.16718466518792" lon="12.253394684928198"><ele>28.0</ele><time>2026-04-18T09:08:42.983Z</time></trkpt><trkpt lat="44.16715754936151" lon="12.253192185955548"><ele>27.5</ele><time>2026-04-18T09:08:43.983Z</time></trkpt><trkpt lat="44.167133365026196" lon="12.2529876761725"><ele>27.0</ele><time>2026-04-18T09:08:44.983Z</time></trkpt><trkpt lat="44.167108948679584" lon="12.252795066248135"><ele>26.5</ele><time>2026-04-18T09:08:45.983Z</time></trkpt><trkpt lat="44.16708706373587" lon="12.252594266097022"><ele>26.0</ele><time>2026-04-18T09:08:46.983Z</time></trkpt><trkpt lat="44.167060891848074" lon="12.252395891865836"><ele>26.0</ele><time>2026-04-18T09:08:47.983Z</time></trkpt><trkpt lat="44.16703604235472" lon="12.252198122192842"><ele>26.0</ele><time>2026-04-18T09:08:48.983Z</time></trkpt><trkpt lat="44.16701395533629" lon="12.2519959296381"><ele>26.0</ele><time>2026-04-18T09:08:49.983Z</time></trkpt><trkpt lat="44.166987539349634" lon="12.25179599441685"><ele>26.0</ele><time>2026-04-18T09:08:50.983Z</time></trkpt><trkpt lat="44.16695278970889" lon="12.251598729925773"><ele>26.25</ele><time>2026-04-18T09:08:51.983Z</time></trkpt><trkpt lat="44.16690502882165" lon="12.251404244374928"><ele>26.5</ele><time>2026-04-18T09:08:52.983Z</time></trkpt><trkpt lat="44.16685323441313" lon="12.251210742091942"><ele>26.75</ele><time>2026-04-18T09:08:53.983Z</time></trkpt><trkpt lat="44.166788698618795" lon="12.251022166208948"><ele>27.0</ele><time>2026-04-18T09:08:54.983Z</time></trkpt><trkpt lat="44.16672427385037" lon="12.250835784045412"><ele>27.0</ele><time>2026-04-18T09:08:55.983Z</time></trkpt><trkpt lat="44.16665107304561" lon="12.250656545987173"><ele>27.0</ele><time>2026-04-18T09:08:56.983Z</time></trkpt><trkpt lat="44.1665707014144" lon="12.250485192636141"><ele>27.0</ele><time>2026-04-18T09:08:57.983Z</time></trkpt><trkpt lat="44.166487260822215" lon="12.250321329786043"><ele>27.0</ele><time>2026-04-18T09:08:58.983Z</time></trkpt><trkpt lat="44.166397576730844" lon="12.250160138097995"><ele>27.0</ele><time>2026-04-18T09:08:59.983Z</time></trkpt><trkpt lat="44.166310939311586" lon="12.250005138290295"><ele>27.0</ele><time>2026-04-18T09:09:00.983Z</time></trkpt><trkpt lat="44.166229506074444" lon="12.249853392081532"><ele>27.0</ele><time>2026-04-18T09:09:01.983Z</time></trkpt><trkpt lat="44.16614677567708" lon="12.249716609739481"><ele>27.0</ele><time>2026-04-18T09:09:02.983Z</time></trkpt><trkpt lat="44.16608355090994" lon="12.24957668771134"><ele>26.5</ele><time>2026-04-18T09:09:03.983Z</time></trkpt><trkpt lat="44.16600772595849" lon="12.249435889071956"><ele>26.0</ele><time>2026-04-18T09:09:04.983Z</time></trkpt><trkpt lat="44.16592811562838" lon="12.249286564375456"><ele>25.5</ele><time>2026-04-18T09:09:05.983Z</time></trkpt><trkpt lat="44.16584933520372" lon="12.249128238368144"><ele>25.0</ele><time>2026-04-18T09:09:06.983Z</time></trkpt><trkpt lat="44.16576198190719" lon="12.24896926340461"><ele>25.5</ele><time>2026-04-18T09:09:07.983Z</time></trkpt><trkpt lat="44.16567304242628" lon="12.248803558496276"><ele>26.0</ele><time>2026-04-18T09:09:08.983Z</time></trkpt><trkpt lat="44.165590900208" lon="12.248638008475025"><ele>26.5</ele><time>2026-04-18T09:09:09.983Z</time></trkpt><trkpt lat="44.16550897177234" lon="12.248473367481534"><ele>27.0</ele><time>2026-04-18T09:09:10.983Z</time></trkpt><trkpt lat="44.16541963930866" lon="12.248312904182923"><ele>27.0</ele><time>2026-04-18T09:09:11.983Z</time></trkpt><trkpt lat="44.16533027750346" lon="12.248145414317053"><ele>27.0</ele><time>2026-04-18T09:09:12.983Z</time></trkpt><trkpt lat="44.165239108276275" lon="12.247973078746066"><ele>27.0</ele><time>2026-04-18T09:09:13.983Z</time></trkpt><trkpt lat="44.16515042200859" lon="12.247805110465947"><ele>27.0</ele><time>2026-04-18T09:09:14.983Z</time></trkpt><trkpt lat="44.16505605538528" lon="12.247634212114292"><ele>27.0</ele><time>2026-04-18T09:09:15.983Z</time></trkpt><trkpt lat="44.16496581992213" lon="12.2474582262557"><ele>27.0</ele><time>2026-04-18T09:09:16.983Z</time></trkpt><trkpt lat="44.164870581793316" lon="12.247277653779857"><ele>27.0</ele><time>2026-04-18T09:09:17.983Z</time></trkpt><trkpt lat="44.16477828908101" lon="12.247098937555844"><ele>27.0</ele><time>2026-04-18T09:09:18.983Z</time></trkpt><trkpt lat="44.16468749668686" lon="12.246930974654155"><ele>27.0</ele><time>2026-04-18T09:09:19.983Z</time></trkpt><trkpt lat="44.164598923256946" lon="12.246768535374995"><ele>27.0</ele><time>2026-04-18T09:09:20.984Z</time></trkpt><trkpt lat="44.16451162260858" lon="12.24660379723785"><ele>27.0</ele><time>2026-04-18T09:09:21.984Z</time></trkpt><trkpt lat="44.16442318479357" lon="12.246441285098317"><ele>27.0</ele><time>2026-04-18T09:09:22.984Z</time></trkpt><trkpt lat="44.164336384958624" lon="12.246275867696866"><ele>27.0</ele><time>2026-04-18T09:09:23.984Z</time></trkpt><trkpt lat="44.16425039477545" lon="12.246109591826214"><ele>27.0</ele><time>2026-04-18T09:09:24.983Z</time></trkpt><trkpt lat="44.16416555168167" lon="12.245938766483558"><ele>27.0</ele><time>2026-04-18T09:09:25.983Z</time></trkpt><trkpt lat="44.16408659064967" lon="12.245786463092191"><ele>27.0</ele><time>2026-04-18T09:09:26.984Z</time></trkpt><trkpt lat="44.16402128181357" lon="12.245633198302174"><ele>27.0</ele><time>2026-04-18T09:09:27.983Z</time></trkpt><trkpt lat="44.1639600938239" lon="12.24549759024059"><ele>27.5</ele><time>2026-04-18T09:09:28.983Z</time></trkpt><trkpt lat="44.16390702812916" lon="12.245357329607709"><ele>28.0</ele><time>2026-04-18T09:09:29.984Z</time></trkpt><trkpt lat="44.163844912157494" lon="12.245222311987494"><ele>28.5</ele><time>2026-04-18T09:09:30.984Z</time></trkpt><trkpt lat="44.163787522132864" lon="12.245056062887882"><ele>29.0</ele><time>2026-04-18T09:09:31.984Z</time></trkpt><trkpt lat="44.163725589315696" lon="12.244893141787491"><ele>28.75</ele><time>2026-04-18T09:09:32.983Z</time></trkpt><trkpt lat="44.16366899662401" lon="12.244726757718318"><ele>28.5</ele><time>2026-04-18T09:09:33.983Z</time></trkpt><trkpt lat="44.16361659700984" lon="12.244582823364885"><ele>28.25</ele><time>2026-04-18T09:09:34.983Z</time></trkpt><trkpt lat="44.16356114806037" lon="12.24443588296289"><ele>28.0</ele><time>2026-04-18T09:09:35.983Z</time></trkpt><trkpt lat="44.163509515794324" lon="12.244259552499363"><ele>28.0</ele><time>2026-04-18T09:09:36.983Z</time></trkpt><trkpt lat="44.16347208172808" lon="12.244097166267641"><ele>27.999999999999996</ele><time>2026-04-18T09:09:37.983Z</time></trkpt><trkpt lat="44.16343166882452" lon="12.243940347617581"><ele>27.999999999999996</ele><time>2026-04-18T09:09:38.983Z</time></trkpt><trkpt lat="44.16340308032638" lon="12.243795121971377"><ele>28.0</ele><time>2026-04-18T09:09:39.983Z</time></trkpt><trkpt lat="44.16338093237387" lon="12.243665661290441"><ele>28.0</ele><time>2026-04-18T09:09:40.983Z</time></trkpt><trkpt lat="44.16336864038291" lon="12.24355430466465"><ele>28.166666666666668</ele><time>2026-04-18T09:09:41.983Z</time></trkpt><trkpt lat="44.163356547163886" lon="12.243443528925942"><ele>28.333333333333336</ele><time>2026-04-18T09:09:42.983Z</time></trkpt><trkpt lat="44.16335584809516" lon="12.24334638165519"><ele>28.5</ele><time>2026-04-18T09:09:43.983Z</time></trkpt><trkpt lat="44.16334913952054" lon="12.2432541095561"><ele>28.666666666666664</ele><time>2026-04-18T09:09:44.983Z</time></trkpt><trkpt lat="44.16335378407541" lon="12.2431230467353"><ele>28.833333333333332</ele><time>2026-04-18T09:09:46.983Z</time></trkpt><trkpt lat="44.16336207627451" lon="12.243004235948229"><ele>29.0</ele><time>2026-04-18T09:09:49.983Z</time></trkpt><trkpt lat="44.163411944220016" lon="12.242870710709882"><ele>28.666666666666664</ele><time>2026-04-18T09:09:55.983Z</time></trkpt><trkpt lat="44.163502194596155" lon="12.242727944035767"><ele>28.333333333333332</ele><time>2026-04-18T09:09:57.983Z</time></trkpt><trkpt lat="44.16356851389432" lon="12.242696737463822"><ele>28.0</ele><time>2026-04-18T09:09:58.983Z</time></trkpt><trkpt lat="44.163636815999396" lon="12.242686878412783"><ele>27.666666666666664</ele><time>2026-04-18T09:09:59.983Z</time></trkpt><trkpt lat="44.163719647615316" lon="12.242699511993164"><ele>27.333333333333332</ele><time>2026-04-18T09:10:00.983Z</time></trkpt><trkpt lat="44.163809307625534" lon="12.242717435505842"><ele>27.0</ele><time>2026-04-18T09:10:01.983Z</time></trkpt><trkpt lat="44.163892416781074" lon="12.242724104383523"><ele>27.0</ele><time>2026-04-18T09:10:02.983Z</time></trkpt><trkpt lat="44.163976925399545" lon="12.242714004885682"><ele>27.000000000000004</ele><time>2026-04-18T09:10:03.983Z</time></trkpt><trkpt lat="44.16406783829067" lon="12.242717268471619"><ele>27.000000000000004</ele><time>2026-04-18T09:10:04.983Z</time></trkpt><trkpt lat="44.16416157976473" lon="12.242723200699508"><ele>27.0</ele><time>2026-04-18T09:10:05.983Z</time></trkpt><trkpt lat="44.164266489220815" lon="12.242721603147217"><ele>27.0</ele><time>2026-04-18T09:10:06.983Z</time></trkpt><trkpt lat="44.164368919436626" lon="12.24272008926902"><ele>27.0</ele><time>2026-04-18T09:10:07.983Z</time></trkpt><trkpt lat="44.16447294888461" lon="12.242714199673893"><ele>27.0</ele><time>2026-04-18T09:10:08.983Z</time></trkpt><trkpt lat="44.1645812860167" lon="12.242712827552518"><ele>27.0</ele><time>2026-04-18T09:10:09.983Z</time></trkpt><trkpt lat="44.16469655473952" lon="12.242713435717372"><ele>27.0</ele><time>2026-04-18T09:10:10.983Z</time></trkpt><trkpt lat="44.16482014258917" lon="12.242716372732929"><ele>26.75</ele><time>2026-04-18T09:10:11.983Z</time></trkpt><trkpt lat="44.164938217028556" lon="12.242731941982873"><ele>26.5</ele><time>2026-04-18T09:10:12.983Z</time></trkpt><trkpt lat="44.16506638922247" lon="12.24274030766582"><ele>26.25</ele><time>2026-04-18T09:10:13.983Z</time></trkpt><trkpt lat="44.165195723006505" lon="12.242748958007304"><ele>26.0</ele><time>2026-04-18T09:10:14.983Z</time></trkpt><trkpt lat="44.16533021433841" lon="12.242757375175893"><ele>26.0</ele><time>2026-04-18T09:10:15.983Z</time></trkpt><trkpt lat="44.165468026487844" lon="12.242757856420434"><ele>26.0</ele><time>2026-04-18T09:10:16.983Z</time></trkpt><trkpt lat="44.165600419852495" lon="12.242756867971817"><ele>26.0</ele><time>2026-04-18T09:10:17.983Z</time></trkpt><trkpt lat="44.165742258143766" lon="12.24275091636326"><ele>26.0</ele><time>2026-04-18T09:10:18.983Z</time></trkpt><trkpt lat="44.165873986110405" lon="12.242739483085876"><ele>25.75</ele><time>2026-04-18T09:10:19.982Z</time></trkpt><trkpt lat="44.165998829411386" lon="12.242718669698986"><ele>25.5</ele><time>2026-04-18T09:10:20.982Z</time></trkpt><trkpt lat="44.16611094107743" lon="12.242684538599741"><ele>25.25</ele><time>2026-04-18T09:10:21.982Z</time></trkpt><trkpt lat="44.16621262357494" lon="12.242654586353721"><ele>25.0</ele><time>2026-04-18T09:10:22.982Z</time></trkpt><trkpt lat="44.16631567148157" lon="12.242616091452858"><ele>25.000000000000004</ele><time>2026-04-18T09:10:23.982Z</time></trkpt><trkpt lat="44.1664122530047" lon="12.242577575677535"><ele>25.0</ele><time>2026-04-18T09:10:24.982Z</time></trkpt><trkpt lat="44.166499201042285" lon="12.242545478743622"><ele>25.0</ele><time>2026-04-18T09:10:25.982Z</time></trkpt><trkpt lat="44.166584095173995" lon="12.242507430804165"><ele>25.0</ele><time>2026-04-18T09:10:26.982Z</time></trkpt><trkpt lat="44.166657629247545" lon="12.2424678742337"><ele>25.000000000000004</ele><time>2026-04-18T09:10:27.982Z</time></trkpt><trkpt lat="44.16673178656947" lon="12.242424910096092"><ele>25.0</ele><time>2026-04-18T09:10:28.982Z</time></trkpt><trkpt lat="44.166793303725605" lon="12.24237282005839"><ele>25.2</ele><time>2026-04-18T09:10:29.982Z</time></trkpt><trkpt lat="44.16685654226075" lon="12.242329952219036"><ele>25.4</ele><time>2026-04-18T09:10:30.982Z</time></trkpt><trkpt lat="44.16694510233624" lon="12.242244950683624"><ele>25.6</ele><time>2026-04-18T09:10:32.982Z</time></trkpt><trkpt lat="44.16701231198641" lon="12.242193045018233"><ele>25.8</ele><time>2026-04-18T09:10:34.982Z</time></trkpt><trkpt lat="44.167092601172556" lon="12.242125902042678"><ele>26.0</ele><time>2026-04-18T09:10:36.982Z</time></trkpt><trkpt lat="44.16720794827152" lon="12.242097599958752"><ele>26.0</ele><time>2026-04-18T09:10:38.982Z</time></trkpt><trkpt lat="44.16727073170513" lon="12.24210408404345"><ele>26.0</ele><time>2026-04-18T09:10:39.982Z</time></trkpt><trkpt lat="44.1673473081837" lon="12.242122083325267"><ele>26.0</ele><time>2026-04-18T09:10:40.982Z</time></trkpt><trkpt lat="44.167429557366766" lon="12.242114415128297"><ele>26.0</ele><time>2026-04-18T09:10:41.982Z</time></trkpt><trkpt lat="44.16749506780696" lon="12.242090019657644"><ele>26.0</ele><time>2026-04-18T09:10:42.982Z</time></trkpt><trkpt lat="44.16756175638545" lon="12.242044921462195"><ele>26.0</ele><time>2026-04-18T09:10:43.982Z</time></trkpt><trkpt lat="44.16761698507996" lon="12.24197819298007"><ele>26.0</ele><time>2026-04-18T09:10:44.982Z</time></trkpt><trkpt lat="44.16764198719088" lon="12.241884670226412"><ele>26.166666666666664</ele><time>2026-04-18T09:10:45.982Z</time></trkpt><trkpt lat="44.167656999554765" lon="12.241767769081708"><ele>26.333333333333332</ele><time>2026-04-18T09:10:46.982Z</time></trkpt><trkpt lat="44.16765696849316" lon="12.241656977482139"><ele>26.5</ele><time>2026-04-18T09:10:47.982Z</time></trkpt><trkpt lat="44.167660524891275" lon="12.24152503318482"><ele>26.666666666666664</ele><time>2026-04-18T09:10:48.982Z</time></trkpt><trkpt lat="44.16768127462176" lon="12.241413651052138"><ele>26.833333333333332</ele><time>2026-04-18T09:10:49.982Z</time></trkpt><trkpt lat="44.167697614009484" lon="12.241295402060219"><ele>27.0</ele><time>2026-04-18T09:10:50.982Z</time></trkpt><trkpt lat="44.16777740325834" lon="12.241199038928363"><ele>26.5</ele><time>2026-04-18T09:10:51.982Z</time></trkpt><trkpt lat="44.16784073463638" lon="12.241076027750031"><ele>26.0</ele><time>2026-04-18T09:10:52.982Z</time></trkpt><trkpt lat="44.16790910763132" lon="12.240938473084354"><ele>25.5</ele><time>2026-04-18T09:10:53.982Z</time></trkpt><trkpt lat="44.167965763214035" lon="12.240787701967655"><ele>25.0</ele><time>2026-04-18T09:10:54.982Z</time></trkpt><trkpt lat="44.1680226288471" lon="12.24062102254165"><ele>24.75</ele><time>2026-04-18T09:10:55.982Z</time></trkpt><trkpt lat="44.168078510340045" lon="12.240435348180142"><ele>24.5</ele><time>2026-04-18T09:10:56.982Z</time></trkpt><trkpt lat="44.16812984363802" lon="12.240259138466445"><ele>24.25</ele><time>2026-04-18T09:10:57.982Z</time></trkpt><trkpt lat="44.16817207069737" lon="12.24008143761415"><ele>24.0</ele><time>2026-04-18T09:10:58.982Z</time></trkpt><trkpt lat="44.16823492806586" lon="12.239908075589288"><ele>24.333333333333336</ele><time>2026-04-18T09:10:59.982Z</time></trkpt><trkpt lat="44.1682722089889" lon="12.239705969069623"><ele>24.666666666666668</ele><time>2026-04-18T09:11:00.982Z</time></trkpt><trkpt lat="44.16830826834522" lon="12.239507029536743"><ele>25.0</ele><time>2026-04-18T09:11:01.982Z</time></trkpt><trkpt lat="44.16833284602098" lon="12.239293849527149"><ele>25.0</ele><time>2026-04-18T09:11:02.982Z</time></trkpt><trkpt lat="44.168352586747794" lon="12.239096544043083"><ele>25.0</ele><time>2026-04-18T09:11:03.982Z</time></trkpt><trkpt lat="44.16837731260515" lon="12.238881934099325"><ele>25.0</ele><time>2026-04-18T09:11:04.982Z</time></trkpt><trkpt lat="44.16840220243721" lon="12.238673790710582"><ele>24.75</ele><time>2026-04-18T09:11:05.982Z</time></trkpt><trkpt lat="44.168429743565625" lon="12.238463935848717"><ele>24.5</ele><time>2026-04-18T09:11:06.982Z</time></trkpt><trkpt lat="44.1684529418182" lon="12.238262689586827"><ele>24.25</ele><time>2026-04-18T09:11:07.982Z</time></trkpt><trkpt lat="44.168477226123535" lon="12.238066284735389"><ele>24.0</ele><time>2026-04-18T09:11:08.982Z</time></trkpt><trkpt lat="44.168497774732515" lon="12.237869073138425"><ele>23.5</ele><time>2026-04-18T09:11:09.982Z</time></trkpt><trkpt lat="44.168519297256005" lon="12.237673745363471"><ele>23.0</ele><time>2026-04-18T09:11:10.982Z</time></trkpt><trkpt lat="44.16854343805665" lon="12.23747005070902"><ele>22.5</ele><time>2026-04-18T09:11:11.982Z</time></trkpt><trkpt lat="44.168569734782224" lon="12.237272735649634"><ele>22.0</ele><time>2026-04-18T09:11:12.982Z</time></trkpt><trkpt lat="44.168594093115516" lon="12.237074065687546"><ele>22.0</ele><time>2026-04-18T09:11:13.982Z</time></trkpt><trkpt lat="44.16861216436457" lon="12.236872649145669"><ele>22.0</ele><time>2026-04-18T09:11:14.982Z</time></trkpt><trkpt lat="44.16863760364534" lon="12.236670216439732"><ele>22.0</ele><time>2026-04-18T09:11:15.982Z</time></trkpt><trkpt lat="44.168661240342615" lon="12.236471894374063"><ele>22.0</ele><time>2026-04-18T09:11:16.982Z</time></trkpt><trkpt lat="44.168683942724066" lon="12.236272236837197"><ele>23.0</ele><time>2026-04-18T09:11:17.982Z</time></trkpt><trkpt lat="44.16871310986889" lon="12.236073326290589"><ele>24.0</ele><time>2026-04-18T09:11:18.982Z</time></trkpt><trkpt lat="44.16874731547665" lon="12.23586631522044"><ele>25.0</ele><time>2026-04-18T09:11:19.982Z</time></trkpt><trkpt lat="44.168770594082226" lon="12.235660253162"><ele>26.0</ele><time>2026-04-18T09:11:20.982Z</time></trkpt><trkpt lat="44.16880690538353" lon="12.23545391948837"><ele>26.0</ele><time>2026-04-18T09:11:21.982Z</time></trkpt><trkpt lat="44.168853588999795" lon="12.235257063700224"><ele>26.0</ele><time>2026-04-18T09:11:22.982Z</time></trkpt><trkpt lat="44.16891668204663" lon="12.235065419268459"><ele>26.0</ele><time>2026-04-18T09:11:23.982Z</time></trkpt><trkpt lat="44.16898027196296" lon="12.234877239269407"><ele>26.0</ele><time>2026-04-18T09:11:24.982Z</time></trkpt><trkpt lat="44.1690531781197" lon="12.234694044298697"><ele>26.0</ele><time>2026-04-18T09:11:25.982Z</time></trkpt><trkpt lat="44.16913517231707" lon="12.234513596603852"><ele>26.0</ele><time>2026-04-18T09:11:26.983Z</time></trkpt><trkpt lat="44.16922377256792" lon="12.234334749892135"><ele>26.0</ele><time>2026-04-18T09:11:27.983Z</time></trkpt><trkpt lat="44.16931895216763" lon="12.23415957866721"><ele>26.0</ele><time>2026-04-18T09:11:28.983Z</time></trkpt><trkpt lat="44.169421526514476" lon="12.23399214363363"><ele>26.0</ele><time>2026-04-18T09:11:29.982Z</time></trkpt><trkpt lat="44.169528461419766" lon="12.23383617887236"><ele>26.0</ele><time>2026-04-18T09:11:30.983Z</time></trkpt><trkpt lat="44.16964279781216" lon="12.233680924674575"><ele>26.0</ele><time>2026-04-18T09:11:31.983Z</time></trkpt><trkpt lat="44.16976220888751" lon="12.233531293834474"><ele>26.0</ele><time>2026-04-18T09:11:32.983Z</time></trkpt><trkpt lat="44.16987624443659" lon="12.233383479608072"><ele>26.0</ele><time>2026-04-18T09:11:33.982Z</time></trkpt><trkpt lat="44.16999933349927" lon="12.233219213396836"><ele>26.0</ele><time>2026-04-18T09:11:34.982Z</time></trkpt><trkpt lat="44.17012028538668" lon="12.233061931463174"><ele>26.0</ele><time>2026-04-18T09:11:35.983Z</time></trkpt><trkpt lat="44.17024769713124" lon="12.232903879686367"><ele>26.0</ele><time>2026-04-18T09:11:36.983Z</time></trkpt><trkpt lat="44.170371448756114" lon="12.232754108572786"><ele>26.0</ele><time>2026-04-18T09:11:37.983Z</time></trkpt><trkpt lat="44.170485043988414" lon="12.23261049691935"><ele>26.0</ele><time>2026-04-18T09:11:38.983Z</time></trkpt><trkpt lat="44.17059446933702" lon="12.232451251217103"><ele>26.0</ele><time>2026-04-18T09:11:39.983Z</time></trkpt><trkpt lat="44.17070480271608" lon="12.232304866889123"><ele>26.0</ele><time>2026-04-18T09:11:40.983Z</time></trkpt><trkpt lat="44.17080663981838" lon="12.232163404305622"><ele>26.0</ele><time>2026-04-18T09:11:41.983Z</time></trkpt><trkpt lat="44.17090825624241" lon="12.232021357621688"><ele>26.0</ele><time>2026-04-18T09:11:42.983Z</time></trkpt><trkpt lat="44.17101417406898" lon="12.231869322536708"><ele>26.0</ele><time>2026-04-18T09:11:43.983Z</time></trkpt><trkpt lat="44.17112231484889" lon="12.23171480261369"><ele>26.0</ele><time>2026-04-18T09:11:44.983Z</time></trkpt><trkpt lat="44.171223829627095" lon="12.23155747564503"><ele>26.0</ele><time>2026-04-18T09:11:45.983Z</time></trkpt><trkpt lat="44.17131287374842" lon="12.23140176081353"><ele>26.0</ele><time>2026-04-18T09:11:46.983Z</time></trkpt><trkpt lat="44.17140063659014" lon="12.23124420456635"><ele>26.0</ele><time>2026-04-18T09:11:47.983Z</time></trkpt><trkpt lat="44.17148002592441" lon="12.231087695420975"><ele>26.0</ele><time>2026-04-18T09:11:48.983Z</time></trkpt><trkpt lat="44.17155955860378" lon="12.230931596697586"><ele>26.0</ele><time>2026-04-18T09:11:49.983Z</time></trkpt><trkpt lat="44.17163244597152" lon="12.230757538718521"><ele>26.0</ele><time>2026-04-18T09:11:50.983Z</time></trkpt><trkpt lat="44.171697247412084" lon="12.230583523660213"><ele>26.0</ele><time>2026-04-18T09:11:51.983Z</time></trkpt><trkpt lat="44.171758231414344" lon="12.230404031798265"><ele>26.0</ele><time>2026-04-18T09:11:52.983Z</time></trkpt><trkpt lat="44.17182247544406" lon="12.23022390182586"><ele>26.0</ele><time>2026-04-18T09:11:53.983Z</time></trkpt><trkpt lat="44.17189008659895" lon="12.230034815297731"><ele>26.0</ele><time>2026-04-18T09:11:54.983Z</time></trkpt><trkpt lat="44.171959899986284" lon="12.229835063144598"><ele>26.333333333333332</ele><time>2026-04-18T09:11:55.982Z</time></trkpt><trkpt lat="44.17203045430081" lon="12.229643236937047"><ele>26.666666666666664</ele><time>2026-04-18T09:11:56.982Z</time></trkpt><trkpt lat="44.17210163363314" lon="12.229433523547707"><ele>27.0</ele><time>2026-04-18T09:11:57.982Z</time></trkpt><trkpt lat="44.17217297294024" lon="12.229234976068302"><ele>27.0</ele><time>2026-04-18T09:11:58.982Z</time></trkpt><trkpt lat="44.17223939058825" lon="12.229030311299342"><ele>27.0</ele><time>2026-04-18T09:11:59.982Z</time></trkpt><trkpt lat="44.17230886066623" lon="12.228833373997015"><ele>27.0</ele><time>2026-04-18T09:12:00.982Z</time></trkpt><trkpt lat="44.172375638274765" lon="12.228644967839942"><ele>27.0</ele><time>2026-04-18T09:12:01.982Z</time></trkpt><trkpt lat="44.17244358748356" lon="12.228455069740454"><ele>27.0</ele><time>2026-04-18T09:12:02.982Z</time></trkpt><trkpt lat="44.17251103981312" lon="12.22826487042842"><ele>27.0</ele><time>2026-04-18T09:12:03.982Z</time></trkpt><trkpt lat="44.17257778436931" lon="12.228068064641866"><ele>27.0</ele><time>2026-04-18T09:12:04.982Z</time></trkpt><trkpt lat="44.17264866214609" lon="12.227867426188448"><ele>27.0</ele><time>2026-04-18T09:12:05.982Z</time></trkpt><trkpt lat="44.17271936613976" lon="12.227670738513018"><ele>27.0</ele><time>2026-04-18T09:12:06.982Z</time></trkpt><trkpt lat="44.172788838995025" lon="12.22746981492064"><ele>27.333333333333336</ele><time>2026-04-18T09:12:07.982Z</time></trkpt><trkpt lat="44.172857939289415" lon="12.227269932287559"><ele>27.666666666666668</ele><time>2026-04-18T09:12:08.982Z</time></trkpt><trkpt lat="44.17292311951999" lon="12.227073091080364"><ele>28.0</ele><time>2026-04-18T09:12:09.982Z</time></trkpt><trkpt lat="44.172986221629756" lon="12.226888219921294"><ele>28.0</ele><time>2026-04-18T09:12:10.982Z</time></trkpt><trkpt lat="44.1730422512982" lon="12.226715260686847"><ele>28.0</ele><time>2026-04-18T09:12:11.982Z</time></trkpt><trkpt lat="44.173098057332346" lon="12.22654601411601"><ele>28.0</ele><time>2026-04-18T09:12:12.982Z</time></trkpt><trkpt lat="44.17315874644878" lon="12.226388086646976"><ele>28.0</ele><time>2026-04-18T09:12:13.982Z</time></trkpt><trkpt lat="44.17321795056952" lon="12.22621718964691"><ele>27.75</ele><time>2026-04-18T09:12:14.982Z</time></trkpt><trkpt lat="44.17327441489419" lon="12.22605712034571"><ele>27.5</ele><time>2026-04-18T09:12:15.982Z</time></trkpt><trkpt lat="44.173332983144235" lon="12.225902603112251"><ele>27.25</ele><time>2026-04-18T09:12:16.982Z</time></trkpt><trkpt lat="44.17338785654396" lon="12.22575375385616"><ele>27.0</ele><time>2026-04-18T09:12:17.982Z</time></trkpt><trkpt lat="44.17343695588018" lon="12.22562296161359"><ele>27.0</ele><time>2026-04-18T09:12:18.982Z</time></trkpt><trkpt lat="44.173479008813366" lon="12.225522433048708"><ele>27.0</ele><time>2026-04-18T09:12:19.982Z</time></trkpt><trkpt lat="44.17351626075757" lon="12.225442581215956"><ele>27.0</ele><time>2026-04-18T09:12:20.982Z</time></trkpt><trkpt lat="44.17359506846123" lon="12.22534051370754"><ele>27.0</ele><time>2026-04-18T09:12:22.982Z</time></trkpt><trkpt lat="44.17368446363659" lon="12.225330916544944"><ele>27.0</ele><time>2026-04-18T09:12:24.982Z</time></trkpt><trkpt lat="44.17375773975195" lon="12.225391818954396"><ele>27.0</ele><time>2026-04-18T09:12:26.982Z</time></trkpt><trkpt lat="44.17384457319499" lon="12.225418624521987"><ele>27.0</ele><time>2026-04-18T09:12:28.982Z</time></trkpt><trkpt lat="44.173882784405826" lon="12.225331632227455"><ele>27.000000000000004</ele><time>2026-04-18T09:12:30.982Z</time></trkpt><trkpt lat="44.17380526802532" lon="12.22523679428404"><ele>27.000000000000004</ele><time>2026-04-18T09:12:34.982Z</time></trkpt><trkpt lat="44.17377164811302" lon="12.225152250920312"><ele>27.0</ele><time>2026-04-18T09:12:37.982Z</time></trkpt><trkpt lat="44.173856787138114" lon="12.225264110744634"><ele>27.0</ele><time>2026-04-18T09:13:00.982Z</time></trkpt><trkpt lat="44.17374269659585" lon="12.225150710200298"><ele>27.0</ele><time>2026-04-18T09:13:12.982Z</time></trkpt><trkpt lat="44.173869463775254" lon="12.225276710715878"><ele>27.0</ele><time>2026-04-18T09:13:17.982Z</time></trkpt><trkpt lat="44.17374269659585" lon="12.225150710200298"><ele>27.0</ele><time>2026-04-18T09:14:03.982Z</time></trkpt><trkpt lat="44.17386946389068" lon="12.225276710830613"><ele>27.0</ele><time>2026-04-18T09:14:08.982Z</time></trkpt><trkpt lat="44.17373703418527" lon="12.225181782718705"><ele>27.0</ele><time>2026-04-18T09:14:17.982Z</time></trkpt><trkpt lat="44.173857077462415" lon="12.225300766115966"><ele>27.0</ele><time>2026-04-18T09:14:20.982Z</time></trkpt><trkpt lat="44.17372041000877" lon="12.225172964572467"><ele>27.0</ele><time>2026-04-18T09:14:41.982Z</time></trkpt><trkpt lat="44.17374597399536" lon="12.225076885948095"><ele>27.000000000000004</ele><time>2026-04-18T09:18:59.982Z</time></trkpt><trkpt lat="44.17377772866563" lon="12.224944337327992"><ele>27.000000000000004</ele><time>2026-04-18T09:19:02.982Z</time></trkpt><trkpt lat="44.17382696376727" lon="12.2248405712054"><ele>27.0</ele><time>2026-04-18T09:19:04.982Z</time></trkpt><trkpt lat="44.17386559932896" lon="12.224747378749543"><ele>27.0</ele><time>2026-04-18T09:19:06.982Z</time></trkpt><trkpt lat="44.17391075262407" lon="12.224607926394517"><ele>26.833333333333332</ele><time>2026-04-18T09:19:08.982Z</time></trkpt><trkpt lat="44.173954227307355" lon="12.224485818046148"><ele>26.666666666666664</ele><time>2026-04-18T09:19:10.982Z</time></trkpt><trkpt lat="44.17399378305153" lon="12.224375803814175"><ele>26.5</ele><time>2026-04-18T09:19:12.982Z</time></trkpt><trkpt lat="44.174035054665694" lon="12.224247813605647"><ele>26.333333333333332</ele><time>2026-04-18T09:19:14.982Z</time></trkpt><trkpt lat="44.17407807260457" lon="12.224165040246364"><ele>26.166666666666664</ele><time>2026-04-18T09:19:16.982Z</time></trkpt><trkpt lat="44.174027007014736" lon="12.224071349470897"><ele>26.0</ele><time>2026-04-18T09:19:17.982Z</time></trkpt><trkpt lat="44.17403545047808" lon="12.223896831034237"><ele>25.666666666666664</ele><time>2026-04-18T09:19:19.982Z</time></trkpt><trkpt lat="44.174063898015525" lon="12.223797490755864"><ele>25.333333333333332</ele><time>2026-04-18T09:19:20.982Z</time></trkpt><trkpt lat="44.1740991181279" lon="12.223690400646094"><ele>25.0</ele><time>2026-04-18T09:19:21.982Z</time></trkpt><trkpt lat="44.17413769964435" lon="12.223562177939204"><ele>24.666666666666664</ele><time>2026-04-18T09:19:22.982Z</time></trkpt><trkpt lat="44.17417491946692" lon="12.223451555610612"><ele>24.333333333333332</ele><time>2026-04-18T09:19:23.982Z</time></trkpt><trkpt lat="44.17421218966027" lon="12.223349290488029"><ele>24.0</ele><time>2026-04-18T09:19:24.982Z</time></trkpt><trkpt lat="44.174247037050414" lon="12.223256133969857"><ele>24.0</ele><time>2026-04-18T09:19:25.982Z</time></trkpt><trkpt lat="44.174281060215804" lon="12.223171316026164"><ele>24.0</ele><time>2026-04-18T09:19:26.982Z</time></trkpt><trkpt lat="44.17433790463293" lon="12.223041150322535"><ele>24.0</ele><time>2026-04-18T09:19:28.982Z</time></trkpt><trkpt lat="44.1744122305513" lon="12.222935427729084"><ele>24.0</ele><time>2026-04-18T09:19:30.982Z</time></trkpt><trkpt lat="44.174468999501244" lon="12.222882215322045"><ele>24.0</ele><time>2026-04-18T09:19:31.982Z</time></trkpt><trkpt lat="44.174515865548884" lon="12.222813859079464"><ele>24.0</ele><time>2026-04-18T09:19:32.982Z</time></trkpt><trkpt lat="44.17456305412827" lon="12.22265678164908"><ele>24.0</ele><time>2026-04-18T09:19:34.982Z</time></trkpt><trkpt lat="44.17453955489512" lon="12.222542292819456"><ele>24.0</ele><time>2026-04-18T09:19:35.982Z</time></trkpt><trkpt lat="44.17454509333264" lon="12.222426190778902"><ele>24.0</ele><time>2026-04-18T09:19:36.982Z</time></trkpt><trkpt lat="44.174590046593" lon="12.222318196623023"><ele>24.0</ele><time>2026-04-18T09:19:37.982Z</time></trkpt><trkpt lat="44.17461399266841" lon="12.222194941257085"><ele>24.0</ele><time>2026-04-18T09:19:38.982Z</time></trkpt><trkpt lat="44.17465596967239" lon="12.222072303143902"><ele>24.0</ele><time>2026-04-18T09:19:39.982Z</time></trkpt><trkpt lat="44.17469766372702" lon="12.221951850394692"><ele>24.0</ele><time>2026-04-18T09:19:40.982Z</time></trkpt><trkpt lat="44.17474288248997" lon="12.221830087442093"><ele>24.0</ele><time>2026-04-18T09:19:41.982Z</time></trkpt><trkpt lat="44.174788432917836" lon="12.221697536450188"><ele>24.0</ele><time>2026-04-18T09:19:42.982Z</time></trkpt><trkpt lat="44.174839195223186" lon="12.221566524143265"><ele>24.0</ele><time>2026-04-18T09:19:43.982Z</time></trkpt><trkpt lat="44.174884556814746" lon="12.221426839215647"><ele>24.0</ele><time>2026-04-18T09:19:44.982Z</time></trkpt><trkpt lat="44.17492478561132" lon="12.221280494084308"><ele>24.5</ele><time>2026-04-18T09:19:45.982Z</time></trkpt><trkpt lat="44.17496772211248" lon="12.221127458517174"><ele>25.0</ele><time>2026-04-18T09:19:46.982Z</time></trkpt><trkpt lat="44.175011338334905" lon="12.220965982403548"><ele>25.5</ele><time>2026-04-18T09:19:47.982Z</time></trkpt><trkpt lat="44.175053587672046" lon="12.220806989224794"><ele>26.0</ele><time>2026-04-18T09:19:48.982Z</time></trkpt><trkpt lat="44.17509676985077" lon="12.220648097750095"><ele>26.0</ele><time>2026-04-18T09:19:49.982Z</time></trkpt><trkpt lat="44.175142223853115" lon="12.220489120476044"><ele>26.0</ele><time>2026-04-18T09:19:50.983Z</time></trkpt><trkpt lat="44.175185168449914" lon="12.220328915094901"><ele>26.0</ele><time>2026-04-18T09:19:51.983Z</time></trkpt><trkpt lat="44.17522716928203" lon="12.220172806403022"><ele>26.0</ele><time>2026-04-18T09:19:52.982Z</time></trkpt><trkpt lat="44.17527236627823" lon="12.22002545831875"><ele>26.0</ele><time>2026-04-18T09:19:53.983Z</time></trkpt><trkpt lat="44.17531668308641" lon="12.219887675423317"><ele>26.0</ele><time>2026-04-18T09:19:54.983Z</time></trkpt><trkpt lat="44.17535739454609" lon="12.2197618524843"><ele>26.0</ele><time>2026-04-18T09:19:55.982Z</time></trkpt><trkpt lat="44.175397755829444" lon="12.219640520514544"><ele>26.0</ele><time>2026-04-18T09:19:56.983Z</time></trkpt><trkpt lat="44.17544155581501" lon="12.219543279092115"><ele>26.0</ele><time>2026-04-18T09:19:57.983Z</time></trkpt><trkpt lat="44.17548538883778" lon="12.21946390249434"><ele>25.999999999999996</ele><time>2026-04-18T09:19:58.982Z</time></trkpt><trkpt lat="44.175528731732875" lon="12.21939387230624"><ele>26.0</ele><time>2026-04-18T09:19:59.982Z</time></trkpt><trkpt lat="44.17560408791625" lon="12.219284470973868"><ele>26.0</ele><time>2026-04-18T09:20:01.982Z</time></trkpt><trkpt lat="44.17566149535232" lon="12.219157846397916"><ele>26.0</ele><time>2026-04-18T09:20:03.982Z</time></trkpt><trkpt lat="44.17571636922485" lon="12.219099998641408"><ele>25.999999999999996</ele><time>2026-04-18T09:20:04.982Z</time></trkpt><trkpt lat="44.17576701684671" lon="12.219007634204537"><ele>26.0</ele><time>2026-04-18T09:20:05.982Z</time></trkpt><trkpt lat="44.17581973380768" lon="12.218927622870432"><ele>25.666666666666664</ele><time>2026-04-18T09:20:06.982Z</time></trkpt><trkpt lat="44.17586986824739" lon="12.218840448584665"><ele>25.333333333333332</ele><time>2026-04-18T09:20:07.982Z</time></trkpt><trkpt lat="44.175931992406795" lon="12.218762706663238"><ele>25.0</ele><time>2026-04-18T09:20:08.982Z</time></trkpt><trkpt lat="44.17598384206157" lon="12.218663668577914"><ele>24.666666666666664</ele><time>2026-04-18T09:20:09.982Z</time></trkpt><trkpt lat="44.176029962200026" lon="12.218568513253132"><ele>24.333333333333332</ele><time>2026-04-18T09:20:10.982Z</time></trkpt><trkpt lat="44.17606972441656" lon="12.218455195840235"><ele>24.0</ele><time>2026-04-18T09:20:11.982Z</time></trkpt><trkpt lat="44.17611331240024" lon="12.218327686036238"><ele>24.0</ele><time>2026-04-18T09:20:12.982Z</time></trkpt><trkpt lat="44.17614889430836" lon="12.218195298410729"><ele>24.0</ele><time>2026-04-18T09:20:13.982Z</time></trkpt><trkpt lat="44.17617213646639" lon="12.218063014935655"><ele>24.0</ele><time>2026-04-18T09:20:14.982Z</time></trkpt><trkpt lat="44.17618301823591" lon="12.217907131986497"><ele>24.0</ele><time>2026-04-18T09:20:15.982Z</time></trkpt><trkpt lat="44.1761777709762" lon="12.217734580437964"><ele>24.0</ele><time>2026-04-18T09:20:16.982Z</time></trkpt><trkpt lat="44.17617691312809" lon="12.217560108746287"><ele>24.0</ele><time>2026-04-18T09:20:17.982Z</time></trkpt><trkpt lat="44.17618124034204" lon="12.217384219369412"><ele>24.0</ele><time>2026-04-18T09:20:18.982Z</time></trkpt><trkpt lat="44.1761850001411" lon="12.217203425772025"><ele>24.0</ele><time>2026-04-18T09:20:19.982Z</time></trkpt><trkpt lat="44.176182847416456" lon="12.217028338191046"><ele>24.0</ele><time>2026-04-18T09:20:20.982Z</time></trkpt><trkpt lat="44.176184593350875" lon="12.216845032190895"><ele>24.25</ele><time>2026-04-18T09:20:21.982Z</time></trkpt><trkpt lat="44.17619028274659" lon="12.21666712231173"><ele>24.5</ele><time>2026-04-18T09:20:22.982Z</time></trkpt><trkpt lat="44.17618118778921" lon="12.216501596284992"><ele>24.75</ele><time>2026-04-18T09:20:23.982Z</time></trkpt><trkpt lat="44.176213946516455" lon="12.21633095922553"><ele>25.0</ele><time>2026-04-18T09:20:24.982Z</time></trkpt><trkpt lat="44.17622499378616" lon="12.216164239108583"><ele>25.0</ele><time>2026-04-18T09:20:25.982Z</time></trkpt><trkpt lat="44.176238082887686" lon="12.215994744836214"><ele>25.0</ele><time>2026-04-18T09:20:26.982Z</time></trkpt><trkpt lat="44.17625359060875" lon="12.215830011861536"><ele>25.0</ele><time>2026-04-18T09:20:27.982Z</time></trkpt><trkpt lat="44.176273498082715" lon="12.215669813265922"><ele>25.0</ele><time>2026-04-18T09:20:28.982Z</time></trkpt><trkpt lat="44.176286590287305" lon="12.215495396970185"><ele>25.0</ele><time>2026-04-18T09:20:29.982Z</time></trkpt><trkpt lat="44.176295631416245" lon="12.215317643800303"><ele>25.0</ele><time>2026-04-18T09:20:30.982Z</time></trkpt><trkpt lat="44.17630410613657" lon="12.215150956861093"><ele>25.0</ele><time>2026-04-18T09:20:31.982Z</time></trkpt><trkpt lat="44.1763103127966" lon="12.214979680088309"><ele>25.0</ele><time>2026-04-18T09:20:32.982Z</time></trkpt><trkpt lat="44.17631082029062" lon="12.214802252960096"><ele>24.5</ele><time>2026-04-18T09:20:33.982Z</time></trkpt><trkpt lat="44.176312873931074" lon="12.214625431485775"><ele>24.0</ele><time>2026-04-18T09:20:34.982Z</time></trkpt><trkpt lat="44.17629817551903" lon="12.214438811476246"><ele>23.5</ele><time>2026-04-18T09:20:35.982Z</time></trkpt><trkpt lat="44.17628370132027" lon="12.214250326666376"><ele>23.0</ele><time>2026-04-18T09:20:36.982Z</time></trkpt><trkpt lat="44.1762595750745" lon="12.214053802347681"><ele>23.25</ele><time>2026-04-18T09:20:37.982Z</time></trkpt><trkpt lat="44.17622820696106" lon="12.213855160992109"><ele>23.5</ele><time>2026-04-18T09:20:38.982Z</time></trkpt><trkpt lat="44.1761910717" lon="12.213661979715445"><ele>23.75</ele><time>2026-04-18T09:20:39.982Z</time></trkpt><trkpt lat="44.17614885695472" lon="12.21347973104483"><ele>24.0</ele><time>2026-04-18T09:20:40.982Z</time></trkpt><trkpt lat="44.17610586718196" lon="12.213302067829432"><ele>24.25</ele><time>2026-04-18T09:20:41.982Z</time></trkpt><trkpt lat="44.176056730708154" lon="12.213133519967394"><ele>24.5</ele><time>2026-04-18T09:20:42.982Z</time></trkpt><trkpt lat="44.1760028250353" lon="12.212969927142778"><ele>24.75</ele><time>2026-04-18T09:20:43.982Z</time></trkpt><trkpt lat="44.17594856114208" lon="12.2128086551232"><ele>25.0</ele><time>2026-04-18T09:20:44.982Z</time></trkpt><trkpt lat="44.17589899162709" lon="12.21264411348327"><ele>25.0</ele><time>2026-04-18T09:20:45.982Z</time></trkpt><trkpt lat="44.17584767900457" lon="12.212490941608731"><ele>25.0</ele><time>2026-04-18T09:20:46.982Z</time></trkpt><trkpt lat="44.175799064484096" lon="12.212348578105638"><ele>25.0</ele><time>2026-04-18T09:20:47.982Z</time></trkpt><trkpt lat="44.17574433278277" lon="12.21221321278123"><ele>25.0</ele><time>2026-04-18T09:20:48.982Z</time></trkpt><trkpt lat="44.175695915305475" lon="12.2120993458814"><ele>25.0</ele><time>2026-04-18T09:20:49.982Z</time></trkpt><trkpt lat="44.17564758108994" lon="12.21198971631199"><ele>25.000000000000004</ele><time>2026-04-18T09:20:50.982Z</time></trkpt><trkpt lat="44.17560084396235" lon="12.211884234244192"><ele>25.0</ele><time>2026-04-18T09:20:51.982Z</time></trkpt><trkpt lat="44.175550715658545" lon="12.211784100191847"><ele>25.0</ele><time>2026-04-18T09:20:52.982Z</time></trkpt><trkpt lat="44.17550270225021" lon="12.211696405026682"><ele>25.0</ele><time>2026-04-18T09:20:53.982Z</time></trkpt><trkpt lat="44.17545302361442" lon="12.211603220478233"><ele>25.000000000000004</ele><time>2026-04-18T09:20:54.982Z</time></trkpt><trkpt lat="44.17540280923347" lon="12.211514980432252"><ele>25.0</ele><time>2026-04-18T09:20:55.982Z</time></trkpt><trkpt lat="44.17535797809158" lon="12.211430650589511"><ele>25.000000000000004</ele><time>2026-04-18T09:20:56.982Z</time></trkpt><trkpt lat="44.175317370114556" lon="12.211351752136107"><ele>25.0</ele><time>2026-04-18T09:20:57.982Z</time></trkpt><trkpt lat="44.17529070698627" lon="12.211271014460104"><ele>25.0</ele><time>2026-04-18T09:20:58.982Z</time></trkpt><trkpt lat="44.17527170136473" lon="12.211166311223957"><ele>25.0</ele><time>2026-04-18T09:20:59.982Z</time></trkpt><trkpt lat="44.17526210747332" lon="12.211048750486976"><ele>25.000000000000004</ele><time>2026-04-18T09:21:00.982Z</time></trkpt><trkpt lat="44.175261073905276" lon="12.210926465394708"><ele>25.0</ele><time>2026-04-18T09:21:01.982Z</time></trkpt><trkpt lat="44.17524612004373" lon="12.210809137175955"><ele>25.000000000000004</ele><time>2026-04-18T09:21:02.982Z</time></trkpt><trkpt lat="44.17522368028879" lon="12.2107030941827"><ele>25.0</ele><time>2026-04-18T09:21:03.982Z</time></trkpt><trkpt lat="44.1751798243755" lon="12.210612645134088"><ele>25.0</ele><time>2026-04-18T09:21:04.982Z</time></trkpt><trkpt lat="44.17512441652511" lon="12.210547515124452"><ele>25.0</ele><time>2026-04-18T09:21:05.982Z</time></trkpt><trkpt lat="44.17506504159269" lon="12.210477515133663"><ele>25.000000000000004</ele><time>2026-04-18T09:21:06.982Z</time></trkpt><trkpt lat="44.17499946433298" lon="12.2104425972909"><ele>25.0</ele><time>2026-04-18T09:21:07.982Z</time></trkpt><trkpt lat="44.174921678287006" lon="12.210409184711281"><ele>25.0</ele><time>2026-04-18T09:21:08.982Z</time></trkpt><trkpt lat="44.17483267000529" lon="12.210399691189753"><ele>25.0</ele><time>2026-04-18T09:21:09.982Z</time></trkpt><trkpt lat="44.1747425412361" lon="12.21041031475303"><ele>25.0</ele><time>2026-04-18T09:21:10.982Z</time></trkpt><trkpt lat="44.17464446407109" lon="12.210384236146801"><ele>25.0</ele><time>2026-04-18T09:21:11.982Z</time></trkpt><trkpt lat="44.17454790162967" lon="12.210329855018157"><ele>25.0</ele><time>2026-04-18T09:21:12.982Z</time></trkpt><trkpt lat="44.17446064527714" lon="12.210286972508502"><ele>25.0</ele><time>2026-04-18T09:21:13.982Z</time></trkpt><trkpt lat="44.17437562152945" lon="12.21024667105339"><ele>25.0</ele><time>2026-04-18T09:21:14.982Z</time></trkpt><trkpt lat="44.1743124812426" lon="12.210105900786917"><ele>25.0</ele><time>2026-04-18T09:21:15.982Z</time></trkpt><trkpt lat="44.17422736296196" lon="12.210034638840146"><ele>25.0</ele><time>2026-04-18T09:21:16.982Z</time></trkpt><trkpt lat="44.17414088710179" lon="12.209962849315957"><ele>25.0</ele><time>2026-04-18T09:21:17.982Z</time></trkpt><trkpt lat="44.174046160217564" lon="12.20989317016575"><ele>25.0</ele><time>2026-04-18T09:21:18.982Z</time></trkpt><trkpt lat="44.173948316928275" lon="12.209830869266742"><ele>25.0</ele><time>2026-04-18T09:21:19.982Z</time></trkpt><trkpt lat="44.17383864380607" lon="12.209770594272701"><ele>25.0</ele><time>2026-04-18T09:21:20.982Z</time></trkpt><trkpt lat="44.17373273438978" lon="12.209705754314141"><ele>25.0</ele><time>2026-04-18T09:21:21.982Z</time></trkpt><trkpt lat="44.173633394038575" lon="12.20964972029783"><ele>25.0</ele><time>2026-04-18T09:21:22.982Z</time></trkpt><trkpt lat="44.17352963942989" lon="12.209595636312539"><ele>25.0</ele><time>2026-04-18T09:21:23.982Z</time></trkpt><trkpt lat="44.173427749486535" lon="12.209545821979034"><ele>25.0</ele><time>2026-04-18T09:21:24.982Z</time></trkpt><trkpt lat="44.17333529105975" lon="12.209498003903285"><ele>25.0</ele><time>2026-04-18T09:21:25.982Z</time></trkpt><trkpt lat="44.17322596098847" lon="12.209474104242132"><ele>25.0</ele><time>2026-04-18T09:21:26.982Z</time></trkpt><trkpt lat="44.173122419517384" lon="12.209424163932855"><ele>25.0</ele><time>2026-04-18T09:21:27.982Z</time></trkpt><trkpt lat="44.17301948902759" lon="12.209374311538443"><ele>25.2</ele><time>2026-04-18T09:21:28.982Z</time></trkpt><trkpt lat="44.172923999646336" lon="12.209320013756912"><ele>25.4</ele><time>2026-04-18T09:21:29.982Z</time></trkpt><trkpt lat="44.17282070514636" lon="12.209261245523738"><ele>25.6</ele><time>2026-04-18T09:21:30.982Z</time></trkpt><trkpt lat="44.17272543229792" lon="12.209195168775837"><ele>25.8</ele><time>2026-04-18T09:21:31.982Z</time></trkpt><trkpt lat="44.17262965421914" lon="12.20913526998232"><ele>26.0</ele><time>2026-04-18T09:21:32.982Z</time></trkpt><trkpt lat="44.17253442795429" lon="12.209069782599915"><ele>26.0</ele><time>2026-04-18T09:21:33.982Z</time></trkpt><trkpt lat="44.17243235050484" lon="12.208986705177123"><ele>26.0</ele><time>2026-04-18T09:21:34.982Z</time></trkpt><trkpt lat="44.17233417181666" lon="12.20889293961466"><ele>26.0</ele><time>2026-04-18T09:21:35.982Z</time></trkpt><trkpt lat="44.172235233714474" lon="12.20878600778192"><ele>26.0</ele><time>2026-04-18T09:21:36.982Z</time></trkpt><trkpt lat="44.17213812227668" lon="12.20866796038526"><ele>26.200000000000003</ele><time>2026-04-18T09:21:37.982Z</time></trkpt><trkpt lat="44.17205799135372" lon="12.208558597505276"><ele>26.400000000000002</ele><time>2026-04-18T09:21:38.981Z</time></trkpt><trkpt lat="44.17198481380059" lon="12.208451787468581"><ele>26.6</ele><time>2026-04-18T09:21:39.981Z</time></trkpt><trkpt lat="44.17190814106398" lon="12.208340379411233"><ele>26.8</ele><time>2026-04-18T09:21:40.981Z</time></trkpt><trkpt lat="44.17183974700977" lon="12.208215467303098"><ele>27.0</ele><time>2026-04-18T09:21:41.981Z</time></trkpt><trkpt lat="44.171773480460544" lon="12.208072003560552"><ele>27.0</ele><time>2026-04-18T09:21:42.981Z</time></trkpt><trkpt lat="44.1717061590639" lon="12.20793591824227"><ele>27.0</ele><time>2026-04-18T09:21:43.981Z</time></trkpt><trkpt lat="44.171642281766104" lon="12.20779563810195"><ele>27.0</ele><time>2026-04-18T09:21:44.981Z</time></trkpt><trkpt lat="44.17157415997914" lon="12.207651090012988"><ele>27.0</ele><time>2026-04-18T09:21:45.981Z</time></trkpt><trkpt lat="44.171508364310135" lon="12.207500071986125"><ele>27.25</ele><time>2026-04-18T09:21:46.981Z</time></trkpt><trkpt lat="44.17143908544251" lon="12.20735396565458"><ele>27.5</ele><time>2026-04-18T09:21:47.981Z</time></trkpt><trkpt lat="44.171361936723216" lon="12.207197832536508"><ele>27.75</ele><time>2026-04-18T09:21:48.981Z</time></trkpt><trkpt lat="44.17127731408595" lon="12.207049886833328"><ele>28.0</ele><time>2026-04-18T09:21:49.981Z</time></trkpt><trkpt lat="44.17119337058426" lon="12.206900132914024"><ele>28.0</ele><time>2026-04-18T09:21:50.981Z</time></trkpt><trkpt lat="44.17110459460494" lon="12.206748172932937"><ele>28.0</ele><time>2026-04-18T09:21:51.981Z</time></trkpt><trkpt lat="44.171020410896816" lon="12.206599156844069"><ele>28.0</ele><time>2026-04-18T09:21:52.981Z</time></trkpt><trkpt lat="44.17094282921642" lon="12.206460146497266"><ele>28.0</ele><time>2026-04-18T09:21:53.981Z</time></trkpt><trkpt lat="44.17086230003226" lon="12.206317370918281"><ele>28.0</ele><time>2026-04-18T09:21:54.981Z</time></trkpt><trkpt lat="44.170779792838225" lon="12.206180301502204"><ele>28.0</ele><time>2026-04-18T09:21:55.981Z</time></trkpt><trkpt lat="44.17070515224889" lon="12.206041610452491"><ele>28.0</ele><time>2026-04-18T09:21:56.982Z</time></trkpt><trkpt lat="44.17063165319524" lon="12.205913846372892"><ele>28.0</ele><time>2026-04-18T09:21:57.982Z</time></trkpt><trkpt lat="44.17056428454581" lon="12.205796148838122"><ele>28.000000000000004</ele><time>2026-04-18T09:21:58.982Z</time></trkpt><trkpt lat="44.170504733629336" lon="12.205692661234739"><ele>28.0</ele><time>2026-04-18T09:21:59.982Z</time></trkpt><trkpt lat="44.1704477629467" lon="12.205590139751413"><ele>28.0</ele><time>2026-04-18T09:22:00.982Z</time></trkpt><trkpt lat="44.17039513347167" lon="12.205495441918698"><ele>28.0</ele><time>2026-04-18T09:22:01.982Z</time></trkpt><trkpt lat="44.170349439846554" lon="12.205408151535686"><ele>28.000000000000004</ele><time>2026-04-18T09:22:02.982Z</time></trkpt><trkpt lat="44.17030542716114" lon="12.205326352404244"><ele>28.0</ele><time>2026-04-18T09:22:03.982Z</time></trkpt><trkpt lat="44.17026459353512" lon="12.205215674583178"><ele>28.166666666666668</ele><time>2026-04-18T09:22:05.981Z</time></trkpt><trkpt lat="44.17024271763679" lon="12.205116167514472"><ele>28.333333333333336</ele><time>2026-04-18T09:22:08.981Z</time></trkpt><trkpt lat="44.170228823453485" lon="12.2050193288816"><ele>28.5</ele><time>2026-04-18T09:22:14.981Z</time></trkpt><trkpt lat="44.170208337122396" lon="12.204848575463414"><ele>28.666666666666664</ele><time>2026-04-18T09:22:16.981Z</time></trkpt><trkpt lat="44.17019255224539" lon="12.204750671762067"><ele>28.833333333333332</ele><time>2026-04-18T09:22:17.981Z</time></trkpt><trkpt lat="44.170154447242176" lon="12.204663291402781"><ele>29.0</ele><time>2026-04-18T09:22:18.981Z</time></trkpt><trkpt lat="44.170107768588906" lon="12.204588227387202"><ele>28.999999999999996</ele><time>2026-04-18T09:22:19.981Z</time></trkpt><trkpt lat="44.170046137926164" lon="12.20452758162398"><ele>29.0</ele><time>2026-04-18T09:22:20.981Z</time></trkpt><trkpt lat="44.169969735564294" lon="12.20448091897956"><ele>29.0</ele><time>2026-04-18T09:22:21.981Z</time></trkpt><trkpt lat="44.16988688838279" lon="12.20443946437588"><ele>29.0</ele><time>2026-04-18T09:22:22.981Z</time></trkpt><trkpt lat="44.16979447309026" lon="12.20439095342492"><ele>28.999999999999996</ele><time>2026-04-18T09:22:23.981Z</time></trkpt><trkpt lat="44.169711567828536" lon="12.20433400971625"><ele>29.0</ele><time>2026-04-18T09:22:24.981Z</time></trkpt><trkpt lat="44.16964674951022" lon="12.204257338583915"><ele>29.0</ele><time>2026-04-18T09:22:25.981Z</time></trkpt><trkpt lat="44.169559735871836" lon="12.204168502838861"><ele>29.0</ele><time>2026-04-18T09:22:26.981Z</time></trkpt><trkpt lat="44.16948563969285" lon="12.204063756090077"><ele>29.0</ele><time>2026-04-18T09:22:27.981Z</time></trkpt><trkpt lat="44.16939832651817" lon="12.203945837706012"><ele>29.0</ele><time>2026-04-18T09:22:28.981Z</time></trkpt><trkpt lat="44.169318701611665" lon="12.203831896766008"><ele>29.0</ele><time>2026-04-18T09:22:29.981Z</time></trkpt><trkpt lat="44.169237145616414" lon="12.203710262503385"><ele>29.0</ele><time>2026-04-18T09:22:30.981Z</time></trkpt><trkpt lat="44.169144941228566" lon="12.20358859733546"><ele>29.0</ele><time>2026-04-18T09:22:31.981Z</time></trkpt><trkpt lat="44.16906068347534" lon="12.203468211217047"><ele>29.0</ele><time>2026-04-18T09:22:32.981Z</time></trkpt><trkpt lat="44.16897494116232" lon="12.203332205609328"><ele>29.0</ele><time>2026-04-18T09:22:33.981Z</time></trkpt><trkpt lat="44.168888654415134" lon="12.20319627006575"><ele>29.25</ele><time>2026-04-18T09:22:34.981Z</time></trkpt><trkpt lat="44.16878915066233" lon="12.203071673182219"><ele>29.5</ele><time>2026-04-18T09:22:35.981Z</time></trkpt><trkpt lat="44.16868925783964" lon="12.202941061322788"><ele>29.75</ele><time>2026-04-18T09:22:36.981Z</time></trkpt><trkpt lat="44.1685967795791" lon="12.202811832875085"><ele>30.0</ele><time>2026-04-18T09:22:37.981Z</time></trkpt><trkpt lat="44.16851100242499" lon="12.202688754043416"><ele>30.0</ele><time>2026-04-18T09:22:38.981Z</time></trkpt><trkpt lat="44.168438593484034" lon="12.202583634106256"><ele>30.0</ele><time>2026-04-18T09:22:39.981Z</time></trkpt><trkpt lat="44.168371641300716" lon="12.202474515739615"><ele>30.0</ele><time>2026-04-18T09:22:40.981Z</time></trkpt><trkpt lat="44.16830940422472" lon="12.202376153312988"><ele>30.0</ele><time>2026-04-18T09:22:41.981Z</time></trkpt><trkpt lat="44.168249311229246" lon="12.202276642837953"><ele>30.0</ele><time>2026-04-18T09:22:42.981Z</time></trkpt><trkpt lat="44.168184335032784" lon="12.20216921572031"><ele>29.75</ele><time>2026-04-18T09:22:43.981Z</time></trkpt><trkpt lat="44.16811142304122" lon="12.202053800037728"><ele>29.5</ele><time>2026-04-18T09:22:44.981Z</time></trkpt><trkpt lat="44.168051205924876" lon="12.201908923142708"><ele>29.25</ele><time>2026-04-18T09:22:45.981Z</time></trkpt><trkpt lat="44.16799029698157" lon="12.201758400527966"><ele>29.0</ele><time>2026-04-18T09:22:46.981Z</time></trkpt><trkpt lat="44.16793129217025" lon="12.201596527273978"><ele>29.0</ele><time>2026-04-18T09:22:47.981Z</time></trkpt><trkpt lat="44.1678755285048" lon="12.201430092366845"><ele>29.0</ele><time>2026-04-18T09:22:48.981Z</time></trkpt><trkpt lat="44.16781905688362" lon="12.20125858645848"><ele>29.0</ele><time>2026-04-18T09:22:49.981Z</time></trkpt><trkpt lat="44.16776814176283" lon="12.201081267448115"><ele>29.0</ele><time>2026-04-18T09:22:50.981Z</time></trkpt><trkpt lat="44.167720027867304" lon="12.200913788717061"><ele>29.0</ele><time>2026-04-18T09:22:51.981Z</time></trkpt><trkpt lat="44.167665158032165" lon="12.200737662905343"><ele>29.0</ele><time>2026-04-18T09:22:52.981Z</time></trkpt><trkpt lat="44.16760910751046" lon="12.200551581086795"><ele>29.0</ele><time>2026-04-18T09:22:53.981Z</time></trkpt><trkpt lat="44.16755516282219" lon="12.200364256630532"><ele>29.0</ele><time>2026-04-18T09:22:54.981Z</time></trkpt><trkpt lat="44.167501496367" lon="12.200169956860423"><ele>29.333333333333332</ele><time>2026-04-18T09:22:55.981Z</time></trkpt><trkpt lat="44.16744315095634" lon="12.199976119324834"><ele>29.666666666666664</ele><time>2026-04-18T09:22:56.981Z</time></trkpt><trkpt lat="44.16738815516781" lon="12.199779446896066"><ele>30.0</ele><time>2026-04-18T09:22:57.981Z</time></trkpt><trkpt lat="44.167326180225764" lon="12.19958750115785"><ele>30.0</ele><time>2026-04-18T09:22:58.981Z</time></trkpt><trkpt lat="44.16726845271158" lon="12.19939566204409"><ele>30.0</ele><time>2026-04-18T09:22:59.981Z</time></trkpt><trkpt lat="44.16720912023195" lon="12.199194810775804"><ele>30.0</ele><time>2026-04-18T09:23:00.981Z</time></trkpt><trkpt lat="44.16715814688737" lon="12.199000157734957"><ele>30.25</ele><time>2026-04-18T09:23:01.981Z</time></trkpt><trkpt lat="44.16710017351115" lon="12.198808950435126"><ele>30.5</ele><time>2026-04-18T09:23:02.981Z</time></trkpt><trkpt lat="44.167042977028906" lon="12.198612787085791"><ele>30.75</ele><time>2026-04-18T09:23:03.981Z</time></trkpt><trkpt lat="44.16698560079051" lon="12.198423637474601"><ele>31.0</ele><time>2026-04-18T09:23:04.981Z</time></trkpt><trkpt lat="44.166926719358045" lon="12.198240069122477"><ele>31.25</ele><time>2026-04-18T09:23:05.981Z</time></trkpt><trkpt lat="44.16685676559726" lon="12.198064260050561"><ele>31.5</ele><time>2026-04-18T09:23:06.981Z</time></trkpt><trkpt lat="44.16677851255036" lon="12.197890258410158"><ele>31.75</ele><time>2026-04-18T09:23:07.981Z</time></trkpt><trkpt lat="44.16669893282213" lon="12.197732722974273"><ele>32.0</ele><time>2026-04-18T09:23:08.981Z</time></trkpt><trkpt lat="44.166609163273606" lon="12.197573080683236"><ele>32.0</ele><time>2026-04-18T09:23:09.981Z</time></trkpt><trkpt lat="44.16651499145499" lon="12.197420944833931"><ele>32.0</ele><time>2026-04-18T09:23:10.981Z</time></trkpt><trkpt lat="44.16641410988235" lon="12.197279595454612"><ele>32.0</ele><time>2026-04-18T09:23:11.981Z</time></trkpt><trkpt lat="44.166305501103395" lon="12.197144718119748"><ele>32.0</ele><time>2026-04-18T09:23:12.981Z</time></trkpt><trkpt lat="44.16620343361255" lon="12.197016353105763"><ele>32.0</ele><time>2026-04-18T09:23:13.981Z</time></trkpt><trkpt lat="44.166095220520354" lon="12.196886919397668"><ele>32.0</ele><time>2026-04-18T09:23:14.981Z</time></trkpt><trkpt lat="44.165992072814234" lon="12.196749540898885"><ele>32.0</ele><time>2026-04-18T09:23:15.981Z</time></trkpt><trkpt lat="44.16589359148409" lon="12.196621599121055"><ele>32.0</ele><time>2026-04-18T09:23:16.981Z</time></trkpt><trkpt lat="44.165797227683605" lon="12.196488550248635"><ele>31.75</ele><time>2026-04-18T09:23:17.981Z</time></trkpt><trkpt lat="44.165702366612216" lon="12.196363130316362"><ele>31.5</ele><time>2026-04-18T09:23:18.981Z</time></trkpt><trkpt lat="44.165604647203" lon="12.196244065208669"><ele>31.25</ele><time>2026-04-18T09:23:19.981Z</time></trkpt><trkpt lat="44.16550665068629" lon="12.196109024001133"><ele>31.0</ele><time>2026-04-18T09:23:20.981Z</time></trkpt><trkpt lat="44.16540849275573" lon="12.195986708163423"><ele>30.75</ele><time>2026-04-18T09:23:21.981Z</time></trkpt><trkpt lat="44.16531529019514" lon="12.195864129447061"><ele>30.5</ele><time>2026-04-18T09:23:22.981Z</time></trkpt><trkpt lat="44.16522344037211" lon="12.195742173127588"><ele>30.25</ele><time>2026-04-18T09:23:23.981Z</time></trkpt><trkpt lat="44.16513769162071" lon="12.19560910673911"><ele>30.0</ele><time>2026-04-18T09:23:24.981Z</time></trkpt><trkpt lat="44.16505103967537" lon="12.195456051153654"><ele>30.0</ele><time>2026-04-18T09:23:25.981Z</time></trkpt><trkpt lat="44.16497237656919" lon="12.195304044552918"><ele>30.0</ele><time>2026-04-18T09:23:26.981Z</time></trkpt><trkpt lat="44.16489002077781" lon="12.195139778768205"><ele>30.0</ele><time>2026-04-18T09:23:27.981Z</time></trkpt><trkpt lat="44.164804172710575" lon="12.194980326250112"><ele>30.0</ele><time>2026-04-18T09:23:28.981Z</time></trkpt><trkpt lat="44.164720963970424" lon="12.194813978731366"><ele>29.75</ele><time>2026-04-18T09:23:29.981Z</time></trkpt><trkpt lat="44.16462601776371" lon="12.194650417878249"><ele>29.5</ele><time>2026-04-18T09:23:30.981Z</time></trkpt><trkpt lat="44.164539493423014" lon="12.194488643168892"><ele>29.25</ele><time>2026-04-18T09:23:31.981Z</time></trkpt><trkpt lat="44.16445421456312" lon="12.194334817992916"><ele>29.0</ele><time>2026-04-18T09:23:32.981Z</time></trkpt><trkpt lat="44.16436234667056" lon="12.194177821207271"><ele>29.0</ele><time>2026-04-18T09:23:33.981Z</time></trkpt><trkpt lat="44.16427938389854" lon="12.19403008493363"><ele>29.0</ele><time>2026-04-18T09:23:34.981Z</time></trkpt><trkpt lat="44.16418594976461" lon="12.193887853600893"><ele>29.0</ele><time>2026-04-18T09:23:35.981Z</time></trkpt><trkpt lat="44.16408333662011" lon="12.19374863812397"><ele>29.0</ele><time>2026-04-18T09:23:36.981Z</time></trkpt><trkpt lat="44.16397676452957" lon="12.193608785230332"><ele>29.25</ele><time>2026-04-18T09:23:37.981Z</time></trkpt><trkpt lat="44.16386786979647" lon="12.193488760018187"><ele>29.5</ele><time>2026-04-18T09:23:38.981Z</time></trkpt><trkpt lat="44.16374920514496" lon="12.193387448231102"><ele>29.75</ele><time>2026-04-18T09:23:39.981Z</time></trkpt><trkpt lat="44.16363453919395" lon="12.193278217030377"><ele>30.0</ele><time>2026-04-18T09:23:40.981Z</time></trkpt><trkpt lat="44.16350231429766" lon="12.193194258761999"><ele>29.75</ele><time>2026-04-18T09:23:41.98Z</time></trkpt><trkpt lat="44.16337331667675" lon="12.193107879806389"><ele>29.5</ele><time>2026-04-18T09:23:42.98Z</time></trkpt><trkpt lat="44.16324792892976" lon="12.193027726952497"><ele>29.25</ele><time>2026-04-18T09:23:43.98Z</time></trkpt><trkpt lat="44.1631085165354" lon="12.192962312845308"><ele>29.0</ele><time>2026-04-18T09:23:44.98Z</time></trkpt><trkpt lat="44.16298787437085" lon="12.192904985852248"><ele>30.0</ele><time>2026-04-18T09:23:45.98Z</time></trkpt><trkpt lat="44.16285248548612" lon="12.192861172289794"><ele>31.0</ele><time>2026-04-18T09:23:46.98Z</time></trkpt><trkpt lat="44.16271362696806" lon="12.192821519885593"><ele>32.0</ele><time>2026-04-18T09:23:47.98Z</time></trkpt><trkpt lat="44.16257247195291" lon="12.19278728074738"><ele>33.0</ele><time>2026-04-18T09:23:48.98Z</time></trkpt><trkpt lat="44.162432430105106" lon="12.192756046506885"><ele>33.0</ele><time>2026-04-18T09:23:49.98Z</time></trkpt><trkpt lat="44.16228938567911" lon="12.192746918253482"><ele>33.0</ele><time>2026-04-18T09:23:50.98Z</time></trkpt><trkpt lat="44.1621351879267" lon="12.192742302360166"><ele>33.0</ele><time>2026-04-18T09:23:51.98Z</time></trkpt><trkpt lat="44.16198309052791" lon="12.192738281800409"><ele>33.0</ele><time>2026-04-18T09:23:52.98Z</time></trkpt><trkpt lat="44.161844533219245" lon="12.192728948592212"><ele>33.0</ele><time>2026-04-18T09:23:53.98Z</time></trkpt><trkpt lat="44.161702968368765" lon="12.192738529143975"><ele>33.0</ele><time>2026-04-18T09:23:54.98Z</time></trkpt><trkpt lat="44.161563792216306" lon="12.192748160210991"><ele>33.0</ele><time>2026-04-18T09:23:55.98Z</time></trkpt><trkpt lat="44.16143949537688" lon="12.192749717061773"><ele>32.75</ele><time>2026-04-18T09:23:56.98Z</time></trkpt><trkpt lat="44.16131043640136" lon="12.192752537346296"><ele>32.5</ele><time>2026-04-18T09:23:57.98Z</time></trkpt><trkpt lat="44.161180295532816" lon="12.192750780584522"><ele>32.25</ele><time>2026-04-18T09:23:58.98Z</time></trkpt><trkpt lat="44.161048287249805" lon="12.192749959067184"><ele>32.0</ele><time>2026-04-18T09:23:59.98Z</time></trkpt><trkpt lat="44.160912158537414" lon="12.192747678639691"><ele>32.0</ele><time>2026-04-18T09:24:00.98Z</time></trkpt><trkpt lat="44.16076894306019" lon="12.19273328144429"><ele>32.0</ele><time>2026-04-18T09:24:01.981Z</time></trkpt><trkpt lat="44.16063140378652" lon="12.192711858620239"><ele>32.0</ele><time>2026-04-18T09:24:02.981Z</time></trkpt><trkpt lat="44.16048388052112" lon="12.192679333646735"><ele>32.0</ele><time>2026-04-18T09:24:03.981Z</time></trkpt><trkpt lat="44.16033474426632" lon="12.192646586680377"><ele>32.0</ele><time>2026-04-18T09:24:04.981Z</time></trkpt><trkpt lat="44.16018790342915" lon="12.192594451456484"><ele>32.0</ele><time>2026-04-18T09:24:05.981Z</time></trkpt><trkpt lat="44.16004721350533" lon="12.192525852036312"><ele>32.0</ele><time>2026-04-18T09:24:06.981Z</time></trkpt><trkpt lat="44.15991519666654" lon="12.192464736739806"><ele>32.0</ele><time>2026-04-18T09:24:07.981Z</time></trkpt><trkpt lat="44.1597899860229" lon="12.19241594596461"><ele>32.0</ele><time>2026-04-18T09:24:08.981Z</time></trkpt><trkpt lat="44.15966863638029" lon="12.192374752563422"><ele>32.0</ele><time>2026-04-18T09:24:09.981Z</time></trkpt><trkpt lat="44.159566235054164" lon="12.192310843176347"><ele>32.0</ele><time>2026-04-18T09:24:10.981Z</time></trkpt><trkpt lat="44.15946667547561" lon="12.192277586195472"><ele>32.0</ele><time>2026-04-18T09:24:11.981Z</time></trkpt><trkpt lat="44.15937129900102" lon="12.192239932369574"><ele>32.0</ele><time>2026-04-18T09:24:12.981Z</time></trkpt><trkpt lat="44.159284674855584" lon="12.192200771297117"><ele>31.999999999999996</ele><time>2026-04-18T09:24:13.981Z</time></trkpt><trkpt lat="44.15920700139855" lon="12.192161055600513"><ele>32.0</ele><time>2026-04-18T09:24:14.981Z</time></trkpt><trkpt lat="44.15913448849758" lon="12.192112882688042"><ele>32.0</ele><time>2026-04-18T09:24:15.981Z</time></trkpt><trkpt lat="44.15906404991027" lon="12.192050421714631"><ele>32.0</ele><time>2026-04-18T09:24:16.981Z</time></trkpt><trkpt lat="44.15902069745946" lon="12.19197123716825"><ele>31.999999999999996</ele><time>2026-04-18T09:24:17.981Z</time></trkpt><trkpt lat="44.15898200571501" lon="12.191888547538097"><ele>32.0</ele><time>2026-04-18T09:24:18.981Z</time></trkpt><trkpt lat="44.15894881389786" lon="12.191784402950377"><ele>32.166666666666664</ele><time>2026-04-18T09:24:19.981Z</time></trkpt><trkpt lat="44.15892245916355" lon="12.19167746499188"><ele>32.33333333333333</ele><time>2026-04-18T09:24:20.981Z</time></trkpt><trkpt lat="44.1589095084866" lon="12.191554936793391"><ele>32.5</ele><time>2026-04-18T09:24:21.981Z</time></trkpt><trkpt lat="44.158900343831036" lon="12.191431369366486"><ele>32.666666666666664</ele><time>2026-04-18T09:24:22.981Z</time></trkpt><trkpt lat="44.15890105270977" lon="12.191314086619224"><ele>32.833333333333336</ele><time>2026-04-18T09:24:23.981Z</time></trkpt><trkpt lat="44.158930716160825" lon="12.191211817527595"><ele>33.0</ele><time>2026-04-18T09:24:24.981Z</time></trkpt><trkpt lat="44.158974320766454" lon="12.19112367585637"><ele>33.0</ele><time>2026-04-18T09:24:25.981Z</time></trkpt><trkpt lat="44.159024028483266" lon="12.191032543285978"><ele>33.0</ele><time>2026-04-18T09:24:26.981Z</time></trkpt><trkpt lat="44.15907888456065" lon="12.190946859538927"><ele>33.0</ele><time>2026-04-18T09:24:27.981Z</time></trkpt><trkpt lat="44.15913831921827" lon="12.1908429303568"><ele>33.0</ele><time>2026-04-18T09:24:28.981Z</time></trkpt><trkpt lat="44.15919186431126" lon="12.190721863011328"><ele>33.0</ele><time>2026-04-18T09:24:29.981Z</time></trkpt><trkpt lat="44.15925996288319" lon="12.190600852124188"><ele>33.25</ele><time>2026-04-18T09:24:30.981Z</time></trkpt><trkpt lat="44.15933823098316" lon="12.190471196776173"><ele>33.5</ele><time>2026-04-18T09:24:31.981Z</time></trkpt><trkpt lat="44.159417791289755" lon="12.190333959254286"><ele>33.75</ele><time>2026-04-18T09:24:32.981Z</time></trkpt><trkpt lat="44.15950225663094" lon="12.190209164854474"><ele>34.0</ele><time>2026-04-18T09:24:33.981Z</time></trkpt><trkpt lat="44.159589849525915" lon="12.190075543802969"><ele>34.0</ele><time>2026-04-18T09:24:34.981Z</time></trkpt><trkpt lat="44.15967600838718" lon="12.189935537603938"><ele>34.0</ele><time>2026-04-18T09:24:35.981Z</time></trkpt><trkpt lat="44.1597768113707" lon="12.189822883081014"><ele>34.0</ele><time>2026-04-18T09:24:36.981Z</time></trkpt><trkpt lat="44.159871624004616" lon="12.189715942212809"><ele>34.0</ele><time>2026-04-18T09:24:37.981Z</time></trkpt><trkpt lat="44.15996782413752" lon="12.189606787397322"><ele>34.0</ele><time>2026-04-18T09:24:38.981Z</time></trkpt><trkpt lat="44.16008032377177" lon="12.189516537527364"><ele>34.0</ele><time>2026-04-18T09:24:39.981Z</time></trkpt><trkpt lat="44.160197285138366" lon="12.189447459975003"><ele>34.0</ele><time>2026-04-18T09:24:40.981Z</time></trkpt><trkpt lat="44.16032223889877" lon="12.189387611139612"><ele>34.0</ele><time>2026-04-18T09:24:41.981Z</time></trkpt><trkpt lat="44.16045580169309" lon="12.189334117678207"><ele>34.0</ele><time>2026-04-18T09:24:42.981Z</time></trkpt><trkpt lat="44.16058908016911" lon="12.189277665773396"><ele>34.0</ele><time>2026-04-18T09:24:43.981Z</time></trkpt><trkpt lat="44.16072019002628" lon="12.189226157254538"><ele>34.0</ele><time>2026-04-18T09:24:44.981Z</time></trkpt><trkpt lat="44.16085765800659" lon="12.189177408370158"><ele>34.0</ele><time>2026-04-18T09:24:45.981Z</time></trkpt><trkpt lat="44.16099524842593" lon="12.18912122948082"><ele>34.25</ele><time>2026-04-18T09:24:46.98Z</time></trkpt><trkpt lat="44.161129513139414" lon="12.189074792336761"><ele>34.5</ele><time>2026-04-18T09:24:47.98Z</time></trkpt><trkpt lat="44.16125893589481" lon="12.1890176474792"><ele>34.75</ele><time>2026-04-18T09:24:48.98Z</time></trkpt><trkpt lat="44.16139091599474" lon="12.188964671311577"><ele>35.0</ele><time>2026-04-18T09:24:49.98Z</time></trkpt><trkpt lat="44.16152420708089" lon="12.188909768559265"><ele>36.75</ele><time>2026-04-18T09:24:50.98Z</time></trkpt><trkpt lat="44.16165078529863" lon="12.188855259702134"><ele>38.5</ele><time>2026-04-18T09:24:51.98Z</time></trkpt><trkpt lat="44.16177468950143" lon="12.188791544703742"><ele>40.25</ele><time>2026-04-18T09:24:52.98Z</time></trkpt><trkpt lat="44.16190045286022" lon="12.188712752726119"><ele>42.0</ele><time>2026-04-18T09:24:53.98Z</time></trkpt><trkpt lat="44.162028595659" lon="12.188633100902925"><ele>42.0</ele><time>2026-04-18T09:24:54.98Z</time></trkpt><trkpt lat="44.16216430793551" lon="12.188519017118352"><ele>42.0</ele><time>2026-04-18T09:24:55.98Z</time></trkpt><trkpt lat="44.162285539731926" lon="12.188393748241896"><ele>42.0</ele><time>2026-04-18T09:24:56.98Z</time></trkpt><trkpt lat="44.162403573300175" lon="12.188253864546933"><ele>41.666666666666664</ele><time>2026-04-18T09:24:57.98Z</time></trkpt><trkpt lat="44.16250621971416" lon="12.188089073135213"><ele>41.33333333333333</ele><time>2026-04-18T09:24:58.98Z</time></trkpt><trkpt lat="44.16259595108781" lon="12.187904865996437"><ele>41.0</ele><time>2026-04-18T09:24:59.98Z</time></trkpt><trkpt lat="44.16268050332429" lon="12.187705918667914"><ele>41.0</ele><time>2026-04-18T09:25:00.98Z</time></trkpt><trkpt lat="44.162760593302245" lon="12.187520650013584"><ele>41.0</ele><time>2026-04-18T09:25:01.98Z</time></trkpt><trkpt lat="44.16284570426118" lon="12.187342201464624"><ele>41.0</ele><time>2026-04-18T09:25:02.98Z</time></trkpt><trkpt lat="44.16292558343547" lon="12.187166460429543"><ele>43.0</ele><time>2026-04-18T09:25:03.98Z</time></trkpt><trkpt lat="44.16300055253297" lon="12.186983461298327"><ele>45.0</ele><time>2026-04-18T09:25:04.98Z</time></trkpt><trkpt lat="44.163073629105696" lon="12.18680437258673"><ele>47.0</ele><time>2026-04-18T09:25:05.98Z</time></trkpt><trkpt lat="44.16313609301233" lon="12.186606100049408"><ele>47.666666666666664</ele><time>2026-04-18T09:25:06.98Z</time></trkpt><trkpt lat="44.16319123562539" lon="12.186407238937655"><ele>48.33333333333333</ele><time>2026-04-18T09:25:07.98Z</time></trkpt><trkpt lat="44.16323339627303" lon="12.186197908216142"><ele>49.0</ele><time>2026-04-18T09:25:08.98Z</time></trkpt><trkpt lat="44.163272377563" lon="12.185983066544084"><ele>44.666666666666664</ele><time>2026-04-18T09:25:09.98Z</time></trkpt><trkpt lat="44.16331065368403" lon="12.185763609327722"><ele>40.33333333333333</ele><time>2026-04-18T09:25:10.98Z</time></trkpt><trkpt lat="44.16335240345971" lon="12.185546915536392"><ele>36.0</ele><time>2026-04-18T09:25:11.98Z</time></trkpt><trkpt lat="44.16338689705296" lon="12.18532654214142"><ele>36.0</ele><time>2026-04-18T09:25:12.98Z</time></trkpt><trkpt lat="44.16342235744583" lon="12.185106347417609"><ele>36.0</ele><time>2026-04-18T09:25:13.98Z</time></trkpt><trkpt lat="44.16345717394866" lon="12.18488792064613"><ele>36.0</ele><time>2026-04-18T09:25:14.98Z</time></trkpt><trkpt lat="44.163494373496505" lon="12.184677404944276"><ele>37.333333333333336</ele><time>2026-04-18T09:25:15.98Z</time></trkpt><trkpt lat="44.16352439444385" lon="12.184464818110769"><ele>38.66666666666667</ele><time>2026-04-18T09:25:16.98Z</time></trkpt><trkpt lat="44.16354703261295" lon="12.184259400411849"><ele>40.0</ele><time>2026-04-18T09:25:17.98Z</time></trkpt><trkpt lat="44.16357397720336" lon="12.18405077581736"><ele>40.0</ele><time>2026-04-18T09:25:18.98Z</time></trkpt><trkpt lat="44.163604407756395" lon="12.183838046970958"><ele>40.0</ele><time>2026-04-18T09:25:19.98Z</time></trkpt><trkpt lat="44.16362929234366" lon="12.18363298037197"><ele>40.0</ele><time>2026-04-18T09:25:20.98Z</time></trkpt><trkpt lat="44.16364975799732" lon="12.183419542505009"><ele>40.0</ele><time>2026-04-18T09:25:21.98Z</time></trkpt><trkpt lat="44.16367207331681" lon="12.183201503830016"><ele>40.0</ele><time>2026-04-18T09:25:22.98Z</time></trkpt><trkpt lat="44.16370763689587" lon="12.182978567592304"><ele>40.0</ele><time>2026-04-18T09:25:23.98Z</time></trkpt><trkpt lat="44.16373482031405" lon="12.182744554844254"><ele>38.333333333333336</ele><time>2026-04-18T09:25:24.98Z</time></trkpt><trkpt lat="44.16376299474692" lon="12.182519709631475"><ele>36.666666666666664</ele><time>2026-04-18T09:25:25.98Z</time></trkpt><trkpt lat="44.16379201698513" lon="12.182293502199903"><ele>35.0</ele><time>2026-04-18T09:25:26.98Z</time></trkpt><trkpt lat="44.16382349558071" lon="12.182071613922416"><ele>34.0</ele><time>2026-04-18T09:25:27.98Z</time></trkpt><trkpt lat="44.16384960756725" lon="12.181841103821023"><ele>33.0</ele><time>2026-04-18T09:25:28.98Z</time></trkpt><trkpt lat="44.16388251181336" lon="12.181616580710548"><ele>32.0</ele><time>2026-04-18T09:25:29.98Z</time></trkpt><trkpt lat="44.16391924378145" lon="12.18138945224008"><ele>31.666666666666664</ele><time>2026-04-18T09:25:30.98Z</time></trkpt><trkpt lat="44.16395925350675" lon="12.181172573269127"><ele>31.333333333333336</ele><time>2026-04-18T09:25:31.98Z</time></trkpt><trkpt lat="44.16401382211914" lon="12.180965338183663"><ele>31.0</ele><time>2026-04-18T09:25:32.98Z</time></trkpt><trkpt lat="44.16407528895098" lon="12.180765878352481"><ele>31.0</ele><time>2026-04-18T09:25:33.98Z</time></trkpt><trkpt lat="44.16414242148418" lon="12.180570742445736"><ele>31.0</ele><time>2026-04-18T09:25:34.98Z</time></trkpt><trkpt lat="44.164216069719025" lon="12.180371929259593"><ele>31.0</ele><time>2026-04-18T09:25:35.98Z</time></trkpt><trkpt lat="44.164295563727634" lon="12.180180714706047"><ele>31.0</ele><time>2026-04-18T09:25:36.98Z</time></trkpt><trkpt lat="44.16437339931085" lon="12.17997909605279"><ele>31.0</ele><time>2026-04-18T09:25:37.98Z</time></trkpt><trkpt lat="44.16445562301164" lon="12.17978225595393"><ele>31.0</ele><time>2026-04-18T09:25:38.98Z</time></trkpt><trkpt lat="44.16453743190235" lon="12.179586243092468"><ele>31.0</ele><time>2026-04-18T09:25:39.98Z</time></trkpt><trkpt lat="44.1646163022059" lon="12.179389758992066"><ele>31.0</ele><time>2026-04-18T09:25:40.98Z</time></trkpt><trkpt lat="44.164695367994426" lon="12.179198012276744"><ele>31.0</ele><time>2026-04-18T09:25:41.98Z</time></trkpt><trkpt lat="44.16477369027057" lon="12.179018526674264"><ele>31.0</ele><time>2026-04-18T09:25:42.98Z</time></trkpt><trkpt lat="44.16485169412494" lon="12.178838856554759"><ele>31.0</ele><time>2026-04-18T09:25:43.98Z</time></trkpt><trkpt lat="44.1649264499947" lon="12.178652866571824"><ele>31.0</ele><time>2026-04-18T09:25:44.98Z</time></trkpt><trkpt lat="44.16500035506762" lon="12.178471344353941"><ele>31.0</ele><time>2026-04-18T09:25:45.98Z</time></trkpt><trkpt lat="44.1650787321345" lon="12.178286067222784"><ele>31.0</ele><time>2026-04-18T09:25:46.98Z</time></trkpt><trkpt lat="44.16515416248006" lon="12.178104866616989"><ele>31.0</ele><time>2026-04-18T09:25:47.98Z</time></trkpt><trkpt lat="44.16522949436225" lon="12.177918168515548"><ele>31.333333333333336</ele><time>2026-04-18T09:25:48.98Z</time></trkpt><trkpt lat="44.165301558257475" lon="12.177733212328981"><ele>31.666666666666664</ele><time>2026-04-18T09:25:49.98Z</time></trkpt><trkpt lat="44.165375031368974" lon="12.177553039754894"><ele>32.0</ele><time>2026-04-18T09:25:50.98Z</time></trkpt><trkpt lat="44.165449093843236" lon="12.177369392940241"><ele>31.666666666666664</ele><time>2026-04-18T09:25:51.98Z</time></trkpt><trkpt lat="44.16552271096874" lon="12.17718924163738"><ele>31.333333333333336</ele><time>2026-04-18T09:25:52.98Z</time></trkpt><trkpt lat="44.165596821093985" lon="12.177004657579404"><ele>31.0</ele><time>2026-04-18T09:25:53.98Z</time></trkpt><trkpt lat="44.1656923622339" lon="12.176838858003016"><ele>31.0</ele><time>2026-04-18T09:25:54.98Z</time></trkpt><trkpt lat="44.1657696471746" lon="12.17665086345975"><ele>31.0</ele><time>2026-04-18T09:25:55.98Z</time></trkpt><trkpt lat="44.16584839875518" lon="12.17646328771892"><ele>31.0</ele><time>2026-04-18T09:25:56.98Z</time></trkpt><trkpt lat="44.165925480989756" lon="12.176274039188234"><ele>31.0</ele><time>2026-04-18T09:25:57.98Z</time></trkpt><trkpt lat="44.165997631678486" lon="12.17608796358714"><ele>31.0</ele><time>2026-04-18T09:25:58.98Z</time></trkpt><trkpt lat="44.16606816322368" lon="12.175906730014109"><ele>31.0</ele><time>2026-04-18T09:25:59.98Z</time></trkpt><trkpt lat="44.16613621618745" lon="12.175721393661682"><ele>31.0</ele><time>2026-04-18T09:26:00.98Z</time></trkpt><trkpt lat="44.16620929892937" lon="12.175546673629784"><ele>31.5</ele><time>2026-04-18T09:26:01.98Z</time></trkpt><trkpt lat="44.16628104462456" lon="12.175377297908621"><ele>32.0</ele><time>2026-04-18T09:26:02.98Z</time></trkpt><trkpt lat="44.16636451473064" lon="12.175229253758584"><ele>32.5</ele><time>2026-04-18T09:26:03.98Z</time></trkpt><trkpt lat="44.16642509931323" lon="12.175070461130463"><ele>33.0</ele><time>2026-04-18T09:26:04.98Z</time></trkpt><trkpt lat="44.16648505375049" lon="12.1749253793309"><ele>34.599999999999994</ele><time>2026-04-18T09:26:05.98Z</time></trkpt><trkpt lat="44.1665489936752" lon="12.17478467921844"><ele>36.199999999999996</ele><time>2026-04-18T09:26:06.98Z</time></trkpt><trkpt lat="44.16660519519831" lon="12.174654137663676"><ele>37.8</ele><time>2026-04-18T09:26:07.981Z</time></trkpt><trkpt lat="44.16665692327053" lon="12.174528995441026"><ele>39.4</ele><time>2026-04-18T09:26:08.98Z</time></trkpt><trkpt lat="44.16670181487425" lon="12.174399579069323"><ele>41.0</ele><time>2026-04-18T09:26:09.98Z</time></trkpt><trkpt lat="44.166757341923606" lon="12.174277212587269"><ele>41.0</ele><time>2026-04-18T09:26:10.98Z</time></trkpt><trkpt lat="44.16681114421724" lon="12.174161984823398"><ele>41.0</ele><time>2026-04-18T09:26:11.981Z</time></trkpt><trkpt lat="44.166859902709156" lon="12.1740441753486"><ele>41.0</ele><time>2026-04-18T09:26:12.981Z</time></trkpt><trkpt lat="44.166906362621624" lon="12.173925390467872"><ele>41.0</ele><time>2026-04-18T09:26:13.98Z</time></trkpt><trkpt lat="44.16695174495052" lon="12.173815729605538"><ele>41.0</ele><time>2026-04-18T09:26:14.981Z</time></trkpt><trkpt lat="44.166990828140015" lon="12.173707151634199"><ele>40.8</ele><time>2026-04-18T09:26:15.981Z</time></trkpt><trkpt lat="44.167034425382745" lon="12.17360477767255"><ele>40.599999999999994</ele><time>2026-04-18T09:26:16.981Z</time></trkpt><trkpt lat="44.16707913881051" lon="12.173500732176944"><ele>40.4</ele><time>2026-04-18T09:26:17.981Z</time></trkpt><trkpt lat="44.16712796648563" lon="12.173387794687576"><ele>40.2</ele><time>2026-04-18T09:26:18.981Z</time></trkpt><trkpt lat="44.16717841082588" lon="12.173279233851888"><ele>40.0</ele><time>2026-04-18T09:26:19.98Z</time></trkpt><trkpt lat="44.16722689564649" lon="12.17315012127225"><ele>39.0</ele><time>2026-04-18T09:26:20.98Z</time></trkpt><trkpt lat="44.16727296089053" lon="12.173011037852294"><ele>38.0</ele><time>2026-04-18T09:26:21.98Z</time></trkpt><trkpt lat="44.16732176161242" lon="12.17287381606426"><ele>37.0</ele><time>2026-04-18T09:26:22.98Z</time></trkpt><trkpt lat="44.167376712208394" lon="12.172735884380607"><ele>36.0</ele><time>2026-04-18T09:26:23.98Z</time></trkpt><trkpt lat="44.16743570648492" lon="12.172610967821349"><ele>35.0</ele><time>2026-04-18T09:26:24.98Z</time></trkpt><trkpt lat="44.1674928497666" lon="12.17248482573792"><ele>34.4</ele><time>2026-04-18T09:26:25.98Z</time></trkpt><trkpt lat="44.16754703045359" lon="12.172365785253788"><ele>33.8</ele><time>2026-04-18T09:26:26.98Z</time></trkpt><trkpt lat="44.16759566266002" lon="12.172246490229112"><ele>33.2</ele><time>2026-04-18T09:26:27.98Z</time></trkpt><trkpt lat="44.16763985823422" lon="12.172136505694802"><ele>32.6</ele><time>2026-04-18T09:26:28.98Z</time></trkpt><trkpt lat="44.16768152815" lon="12.172028480902561"><ele>32.0</ele><time>2026-04-18T09:26:29.98Z</time></trkpt><trkpt lat="44.167723329361216" lon="12.171928565173834"><ele>31.333333333333332</ele><time>2026-04-18T09:26:30.98Z</time></trkpt><trkpt lat="44.167761432946314" lon="12.171838500369956"><ele>30.666666666666664</ele><time>2026-04-18T09:26:31.98Z</time></trkpt><trkpt lat="44.1677947127247" lon="12.171762048976392"><ele>30.0</ele><time>2026-04-18T09:26:32.98Z</time></trkpt><trkpt lat="44.16785774407033" lon="12.17160931941322"><ele>29.333333333333336</ele><time>2026-04-18T09:26:34.98Z</time></trkpt><trkpt lat="44.16789695180677" lon="12.171511982682206"><ele>28.666666666666668</ele><time>2026-04-18T09:26:35.98Z</time></trkpt><trkpt lat="44.16794608763405" lon="12.171403753802192"><ele>28.0</ele><time>2026-04-18T09:26:36.98Z</time></trkpt><trkpt lat="44.16799462046965" lon="12.171281502897143"><ele>27.799999999999997</ele><time>2026-04-18T09:26:37.98Z</time></trkpt><trkpt lat="44.16804390781416" lon="12.171155828983506"><ele>27.599999999999998</ele><time>2026-04-18T09:26:38.98Z</time></trkpt><trkpt lat="44.16810196828779" lon="12.171019435220375"><ele>27.400000000000002</ele><time>2026-04-18T09:26:39.98Z</time></trkpt><trkpt lat="44.168155668946625" lon="12.170899330440463"><ele>27.200000000000003</ele><time>2026-04-18T09:26:40.98Z</time></trkpt><trkpt lat="44.1682060308211" lon="12.1707746534262"><ele>27.0</ele><time>2026-04-18T09:26:41.98Z</time></trkpt><trkpt lat="44.16825468592963" lon="12.170649558490704"><ele>26.6</ele><time>2026-04-18T09:26:42.98Z</time></trkpt><trkpt lat="44.168311716945134" lon="12.170520797113342"><ele>26.200000000000003</ele><time>2026-04-18T09:26:43.98Z</time></trkpt><trkpt lat="44.16836454721646" lon="12.170398667215187"><ele>25.8</ele><time>2026-04-18T09:26:44.98Z</time></trkpt><trkpt lat="44.16841730946686" lon="12.170264132723311"><ele>25.4</ele><time>2026-04-18T09:26:45.98Z</time></trkpt><trkpt lat="44.168471423412704" lon="12.170130968156846"><ele>25.0</ele><time>2026-04-18T09:26:46.98Z</time></trkpt><trkpt lat="44.16852645993389" lon="12.170000213022108"><ele>25.0</ele><time>2026-04-18T09:26:47.98Z</time></trkpt><trkpt lat="44.16858421558131" lon="12.169865827523118"><ele>25.0</ele><time>2026-04-18T09:26:48.98Z</time></trkpt><trkpt lat="44.16863369365589" lon="12.169731049016809"><ele>25.0</ele><time>2026-04-18T09:26:49.98Z</time></trkpt><trkpt lat="44.16869080347857" lon="12.169594307659205"><ele>25.0</ele><time>2026-04-18T09:26:50.98Z</time></trkpt><trkpt lat="44.16874588649149" lon="12.16947258008442"><ele>25.0</ele><time>2026-04-18T09:26:51.98Z</time></trkpt><trkpt lat="44.16880014711208" lon="12.169338764571817"><ele>25.4</ele><time>2026-04-18T09:26:52.98Z</time></trkpt><trkpt lat="44.168853061071886" lon="12.16921210164416"><ele>25.8</ele><time>2026-04-18T09:26:53.98Z</time></trkpt><trkpt lat="44.16890420518804" lon="12.169100882475265"><ele>26.200000000000003</ele><time>2026-04-18T09:26:54.98Z</time></trkpt><trkpt lat="44.168948931752055" lon="12.16898733501819"><ele>26.6</ele><time>2026-04-18T09:26:55.98Z</time></trkpt><trkpt lat="44.16899195961984" lon="12.16887056866296"><ele>27.0</ele><time>2026-04-18T09:26:56.98Z</time></trkpt><trkpt lat="44.1690370577756" lon="12.168773662630446"><ele>27.0</ele><time>2026-04-18T09:26:57.98Z</time></trkpt><trkpt lat="44.169087452526405" lon="12.168645952562084"><ele>27.0</ele><time>2026-04-18T09:26:58.98Z</time></trkpt><trkpt lat="44.16914122642042" lon="12.168499720200998"><ele>27.0</ele><time>2026-04-18T09:26:59.98Z</time></trkpt><trkpt lat="44.16919952585693" lon="12.168345879598885"><ele>27.0</ele><time>2026-04-18T09:27:00.98Z</time></trkpt><trkpt lat="44.169262412579165" lon="12.168204176919852"><ele>27.0</ele><time>2026-04-18T09:27:01.98Z</time></trkpt><trkpt lat="44.16933085342321" lon="12.168039521715224"><ele>27.0</ele><time>2026-04-18T09:27:02.98Z</time></trkpt><trkpt lat="44.169398982346344" lon="12.167885966484844"><ele>27.0</ele><time>2026-04-18T09:27:03.98Z</time></trkpt><trkpt lat="44.16946167802397" lon="12.1677264950452"><ele>27.0</ele><time>2026-04-18T09:27:04.98Z</time></trkpt><trkpt lat="44.16952796365616" lon="12.167562152878768"><ele>27.0</ele><time>2026-04-18T09:27:05.98Z</time></trkpt><trkpt lat="44.16960503869364" lon="12.167389883388836"><ele>27.0</ele><time>2026-04-18T09:27:06.98Z</time></trkpt><trkpt lat="44.16967588138023" lon="12.167218215332605"><ele>27.0</ele><time>2026-04-18T09:27:07.98Z</time></trkpt><trkpt lat="44.16974758209044" lon="12.167046492020662"><ele>27.0</ele><time>2026-04-18T09:27:08.98Z</time></trkpt><trkpt lat="44.16981809254367" lon="12.16687709312433"><ele>27.0</ele><time>2026-04-18T09:27:09.98Z</time></trkpt><trkpt lat="44.1698899373414" lon="12.16670549416181"><ele>27.0</ele><time>2026-04-18T09:27:10.98Z</time></trkpt><trkpt lat="44.16995869958277" lon="12.166531681584802"><ele>27.0</ele><time>2026-04-18T09:27:11.98Z</time></trkpt><trkpt lat="44.170032556013396" lon="12.166352706168087"><ele>27.0</ele><time>2026-04-18T09:27:12.98Z</time></trkpt><trkpt lat="44.17010170995599" lon="12.166174124273645"><ele>27.0</ele><time>2026-04-18T09:27:13.98Z</time></trkpt><trkpt lat="44.17017691218583" lon="12.16600663174344"><ele>27.0</ele><time>2026-04-18T09:27:14.98Z</time></trkpt><trkpt lat="44.170251293096165" lon="12.165838045666423"><ele>27.0</ele><time>2026-04-18T09:27:15.98Z</time></trkpt><trkpt lat="44.17031678073077" lon="12.165668681094397"><ele>27.0</ele><time>2026-04-18T09:27:16.98Z</time></trkpt><trkpt lat="44.17038843066564" lon="12.165496749193741"><ele>27.0</ele><time>2026-04-18T09:27:17.98Z</time></trkpt><trkpt lat="44.17045662190693" lon="12.165314026740342"><ele>27.0</ele><time>2026-04-18T09:27:18.98Z</time></trkpt><trkpt lat="44.17052661788579" lon="12.165143157557718"><ele>27.0</ele><time>2026-04-18T09:27:19.98Z</time></trkpt><trkpt lat="44.17059484682783" lon="12.164976948485144"><ele>27.0</ele><time>2026-04-18T09:27:20.98Z</time></trkpt><trkpt lat="44.170654088473164" lon="12.164822932298327"><ele>27.25</ele><time>2026-04-18T09:27:21.98Z</time></trkpt><trkpt lat="44.17071865656911" lon="12.16466191848326"><ele>27.5</ele><time>2026-04-18T09:27:22.98Z</time></trkpt><trkpt lat="44.17078952603773" lon="12.164509079920695"><ele>27.75</ele><time>2026-04-18T09:27:23.98Z</time></trkpt><trkpt lat="44.17085418000549" lon="12.164348398948015"><ele>28.0</ele><time>2026-04-18T09:27:24.98Z</time></trkpt><trkpt lat="44.17091701971733" lon="12.16419142619139"><ele>28.0</ele><time>2026-04-18T09:27:25.98Z</time></trkpt><trkpt lat="44.17098396135075" lon="12.164024942273203"><ele>28.0</ele><time>2026-04-18T09:27:26.98Z</time></trkpt><trkpt lat="44.171050951077234" lon="12.163862163810371"><ele>28.0</ele><time>2026-04-18T09:27:27.98Z</time></trkpt><trkpt lat="44.17111525173743" lon="12.1636965541796"><ele>28.0</ele><time>2026-04-18T09:27:28.98Z</time></trkpt><trkpt lat="44.1711869722756" lon="12.163533794847808"><ele>28.0</ele><time>2026-04-18T09:27:29.98Z</time></trkpt><trkpt lat="44.171251816751514" lon="12.163361592674661"><ele>28.0</ele><time>2026-04-18T09:27:30.98Z</time></trkpt><trkpt lat="44.17131934309235" lon="12.16319355936707"><ele>28.0</ele><time>2026-04-18T09:27:31.98Z</time></trkpt><trkpt lat="44.171380641007104" lon="12.163027875117765"><ele>28.0</ele><time>2026-04-18T09:27:32.98Z</time></trkpt><trkpt lat="44.17145171129196" lon="12.162860738863566"><ele>27.75</ele><time>2026-04-18T09:27:33.98Z</time></trkpt><trkpt lat="44.17151264038559" lon="12.162701386561112"><ele>27.5</ele><time>2026-04-18T09:27:34.98Z</time></trkpt><trkpt lat="44.17157409416433" lon="12.162544276149106"><ele>27.25</ele><time>2026-04-18T09:27:35.98Z</time></trkpt><trkpt lat="44.17163636694068" lon="12.16240226569066"><ele>27.0</ele><time>2026-04-18T09:27:36.98Z</time></trkpt><trkpt lat="44.17170214223359" lon="12.162266639151126"><ele>27.0</ele><time>2026-04-18T09:27:37.98Z</time></trkpt><trkpt lat="44.17177026954965" lon="12.16213113514157"><ele>27.000000000000004</ele><time>2026-04-18T09:27:38.98Z</time></trkpt><trkpt lat="44.17182551689478" lon="12.162008467476543"><ele>27.000000000000004</ele><time>2026-04-18T09:27:39.98Z</time></trkpt><trkpt lat="44.171891750485045" lon="12.161894075858363"><ele>27.0</ele><time>2026-04-18T09:27:40.98Z</time></trkpt><trkpt lat="44.17194955728656" lon="12.161785940952987"><ele>27.0</ele><time>2026-04-18T09:27:41.98Z</time></trkpt><trkpt lat="44.17200392485571" lon="12.161685749524292"><ele>27.0</ele><time>2026-04-18T09:27:42.98Z</time></trkpt><trkpt lat="44.17205746156879" lon="12.161600269590238"><ele>27.0</ele><time>2026-04-18T09:27:43.98Z</time></trkpt><trkpt lat="44.172106068546405" lon="12.161528244859097"><ele>27.0</ele><time>2026-04-18T09:27:44.98Z</time></trkpt><trkpt lat="44.17219731734575" lon="12.161418472096454"><ele>27.0</ele><time>2026-04-18T09:27:46.98Z</time></trkpt><trkpt lat="44.172269099184724" lon="12.161376714289679"><ele>27.0</ele><time>2026-04-18T09:27:47.98Z</time></trkpt><trkpt lat="44.17234976161387" lon="12.161341009209636"><ele>27.0</ele><time>2026-04-18T09:27:48.98Z</time></trkpt><trkpt lat="44.172414999109236" lon="12.161308081844394"><ele>26.666666666666668</ele><time>2026-04-18T09:27:49.98Z</time></trkpt><trkpt lat="44.17247387080063" lon="12.161252441773692"><ele>26.333333333333336</ele><time>2026-04-18T09:27:50.98Z</time></trkpt><trkpt lat="44.17251289514389" lon="12.161156759225756"><ele>26.0</ele><time>2026-04-18T09:27:51.98Z</time></trkpt><trkpt lat="44.17254464635374" lon="12.161073929990776"><ele>25.666666666666668</ele><time>2026-04-18T09:27:52.98Z</time></trkpt><trkpt lat="44.172523192843826" lon="12.16095112686829"><ele>25.333333333333336</ele><time>2026-04-18T09:27:53.98Z</time></trkpt><trkpt lat="44.172505230645626" lon="12.160831162853835"><ele>25.0</ele><time>2026-04-18T09:27:54.98Z</time></trkpt><trkpt lat="44.17250670199721" lon="12.160711914264192"><ele>25.4</ele><time>2026-04-18T09:27:55.98Z</time></trkpt><trkpt lat="44.17251210325987" lon="12.16056647831405"><ele>25.8</ele><time>2026-04-18T09:27:56.98Z</time></trkpt><trkpt lat="44.17253612592574" lon="12.160420684623672"><ele>26.200000000000003</ele><time>2026-04-18T09:27:57.98Z</time></trkpt><trkpt lat="44.17256700535889" lon="12.160302031616656"><ele>26.6</ele><time>2026-04-18T09:27:58.98Z</time></trkpt><trkpt lat="44.17259619248705" lon="12.160176895554455"><ele>27.0</ele><time>2026-04-18T09:27:59.98Z</time></trkpt><trkpt lat="44.1726364748529" lon="12.160056174099456"><ele>27.0</ele><time>2026-04-18T09:28:00.98Z</time></trkpt><trkpt lat="44.17268255742033" lon="12.159917451986543"><ele>27.000000000000004</ele><time>2026-04-18T09:28:01.98Z</time></trkpt><trkpt lat="44.17272935576372" lon="12.159777901025143"><ele>27.000000000000004</ele><time>2026-04-18T09:28:02.98Z</time></trkpt><trkpt lat="44.172780678451936" lon="12.159634846553846"><ele>27.0</ele><time>2026-04-18T09:28:03.98Z</time></trkpt><trkpt lat="44.17285043368848" lon="12.159510442453536"><ele>27.0</ele><time>2026-04-18T09:28:04.98Z</time></trkpt><trkpt lat="44.17290394271954" lon="12.159372866347562"><ele>27.0</ele><time>2026-04-18T09:28:05.98Z</time></trkpt><trkpt lat="44.17296268971951" lon="12.159230729688453"><ele>27.0</ele><time>2026-04-18T09:28:06.98Z</time></trkpt><trkpt lat="44.17302198192112" lon="12.15909767911859"><ele>27.0</ele><time>2026-04-18T09:28:07.98Z</time></trkpt><trkpt lat="44.17307912162215" lon="12.158945751861502"><ele>27.0</ele><time>2026-04-18T09:28:08.98Z</time></trkpt><trkpt lat="44.17313395309972" lon="12.158811522796158"><ele>27.5</ele><time>2026-04-18T09:28:09.98Z</time></trkpt><trkpt lat="44.17319418162788" lon="12.158663618234351"><ele>28.0</ele><time>2026-04-18T09:28:10.98Z</time></trkpt><trkpt lat="44.17326112334386" lon="12.158518084094261"><ele>28.5</ele><time>2026-04-18T09:28:11.979Z</time></trkpt><trkpt lat="44.17331507082989" lon="12.15837640950774"><ele>29.0</ele><time>2026-04-18T09:28:12.979Z</time></trkpt><trkpt lat="44.173375116938416" lon="12.15823164170656"><ele>27.75</ele><time>2026-04-18T09:28:13.98Z</time></trkpt><trkpt lat="44.173434867560225" lon="12.158075407122022"><ele>26.5</ele><time>2026-04-18T09:28:14.98Z</time></trkpt><trkpt lat="44.17349717105888" lon="12.157924616528653"><ele>25.25</ele><time>2026-04-18T09:28:15.98Z</time></trkpt><trkpt lat="44.173563953135854" lon="12.157779343213738"><ele>24.0</ele><time>2026-04-18T09:28:16.98Z</time></trkpt><trkpt lat="44.173631437688236" lon="12.157625044908393"><ele>24.0</ele><time>2026-04-18T09:28:17.98Z</time></trkpt><trkpt lat="44.17369683446737" lon="12.157470692532678"><ele>24.0</ele><time>2026-04-18T09:28:18.98Z</time></trkpt><trkpt lat="44.17376518676764" lon="12.157315673757315"><ele>24.0</ele><time>2026-04-18T09:28:19.98Z</time></trkpt><trkpt lat="44.1738292382403" lon="12.157158247097183"><ele>24.0</ele><time>2026-04-18T09:28:20.98Z</time></trkpt><trkpt lat="44.173891715762274" lon="12.156998262448342"><ele>24.0</ele><time>2026-04-18T09:28:21.98Z</time></trkpt><trkpt lat="44.17395934583493" lon="12.15684414231582"><ele>24.0</ele><time>2026-04-18T09:28:22.98Z</time></trkpt><trkpt lat="44.17402058354206" lon="12.156682062180494"><ele>24.0</ele><time>2026-04-18T09:28:23.981Z</time></trkpt><trkpt lat="44.17408413504743" lon="12.156529809572211"><ele>24.0</ele><time>2026-04-18T09:28:24.981Z</time></trkpt><trkpt lat="44.17416277713399" lon="12.15636312344108"><ele>24.5</ele><time>2026-04-18T09:28:25.98Z</time></trkpt><trkpt lat="44.174231398896595" lon="12.156193503680669"><ele>25.0</ele><time>2026-04-18T09:28:26.98Z</time></trkpt><trkpt lat="44.17428848185007" lon="12.156032399252014"><ele>25.5</ele><time>2026-04-18T09:28:27.98Z</time></trkpt><trkpt lat="44.17436082680794" lon="12.155859387919183"><ele>26.0</ele><time>2026-04-18T09:28:28.98Z</time></trkpt><trkpt lat="44.1744511699689" lon="12.155697490957454"><ele>26.0</ele><time>2026-04-18T09:28:29.98Z</time></trkpt><trkpt lat="44.1745198724171" lon="12.155527134075816"><ele>26.0</ele><time>2026-04-18T09:28:30.98Z</time></trkpt><trkpt lat="44.17458770952637" lon="12.155352310735873"><ele>26.0</ele><time>2026-04-18T09:28:31.98Z</time></trkpt><trkpt lat="44.174658865401476" lon="12.155176579623033"><ele>26.0</ele><time>2026-04-18T09:28:32.98Z</time></trkpt><trkpt lat="44.17472509806153" lon="12.155010356182437"><ele>26.0</ele><time>2026-04-18T09:28:33.98Z</time></trkpt><trkpt lat="44.17479772457658" lon="12.154836679516269"><ele>26.0</ele><time>2026-04-18T09:28:34.98Z</time></trkpt><trkpt lat="44.17487328903489" lon="12.154656148024701"><ele>26.0</ele><time>2026-04-18T09:28:35.98Z</time></trkpt><trkpt lat="44.17494551495516" lon="12.154478691258234"><ele>26.0</ele><time>2026-04-18T09:28:36.98Z</time></trkpt><trkpt lat="44.17502918833251" lon="12.154306096881204"><ele>26.0</ele><time>2026-04-18T09:28:37.98Z</time></trkpt><trkpt lat="44.17509679483481" lon="12.154127377572797"><ele>26.0</ele><time>2026-04-18T09:28:38.98Z</time></trkpt><trkpt lat="44.17516473392455" lon="12.153954530085459"><ele>26.0</ele><time>2026-04-18T09:28:39.98Z</time></trkpt><trkpt lat="44.17523281654638" lon="12.153779962316584"><ele>26.0</ele><time>2026-04-18T09:28:40.98Z</time></trkpt><trkpt lat="44.17529928849221" lon="12.15361144104967"><ele>26.0</ele><time>2026-04-18T09:28:41.98Z</time></trkpt><trkpt lat="44.17536823512838" lon="12.153433963253354"><ele>26.0</ele><time>2026-04-18T09:28:42.98Z</time></trkpt><trkpt lat="44.17544146866883" lon="12.15326432847125"><ele>26.0</ele><time>2026-04-18T09:28:43.98Z</time></trkpt><trkpt lat="44.17551579121471" lon="12.15309153503781"><ele>26.0</ele><time>2026-04-18T09:28:44.98Z</time></trkpt><trkpt lat="44.175586680826754" lon="12.152918237120764"><ele>25.75</ele><time>2026-04-18T09:28:45.98Z</time></trkpt><trkpt lat="44.17565459683839" lon="12.152741608861232"><ele>25.5</ele><time>2026-04-18T09:28:46.98Z</time></trkpt><trkpt lat="44.175728126334405" lon="12.152572475207668"><ele>25.25</ele><time>2026-04-18T09:28:47.98Z</time></trkpt><trkpt lat="44.1757968222875" lon="12.152405947513204"><ele>25.0</ele><time>2026-04-18T09:28:48.98Z</time></trkpt><trkpt lat="44.17587290352464" lon="12.152231624836643"><ele>25.0</ele><time>2026-04-18T09:28:49.98Z</time></trkpt><trkpt lat="44.17595177169839" lon="12.152055767353437"><ele>25.0</ele><time>2026-04-18T09:28:50.98Z</time></trkpt><trkpt lat="44.17603038158865" lon="12.151876499054076"><ele>25.0</ele><time>2026-04-18T09:28:51.98Z</time></trkpt><trkpt lat="44.1761102797785" lon="12.15169520660143"><ele>25.0</ele><time>2026-04-18T09:28:52.98Z</time></trkpt><trkpt lat="44.17617889653689" lon="12.1515115352556"><ele>25.0</ele><time>2026-04-18T09:28:53.98Z</time></trkpt><trkpt lat="44.17625509880732" lon="12.151330519864425"><ele>25.0</ele><time>2026-04-18T09:28:54.98Z</time></trkpt><trkpt lat="44.17632722645016" lon="12.151138393841155"><ele>25.0</ele><time>2026-04-18T09:28:55.98Z</time></trkpt><trkpt lat="44.176406795133985" lon="12.150958529638677"><ele>25.0</ele><time>2026-04-18T09:28:56.98Z</time></trkpt><trkpt lat="44.176481352908006" lon="12.1507735884512"><ele>25.0</ele><time>2026-04-18T09:28:57.98Z</time></trkpt><trkpt lat="44.17655951147253" lon="12.150587036083973"><ele>25.333333333333336</ele><time>2026-04-18T09:28:58.98Z</time></trkpt><trkpt lat="44.17663676290043" lon="12.1504037553792"><ele>25.666666666666664</ele><time>2026-04-18T09:28:59.98Z</time></trkpt><trkpt lat="44.17671475359465" lon="12.150221102313889"><ele>26.0</ele><time>2026-04-18T09:29:00.98Z</time></trkpt><trkpt lat="44.176795426151784" lon="12.150040688211865"><ele>26.0</ele><time>2026-04-18T09:29:01.98Z</time></trkpt><trkpt lat="44.17687465203527" lon="12.149854725432323"><ele>26.0</ele><time>2026-04-18T09:29:02.98Z</time></trkpt><trkpt lat="44.17695210328795" lon="12.149660462092312"><ele>26.0</ele><time>2026-04-18T09:29:03.98Z</time></trkpt><trkpt lat="44.17703296288899" lon="12.149466679553157"><ele>26.0</ele><time>2026-04-18T09:29:04.98Z</time></trkpt><trkpt lat="44.17711779931294" lon="12.149270257243199"><ele>26.0</ele><time>2026-04-18T09:29:05.98Z</time></trkpt><trkpt lat="44.17720060483395" lon="12.14906650037167"><ele>26.0</ele><time>2026-04-18T09:29:06.98Z</time></trkpt><trkpt lat="44.177283844146835" lon="12.148868481383005"><ele>26.333333333333332</ele><time>2026-04-18T09:29:07.98Z</time></trkpt><trkpt lat="44.17736955934731" lon="12.148671764974242"><ele>26.666666666666664</ele><time>2026-04-18T09:29:08.98Z</time></trkpt><trkpt lat="44.17745565879407" lon="12.148475707627991"><ele>27.0</ele><time>2026-04-18T09:29:09.98Z</time></trkpt><trkpt lat="44.177536848578434" lon="12.148269661377766"><ele>27.333333333333336</ele><time>2026-04-18T09:29:10.98Z</time></trkpt><trkpt lat="44.17761850100336" lon="12.148069726989693"><ele>27.666666666666668</ele><time>2026-04-18T09:29:11.98Z</time></trkpt><trkpt lat="44.17769961658115" lon="12.147871706067033"><ele>28.0</ele><time>2026-04-18T09:29:12.98Z</time></trkpt><trkpt lat="44.17777977550779" lon="12.14767560807255"><ele>28.0</ele><time>2026-04-18T09:29:13.98Z</time></trkpt><trkpt lat="44.17785979441855" lon="12.147481120288495"><ele>28.0</ele><time>2026-04-18T09:29:14.98Z</time></trkpt><trkpt lat="44.1779486142028" lon="12.147282045163365"><ele>28.0</ele><time>2026-04-18T09:29:15.98Z</time></trkpt><trkpt lat="44.17803714970214" lon="12.147089401160855"><ele>27.666666666666668</ele><time>2026-04-18T09:29:16.98Z</time></trkpt><trkpt lat="44.17811746449958" lon="12.146890428498391"><ele>27.333333333333336</ele><time>2026-04-18T09:29:17.98Z</time></trkpt><trkpt lat="44.178198263465795" lon="12.146681161893719"><ele>27.0</ele><time>2026-04-18T09:29:18.98Z</time></trkpt><trkpt lat="44.17828295573306" lon="12.146476692661702"><ele>26.666666666666664</ele><time>2026-04-18T09:29:19.98Z</time></trkpt><trkpt lat="44.17837139010558" lon="12.146253947738309"><ele>26.333333333333332</ele><time>2026-04-18T09:29:20.98Z</time></trkpt><trkpt lat="44.17846062150769" lon="12.14604535244308"><ele>26.0</ele><time>2026-04-18T09:29:21.98Z</time></trkpt><trkpt lat="44.17855079699438" lon="12.145827445799588"><ele>25.333333333333332</ele><time>2026-04-18T09:29:22.98Z</time></trkpt><trkpt lat="44.17863686872191" lon="12.14561297163362"><ele>24.666666666666664</ele><time>2026-04-18T09:29:23.98Z</time></trkpt><trkpt lat="44.17872310671532" lon="12.145409945961955"><ele>24.0</ele><time>2026-04-18T09:29:24.98Z</time></trkpt><trkpt lat="44.17881215843031" lon="12.145204434312243"><ele>24.0</ele><time>2026-04-18T09:29:25.98Z</time></trkpt><trkpt lat="44.17889525164639" lon="12.145001280087655"><ele>24.0</ele><time>2026-04-18T09:29:26.98Z</time></trkpt><trkpt lat="44.17897775164455" lon="12.144802095449007"><ele>24.0</ele><time>2026-04-18T09:29:27.98Z</time></trkpt><trkpt lat="44.1790629597269" lon="12.144606275036741"><ele>24.666666666666664</ele><time>2026-04-18T09:29:28.98Z</time></trkpt><trkpt lat="44.17914599695559" lon="12.144404019422817"><ele>25.333333333333332</ele><time>2026-04-18T09:29:29.98Z</time></trkpt><trkpt lat="44.17922571246055" lon="12.144211959429446"><ele>26.0</ele><time>2026-04-18T09:29:30.98Z</time></trkpt><trkpt lat="44.17930946873504" lon="12.144014438598083"><ele>26.0</ele><time>2026-04-18T09:29:31.98Z</time></trkpt><trkpt lat="44.17938885394515" lon="12.143822809064499"><ele>26.0</ele><time>2026-04-18T09:29:32.98Z</time></trkpt><trkpt lat="44.17946891764579" lon="12.14362304535164"><ele>26.0</ele><time>2026-04-18T09:29:33.98Z</time></trkpt><trkpt lat="44.17954765228402" lon="12.14342702246738"><ele>26.0</ele><time>2026-04-18T09:29:34.98Z</time></trkpt><trkpt lat="44.179630323123845" lon="12.1432365251782"><ele>26.0</ele><time>2026-04-18T09:29:35.98Z</time></trkpt><trkpt lat="44.179709858847424" lon="12.143046775973088"><ele>26.0</ele><time>2026-04-18T09:29:36.98Z</time></trkpt><trkpt lat="44.17978482464279" lon="12.142861271765419"><ele>25.75</ele><time>2026-04-18T09:29:37.98Z</time></trkpt><trkpt lat="44.17985676359582" lon="12.142681311266031"><ele>25.5</ele><time>2026-04-18T09:29:38.98Z</time></trkpt><trkpt lat="44.17993016396648" lon="12.142501976453392"><ele>25.25</ele><time>2026-04-18T09:29:39.98Z</time></trkpt><trkpt lat="44.180002950918066" lon="12.142323449594347"><ele>25.0</ele><time>2026-04-18T09:29:40.98Z</time></trkpt><trkpt lat="44.1800780883671" lon="12.142147416061611"><ele>25.0</ele><time>2026-04-18T09:29:41.98Z</time></trkpt><trkpt lat="44.18014938361627" lon="12.141969385144163"><ele>25.0</ele><time>2026-04-18T09:29:42.98Z</time></trkpt><trkpt lat="44.18022374650901" lon="12.141798447381092"><ele>25.0</ele><time>2026-04-18T09:29:43.98Z</time></trkpt><trkpt lat="44.18029715054823" lon="12.141635886801247"><ele>25.0</ele><time>2026-04-18T09:29:44.98Z</time></trkpt><trkpt lat="44.18036966218684" lon="12.141475273998635"><ele>25.0</ele><time>2026-04-18T09:29:45.98Z</time></trkpt><trkpt lat="44.18044910214913" lon="12.141314655601354"><ele>25.0</ele><time>2026-04-18T09:29:46.98Z</time></trkpt><trkpt lat="44.18052990936313" lon="12.141153379382938"><ele>25.0</ele><time>2026-04-18T09:29:47.98Z</time></trkpt><trkpt lat="44.18061306846754" lon="12.140995284735212"><ele>25.0</ele><time>2026-04-18T09:29:48.98Z</time></trkpt><trkpt lat="44.18069822932429" lon="12.140839029171952"><ele>25.5</ele><time>2026-04-18T09:29:49.98Z</time></trkpt><trkpt lat="44.18077984136966" lon="12.140691268298527"><ele>26.0</ele><time>2026-04-18T09:29:50.98Z</time></trkpt><trkpt lat="44.18086142135483" lon="12.140551083995764"><ele>26.5</ele><time>2026-04-18T09:29:51.98Z</time></trkpt><trkpt lat="44.18093522201584" lon="12.140423125176431"><ele>27.0</ele><time>2026-04-18T09:29:52.98Z</time></trkpt><trkpt lat="44.18100874793948" lon="12.140308911226667"><ele>27.0</ele><time>2026-04-18T09:29:53.98Z</time></trkpt><trkpt lat="44.181075186195976" lon="12.140196756329804"><ele>27.0</ele><time>2026-04-18T09:29:54.98Z</time></trkpt><trkpt lat="44.181140822127" lon="12.140103085678161"><ele>27.0</ele><time>2026-04-18T09:29:55.98Z</time></trkpt><trkpt lat="44.181208959140214" lon="12.140014024442863"><ele>27.0</ele><time>2026-04-18T09:29:56.98Z</time></trkpt><trkpt lat="44.18127535231809" lon="12.139953439301246"><ele>27.0</ele><time>2026-04-18T09:29:57.979Z</time></trkpt><trkpt lat="44.18134092241428" lon="12.139907069268075"><ele>27.0</ele><time>2026-04-18T09:29:58.979Z</time></trkpt><trkpt lat="44.18140898446427" lon="12.139871381615029"><ele>27.0</ele><time>2026-04-18T09:29:59.979Z</time></trkpt><trkpt lat="44.18148488431203" lon="12.13986335064529"><ele>27.0</ele><time>2026-04-18T09:30:00.979Z</time></trkpt><trkpt lat="44.18157054695107" lon="12.139857250778165"><ele>27.0</ele><time>2026-04-18T09:30:01.979Z</time></trkpt><trkpt lat="44.18165523049576" lon="12.13985407584442"><ele>27.0</ele><time>2026-04-18T09:30:02.979Z</time></trkpt><trkpt lat="44.18174140602718" lon="12.139832255646946"><ele>27.0</ele><time>2026-04-18T09:30:03.979Z</time></trkpt><trkpt lat="44.181823354995764" lon="12.139773484262664"><ele>27.0</ele><time>2026-04-18T09:30:04.979Z</time></trkpt><trkpt lat="44.181885997302125" lon="12.139693840448016"><ele>26.833333333333332</ele><time>2026-04-18T09:30:05.979Z</time></trkpt><trkpt lat="44.181922607099075" lon="12.13960164596071"><ele>26.666666666666664</ele><time>2026-04-18T09:30:06.979Z</time></trkpt><trkpt lat="44.18193867972363" lon="12.139492843010354"><ele>26.5</ele><time>2026-04-18T09:30:07.979Z</time></trkpt><trkpt lat="44.18193649389141" lon="12.139379689132321"><ele>26.333333333333332</ele><time>2026-04-18T09:30:08.979Z</time></trkpt><trkpt lat="44.18190735133746" lon="12.139274588904694"><ele>26.166666666666664</ele><time>2026-04-18T09:30:09.979Z</time></trkpt><trkpt lat="44.18186276831031" lon="12.139183670319442"><ele>26.0</ele><time>2026-04-18T09:30:10.979Z</time></trkpt><trkpt lat="44.18172822951034" lon="12.13904622739763"><ele>26.333333333333332</ele><time>2026-04-18T09:30:12.979Z</time></trkpt><trkpt lat="44.18164687417742" lon="12.138989272113513"><ele>26.666666666666664</ele><time>2026-04-18T09:30:13.979Z</time></trkpt><trkpt lat="44.181589193150785" lon="12.138922335443862"><ele>27.0</ele><time>2026-04-18T09:30:14.979Z</time></trkpt><trkpt lat="44.181550010272424" lon="12.138843740734536"><ele>27.333333333333336</ele><time>2026-04-18T09:30:15.979Z</time></trkpt><trkpt lat="44.181533423329796" lon="12.138753320498166"><ele>27.666666666666668</ele><time>2026-04-18T09:30:16.979Z</time></trkpt><trkpt lat="44.18153616911824" lon="12.138657617828727"><ele>28.0</ele><time>2026-04-18T09:30:17.979Z</time></trkpt><trkpt lat="44.18157197735193" lon="12.138556811794126"><ele>28.0</ele><time>2026-04-18T09:30:18.979Z</time></trkpt><trkpt lat="44.18162110155722" lon="12.138446420246472"><ele>27.999999999999996</ele><time>2026-04-18T09:30:19.98Z</time></trkpt><trkpt lat="44.1816745753126" lon="12.138329500532834"><ele>27.999999999999996</ele><time>2026-04-18T09:30:20.98Z</time></trkpt><trkpt lat="44.18172510024338" lon="12.138203734899376"><ele>28.0</ele><time>2026-04-18T09:30:21.98Z</time></trkpt><trkpt lat="44.18178265714873" lon="12.138069398382724"><ele>28.0</ele><time>2026-04-18T09:30:22.98Z</time></trkpt><trkpt lat="44.18183699811068" lon="12.137925435818227"><ele>28.0</ele><time>2026-04-18T09:30:23.98Z</time></trkpt><trkpt lat="44.18190080563376" lon="12.137779463323694"><ele>28.0</ele><time>2026-04-18T09:30:24.98Z</time></trkpt><trkpt lat="44.18196335864871" lon="12.137640898922713"><ele>28.0</ele><time>2026-04-18T09:30:25.98Z</time></trkpt><trkpt lat="44.1820255380796" lon="12.13750545386847"><ele>28.0</ele><time>2026-04-18T09:30:26.979Z</time></trkpt><trkpt lat="44.182084374332035" lon="12.137378337760149"><ele>28.25</ele><time>2026-04-18T09:30:27.979Z</time></trkpt><trkpt lat="44.18214255559736" lon="12.137244526679085"><ele>28.5</ele><time>2026-04-18T09:30:28.98Z</time></trkpt><trkpt lat="44.18219844755504" lon="12.137097274283612"><ele>28.75</ele><time>2026-04-18T09:30:29.98Z</time></trkpt><trkpt lat="44.18224755089804" lon="12.136952934938085"><ele>29.0</ele><time>2026-04-18T09:30:30.98Z</time></trkpt><trkpt lat="44.18229294222431" lon="12.136809501952232"><ele>28.999999999999996</ele><time>2026-04-18T09:30:31.98Z</time></trkpt><trkpt lat="44.18234616532743" lon="12.136687502464783"><ele>29.0</ele><time>2026-04-18T09:30:32.98Z</time></trkpt><trkpt lat="44.18239323930326" lon="12.136583073102438"><ele>29.0</ele><time>2026-04-18T09:30:33.98Z</time></trkpt><trkpt lat="44.182429410108995" lon="12.136479304665453"><ele>29.0</ele><time>2026-04-18T09:30:34.98Z</time></trkpt><trkpt lat="44.182456984014195" lon="12.136380960166715"><ele>28.999999999999996</ele><time>2026-04-18T09:30:35.98Z</time></trkpt><trkpt lat="44.182504121587044" lon="12.13630653448305"><ele>29.0</ele><time>2026-04-18T09:30:36.98Z</time></trkpt><trkpt lat="44.18254563784554" lon="12.136166463943356"><ele>29.0</ele><time>2026-04-18T09:30:38.98Z</time></trkpt><trkpt lat="44.18259396918868" lon="12.136056687404961"><ele>29.0</ele><time>2026-04-18T09:30:40.98Z</time></trkpt><trkpt lat="44.1826403047315" lon="12.135960082522134"><ele>29.0</ele><time>2026-04-18T09:30:48.98Z</time></trkpt><trkpt lat="44.18250527012616" lon="12.135810058243198"><ele>29.0</ele><time>2026-04-18T09:30:50.98Z</time></trkpt><trkpt lat="44.182400727776844" lon="12.135753028152982"><ele>28.999999999999996</ele><time>2026-04-18T09:30:52.98Z</time></trkpt><trkpt lat="44.182331648138295" lon="12.135730604995413"><ele>29.0</ele><time>2026-04-18T09:30:53.98Z</time></trkpt><trkpt lat="44.18225549197317" lon="12.135684000548443"><ele>29.0</ele><time>2026-04-18T09:30:54.98Z</time></trkpt><trkpt lat="44.182174001608615" lon="12.13563668797068"><ele>29.0</ele><time>2026-04-18T09:30:55.98Z</time></trkpt><trkpt lat="44.1820938051593" lon="12.135586544824365"><ele>28.999999999999996</ele><time>2026-04-18T09:30:56.98Z</time></trkpt><trkpt lat="44.18200455350514" lon="12.135536982790848"><ele>29.0</ele><time>2026-04-18T09:30:57.98Z</time></trkpt><trkpt lat="44.18191316357208" lon="12.135486098573459"><ele>29.0</ele><time>2026-04-18T09:30:58.98Z</time></trkpt><trkpt lat="44.181818243035565" lon="12.135432007563614"><ele>29.0</ele><time>2026-04-18T09:30:59.98Z</time></trkpt><trkpt lat="44.18171447875504" lon="12.135375912667918"><ele>29.0</ele><time>2026-04-18T09:31:00.98Z</time></trkpt><trkpt lat="44.181603095174545" lon="12.135309957223637"><ele>29.0</ele><time>2026-04-18T09:31:01.98Z</time></trkpt><trkpt lat="44.18148637280366" lon="12.135238000839305"><ele>28.75</ele><time>2026-04-18T09:31:02.979Z</time></trkpt><trkpt lat="44.18136449642919" lon="12.135158511879988"><ele>28.5</ele><time>2026-04-18T09:31:03.979Z</time></trkpt><trkpt lat="44.181237962800395" lon="12.135085988274843"><ele>28.25</ele><time>2026-04-18T09:31:04.979Z</time></trkpt><trkpt lat="44.1811243041904" lon="12.135003190685039"><ele>28.0</ele><time>2026-04-18T09:31:05.979Z</time></trkpt><trkpt lat="44.181008608267724" lon="12.13493055468075"><ele>28.25</ele><time>2026-04-18T09:31:06.979Z</time></trkpt><trkpt lat="44.18090129498987" lon="12.134853522107582"><ele>28.5</ele><time>2026-04-18T09:31:07.979Z</time></trkpt><trkpt lat="44.18078924918128" lon="12.134782564637376"><ele>28.75</ele><time>2026-04-18T09:31:08.979Z</time></trkpt><trkpt lat="44.18067139663071" lon="12.134702007398422"><ele>29.0</ele><time>2026-04-18T09:31:09.979Z</time></trkpt><trkpt lat="44.180560516378975" lon="12.134618529269117"><ele>29.0</ele><time>2026-04-18T09:31:10.979Z</time></trkpt><trkpt lat="44.180448082046375" lon="12.134528805029042"><ele>29.0</ele><time>2026-04-18T09:31:11.979Z</time></trkpt><trkpt lat="44.18033444815718" lon="12.134430454060977"><ele>29.0</ele><time>2026-04-18T09:31:12.979Z</time></trkpt><trkpt lat="44.18021497959645" lon="12.13433031008048"><ele>29.0</ele><time>2026-04-18T09:31:13.979Z</time></trkpt><trkpt lat="44.18011112461708" lon="12.134227003736251"><ele>29.0</ele><time>2026-04-18T09:31:14.979Z</time></trkpt><trkpt lat="44.180003498587375" lon="12.134122745352826"><ele>29.0</ele><time>2026-04-18T09:31:15.979Z</time></trkpt><trkpt lat="44.179891433588416" lon="12.134015408363956"><ele>29.0</ele><time>2026-04-18T09:31:16.979Z</time></trkpt><trkpt lat="44.17978300098092" lon="12.133890497322671"><ele>29.0</ele><time>2026-04-18T09:31:17.979Z</time></trkpt><trkpt lat="44.17966075127553" lon="12.13379572269726"><ele>28.75</ele><time>2026-04-18T09:31:18.979Z</time></trkpt><trkpt lat="44.17953871250727" lon="12.133691690230457"><ele>28.5</ele><time>2026-04-18T09:31:19.979Z</time></trkpt><trkpt lat="44.179415985210035" lon="12.133589631134745"><ele>28.25</ele><time>2026-04-18T09:31:20.979Z</time></trkpt><trkpt lat="44.17928967616911" lon="12.133490729669333"><ele>28.0</ele><time>2026-04-18T09:31:21.979Z</time></trkpt><trkpt lat="44.179161969316866" lon="12.133401535017368"><ele>28.0</ele><time>2026-04-18T09:31:22.979Z</time></trkpt><trkpt lat="44.17903484489601" lon="12.133310940499847"><ele>28.0</ele><time>2026-04-18T09:31:23.979Z</time></trkpt><trkpt lat="44.17890897273677" lon="12.133217943817058"><ele>28.0</ele><time>2026-04-18T09:31:24.979Z</time></trkpt><trkpt lat="44.17878440898561" lon="12.13313621665096"><ele>28.0</ele><time>2026-04-18T09:31:25.979Z</time></trkpt><trkpt lat="44.17865903006361" lon="12.13304960202625"><ele>28.25</ele><time>2026-04-18T09:31:26.979Z</time></trkpt><trkpt lat="44.17853323091415" lon="12.132963737731304"><ele>28.5</ele><time>2026-04-18T09:31:27.979Z</time></trkpt><trkpt lat="44.178406829938" lon="12.13287692251436"><ele>28.75</ele><time>2026-04-18T09:31:28.979Z</time></trkpt><trkpt lat="44.178282290734124" lon="12.132791308873408"><ele>29.0</ele><time>2026-04-18T09:31:29.979Z</time></trkpt><trkpt lat="44.17815544847066" lon="12.132709482914947"><ele>29.0</ele><time>2026-04-18T09:31:30.979Z</time></trkpt><trkpt lat="44.17803132166668" lon="12.132626102186546"><ele>29.0</ele><time>2026-04-18T09:31:31.979Z</time></trkpt><trkpt lat="44.177905850459645" lon="12.132536569974299"><ele>29.0</ele><time>2026-04-18T09:31:32.979Z</time></trkpt><trkpt lat="44.17779223033921" lon="12.132451260003116"><ele>29.0</ele><time>2026-04-18T09:31:33.979Z</time></trkpt><trkpt lat="44.177661924859" lon="12.132358459502306"><ele>29.0</ele><time>2026-04-18T09:31:34.979Z</time></trkpt><trkpt lat="44.177533517183235" lon="12.132265901455028"><ele>29.0</ele><time>2026-04-18T09:31:35.979Z</time></trkpt><trkpt lat="44.17740489673162" lon="12.132175643929779"><ele>29.0</ele><time>2026-04-18T09:31:36.979Z</time></trkpt><trkpt lat="44.177272806574514" lon="12.132077720844302"><ele>29.0</ele><time>2026-04-18T09:31:37.979Z</time></trkpt><trkpt lat="44.177141856727474" lon="12.131991199669573"><ele>29.0</ele><time>2026-04-18T09:31:38.979Z</time></trkpt><trkpt lat="44.17700425247424" lon="12.131899576706497"><ele>29.0</ele><time>2026-04-18T09:31:39.979Z</time></trkpt><trkpt lat="44.176870761470326" lon="12.13181177261355"><ele>29.0</ele><time>2026-04-18T09:31:40.979Z</time></trkpt><trkpt lat="44.176740730090124" lon="12.131726642735874"><ele>29.0</ele><time>2026-04-18T09:31:41.979Z</time></trkpt><trkpt lat="44.17661208924666" lon="12.131633450557825"><ele>29.5</ele><time>2026-04-18T09:31:42.979Z</time></trkpt><trkpt lat="44.17648904262368" lon="12.131544474820698"><ele>30.0</ele><time>2026-04-18T09:31:43.979Z</time></trkpt><trkpt lat="44.17636317705434" lon="12.131458699472025"><ele>30.5</ele><time>2026-04-18T09:31:44.979Z</time></trkpt><trkpt lat="44.17624226322214" lon="12.131379734646917"><ele>31.0</ele><time>2026-04-18T09:31:45.979Z</time></trkpt><trkpt lat="44.176117635963024" lon="12.131297580816561"><ele>31.0</ele><time>2026-04-18T09:31:46.979Z</time></trkpt><trkpt lat="44.175991297640735" lon="12.131201581325591"><ele>31.0</ele><time>2026-04-18T09:31:47.979Z</time></trkpt><trkpt lat="44.17587029404199" lon="12.1311167222422"><ele>31.0</ele><time>2026-04-18T09:31:48.979Z</time></trkpt><trkpt lat="44.17575010304119" lon="12.131024203267412"><ele>31.0</ele><time>2026-04-18T09:31:49.979Z</time></trkpt><trkpt lat="44.175613371702475" lon="12.13093590838198"><ele>31.25</ele><time>2026-04-18T09:31:50.979Z</time></trkpt><trkpt lat="44.17548801059727" lon="12.130854489340617"><ele>31.5</ele><time>2026-04-18T09:31:51.979Z</time></trkpt><trkpt lat="44.17535976049062" lon="12.130765891168755"><ele>31.75</ele><time>2026-04-18T09:31:52.979Z</time></trkpt><trkpt lat="44.17522944189451" lon="12.130683101017057"><ele>32.0</ele><time>2026-04-18T09:31:53.979Z</time></trkpt><trkpt lat="44.17509450824246" lon="12.130587512424999"><ele>31.0</ele><time>2026-04-18T09:31:54.979Z</time></trkpt><trkpt lat="44.17496397853241" lon="12.130498401327069"><ele>30.0</ele><time>2026-04-18T09:31:55.979Z</time></trkpt><trkpt lat="44.17482166894439" lon="12.130392028909148"><ele>29.0</ele><time>2026-04-18T09:31:56.979Z</time></trkpt><trkpt lat="44.17467106896575" lon="12.130293334756292"><ele>29.0</ele><time>2026-04-18T09:31:57.979Z</time></trkpt><trkpt lat="44.17452685387418" lon="12.130197148703854"><ele>29.0</ele><time>2026-04-18T09:31:58.979Z</time></trkpt><trkpt lat="44.17438167992884" lon="12.130098833108363"><ele>29.0</ele><time>2026-04-18T09:31:59.979Z</time></trkpt><trkpt lat="44.174240738285924" lon="12.129995729796436"><ele>28.666666666666664</ele><time>2026-04-18T09:32:00.979Z</time></trkpt><trkpt lat="44.174093512466975" lon="12.129882160739472"><ele>28.333333333333336</ele><time>2026-04-18T09:32:01.979Z</time></trkpt><trkpt lat="44.17393870423054" lon="12.12979803270553"><ele>28.0</ele><time>2026-04-18T09:32:02.979Z</time></trkpt><trkpt lat="44.17378808858594" lon="12.129712149912889"><ele>28.666666666666668</ele><time>2026-04-18T09:32:03.979Z</time></trkpt><trkpt lat="44.173631760645414" lon="12.12962547940792"><ele>29.333333333333336</ele><time>2026-04-18T09:32:04.979Z</time></trkpt><trkpt lat="44.17346979751845" lon="12.129544679136787"><ele>30.0</ele><time>2026-04-18T09:32:05.979Z</time></trkpt><trkpt lat="44.17330890441926" lon="12.129473826114276"><ele>30.666666666666664</ele><time>2026-04-18T09:32:06.979Z</time></trkpt><trkpt lat="44.173161239994904" lon="12.129413795323655"><ele>31.333333333333332</ele><time>2026-04-18T09:32:07.979Z</time></trkpt><trkpt lat="44.17301999998413" lon="12.129333017816844"><ele>32.0</ele><time>2026-04-18T09:32:08.979Z</time></trkpt><trkpt lat="44.172881385087166" lon="12.129269687810586"><ele>32.0</ele><time>2026-04-18T09:32:09.979Z</time></trkpt><trkpt lat="44.172739230701545" lon="12.129206417965168"><ele>32.0</ele><time>2026-04-18T09:32:10.979Z</time></trkpt><trkpt lat="44.172591404467624" lon="12.129122464331195"><ele>32.0</ele><time>2026-04-18T09:32:11.979Z</time></trkpt><trkpt lat="44.17244912601857" lon="12.129064077186477"><ele>34.0</ele><time>2026-04-18T09:32:12.979Z</time></trkpt><trkpt lat="44.17231258858193" lon="12.129001385506003"><ele>36.0</ele><time>2026-04-18T09:32:13.979Z</time></trkpt><trkpt lat="44.17217274958675" lon="12.128940159156956"><ele>38.0</ele><time>2026-04-18T09:32:14.979Z</time></trkpt><trkpt lat="44.172028332803876" lon="12.128881910131977"><ele>40.0</ele><time>2026-04-18T09:32:15.979Z</time></trkpt><trkpt lat="44.17188779535987" lon="12.128814385269134"><ele>40.0</ele><time>2026-04-18T09:32:16.979Z</time></trkpt><trkpt lat="44.171744825713645" lon="12.128751570847315"><ele>40.0</ele><time>2026-04-18T09:32:17.979Z</time></trkpt><trkpt lat="44.17160188107621" lon="12.128692008401327"><ele>40.0</ele><time>2026-04-18T09:32:18.979Z</time></trkpt><trkpt lat="44.17147103035088" lon="12.128590190262214"><ele>40.0</ele><time>2026-04-18T09:32:19.979Z</time></trkpt><trkpt lat="44.1713279441056" lon="12.128526244639605"><ele>42.0</ele><time>2026-04-18T09:32:20.979Z</time></trkpt><trkpt lat="44.17118675693671" lon="12.128457601351775"><ele>44.0</ele><time>2026-04-18T09:32:21.979Z</time></trkpt><trkpt lat="44.17104129692778" lon="12.128400742440025"><ele>46.0</ele><time>2026-04-18T09:32:22.979Z</time></trkpt><trkpt lat="44.170908669369986" lon="12.128332724099527"><ele>48.0</ele><time>2026-04-18T09:32:23.979Z</time></trkpt><trkpt lat="44.17076882551024" lon="12.128268003816752"><ele>48.75</ele><time>2026-04-18T09:32:24.979Z</time></trkpt><trkpt lat="44.17063030820086" lon="12.128199282208314"><ele>49.5</ele><time>2026-04-18T09:32:25.979Z</time></trkpt><trkpt lat="44.170488059617654" lon="12.128141113966047"><ele>50.25</ele><time>2026-04-18T09:32:26.979Z</time></trkpt><trkpt lat="44.17036365599697" lon="12.128068771295421"><ele>51.0</ele><time>2026-04-18T09:32:27.979Z</time></trkpt><trkpt lat="44.170228103449915" lon="12.128012110610028"><ele>51.0</ele><time>2026-04-18T09:32:28.98Z</time></trkpt><trkpt lat="44.170089888772644" lon="12.127940211386006"><ele>51.0</ele><time>2026-04-18T09:32:29.979Z</time></trkpt><trkpt lat="44.16995408783091" lon="12.127879564924557"><ele>51.0</ele><time>2026-04-18T09:32:30.979Z</time></trkpt><trkpt lat="44.16982504436577" lon="12.12782300057586"><ele>51.0</ele><time>2026-04-18T09:32:31.98Z</time></trkpt><trkpt lat="44.16968249128067" lon="12.127767304871522"><ele>51.75</ele><time>2026-04-18T09:32:32.979Z</time></trkpt><trkpt lat="44.16955386335081" lon="12.127705677494108"><ele>52.5</ele><time>2026-04-18T09:32:33.979Z</time></trkpt><trkpt lat="44.16940980054954" lon="12.127656748119184"><ele>53.25</ele><time>2026-04-18T09:32:34.979Z</time></trkpt><trkpt lat="44.169267000548295" lon="12.127604596843064"><ele>54.0</ele><time>2026-04-18T09:32:35.979Z</time></trkpt><trkpt lat="44.169116207567136" lon="12.127567657072294"><ele>54.0</ele><time>2026-04-18T09:32:36.979Z</time></trkpt><trkpt lat="44.16896492448597" lon="12.127533128262122"><ele>54.0</ele><time>2026-04-18T09:32:37.979Z</time></trkpt><trkpt lat="44.16881961114358" lon="12.127489161793662"><ele>54.0</ele><time>2026-04-18T09:32:38.979Z</time></trkpt><trkpt lat="44.16866396572596" lon="12.127452309617482"><ele>54.0</ele><time>2026-04-18T09:32:39.979Z</time></trkpt><trkpt lat="44.16850604184234" lon="12.127404250024249"><ele>54.0</ele><time>2026-04-18T09:32:40.979Z</time></trkpt><trkpt lat="44.16836924265703" lon="12.127323238132506"><ele>54.0</ele><time>2026-04-18T09:32:41.979Z</time></trkpt><trkpt lat="44.168220186283605" lon="12.127271504528842"><ele>55.0</ele><time>2026-04-18T09:32:42.979Z</time></trkpt><trkpt lat="44.1680713773994" lon="12.127241760798901"><ele>56.0</ele><time>2026-04-18T09:32:43.979Z</time></trkpt><trkpt lat="44.16792675182584" lon="12.12720667790237"><ele>57.0</ele><time>2026-04-18T09:32:44.979Z</time></trkpt><trkpt lat="44.16778873509577" lon="12.127148348795155"><ele>58.0</ele><time>2026-04-18T09:32:45.979Z</time></trkpt><trkpt lat="44.167655862261675" lon="12.127100477318363"><ele>58.0</ele><time>2026-04-18T09:32:46.979Z</time></trkpt><trkpt lat="44.16752013765369" lon="12.127049353356384"><ele>58.0</ele><time>2026-04-18T09:32:47.979Z</time></trkpt><trkpt lat="44.16738732496044" lon="12.126988259310078"><ele>58.0</ele><time>2026-04-18T09:32:48.979Z</time></trkpt><trkpt lat="44.167258061697" lon="12.12694045570093"><ele>58.0</ele><time>2026-04-18T09:32:49.979Z</time></trkpt><trkpt lat="44.16713172756548" lon="12.126878807441496"><ele>59.25</ele><time>2026-04-18T09:32:50.979Z</time></trkpt><trkpt lat="44.16698537487677" lon="12.126847715971643"><ele>60.5</ele><time>2026-04-18T09:32:51.979Z</time></trkpt><trkpt lat="44.16684776802569" lon="12.126788638431224"><ele>61.75</ele><time>2026-04-18T09:32:52.979Z</time></trkpt><trkpt lat="44.166714136961964" lon="12.126740589919713"><ele>63.0</ele><time>2026-04-18T09:32:53.979Z</time></trkpt><trkpt lat="44.166579687319775" lon="12.126682338883935"><ele>63.25</ele><time>2026-04-18T09:32:54.979Z</time></trkpt><trkpt lat="44.166443276214835" lon="12.126621377254347"><ele>63.5</ele><time>2026-04-18T09:32:55.979Z</time></trkpt><trkpt lat="44.16630030827879" lon="12.126560822045516"><ele>63.75</ele><time>2026-04-18T09:32:56.979Z</time></trkpt><trkpt lat="44.16615916017092" lon="12.126509865503918"><ele>64.0</ele><time>2026-04-18T09:32:57.979Z</time></trkpt><trkpt lat="44.16602248062432" lon="12.12643943098645"><ele>64.0</ele><time>2026-04-18T09:32:58.979Z</time></trkpt><trkpt lat="44.165873643630206" lon="12.126372567667254"><ele>64.0</ele><time>2026-04-18T09:32:59.979Z</time></trkpt><trkpt lat="44.16573012772404" lon="12.126302813533126"><ele>64.0</ele><time>2026-04-18T09:33:00.979Z</time></trkpt><trkpt lat="44.16557570829805" lon="12.126232227948446"><ele>65.0</ele><time>2026-04-18T09:33:01.979Z</time></trkpt><trkpt lat="44.165419843059944" lon="12.12614951689817"><ele>66.0</ele><time>2026-04-18T09:33:02.979Z</time></trkpt><trkpt lat="44.165267150817996" lon="12.126072625686074"><ele>67.0</ele><time>2026-04-18T09:33:03.979Z</time></trkpt><trkpt lat="44.16511069343263" lon="12.125993786047275"><ele>67.0</ele><time>2026-04-18T09:33:04.979Z</time></trkpt><trkpt lat="44.16495168515905" lon="12.125921843942182"><ele>67.0</ele><time>2026-04-18T09:33:05.979Z</time></trkpt><trkpt lat="44.16480407546166" lon="12.125841409126343"><ele>67.0</ele><time>2026-04-18T09:33:06.979Z</time></trkpt><trkpt lat="44.16465614018469" lon="12.125766470081375"><ele>65.33333333333333</ele><time>2026-04-18T09:33:07.979Z</time></trkpt><trkpt lat="44.16451181752597" lon="12.125703575622179"><ele>63.66666666666667</ele><time>2026-04-18T09:33:08.979Z</time></trkpt><trkpt lat="44.164360664021125" lon="12.125635063004124"><ele>62.0</ele><time>2026-04-18T09:33:09.979Z</time></trkpt><trkpt lat="44.164218862712204" lon="12.125573151638239"><ele>62.0</ele><time>2026-04-18T09:33:10.979Z</time></trkpt><trkpt lat="44.16409514468466" lon="12.125513118191506"><ele>62.0</ele><time>2026-04-18T09:33:11.979Z</time></trkpt><trkpt lat="44.163975985644065" lon="12.125453336613887"><ele>62.0</ele><time>2026-04-18T09:33:12.979Z</time></trkpt><trkpt lat="44.16386012901743" lon="12.125404877532285"><ele>62.0</ele><time>2026-04-18T09:33:13.979Z</time></trkpt><trkpt lat="44.16375790153056" lon="12.125359916615597"><ele>63.400000000000006</ele><time>2026-04-18T09:33:14.979Z</time></trkpt><trkpt lat="44.16367662080823" lon="12.125286177638275"><ele>64.80000000000001</ele><time>2026-04-18T09:33:15.979Z</time></trkpt><trkpt lat="44.16358604798426" lon="12.125243060643468"><ele>66.2</ele><time>2026-04-18T09:33:16.979Z</time></trkpt><trkpt lat="44.16349431867744" lon="12.125223240299478"><ele>67.60000000000001</ele><time>2026-04-18T09:33:17.979Z</time></trkpt><trkpt lat="44.16338998232893" lon="12.125168726801517"><ele>69.0</ele><time>2026-04-18T09:33:18.979Z</time></trkpt><trkpt lat="44.16327675102279" lon="12.12512734213841"><ele>69.75</ele><time>2026-04-18T09:33:19.979Z</time></trkpt><trkpt lat="44.163160460482196" lon="12.125107125633834"><ele>70.5</ele><time>2026-04-18T09:33:20.979Z</time></trkpt><trkpt lat="44.16303680688918" lon="12.125085523511466"><ele>71.25</ele><time>2026-04-18T09:33:21.979Z</time></trkpt><trkpt lat="44.16291323296762" lon="12.125044847914106"><ele>72.0</ele><time>2026-04-18T09:33:22.979Z</time></trkpt><trkpt lat="44.16278444848487" lon="12.125039976407816"><ele>72.0</ele><time>2026-04-18T09:33:23.979Z</time></trkpt><trkpt lat="44.16264393765966" lon="12.125039631666978"><ele>72.0</ele><time>2026-04-18T09:33:24.979Z</time></trkpt><trkpt lat="44.16250914086119" lon="12.1250396771869"><ele>72.0</ele><time>2026-04-18T09:33:25.979Z</time></trkpt><trkpt lat="44.162374270568925" lon="12.125032885054416"><ele>72.0</ele><time>2026-04-18T09:33:26.979Z</time></trkpt><trkpt lat="44.16224452463135" lon="12.125034857638736"><ele>71.75</ele><time>2026-04-18T09:33:27.979Z</time></trkpt><trkpt lat="44.162106270880614" lon="12.125023892271622"><ele>71.5</ele><time>2026-04-18T09:33:28.979Z</time></trkpt><trkpt lat="44.16196928367532" lon="12.125022494182682"><ele>71.25</ele><time>2026-04-18T09:33:29.979Z</time></trkpt><trkpt lat="44.16183089479263" lon="12.125017096602974"><ele>71.0</ele><time>2026-04-18T09:33:30.979Z</time></trkpt><trkpt lat="44.16169385353635" lon="12.125030196308215"><ele>71.0</ele><time>2026-04-18T09:33:31.979Z</time></trkpt><trkpt lat="44.161552664495495" lon="12.125028958581991"><ele>71.0</ele><time>2026-04-18T09:33:32.979Z</time></trkpt><trkpt lat="44.16142116301343" lon="12.125023903071309"><ele>71.0</ele><time>2026-04-18T09:33:33.979Z</time></trkpt><trkpt lat="44.16128259013684" lon="12.125022981610817"><ele>71.0</ele><time>2026-04-18T09:33:34.979Z</time></trkpt><trkpt lat="44.16114194985343" lon="12.125018805192749"><ele>72.0</ele><time>2026-04-18T09:33:35.979Z</time></trkpt><trkpt lat="44.16100010533063" lon="12.12502677262028"><ele>73.0</ele><time>2026-04-18T09:33:36.979Z</time></trkpt><trkpt lat="44.160859310002714" lon="12.125022890042374"><ele>74.0</ele><time>2026-04-18T09:33:37.979Z</time></trkpt><trkpt lat="44.160730851361635" lon="12.12501926321108"><ele>75.0</ele><time>2026-04-18T09:33:38.979Z</time></trkpt><trkpt lat="44.16059027601304" lon="12.125017463560933"><ele>76.0</ele><time>2026-04-18T09:33:39.979Z</time></trkpt><trkpt lat="44.160463794982746" lon="12.125008593372838"><ele>77.0</ele><time>2026-04-18T09:33:40.979Z</time></trkpt><trkpt lat="44.16033019688648" lon="12.125002070810298"><ele>78.0</ele><time>2026-04-18T09:33:41.978Z</time></trkpt><trkpt lat="44.16021349556043" lon="12.124995288460665"><ele>79.0</ele><time>2026-04-18T09:33:42.978Z</time></trkpt><trkpt lat="44.16008840679275" lon="12.124992369325218"><ele>79.0</ele><time>2026-04-18T09:33:43.978Z</time></trkpt><trkpt lat="44.1599647661081" lon="12.124995759994373"><ele>79.0</ele><time>2026-04-18T09:33:44.978Z</time></trkpt><trkpt lat="44.1598456316384" lon="12.124995056420737"><ele>79.0</ele><time>2026-04-18T09:33:45.978Z</time></trkpt><trkpt lat="44.159739963345835" lon="12.12500030452365"><ele>79.0</ele><time>2026-04-18T09:33:46.978Z</time></trkpt><trkpt lat="44.159625428192285" lon="12.125021363299169"><ele>78.8</ele><time>2026-04-18T09:33:47.978Z</time></trkpt><trkpt lat="44.15952110786783" lon="12.125053536488458"><ele>78.60000000000001</ele><time>2026-04-18T09:33:48.978Z</time></trkpt><trkpt lat="44.159421241552344" lon="12.125125021996359"><ele>78.4</ele><time>2026-04-18T09:33:49.978Z</time></trkpt><trkpt lat="44.159323556484644" lon="12.125211124838577"><ele>78.2</ele><time>2026-04-18T09:33:50.978Z</time></trkpt><trkpt lat="44.15924785567121" lon="12.125320942889019"><ele>78.0</ele><time>2026-04-18T09:33:51.978Z</time></trkpt><trkpt lat="44.15918690826328" lon="12.125414290118368"><ele>78.0</ele><time>2026-04-18T09:33:52.978Z</time></trkpt><trkpt lat="44.159130499144396" lon="12.1255028412351"><ele>78.0</ele><time>2026-04-18T09:33:53.978Z</time></trkpt><trkpt lat="44.15907053509907" lon="12.125586199489714"><ele>78.0</ele><time>2026-04-18T09:33:54.978Z</time></trkpt><trkpt lat="44.159007668170496" lon="12.125677979733574"><ele>78.0</ele><time>2026-04-18T09:33:55.978Z</time></trkpt><trkpt lat="44.15895042919233" lon="12.125773750387417"><ele>78.0</ele><time>2026-04-18T09:33:56.978Z</time></trkpt><trkpt lat="44.15888211790574" lon="12.125859605187388"><ele>78.0</ele><time>2026-04-18T09:33:57.978Z</time></trkpt><trkpt lat="44.15881440865675" lon="12.125948491230485"><ele>79.8</ele><time>2026-04-18T09:33:58.978Z</time></trkpt><trkpt lat="44.15872329080803" lon="12.126028498312307"><ele>81.6</ele><time>2026-04-18T09:33:59.978Z</time></trkpt><trkpt lat="44.15862479122362" lon="12.126085211559957"><ele>83.39999999999999</ele><time>2026-04-18T09:34:00.978Z</time></trkpt><trkpt lat="44.15852126682219" lon="12.126128656299093"><ele>85.19999999999999</ele><time>2026-04-18T09:34:01.978Z</time></trkpt><trkpt lat="44.158413818422346" lon="12.126114773027489"><ele>87.0</ele><time>2026-04-18T09:34:02.978Z</time></trkpt><trkpt lat="44.15832007523339" lon="12.126107066063964"><ele>87.0</ele><time>2026-04-18T09:34:03.978Z</time></trkpt><trkpt lat="44.15822272073176" lon="12.126099698445195"><ele>87.0</ele><time>2026-04-18T09:34:04.978Z</time></trkpt><trkpt lat="44.158116688273324" lon="12.12607999571321"><ele>87.0</ele><time>2026-04-18T09:34:05.978Z</time></trkpt><trkpt lat="44.15801593491524" lon="12.126050840733791"><ele>87.0</ele><time>2026-04-18T09:34:06.978Z</time></trkpt><trkpt lat="44.157905214122565" lon="12.126023501362504"><ele>87.0</ele><time>2026-04-18T09:34:07.978Z</time></trkpt><trkpt lat="44.15778876705709" lon="12.125996731866413"><ele>88.0</ele><time>2026-04-18T09:34:08.978Z</time></trkpt><trkpt lat="44.157682289635744" lon="12.126009063791455"><ele>89.0</ele><time>2026-04-18T09:34:09.978Z</time></trkpt><trkpt lat="44.15756949896262" lon="12.126018192411841"><ele>90.0</ele><time>2026-04-18T09:34:10.978Z</time></trkpt><trkpt lat="44.157458681691494" lon="12.126055278086934"><ele>91.0</ele><time>2026-04-18T09:34:11.978Z</time></trkpt><trkpt lat="44.15735512622247" lon="12.126105945184834"><ele>92.0</ele><time>2026-04-18T09:34:12.978Z</time></trkpt><trkpt lat="44.15725535470686" lon="12.126154665210336"><ele>92.25</ele><time>2026-04-18T09:34:13.978Z</time></trkpt><trkpt lat="44.157138363838605" lon="12.126226357601338"><ele>92.5</ele><time>2026-04-18T09:34:14.978Z</time></trkpt><trkpt lat="44.15702305562616" lon="12.126302736588741"><ele>92.75</ele><time>2026-04-18T09:34:15.978Z</time></trkpt><trkpt lat="44.15690935724221" lon="12.12639069794983"><ele>93.0</ele><time>2026-04-18T09:34:16.978Z</time></trkpt><trkpt lat="44.15678787922984" lon="12.126476943801558"><ele>93.0</ele><time>2026-04-18T09:34:17.978Z</time></trkpt><trkpt lat="44.156669408539315" lon="12.126546930883846"><ele>93.0</ele><time>2026-04-18T09:34:18.978Z</time></trkpt><trkpt lat="44.15655211173603" lon="12.126625563740982"><ele>93.0</ele><time>2026-04-18T09:34:19.978Z</time></trkpt><trkpt lat="44.15644729069979" lon="12.12669769046864"><ele>93.0</ele><time>2026-04-18T09:34:20.978Z</time></trkpt><trkpt lat="44.15633736819036" lon="12.126769293507174"><ele>95.0</ele><time>2026-04-18T09:34:21.978Z</time></trkpt><trkpt lat="44.156228128342306" lon="12.126832988304805"><ele>97.0</ele><time>2026-04-18T09:34:22.978Z</time></trkpt><trkpt lat="44.156116327512365" lon="12.126902918803593"><ele>99.0</ele><time>2026-04-18T09:34:23.978Z</time></trkpt><trkpt lat="44.15600869358274" lon="12.126972973605515"><ele>101.0</ele><time>2026-04-18T09:34:24.978Z</time></trkpt><trkpt lat="44.15589563167277" lon="12.127044583849464"><ele>101.0</ele><time>2026-04-18T09:34:25.978Z</time></trkpt><trkpt lat="44.1557862700038" lon="12.127116037375327"><ele>101.0</ele><time>2026-04-18T09:34:26.978Z</time></trkpt><trkpt lat="44.155674405678866" lon="12.127191835786268"><ele>101.0</ele><time>2026-04-18T09:34:27.978Z</time></trkpt><trkpt lat="44.15556749779839" lon="12.1272630638718"><ele>101.0</ele><time>2026-04-18T09:34:28.978Z</time></trkpt><trkpt lat="44.15546334717379" lon="12.127332392168924"><ele>103.0</ele><time>2026-04-18T09:34:29.978Z</time></trkpt><trkpt lat="44.15535863149798" lon="12.127411776703457"><ele>105.0</ele><time>2026-04-18T09:34:30.978Z</time></trkpt><trkpt lat="44.155253657849435" lon="12.127491931170468"><ele>107.0</ele><time>2026-04-18T09:34:31.979Z</time></trkpt><trkpt lat="44.155155564457054" lon="12.12756844050071"><ele>109.0</ele><time>2026-04-18T09:34:32.979Z</time></trkpt><trkpt lat="44.1550545717936" lon="12.127644386808996"><ele>109.0</ele><time>2026-04-18T09:34:33.979Z</time></trkpt><trkpt lat="44.1549605321033" lon="12.127726690436091"><ele>109.0</ele><time>2026-04-18T09:34:34.979Z</time></trkpt><trkpt lat="44.154880189236806" lon="12.127835267192877"><ele>109.0</ele><time>2026-04-18T09:34:35.979Z</time></trkpt><trkpt lat="44.154812505034116" lon="12.127962812245066"><ele>109.0</ele><time>2026-04-18T09:34:36.979Z</time></trkpt><trkpt lat="44.154765531076066" lon="12.128107619880435"><ele>108.75</ele><time>2026-04-18T09:34:37.979Z</time></trkpt><trkpt lat="44.154741619723126" lon="12.128274969435555"><ele>108.5</ele><time>2026-04-18T09:34:38.979Z</time></trkpt><trkpt lat="44.154729307564075" lon="12.1284599884824"><ele>108.25</ele><time>2026-04-18T09:34:39.978Z</time></trkpt><trkpt lat="44.15473326911433" lon="12.128640551525447"><ele>108.0</ele><time>2026-04-18T09:34:40.979Z</time></trkpt><trkpt lat="44.154742905117445" lon="12.128817867258347"><ele>108.0</ele><time>2026-04-18T09:34:41.979Z</time></trkpt><trkpt lat="44.154750376990734" lon="12.128988392982246"><ele>108.0</ele><time>2026-04-18T09:34:42.979Z</time></trkpt><trkpt lat="44.15474672184712" lon="12.129148173728863"><ele>108.0</ele><time>2026-04-18T09:34:43.979Z</time></trkpt><trkpt lat="44.15473188701496" lon="12.129301055080573"><ele>108.0</ele><time>2026-04-18T09:34:44.979Z</time></trkpt><trkpt lat="44.154705976722006" lon="12.12945303111173"><ele>109.4</ele><time>2026-04-18T09:34:45.978Z</time></trkpt><trkpt lat="44.154666445814286" lon="12.129595019241071"><ele>110.80000000000001</ele><time>2026-04-18T09:34:46.978Z</time></trkpt><trkpt lat="44.154622408114726" lon="12.129717659383195"><ele>112.2</ele><time>2026-04-18T09:34:47.978Z</time></trkpt><trkpt lat="44.15456364187127" lon="12.12982335074449"><ele>113.6</ele><time>2026-04-18T09:34:48.978Z</time></trkpt><trkpt lat="44.15449025446164" lon="12.129936378365796"><ele>115.0</ele><time>2026-04-18T09:34:49.978Z</time></trkpt><trkpt lat="44.15441717066141" lon="12.130054679999768"><ele>116.25</ele><time>2026-04-18T09:34:50.978Z</time></trkpt><trkpt lat="44.1543448996296" lon="12.130176287458955"><ele>117.5</ele><time>2026-04-18T09:34:51.978Z</time></trkpt><trkpt lat="44.1542690625608" lon="12.130300362370473"><ele>118.75</ele><time>2026-04-18T09:34:52.978Z</time></trkpt><trkpt lat="44.15418832060305" lon="12.130423532746335"><ele>120.0</ele><time>2026-04-18T09:34:53.978Z</time></trkpt><trkpt lat="44.15410847805483" lon="12.130561521307007"><ele>122.25</ele><time>2026-04-18T09:34:54.978Z</time></trkpt><trkpt lat="44.1540311033971" lon="12.130693613293687"><ele>124.5</ele><time>2026-04-18T09:34:55.978Z</time></trkpt><trkpt lat="44.15395265778892" lon="12.130815294558793"><ele>126.75</ele><time>2026-04-18T09:34:56.978Z</time></trkpt><trkpt lat="44.15387371132005" lon="12.130935087901983"><ele>129.0</ele><time>2026-04-18T09:34:57.978Z</time></trkpt><trkpt lat="44.15379135525333" lon="12.131066912372216"><ele>130.0</ele><time>2026-04-18T09:34:58.978Z</time></trkpt><trkpt lat="44.15371422937004" lon="12.131196732231198"><ele>131.0</ele><time>2026-04-18T09:34:59.978Z</time></trkpt><trkpt lat="44.15363511885256" lon="12.131320420973028"><ele>132.0</ele><time>2026-04-18T09:35:00.978Z</time></trkpt><trkpt lat="44.15356488773648" lon="12.131440385495038"><ele>133.0</ele><time>2026-04-18T09:35:01.978Z</time></trkpt><trkpt lat="44.153495554589384" lon="12.1315580755967"><ele>133.0</ele><time>2026-04-18T09:35:02.978Z</time></trkpt><trkpt lat="44.15341816234494" lon="12.131682178367575"><ele>133.0</ele><time>2026-04-18T09:35:03.978Z</time></trkpt><trkpt lat="44.15334180498956" lon="12.131810804637439"><ele>133.0</ele><time>2026-04-18T09:35:04.978Z</time></trkpt><trkpt lat="44.1532589961422" lon="12.131955907448917"><ele>133.0</ele><time>2026-04-18T09:35:05.978Z</time></trkpt><trkpt lat="44.153168294305246" lon="12.132067256596802"><ele>136.75</ele><time>2026-04-18T09:35:06.978Z</time></trkpt><trkpt lat="44.15309010149241" lon="12.132196039171678"><ele>140.5</ele><time>2026-04-18T09:35:07.978Z</time></trkpt><trkpt lat="44.15301736674857" lon="12.132321242509196"><ele>144.25</ele><time>2026-04-18T09:35:08.978Z</time></trkpt><trkpt lat="44.15293749965676" lon="12.132438859306186"><ele>148.0</ele><time>2026-04-18T09:35:09.978Z</time></trkpt><trkpt lat="44.15285576807233" lon="12.132553264644308"><ele>148.0</ele><time>2026-04-18T09:35:10.978Z</time></trkpt><trkpt lat="44.15279005176969" lon="12.132705192269311"><ele>148.0</ele><time>2026-04-18T09:35:11.978Z</time></trkpt><trkpt lat="44.15272871820065" lon="12.132850163363926"><ele>148.0</ele><time>2026-04-18T09:35:12.978Z</time></trkpt><trkpt lat="44.15267103460453" lon="12.133001142147867"><ele>148.0</ele><time>2026-04-18T09:35:13.978Z</time></trkpt><trkpt lat="44.15263885160363" lon="12.133142199725462"><ele>148.0</ele><time>2026-04-18T09:35:14.978Z</time></trkpt><trkpt lat="44.152588895251334" lon="12.133300465361915"><ele>148.0</ele><time>2026-04-18T09:35:15.978Z</time></trkpt><trkpt lat="44.15254594914314" lon="12.13348408864967"><ele>148.0</ele><time>2026-04-18T09:35:16.978Z</time></trkpt><trkpt lat="44.152514982993324" lon="12.133655765672641"><ele>148.0</ele><time>2026-04-18T09:35:17.978Z</time></trkpt><trkpt lat="44.15247789629169" lon="12.1338235357021"><ele>148.0</ele><time>2026-04-18T09:35:18.978Z</time></trkpt><trkpt lat="44.15244701771847" lon="12.133974552623371"><ele>148.0</ele><time>2026-04-18T09:35:19.978Z</time></trkpt><trkpt lat="44.15241265227916" lon="12.134113655003324"><ele>148.0</ele><time>2026-04-18T09:35:20.978Z</time></trkpt><trkpt lat="44.152378479027085" lon="12.134248914651693"><ele>148.0</ele><time>2026-04-18T09:35:21.978Z</time></trkpt><trkpt lat="44.152361041794634" lon="12.134384515961626"><ele>148.0</ele><time>2026-04-18T09:35:22.978Z</time></trkpt><trkpt lat="44.152318001308096" lon="12.134508948473838"><ele>149.6</ele><time>2026-04-18T09:35:23.978Z</time></trkpt><trkpt lat="44.15225484042212" lon="12.13463872168877"><ele>151.20000000000002</ele><time>2026-04-18T09:35:24.978Z</time></trkpt><trkpt lat="44.152192521300094" lon="12.134733690358754"><ele>152.8</ele><time>2026-04-18T09:35:25.978Z</time></trkpt><trkpt lat="44.15211297320815" lon="12.134838932188137"><ele>154.4</ele><time>2026-04-18T09:35:26.978Z</time></trkpt><trkpt lat="44.152027418679225" lon="12.13494070909854"><ele>156.0</ele><time>2026-04-18T09:35:27.978Z</time></trkpt><trkpt lat="44.15194970022156" lon="12.135055481422608"><ele>156.0</ele><time>2026-04-18T09:35:28.978Z</time></trkpt><trkpt lat="44.151883349755764" lon="12.135168199494979"><ele>156.0</ele><time>2026-04-18T09:35:29.978Z</time></trkpt><trkpt lat="44.151819785724946" lon="12.135306249353953"><ele>156.0</ele><time>2026-04-18T09:35:30.978Z</time></trkpt><trkpt lat="44.15178637759848" lon="12.135453501989275"><ele>156.0</ele><time>2026-04-18T09:35:31.978Z</time></trkpt><trkpt lat="44.1517724785056" lon="12.135607092402639"><ele>156.0</ele><time>2026-04-18T09:35:32.978Z</time></trkpt><trkpt lat="44.15177110736421" lon="12.135756500646458"><ele>156.6</ele><time>2026-04-18T09:35:33.978Z</time></trkpt><trkpt lat="44.15178489322112" lon="12.135904017195765"><ele>157.2</ele><time>2026-04-18T09:35:34.978Z</time></trkpt><trkpt lat="44.15181567797707" lon="12.136053761755035"><ele>157.8</ele><time>2026-04-18T09:35:35.978Z</time></trkpt><trkpt lat="44.151859662261344" lon="12.136198242433375"><ele>158.4</ele><time>2026-04-18T09:35:36.978Z</time></trkpt><trkpt lat="44.1519234160957" lon="12.13632182800186"><ele>159.0</ele><time>2026-04-18T09:35:37.978Z</time></trkpt><trkpt lat="44.1520128101122" lon="12.136439427142069"><ele>160.2</ele><time>2026-04-18T09:35:38.978Z</time></trkpt><trkpt lat="44.15209801790182" lon="12.136567877369359"><ele>161.4</ele><time>2026-04-18T09:35:39.978Z</time></trkpt><trkpt lat="44.15216553067216" lon="12.136699519800743"><ele>162.6</ele><time>2026-04-18T09:35:40.978Z</time></trkpt><trkpt lat="44.15223129972554" lon="12.136811605840492"><ele>163.8</ele><time>2026-04-18T09:35:41.978Z</time></trkpt><trkpt lat="44.152290012177296" lon="12.13691831508256"><ele>165.0</ele><time>2026-04-18T09:35:42.978Z</time></trkpt><trkpt lat="44.15234672970405" lon="12.137025246476668"><ele>163.8</ele><time>2026-04-18T09:35:43.978Z</time></trkpt><trkpt lat="44.15237365923372" lon="12.137148402711164"><ele>162.6</ele><time>2026-04-18T09:35:44.978Z</time></trkpt><trkpt lat="44.15242488635052" lon="12.137252499542242"><ele>161.4</ele><time>2026-04-18T09:35:45.978Z</time></trkpt><trkpt lat="44.1524700263487" lon="12.137336345479033"><ele>160.2</ele><time>2026-04-18T09:35:46.978Z</time></trkpt><trkpt lat="44.15251156674108" lon="12.137427588519802"><ele>159.0</ele><time>2026-04-18T09:35:47.978Z</time></trkpt><trkpt lat="44.15257977913826" lon="12.137566885045688"><ele>159.0</ele><time>2026-04-18T09:35:49.978Z</time></trkpt><trkpt lat="44.1526394858894" lon="12.137715722353118"><ele>159.0</ele><time>2026-04-18T09:35:51.978Z</time></trkpt><trkpt lat="44.152667742950335" lon="12.137822438534277"><ele>159.0</ele><time>2026-04-18T09:35:52.978Z</time></trkpt><trkpt lat="44.152689167513394" lon="12.137933312986107"><ele>159.0</ele><time>2026-04-18T09:35:53.978Z</time></trkpt><trkpt lat="44.15269030767452" lon="12.138050452595069"><ele>159.0</ele><time>2026-04-18T09:35:54.978Z</time></trkpt><trkpt lat="44.15267184252301" lon="12.13818087077935"><ele>159.83333333333334</ele><time>2026-04-18T09:35:55.978Z</time></trkpt><trkpt lat="44.15264578230197" lon="12.138292821130449"><ele>160.66666666666666</ele><time>2026-04-18T09:35:56.978Z</time></trkpt><trkpt lat="44.15260132185806" lon="12.138404300335244"><ele>161.5</ele><time>2026-04-18T09:35:57.978Z</time></trkpt><trkpt lat="44.152539814941" lon="12.13849310863904"><ele>162.33333333333331</ele><time>2026-04-18T09:35:58.978Z</time></trkpt><trkpt lat="44.15247636864221" lon="12.138565450976333"><ele>163.16666666666666</ele><time>2026-04-18T09:35:59.978Z</time></trkpt><trkpt lat="44.15239698640973" lon="12.13858951699493"><ele>164.0</ele><time>2026-04-18T09:36:00.978Z</time></trkpt><trkpt lat="44.152314724399666" lon="12.138595988122027"><ele>165.2</ele><time>2026-04-18T09:36:01.978Z</time></trkpt><trkpt lat="44.15222067836006" lon="12.13856978728919"><ele>166.39999999999998</ele><time>2026-04-18T09:36:02.978Z</time></trkpt><trkpt lat="44.15213683655023" lon="12.138492840610766"><ele>167.6</ele><time>2026-04-18T09:36:03.978Z</time></trkpt><trkpt lat="44.15207721796561" lon="12.138417946388133"><ele>168.8</ele><time>2026-04-18T09:36:04.978Z</time></trkpt><trkpt lat="44.152005116496056" lon="12.138339808909464"><ele>170.0</ele><time>2026-04-18T09:36:05.978Z</time></trkpt><trkpt lat="44.15194498425197" lon="12.138238981837398"><ele>169.8</ele><time>2026-04-18T09:36:06.978Z</time></trkpt><trkpt lat="44.15186804708132" lon="12.138151450025052"><ele>169.6</ele><time>2026-04-18T09:36:07.978Z</time></trkpt><trkpt lat="44.151784885951685" lon="12.138061063629499"><ele>169.39999999999998</ele><time>2026-04-18T09:36:08.978Z</time></trkpt><trkpt lat="44.151701250256735" lon="12.1379765917535"><ele>169.2</ele><time>2026-04-18T09:36:09.978Z</time></trkpt><trkpt lat="44.15162506224763" lon="12.137897242834914"><ele>169.0</ele><time>2026-04-18T09:36:10.978Z</time></trkpt><trkpt lat="44.15154980897485" lon="12.137817477901477"><ele>170.39999999999998</ele><time>2026-04-18T09:36:11.978Z</time></trkpt><trkpt lat="44.15147043762382" lon="12.137734793876342"><ele>171.8</ele><time>2026-04-18T09:36:12.978Z</time></trkpt><trkpt lat="44.15139833275222" lon="12.137640754439555"><ele>173.2</ele><time>2026-04-18T09:36:13.978Z</time></trkpt><trkpt lat="44.151325861133124" lon="12.137566841870026"><ele>174.60000000000002</ele><time>2026-04-18T09:36:14.978Z</time></trkpt><trkpt lat="44.15125296544794" lon="12.13748692519729"><ele>176.0</ele><time>2026-04-18T09:36:15.978Z</time></trkpt><trkpt lat="44.15117595646924" lon="12.137407925600527"><ele>176.16666666666666</ele><time>2026-04-18T09:36:16.978Z</time></trkpt><trkpt lat="44.15111781182474" lon="12.137338122504493"><ele>176.33333333333331</ele><time>2026-04-18T09:36:17.978Z</time></trkpt><trkpt lat="44.15105583479062" lon="12.13726353492192"><ele>176.5</ele><time>2026-04-18T09:36:18.978Z</time></trkpt><trkpt lat="44.150981103359975" lon="12.137195359484268"><ele>176.66666666666666</ele><time>2026-04-18T09:36:19.978Z</time></trkpt><trkpt lat="44.15091048224233" lon="12.137131933782653"><ele>176.83333333333334</ele><time>2026-04-18T09:36:20.978Z</time></trkpt><trkpt lat="44.15084189706901" lon="12.137072548717036"><ele>177.0</ele><time>2026-04-18T09:36:21.978Z</time></trkpt><trkpt lat="44.150782750031674" lon="12.137019454964323"><ele>177.8</ele><time>2026-04-18T09:36:22.978Z</time></trkpt><trkpt lat="44.150704091352004" lon="12.136912148260288"><ele>178.6</ele><time>2026-04-18T09:36:24.977Z</time></trkpt><trkpt lat="44.150608832863334" lon="12.136833384096105"><ele>179.4</ele><time>2026-04-18T09:36:26.977Z</time></trkpt><trkpt lat="44.15052788238536" lon="12.136774199932127"><ele>180.20000000000002</ele><time>2026-04-18T09:36:28.977Z</time></trkpt><trkpt lat="44.15046769915612" lon="12.136711912695032"><ele>181.0</ele><time>2026-04-18T09:36:30.977Z</time></trkpt><trkpt lat="44.15039568902479" lon="12.13660693650294"><ele>181.60000000000002</ele><time>2026-04-18T09:36:32.977Z</time></trkpt><trkpt lat="44.15032057384832" lon="12.136524754167944"><ele>182.2</ele><time>2026-04-18T09:36:34.977Z</time></trkpt><trkpt lat="44.15022783910476" lon="12.136446226749932"><ele>182.8</ele><time>2026-04-18T09:36:36.977Z</time></trkpt><trkpt lat="44.15014145938986" lon="12.136338401996879"><ele>183.39999999999998</ele><time>2026-04-18T09:36:38.978Z</time></trkpt><trkpt lat="44.15008897576945" lon="12.136282166859095"><ele>184.0</ele><time>2026-04-18T09:36:39.978Z</time></trkpt><trkpt lat="44.15003555635599" lon="12.136209906703678"><ele>184.0</ele><time>2026-04-18T09:36:40.978Z</time></trkpt><trkpt lat="44.149984499254856" lon="12.136143648145275"><ele>184.0</ele><time>2026-04-18T09:36:41.979Z</time></trkpt><trkpt lat="44.149933641392415" lon="12.136065367554645"><ele>184.0</ele><time>2026-04-18T09:36:42.979Z</time></trkpt><trkpt lat="44.14987878175711" lon="12.135974537791125"><ele>184.0</ele><time>2026-04-18T09:36:43.979Z</time></trkpt><trkpt lat="44.14981670595824" lon="12.13588600643076"><ele>184.0</ele><time>2026-04-18T09:36:44.979Z</time></trkpt><trkpt lat="44.149757105618825" lon="12.135838831981932"><ele>184.0</ele><time>2026-04-18T09:36:45.979Z</time></trkpt><trkpt lat="44.14970763168629" lon="12.135783222177459"><ele>184.71428571428572</ele><time>2026-04-18T09:36:46.979Z</time></trkpt><trkpt lat="44.149651132491485" lon="12.135738846395869"><ele>185.42857142857142</ele><time>2026-04-18T09:36:47.979Z</time></trkpt><trkpt lat="44.149592434502026" lon="12.135697167869312"><ele>186.14285714285714</ele><time>2026-04-18T09:36:48.979Z</time></trkpt><trkpt lat="44.149532773191474" lon="12.13565406227455"><ele>186.85714285714286</ele><time>2026-04-18T09:36:49.979Z</time></trkpt><trkpt lat="44.14946212284606" lon="12.135604386192952"><ele>187.57142857142856</ele><time>2026-04-18T09:36:50.979Z</time></trkpt><trkpt lat="44.14942361064835" lon="12.135492745362836"><ele>188.28571428571428</ele><time>2026-04-18T09:36:51.979Z</time></trkpt><trkpt lat="44.14936356954495" lon="12.135450232389102"><ele>189.0</ele><time>2026-04-18T09:36:52.979Z</time></trkpt><trkpt lat="44.14930266345621" lon="12.135404027278753"><ele>191.5</ele><time>2026-04-18T09:36:53.979Z</time></trkpt><trkpt lat="44.14922651499753" lon="12.135351956816796"><ele>194.0</ele><time>2026-04-18T09:36:54.979Z</time></trkpt><trkpt lat="44.14913449186789" lon="12.135284965284809"><ele>196.5</ele><time>2026-04-18T09:36:55.979Z</time></trkpt><trkpt lat="44.14905490697539" lon="12.135244036102131"><ele>199.0</ele><time>2026-04-18T09:36:56.979Z</time></trkpt><trkpt lat="44.148980256532084" lon="12.13522179719171"><ele>201.5</ele><time>2026-04-18T09:36:57.979Z</time></trkpt><trkpt lat="44.14890019981557" lon="12.135223363257216"><ele>204.0</ele><time>2026-04-18T09:36:58.979Z</time></trkpt><trkpt lat="44.14882819849413" lon="12.135220404339952"><ele>206.16666666666666</ele><time>2026-04-18T09:36:59.979Z</time></trkpt><trkpt lat="44.148757217590614" lon="12.135222299797297"><ele>208.33333333333331</ele><time>2026-04-18T09:37:00.979Z</time></trkpt><trkpt lat="44.14868810844465" lon="12.13524219025324"><ele>210.5</ele><time>2026-04-18T09:37:01.979Z</time></trkpt><trkpt lat="44.14861141894259" lon="12.135249650027935"><ele>212.66666666666666</ele><time>2026-04-18T09:37:02.979Z</time></trkpt><trkpt lat="44.1485360963186" lon="12.135276574844294"><ele>214.83333333333331</ele><time>2026-04-18T09:37:03.979Z</time></trkpt><trkpt lat="44.148459258555086" lon="12.135306622077957"><ele>217.0</ele><time>2026-04-18T09:37:04.979Z</time></trkpt><trkpt lat="44.14838068968634" lon="12.135306880684668"><ele>216.99999999999997</ele><time>2026-04-18T09:37:05.979Z</time></trkpt><trkpt lat="44.148289466392335" lon="12.13531922926084"><ele>217.0</ele><time>2026-04-18T09:37:06.979Z</time></trkpt><trkpt lat="44.14819941475859" lon="12.135353030010457"><ele>217.0</ele><time>2026-04-18T09:37:07.979Z</time></trkpt><trkpt lat="44.14810432915863" lon="12.135333417685668"><ele>217.0</ele><time>2026-04-18T09:37:08.979Z</time></trkpt><trkpt lat="44.14802807515208" lon="12.135342116816119"><ele>216.99999999999997</ele><time>2026-04-18T09:37:09.979Z</time></trkpt><trkpt lat="44.14794864028599" lon="12.135338024228604"><ele>217.0</ele><time>2026-04-18T09:37:10.979Z</time></trkpt><trkpt lat="44.147870854513776" lon="12.135343336449885"><ele>217.33333333333331</ele><time>2026-04-18T09:37:11.979Z</time></trkpt><trkpt lat="44.14779225844084" lon="12.135333787495766"><ele>217.66666666666666</ele><time>2026-04-18T09:37:12.979Z</time></trkpt><trkpt lat="44.14771766381556" lon="12.135330648020096"><ele>218.0</ele><time>2026-04-18T09:37:13.979Z</time></trkpt><trkpt lat="44.14763764426481" lon="12.135331857832293"><ele>218.33333333333331</ele><time>2026-04-18T09:37:14.979Z</time></trkpt><trkpt lat="44.147555966941425" lon="12.135309704518379"><ele>218.66666666666666</ele><time>2026-04-18T09:37:15.979Z</time></trkpt><trkpt lat="44.147479949073826" lon="12.135279372592128"><ele>219.0</ele><time>2026-04-18T09:37:16.979Z</time></trkpt><trkpt lat="44.14740292146435" lon="12.13525000525724"><ele>219.5</ele><time>2026-04-18T09:37:17.979Z</time></trkpt><trkpt lat="44.147324643927846" lon="12.135256483469275"><ele>220.0</ele><time>2026-04-18T09:37:18.979Z</time></trkpt><trkpt lat="44.147259559323054" lon="12.135240167332386"><ele>220.5</ele><time>2026-04-18T09:37:19.979Z</time></trkpt><trkpt lat="44.14718505045405" lon="12.135240239150544"><ele>221.0</ele><time>2026-04-18T09:37:20.979Z</time></trkpt><trkpt lat="44.147115707217196" lon="12.135235902679694"><ele>221.5</ele><time>2026-04-18T09:37:21.979Z</time></trkpt><trkpt lat="44.1470425705504" lon="12.13521258597552"><ele>222.0</ele><time>2026-04-18T09:37:22.979Z</time></trkpt><trkpt lat="44.14693251517637" lon="12.135203836307413"><ele>222.0</ele><time>2026-04-18T09:37:24.979Z</time></trkpt><trkpt lat="44.14682350363549" lon="12.135202762604752"><ele>222.0</ele><time>2026-04-18T09:37:26.979Z</time></trkpt><trkpt lat="44.14672491273376" lon="12.135226105316315"><ele>222.0</ele><time>2026-04-18T09:37:28.979Z</time></trkpt><trkpt lat="44.14663782286065" lon="12.135240363922454"><ele>222.0</ele><time>2026-04-18T09:37:30.978Z</time></trkpt><trkpt lat="44.146540382570436" lon="12.135260241230338"><ele>222.0</ele><time>2026-04-18T09:37:32.978Z</time></trkpt><trkpt lat="44.146469394561166" lon="12.135292542890227"><ele>221.5</ele><time>2026-04-18T09:37:34.978Z</time></trkpt><trkpt lat="44.146398186588165" lon="12.13529522289702"><ele>221.0</ele><time>2026-04-18T09:37:36.978Z</time></trkpt><trkpt lat="44.1463240825298" lon="12.135288232013808"><ele>220.5</ele><time>2026-04-18T09:37:38.978Z</time></trkpt><trkpt lat="44.146258054743654" lon="12.135309841605906"><ele>220.0</ele><time>2026-04-18T09:37:40.978Z</time></trkpt><trkpt lat="44.14617029405556" lon="12.135311344338556"><ele>219.5</ele><time>2026-04-18T09:37:43.978Z</time></trkpt><trkpt lat="44.14605829742408" lon="12.135352706677288"><ele>219.0</ele><time>2026-04-18T09:37:45.978Z</time></trkpt><trkpt lat="44.14597706249281" lon="12.135429179911432"><ele>219.0</ele><time>2026-04-18T09:37:47.978Z</time></trkpt><trkpt lat="44.14594511952739" lon="12.135525880147185"><ele>218.99999999999997</ele><time>2026-04-18T09:37:49.978Z</time></trkpt><trkpt lat="44.14586464519792" lon="12.13563632144107"><ele>218.99999999999997</ele><time>2026-04-18T09:37:51.978Z</time></trkpt><trkpt lat="44.145836259096285" lon="12.135716900633566"><ele>219.0</ele><time>2026-04-18T09:37:52.978Z</time></trkpt><trkpt lat="44.14579504180764" lon="12.13587280966802"><ele>219.0</ele><time>2026-04-18T09:37:54.978Z</time></trkpt><trkpt lat="44.145723543410135" lon="12.136029401519526"><ele>222.33333333333334</ele><time>2026-04-18T09:37:56.978Z</time></trkpt><trkpt lat="44.14569345346793" lon="12.136106978719958"><ele>225.66666666666669</ele><time>2026-04-18T09:37:57.978Z</time></trkpt><trkpt lat="44.145670355884526" lon="12.136194625486999"><ele>229.0</ele><time>2026-04-18T09:37:58.978Z</time></trkpt><trkpt lat="44.145662622586876" lon="12.1362837614144"><ele>232.33333333333334</ele><time>2026-04-18T09:37:59.978Z</time></trkpt><trkpt lat="44.14562031583182" lon="12.136404959442203"><ele>235.66666666666669</ele><time>2026-04-18T09:38:00.978Z</time></trkpt><trkpt lat="44.14556898770213" lon="12.13651147950969"><ele>239.0</ele><time>2026-04-18T09:38:01.978Z</time></trkpt><trkpt lat="44.14553109563145" lon="12.136625082646"><ele>239.0</ele><time>2026-04-18T09:38:02.978Z</time></trkpt><trkpt lat="44.1455080348795" lon="12.13674862744795"><ele>238.99999999999997</ele><time>2026-04-18T09:38:03.978Z</time></trkpt><trkpt lat="44.14546605855031" lon="12.136858450684537"><ele>238.99999999999997</ele><time>2026-04-18T09:38:04.978Z</time></trkpt><trkpt lat="44.145430574052284" lon="12.13697134859531"><ele>239.0</ele><time>2026-04-18T09:38:05.978Z</time></trkpt><trkpt lat="44.145380509699535" lon="12.13707939249422"><ele>239.0</ele><time>2026-04-18T09:38:06.978Z</time></trkpt><trkpt lat="44.14535330493189" lon="12.137202313446815"><ele>239.00000000000003</ele><time>2026-04-18T09:38:07.978Z</time></trkpt><trkpt lat="44.145310689903376" lon="12.137294604608746"><ele>239.0</ele><time>2026-04-18T09:38:08.978Z</time></trkpt><trkpt lat="44.14527606632759" lon="12.137403690196352"><ele>239.0</ele><time>2026-04-18T09:38:09.978Z</time></trkpt><trkpt lat="44.145237348919686" lon="12.137526382104992"><ele>239.0</ele><time>2026-04-18T09:38:10.978Z</time></trkpt><trkpt lat="44.14520068331021" lon="12.137640326714086"><ele>239.00000000000003</ele><time>2026-04-18T09:38:11.978Z</time></trkpt><trkpt lat="44.14516183241182" lon="12.137755904092947"><ele>239.0</ele><time>2026-04-18T09:38:12.978Z</time></trkpt><trkpt lat="44.14512638902976" lon="12.137861344472748"><ele>237.33333333333334</ele><time>2026-04-18T09:38:13.978Z</time></trkpt><trkpt lat="44.14510286258452" lon="12.137983250082966"><ele>235.66666666666669</ele><time>2026-04-18T09:38:14.978Z</time></trkpt><trkpt lat="44.14505138863494" lon="12.138063284039488"><ele>234.0</ele><time>2026-04-18T09:38:15.978Z</time></trkpt><trkpt lat="44.14502000052104" lon="12.138161774372481"><ele>232.33333333333331</ele><time>2026-04-18T09:38:16.978Z</time></trkpt><trkpt lat="44.14498590494114" lon="12.13825705831577"><ele>230.66666666666666</ele><time>2026-04-18T09:38:17.978Z</time></trkpt><trkpt lat="44.144927787051756" lon="12.138403319984338"><ele>229.0</ele><time>2026-04-18T09:38:19.978Z</time></trkpt><trkpt lat="44.14489119732251" lon="12.138477188336571"><ele>228.33333333333331</ele><time>2026-04-18T09:38:20.978Z</time></trkpt><trkpt lat="44.14485851684948" lon="12.138561499209844"><ele>227.66666666666666</ele><time>2026-04-18T09:38:21.978Z</time></trkpt><trkpt lat="44.144809712011835" lon="12.138655269053654"><ele>227.0</ele><time>2026-04-18T09:38:22.978Z</time></trkpt><trkpt lat="44.14476833453568" lon="12.138765092951866"><ele>226.33333333333331</ele><time>2026-04-18T09:38:23.978Z</time></trkpt><trkpt lat="44.14471704508308" lon="12.138885972394727"><ele>225.66666666666666</ele><time>2026-04-18T09:38:24.978Z</time></trkpt><trkpt lat="44.144657418270135" lon="12.139003619022846"><ele>225.0</ele><time>2026-04-18T09:38:25.978Z</time></trkpt><trkpt lat="44.14459778511583" lon="12.139112132526167"><ele>225.0</ele><time>2026-04-18T09:38:26.978Z</time></trkpt><trkpt lat="44.14454518521149" lon="12.139221013699851"><ele>225.0</ele><time>2026-04-18T09:38:27.978Z</time></trkpt><trkpt lat="44.14448337625021" lon="12.139322440050305"><ele>225.0</ele><time>2026-04-18T09:38:28.978Z</time></trkpt><trkpt lat="44.144427431940564" lon="12.139443500351414"><ele>225.0</ele><time>2026-04-18T09:38:29.978Z</time></trkpt><trkpt lat="44.14436088311821" lon="12.139564306387172"><ele>225.0</ele><time>2026-04-18T09:38:30.978Z</time></trkpt><trkpt lat="44.14429835807422" lon="12.139698171143861"><ele>225.0</ele><time>2026-04-18T09:38:31.978Z</time></trkpt><trkpt lat="44.14421267559125" lon="12.139800339870716"><ele>225.0</ele><time>2026-04-18T09:38:32.978Z</time></trkpt><trkpt lat="44.1441453605679" lon="12.13992986979353"><ele>225.0</ele><time>2026-04-18T09:38:33.978Z</time></trkpt><trkpt lat="44.144075037486" lon="12.140059076507265"><ele>225.0</ele><time>2026-04-18T09:38:34.978Z</time></trkpt><trkpt lat="44.144006053064714" lon="12.14018083324473"><ele>227.8</ele><time>2026-04-18T09:38:35.978Z</time></trkpt><trkpt lat="44.143939844860974" lon="12.140297445917968"><ele>230.6</ele><time>2026-04-18T09:38:36.978Z</time></trkpt><trkpt lat="44.14387662241981" lon="12.140404480780777"><ele>233.39999999999998</ele><time>2026-04-18T09:38:37.978Z</time></trkpt><trkpt lat="44.14381690318161" lon="12.140506750442125"><ele>236.2</ele><time>2026-04-18T09:38:38.978Z</time></trkpt><trkpt lat="44.14375888164081" lon="12.140616996340729"><ele>239.0</ele><time>2026-04-18T09:38:39.978Z</time></trkpt><trkpt lat="44.14370481253061" lon="12.1406982527923"><ele>236.39999999999998</ele><time>2026-04-18T09:38:40.978Z</time></trkpt><trkpt lat="44.143666447802545" lon="12.140809604705817"><ele>233.79999999999998</ele><time>2026-04-18T09:38:41.978Z</time></trkpt><trkpt lat="44.14361040913951" lon="12.14091809327957"><ele>231.20000000000002</ele><time>2026-04-18T09:38:42.978Z</time></trkpt><trkpt lat="44.14356345153221" lon="12.141037935412937"><ele>228.60000000000002</ele><time>2026-04-18T09:38:43.978Z</time></trkpt><trkpt lat="44.143492012104154" lon="12.141150394215968"><ele>226.0</ele><time>2026-04-18T09:38:44.979Z</time></trkpt><trkpt lat="44.14342701881881" lon="12.141279792429083"><ele>226.0</ele><time>2026-04-18T09:38:45.979Z</time></trkpt><trkpt lat="44.14336613430564" lon="12.141401650354577"><ele>226.0</ele><time>2026-04-18T09:38:46.979Z</time></trkpt><trkpt lat="44.14330209795135" lon="12.141531428992204"><ele>226.0</ele><time>2026-04-18T09:38:47.978Z</time></trkpt><trkpt lat="44.143232903701524" lon="12.14166339693325"><ele>226.0</ele><time>2026-04-18T09:38:48.978Z</time></trkpt><trkpt lat="44.14317090053701" lon="12.141796438619858"><ele>225.4</ele><time>2026-04-18T09:38:49.979Z</time></trkpt><trkpt lat="44.143108767746845" lon="12.141929338529005"><ele>224.8</ele><time>2026-04-18T09:38:50.979Z</time></trkpt><trkpt lat="44.14304585104871" lon="12.14203981710077"><ele>224.20000000000002</ele><time>2026-04-18T09:38:51.979Z</time></trkpt><trkpt lat="44.142987354241875" lon="12.14215580738415"><ele>223.60000000000002</ele><time>2026-04-18T09:38:52.979Z</time></trkpt><trkpt lat="44.14292859677506" lon="12.142269465532427"><ele>223.0</ele><time>2026-04-18T09:38:53.978Z</time></trkpt><trkpt lat="44.14287500989365" lon="12.1423870632962"><ele>223.0</ele><time>2026-04-18T09:38:54.978Z</time></trkpt><trkpt lat="44.14282536497755" lon="12.142495868332368"><ele>223.0</ele><time>2026-04-18T09:38:55.979Z</time></trkpt><trkpt lat="44.14277008790639" lon="12.142605642732713"><ele>223.0</ele><time>2026-04-18T09:38:56.978Z</time></trkpt><trkpt lat="44.142717806047685" lon="12.142719198519304"><ele>223.0</ele><time>2026-04-18T09:38:57.978Z</time></trkpt><trkpt lat="44.14266331655271" lon="12.142832440835127"><ele>223.0</ele><time>2026-04-18T09:38:58.978Z</time></trkpt><trkpt lat="44.142615178141874" lon="12.142939372277617"><ele>223.0</ele><time>2026-04-18T09:38:59.978Z</time></trkpt><trkpt lat="44.14256540034636" lon="12.143043713621719"><ele>223.0</ele><time>2026-04-18T09:39:00.978Z</time></trkpt><trkpt lat="44.14251577871106" lon="12.143152151877514"><ele>223.0</ele><time>2026-04-18T09:39:01.978Z</time></trkpt><trkpt lat="44.14246457845212" lon="12.143249448163232"><ele>223.0</ele><time>2026-04-18T09:39:02.978Z</time></trkpt><trkpt lat="44.14242304510326" lon="12.143359434827362"><ele>223.0</ele><time>2026-04-18T09:39:03.978Z</time></trkpt><trkpt lat="44.142352696048896" lon="12.143456167249914"><ele>224.16666666666666</ele><time>2026-04-18T09:39:04.978Z</time></trkpt><trkpt lat="44.14230462723573" lon="12.143560132323467"><ele>225.33333333333331</ele><time>2026-04-18T09:39:05.978Z</time></trkpt><trkpt lat="44.1422597604763" lon="12.143659081969437"><ele>226.5</ele><time>2026-04-18T09:39:06.978Z</time></trkpt><trkpt lat="44.14220204564969" lon="12.143738648700161"><ele>227.66666666666669</ele><time>2026-04-18T09:39:07.978Z</time></trkpt><trkpt lat="44.142144183405456" lon="12.143812232668939"><ele>228.83333333333334</ele><time>2026-04-18T09:39:08.978Z</time></trkpt><trkpt lat="44.14208353324811" lon="12.14389222174293"><ele>230.0</ele><time>2026-04-18T09:39:09.978Z</time></trkpt><trkpt lat="44.142009351773766" lon="12.143947543126835"><ele>230.0</ele><time>2026-04-18T09:39:10.978Z</time></trkpt><trkpt lat="44.14192944987602" lon="12.14400712488287"><ele>230.0</ele><time>2026-04-18T09:39:11.978Z</time></trkpt><trkpt lat="44.14182135535012" lon="12.144063765334181"><ele>230.0</ele><time>2026-04-18T09:39:12.978Z</time></trkpt><trkpt lat="44.141712206477216" lon="12.144110799909724"><ele>230.0</ele><time>2026-04-18T09:39:13.978Z</time></trkpt><trkpt lat="44.14161288408373" lon="12.144157524359093"><ele>230.0</ele><time>2026-04-18T09:39:14.978Z</time></trkpt><trkpt lat="44.14150257744929" lon="12.14421645925884"><ele>226.25</ele><time>2026-04-18T09:39:15.978Z</time></trkpt><trkpt lat="44.14138682063076" lon="12.144266532776406"><ele>222.5</ele><time>2026-04-18T09:39:16.978Z</time></trkpt><trkpt lat="44.14126769587959" lon="12.144309884205141"><ele>218.75</ele><time>2026-04-18T09:39:17.978Z</time></trkpt><trkpt lat="44.14115210367202" lon="12.144369579372482"><ele>215.0</ele><time>2026-04-18T09:39:18.978Z</time></trkpt><trkpt lat="44.141026967882006" lon="12.144450377513527"><ele>215.0</ele><time>2026-04-18T09:39:19.978Z</time></trkpt><trkpt lat="44.14089364635573" lon="12.144494206897916"><ele>215.0</ele><time>2026-04-18T09:39:20.978Z</time></trkpt><trkpt lat="44.140771149271416" lon="12.14455570832591"><ele>215.0</ele><time>2026-04-18T09:39:21.978Z</time></trkpt><trkpt lat="44.140646987553716" lon="12.144623130974281"><ele>215.0</ele><time>2026-04-18T09:39:22.978Z</time></trkpt><trkpt lat="44.140532397330674" lon="12.14468215012322"><ele>215.0</ele><time>2026-04-18T09:39:23.978Z</time></trkpt><trkpt lat="44.1404219054031" lon="12.144731140793585"><ele>215.0</ele><time>2026-04-18T09:39:24.978Z</time></trkpt><trkpt lat="44.140325827833955" lon="12.144769982832559"><ele>215.0</ele><time>2026-04-18T09:39:25.978Z</time></trkpt><trkpt lat="44.140226856192754" lon="12.14482257906621"><ele>215.0</ele><time>2026-04-18T09:39:26.978Z</time></trkpt><trkpt lat="44.1401386550815" lon="12.144866110948517"><ele>215.0</ele><time>2026-04-18T09:39:27.978Z</time></trkpt><trkpt lat="44.14004690105789" lon="12.144915920678551"><ele>213.2</ele><time>2026-04-18T09:39:28.978Z</time></trkpt><trkpt lat="44.13995599363328" lon="12.144968263259353"><ele>211.4</ele><time>2026-04-18T09:39:29.978Z</time></trkpt><trkpt lat="44.13985826550313" lon="12.144997463997246"><ele>209.60000000000002</ele><time>2026-04-18T09:39:30.978Z</time></trkpt><trkpt lat="44.13976249788946" lon="12.14503319593503"><ele>207.8</ele><time>2026-04-18T09:39:31.978Z</time></trkpt><trkpt lat="44.13966062724461" lon="12.145072752262866"><ele>206.0</ele><time>2026-04-18T09:39:32.978Z</time></trkpt><trkpt lat="44.13954793761933" lon="12.14510522699454"><ele>206.0</ele><time>2026-04-18T09:39:33.978Z</time></trkpt><trkpt lat="44.139435494118715" lon="12.145123214857449"><ele>206.0</ele><time>2026-04-18T09:39:34.978Z</time></trkpt><trkpt lat="44.13931039558837" lon="12.14513037476699"><ele>206.0</ele><time>2026-04-18T09:39:35.978Z</time></trkpt><trkpt lat="44.13919237470246" lon="12.14512026401186"><ele>206.0</ele><time>2026-04-18T09:39:36.978Z</time></trkpt><trkpt lat="44.13906674452592" lon="12.145128911289342"><ele>206.5</ele><time>2026-04-18T09:39:37.978Z</time></trkpt><trkpt lat="44.13893731518845" lon="12.145129792634576"><ele>207.0</ele><time>2026-04-18T09:39:38.978Z</time></trkpt><trkpt lat="44.138816117017" lon="12.145123403465828"><ele>207.5</ele><time>2026-04-18T09:39:39.978Z</time></trkpt><trkpt lat="44.13869550311428" lon="12.145124529843166"><ele>208.0</ele><time>2026-04-18T09:39:40.978Z</time></trkpt><trkpt lat="44.13857395058801" lon="12.145136366222157"><ele>208.0</ele><time>2026-04-18T09:39:41.978Z</time></trkpt><trkpt lat="44.1384593478054" lon="12.14512995904725"><ele>208.0</ele><time>2026-04-18T09:39:42.978Z</time></trkpt><trkpt lat="44.13834578630618" lon="12.145129265724929"><ele>208.0</ele><time>2026-04-18T09:39:43.978Z</time></trkpt><trkpt lat="44.13822691900181" lon="12.145141587845464"><ele>208.0</ele><time>2026-04-18T09:39:44.978Z</time></trkpt><trkpt lat="44.13811787909288" lon="12.145156979918987"><ele>208.25</ele><time>2026-04-18T09:39:45.978Z</time></trkpt><trkpt lat="44.1380056138053" lon="12.145178912137098"><ele>208.5</ele><time>2026-04-18T09:39:46.978Z</time></trkpt><trkpt lat="44.13790303865283" lon="12.14520735390973"><ele>208.75</ele><time>2026-04-18T09:39:47.978Z</time></trkpt><trkpt lat="44.13779061212211" lon="12.145251645351358"><ele>209.0</ele><time>2026-04-18T09:39:48.978Z</time></trkpt><trkpt lat="44.137675115344464" lon="12.145316212317303"><ele>209.0</ele><time>2026-04-18T09:39:49.978Z</time></trkpt><trkpt lat="44.13755631739646" lon="12.145376464367297"><ele>209.0</ele><time>2026-04-18T09:39:50.978Z</time></trkpt><trkpt lat="44.137437922763986" lon="12.145424553575788"><ele>209.0</ele><time>2026-04-18T09:39:51.978Z</time></trkpt><trkpt lat="44.137320305905135" lon="12.14544392469292"><ele>209.0</ele><time>2026-04-18T09:39:52.978Z</time></trkpt><trkpt lat="44.1372086111489" lon="12.145492311078122"><ele>207.0</ele><time>2026-04-18T09:39:53.978Z</time></trkpt><trkpt lat="44.13709583899136" lon="12.145538694957493"><ele>205.0</ele><time>2026-04-18T09:39:54.978Z</time></trkpt><trkpt lat="44.13698829477209" lon="12.145580807315316"><ele>203.0</ele><time>2026-04-18T09:39:55.978Z</time></trkpt><trkpt lat="44.13689120156029" lon="12.145624516919876"><ele>201.0</ele><time>2026-04-18T09:39:56.978Z</time></trkpt><trkpt lat="44.136802337420136" lon="12.145687166667328"><ele>199.0</ele><time>2026-04-18T09:39:57.978Z</time></trkpt><trkpt lat="44.136716094075155" lon="12.145766199362816"><ele>198.39999999999998</ele><time>2026-04-18T09:39:58.978Z</time></trkpt><trkpt lat="44.13662956618959" lon="12.145858817890268"><ele>197.8</ele><time>2026-04-18T09:39:59.978Z</time></trkpt><trkpt lat="44.136546115208716" lon="12.145930292229743"><ele>197.2</ele><time>2026-04-18T09:40:00.978Z</time></trkpt><trkpt lat="44.136458393729036" lon="12.146024536191803"><ele>196.60000000000002</ele><time>2026-04-18T09:40:01.978Z</time></trkpt><trkpt lat="44.13635477898407" lon="12.146068130449873"><ele>196.0</ele><time>2026-04-18T09:40:02.978Z</time></trkpt><trkpt lat="44.13627480593336" lon="12.14616061059705"><ele>195.8</ele><time>2026-04-18T09:40:03.978Z</time></trkpt><trkpt lat="44.13620986507804" lon="12.146264401715705"><ele>195.60000000000002</ele><time>2026-04-18T09:40:04.978Z</time></trkpt><trkpt lat="44.13614510301712" lon="12.146384302559955"><ele>195.4</ele><time>2026-04-18T09:40:05.978Z</time></trkpt><trkpt lat="44.13609410254008" lon="12.146511934915878"><ele>195.2</ele><time>2026-04-18T09:40:06.978Z</time></trkpt><trkpt lat="44.13602117182315" lon="12.146632353578472"><ele>195.0</ele><time>2026-04-18T09:40:07.978Z</time></trkpt><trkpt lat="44.13595003854469" lon="12.146745289175175"><ele>194.6</ele><time>2026-04-18T09:40:08.978Z</time></trkpt><trkpt lat="44.13586971480935" lon="12.146849626801387"><ele>194.2</ele><time>2026-04-18T09:40:09.978Z</time></trkpt><trkpt lat="44.1358005169325" lon="12.146956192992718"><ele>193.8</ele><time>2026-04-18T09:40:10.978Z</time></trkpt><trkpt lat="44.13571120558222" lon="12.147031548561435"><ele>193.4</ele><time>2026-04-18T09:40:11.978Z</time></trkpt><trkpt lat="44.13564238524845" lon="12.14711575286286"><ele>193.0</ele><time>2026-04-18T09:40:12.978Z</time></trkpt><trkpt lat="44.135577548421864" lon="12.147188001498435"><ele>193.0</ele><time>2026-04-18T09:40:13.978Z</time></trkpt><trkpt lat="44.135510644787416" lon="12.147258592733271"><ele>193.0</ele><time>2026-04-18T09:40:14.978Z</time></trkpt><trkpt lat="44.135431250184126" lon="12.147322581458864"><ele>193.0</ele><time>2026-04-18T09:40:15.978Z</time></trkpt><trkpt lat="44.13534308483117" lon="12.147390480680647"><ele>193.0</ele><time>2026-04-18T09:40:16.978Z</time></trkpt><trkpt lat="44.13525717298027" lon="12.147452759274112"><ele>193.0</ele><time>2026-04-18T09:40:17.978Z</time></trkpt><trkpt lat="44.1351782610729" lon="12.147502054788776"><ele>192.8</ele><time>2026-04-18T09:40:18.978Z</time></trkpt><trkpt lat="44.13509460645503" lon="12.147555946723061"><ele>192.60000000000002</ele><time>2026-04-18T09:40:19.978Z</time></trkpt><trkpt lat="44.1350024731346" lon="12.147618183920239"><ele>192.39999999999998</ele><time>2026-04-18T09:40:20.978Z</time></trkpt><trkpt lat="44.13491290436718" lon="12.147673223395143"><ele>192.2</ele><time>2026-04-18T09:40:21.978Z</time></trkpt><trkpt lat="44.13482445661292" lon="12.147732512184499"><ele>192.0</ele><time>2026-04-18T09:40:22.978Z</time></trkpt><trkpt lat="44.13473931135703" lon="12.147781162688352"><ele>192.0</ele><time>2026-04-18T09:40:23.978Z</time></trkpt><trkpt lat="44.13465080417667" lon="12.14783836555084"><ele>192.0</ele><time>2026-04-18T09:40:24.978Z</time></trkpt><trkpt lat="44.13456164010703" lon="12.147893313987034"><ele>192.0</ele><time>2026-04-18T09:40:25.978Z</time></trkpt><trkpt lat="44.13448395846668" lon="12.14794043922947"><ele>192.0</ele><time>2026-04-18T09:40:26.978Z</time></trkpt><trkpt lat="44.13439474233935" lon="12.147999496877391"><ele>192.0</ele><time>2026-04-18T09:40:27.978Z</time></trkpt><trkpt lat="44.13432150228355" lon="12.148060657763018"><ele>192.0</ele><time>2026-04-18T09:40:28.978Z</time></trkpt><trkpt lat="44.1342480288317" lon="12.148132761437013"><ele>192.0</ele><time>2026-04-18T09:40:29.978Z</time></trkpt><trkpt lat="44.134165836747094" lon="12.148234907124463"><ele>192.0</ele><time>2026-04-18T09:40:30.978Z</time></trkpt><trkpt lat="44.13409015426209" lon="12.14834463519975"><ele>192.0</ele><time>2026-04-18T09:40:31.978Z</time></trkpt><trkpt lat="44.134012170601146" lon="12.148463262421197"><ele>192.0</ele><time>2026-04-18T09:40:32.978Z</time></trkpt><trkpt lat="44.13393574153317" lon="12.148577538943169"><ele>191.8</ele><time>2026-04-18T09:40:33.978Z</time></trkpt><trkpt lat="44.133864002127424" lon="12.148684507005667"><ele>191.6</ele><time>2026-04-18T09:40:34.978Z</time></trkpt><trkpt lat="44.13377016366305" lon="12.148778673451558"><ele>191.4</ele><time>2026-04-18T09:40:35.978Z</time></trkpt><trkpt lat="44.13370219632718" lon="12.148884778007789"><ele>191.20000000000002</ele><time>2026-04-18T09:40:36.978Z</time></trkpt><trkpt lat="44.13363925560157" lon="12.148984319143489"><ele>191.0</ele><time>2026-04-18T09:40:37.978Z</time></trkpt><trkpt lat="44.13356621714029" lon="12.14907482532947"><ele>191.0</ele><time>2026-04-18T09:40:38.977Z</time></trkpt><trkpt lat="44.13349151506707" lon="12.149171683728644"><ele>191.0</ele><time>2026-04-18T09:40:39.977Z</time></trkpt><trkpt lat="44.13341839052643" lon="12.149277833790293"><ele>191.0</ele><time>2026-04-18T09:40:40.977Z</time></trkpt><trkpt lat="44.13335105419434" lon="12.149378990028406"><ele>191.0</ele><time>2026-04-18T09:40:41.977Z</time></trkpt><trkpt lat="44.13330245012148" lon="12.149475214435164"><ele>191.0</ele><time>2026-04-18T09:40:42.977Z</time></trkpt><trkpt lat="44.133229858964924" lon="12.149560978330836"><ele>191.4</ele><time>2026-04-18T09:40:43.977Z</time></trkpt><trkpt lat="44.13316284796339" lon="12.149648985631933"><ele>191.8</ele><time>2026-04-18T09:40:44.977Z</time></trkpt><trkpt lat="44.133104460665066" lon="12.149759860322716"><ele>192.20000000000002</ele><time>2026-04-18T09:40:45.977Z</time></trkpt><trkpt lat="44.133058186993196" lon="12.149882360961257"><ele>192.60000000000002</ele><time>2026-04-18T09:40:46.977Z</time></trkpt><trkpt lat="44.13302098216418" lon="12.149990864073123"><ele>193.0</ele><time>2026-04-18T09:40:47.977Z</time></trkpt><trkpt lat="44.132987818931824" lon="12.150085375957607"><ele>193.99999999999997</ele><time>2026-04-18T09:40:48.977Z</time></trkpt><trkpt lat="44.13296477850551" lon="12.150171169544118"><ele>195.0</ele><time>2026-04-18T09:40:49.978Z</time></trkpt><trkpt lat="44.13291491750988" lon="12.150295099022072"><ele>196.0</ele><time>2026-04-18T09:40:51.978Z</time></trkpt><trkpt lat="44.13284900399043" lon="12.15041249941173"><ele>197.0</ele><time>2026-04-18T09:40:53.978Z</time></trkpt><trkpt lat="44.13278157916243" lon="12.150484606113833"><ele>197.99999999999997</ele><time>2026-04-18T09:40:55.979Z</time></trkpt><trkpt lat="44.1327078131687" lon="12.150489073232453"><ele>199.0</ele><time>2026-04-18T09:40:56.979Z</time></trkpt><trkpt lat="44.13264300604422" lon="12.150479370842758"><ele>198.99999999999997</ele><time>2026-04-18T09:40:57.979Z</time></trkpt><trkpt lat="44.13257477598863" lon="12.150470853609843"><ele>199.0</ele><time>2026-04-18T09:40:58.978Z</time></trkpt><trkpt lat="44.1325096108097" lon="12.150441917554843"><ele>199.0</ele><time>2026-04-18T09:40:59.978Z</time></trkpt><trkpt lat="44.13244240533135" lon="12.150414886101494"><ele>199.0</ele><time>2026-04-18T09:41:00.978Z</time></trkpt><trkpt lat="44.13237730714739" lon="12.150380490856332"><ele>199.0</ele><time>2026-04-18T09:41:01.978Z</time></trkpt><trkpt lat="44.13231062219813" lon="12.150343723656666"><ele>198.99999999999997</ele><time>2026-04-18T09:41:02.978Z</time></trkpt><trkpt lat="44.132239646545095" lon="12.150295301513735"><ele>199.0</ele><time>2026-04-18T09:41:03.978Z</time></trkpt><trkpt lat="44.13217152358428" lon="12.150215480496707"><ele>200.6</ele><time>2026-04-18T09:41:04.978Z</time></trkpt><trkpt lat="44.132102394687784" lon="12.15014283727543"><ele>202.2</ele><time>2026-04-18T09:41:05.978Z</time></trkpt><trkpt lat="44.132027616541556" lon="12.150062239956277"><ele>203.79999999999998</ele><time>2026-04-18T09:41:06.978Z</time></trkpt><trkpt lat="44.1319433725101" lon="12.149972332527145"><ele>205.39999999999998</ele><time>2026-04-18T09:41:07.978Z</time></trkpt><trkpt lat="44.131861445980434" lon="12.14987160790138"><ele>207.0</ele><time>2026-04-18T09:41:08.978Z</time></trkpt><trkpt lat="44.13177425395776" lon="12.149770529347268"><ele>207.0</ele><time>2026-04-18T09:41:09.978Z</time></trkpt><trkpt lat="44.131697083010415" lon="12.149673307493781"><ele>207.0</ele><time>2026-04-18T09:41:10.978Z</time></trkpt><trkpt lat="44.131621126782136" lon="12.149587151022622"><ele>207.0</ele><time>2026-04-18T09:41:11.978Z</time></trkpt><trkpt lat="44.13153638146231" lon="12.149497408884043"><ele>207.0</ele><time>2026-04-18T09:41:12.978Z</time></trkpt><trkpt lat="44.13145893737168" lon="12.149422731974894"><ele>207.0</ele><time>2026-04-18T09:41:13.978Z</time></trkpt><trkpt lat="44.131383109552786" lon="12.149354526591805"><ele>207.0</ele><time>2026-04-18T09:41:14.978Z</time></trkpt><trkpt lat="44.13129117658734" lon="12.14929318686995"><ele>207.0</ele><time>2026-04-18T09:41:15.978Z</time></trkpt><trkpt lat="44.13120699537016" lon="12.149235419928004"><ele>207.0</ele><time>2026-04-18T09:41:16.978Z</time></trkpt><trkpt lat="44.13110447781385" lon="12.14915510421339"><ele>207.0</ele><time>2026-04-18T09:41:17.978Z</time></trkpt><trkpt lat="44.13100228572701" lon="12.149064009943075"><ele>207.0</ele><time>2026-04-18T09:41:18.978Z</time></trkpt><trkpt lat="44.13090216271643" lon="12.148976455900005"><ele>207.25</ele><time>2026-04-18T09:41:19.978Z</time></trkpt><trkpt lat="44.13078059914041" lon="12.148894595186228"><ele>207.5</ele><time>2026-04-18T09:41:20.978Z</time></trkpt><trkpt lat="44.130667502510526" lon="12.148806916430692"><ele>207.75</ele><time>2026-04-18T09:41:21.978Z</time></trkpt><trkpt lat="44.13056817405319" lon="12.148729063640403"><ele>208.0</ele><time>2026-04-18T09:41:22.978Z</time></trkpt><trkpt lat="44.13047235805969" lon="12.148659246224701"><ele>208.0</ele><time>2026-04-18T09:41:23.978Z</time></trkpt><trkpt lat="44.13038975733842" lon="12.148587803899686"><ele>208.0</ele><time>2026-04-18T09:41:24.978Z</time></trkpt><trkpt lat="44.13030677919576" lon="12.148529681760959"><ele>208.0</ele><time>2026-04-18T09:41:25.978Z</time></trkpt><trkpt lat="44.130218063222586" lon="12.148469319892689"><ele>208.0</ele><time>2026-04-18T09:41:26.978Z</time></trkpt><trkpt lat="44.13011962045082" lon="12.148399596652123"><ele>208.0</ele><time>2026-04-18T09:41:27.978Z</time></trkpt><trkpt lat="44.13002942977189" lon="12.148330040140031"><ele>208.0</ele><time>2026-04-18T09:41:28.978Z</time></trkpt><trkpt lat="44.12993586939762" lon="12.148261175418119"><ele>208.0</ele><time>2026-04-18T09:41:29.978Z</time></trkpt><trkpt lat="44.12985252790554" lon="12.148202482222425"><ele>208.0</ele><time>2026-04-18T09:41:30.978Z</time></trkpt><trkpt lat="44.129755672789805" lon="12.148141986886724"><ele>208.0</ele><time>2026-04-18T09:41:31.978Z</time></trkpt><trkpt lat="44.12968024589342" lon="12.148087594069192"><ele>208.0</ele><time>2026-04-18T09:41:32.978Z</time></trkpt><trkpt lat="44.12960685440532" lon="12.148045197048326"><ele>207.83333333333331</ele><time>2026-04-18T09:41:33.978Z</time></trkpt><trkpt lat="44.12954437014219" lon="12.147993385717609"><ele>207.66666666666666</ele><time>2026-04-18T09:41:34.978Z</time></trkpt><trkpt lat="44.12946695069625" lon="12.147928376719173"><ele>207.5</ele><time>2026-04-18T09:41:35.978Z</time></trkpt><trkpt lat="44.129388580153076" lon="12.147855666297348"><ele>207.33333333333331</ele><time>2026-04-18T09:41:36.978Z</time></trkpt><trkpt lat="44.12930194593366" lon="12.147783552245755"><ele>207.16666666666666</ele><time>2026-04-18T09:41:37.978Z</time></trkpt><trkpt lat="44.12923525954399" lon="12.147719339104794"><ele>207.0</ele><time>2026-04-18T09:41:38.978Z</time></trkpt><trkpt lat="44.12916242109004" lon="12.147661373145963"><ele>207.0</ele><time>2026-04-18T09:41:39.978Z</time></trkpt><trkpt lat="44.12908306902952" lon="12.147591705033127"><ele>207.0</ele><time>2026-04-18T09:41:40.978Z</time></trkpt><trkpt lat="44.128999251483215" lon="12.147502100276055"><ele>207.0</ele><time>2026-04-18T09:41:41.978Z</time></trkpt><trkpt lat="44.12889925040971" lon="12.147420482786771"><ele>207.0</ele><time>2026-04-18T09:41:42.978Z</time></trkpt><trkpt lat="44.12880233307599" lon="12.147337325049662"><ele>207.0</ele><time>2026-04-18T09:41:43.978Z</time></trkpt><trkpt lat="44.1287158272196" lon="12.147252651328992"><ele>208.2</ele><time>2026-04-18T09:41:44.978Z</time></trkpt><trkpt lat="44.12862483057243" lon="12.147169046164978"><ele>209.39999999999998</ele><time>2026-04-18T09:41:45.978Z</time></trkpt><trkpt lat="44.12852980001995" lon="12.147082663795723"><ele>210.60000000000002</ele><time>2026-04-18T09:41:46.978Z</time></trkpt><trkpt lat="44.12843532790568" lon="12.14701060660258"><ele>211.8</ele><time>2026-04-18T09:41:47.978Z</time></trkpt><trkpt lat="44.1283265616426" lon="12.146948967646294"><ele>213.0</ele><time>2026-04-18T09:41:48.978Z</time></trkpt><trkpt lat="44.12820990288009" lon="12.146895185301432"><ele>216.5</ele><time>2026-04-18T09:41:49.978Z</time></trkpt><trkpt lat="44.12808158953874" lon="12.146858926457107"><ele>220.0</ele><time>2026-04-18T09:41:50.978Z</time></trkpt><trkpt lat="44.127955052853935" lon="12.146845140981313"><ele>223.5</ele><time>2026-04-18T09:41:51.978Z</time></trkpt><trkpt lat="44.12782661094039" lon="12.14683301355998"><ele>227.0</ele><time>2026-04-18T09:41:52.978Z</time></trkpt><trkpt lat="44.12769817819202" lon="12.146825484625717"><ele>227.0</ele><time>2026-04-18T09:41:53.978Z</time></trkpt><trkpt lat="44.12757921000496" lon="12.146820918516513"><ele>227.0</ele><time>2026-04-18T09:41:54.978Z</time></trkpt><trkpt lat="44.12748588341022" lon="12.14678428062388"><ele>227.0</ele><time>2026-04-18T09:41:55.978Z</time></trkpt><trkpt lat="44.12739318446001" lon="12.146787745985037"><ele>227.0</ele><time>2026-04-18T09:41:56.978Z</time></trkpt><trkpt lat="44.12730090335172" lon="12.146782593289144"><ele>227.0</ele><time>2026-04-18T09:41:57.978Z</time></trkpt><trkpt lat="44.12720794650179" lon="12.146769304378937"><ele>226.8</ele><time>2026-04-18T09:41:58.978Z</time></trkpt><trkpt lat="44.127113121265" lon="12.14672628803683"><ele>226.6</ele><time>2026-04-18T09:41:59.978Z</time></trkpt><trkpt lat="44.12702392017061" lon="12.146656242912577"><ele>226.40000000000003</ele><time>2026-04-18T09:42:00.978Z</time></trkpt><trkpt lat="44.12693235022426" lon="12.146605428744252"><ele>226.20000000000002</ele><time>2026-04-18T09:42:01.978Z</time></trkpt><trkpt lat="44.12683460817526" lon="12.146551189546193"><ele>226.0</ele><time>2026-04-18T09:42:02.978Z</time></trkpt><trkpt lat="44.1267447046584" lon="12.146501300120045"><ele>225.99999999999997</ele><time>2026-04-18T09:42:03.978Z</time></trkpt><trkpt lat="44.126648493274494" lon="12.146491659978441"><ele>226.0</ele><time>2026-04-18T09:42:04.978Z</time></trkpt><trkpt lat="44.12658839746777" lon="12.146449636851248"><ele>226.0</ele><time>2026-04-18T09:42:05.978Z</time></trkpt><trkpt lat="44.12649538076215" lon="12.146446396350226"><ele>226.0</ele><time>2026-04-18T09:42:06.978Z</time></trkpt><trkpt lat="44.12640960912214" lon="12.146481248509211"><ele>225.99999999999997</ele><time>2026-04-18T09:42:07.978Z</time></trkpt><trkpt lat="44.126324066906385" lon="12.146509408314381"><ele>226.0</ele><time>2026-04-18T09:42:08.978Z</time></trkpt><trkpt lat="44.126239499839805" lon="12.14655434676891"><ele>227.20000000000002</ele><time>2026-04-18T09:42:09.978Z</time></trkpt><trkpt lat="44.12616230876247" lon="12.146605640540713"><ele>228.40000000000003</ele><time>2026-04-18T09:42:10.978Z</time></trkpt><trkpt lat="44.12608766041292" lon="12.146673774305139"><ele>229.6</ele><time>2026-04-18T09:42:11.978Z</time></trkpt><trkpt lat="44.12601539612129" lon="12.146785573075213"><ele>230.8</ele><time>2026-04-18T09:42:12.978Z</time></trkpt><trkpt lat="44.12594517032977" lon="12.146901055109629"><ele>232.0</ele><time>2026-04-18T09:42:13.978Z</time></trkpt><trkpt lat="44.12588128957228" lon="12.147035083027783"><ele>232.0</ele><time>2026-04-18T09:42:14.978Z</time></trkpt><trkpt lat="44.12582196331553" lon="12.147153962340411"><ele>232.0</ele><time>2026-04-18T09:42:15.978Z</time></trkpt><trkpt lat="44.125758606016134" lon="12.147265597335732"><ele>232.0</ele><time>2026-04-18T09:42:16.978Z</time></trkpt><trkpt lat="44.12569302023032" lon="12.147379584356422"><ele>232.0</ele><time>2026-04-18T09:42:17.978Z</time></trkpt><trkpt lat="44.125630164019846" lon="12.147484691032815"><ele>232.0</ele><time>2026-04-18T09:42:18.978Z</time></trkpt><trkpt lat="44.125554983925305" lon="12.147610025366646"><ele>235.2</ele><time>2026-04-18T09:42:19.978Z</time></trkpt><trkpt lat="44.12549031201735" lon="12.147718043038044"><ele>238.39999999999998</ele><time>2026-04-18T09:42:20.978Z</time></trkpt><trkpt lat="44.12542142404627" lon="12.147811615422377"><ele>241.60000000000002</ele><time>2026-04-18T09:42:21.978Z</time></trkpt><trkpt lat="44.12533418891055" lon="12.147873817641678"><ele>244.8</ele><time>2026-04-18T09:42:22.978Z</time></trkpt><trkpt lat="44.125264788450075" lon="12.14796637698547"><ele>248.0</ele><time>2026-04-18T09:42:23.978Z</time></trkpt><trkpt lat="44.125166941334946" lon="12.14802067191346"><ele>248.0</ele><time>2026-04-18T09:42:24.978Z</time></trkpt><trkpt lat="44.12508725061145" lon="12.148073001280677"><ele>248.0</ele><time>2026-04-18T09:42:25.978Z</time></trkpt><trkpt lat="44.125011693417264" lon="12.148099812345912"><ele>248.0</ele><time>2026-04-18T09:42:26.978Z</time></trkpt><trkpt lat="44.12492873979648" lon="12.148115770095293"><ele>248.0</ele><time>2026-04-18T09:42:27.978Z</time></trkpt><trkpt lat="44.12481487214929" lon="12.148132606521472"><ele>248.0</ele><time>2026-04-18T09:42:28.978Z</time></trkpt><trkpt lat="44.12470317217003" lon="12.148139018807955"><ele>250.8</ele><time>2026-04-18T09:42:29.978Z</time></trkpt><trkpt lat="44.124604128479945" lon="12.148140637906096"><ele>253.60000000000002</ele><time>2026-04-18T09:42:30.978Z</time></trkpt><trkpt lat="44.124514743049176" lon="12.148139643587935"><ele>256.4</ele><time>2026-04-18T09:42:31.978Z</time></trkpt><trkpt lat="44.12442517790507" lon="12.148138073328099"><ele>259.2</ele><time>2026-04-18T09:42:32.978Z</time></trkpt><trkpt lat="44.12431163278851" lon="12.148133197443277"><ele>262.0</ele><time>2026-04-18T09:42:33.978Z</time></trkpt><trkpt lat="44.12420628528302" lon="12.148135974313247"><ele>262.0</ele><time>2026-04-18T09:42:34.978Z</time></trkpt><trkpt lat="44.12409193589288" lon="12.148130415537285"><ele>262.0</ele><time>2026-04-18T09:42:35.978Z</time></trkpt><trkpt lat="44.123980681394194" lon="12.14810938288525"><ele>262.0</ele><time>2026-04-18T09:42:36.977Z</time></trkpt><trkpt lat="44.123869265676475" lon="12.148102680857685"><ele>262.0</ele><time>2026-04-18T09:42:37.977Z</time></trkpt><trkpt lat="44.123771503108976" lon="12.148082345542727"><ele>262.0</ele><time>2026-04-18T09:42:38.977Z</time></trkpt><trkpt lat="44.12368409267399" lon="12.148067982735249"><ele>261.3333333333333</ele><time>2026-04-18T09:42:39.977Z</time></trkpt><trkpt lat="44.12359166691832" lon="12.148047219189891"><ele>260.66666666666663</ele><time>2026-04-18T09:42:40.977Z</time></trkpt><trkpt lat="44.123510154191884" lon="12.148024928878263"><ele>260.0</ele><time>2026-04-18T09:42:41.977Z</time></trkpt><trkpt lat="44.12343331046032" lon="12.147987923761102"><ele>259.3333333333333</ele><time>2026-04-18T09:42:42.977Z</time></trkpt><trkpt lat="44.12336460399852" lon="12.147940643082293"><ele>258.6666666666667</ele><time>2026-04-18T09:42:43.977Z</time></trkpt><trkpt lat="44.12330679618802" lon="12.1478731235675"><ele>258.0</ele><time>2026-04-18T09:42:44.977Z</time></trkpt><trkpt lat="44.12328702182192" lon="12.147757765819293"><ele>258.0</ele><time>2026-04-18T09:42:45.977Z</time></trkpt><trkpt lat="44.123255337891436" lon="12.14762577036195"><ele>258.0</ele><time>2026-04-18T09:42:46.977Z</time></trkpt><trkpt lat="44.12322519409203" lon="12.147454615655874"><ele>258.0</ele><time>2026-04-18T09:42:47.977Z</time></trkpt><trkpt lat="44.12317656715395" lon="12.14726871993732"><ele>258.0</ele><time>2026-04-18T09:42:48.977Z</time></trkpt><trkpt lat="44.123156245397475" lon="12.147084371200881"><ele>257.4</ele><time>2026-04-18T09:42:49.977Z</time></trkpt><trkpt lat="44.12312964023745" lon="12.146932304626732"><ele>256.8</ele><time>2026-04-18T09:42:50.977Z</time></trkpt><trkpt lat="44.12312392448138" lon="12.14677487120298"><ele>256.2</ele><time>2026-04-18T09:42:51.977Z</time></trkpt><trkpt lat="44.123101283930346" lon="12.146644334626322"><ele>255.6</ele><time>2026-04-18T09:42:52.977Z</time></trkpt><trkpt lat="44.12306236753354" lon="12.1465138513621"><ele>255.0</ele><time>2026-04-18T09:42:53.977Z</time></trkpt><trkpt lat="44.12302761748365" lon="12.146380303603568"><ele>255.0</ele><time>2026-04-18T09:42:54.979Z</time></trkpt><trkpt lat="44.122985305160704" lon="12.146259330960143"><ele>255.0</ele><time>2026-04-18T09:42:55.979Z</time></trkpt><trkpt lat="44.12293276684363" lon="12.146135236661753"><ele>255.0</ele><time>2026-04-18T09:42:56.979Z</time></trkpt><trkpt lat="44.12286991755156" lon="12.146007878774716"><ele>255.0</ele><time>2026-04-18T09:42:57.979Z</time></trkpt><trkpt lat="44.12279573246017" lon="12.14588658671369"><ele>255.0</ele><time>2026-04-18T09:42:58.979Z</time></trkpt><trkpt lat="44.12271861229799" lon="12.145781549433897"><ele>254.25</ele><time>2026-04-18T09:42:59.979Z</time></trkpt><trkpt lat="44.12263672575464" lon="12.145680919494035"><ele>253.5</ele><time>2026-04-18T09:43:00.979Z</time></trkpt><trkpt lat="44.12254891223732" lon="12.145575437573164"><ele>252.75</ele><time>2026-04-18T09:43:01.979Z</time></trkpt><trkpt lat="44.122442705927384" lon="12.145469990830524"><ele>252.0</ele><time>2026-04-18T09:43:02.979Z</time></trkpt><trkpt lat="44.12235832638557" lon="12.145371105046118"><ele>251.2</ele><time>2026-04-18T09:43:03.979Z</time></trkpt><trkpt lat="44.12227939209679" lon="12.14527865833583"><ele>250.39999999999998</ele><time>2026-04-18T09:43:04.979Z</time></trkpt><trkpt lat="44.12219768155789" lon="12.145192110018288"><ele>249.60000000000002</ele><time>2026-04-18T09:43:05.979Z</time></trkpt><trkpt lat="44.12211120403136" lon="12.145118068949103"><ele>248.8</ele><time>2026-04-18T09:43:06.979Z</time></trkpt><trkpt lat="44.12202771281518" lon="12.145065472972993"><ele>248.0</ele><time>2026-04-18T09:43:07.978Z</time></trkpt><trkpt lat="44.121933147023014" lon="12.145029464296655"><ele>248.0</ele><time>2026-04-18T09:43:08.978Z</time></trkpt><trkpt lat="44.12184740420781" lon="12.144994642376005"><ele>248.0</ele><time>2026-04-18T09:43:09.978Z</time></trkpt><trkpt lat="44.121748687938165" lon="12.144979530333606"><ele>248.0</ele><time>2026-04-18T09:43:10.978Z</time></trkpt><trkpt lat="44.121653173122034" lon="12.1449861485941"><ele>248.0</ele><time>2026-04-18T09:43:11.978Z</time></trkpt><trkpt lat="44.121567936514225" lon="12.144994490826573"><ele>248.0</ele><time>2026-04-18T09:43:12.978Z</time></trkpt><trkpt lat="44.12147060019132" lon="12.145033380696505"><ele>246.2</ele><time>2026-04-18T09:43:13.978Z</time></trkpt><trkpt lat="44.12139166445237" lon="12.145109439577858"><ele>244.4</ele><time>2026-04-18T09:43:14.978Z</time></trkpt><trkpt lat="44.12130950862482" lon="12.145187218680018"><ele>242.59999999999997</ele><time>2026-04-18T09:43:15.978Z</time></trkpt><trkpt lat="44.12123624652948" lon="12.145291012581017"><ele>240.79999999999998</ele><time>2026-04-18T09:43:16.978Z</time></trkpt><trkpt lat="44.121153376148676" lon="12.145391789312631"><ele>239.0</ele><time>2026-04-18T09:43:17.978Z</time></trkpt><trkpt lat="44.12106664259488" lon="12.145502403368365"><ele>239.0</ele><time>2026-04-18T09:43:18.978Z</time></trkpt><trkpt lat="44.120977309986074" lon="12.145617878821218"><ele>239.0</ele><time>2026-04-18T09:43:19.978Z</time></trkpt><trkpt lat="44.120872113265186" lon="12.145694580942848"><ele>239.0</ele><time>2026-04-18T09:43:20.978Z</time></trkpt><trkpt lat="44.12078525939815" lon="12.145787219459757"><ele>239.0</ele><time>2026-04-18T09:43:21.978Z</time></trkpt><trkpt lat="44.12066951215" lon="12.145842619120355"><ele>239.75</ele><time>2026-04-18T09:43:22.978Z</time></trkpt><trkpt lat="44.120550110345725" lon="12.145901095791563"><ele>240.5</ele><time>2026-04-18T09:43:23.978Z</time></trkpt><trkpt lat="44.12043242541487" lon="12.145964666428073"><ele>241.25</ele><time>2026-04-18T09:43:24.978Z</time></trkpt><trkpt lat="44.12031660118229" lon="12.145981982136357"><ele>242.0</ele><time>2026-04-18T09:43:25.978Z</time></trkpt><trkpt lat="44.12019617681091" lon="12.145987556737694"><ele>242.0</ele><time>2026-04-18T09:43:26.978Z</time></trkpt><trkpt lat="44.1200740569424" lon="12.145991256318363"><ele>242.0</ele><time>2026-04-18T09:43:27.978Z</time></trkpt><trkpt lat="44.11995817960969" lon="12.14600331227867"><ele>242.0</ele><time>2026-04-18T09:43:28.978Z</time></trkpt><trkpt lat="44.119852274529215" lon="12.145975648839428"><ele>242.0</ele><time>2026-04-18T09:43:29.978Z</time></trkpt><trkpt lat="44.11974162787132" lon="12.145942037765066"><ele>241.25</ele><time>2026-04-18T09:43:30.978Z</time></trkpt><trkpt lat="44.119637282891404" lon="12.145888593634405"><ele>240.5</ele><time>2026-04-18T09:43:31.978Z</time></trkpt><trkpt lat="44.1195143099756" lon="12.145817730500744"><ele>239.75</ele><time>2026-04-18T09:43:32.978Z</time></trkpt><trkpt lat="44.11940024663955" lon="12.145756463236303"><ele>239.0</ele><time>2026-04-18T09:43:33.978Z</time></trkpt><trkpt lat="44.11928864845201" lon="12.145702484310277"><ele>239.0</ele><time>2026-04-18T09:43:34.978Z</time></trkpt><trkpt lat="44.11917429249001" lon="12.145640326338235"><ele>239.0</ele><time>2026-04-18T09:43:35.978Z</time></trkpt><trkpt lat="44.11906124048573" lon="12.145594486796847"><ele>239.0</ele><time>2026-04-18T09:43:36.978Z</time></trkpt><trkpt lat="44.118950445072514" lon="12.145539523869061"><ele>239.0</ele><time>2026-04-18T09:43:37.978Z</time></trkpt><trkpt lat="44.11884199775264" lon="12.145511358251518"><ele>241.6</ele><time>2026-04-18T09:43:38.978Z</time></trkpt><trkpt lat="44.118722977691945" lon="12.145495613005885"><ele>244.2</ele><time>2026-04-18T09:43:39.978Z</time></trkpt><trkpt lat="44.11861779078744" lon="12.145508831274421"><ele>246.79999999999998</ele><time>2026-04-18T09:43:40.978Z</time></trkpt><trkpt lat="44.11851087875413" lon="12.1455238935941"><ele>249.39999999999998</ele><time>2026-04-18T09:43:41.978Z</time></trkpt><trkpt lat="44.11839543815646" lon="12.145536519900466"><ele>252.0</ele><time>2026-04-18T09:43:42.978Z</time></trkpt><trkpt lat="44.11829553118698" lon="12.145545567460202"><ele>253.39999999999998</ele><time>2026-04-18T09:43:43.978Z</time></trkpt><trkpt lat="44.11819968173322" lon="12.145567667647146"><ele>254.79999999999998</ele><time>2026-04-18T09:43:44.978Z</time></trkpt><trkpt lat="44.1181034623253" lon="12.145586465858097"><ele>256.2</ele><time>2026-04-18T09:43:45.978Z</time></trkpt><trkpt lat="44.11800418750238" lon="12.145605512515468"><ele>257.59999999999997</ele><time>2026-04-18T09:43:46.978Z</time></trkpt><trkpt lat="44.11790490999625" lon="12.145658457079845"><ele>259.0</ele><time>2026-04-18T09:43:47.978Z</time></trkpt><trkpt lat="44.11780597727455" lon="12.145689619411264"><ele>259.0</ele><time>2026-04-18T09:43:48.978Z</time></trkpt><trkpt lat="44.117718433742255" lon="12.14570870412231"><ele>259.0</ele><time>2026-04-18T09:43:49.978Z</time></trkpt><trkpt lat="44.11761790982949" lon="12.145708369625286"><ele>259.0</ele><time>2026-04-18T09:43:50.978Z</time></trkpt><trkpt lat="44.11751260079896" lon="12.145702436691469"><ele>259.0</ele><time>2026-04-18T09:43:51.978Z</time></trkpt><trkpt lat="44.117392854667806" lon="12.145689016412742"><ele>259.0</ele><time>2026-04-18T09:43:52.978Z</time></trkpt><trkpt lat="44.11727993575102" lon="12.145679758562164"><ele>264.0</ele><time>2026-04-18T09:43:53.978Z</time></trkpt><trkpt lat="44.11716297323591" lon="12.145676741950204"><ele>269.0</ele><time>2026-04-18T09:43:54.978Z</time></trkpt><trkpt lat="44.11704621137393" lon="12.14567765686901"><ele>274.0</ele><time>2026-04-18T09:43:55.978Z</time></trkpt><trkpt lat="44.11693132827168" lon="12.145682332772626"><ele>279.0</ele><time>2026-04-18T09:43:56.978Z</time></trkpt><trkpt lat="44.11681170099385" lon="12.145696125838025"><ele>279.0</ele><time>2026-04-18T09:43:57.978Z</time></trkpt><trkpt lat="44.11669607261234" lon="12.145703418893318"><ele>279.0</ele><time>2026-04-18T09:43:58.978Z</time></trkpt><trkpt lat="44.11658082649835" lon="12.145727297168513"><ele>279.0</ele><time>2026-04-18T09:43:59.978Z</time></trkpt><trkpt lat="44.11647295815862" lon="12.145759911283319"><ele>279.0</ele><time>2026-04-18T09:44:00.978Z</time></trkpt><trkpt lat="44.11637337081353" lon="12.14580599978717"><ele>279.0</ele><time>2026-04-18T09:44:01.978Z</time></trkpt><trkpt lat="44.11628619146705" lon="12.145855380622214"><ele>280.6666666666667</ele><time>2026-04-18T09:44:02.978Z</time></trkpt><trkpt lat="44.11619866710765" lon="12.145923492224089"><ele>282.3333333333333</ele><time>2026-04-18T09:44:03.978Z</time></trkpt><trkpt lat="44.11611993890188" lon="12.145979724083425"><ele>284.0</ele><time>2026-04-18T09:44:04.978Z</time></trkpt><trkpt lat="44.11607111724209" lon="12.146036997999554"><ele>285.66666666666663</ele><time>2026-04-18T09:44:05.978Z</time></trkpt><trkpt lat="44.11602838845347" lon="12.146112430945584"><ele>287.3333333333333</ele><time>2026-04-18T09:44:06.978Z</time></trkpt><trkpt lat="44.11597667667197" lon="12.146181753143894"><ele>289.0</ele><time>2026-04-18T09:44:07.978Z</time></trkpt><trkpt lat="44.11591562777265" lon="12.14624517881437"><ele>289.0</ele><time>2026-04-18T09:44:08.978Z</time></trkpt><trkpt lat="44.11587017161259" lon="12.14630586155826"><ele>289.0</ele><time>2026-04-18T09:44:09.978Z</time></trkpt><trkpt lat="44.11576284816645" lon="12.146341506548785"><ele>289.0</ele><time>2026-04-18T09:44:11.978Z</time></trkpt><trkpt lat="44.11569752857506" lon="12.146298016205613"><ele>289.0</ele><time>2026-04-18T09:44:12.978Z</time></trkpt><trkpt lat="44.115653605382974" lon="12.146221346415404"><ele>289.0</ele><time>2026-04-18T09:44:13.978Z</time></trkpt><trkpt lat="44.115624319081476" lon="12.146124785271533"><ele>289.0</ele><time>2026-04-18T09:44:14.978Z</time></trkpt><trkpt lat="44.115589912876466" lon="12.146027028362239"><ele>287.8</ele><time>2026-04-18T09:44:15.978Z</time></trkpt><trkpt lat="44.11555634800937" lon="12.145920911317953"><ele>286.59999999999997</ele><time>2026-04-18T09:44:16.978Z</time></trkpt><trkpt lat="44.11551515117561" lon="12.1458043285347"><ele>285.4</ele><time>2026-04-18T09:44:17.978Z</time></trkpt><trkpt lat="44.11548743829796" lon="12.145663503219978"><ele>284.2</ele><time>2026-04-18T09:44:18.978Z</time></trkpt><trkpt lat="44.11545915762674" lon="12.145542394841293"><ele>283.0</ele><time>2026-04-18T09:44:19.978Z</time></trkpt><trkpt lat="44.11544412901856" lon="12.145423404978846"><ele>283.0</ele><time>2026-04-18T09:44:20.978Z</time></trkpt><trkpt lat="44.1154237208974" lon="12.145310967371191"><ele>283.0</ele><time>2026-04-18T09:44:21.978Z</time></trkpt><trkpt lat="44.11541016249657" lon="12.14518981277775"><ele>283.0</ele><time>2026-04-18T09:44:22.978Z</time></trkpt><trkpt lat="44.11540866111492" lon="12.145067297724456"><ele>283.0</ele><time>2026-04-18T09:44:23.978Z</time></trkpt><trkpt lat="44.115396317394804" lon="12.144951046915697"><ele>283.0</ele><time>2026-04-18T09:44:24.978Z</time></trkpt><trkpt lat="44.11538699760083" lon="12.144835299009115"><ele>283.0</ele><time>2026-04-18T09:44:25.978Z</time></trkpt><trkpt lat="44.115368233067294" lon="12.144743248994999"><ele>286.2</ele><time>2026-04-18T09:44:26.978Z</time></trkpt><trkpt lat="44.11531220035948" lon="12.144582149124451"><ele>289.4</ele><time>2026-04-18T09:44:28.978Z</time></trkpt><trkpt lat="44.11525464367914" lon="12.144504506619255"><ele>292.59999999999997</ele><time>2026-04-18T09:44:29.978Z</time></trkpt><trkpt lat="44.11517678090442" lon="12.14443189890105"><ele>295.8</ele><time>2026-04-18T09:44:30.978Z</time></trkpt><trkpt lat="44.115091495195884" lon="12.144359732686596"><ele>299.0</ele><time>2026-04-18T09:44:31.978Z</time></trkpt><trkpt lat="44.1150200911159" lon="12.1442949573911"><ele>299.0</ele><time>2026-04-18T09:44:32.978Z</time></trkpt><trkpt lat="44.11493534833732" lon="12.144245438858942"><ele>299.0</ele><time>2026-04-18T09:44:33.978Z</time></trkpt><trkpt lat="44.11486416158467" lon="12.144181756567228"><ele>299.0</ele><time>2026-04-18T09:44:34.978Z</time></trkpt><trkpt lat="44.11478373722122" lon="12.144141954490532"><ele>299.0</ele><time>2026-04-18T09:44:35.977Z</time></trkpt><trkpt lat="44.11470884901628" lon="12.144092697130406"><ele>299.0</ele><time>2026-04-18T09:44:36.977Z</time></trkpt><trkpt lat="44.114636600327024" lon="12.144046824277304"><ele>299.0</ele><time>2026-04-18T09:44:37.977Z</time></trkpt><trkpt lat="44.114576600435356" lon="12.14399566412276"><ele>298.5</ele><time>2026-04-18T09:44:38.977Z</time></trkpt><trkpt lat="44.11451260358097" lon="12.14394890644046"><ele>298.0</ele><time>2026-04-18T09:44:39.977Z</time></trkpt><trkpt lat="44.11446988406185" lon="12.143876504589812"><ele>297.5</ele><time>2026-04-18T09:44:40.977Z</time></trkpt><trkpt lat="44.11445488201708" lon="12.14377927192528"><ele>297.0</ele><time>2026-04-18T09:44:41.977Z</time></trkpt><trkpt lat="44.11446428780164" lon="12.143662938079542"><ele>296.5</ele><time>2026-04-18T09:44:42.977Z</time></trkpt><trkpt lat="44.11447530848556" lon="12.143550175733722"><ele>296.0</ele><time>2026-04-18T09:44:43.977Z</time></trkpt><trkpt lat="44.114500992633765" lon="12.143428362177982"><ele>296.0</ele><time>2026-04-18T09:44:44.977Z</time></trkpt><trkpt lat="44.11453281115329" lon="12.143294936871355"><ele>296.0</ele><time>2026-04-18T09:44:45.977Z</time></trkpt><trkpt lat="44.114563483537474" lon="12.143171915624002"><ele>296.0</ele><time>2026-04-18T09:44:46.977Z</time></trkpt><trkpt lat="44.11458776388474" lon="12.143063812877946"><ele>296.0</ele><time>2026-04-18T09:44:47.977Z</time></trkpt><trkpt lat="44.11461208195108" lon="12.142942324196621"><ele>296.0</ele><time>2026-04-18T09:44:48.977Z</time></trkpt><trkpt lat="44.11462247845012" lon="12.142822863618253"><ele>296.33333333333337</ele><time>2026-04-18T09:44:49.977Z</time></trkpt><trkpt lat="44.11463384391367" lon="12.142716014718163"><ele>296.6666666666667</ele><time>2026-04-18T09:44:50.977Z</time></trkpt><trkpt lat="44.11464485023321" lon="12.142603518366599"><ele>297.0</ele><time>2026-04-18T09:44:51.977Z</time></trkpt><trkpt lat="44.11465162891491" lon="12.142499904104781"><ele>297.3333333333333</ele><time>2026-04-18T09:44:52.977Z</time></trkpt><trkpt lat="44.114661740789565" lon="12.142391341623659"><ele>297.66666666666663</ele><time>2026-04-18T09:44:53.977Z</time></trkpt><trkpt lat="44.114673286935414" lon="12.142296881036394"><ele>298.0</ele><time>2026-04-18T09:44:54.977Z</time></trkpt><trkpt lat="44.11468187383455" lon="12.142200950885329"><ele>298.0</ele><time>2026-04-18T09:44:55.977Z</time></trkpt><trkpt lat="44.11468428024731" lon="12.142112288616614"><ele>298.0</ele><time>2026-04-18T09:44:56.977Z</time></trkpt><trkpt lat="44.11466320648611" lon="12.141912823006363"><ele>298.0</ele><time>2026-04-18T09:44:58.977Z</time></trkpt><trkpt lat="44.11465545445245" lon="12.141800274712974"><ele>298.0</ele><time>2026-04-18T09:44:59.977Z</time></trkpt><trkpt lat="44.114654051411875" lon="12.14169387833325"><ele>298.0</ele><time>2026-04-18T09:45:00.978Z</time></trkpt><trkpt lat="44.11468379255038" lon="12.14158842201587"><ele>298.0</ele><time>2026-04-18T09:45:01.978Z</time></trkpt><trkpt lat="44.11470709389927" lon="12.141480946939712"><ele>297.0</ele><time>2026-04-18T09:45:02.978Z</time></trkpt><trkpt lat="44.11472710550999" lon="12.141368484653455"><ele>296.0</ele><time>2026-04-18T09:45:03.979Z</time></trkpt><trkpt lat="44.1147581868189" lon="12.141251887349446"><ele>295.0</ele><time>2026-04-18T09:45:04.979Z</time></trkpt><trkpt lat="44.114775476081654" lon="12.141137447423178"><ele>294.0</ele><time>2026-04-18T09:45:05.979Z</time></trkpt><trkpt lat="44.11477722056713" lon="12.141017076635789"><ele>293.0</ele><time>2026-04-18T09:45:06.979Z</time></trkpt><trkpt lat="44.11476767055305" lon="12.140902407598283"><ele>292.0</ele><time>2026-04-18T09:45:07.979Z</time></trkpt><trkpt lat="44.114762678403835" lon="12.140795455606098"><ele>288.66666666666663</ele><time>2026-04-18T09:45:08.979Z</time></trkpt><trkpt lat="44.11474632913112" lon="12.14068291907033"><ele>285.3333333333333</ele><time>2026-04-18T09:45:09.979Z</time></trkpt><trkpt lat="44.11472178120971" lon="12.140574051803618"><ele>282.0</ele><time>2026-04-18T09:45:10.978Z</time></trkpt><trkpt lat="44.11472173344836" lon="12.140458276961622"><ele>278.6666666666667</ele><time>2026-04-18T09:45:11.978Z</time></trkpt><trkpt lat="44.11473399727735" lon="12.140370224782783"><ele>275.33333333333337</ele><time>2026-04-18T09:45:12.979Z</time></trkpt><trkpt lat="44.11475740873611" lon="12.140278143447134"><ele>272.0</ele><time>2026-04-18T09:45:13.978Z</time></trkpt><trkpt lat="44.114794095287635" lon="12.140196022795406"><ele>272.0</ele><time>2026-04-18T09:45:14.978Z</time></trkpt><trkpt lat="44.11485451112182" lon="12.1401044847598"><ele>272.0</ele><time>2026-04-18T09:45:15.978Z</time></trkpt><trkpt lat="44.114929189681106" lon="12.140034089892348"><ele>272.0</ele><time>2026-04-18T09:45:16.978Z</time></trkpt><trkpt lat="44.1150006870724" lon="12.139947877509499"><ele>272.0</ele><time>2026-04-18T09:45:17.978Z</time></trkpt><trkpt lat="44.115072405586155" lon="12.13986463613903"><ele>272.0</ele><time>2026-04-18T09:45:18.978Z</time></trkpt><trkpt lat="44.11516250298279" lon="12.139791680047306"><ele>274.6666666666667</ele><time>2026-04-18T09:45:19.978Z</time></trkpt><trkpt lat="44.11523943899672" lon="12.139709919317184"><ele>277.33333333333337</ele><time>2026-04-18T09:45:20.978Z</time></trkpt><trkpt lat="44.11531507260672" lon="12.13963213719153"><ele>280.0</ele><time>2026-04-18T09:45:21.978Z</time></trkpt><trkpt lat="44.11538467240662" lon="12.139552826835953"><ele>282.6666666666667</ele><time>2026-04-18T09:45:22.978Z</time></trkpt><trkpt lat="44.11544957781655" lon="12.139476643017613"><ele>285.3333333333333</ele><time>2026-04-18T09:45:23.978Z</time></trkpt><trkpt lat="44.11552226565674" lon="12.13942443015266"><ele>288.0</ele><time>2026-04-18T09:45:24.978Z</time></trkpt><trkpt lat="44.115585793065996" lon="12.1393523638581"><ele>288.0</ele><time>2026-04-18T09:45:25.978Z</time></trkpt><trkpt lat="44.11564430827819" lon="12.139256152625016"><ele>288.0</ele><time>2026-04-18T09:45:26.978Z</time></trkpt><trkpt lat="44.115696550898" lon="12.139186461404876"><ele>288.0</ele><time>2026-04-18T09:45:27.978Z</time></trkpt><trkpt lat="44.115767432869866" lon="12.139108666042704"><ele>288.0</ele><time>2026-04-18T09:45:28.978Z</time></trkpt><trkpt lat="44.115806518993786" lon="12.138995047265109"><ele>288.0</ele><time>2026-04-18T09:45:29.978Z</time></trkpt><trkpt lat="44.11584641149221" lon="12.138897859880279"><ele>288.0</ele><time>2026-04-18T09:45:30.978Z</time></trkpt><trkpt lat="44.11587384356511" lon="12.138793703709371"><ele>288.3333333333333</ele><time>2026-04-18T09:45:31.978Z</time></trkpt><trkpt lat="44.11588993513381" lon="12.138691439337794"><ele>288.6666666666667</ele><time>2026-04-18T09:45:32.978Z</time></trkpt><trkpt lat="44.11591094499855" lon="12.138589050692323"><ele>289.0</ele><time>2026-04-18T09:45:33.978Z</time></trkpt><trkpt lat="44.115909701924195" lon="12.138479547164403"><ele>289.33333333333337</ele><time>2026-04-18T09:45:34.978Z</time></trkpt><trkpt lat="44.115921044534275" lon="12.138375387674682"><ele>289.6666666666667</ele><time>2026-04-18T09:45:35.978Z</time></trkpt><trkpt lat="44.11594364130344" lon="12.138242361028638"><ele>290.0</ele><time>2026-04-18T09:45:36.978Z</time></trkpt><trkpt lat="44.11594799510806" lon="12.13813562832535"><ele>288.5</ele><time>2026-04-18T09:45:37.978Z</time></trkpt><trkpt lat="44.11593780195467" lon="12.138032185244175"><ele>287.0</ele><time>2026-04-18T09:45:38.978Z</time></trkpt><trkpt lat="44.115936004209814" lon="12.137925326525885"><ele>285.5</ele><time>2026-04-18T09:45:39.978Z</time></trkpt><trkpt lat="44.1159336936639" lon="12.137801260768246"><ele>284.0</ele><time>2026-04-18T09:45:40.978Z</time></trkpt><trkpt lat="44.115942658063894" lon="12.137682215079854"><ele>282.5</ele><time>2026-04-18T09:45:41.978Z</time></trkpt><trkpt lat="44.115945242346676" lon="12.137561683151928"><ele>281.0</ele><time>2026-04-18T09:45:42.978Z</time></trkpt><trkpt lat="44.11594666101716" lon="12.137436724642862"><ele>279.6</ele><time>2026-04-18T09:45:43.978Z</time></trkpt><trkpt lat="44.115932384897555" lon="12.137310707417832"><ele>278.20000000000005</ele><time>2026-04-18T09:45:44.978Z</time></trkpt><trkpt lat="44.11591914627554" lon="12.137176982906398"><ele>276.79999999999995</ele><time>2026-04-18T09:45:45.978Z</time></trkpt><trkpt lat="44.115904274879" lon="12.137041800284342"><ele>275.4</ele><time>2026-04-18T09:45:46.978Z</time></trkpt><trkpt lat="44.11588234774786" lon="12.136919037887203"><ele>274.0</ele><time>2026-04-18T09:45:47.978Z</time></trkpt><trkpt lat="44.115884790393565" lon="12.136789266739472"><ele>274.0</ele><time>2026-04-18T09:45:48.978Z</time></trkpt><trkpt lat="44.115863594141935" lon="12.13666076351042"><ele>274.0</ele><time>2026-04-18T09:45:49.978Z</time></trkpt><trkpt lat="44.115851470864385" lon="12.136535891605629"><ele>274.0</ele><time>2026-04-18T09:45:50.978Z</time></trkpt><trkpt lat="44.11585507402813" lon="12.136413567771408"><ele>274.0</ele><time>2026-04-18T09:45:51.978Z</time></trkpt><trkpt lat="44.115848345668645" lon="12.136297452678976"><ele>274.0</ele><time>2026-04-18T09:45:52.978Z</time></trkpt><trkpt lat="44.11585190637446" lon="12.136159529801553"><ele>273.2</ele><time>2026-04-18T09:45:53.978Z</time></trkpt><trkpt lat="44.11587510945922" lon="12.136030076828028"><ele>272.4</ele><time>2026-04-18T09:45:54.978Z</time></trkpt><trkpt lat="44.115896599003946" lon="12.135903842699259"><ele>271.6</ele><time>2026-04-18T09:45:55.978Z</time></trkpt><trkpt lat="44.11592446728582" lon="12.135758867322977"><ele>270.8</ele><time>2026-04-18T09:45:56.978Z</time></trkpt><trkpt lat="44.11595364404322" lon="12.135619134915812"><ele>270.0</ele><time>2026-04-18T09:45:57.978Z</time></trkpt><trkpt lat="44.11599485975553" lon="12.13548432546791"><ele>269.2</ele><time>2026-04-18T09:45:58.978Z</time></trkpt><trkpt lat="44.11603424385319" lon="12.135349334581564"><ele>268.4</ele><time>2026-04-18T09:45:59.978Z</time></trkpt><trkpt lat="44.11607704634452" lon="12.135219453906272"><ele>267.6</ele><time>2026-04-18T09:46:00.978Z</time></trkpt><trkpt lat="44.11612446305518" lon="12.135089957971028"><ele>266.8</ele><time>2026-04-18T09:46:01.978Z</time></trkpt><trkpt lat="44.11617378280413" lon="12.13497542763301"><ele>266.0</ele><time>2026-04-18T09:46:02.978Z</time></trkpt><trkpt lat="44.11622533862101" lon="12.13486499446985"><ele>264.5</ele><time>2026-04-18T09:46:03.978Z</time></trkpt><trkpt lat="44.11628990641114" lon="12.134772779408598"><ele>263.0</ele><time>2026-04-18T09:46:04.978Z</time></trkpt><trkpt lat="44.116331667002186" lon="12.13465725159629"><ele>261.5</ele><time>2026-04-18T09:46:05.978Z</time></trkpt><trkpt lat="44.11639313667909" lon="12.13456191439315"><ele>260.0</ele><time>2026-04-18T09:46:06.978Z</time></trkpt><trkpt lat="44.11653797159799" lon="12.13433850829306"><ele>263.2</ele><time>2026-04-18T09:46:09.978Z</time></trkpt><trkpt lat="44.11661230743679" lon="12.134237791032616"><ele>266.4</ele><time>2026-04-18T09:46:11.978Z</time></trkpt><trkpt lat="44.11667452451311" lon="12.134108567183844"><ele>269.6</ele><time>2026-04-18T09:46:13.977Z</time></trkpt><trkpt lat="44.116723543056025" lon="12.134022838248152"><ele>272.8</ele><time>2026-04-18T09:46:14.977Z</time></trkpt><trkpt lat="44.116772470988124" lon="12.133936844339393"><ele>276.0</ele><time>2026-04-18T09:46:15.977Z</time></trkpt><trkpt lat="44.11682831650625" lon="12.1338333761114"><ele>276.0</ele><time>2026-04-18T09:46:16.977Z</time></trkpt><trkpt lat="44.116885945733486" lon="12.1337302953245"><ele>276.0</ele><time>2026-04-18T09:46:17.977Z</time></trkpt><trkpt lat="44.1169456016851" lon="12.133614732946238"><ele>276.0</ele><time>2026-04-18T09:46:18.977Z</time></trkpt><trkpt lat="44.11703199859286" lon="12.133502758570373"><ele>276.0</ele><time>2026-04-18T09:46:19.977Z</time></trkpt><trkpt lat="44.117111487583614" lon="12.13337332882519"><ele>276.0</ele><time>2026-04-18T09:46:20.977Z</time></trkpt><trkpt lat="44.11718714293154" lon="12.133245668831316"><ele>276.0</ele><time>2026-04-18T09:46:21.977Z</time></trkpt><trkpt lat="44.11726975425341" lon="12.133132191233745"><ele>276.0</ele><time>2026-04-18T09:46:22.977Z</time></trkpt><trkpt lat="44.11732529990182" lon="12.133000886113606"><ele>276.0</ele><time>2026-04-18T09:46:23.977Z</time></trkpt><trkpt lat="44.117394677068" lon="12.13291095531237"><ele>276.0</ele><time>2026-04-18T09:46:24.976Z</time></trkpt><trkpt lat="44.117464052405495" lon="12.132797541625767"><ele>276.0</ele><time>2026-04-18T09:46:25.976Z</time></trkpt><trkpt lat="44.11753158909912" lon="12.132710874671568"><ele>276.0</ele><time>2026-04-18T09:46:26.976Z</time></trkpt><trkpt lat="44.11760014615708" lon="12.13261894332525"><ele>276.0</ele><time>2026-04-18T09:46:27.976Z</time></trkpt><trkpt lat="44.11765506302932" lon="12.132528233618643"><ele>276.0</ele><time>2026-04-18T09:46:28.976Z</time></trkpt><trkpt lat="44.1177158480669" lon="12.132446373476135"><ele>276.0</ele><time>2026-04-18T09:46:29.976Z</time></trkpt><trkpt lat="44.11776620318039" lon="12.132366260905739"><ele>276.0</ele><time>2026-04-18T09:46:30.976Z</time></trkpt><trkpt lat="44.117804333091534" lon="12.132280046752465"><ele>276.0</ele><time>2026-04-18T09:46:31.976Z</time></trkpt><trkpt lat="44.117831129842095" lon="12.13219125835461"><ele>274.40000000000003</ele><time>2026-04-18T09:46:32.976Z</time></trkpt><trkpt lat="44.117844313787174" lon="12.132013640442867"><ele>272.8</ele><time>2026-04-18T09:46:34.976Z</time></trkpt><trkpt lat="44.11783648578834" lon="12.131907004378494"><ele>271.20000000000005</ele><time>2026-04-18T09:46:35.976Z</time></trkpt><trkpt lat="44.11783853964717" lon="12.131783178943083"><ele>269.6</ele><time>2026-04-18T09:46:36.976Z</time></trkpt><trkpt lat="44.117846800841406" lon="12.131641373276766"><ele>268.0</ele><time>2026-04-18T09:46:37.976Z</time></trkpt><trkpt lat="44.11784837318885" lon="12.131511890291032"><ele>266.4</ele><time>2026-04-18T09:46:38.976Z</time></trkpt><trkpt lat="44.11783526942855" lon="12.131364047293568"><ele>264.8</ele><time>2026-04-18T09:46:39.976Z</time></trkpt><trkpt lat="44.11783327883018" lon="12.131222806278126"><ele>263.2</ele><time>2026-04-18T09:46:40.976Z</time></trkpt><trkpt lat="44.11783213104662" lon="12.131091738154225"><ele>261.6</ele><time>2026-04-18T09:46:41.976Z</time></trkpt><trkpt lat="44.11782831816866" lon="12.130964351824096"><ele>260.0</ele><time>2026-04-18T09:46:42.976Z</time></trkpt><trkpt lat="44.11785470550231" lon="12.130851983706034"><ele>260.0</ele><time>2026-04-18T09:46:43.976Z</time></trkpt><trkpt lat="44.117860449615314" lon="12.130734332762406"><ele>260.0</ele><time>2026-04-18T09:46:44.976Z</time></trkpt><trkpt lat="44.117860360328116" lon="12.130634790433952"><ele>260.0</ele><time>2026-04-18T09:46:45.976Z</time></trkpt><trkpt lat="44.11788245604618" lon="12.130508731457768"><ele>260.0</ele><time>2026-04-18T09:46:47.976Z</time></trkpt><trkpt lat="44.11796405308415" lon="12.130482567440117"><ele>260.0</ele><time>2026-04-18T09:46:49.976Z</time></trkpt><trkpt lat="44.118023726041784" lon="12.130609929976288"><ele>260.0</ele><time>2026-04-18T09:46:51.976Z</time></trkpt><trkpt lat="44.11807621522217" lon="12.13069469420006"><ele>260.0</ele><time>2026-04-18T09:46:52.976Z</time></trkpt><trkpt lat="44.11814169235821" lon="12.13077387242984"><ele>260.0</ele><time>2026-04-18T09:46:53.976Z</time></trkpt><trkpt lat="44.118183556322265" lon="12.13088684504532"><ele>260.0</ele><time>2026-04-18T09:46:54.976Z</time></trkpt><trkpt lat="44.118240616198584" lon="12.130984116690254"><ele>260.0</ele><time>2026-04-18T09:46:55.976Z</time></trkpt><trkpt lat="44.118316855420076" lon="12.131069843087511"><ele>260.0</ele><time>2026-04-18T09:46:56.976Z</time></trkpt><trkpt lat="44.11839335779912" lon="12.131177963534313"><ele>260.6</ele><time>2026-04-18T09:46:57.976Z</time></trkpt><trkpt lat="44.118477027514324" lon="12.131281375585253"><ele>261.2</ele><time>2026-04-18T09:46:58.976Z</time></trkpt><trkpt lat="44.11856855961945" lon="12.131381435471805"><ele>261.8</ele><time>2026-04-18T09:46:59.976Z</time></trkpt><trkpt lat="44.118657710160335" lon="12.131473928822324"><ele>262.4</ele><time>2026-04-18T09:47:00.976Z</time></trkpt><trkpt lat="44.11873203252146" lon="12.131556143047064"><ele>263.0</ele><time>2026-04-18T09:47:01.976Z</time></trkpt><trkpt lat="44.118800104098874" lon="12.131642283741865"><ele>264.0</ele><time>2026-04-18T09:47:02.976Z</time></trkpt><trkpt lat="44.11886565274853" lon="12.131721817768515"><ele>265.0</ele><time>2026-04-18T09:47:03.976Z</time></trkpt><trkpt lat="44.11892559102859" lon="12.131792710672332"><ele>266.0</ele><time>2026-04-18T09:47:04.976Z</time></trkpt><trkpt lat="44.11899378120467" lon="12.13185142153926"><ele>267.0</ele><time>2026-04-18T09:47:05.976Z</time></trkpt><trkpt lat="44.11907321962547" lon="12.13189736940676"><ele>268.0</ele><time>2026-04-18T09:47:06.978Z</time></trkpt><trkpt lat="44.11915306299973" lon="12.131925354713806"><ele>269.0</ele><time>2026-04-18T09:47:07.977Z</time></trkpt><trkpt lat="44.11923645471959" lon="12.131925105456599"><ele>269.0</ele><time>2026-04-18T09:47:08.977Z</time></trkpt><trkpt lat="44.11933010006475" lon="12.131899943329246"><ele>269.0</ele><time>2026-04-18T09:47:09.978Z</time></trkpt><trkpt lat="44.11943125518099" lon="12.13185014125323"><ele>269.0</ele><time>2026-04-18T09:47:10.977Z</time></trkpt><trkpt lat="44.11953420256471" lon="12.131788821708131"><ele>269.0</ele><time>2026-04-18T09:47:11.977Z</time></trkpt><trkpt lat="44.11963703875861" lon="12.131742259773326"><ele>269.0</ele><time>2026-04-18T09:47:12.978Z</time></trkpt><trkpt lat="44.11974163728935" lon="12.131696020221288"><ele>269.0</ele><time>2026-04-18T09:47:13.978Z</time></trkpt><trkpt lat="44.11983941798959" lon="12.131655188904297"><ele>269.0</ele><time>2026-04-18T09:47:14.978Z</time></trkpt><trkpt lat="44.11993506586856" lon="12.13163862869261"><ele>269.0</ele><time>2026-04-18T09:47:15.978Z</time></trkpt><trkpt lat="44.12002252926192" lon="12.131665162614182"><ele>269.0</ele><time>2026-04-18T09:47:16.977Z</time></trkpt><trkpt lat="44.12010304883478" lon="12.131695206629788"><ele>269.0</ele><time>2026-04-18T09:47:17.977Z</time></trkpt><trkpt lat="44.12018650614736" lon="12.13175929480955"><ele>268.4</ele><time>2026-04-18T09:47:18.978Z</time></trkpt><trkpt lat="44.1202694243202" lon="12.13183703667787"><ele>267.79999999999995</ele><time>2026-04-18T09:47:19.977Z</time></trkpt><trkpt lat="44.120370329700215" lon="12.13189903430092"><ele>267.20000000000005</ele><time>2026-04-18T09:47:20.977Z</time></trkpt><trkpt lat="44.12045657560984" lon="12.132008991669762"><ele>266.6</ele><time>2026-04-18T09:47:21.977Z</time></trkpt><trkpt lat="44.12056110591805" lon="12.132093479312033"><ele>266.0</ele><time>2026-04-18T09:47:22.977Z</time></trkpt><trkpt lat="44.12065041461832" lon="12.13217759853286"><ele>264.0</ele><time>2026-04-18T09:47:23.977Z</time></trkpt><trkpt lat="44.120752009829104" lon="12.132263816881245"><ele>262.0</ele><time>2026-04-18T09:47:24.977Z</time></trkpt><trkpt lat="44.12084587821925" lon="12.13235888377067"><ele>260.0</ele><time>2026-04-18T09:47:25.977Z</time></trkpt><trkpt lat="44.12095113764496" lon="12.132427483214297"><ele>258.0</ele><time>2026-04-18T09:47:26.977Z</time></trkpt><trkpt lat="44.12105690710814" lon="12.132492280512066"><ele>258.0</ele><time>2026-04-18T09:47:27.977Z</time></trkpt><trkpt lat="44.121175481079696" lon="12.132533912924679"><ele>258.0</ele><time>2026-04-18T09:47:28.977Z</time></trkpt><trkpt lat="44.12130199650618" lon="12.13256558276526"><ele>258.0</ele><time>2026-04-18T09:47:29.977Z</time></trkpt><trkpt lat="44.12142793701055" lon="12.13257111264978"><ele>258.0</ele><time>2026-04-18T09:47:30.977Z</time></trkpt><trkpt lat="44.12155765007886" lon="12.13259315864858"><ele>256.6</ele><time>2026-04-18T09:47:31.977Z</time></trkpt><trkpt lat="44.12167679419059" lon="12.132615265062265"><ele>255.20000000000002</ele><time>2026-04-18T09:47:32.977Z</time></trkpt><trkpt lat="44.12178444971386" lon="12.132623884935489"><ele>253.8</ele><time>2026-04-18T09:47:33.977Z</time></trkpt><trkpt lat="44.121886029604234" lon="12.132621473228898"><ele>252.4</ele><time>2026-04-18T09:47:34.977Z</time></trkpt><trkpt lat="44.121989346113835" lon="12.132606479564352"><ele>251.0</ele><time>2026-04-18T09:47:35.977Z</time></trkpt><trkpt lat="44.12210174175595" lon="12.13256271703935"><ele>251.0</ele><time>2026-04-18T09:47:36.977Z</time></trkpt><trkpt lat="44.122214310563756" lon="12.13248769446888"><ele>251.0</ele><time>2026-04-18T09:47:37.977Z</time></trkpt><trkpt lat="44.12232785748911" lon="12.132406338178528"><ele>251.0</ele><time>2026-04-18T09:47:38.977Z</time></trkpt><trkpt lat="44.12242675997921" lon="12.132333265334706"><ele>251.0</ele><time>2026-04-18T09:47:39.977Z</time></trkpt><trkpt lat="44.122542549999274" lon="12.132247953604026"><ele>250.60000000000002</ele><time>2026-04-18T09:47:40.977Z</time></trkpt><trkpt lat="44.122641851004644" lon="12.132166287290252"><ele>250.20000000000002</ele><time>2026-04-18T09:47:41.977Z</time></trkpt><trkpt lat="44.12274042571715" lon="12.132109785093844"><ele>249.79999999999998</ele><time>2026-04-18T09:47:42.977Z</time></trkpt><trkpt lat="44.12282556338855" lon="12.132036038193837"><ele>249.39999999999998</ele><time>2026-04-18T09:47:43.977Z</time></trkpt><trkpt lat="44.122902941064694" lon="12.131976916578472"><ele>249.0</ele><time>2026-04-18T09:47:44.977Z</time></trkpt><trkpt lat="44.12298548126321" lon="12.131906710398244"><ele>249.0</ele><time>2026-04-18T09:47:45.977Z</time></trkpt><trkpt lat="44.12307024899692" lon="12.131846831189726"><ele>248.99999999999997</ele><time>2026-04-18T09:47:46.977Z</time></trkpt><trkpt lat="44.12316253793377" lon="12.131793266726739"><ele>248.99999999999997</ele><time>2026-04-18T09:47:47.977Z</time></trkpt><trkpt lat="44.123275016036615" lon="12.131730835687916"><ele>249.0</ele><time>2026-04-18T09:47:48.977Z</time></trkpt><trkpt lat="44.123400746412884" lon="12.131675484293483"><ele>249.0</ele><time>2026-04-18T09:47:49.977Z</time></trkpt><trkpt lat="44.123523818532234" lon="12.13160114089729"><ele>246.75</ele><time>2026-04-18T09:47:50.977Z</time></trkpt><trkpt lat="44.12365239889303" lon="12.131548452551009"><ele>244.5</ele><time>2026-04-18T09:47:51.977Z</time></trkpt><trkpt lat="44.12378654909466" lon="12.13151492217361"><ele>242.25</ele><time>2026-04-18T09:47:52.977Z</time></trkpt><trkpt lat="44.12393192736213" lon="12.13147605799199"><ele>240.0</ele><time>2026-04-18T09:47:53.977Z</time></trkpt><trkpt lat="44.12406764825581" lon="12.131430701404037"><ele>240.0</ele><time>2026-04-18T09:47:54.977Z</time></trkpt><trkpt lat="44.124197395640444" lon="12.131390890915812"><ele>240.0</ele><time>2026-04-18T09:47:55.977Z</time></trkpt><trkpt lat="44.12432205131088" lon="12.131347161277189"><ele>240.0</ele><time>2026-04-18T09:47:56.977Z</time></trkpt><trkpt lat="44.124439620416176" lon="12.131289389443216"><ele>240.0</ele><time>2026-04-18T09:47:57.977Z</time></trkpt><trkpt lat="44.1245569992681" lon="12.131252684727796"><ele>240.0</ele><time>2026-04-18T09:47:58.977Z</time></trkpt><trkpt lat="44.12466530855284" lon="12.131222600338653"><ele>240.0</ele><time>2026-04-18T09:47:59.977Z</time></trkpt><trkpt lat="44.124776059825244" lon="12.131182019924289"><ele>240.0</ele><time>2026-04-18T09:48:00.977Z</time></trkpt><trkpt lat="44.12489292216535" lon="12.131140443521485"><ele>240.0</ele><time>2026-04-18T09:48:01.977Z</time></trkpt><trkpt lat="44.1250115821892" lon="12.131109705926521"><ele>240.0</ele><time>2026-04-18T09:48:02.977Z</time></trkpt><trkpt lat="44.125129775011565" lon="12.131068722921981"><ele>240.0</ele><time>2026-04-18T09:48:03.977Z</time></trkpt><trkpt lat="44.12524231272245" lon="12.131028787124757"><ele>240.0</ele><time>2026-04-18T09:48:04.977Z</time></trkpt><trkpt lat="44.12534342165968" lon="12.13099589590137"><ele>240.0</ele><time>2026-04-18T09:48:05.977Z</time></trkpt><trkpt lat="44.125447376436846" lon="12.130967608131492"><ele>240.0</ele><time>2026-04-18T09:48:06.977Z</time></trkpt><trkpt lat="44.125563425450125" lon="12.130936659318092"><ele>240.0</ele><time>2026-04-18T09:48:07.977Z</time></trkpt><trkpt lat="44.12568119471866" lon="12.130908385096637"><ele>240.0</ele><time>2026-04-18T09:48:08.977Z</time></trkpt><trkpt lat="44.12580492028678" lon="12.130878531071653"><ele>240.0</ele><time>2026-04-18T09:48:09.977Z</time></trkpt><trkpt lat="44.12592137750472" lon="12.130851074114567"><ele>240.0</ele><time>2026-04-18T09:48:10.977Z</time></trkpt><trkpt lat="44.12603934194964" lon="12.130822680536866"><ele>241.2</ele><time>2026-04-18T09:48:11.977Z</time></trkpt><trkpt lat="44.126147662795205" lon="12.130796539523942"><ele>242.4</ele><time>2026-04-18T09:48:12.977Z</time></trkpt><trkpt lat="44.12624430716415" lon="12.130765713871993"><ele>243.60000000000002</ele><time>2026-04-18T09:48:13.977Z</time></trkpt><trkpt lat="44.12633401613557" lon="12.130725434887255"><ele>244.8</ele><time>2026-04-18T09:48:14.977Z</time></trkpt><trkpt lat="44.126407430818304" lon="12.130685202210755"><ele>246.0</ele><time>2026-04-18T09:48:15.977Z</time></trkpt><trkpt lat="44.12647825972754" lon="12.1306320985747"><ele>246.0</ele><time>2026-04-18T09:48:16.977Z</time></trkpt><trkpt lat="44.12655623582622" lon="12.130559808747325"><ele>246.00000000000003</ele><time>2026-04-18T09:48:17.977Z</time></trkpt><trkpt lat="44.12663028312704" lon="12.130488436424562"><ele>246.00000000000003</ele><time>2026-04-18T09:48:18.977Z</time></trkpt><trkpt lat="44.12672817576828" lon="12.130416858000853"><ele>246.0</ele><time>2026-04-18T09:48:19.977Z</time></trkpt><trkpt lat="44.12680076883441" lon="12.13031077659775"><ele>246.0</ele><time>2026-04-18T09:48:20.977Z</time></trkpt><trkpt lat="44.126886636525704" lon="12.130209534395284"><ele>246.0</ele><time>2026-04-18T09:48:21.977Z</time></trkpt><trkpt lat="44.126977859815206" lon="12.130089756850372"><ele>246.0</ele><time>2026-04-18T09:48:22.977Z</time></trkpt><trkpt lat="44.1270642805102" lon="12.129974593537861"><ele>246.0</ele><time>2026-04-18T09:48:23.977Z</time></trkpt><trkpt lat="44.12715298225701" lon="12.129848147040464"><ele>246.0</ele><time>2026-04-18T09:48:24.977Z</time></trkpt><trkpt lat="44.127244001503485" lon="12.129728013705169"><ele>244.60000000000002</ele><time>2026-04-18T09:48:25.977Z</time></trkpt><trkpt lat="44.12732423212038" lon="12.129603335243926"><ele>243.20000000000002</ele><time>2026-04-18T09:48:26.977Z</time></trkpt><trkpt lat="44.12740668016041" lon="12.129489733042908"><ele>241.79999999999998</ele><time>2026-04-18T09:48:27.977Z</time></trkpt><trkpt lat="44.12748025707364" lon="12.12938917516611"><ele>240.39999999999998</ele><time>2026-04-18T09:48:28.977Z</time></trkpt><trkpt lat="44.12756024644865" lon="12.129299727884574"><ele>239.0</ele><time>2026-04-18T09:48:29.977Z</time></trkpt><trkpt lat="44.127634445583354" lon="12.129217212674579"><ele>238.33333333333334</ele><time>2026-04-18T09:48:30.977Z</time></trkpt><trkpt lat="44.127711967307214" lon="12.129147049479577"><ele>237.66666666666669</ele><time>2026-04-18T09:48:31.977Z</time></trkpt><trkpt lat="44.12779543823532" lon="12.129091823954768"><ele>237.0</ele><time>2026-04-18T09:48:32.977Z</time></trkpt><trkpt lat="44.127885746662415" lon="12.129082251604865"><ele>236.33333333333331</ele><time>2026-04-18T09:48:33.977Z</time></trkpt><trkpt lat="44.1279659904247" lon="12.129063444201138"><ele>235.66666666666666</ele><time>2026-04-18T09:48:34.977Z</time></trkpt><trkpt lat="44.12804845699672" lon="12.12902560552689"><ele>235.0</ele><time>2026-04-18T09:48:35.977Z</time></trkpt><trkpt lat="44.12812930062392" lon="12.129003258332922"><ele>233.83333333333331</ele><time>2026-04-18T09:48:36.977Z</time></trkpt><trkpt lat="44.12820035278002" lon="12.12897448005887"><ele>232.66666666666666</ele><time>2026-04-18T09:48:37.977Z</time></trkpt><trkpt lat="44.12825506048968" lon="12.12892087570741"><ele>231.5</ele><time>2026-04-18T09:48:38.977Z</time></trkpt><trkpt lat="44.12829082648872" lon="12.128843507544195"><ele>230.33333333333331</ele><time>2026-04-18T09:48:39.977Z</time></trkpt><trkpt lat="44.12831314700926" lon="12.128736932433025"><ele>229.16666666666666</ele><time>2026-04-18T09:48:40.977Z</time></trkpt><trkpt lat="44.1283043698481" lon="12.128608738375297"><ele>228.0</ele><time>2026-04-18T09:48:41.977Z</time></trkpt><trkpt lat="44.128303378993955" lon="12.128472633051478"><ele>226.8</ele><time>2026-04-18T09:48:42.977Z</time></trkpt><trkpt lat="44.12829636281184" lon="12.128341195547867"><ele>225.60000000000002</ele><time>2026-04-18T09:48:43.977Z</time></trkpt><trkpt lat="44.128299463699015" lon="12.128201556986372"><ele>224.39999999999998</ele><time>2026-04-18T09:48:44.977Z</time></trkpt><trkpt lat="44.12829904691261" lon="12.128062815437884"><ele>223.2</ele><time>2026-04-18T09:48:45.977Z</time></trkpt><trkpt lat="44.12831514941274" lon="12.127942095375907"><ele>222.0</ele><time>2026-04-18T09:48:46.977Z</time></trkpt><trkpt lat="44.12833171856834" lon="12.127813406412262"><ele>220.8</ele><time>2026-04-18T09:48:47.977Z</time></trkpt><trkpt lat="44.128365017120444" lon="12.127687087827212"><ele>219.6</ele><time>2026-04-18T09:48:48.977Z</time></trkpt><trkpt lat="44.12840992179741" lon="12.127559350776586"><ele>218.40000000000003</ele><time>2026-04-18T09:48:49.977Z</time></trkpt><trkpt lat="44.1284644142452" lon="12.127427327954202"><ele>217.20000000000002</ele><time>2026-04-18T09:48:50.977Z</time></trkpt><trkpt lat="44.128521792840445" lon="12.127300364805237"><ele>216.0</ele><time>2026-04-18T09:48:51.977Z</time></trkpt><trkpt lat="44.128596576150684" lon="12.12717742711772"><ele>214.0</ele><time>2026-04-18T09:48:52.977Z</time></trkpt><trkpt lat="44.12866604062116" lon="12.127034555446086"><ele>212.0</ele><time>2026-04-18T09:48:53.977Z</time></trkpt><trkpt lat="44.128737451536516" lon="12.126881516134745"><ele>210.0</ele><time>2026-04-18T09:48:54.977Z</time></trkpt><trkpt lat="44.12880713582015" lon="12.126731060050522"><ele>208.0</ele><time>2026-04-18T09:48:55.977Z</time></trkpt><trkpt lat="44.1288788648465" lon="12.126567701421736"><ele>207.0</ele><time>2026-04-18T09:48:56.977Z</time></trkpt><trkpt lat="44.12895139327707" lon="12.126412697011954"><ele>206.0</ele><time>2026-04-18T09:48:57.977Z</time></trkpt><trkpt lat="44.1290246848323" lon="12.126260655539339"><ele>205.0</ele><time>2026-04-18T09:48:58.977Z</time></trkpt><trkpt lat="44.12908838717623" lon="12.12611705754044"><ele>204.0</ele><time>2026-04-18T09:48:59.977Z</time></trkpt><trkpt lat="44.1291555238241" lon="12.12598936332676"><ele>206.79999999999998</ele><time>2026-04-18T09:49:00.977Z</time></trkpt><trkpt lat="44.12922168885122" lon="12.125855403333958"><ele>209.6</ele><time>2026-04-18T09:49:01.977Z</time></trkpt><trkpt lat="44.12927372845271" lon="12.125737352183103"><ele>212.4</ele><time>2026-04-18T09:49:02.977Z</time></trkpt><trkpt lat="44.12932873654624" lon="12.125594420568703"><ele>215.2</ele><time>2026-04-18T09:49:03.977Z</time></trkpt><trkpt lat="44.12938817522923" lon="12.125469610926956"><ele>218.0</ele><time>2026-04-18T09:49:04.977Z</time></trkpt><trkpt lat="44.129443694020836" lon="12.125345662387643"><ele>218.4</ele><time>2026-04-18T09:49:05.977Z</time></trkpt><trkpt lat="44.12950336924842" lon="12.125234016690351"><ele>218.8</ele><time>2026-04-18T09:49:06.976Z</time></trkpt><trkpt lat="44.12956541181297" lon="12.12512311482309"><ele>219.2</ele><time>2026-04-18T09:49:07.976Z</time></trkpt><trkpt lat="44.12963321813139" lon="12.125008590590953"><ele>219.6</ele><time>2026-04-18T09:49:08.976Z</time></trkpt><trkpt lat="44.12971491600635" lon="12.124898200882278"><ele>220.0</ele><time>2026-04-18T09:49:09.976Z</time></trkpt><trkpt lat="44.12981801159241" lon="12.124838689391659"><ele>216.5</ele><time>2026-04-18T09:49:10.976Z</time></trkpt><trkpt lat="44.12993635040778" lon="12.124776214423271"><ele>213.0</ele><time>2026-04-18T09:49:11.976Z</time></trkpt><trkpt lat="44.130056993747054" lon="12.12469489361937"><ele>209.5</ele><time>2026-04-18T09:49:12.977Z</time></trkpt><trkpt lat="44.13017592617229" lon="12.124639398949416"><ele>206.0</ele><time>2026-04-18T09:49:13.977Z</time></trkpt><trkpt lat="44.130298353190206" lon="12.124592539104015"><ele>206.0</ele><time>2026-04-18T09:49:14.977Z</time></trkpt><trkpt lat="44.13040282099494" lon="12.12454489023027"><ele>206.0</ele><time>2026-04-18T09:49:15.977Z</time></trkpt><trkpt lat="44.13050025748006" lon="12.124510304532029"><ele>206.0</ele><time>2026-04-18T09:49:16.977Z</time></trkpt><trkpt lat="44.13060034545935" lon="12.124468844103255"><ele>206.0</ele><time>2026-04-18T09:49:17.977Z</time></trkpt><trkpt lat="44.13069768928424" lon="12.124421731772484"><ele>206.0</ele><time>2026-04-18T09:49:18.977Z</time></trkpt><trkpt lat="44.13079873146352" lon="12.12440246900699"><ele>206.4</ele><time>2026-04-18T09:49:19.978Z</time></trkpt><trkpt lat="44.13090603074178" lon="12.12437502604031"><ele>206.8</ele><time>2026-04-18T09:49:20.978Z</time></trkpt><trkpt lat="44.13101522698114" lon="12.124344740462043"><ele>207.20000000000002</ele><time>2026-04-18T09:49:21.978Z</time></trkpt><trkpt lat="44.13112399909361" lon="12.12432411160554"><ele>207.60000000000002</ele><time>2026-04-18T09:49:22.977Z</time></trkpt><trkpt lat="44.131216489913186" lon="12.124289586431212"><ele>208.0</ele><time>2026-04-18T09:49:23.977Z</time></trkpt><trkpt lat="44.1313310198917" lon="12.124265822799256"><ele>208.0</ele><time>2026-04-18T09:49:24.978Z</time></trkpt><trkpt lat="44.131446567659566" lon="12.124189753018452"><ele>208.0</ele><time>2026-04-18T09:49:25.978Z</time></trkpt><trkpt lat="44.13156184355318" lon="12.124087138110767"><ele>208.0</ele><time>2026-04-18T09:49:26.978Z</time></trkpt><trkpt lat="44.131688786117856" lon="12.123980126650103"><ele>208.0</ele><time>2026-04-18T09:49:27.978Z</time></trkpt><trkpt lat="44.13180662718551" lon="12.123860933751534"><ele>203.75</ele><time>2026-04-18T09:49:28.978Z</time></trkpt><trkpt lat="44.1319252556975" lon="12.123746952247187"><ele>199.5</ele><time>2026-04-18T09:49:29.978Z</time></trkpt><trkpt lat="44.13204146364254" lon="12.123629832993235"><ele>195.25</ele><time>2026-04-18T09:49:30.978Z</time></trkpt><trkpt lat="44.13216361422697" lon="12.123509139774978"><ele>191.0</ele><time>2026-04-18T09:49:31.978Z</time></trkpt><trkpt lat="44.13228009035895" lon="12.123386349765045"><ele>191.0</ele><time>2026-04-18T09:49:32.978Z</time></trkpt><trkpt lat="44.132386478088435" lon="12.123268472853967"><ele>191.0</ele><time>2026-04-18T09:49:33.978Z</time></trkpt><trkpt lat="44.13250403713159" lon="12.123161527319343"><ele>191.0</ele><time>2026-04-18T09:49:34.978Z</time></trkpt><trkpt lat="44.13261953999917" lon="12.123047182253483"><ele>191.0</ele><time>2026-04-18T09:49:35.978Z</time></trkpt><trkpt lat="44.132735216991264" lon="12.122942202533398"><ele>190.0</ele><time>2026-04-18T09:49:36.978Z</time></trkpt><trkpt lat="44.132844943890845" lon="12.122843613658816"><ele>189.0</ele><time>2026-04-18T09:49:37.978Z</time></trkpt><trkpt lat="44.132953917023606" lon="12.122740537598764"><ele>188.0</ele><time>2026-04-18T09:49:38.978Z</time></trkpt><trkpt lat="44.133064074169944" lon="12.122640898418306"><ele>187.0</ele><time>2026-04-18T09:49:39.978Z</time></trkpt><trkpt lat="44.13316898685855" lon="12.12254295446508"><ele>187.5</ele><time>2026-04-18T09:49:40.978Z</time></trkpt><trkpt lat="44.133265682155184" lon="12.122450436801163"><ele>188.0</ele><time>2026-04-18T09:49:41.978Z</time></trkpt><trkpt lat="44.133368190598695" lon="12.122349653137185"><ele>188.5</ele><time>2026-04-18T09:49:42.978Z</time></trkpt><trkpt lat="44.133473822662786" lon="12.1222494053994"><ele>189.0</ele><time>2026-04-18T09:49:43.977Z</time></trkpt><trkpt lat="44.133583960083705" lon="12.122140966208745"><ele>187.25</ele><time>2026-04-18T09:49:44.977Z</time></trkpt><trkpt lat="44.13369421652466" lon="12.122034622157107"><ele>185.5</ele><time>2026-04-18T09:49:45.977Z</time></trkpt><trkpt lat="44.13380433554399" lon="12.12192646271362"><ele>183.75</ele><time>2026-04-18T09:49:46.977Z</time></trkpt><trkpt lat="44.13391885697496" lon="12.121827159972975"><ele>182.0</ele><time>2026-04-18T09:49:47.977Z</time></trkpt><trkpt lat="44.13402092465526" lon="12.121725460816124"><ele>181.25</ele><time>2026-04-18T09:49:48.977Z</time></trkpt><trkpt lat="44.134123588506334" lon="12.121630988442632"><ele>180.5</ele><time>2026-04-18T09:49:49.977Z</time></trkpt><trkpt lat="44.13422282132218" lon="12.121542880705675"><ele>179.75</ele><time>2026-04-18T09:49:50.977Z</time></trkpt><trkpt lat="44.134317731366004" lon="12.121455576097457"><ele>179.0</ele><time>2026-04-18T09:49:51.977Z</time></trkpt><trkpt lat="44.134420618706336" lon="12.121382182466766"><ele>178.0</ele><time>2026-04-18T09:49:52.977Z</time></trkpt><trkpt lat="44.13452050247334" lon="12.12131719130101"><ele>177.0</ele><time>2026-04-18T09:49:53.977Z</time></trkpt><trkpt lat="44.13463140643357" lon="12.121263524991774"><ele>176.0</ele><time>2026-04-18T09:49:54.977Z</time></trkpt><trkpt lat="44.13475399524449" lon="12.121222276838648"><ele>175.0</ele><time>2026-04-18T09:49:55.977Z</time></trkpt><trkpt lat="44.13488001103961" lon="12.121178414678289"><ele>174.5</ele><time>2026-04-18T09:49:56.977Z</time></trkpt><trkpt lat="44.13500727257774" lon="12.121139549954808"><ele>174.0</ele><time>2026-04-18T09:49:57.977Z</time></trkpt><trkpt lat="44.1351266146067" lon="12.121106197662938"><ele>173.5</ele><time>2026-04-18T09:49:58.977Z</time></trkpt><trkpt lat="44.1352460336554" lon="12.121069412839535"><ele>173.0</ele><time>2026-04-18T09:49:59.977Z</time></trkpt><trkpt lat="44.13536189138226" lon="12.12103508089847"><ele>173.0</ele><time>2026-04-18T09:50:00.977Z</time></trkpt><trkpt lat="44.13547989077427" lon="12.121003780313304"><ele>173.0</ele><time>2026-04-18T09:50:01.977Z</time></trkpt><trkpt lat="44.135590631365844" lon="12.12096882088897"><ele>173.0</ele><time>2026-04-18T09:50:02.977Z</time></trkpt><trkpt lat="44.1357037279314" lon="12.120938186219322"><ele>173.0</ele><time>2026-04-18T09:50:03.977Z</time></trkpt><trkpt lat="44.13582180285904" lon="12.120905318412584"><ele>170.75</ele><time>2026-04-18T09:50:04.977Z</time></trkpt><trkpt lat="44.13594217190601" lon="12.120874023266136"><ele>168.5</ele><time>2026-04-18T09:50:05.977Z</time></trkpt><trkpt lat="44.13606330022244" lon="12.120838285220698"><ele>166.25</ele><time>2026-04-18T09:50:06.977Z</time></trkpt><trkpt lat="44.13618578498562" lon="12.120800823034136"><ele>164.0</ele><time>2026-04-18T09:50:07.977Z</time></trkpt><trkpt lat="44.13631241986298" lon="12.120763883216382"><ele>160.5</ele><time>2026-04-18T09:50:08.977Z</time></trkpt><trkpt lat="44.13643568763494" lon="12.12072979901806"><ele>157.0</ele><time>2026-04-18T09:50:09.977Z</time></trkpt><trkpt lat="44.1365581816416" lon="12.120694181373189"><ele>153.5</ele><time>2026-04-18T09:50:10.977Z</time></trkpt><trkpt lat="44.136675611868206" lon="12.12067250599947"><ele>150.0</ele><time>2026-04-18T09:50:11.977Z</time></trkpt><trkpt lat="44.13679552294379" lon="12.120640845682182"><ele>149.8</ele><time>2026-04-18T09:50:12.977Z</time></trkpt><trkpt lat="44.13691006352188" lon="12.12061401020653"><ele>149.6</ele><time>2026-04-18T09:50:13.977Z</time></trkpt><trkpt lat="44.137012020106965" lon="12.120592872606492"><ele>149.4</ele><time>2026-04-18T09:50:14.977Z</time></trkpt><trkpt lat="44.137103555570896" lon="12.120565428199559"><ele>149.2</ele><time>2026-04-18T09:50:15.977Z</time></trkpt><trkpt lat="44.13718657758421" lon="12.120545584113804"><ele>149.0</ele><time>2026-04-18T09:50:16.977Z</time></trkpt><trkpt lat="44.137259283012575" lon="12.120518260387096"><ele>149.0</ele><time>2026-04-18T09:50:17.977Z</time></trkpt><trkpt lat="44.137320135621806" lon="12.120482886607425"><ele>149.0</ele><time>2026-04-18T09:50:18.977Z</time></trkpt><trkpt lat="44.13737072265574" lon="12.120417767972054"><ele>149.0</ele><time>2026-04-18T09:50:19.977Z</time></trkpt><trkpt lat="44.137397035361374" lon="12.120336225747312"><ele>149.0</ele><time>2026-04-18T09:50:20.977Z</time></trkpt><trkpt lat="44.13739596948386" lon="12.12024332316155"><ele>149.0</ele><time>2026-04-18T09:50:21.977Z</time></trkpt><trkpt lat="44.13738913721505" lon="12.120141346691254"><ele>149.0</ele><time>2026-04-18T09:50:22.977Z</time></trkpt><trkpt lat="44.13737852507285" lon="12.120026570286578"><ele>149.0</ele><time>2026-04-18T09:50:23.977Z</time></trkpt><trkpt lat="44.137364422396665" lon="12.119891479945732"><ele>147.2</ele><time>2026-04-18T09:50:24.977Z</time></trkpt><trkpt lat="44.13734961832128" lon="12.119746094914586"><ele>145.4</ele><time>2026-04-18T09:50:25.977Z</time></trkpt><trkpt lat="44.13733255917794" lon="12.119591388403137"><ele>143.6</ele><time>2026-04-18T09:50:26.977Z</time></trkpt><trkpt lat="44.13731461501957" lon="12.119436098697077"><ele>141.8</ele><time>2026-04-18T09:50:27.977Z</time></trkpt><trkpt lat="44.13730056398213" lon="12.119278345144824"><ele>140.0</ele><time>2026-04-18T09:50:28.977Z</time></trkpt><trkpt lat="44.137288441183514" lon="12.119120888881156"><ele>138.25</ele><time>2026-04-18T09:50:29.977Z</time></trkpt><trkpt lat="44.137273471492534" lon="12.118953947072747"><ele>136.5</ele><time>2026-04-18T09:50:30.977Z</time></trkpt><trkpt lat="44.137258785931394" lon="12.118788697336305"><ele>134.75</ele><time>2026-04-18T09:50:31.977Z</time></trkpt><trkpt lat="44.137243831977166" lon="12.118621687452755"><ele>133.0</ele><time>2026-04-18T09:50:32.977Z</time></trkpt><trkpt lat="44.13722960188985" lon="12.118453048914636"><ele>133.0</ele><time>2026-04-18T09:50:33.977Z</time></trkpt><trkpt lat="44.137216976603" lon="12.118295960383255"><ele>133.0</ele><time>2026-04-18T09:50:34.977Z</time></trkpt><trkpt lat="44.13720379643855" lon="12.11814656898436"><ele>133.0</ele><time>2026-04-18T09:50:35.977Z</time></trkpt><trkpt lat="44.13718584306967" lon="12.118008510797393"><ele>133.0</ele><time>2026-04-18T09:50:36.977Z</time></trkpt><trkpt lat="44.13717195971095" lon="12.117881706601048"><ele>133.0</ele><time>2026-04-18T09:50:37.977Z</time></trkpt><trkpt lat="44.13716087980627" lon="12.117762175086517"><ele>131.66666666666669</ele><time>2026-04-18T09:50:38.977Z</time></trkpt><trkpt lat="44.137157119743215" lon="12.117662742160457"><ele>130.33333333333334</ele><time>2026-04-18T09:50:39.977Z</time></trkpt><trkpt lat="44.137162080749114" lon="12.11756090486056"><ele>129.0</ele><time>2026-04-18T09:50:40.977Z</time></trkpt><trkpt lat="44.1371575715976" lon="12.117460156985798"><ele>127.66666666666666</ele><time>2026-04-18T09:50:41.977Z</time></trkpt><trkpt lat="44.13708800674956" lon="12.117311577801797"><ele>126.33333333333333</ele><time>2026-04-18T09:50:43.977Z</time></trkpt><trkpt lat="44.1370287507154" lon="12.117258182360176"><ele>125.0</ele><time>2026-04-18T09:50:44.977Z</time></trkpt><trkpt lat="44.13691842545234" lon="12.117134095388339"><ele>123.49999999999999</ele><time>2026-04-18T09:50:46.977Z</time></trkpt><trkpt lat="44.13685124981366" lon="12.117060921389024"><ele>122.0</ele><time>2026-04-18T09:50:47.977Z</time></trkpt><trkpt lat="44.136811201323304" lon="12.116981498940163"><ele>120.5</ele><time>2026-04-18T09:50:48.977Z</time></trkpt><trkpt lat="44.13679127884323" lon="12.116892064529113"><ele>119.0</ele><time>2026-04-18T09:50:49.977Z</time></trkpt><trkpt lat="44.13676744750632" lon="12.116784442715206"><ele>117.49999999999999</ele><time>2026-04-18T09:50:50.977Z</time></trkpt><trkpt lat="44.136776240361016" lon="12.116675034001299"><ele>116.0</ele><time>2026-04-18T09:50:51.977Z</time></trkpt><trkpt lat="44.136795366773235" lon="12.116547854352932"><ele>114.8</ele><time>2026-04-18T09:50:52.977Z</time></trkpt><trkpt lat="44.136827917971544" lon="12.116417571570096"><ele>113.6</ele><time>2026-04-18T09:50:53.977Z</time></trkpt><trkpt lat="44.13685518457518" lon="12.116296420565739"><ele>112.4</ele><time>2026-04-18T09:50:54.977Z</time></trkpt><trkpt lat="44.13687962521572" lon="12.116164875666636"><ele>111.2</ele><time>2026-04-18T09:50:55.977Z</time></trkpt><trkpt lat="44.13691560185941" lon="12.116019852224564"><ele>110.0</ele><time>2026-04-18T09:50:56.977Z</time></trkpt><trkpt lat="44.13695239596158" lon="12.115882408965138"><ele>110.0</ele><time>2026-04-18T09:50:57.977Z</time></trkpt><trkpt lat="44.13698568611845" lon="12.115747507438936"><ele>110.0</ele><time>2026-04-18T09:50:58.977Z</time></trkpt><trkpt lat="44.13702649957047" lon="12.115616659826893"><ele>110.0</ele><time>2026-04-18T09:50:59.977Z</time></trkpt><trkpt lat="44.1370632437962" lon="12.115482136459695"><ele>110.0</ele><time>2026-04-18T09:51:00.977Z</time></trkpt><trkpt lat="44.137096867627804" lon="12.11535330349375"><ele>110.0</ele><time>2026-04-18T09:51:01.977Z</time></trkpt><trkpt lat="44.1371310661042" lon="12.115230409881411"><ele>109.33333333333333</ele><time>2026-04-18T09:51:02.977Z</time></trkpt><trkpt lat="44.137158245060036" lon="12.11509822177142"><ele>108.66666666666666</ele><time>2026-04-18T09:51:03.977Z</time></trkpt><trkpt lat="44.13719340340489" lon="12.114971105236338"><ele>108.0</ele><time>2026-04-18T09:51:04.977Z</time></trkpt><trkpt lat="44.13722164641456" lon="12.114857517961104"><ele>107.33333333333334</ele><time>2026-04-18T09:51:05.977Z</time></trkpt><trkpt lat="44.13724282980283" lon="12.114754069096197"><ele>106.66666666666667</ele><time>2026-04-18T09:51:06.977Z</time></trkpt><trkpt lat="44.1372666619306" lon="12.114645515281824"><ele>106.0</ele><time>2026-04-18T09:51:07.977Z</time></trkpt><trkpt lat="44.13726961292315" lon="12.114536582110041"><ele>104.33333333333334</ele><time>2026-04-18T09:51:08.977Z</time></trkpt><trkpt lat="44.137239527475145" lon="12.114428904412383"><ele>102.66666666666667</ele><time>2026-04-18T09:51:09.977Z</time></trkpt><trkpt lat="44.137200218925095" lon="12.114331326742052"><ele>101.0</ele><time>2026-04-18T09:51:10.977Z</time></trkpt><trkpt lat="44.13716249201114" lon="12.114223184501222"><ele>99.33333333333334</ele><time>2026-04-18T09:51:11.977Z</time></trkpt><trkpt lat="44.13712343389838" lon="12.114114037167855"><ele>97.66666666666667</ele><time>2026-04-18T09:51:12.977Z</time></trkpt><trkpt lat="44.137087541239644" lon="12.114010502166646"><ele>96.0</ele><time>2026-04-18T09:51:13.977Z</time></trkpt><trkpt lat="44.1370606999179" lon="12.113911176715584"><ele>94.5</ele><time>2026-04-18T09:51:14.977Z</time></trkpt><trkpt lat="44.13705607869865" lon="12.113816984190139"><ele>93.0</ele><time>2026-04-18T09:51:15.977Z</time></trkpt><trkpt lat="44.13709363748708" lon="12.113651610713669"><ele>91.5</ele><time>2026-04-18T09:51:17.977Z</time></trkpt><trkpt lat="44.137144700934265" lon="12.113591772461817"><ele>90.0</ele><time>2026-04-18T09:51:18.977Z</time></trkpt><trkpt lat="44.13721898073038" lon="12.11357383000736"><ele>88.5</ele><time>2026-04-18T09:51:19.976Z</time></trkpt><trkpt lat="44.137294734681404" lon="12.113514317832454"><ele>87.0</ele><time>2026-04-18T09:51:20.976Z</time></trkpt><trkpt lat="44.13738577151411" lon="12.113483021346495"><ele>87.0</ele><time>2026-04-18T09:51:21.977Z</time></trkpt><trkpt lat="44.137478701404945" lon="12.113449005271507"><ele>87.0</ele><time>2026-04-18T09:51:22.977Z</time></trkpt><trkpt lat="44.13756962370287" lon="12.113405114384049"><ele>87.0</ele><time>2026-04-18T09:51:23.977Z</time></trkpt><trkpt lat="44.13765742803442" lon="12.113391984058584"><ele>87.0</ele><time>2026-04-18T09:51:24.976Z</time></trkpt><trkpt lat="44.13774234301368" lon="12.113353605995574"><ele>87.0</ele><time>2026-04-18T09:51:25.977Z</time></trkpt><trkpt lat="44.13781808725613" lon="12.113320279062544"><ele>87.0</ele><time>2026-04-18T09:51:26.977Z</time></trkpt><trkpt lat="44.13788499193885" lon="12.11327681874134"><ele>85.5</ele><time>2026-04-18T09:51:27.977Z</time></trkpt><trkpt lat="44.13794465500973" lon="12.113219620261532"><ele>84.0</ele><time>2026-04-18T09:51:28.977Z</time></trkpt><trkpt lat="44.137982446274364" lon="12.113137137560187"><ele>82.5</ele><time>2026-04-18T09:51:29.977Z</time></trkpt><trkpt lat="44.13798932086592" lon="12.113039060317762"><ele>81.0</ele><time>2026-04-18T09:51:30.977Z</time></trkpt><trkpt lat="44.13798081143383" lon="12.112940559020767"><ele>79.5</ele><time>2026-04-18T09:51:31.977Z</time></trkpt><trkpt lat="44.13795061341133" lon="12.112834719639093"><ele>78.0</ele><time>2026-04-18T09:51:32.977Z</time></trkpt><trkpt lat="44.13791810094644" lon="12.112723202160435"><ele>78.0</ele><time>2026-04-18T09:51:33.977Z</time></trkpt><trkpt lat="44.1378893622212" lon="12.112605053923296"><ele>78.0</ele><time>2026-04-18T09:51:34.977Z</time></trkpt><trkpt lat="44.137861491864065" lon="12.112485553449282"><ele>78.0</ele><time>2026-04-18T09:51:35.977Z</time></trkpt><trkpt lat="44.13782559616003" lon="12.112372293028063"><ele>78.0</ele><time>2026-04-18T09:51:36.977Z</time></trkpt><trkpt lat="44.137808338994525" lon="12.112251046408867"><ele>78.0</ele><time>2026-04-18T09:51:37.977Z</time></trkpt><trkpt lat="44.13776703929249" lon="12.11214925829876"><ele>78.0</ele><time>2026-04-18T09:51:38.977Z</time></trkpt><trkpt lat="44.13771859247722" lon="12.112046542999245"><ele>76.66666666666667</ele><time>2026-04-18T09:51:39.977Z</time></trkpt><trkpt lat="44.137667140069084" lon="12.111943663193756"><ele>75.33333333333333</ele><time>2026-04-18T09:51:40.977Z</time></trkpt><trkpt lat="44.13761766522499" lon="12.111841111543995"><ele>74.0</ele><time>2026-04-18T09:51:41.977Z</time></trkpt><trkpt lat="44.13756752121868" lon="12.111746173298078"><ele>72.66666666666666</ele><time>2026-04-18T09:51:42.977Z</time></trkpt><trkpt lat="44.137527789357364" lon="12.11164522858294"><ele>71.33333333333333</ele><time>2026-04-18T09:51:43.977Z</time></trkpt><trkpt lat="44.13748341437696" lon="12.11153685588066"><ele>70.0</ele><time>2026-04-18T09:51:44.977Z</time></trkpt><trkpt lat="44.137460742164045" lon="12.111430828660017"><ele>69.2</ele><time>2026-04-18T09:51:45.977Z</time></trkpt><trkpt lat="44.13745322884079" lon="12.111324060349027"><ele>68.4</ele><time>2026-04-18T09:51:46.977Z</time></trkpt><trkpt lat="44.137457916701486" lon="12.111201702099953"><ele>67.6</ele><time>2026-04-18T09:51:47.977Z</time></trkpt><trkpt lat="44.137482720498724" lon="12.111073977066933"><ele>66.8</ele><time>2026-04-18T09:51:48.977Z</time></trkpt><trkpt lat="44.13752047649968" lon="12.110947175629097"><ele>66.0</ele><time>2026-04-18T09:51:49.977Z</time></trkpt><trkpt lat="44.13755409110493" lon="12.110809844768719"><ele>65.6</ele><time>2026-04-18T09:51:50.977Z</time></trkpt><trkpt lat="44.137591586238344" lon="12.110679783211697"><ele>65.19999999999999</ele><time>2026-04-18T09:51:51.977Z</time></trkpt><trkpt lat="44.13762289312853" lon="12.110554180704732"><ele>64.80000000000001</ele><time>2026-04-18T09:51:52.977Z</time></trkpt><trkpt lat="44.137655113123735" lon="12.110427990693461"><ele>64.4</ele><time>2026-04-18T09:51:53.977Z</time></trkpt><trkpt lat="44.13769029069388" lon="12.110303128357417"><ele>64.0</ele><time>2026-04-18T09:51:54.977Z</time></trkpt><trkpt lat="44.13772244992029" lon="12.110177475445653"><ele>64.0</ele><time>2026-04-18T09:51:55.977Z</time></trkpt><trkpt lat="44.13775532289349" lon="12.110053300970453"><ele>64.0</ele><time>2026-04-18T09:51:56.977Z</time></trkpt><trkpt lat="44.13778671733471" lon="12.10993293132741"><ele>64.0</ele><time>2026-04-18T09:51:57.977Z</time></trkpt><trkpt lat="44.137813107561286" lon="12.109794969707314"><ele>64.0</ele><time>2026-04-18T09:51:58.977Z</time></trkpt><trkpt lat="44.13783265776425" lon="12.109655560497941"><ele>64.0</ele><time>2026-04-18T09:51:59.977Z</time></trkpt><trkpt lat="44.13783148527448" lon="12.10949796782102"><ele>63.5</ele><time>2026-04-18T09:52:00.977Z</time></trkpt><trkpt lat="44.137819312917365" lon="12.109326322909478"><ele>63.0</ele><time>2026-04-18T09:52:01.977Z</time></trkpt><trkpt lat="44.13780155702725" lon="12.109149340915433"><ele>62.5</ele><time>2026-04-18T09:52:02.977Z</time></trkpt><trkpt lat="44.13778404978366" lon="12.108972115974982"><ele>62.0</ele><time>2026-04-18T09:52:03.977Z</time></trkpt><trkpt lat="44.1377752198153" lon="12.108796016580412"><ele>61.75</ele><time>2026-04-18T09:52:04.977Z</time></trkpt><trkpt lat="44.137765111467274" lon="12.108623465989497"><ele>61.5</ele><time>2026-04-18T09:52:05.977Z</time></trkpt><trkpt lat="44.13774884034657" lon="12.10843637339061"><ele>61.25</ele><time>2026-04-18T09:52:06.977Z</time></trkpt><trkpt lat="44.137737622059234" lon="12.108240182498422"><ele>61.0</ele><time>2026-04-18T09:52:07.977Z</time></trkpt><trkpt lat="44.13771832291511" lon="12.108048040522869"><ele>60.75</ele><time>2026-04-18T09:52:08.977Z</time></trkpt><trkpt lat="44.13770514696364" lon="12.107862406681063"><ele>60.5</ele><time>2026-04-18T09:52:09.977Z</time></trkpt><trkpt lat="44.13769878228474" lon="12.107690329117766"><ele>60.25</ele><time>2026-04-18T09:52:10.977Z</time></trkpt><trkpt lat="44.13768393123306" lon="12.107523646322923"><ele>60.0</ele><time>2026-04-18T09:52:11.977Z</time></trkpt><trkpt lat="44.1376728246213" lon="12.107367262071879"><ele>59.6</ele><time>2026-04-18T09:52:12.977Z</time></trkpt><trkpt lat="44.13766212522904" lon="12.107213742717219"><ele>59.2</ele><time>2026-04-18T09:52:13.977Z</time></trkpt><trkpt lat="44.13765222729803" lon="12.107065898609095"><ele>58.8</ele><time>2026-04-18T09:52:14.977Z</time></trkpt><trkpt lat="44.137638173230876" lon="12.106927789860633"><ele>58.4</ele><time>2026-04-18T09:52:15.977Z</time></trkpt><trkpt lat="44.13762929031115" lon="12.106780917041924"><ele>58.0</ele><time>2026-04-18T09:52:16.977Z</time></trkpt><trkpt lat="44.1376144468411" lon="12.106634108196895"><ele>57.8</ele><time>2026-04-18T09:52:17.977Z</time></trkpt><trkpt lat="44.13760623724677" lon="12.106489824937377"><ele>57.599999999999994</ele><time>2026-04-18T09:52:18.977Z</time></trkpt><trkpt lat="44.137598290368885" lon="12.106347704316144"><ele>57.400000000000006</ele><time>2026-04-18T09:52:19.977Z</time></trkpt><trkpt lat="44.13760089750824" lon="12.106206677717802"><ele>57.2</ele><time>2026-04-18T09:52:20.977Z</time></trkpt><trkpt lat="44.13759018417155" lon="12.106065662029987"><ele>57.0</ele><time>2026-04-18T09:52:21.977Z</time></trkpt><trkpt lat="44.13758861968374" lon="12.10593390464966"><ele>57.0</ele><time>2026-04-18T09:52:22.977Z</time></trkpt><trkpt lat="44.13758939834731" lon="12.105802000363997"><ele>57.0</ele><time>2026-04-18T09:52:23.977Z</time></trkpt><trkpt lat="44.137583978515465" lon="12.105676491651684"><ele>57.0</ele><time>2026-04-18T09:52:24.977Z</time></trkpt><trkpt lat="44.13758318467336" lon="12.10554789535426"><ele>57.0</ele><time>2026-04-18T09:52:25.977Z</time></trkpt><trkpt lat="44.13758423106879" lon="12.105420356068166"><ele>57.0</ele><time>2026-04-18T09:52:26.977Z</time></trkpt><trkpt lat="44.137587488345574" lon="12.105304387818986"><ele>56.833333333333336</ele><time>2026-04-18T09:52:27.977Z</time></trkpt><trkpt lat="44.13759140340631" lon="12.105200173120966"><ele>56.66666666666667</ele><time>2026-04-18T09:52:28.977Z</time></trkpt><trkpt lat="44.13759707666485" lon="12.105112649689122"><ele>56.5</ele><time>2026-04-18T09:52:29.977Z</time></trkpt><trkpt lat="44.137657238529556" lon="12.104966316966049"><ele>56.333333333333336</ele><time>2026-04-18T09:52:31.977Z</time></trkpt><trkpt lat="44.137683173311196" lon="12.10485782280459"><ele>56.16666666666667</ele><time>2026-04-18T09:52:32.977Z</time></trkpt><trkpt lat="44.13772137993753" lon="12.104747810082019"><ele>56.0</ele><time>2026-04-18T09:52:33.977Z</time></trkpt><trkpt lat="44.137765526219184" lon="12.1046233588032"><ele>56.0</ele><time>2026-04-18T09:52:34.977Z</time></trkpt><trkpt lat="44.137826265580884" lon="12.104502715659907"><ele>55.99999999999999</ele><time>2026-04-18T09:52:35.976Z</time></trkpt><trkpt lat="44.13786939250939" lon="12.104357425232244"><ele>55.99999999999999</ele><time>2026-04-18T09:52:36.976Z</time></trkpt><trkpt lat="44.13791675866655" lon="12.10423041171322"><ele>56.0</ele><time>2026-04-18T09:52:37.976Z</time></trkpt><trkpt lat="44.13795897263149" lon="12.104110880432533"><ele>56.0</ele><time>2026-04-18T09:52:38.976Z</time></trkpt><trkpt lat="44.13800778851449" lon="12.103964571162594"><ele>55.599999999999994</ele><time>2026-04-18T09:52:39.976Z</time></trkpt><trkpt lat="44.138062658508865" lon="12.103823634524689"><ele>55.199999999999996</ele><time>2026-04-18T09:52:40.976Z</time></trkpt><trkpt lat="44.138107138789735" lon="12.10367585633802"><ele>54.800000000000004</ele><time>2026-04-18T09:52:41.976Z</time></trkpt><trkpt lat="44.1381546617203" lon="12.103550082341377"><ele>54.400000000000006</ele><time>2026-04-18T09:52:42.976Z</time></trkpt><trkpt lat="44.1382077102557" lon="12.103412862743443"><ele>54.0</ele><time>2026-04-18T09:52:43.976Z</time></trkpt><trkpt lat="44.13825399504056" lon="12.103279873119615"><ele>54.5</ele><time>2026-04-18T09:52:44.976Z</time></trkpt><trkpt lat="44.13830672916003" lon="12.10312607639333"><ele>55.0</ele><time>2026-04-18T09:52:45.976Z</time></trkpt><trkpt lat="44.13835641648433" lon="12.102976442947735"><ele>55.5</ele><time>2026-04-18T09:52:46.976Z</time></trkpt><trkpt lat="44.13840059968071" lon="12.102826291257207"><ele>56.0</ele><time>2026-04-18T09:52:47.976Z</time></trkpt><trkpt lat="44.138461862052864" lon="12.10271144510046"><ele>56.0</ele><time>2026-04-18T09:52:48.976Z</time></trkpt><trkpt lat="44.138517328175304" lon="12.102592547546308"><ele>55.99999999999999</ele><time>2026-04-18T09:52:49.976Z</time></trkpt><trkpt lat="44.138563699939006" lon="12.102471490295313"><ele>55.99999999999999</ele><time>2026-04-18T09:52:50.976Z</time></trkpt><trkpt lat="44.138598576884895" lon="12.102327600780573"><ele>56.0</ele><time>2026-04-18T09:52:51.976Z</time></trkpt><trkpt lat="44.13863947395579" lon="12.102193694898325"><ele>56.0</ele><time>2026-04-18T09:52:52.976Z</time></trkpt><trkpt lat="44.13868823086759" lon="12.10204598504873"><ele>55.4</ele><time>2026-04-18T09:52:53.976Z</time></trkpt><trkpt lat="44.13873080206334" lon="12.10190417457386"><ele>54.8</ele><time>2026-04-18T09:52:54.976Z</time></trkpt><trkpt lat="44.13877946373864" lon="12.101768014652116"><ele>54.199999999999996</ele><time>2026-04-18T09:52:55.976Z</time></trkpt><trkpt lat="44.138823832208395" lon="12.10162366152014"><ele>53.599999999999994</ele><time>2026-04-18T09:52:56.976Z</time></trkpt><trkpt lat="44.13887478680538" lon="12.101518324420104"><ele>53.0</ele><time>2026-04-18T09:52:57.976Z</time></trkpt><trkpt lat="44.13891060793131" lon="12.10139581096919"><ele>53.0</ele><time>2026-04-18T09:52:58.976Z</time></trkpt><trkpt lat="44.13895768392083" lon="12.101276245763637"><ele>53.0</ele><time>2026-04-18T09:52:59.976Z</time></trkpt><trkpt lat="44.139022690539875" lon="12.101156478131935"><ele>53.0</ele><time>2026-04-18T09:53:00.976Z</time></trkpt><trkpt lat="44.13911026087681" lon="12.10104209488463"><ele>53.0</ele><time>2026-04-18T09:53:01.976Z</time></trkpt><trkpt lat="44.1391942748176" lon="12.100937580756725"><ele>53.0</ele><time>2026-04-18T09:53:02.976Z</time></trkpt><trkpt lat="44.13927953190533" lon="12.100841089725494"><ele>53.5</ele><time>2026-04-18T09:53:03.976Z</time></trkpt><trkpt lat="44.13937125418538" lon="12.100750547054142"><ele>54.0</ele><time>2026-04-18T09:53:04.976Z</time></trkpt><trkpt lat="44.1394597271442" lon="12.100643582622281"><ele>54.5</ele><time>2026-04-18T09:53:05.976Z</time></trkpt><trkpt lat="44.13956062933173" lon="12.100565812247723"><ele>55.0</ele><time>2026-04-18T09:53:06.976Z</time></trkpt><trkpt lat="44.13966935886453" lon="12.100518899564701"><ele>55.0</ele><time>2026-04-18T09:53:07.976Z</time></trkpt><trkpt lat="44.13976505319939" lon="12.1004492829454"><ele>55.0</ele><time>2026-04-18T09:53:08.976Z</time></trkpt><trkpt lat="44.13985233830986" lon="12.100395985553515"><ele>55.0</ele><time>2026-04-18T09:53:09.976Z</time></trkpt><trkpt lat="44.13992982440836" lon="12.100355498774785"><ele>55.0</ele><time>2026-04-18T09:53:10.976Z</time></trkpt><trkpt lat="44.1400173883462" lon="12.100316908702766"><ele>55.0</ele><time>2026-04-18T09:53:11.976Z</time></trkpt><trkpt lat="44.14010557168315" lon="12.100320264959802"><ele>55.0</ele><time>2026-04-18T09:53:12.976Z</time></trkpt><trkpt lat="44.14020407829716" lon="12.100307590563515"><ele>55.0</ele><time>2026-04-18T09:53:13.976Z</time></trkpt><trkpt lat="44.14031129102931" lon="12.100340130910364"><ele>55.0</ele><time>2026-04-18T09:53:14.976Z</time></trkpt><trkpt lat="44.14043074539685" lon="12.100338925011457"><ele>55.0</ele><time>2026-04-18T09:53:15.976Z</time></trkpt><trkpt lat="44.14055336277992" lon="12.100388786905675"><ele>55.0</ele><time>2026-04-18T09:53:16.976Z</time></trkpt><trkpt lat="44.14068247145688" lon="12.100402452436198"><ele>55.0</ele><time>2026-04-18T09:53:17.976Z</time></trkpt><trkpt lat="44.14080606135499" lon="12.100453836961623"><ele>55.0</ele><time>2026-04-18T09:53:18.976Z</time></trkpt><trkpt lat="44.14091850444521" lon="12.100481443487304"><ele>55.0</ele><time>2026-04-18T09:53:19.976Z</time></trkpt><trkpt lat="44.14102439738203" lon="12.100507441858614"><ele>54.8</ele><time>2026-04-18T09:53:20.976Z</time></trkpt><trkpt lat="44.14112552750162" lon="12.100541670079124"><ele>54.6</ele><time>2026-04-18T09:53:21.976Z</time></trkpt><trkpt lat="44.14122296534864" lon="12.100571604153501"><ele>54.400000000000006</ele><time>2026-04-18T09:53:22.976Z</time></trkpt><trkpt lat="44.141323641563204" lon="12.100600111768456"><ele>54.2</ele><time>2026-04-18T09:53:23.976Z</time></trkpt><trkpt lat="44.14141517301071" lon="12.100623456449549"><ele>54.0</ele><time>2026-04-18T09:53:24.976Z</time></trkpt><trkpt lat="44.14149934652679" lon="12.100657861037872"><ele>54.0</ele><time>2026-04-18T09:53:25.976Z</time></trkpt><trkpt lat="44.14158839639989" lon="12.100685659641957"><ele>54.0</ele><time>2026-04-18T09:53:26.976Z</time></trkpt><trkpt lat="44.14167116683841" lon="12.100723525481666"><ele>54.0</ele><time>2026-04-18T09:53:27.977Z</time></trkpt><trkpt lat="44.14175998625737" lon="12.100767000666561"><ele>54.0</ele><time>2026-04-18T09:53:28.976Z</time></trkpt><trkpt lat="44.14183679135427" lon="12.100799536322024"><ele>54.0</ele><time>2026-04-18T09:53:29.976Z</time></trkpt><trkpt lat="44.14191646731232" lon="12.100839627986261"><ele>54.0</ele><time>2026-04-18T09:53:30.977Z</time></trkpt><trkpt lat="44.14198033224225" lon="12.100880353036876"><ele>54.0</ele><time>2026-04-18T09:53:31.977Z</time></trkpt><trkpt lat="44.14206198622815" lon="12.100918028862353"><ele>54.00000000000001</ele><time>2026-04-18T09:53:32.977Z</time></trkpt><trkpt lat="44.14214700260024" lon="12.100944137886621"><ele>54.00000000000001</ele><time>2026-04-18T09:53:33.976Z</time></trkpt><trkpt lat="44.1422321837898" lon="12.101008662921611"><ele>54.0</ele><time>2026-04-18T09:53:34.977Z</time></trkpt><trkpt lat="44.14231882953708" lon="12.101052224366269"><ele>54.0</ele><time>2026-04-18T09:53:35.977Z</time></trkpt><trkpt lat="44.142411811932426" lon="12.101098454914512"><ele>53.2</ele><time>2026-04-18T09:53:36.977Z</time></trkpt><trkpt lat="44.14250975482936" lon="12.101147151870645"><ele>52.400000000000006</ele><time>2026-04-18T09:53:37.976Z</time></trkpt><trkpt lat="44.14259402388971" lon="12.101188994042811"><ele>51.6</ele><time>2026-04-18T09:53:38.976Z</time></trkpt><trkpt lat="44.14269664537433" lon="12.101239898574306"><ele>50.8</ele><time>2026-04-18T09:53:39.976Z</time></trkpt><trkpt lat="44.142786213835734" lon="12.101284328386761"><ele>50.0</ele><time>2026-04-18T09:53:40.976Z</time></trkpt><trkpt lat="44.14288108647133" lon="12.101332468777535"><ele>50.00000000000001</ele><time>2026-04-18T09:53:41.976Z</time></trkpt><trkpt lat="44.142965733107374" lon="12.101375237234386"><ele>50.0</ele><time>2026-04-18T09:53:42.976Z</time></trkpt><trkpt lat="44.14304882943179" lon="12.101417535312681"><ele>50.0</ele><time>2026-04-18T09:53:43.976Z</time></trkpt><trkpt lat="44.14312220719849" lon="12.10145580560938"><ele>50.0</ele><time>2026-04-18T09:53:44.976Z</time></trkpt><trkpt lat="44.14319603356855" lon="12.101493184432373"><ele>50.00000000000001</ele><time>2026-04-18T09:53:45.976Z</time></trkpt><trkpt lat="44.143266573155" lon="12.10152868143262"><ele>50.0</ele><time>2026-04-18T09:53:46.976Z</time></trkpt><trkpt lat="44.143348054436466" lon="12.101569684454386"><ele>50.4</ele><time>2026-04-18T09:53:47.976Z</time></trkpt><trkpt lat="44.143460174484694" lon="12.10162610557964"><ele>50.8</ele><time>2026-04-18T09:53:49.976Z</time></trkpt><trkpt lat="44.143549700101204" lon="12.101671609070728"><ele>51.2</ele><time>2026-04-18T09:53:51.976Z</time></trkpt><trkpt lat="44.14365143013795" lon="12.101714909530063"><ele>51.6</ele><time>2026-04-18T09:53:54.976Z</time></trkpt><trkpt lat="44.143754037379516" lon="12.101744816942892"><ele>52.0</ele><time>2026-04-18T09:53:56.976Z</time></trkpt><trkpt lat="44.14381894710211" lon="12.101740078593078"><ele>51.0</ele><time>2026-04-18T09:53:58.976Z</time></trkpt><trkpt lat="44.143870637693006" lon="12.101504460608412"><ele>50.0</ele><time>2026-04-18T09:53:59.976Z</time></trkpt><trkpt lat="44.143892663099734" lon="12.101324979728595"><ele>49.0</ele><time>2026-04-18T09:54:01.976Z</time></trkpt><trkpt lat="44.14390606223555" lon="12.10122352580266"><ele>48.0</ele><time>2026-04-18T09:54:02.976Z</time></trkpt><trkpt lat="44.1439235576248" lon="12.101091056207078"><ele>48.0</ele><time>2026-04-18T09:54:03.976Z</time></trkpt><trkpt lat="44.143939205192204" lon="12.100969478176697"><ele>48.0</ele><time>2026-04-18T09:54:04.976Z</time></trkpt><trkpt lat="44.14395455699689" lon="12.100846044479995"><ele>48.0</ele><time>2026-04-18T09:54:05.976Z</time></trkpt><trkpt lat="44.143956677047875" lon="12.100714827199129"><ele>48.0</ele><time>2026-04-18T09:54:06.976Z</time></trkpt><trkpt lat="44.14398473350619" lon="12.100582551121256"><ele>48.0</ele><time>2026-04-18T09:54:07.976Z</time></trkpt><trkpt lat="44.14399600146183" lon="12.100454460929356"><ele>47.8</ele><time>2026-04-18T09:54:08.976Z</time></trkpt><trkpt lat="44.1440035199903" lon="12.1003378108163"><ele>47.599999999999994</ele><time>2026-04-18T09:54:09.976Z</time></trkpt><trkpt lat="44.14401347880218" lon="12.100211611757189"><ele>47.400000000000006</ele><time>2026-04-18T09:54:10.976Z</time></trkpt><trkpt lat="44.144015176476515" lon="12.100088553605488"><ele>47.2</ele><time>2026-04-18T09:54:11.976Z</time></trkpt><trkpt lat="44.14400690591222" lon="12.099956364461368"><ele>47.0</ele><time>2026-04-18T09:54:12.976Z</time></trkpt><trkpt lat="44.14399637334437" lon="12.099826310974146"><ele>47.6</ele><time>2026-04-18T09:54:13.976Z</time></trkpt><trkpt lat="44.14396331169992" lon="12.099702834798698"><ele>48.2</ele><time>2026-04-18T09:54:14.976Z</time></trkpt><trkpt lat="44.14392024663045" lon="12.099577852944131"><ele>48.8</ele><time>2026-04-18T09:54:15.976Z</time></trkpt><trkpt lat="44.14386940776573" lon="12.099447890335231"><ele>49.4</ele><time>2026-04-18T09:54:16.976Z</time></trkpt><trkpt lat="44.143808774638536" lon="12.099343990291658"><ele>50.0</ele><time>2026-04-18T09:54:17.976Z</time></trkpt><trkpt lat="44.14374782005771" lon="12.099234302800822"><ele>50.0</ele><time>2026-04-18T09:54:18.976Z</time></trkpt><trkpt lat="44.143688959166" lon="12.09911955999261"><ele>50.0</ele><time>2026-04-18T09:54:19.976Z</time></trkpt><trkpt lat="44.143617359953794" lon="12.09902418080584"><ele>50.0</ele><time>2026-04-18T09:54:20.976Z</time></trkpt><trkpt lat="44.14355799166113" lon="12.098918749904165"><ele>50.0</ele><time>2026-04-18T09:54:21.976Z</time></trkpt><trkpt lat="44.14349026354002" lon="12.098801736768932"><ele>50.0</ele><time>2026-04-18T09:54:22.976Z</time></trkpt><trkpt lat="44.14343406752562" lon="12.098691431514826"><ele>50.5</ele><time>2026-04-18T09:54:23.976Z</time></trkpt><trkpt lat="44.14336971834025" lon="12.098579635914342"><ele>51.0</ele><time>2026-04-18T09:54:24.976Z</time></trkpt><trkpt lat="44.143299160657264" lon="12.09845775011376"><ele>51.5</ele><time>2026-04-18T09:54:25.976Z</time></trkpt><trkpt lat="44.14323011536213" lon="12.0983156406474"><ele>52.0</ele><time>2026-04-18T09:54:26.976Z</time></trkpt><trkpt lat="44.143172542612184" lon="12.09817732393675"><ele>53.2</ele><time>2026-04-18T09:54:27.976Z</time></trkpt><trkpt lat="44.14310565216271" lon="12.098037343090885"><ele>54.400000000000006</ele><time>2026-04-18T09:54:28.976Z</time></trkpt><trkpt lat="44.1430387602442" lon="12.097915248708677"><ele>55.599999999999994</ele><time>2026-04-18T09:54:29.976Z</time></trkpt><trkpt lat="44.14298027447913" lon="12.097789791448909"><ele>56.8</ele><time>2026-04-18T09:54:30.976Z</time></trkpt><trkpt lat="44.142920357242936" lon="12.097664492460796"><ele>58.0</ele><time>2026-04-18T09:54:31.976Z</time></trkpt><trkpt lat="44.14285458535154" lon="12.097536480699526"><ele>57.25</ele><time>2026-04-18T09:54:32.976Z</time></trkpt><trkpt lat="44.142794747897675" lon="12.097397380427507"><ele>56.5</ele><time>2026-04-18T09:54:33.976Z</time></trkpt><trkpt lat="44.14273728312483" lon="12.097251786140278"><ele>55.75</ele><time>2026-04-18T09:54:34.976Z</time></trkpt><trkpt lat="44.14268035319536" lon="12.097101166273431"><ele>55.0</ele><time>2026-04-18T09:54:35.976Z</time></trkpt><trkpt lat="44.142618234854815" lon="12.096941717020814"><ele>55.0</ele><time>2026-04-18T09:54:36.976Z</time></trkpt><trkpt lat="44.14255716891139" lon="12.096773035271152"><ele>55.0</ele><time>2026-04-18T09:54:37.976Z</time></trkpt><trkpt lat="44.14248893393234" lon="12.09660337595935"><ele>55.0</ele><time>2026-04-18T09:54:38.976Z</time></trkpt><trkpt lat="44.14241556633746" lon="12.096428152885744"><ele>55.0</ele><time>2026-04-18T09:54:39.976Z</time></trkpt><trkpt lat="44.14234357630304" lon="12.096256646889481"><ele>56.25</ele><time>2026-04-18T09:54:40.976Z</time></trkpt><trkpt lat="44.14225680567073" lon="12.096094179862622"><ele>57.5</ele><time>2026-04-18T09:54:41.976Z</time></trkpt><trkpt lat="44.142171483967665" lon="12.09592566334945"><ele>58.75</ele><time>2026-04-18T09:54:42.976Z</time></trkpt><trkpt lat="44.14209730421498" lon="12.095760456171611"><ele>60.0</ele><time>2026-04-18T09:54:43.976Z</time></trkpt><trkpt lat="44.14202817203129" lon="12.095620577027047"><ele>60.0</ele><time>2026-04-18T09:54:44.976Z</time></trkpt><trkpt lat="44.14196302744123" lon="12.095480331851439"><ele>60.0</ele><time>2026-04-18T09:54:45.976Z</time></trkpt><trkpt lat="44.1419098963651" lon="12.095333560166765"><ele>60.0</ele><time>2026-04-18T09:54:46.976Z</time></trkpt><trkpt lat="44.141857942071816" lon="12.095190963415876"><ele>60.0</ele><time>2026-04-18T09:54:47.976Z</time></trkpt><trkpt lat="44.141801756657614" lon="12.095043775955855"><ele>60.0</ele><time>2026-04-18T09:54:48.976Z</time></trkpt><trkpt lat="44.141740509140014" lon="12.09488899495267"><ele>60.0</ele><time>2026-04-18T09:54:49.976Z</time></trkpt><trkpt lat="44.14167796069002" lon="12.094734505182183"><ele>60.0</ele><time>2026-04-18T09:54:50.976Z</time></trkpt><trkpt lat="44.14161409351697" lon="12.09457610660033"><ele>60.0</ele><time>2026-04-18T09:54:51.976Z</time></trkpt><trkpt lat="44.141550993041974" lon="12.09441909054854"><ele>61.5</ele><time>2026-04-18T09:54:52.976Z</time></trkpt><trkpt lat="44.141485260311086" lon="12.09426277212593"><ele>63.0</ele><time>2026-04-18T09:54:53.976Z</time></trkpt><trkpt lat="44.14142281345936" lon="12.094101966739608"><ele>64.5</ele><time>2026-04-18T09:54:54.976Z</time></trkpt><trkpt lat="44.141357264530946" lon="12.093940104149297"><ele>66.0</ele><time>2026-04-18T09:54:55.976Z</time></trkpt><trkpt lat="44.1412959407676" lon="12.093786748677507"><ele>66.0</ele><time>2026-04-18T09:54:56.976Z</time></trkpt><trkpt lat="44.14123229679252" lon="12.09362443586432"><ele>66.0</ele><time>2026-04-18T09:54:57.976Z</time></trkpt><trkpt lat="44.141170668817516" lon="12.09346211387548"><ele>66.0</ele><time>2026-04-18T09:54:58.976Z</time></trkpt><trkpt lat="44.14110628332902" lon="12.093297164422529"><ele>66.0</ele><time>2026-04-18T09:54:59.976Z</time></trkpt><trkpt lat="44.141039990646576" lon="12.093135422501268"><ele>65.5</ele><time>2026-04-18T09:55:00.976Z</time></trkpt><trkpt lat="44.14098740370547" lon="12.092958847508392"><ele>65.0</ele><time>2026-04-18T09:55:01.976Z</time></trkpt><trkpt lat="44.14092281000108" lon="12.092799222614381"><ele>64.5</ele><time>2026-04-18T09:55:02.976Z</time></trkpt><trkpt lat="44.14085682722445" lon="12.092640042208787"><ele>64.0</ele><time>2026-04-18T09:55:03.976Z</time></trkpt><trkpt lat="44.14079152201817" lon="12.09246987156357"><ele>64.5</ele><time>2026-04-18T09:55:04.976Z</time></trkpt><trkpt lat="44.14072181952883" lon="12.092306728314687"><ele>65.0</ele><time>2026-04-18T09:55:05.976Z</time></trkpt><trkpt lat="44.14064975148708" lon="12.092131736339693"><ele>65.5</ele><time>2026-04-18T09:55:06.976Z</time></trkpt><trkpt lat="44.140578787614764" lon="12.091954255816217"><ele>66.0</ele><time>2026-04-18T09:55:07.976Z</time></trkpt><trkpt lat="44.14051143772985" lon="12.09177797154863"><ele>66.25</ele><time>2026-04-18T09:55:08.976Z</time></trkpt><trkpt lat="44.14044403867986" lon="12.091615412269427"><ele>66.5</ele><time>2026-04-18T09:55:09.976Z</time></trkpt><trkpt lat="44.14037857480314" lon="12.091450529645787"><ele>66.75</ele><time>2026-04-18T09:55:10.976Z</time></trkpt><trkpt lat="44.14031606684513" lon="12.091288667115707"><ele>67.0</ele><time>2026-04-18T09:55:11.976Z</time></trkpt><trkpt lat="44.14025131805886" lon="12.091134559109408"><ele>67.0</ele><time>2026-04-18T09:55:12.976Z</time></trkpt><trkpt lat="44.140189787492034" lon="12.090976708698946"><ele>67.0</ele><time>2026-04-18T09:55:13.976Z</time></trkpt><trkpt lat="44.14012847157208" lon="12.090813834263566"><ele>67.0</ele><time>2026-04-18T09:55:14.976Z</time></trkpt><trkpt lat="44.1400568915662" lon="12.090644156273424"><ele>67.0</ele><time>2026-04-18T09:55:15.976Z</time></trkpt><trkpt lat="44.139992453618184" lon="12.090465211074378"><ele>66.75</ele><time>2026-04-18T09:55:16.976Z</time></trkpt><trkpt lat="44.139918717862024" lon="12.090301377314342"><ele>66.5</ele><time>2026-04-18T09:55:17.976Z</time></trkpt><trkpt lat="44.13984613139407" lon="12.090146046399141"><ele>66.25</ele><time>2026-04-18T09:55:18.976Z</time></trkpt><trkpt lat="44.13975670305097" lon="12.089985670038537"><ele>66.0</ele><time>2026-04-18T09:55:19.975Z</time></trkpt><trkpt lat="44.139660547813556" lon="12.089828906777072"><ele>64.0</ele><time>2026-04-18T09:55:20.975Z</time></trkpt><trkpt lat="44.139545054313785" lon="12.089679901006905"><ele>62.0</ele><time>2026-04-18T09:55:21.975Z</time></trkpt><trkpt lat="44.139417436196666" lon="12.089540933630467"><ele>60.0</ele><time>2026-04-18T09:55:22.975Z</time></trkpt><trkpt lat="44.13928575289254" lon="12.089397948901437"><ele>60.0</ele><time>2026-04-18T09:55:23.975Z</time></trkpt><trkpt lat="44.13914516548006" lon="12.089254932305336"><ele>60.0</ele><time>2026-04-18T09:55:24.975Z</time></trkpt><trkpt lat="44.13901288641081" lon="12.089108052425855"><ele>60.0</ele><time>2026-04-18T09:55:25.975Z</time></trkpt><trkpt lat="44.13887755101554" lon="12.08896388182034"><ele>60.0</ele><time>2026-04-18T09:55:26.975Z</time></trkpt><trkpt lat="44.1387435101526" lon="12.088824233350422"><ele>60.0</ele><time>2026-04-18T09:55:27.975Z</time></trkpt><trkpt lat="44.13861302550526" lon="12.088685665814374"><ele>60.0</ele><time>2026-04-18T09:55:28.975Z</time></trkpt><trkpt lat="44.13849763548136" lon="12.08855868549381"><ele>60.0</ele><time>2026-04-18T09:55:29.975Z</time></trkpt><trkpt lat="44.13838663390372" lon="12.088436632650566"><ele>60.0</ele><time>2026-04-18T09:55:30.976Z</time></trkpt><trkpt lat="44.138265947487206" lon="12.088321017206079"><ele>60.0</ele><time>2026-04-18T09:55:31.976Z</time></trkpt><trkpt lat="44.13814357524199" lon="12.088197643909337"><ele>60.0</ele><time>2026-04-18T09:55:32.976Z</time></trkpt><trkpt lat="44.13802846672857" lon="12.088070744194544"><ele>60.5</ele><time>2026-04-18T09:55:33.976Z</time></trkpt><trkpt lat="44.137910081709116" lon="12.087945495757193"><ele>61.0</ele><time>2026-04-18T09:55:34.976Z</time></trkpt><trkpt lat="44.13779612062479" lon="12.087819879707192"><ele>61.5</ele><time>2026-04-18T09:55:35.976Z</time></trkpt><trkpt lat="44.1376838331016" lon="12.087696619890718"><ele>62.0</ele><time>2026-04-18T09:55:36.976Z</time></trkpt><trkpt lat="44.137573461948875" lon="12.087576885525776"><ele>62.0</ele><time>2026-04-18T09:55:37.976Z</time></trkpt><trkpt lat="44.13745687599689" lon="12.087477914374363"><ele>62.0</ele><time>2026-04-18T09:55:38.976Z</time></trkpt><trkpt lat="44.137348441771984" lon="12.087362665166244"><ele>62.0</ele><time>2026-04-18T09:55:39.976Z</time></trkpt><trkpt lat="44.137236039677965" lon="12.087240568805951"><ele>62.0</ele><time>2026-04-18T09:55:40.976Z</time></trkpt><trkpt lat="44.13712549603053" lon="12.087122980092566"><ele>62.0</ele><time>2026-04-18T09:55:41.976Z</time></trkpt><trkpt lat="44.13700812380132" lon="12.08699659392071"><ele>62.0</ele><time>2026-04-18T09:55:42.976Z</time></trkpt><trkpt lat="44.136893020360375" lon="12.086870442131422"><ele>62.0</ele><time>2026-04-18T09:55:43.976Z</time></trkpt><trkpt lat="44.13676779042878" lon="12.086749551599638"><ele>62.0</ele><time>2026-04-18T09:55:44.976Z</time></trkpt><trkpt lat="44.136648383432785" lon="12.086623143342285"><ele>62.0</ele><time>2026-04-18T09:55:45.976Z</time></trkpt><trkpt lat="44.13652720535992" lon="12.086505591485635"><ele>62.0</ele><time>2026-04-18T09:55:46.976Z</time></trkpt><trkpt lat="44.13641335438276" lon="12.08637335473428"><ele>62.0</ele><time>2026-04-18T09:55:47.976Z</time></trkpt><trkpt lat="44.136301112128685" lon="12.086255099207074"><ele>62.0</ele><time>2026-04-18T09:55:48.976Z</time></trkpt><trkpt lat="44.13618736270435" lon="12.086146713993928"><ele>62.0</ele><time>2026-04-18T09:55:49.976Z</time></trkpt><trkpt lat="44.1360763787241" lon="12.086023232420269"><ele>62.0</ele><time>2026-04-18T09:55:50.976Z</time></trkpt><trkpt lat="44.135958818015894" lon="12.08590160387132"><ele>62.0</ele><time>2026-04-18T09:55:51.976Z</time></trkpt><trkpt lat="44.13583954437433" lon="12.08577827151866"><ele>62.0</ele><time>2026-04-18T09:55:52.976Z</time></trkpt><trkpt lat="44.13572313566698" lon="12.085649528190325"><ele>62.25</ele><time>2026-04-18T09:55:53.976Z</time></trkpt><trkpt lat="44.13560422397209" lon="12.08552040893861"><ele>62.5</ele><time>2026-04-18T09:55:54.976Z</time></trkpt><trkpt lat="44.13548254824624" lon="12.085398158031984"><ele>62.75</ele><time>2026-04-18T09:55:55.976Z</time></trkpt><trkpt lat="44.1353678620036" lon="12.085278744806146"><ele>63.0</ele><time>2026-04-18T09:55:56.976Z</time></trkpt><trkpt lat="44.135261871653235" lon="12.085163255225169"><ele>63.0</ele><time>2026-04-18T09:55:57.976Z</time></trkpt><trkpt lat="44.13516254858611" lon="12.08506252397742"><ele>63.0</ele><time>2026-04-18T09:55:58.976Z</time></trkpt><trkpt lat="44.1350627632546" lon="12.084963340477133"><ele>63.0</ele><time>2026-04-18T09:55:59.976Z</time></trkpt><trkpt lat="44.13497713088289" lon="12.084863984019444"><ele>63.0</ele><time>2026-04-18T09:56:00.976Z</time></trkpt><trkpt lat="44.134892423128974" lon="12.084761014141344"><ele>63.75</ele><time>2026-04-18T09:56:01.976Z</time></trkpt><trkpt lat="44.13481092890005" lon="12.084648646872125"><ele>64.5</ele><time>2026-04-18T09:56:02.976Z</time></trkpt><trkpt lat="44.13472189333147" lon="12.084531084847379"><ele>65.25</ele><time>2026-04-18T09:56:03.976Z</time></trkpt><trkpt lat="44.134642420635146" lon="12.084408585956616"><ele>66.0</ele><time>2026-04-18T09:56:04.976Z</time></trkpt><trkpt lat="44.13456771682164" lon="12.08429185484519"><ele>66.0</ele><time>2026-04-18T09:56:05.976Z</time></trkpt><trkpt lat="44.134504167780634" lon="12.084177309209577"><ele>66.0</ele><time>2026-04-18T09:56:06.976Z</time></trkpt><trkpt lat="44.13443644097644" lon="12.084052170746896"><ele>66.0</ele><time>2026-04-18T09:56:07.976Z</time></trkpt><trkpt lat="44.13438059003373" lon="12.083917192239296"><ele>66.0</ele><time>2026-04-18T09:56:08.976Z</time></trkpt><trkpt lat="44.13432600472699" lon="12.083760195901947"><ele>65.0</ele><time>2026-04-18T09:56:09.976Z</time></trkpt><trkpt lat="44.13427975587701" lon="12.083609039464072"><ele>64.0</ele><time>2026-04-18T09:56:10.976Z</time></trkpt><trkpt lat="44.1342409499957" lon="12.083451433368854"><ele>63.0</ele><time>2026-04-18T09:56:11.976Z</time></trkpt><trkpt lat="44.13419664225493" lon="12.083293749082426"><ele>62.0</ele><time>2026-04-18T09:56:12.976Z</time></trkpt><trkpt lat="44.134154784209244" lon="12.083133117705081"><ele>62.25</ele><time>2026-04-18T09:56:13.976Z</time></trkpt><trkpt lat="44.13410667659191" lon="12.082992302277873"><ele>62.5</ele><time>2026-04-18T09:56:14.976Z</time></trkpt><trkpt lat="44.13405975653392" lon="12.082839013211517"><ele>62.75</ele><time>2026-04-18T09:56:15.976Z</time></trkpt><trkpt lat="44.13401372353459" lon="12.082680325883723"><ele>63.0</ele><time>2026-04-18T09:56:16.976Z</time></trkpt><trkpt lat="44.1339667436812" lon="12.082526832586964"><ele>62.599999999999994</ele><time>2026-04-18T09:56:17.976Z</time></trkpt><trkpt lat="44.133923452671425" lon="12.082391647647217"><ele>62.199999999999996</ele><time>2026-04-18T09:56:18.976Z</time></trkpt><trkpt lat="44.13388023120145" lon="12.082253328176481"><ele>61.8</ele><time>2026-04-18T09:56:19.976Z</time></trkpt><trkpt lat="44.13384426670739" lon="12.082125455377701"><ele>61.4</ele><time>2026-04-18T09:56:20.976Z</time></trkpt><trkpt lat="44.13380241405766" lon="12.081988270999505"><ele>61.0</ele><time>2026-04-18T09:56:21.976Z</time></trkpt><trkpt lat="44.1337618071432" lon="12.081843009359606"><ele>61.0</ele><time>2026-04-18T09:56:22.976Z</time></trkpt><trkpt lat="44.13371880860278" lon="12.081724808140613"><ele>60.99999999999999</ele><time>2026-04-18T09:56:23.976Z</time></trkpt><trkpt lat="44.1336766043349" lon="12.081613593519958"><ele>60.99999999999999</ele><time>2026-04-18T09:56:24.976Z</time></trkpt><trkpt lat="44.133621794290605" lon="12.081512093262813"><ele>61.0</ele><time>2026-04-18T09:56:25.976Z</time></trkpt><trkpt lat="44.13354591051913" lon="12.081440345397347"><ele>61.0</ele><time>2026-04-18T09:56:26.976Z</time></trkpt><trkpt lat="44.13344855394406" lon="12.081395068011316"><ele>60.5</ele><time>2026-04-18T09:56:27.976Z</time></trkpt><trkpt lat="44.1333512393629" lon="12.081351868492995"><ele>60.0</ele><time>2026-04-18T09:56:28.976Z</time></trkpt><trkpt lat="44.133228083195526" lon="12.081318243335618"><ele>59.5</ele><time>2026-04-18T09:56:29.976Z</time></trkpt><trkpt lat="44.13310390069061" lon="12.081284855819952"><ele>59.0</ele><time>2026-04-18T09:56:30.976Z</time></trkpt><trkpt lat="44.13297805742127" lon="12.081235964113237"><ele>58.75</ele><time>2026-04-18T09:56:31.976Z</time></trkpt><trkpt lat="44.13285387510529" lon="12.081178315319658"><ele>58.5</ele><time>2026-04-18T09:56:32.976Z</time></trkpt><trkpt lat="44.132722264315454" lon="12.081121991790866"><ele>58.25</ele><time>2026-04-18T09:56:33.976Z</time></trkpt><trkpt lat="44.13258927215203" lon="12.081067826537273"><ele>58.0</ele><time>2026-04-18T09:56:34.976Z</time></trkpt><trkpt lat="44.1324508853772" lon="12.081007342327336"><ele>59.0</ele><time>2026-04-18T09:56:35.976Z</time></trkpt><trkpt lat="44.13231584898487" lon="12.080939184367852"><ele>60.0</ele><time>2026-04-18T09:56:36.976Z</time></trkpt><trkpt lat="44.13218077517805" lon="12.080892401317492"><ele>61.0</ele><time>2026-04-18T09:56:37.976Z</time></trkpt><trkpt lat="44.13204208882042" lon="12.080837745332333"><ele>62.0</ele><time>2026-04-18T09:56:38.976Z</time></trkpt><trkpt lat="44.13191303537641" lon="12.08078462211312"><ele>62.0</ele><time>2026-04-18T09:56:39.976Z</time></trkpt><trkpt lat="44.13178575999876" lon="12.080727438712755"><ele>62.0</ele><time>2026-04-18T09:56:40.976Z</time></trkpt><trkpt lat="44.131672107587626" lon="12.080675124683543"><ele>62.0</ele><time>2026-04-18T09:56:41.976Z</time></trkpt><trkpt lat="44.131542969962126" lon="12.080628443586162"><ele>62.0</ele><time>2026-04-18T09:56:42.976Z</time></trkpt><trkpt lat="44.13141705445029" lon="12.08057489145094"><ele>62.0</ele><time>2026-04-18T09:56:43.976Z</time></trkpt><trkpt lat="44.13128666614292" lon="12.080525732512708"><ele>62.0</ele><time>2026-04-18T09:56:44.976Z</time></trkpt><trkpt lat="44.13116150285782" lon="12.080471735662366"><ele>62.0</ele><time>2026-04-18T09:56:45.976Z</time></trkpt><trkpt lat="44.13102606080632" lon="12.080420450403727"><ele>62.0</ele><time>2026-04-18T09:56:46.976Z</time></trkpt><trkpt lat="44.130893781167785" lon="12.080364322428306"><ele>62.0</ele><time>2026-04-18T09:56:47.976Z</time></trkpt><trkpt lat="44.13076339500092" lon="12.08030619775687"><ele>62.0</ele><time>2026-04-18T09:56:48.976Z</time></trkpt><trkpt lat="44.130632461609686" lon="12.080258388212236"><ele>62.0</ele><time>2026-04-18T09:56:49.976Z</time></trkpt><trkpt lat="44.130507708189754" lon="12.08020946138736"><ele>62.0</ele><time>2026-04-18T09:56:50.976Z</time></trkpt><trkpt lat="44.13038497297541" lon="12.08016869824152"><ele>62.8</ele><time>2026-04-18T09:56:51.976Z</time></trkpt><trkpt lat="44.130279757564054" lon="12.080114893797646"><ele>63.6</ele><time>2026-04-18T09:56:52.976Z</time></trkpt><trkpt lat="44.1301804419452" lon="12.080076006122692"><ele>64.39999999999999</ele><time>2026-04-18T09:56:53.976Z</time></trkpt><trkpt lat="44.13008263066669" lon="12.080039252894714"><ele>65.2</ele><time>2026-04-18T09:56:54.976Z</time></trkpt><trkpt lat="44.129976423900786" lon="12.080009248764505"><ele>66.0</ele><time>2026-04-18T09:56:55.976Z</time></trkpt><trkpt lat="44.12986750956194" lon="12.07998539948497"><ele>66.0</ele><time>2026-04-18T09:56:56.976Z</time></trkpt><trkpt lat="44.12976305310043" lon="12.079991448145368"><ele>66.0</ele><time>2026-04-18T09:56:57.976Z</time></trkpt><trkpt lat="44.12965982201094" lon="12.080028606614166"><ele>66.0</ele><time>2026-04-18T09:56:58.976Z</time></trkpt><trkpt lat="44.1295531910837" lon="12.080096136768773"><ele>66.0</ele><time>2026-04-18T09:56:59.976Z</time></trkpt><trkpt lat="44.12944937964724" lon="12.080173152470705"><ele>66.0</ele><time>2026-04-18T09:57:00.976Z</time></trkpt><trkpt lat="44.12935208827149" lon="12.080245045837263"><ele>66.0</ele><time>2026-04-18T09:57:01.976Z</time></trkpt><trkpt lat="44.12926282542996" lon="12.080305578944719"><ele>66.0</ele><time>2026-04-18T09:57:02.976Z</time></trkpt><trkpt lat="44.129173184157914" lon="12.080358785416577"><ele>66.0</ele><time>2026-04-18T09:57:03.976Z</time></trkpt><trkpt lat="44.129086655226544" lon="12.08039041956593"><ele>66.0</ele><time>2026-04-18T09:57:04.976Z</time></trkpt><trkpt lat="44.12899523680669" lon="12.080395229709081"><ele>66.0</ele><time>2026-04-18T09:57:05.976Z</time></trkpt><trkpt lat="44.128902914279415" lon="12.080353914618067"><ele>67.2</ele><time>2026-04-18T09:57:06.976Z</time></trkpt><trkpt lat="44.12882540602174" lon="12.080273522657507"><ele>68.39999999999999</ele><time>2026-04-18T09:57:07.976Z</time></trkpt><trkpt lat="44.12874974905843" lon="12.080181036760164"><ele>69.6</ele><time>2026-04-18T09:57:08.976Z</time></trkpt><trkpt lat="44.1286707864499" lon="12.080071908876217"><ele>70.8</ele><time>2026-04-18T09:57:09.976Z</time></trkpt><trkpt lat="44.12857090869138" lon="12.079958356502264"><ele>72.0</ele><time>2026-04-18T09:57:10.976Z</time></trkpt><trkpt lat="44.128484431143924" lon="12.079824287203218"><ele>72.0</ele><time>2026-04-18T09:57:11.976Z</time></trkpt><trkpt lat="44.12839230925724" lon="12.079684025993652"><ele>72.0</ele><time>2026-04-18T09:57:12.976Z</time></trkpt><trkpt lat="44.12830152149385" lon="12.079552911478812"><ele>72.0</ele><time>2026-04-18T09:57:13.975Z</time></trkpt><trkpt lat="44.12820536411317" lon="12.079416730903839"><ele>72.0</ele><time>2026-04-18T09:57:14.975Z</time></trkpt><trkpt lat="44.128119404893056" lon="12.079263641991876"><ele>73.25</ele><time>2026-04-18T09:57:15.975Z</time></trkpt><trkpt lat="44.12802822905911" lon="12.07913284766738"><ele>74.5</ele><time>2026-04-18T09:57:16.975Z</time></trkpt><trkpt lat="44.12794876109506" lon="12.079012084491012"><ele>75.75</ele><time>2026-04-18T09:57:17.975Z</time></trkpt><trkpt lat="44.127870078156434" lon="12.078891900910753"><ele>77.0</ele><time>2026-04-18T09:57:18.975Z</time></trkpt><trkpt lat="44.1277910480715" lon="12.078777374920124"><ele>77.0</ele><time>2026-04-18T09:57:19.975Z</time></trkpt><trkpt lat="44.12770940612427" lon="12.078654672037622"><ele>77.0</ele><time>2026-04-18T09:57:20.975Z</time></trkpt><trkpt lat="44.12763143806178" lon="12.07854193072856"><ele>77.0</ele><time>2026-04-18T09:57:21.975Z</time></trkpt><trkpt lat="44.127553972722446" lon="12.078437022771153"><ele>77.0</ele><time>2026-04-18T09:57:22.975Z</time></trkpt><trkpt lat="44.12748549519363" lon="12.078330216050118"><ele>77.0</ele><time>2026-04-18T09:57:23.975Z</time></trkpt><trkpt lat="44.12739978724736" lon="12.078232223170378"><ele>77.8</ele><time>2026-04-18T09:57:24.975Z</time></trkpt><trkpt lat="44.12731143412241" lon="12.078145591629742"><ele>78.6</ele><time>2026-04-18T09:57:25.975Z</time></trkpt><trkpt lat="44.12721745308423" lon="12.078078533948005"><ele>79.39999999999999</ele><time>2026-04-18T09:57:26.975Z</time></trkpt><trkpt lat="44.12711698782248" lon="12.078040705024069"><ele>80.2</ele><time>2026-04-18T09:57:27.975Z</time></trkpt><trkpt lat="44.127001470957126" lon="12.0779969108605"><ele>81.0</ele><time>2026-04-18T09:57:28.975Z</time></trkpt><trkpt lat="44.126890615437" lon="12.077951607438704"><ele>81.0</ele><time>2026-04-18T09:57:29.975Z</time></trkpt><trkpt lat="44.12676793553378" lon="12.077900072744814"><ele>81.0</ele><time>2026-04-18T09:57:30.975Z</time></trkpt><trkpt lat="44.12665127941068" lon="12.077857352882546"><ele>81.0</ele><time>2026-04-18T09:57:31.975Z</time></trkpt><trkpt lat="44.12652846853595" lon="12.077813384649202"><ele>81.0</ele><time>2026-04-18T09:57:32.975Z</time></trkpt><trkpt lat="44.12641050705966" lon="12.077761808521144"><ele>82.0</ele><time>2026-04-18T09:57:33.975Z</time></trkpt><trkpt lat="44.12629945815642" lon="12.077712942363798"><ele>83.0</ele><time>2026-04-18T09:57:34.975Z</time></trkpt><trkpt lat="44.1261995460792" lon="12.077671002783928"><ele>84.0</ele><time>2026-04-18T09:57:35.975Z</time></trkpt><trkpt lat="44.12609353264035" lon="12.077627700202825"><ele>85.0</ele><time>2026-04-18T09:57:36.975Z</time></trkpt><trkpt lat="44.1259885747387" lon="12.077590498788165"><ele>86.0</ele><time>2026-04-18T09:57:37.976Z</time></trkpt><trkpt lat="44.125889249815735" lon="12.077537693825734"><ele>86.0</ele><time>2026-04-18T09:57:38.976Z</time></trkpt><trkpt lat="44.12578519499286" lon="12.07749926811132"><ele>86.0</ele><time>2026-04-18T09:57:39.975Z</time></trkpt><trkpt lat="44.125689663249936" lon="12.077457535059642"><ele>86.0</ele><time>2026-04-18T09:57:40.976Z</time></trkpt><trkpt lat="44.12559446701356" lon="12.077411470830587"><ele>86.0</ele><time>2026-04-18T09:57:41.976Z</time></trkpt><trkpt lat="44.12549769704379" lon="12.077369774996633"><ele>86.0</ele><time>2026-04-18T09:57:42.976Z</time></trkpt><trkpt lat="44.125396630906934" lon="12.077324245984315"><ele>85.16666666666667</ele><time>2026-04-18T09:57:43.976Z</time></trkpt><trkpt lat="44.12530281021252" lon="12.077279269725079"><ele>84.33333333333334</ele><time>2026-04-18T09:57:44.975Z</time></trkpt><trkpt lat="44.12520657977653" lon="12.077244111914391"><ele>83.5</ele><time>2026-04-18T09:57:45.976Z</time></trkpt><trkpt lat="44.12512204456687" lon="12.077210114862002"><ele>82.66666666666667</ele><time>2026-04-18T09:57:46.975Z</time></trkpt><trkpt lat="44.125049087526875" lon="12.077178781481095"><ele>81.83333333333333</ele><time>2026-04-18T09:57:47.975Z</time></trkpt><trkpt lat="44.124978077876754" lon="12.077143193183677"><ele>81.0</ele><time>2026-04-18T09:57:48.976Z</time></trkpt><trkpt lat="44.12492409480408" lon="12.077094971626458"><ele>82.0</ele><time>2026-04-18T09:57:49.976Z</time></trkpt><trkpt lat="44.1248301734136" lon="12.076987265565977"><ele>83.0</ele><time>2026-04-18T09:57:51.976Z</time></trkpt><trkpt lat="44.12477973227814" lon="12.076903204268925"><ele>84.0</ele><time>2026-04-18T09:57:52.976Z</time></trkpt><trkpt lat="44.12473422801631" lon="12.07680014777179"><ele>85.0</ele><time>2026-04-18T09:57:53.976Z</time></trkpt><trkpt lat="44.12469098557257" lon="12.07667720766795"><ele>86.0</ele><time>2026-04-18T09:57:54.976Z</time></trkpt><trkpt lat="44.12466962865447" lon="12.076528357523129"><ele>86.0</ele><time>2026-04-18T09:57:55.976Z</time></trkpt><trkpt lat="44.12462205261856" lon="12.076376882283503"><ele>86.0</ele><time>2026-04-18T09:57:56.976Z</time></trkpt><trkpt lat="44.12458274487453" lon="12.076219275575774"><ele>86.0</ele><time>2026-04-18T09:57:57.976Z</time></trkpt><trkpt lat="44.1245404930131" lon="12.07605922033888"><ele>86.0</ele><time>2026-04-18T09:57:58.976Z</time></trkpt><trkpt lat="44.12450162863824" lon="12.075892800174444"><ele>84.5</ele><time>2026-04-18T09:57:59.976Z</time></trkpt><trkpt lat="44.12445194570993" lon="12.07569492286232"><ele>83.0</ele><time>2026-04-18T09:58:00.976Z</time></trkpt><trkpt lat="44.12440395510097" lon="12.075500206743463"><ele>81.5</ele><time>2026-04-18T09:58:01.976Z</time></trkpt><trkpt lat="44.124361463328846" lon="12.075319079920519"><ele>80.0</ele><time>2026-04-18T09:58:02.976Z</time></trkpt><trkpt lat="44.124318479980836" lon="12.075156277338456"><ele>80.0</ele><time>2026-04-18T09:58:03.976Z</time></trkpt><trkpt lat="44.12427678820099" lon="12.075008244919424"><ele>80.0</ele><time>2026-04-18T09:58:04.976Z</time></trkpt><trkpt lat="44.12423726160072" lon="12.074863250293415"><ele>80.0</ele><time>2026-04-18T09:58:05.976Z</time></trkpt><trkpt lat="44.12419113442265" lon="12.074697729940068"><ele>80.0</ele><time>2026-04-18T09:58:06.976Z</time></trkpt><trkpt lat="44.12414766259043" lon="12.074539961158308"><ele>80.0</ele><time>2026-04-18T09:58:07.976Z</time></trkpt><trkpt lat="44.124121042386065" lon="12.074347658731998"><ele>80.0</ele><time>2026-04-18T09:58:08.976Z</time></trkpt><trkpt lat="44.12407565238885" lon="12.074177420791301"><ele>80.0</ele><time>2026-04-18T09:58:09.976Z</time></trkpt><trkpt lat="44.1240312658036" lon="12.074009163591894"><ele>80.0</ele><time>2026-04-18T09:58:10.976Z</time></trkpt><trkpt lat="44.123982631072195" lon="12.073838133151932"><ele>80.0</ele><time>2026-04-18T09:58:11.976Z</time></trkpt><trkpt lat="44.123935251981" lon="12.073664651220591"><ele>80.0</ele><time>2026-04-18T09:58:12.976Z</time></trkpt><trkpt lat="44.12388880776486" lon="12.073493503206974"><ele>80.0</ele><time>2026-04-18T09:58:13.976Z</time></trkpt><trkpt lat="44.123840998120016" lon="12.073330488319028"><ele>80.0</ele><time>2026-04-18T09:58:14.976Z</time></trkpt><trkpt lat="44.12380479795305" lon="12.073185653996294"><ele>78.25</ele><time>2026-04-18T09:58:15.976Z</time></trkpt><trkpt lat="44.123769511329165" lon="12.073038700923657"><ele>76.5</ele><time>2026-04-18T09:58:16.976Z</time></trkpt><trkpt lat="44.123730107064986" lon="12.072901274740492"><ele>74.75</ele><time>2026-04-18T09:58:17.976Z</time></trkpt><trkpt lat="44.123689469111184" lon="12.072747210796745"><ele>73.0</ele><time>2026-04-18T09:58:18.976Z</time></trkpt><trkpt lat="44.12364581019201" lon="12.072590103831953"><ele>73.0</ele><time>2026-04-18T09:58:19.976Z</time></trkpt><trkpt lat="44.12360790193961" lon="12.072445623873955"><ele>73.0</ele><time>2026-04-18T09:58:20.976Z</time></trkpt><trkpt lat="44.123571674789694" lon="12.072298409216064"><ele>73.0</ele><time>2026-04-18T09:58:21.976Z</time></trkpt><trkpt lat="44.12353152150761" lon="12.072156611957212"><ele>73.0</ele><time>2026-04-18T09:58:22.976Z</time></trkpt><trkpt lat="44.123488517911525" lon="12.072009490695503"><ele>73.0</ele><time>2026-04-18T09:58:23.976Z</time></trkpt><trkpt lat="44.12344579074119" lon="12.071847248378646"><ele>72.25</ele><time>2026-04-18T09:58:24.976Z</time></trkpt><trkpt lat="44.123400106270886" lon="12.07167816995252"><ele>71.5</ele><time>2026-04-18T09:58:25.976Z</time></trkpt><trkpt lat="44.12334981493236" lon="12.071483615924793"><ele>70.75</ele><time>2026-04-18T09:58:26.976Z</time></trkpt><trkpt lat="44.123302505745656" lon="12.071290377966754"><ele>70.0</ele><time>2026-04-18T09:58:27.976Z</time></trkpt><trkpt lat="44.12325592963446" lon="12.071104739040484"><ele>70.0</ele><time>2026-04-18T09:58:28.976Z</time></trkpt><trkpt lat="44.123204987211984" lon="12.070916479832476"><ele>70.0</ele><time>2026-04-18T09:58:29.976Z</time></trkpt><trkpt lat="44.12315401383226" lon="12.070731242713082"><ele>70.0</ele><time>2026-04-18T09:58:30.976Z</time></trkpt><trkpt lat="44.123103659031365" lon="12.070545835730668"><ele>70.0</ele><time>2026-04-18T09:58:31.976Z</time></trkpt><trkpt lat="44.123058662807885" lon="12.070359547030556"><ele>68.75</ele><time>2026-04-18T09:58:32.976Z</time></trkpt><trkpt lat="44.12301226947601" lon="12.070177171050373"><ele>67.5</ele><time>2026-04-18T09:58:33.975Z</time></trkpt><trkpt lat="44.12296412466992" lon="12.070008465281244"><ele>66.25</ele><time>2026-04-18T09:58:34.975Z</time></trkpt><trkpt lat="44.12291830539027" lon="12.06983036024819"><ele>65.0</ele><time>2026-04-18T09:58:35.975Z</time></trkpt><trkpt lat="44.122879477170194" lon="12.069649882081976"><ele>64.75</ele><time>2026-04-18T09:58:36.975Z</time></trkpt><trkpt lat="44.122822894347664" lon="12.069463065495498"><ele>64.5</ele><time>2026-04-18T09:58:37.975Z</time></trkpt><trkpt lat="44.12278770703288" lon="12.069259323534334"><ele>64.25</ele><time>2026-04-18T09:58:38.975Z</time></trkpt><trkpt lat="44.12274235442493" lon="12.069081928733565"><ele>64.0</ele><time>2026-04-18T09:58:39.975Z</time></trkpt><trkpt lat="44.12269494799402" lon="12.06889650128048"><ele>63.75</ele><time>2026-04-18T09:58:40.975Z</time></trkpt><trkpt lat="44.12263663890269" lon="12.068720640722415"><ele>63.5</ele><time>2026-04-18T09:58:41.975Z</time></trkpt><trkpt lat="44.12258887512677" lon="12.06854022101377"><ele>63.25</ele><time>2026-04-18T09:58:42.975Z</time></trkpt><trkpt lat="44.12254032087395" lon="12.068369539991943"><ele>63.0</ele><time>2026-04-18T09:58:43.975Z</time></trkpt><trkpt lat="44.122510215746246" lon="12.068188046485965"><ele>63.0</ele><time>2026-04-18T09:58:44.975Z</time></trkpt><trkpt lat="44.122464616023315" lon="12.068014741964978"><ele>63.0</ele><time>2026-04-18T09:58:45.975Z</time></trkpt><trkpt lat="44.12241568854013" lon="12.067843210042392"><ele>63.0</ele><time>2026-04-18T09:58:46.975Z</time></trkpt><trkpt lat="44.12236547679655" lon="12.067678176364995"><ele>63.0</ele><time>2026-04-18T09:58:47.975Z</time></trkpt><trkpt lat="44.122326370011756" lon="12.067522859921516"><ele>62.75</ele><time>2026-04-18T09:58:48.975Z</time></trkpt><trkpt lat="44.122278520599124" lon="12.06735829761434"><ele>62.5</ele><time>2026-04-18T09:58:49.975Z</time></trkpt><trkpt lat="44.122237618515015" lon="12.067173533564578"><ele>62.25</ele><time>2026-04-18T09:58:50.975Z</time></trkpt><trkpt lat="44.12219329785612" lon="12.06700159280304"><ele>62.0</ele><time>2026-04-18T09:58:51.975Z</time></trkpt><trkpt lat="44.12215138741055" lon="12.066831319969792"><ele>62.0</ele><time>2026-04-18T09:58:52.975Z</time></trkpt><trkpt lat="44.12210306565571" lon="12.06664944043209"><ele>62.0</ele><time>2026-04-18T09:58:53.975Z</time></trkpt><trkpt lat="44.122053189857034" lon="12.066486449278292"><ele>62.0</ele><time>2026-04-18T09:58:54.975Z</time></trkpt><trkpt lat="44.12200999496861" lon="12.066321071212625"><ele>62.0</ele><time>2026-04-18T09:58:55.975Z</time></trkpt><trkpt lat="44.12197900284984" lon="12.066149938888413"><ele>61.8</ele><time>2026-04-18T09:58:56.975Z</time></trkpt><trkpt lat="44.121937184805454" lon="12.065995539615754"><ele>61.6</ele><time>2026-04-18T09:58:57.975Z</time></trkpt><trkpt lat="44.12189898388004" lon="12.06584399810125"><ele>61.39999999999999</ele><time>2026-04-18T09:58:58.975Z</time></trkpt><trkpt lat="44.12186016545489" lon="12.06570423671653"><ele>61.199999999999996</ele><time>2026-04-18T09:58:59.975Z</time></trkpt><trkpt lat="44.12183694807277" lon="12.065563164707864"><ele>61.0</ele><time>2026-04-18T09:59:00.975Z</time></trkpt><trkpt lat="44.12180212885032" lon="12.065432795497193"><ele>60.199999999999996</ele><time>2026-04-18T09:59:01.975Z</time></trkpt><trkpt lat="44.121759633925876" lon="12.065299502083654"><ele>59.39999999999999</ele><time>2026-04-18T09:59:02.975Z</time></trkpt><trkpt lat="44.121717775922576" lon="12.065169467825687"><ele>58.6</ele><time>2026-04-18T09:59:03.975Z</time></trkpt><trkpt lat="44.12168211422102" lon="12.065028618977895"><ele>57.8</ele><time>2026-04-18T09:59:04.975Z</time></trkpt><trkpt lat="44.12164903364437" lon="12.06488706610393"><ele>57.0</ele><time>2026-04-18T09:59:05.975Z</time></trkpt><trkpt lat="44.12160901441283" lon="12.064748937064204"><ele>56.8</ele><time>2026-04-18T09:59:06.975Z</time></trkpt><trkpt lat="44.12157373034781" lon="12.064611922811244"><ele>56.6</ele><time>2026-04-18T09:59:07.975Z</time></trkpt><trkpt lat="44.121534728923365" lon="12.064475406622522"><ele>56.39999999999999</ele><time>2026-04-18T09:59:08.975Z</time></trkpt><trkpt lat="44.12149112778065" lon="12.064335618759435"><ele>56.199999999999996</ele><time>2026-04-18T09:59:09.975Z</time></trkpt><trkpt lat="44.12146893403144" lon="12.064189878398947"><ele>56.0</ele><time>2026-04-18T09:59:10.975Z</time></trkpt><trkpt lat="44.12141579888561" lon="12.064051532017256"><ele>57.4</ele><time>2026-04-18T09:59:11.975Z</time></trkpt><trkpt lat="44.12137994493844" lon="12.063904831545116"><ele>58.8</ele><time>2026-04-18T09:59:12.975Z</time></trkpt><trkpt lat="44.121343839852656" lon="12.06376070875999"><ele>60.199999999999996</ele><time>2026-04-18T09:59:13.975Z</time></trkpt><trkpt lat="44.12131042719099" lon="12.063619406547618"><ele>61.599999999999994</ele><time>2026-04-18T09:59:14.975Z</time></trkpt><trkpt lat="44.12127766406782" lon="12.063480293674866"><ele>63.0</ele><time>2026-04-18T09:59:15.975Z</time></trkpt><trkpt lat="44.1212424363853" lon="12.063341233462134"><ele>62.2</ele><time>2026-04-18T09:59:16.975Z</time></trkpt><trkpt lat="44.1212142473118" lon="12.063207093899948"><ele>61.4</ele><time>2026-04-18T09:59:17.975Z</time></trkpt><trkpt lat="44.121176033123454" lon="12.063077116205443"><ele>60.60000000000001</ele><time>2026-04-18T09:59:18.975Z</time></trkpt><trkpt lat="44.12115092714982" lon="12.06294404114782"><ele>59.800000000000004</ele><time>2026-04-18T09:59:19.975Z</time></trkpt><trkpt lat="44.12111408268576" lon="12.062809259526704"><ele>59.0</ele><time>2026-04-18T09:59:20.975Z</time></trkpt><trkpt lat="44.121079716703086" lon="12.062694466253571"><ele>59.00000000000001</ele><time>2026-04-18T09:59:21.975Z</time></trkpt><trkpt lat="44.121053649760675" lon="12.062565074728184"><ele>59.0</ele><time>2026-04-18T09:59:22.975Z</time></trkpt><trkpt lat="44.121024142461714" lon="12.06246118994507"><ele>59.0</ele><time>2026-04-18T09:59:23.975Z</time></trkpt><trkpt lat="44.12099783170741" lon="12.062367200384436"><ele>59.0</ele><time>2026-04-18T09:59:24.975Z</time></trkpt><trkpt lat="44.120977447733424" lon="12.062275617252437"><ele>59.00000000000001</ele><time>2026-04-18T09:59:25.975Z</time></trkpt><trkpt lat="44.12092309986891" lon="12.06215471035039"><ele>59.0</ele><time>2026-04-18T09:59:27.975Z</time></trkpt><trkpt lat="44.120786582756566" lon="12.062164174455646"><ele>58.6</ele><time>2026-04-18T09:59:37.975Z</time></trkpt><trkpt lat="44.1206807792973" lon="12.06231195820851"><ele>58.2</ele><time>2026-04-18T09:59:39.975Z</time></trkpt><trkpt lat="44.12061014581506" lon="12.062368736201709"><ele>57.800000000000004</ele><time>2026-04-18T09:59:40.975Z</time></trkpt><trkpt lat="44.12055166921219" lon="12.062460106773006"><ele>57.400000000000006</ele><time>2026-04-18T09:59:41.975Z</time></trkpt><trkpt lat="44.120471688282926" lon="12.062532614794756"><ele>57.0</ele><time>2026-04-18T09:59:42.976Z</time></trkpt><trkpt lat="44.12039203758938" lon="12.062617615434256"><ele>57.0</ele><time>2026-04-18T09:59:43.975Z</time></trkpt><trkpt lat="44.120311611452735" lon="12.062706610583174"><ele>57.0</ele><time>2026-04-18T09:59:44.975Z</time></trkpt><trkpt lat="44.120240566392944" lon="12.062774236233638"><ele>57.0</ele><time>2026-04-18T09:59:45.976Z</time></trkpt><trkpt lat="44.12016698985578" lon="12.062859070059401"><ele>57.0</ele><time>2026-04-18T09:59:46.975Z</time></trkpt><trkpt lat="44.12009660413001" lon="12.062946336217033"><ele>57.0</ele><time>2026-04-18T09:59:47.975Z</time></trkpt><trkpt lat="44.12002880666276" lon="12.063027613517475"><ele>57.0</ele><time>2026-04-18T09:59:48.975Z</time></trkpt><trkpt lat="44.119976825287715" lon="12.06311575884058"><ele>57.0</ele><time>2026-04-18T09:59:49.975Z</time></trkpt><trkpt lat="44.11992416897777" lon="12.063219294881769"><ele>57.0</ele><time>2026-04-18T09:59:50.975Z</time></trkpt><trkpt lat="44.11988191307014" lon="12.063336355283885"><ele>57.0</ele><time>2026-04-18T09:59:51.975Z</time></trkpt><trkpt lat="44.119823167142954" lon="12.063471460735615"><ele>57.0</ele><time>2026-04-18T09:59:52.975Z</time></trkpt><trkpt lat="44.11977688323587" lon="12.06361000766681"><ele>57.25</ele><time>2026-04-18T09:59:53.975Z</time></trkpt><trkpt lat="44.11973014186735" lon="12.063754332475009"><ele>57.5</ele><time>2026-04-18T09:59:54.976Z</time></trkpt><trkpt lat="44.11968557944656" lon="12.063897031140055"><ele>57.75</ele><time>2026-04-18T09:59:55.976Z</time></trkpt><trkpt lat="44.11964290226644" lon="12.064039840464988"><ele>58.0</ele><time>2026-04-18T09:59:56.976Z</time></trkpt><trkpt lat="44.11959662476772" lon="12.06418594500404"><ele>58.0</ele><time>2026-04-18T09:59:57.976Z</time></trkpt><trkpt lat="44.119555542653735" lon="12.064325783486371"><ele>58.0</ele><time>2026-04-18T09:59:58.976Z</time></trkpt><trkpt lat="44.1195098793671" lon="12.064464136076523"><ele>58.0</ele><time>2026-04-18T09:59:59.976Z</time></trkpt><trkpt lat="44.119464908587844" lon="12.064608446487279"><ele>58.0</ele><time>2026-04-18T10:00:00.976Z</time></trkpt><trkpt lat="44.11941730123041" lon="12.064752650261456"><ele>58.0</ele><time>2026-04-18T10:00:01.976Z</time></trkpt><trkpt lat="44.1193714935142" lon="12.064904349053098"><ele>58.5</ele><time>2026-04-18T10:00:02.976Z</time></trkpt><trkpt lat="44.119327270083" lon="12.065066617511897"><ele>59.0</ele><time>2026-04-18T10:00:03.976Z</time></trkpt><trkpt lat="44.11928151296814" lon="12.065226447836704"><ele>59.5</ele><time>2026-04-18T10:00:04.976Z</time></trkpt><trkpt lat="44.1192247242795" lon="12.06538173251482"><ele>60.0</ele><time>2026-04-18T10:00:05.976Z</time></trkpt><trkpt lat="44.1191880535204" lon="12.065538963329686"><ele>60.0</ele><time>2026-04-18T10:00:06.976Z</time></trkpt><trkpt lat="44.11914062064102" lon="12.065700745552013"><ele>60.0</ele><time>2026-04-18T10:00:07.976Z</time></trkpt><trkpt lat="44.119086746330815" lon="12.065863352902344"><ele>60.0</ele><time>2026-04-18T10:00:08.975Z</time></trkpt><trkpt lat="44.11903404710263" lon="12.06601924438666"><ele>60.0</ele><time>2026-04-18T10:00:09.975Z</time></trkpt><trkpt lat="44.11898457708449" lon="12.06618087291905"><ele>60.0</ele><time>2026-04-18T10:00:10.975Z</time></trkpt><trkpt lat="44.11893857025181" lon="12.066337195857324"><ele>60.0</ele><time>2026-04-18T10:00:11.975Z</time></trkpt><trkpt lat="44.11888105955493" lon="12.066491122948825"><ele>60.0</ele><time>2026-04-18T10:00:12.975Z</time></trkpt><trkpt lat="44.1188282571119" lon="12.066642185466971"><ele>60.0</ele><time>2026-04-18T10:00:13.975Z</time></trkpt><trkpt lat="44.11876565806657" lon="12.066792646849656"><ele>60.0</ele><time>2026-04-18T10:00:14.975Z</time></trkpt><trkpt lat="44.11869772028639" lon="12.066956949816104"><ele>60.0</ele><time>2026-04-18T10:00:15.975Z</time></trkpt><trkpt lat="44.11863920836392" lon="12.067095201357446"><ele>60.0</ele><time>2026-04-18T10:00:16.975Z</time></trkpt><trkpt lat="44.11855932120901" lon="12.067209345012833"><ele>60.0</ele><time>2026-04-18T10:00:17.975Z</time></trkpt><trkpt lat="44.11848012487575" lon="12.067323805041688"><ele>60.0</ele><time>2026-04-18T10:00:18.975Z</time></trkpt><trkpt lat="44.11839881556202" lon="12.067428156421556"><ele>60.0</ele><time>2026-04-18T10:00:19.975Z</time></trkpt><trkpt lat="44.11830813919231" lon="12.06754648701669"><ele>60.0</ele><time>2026-04-18T10:00:20.975Z</time></trkpt><trkpt lat="44.11819517017873" lon="12.067631949592554"><ele>60.0</ele><time>2026-04-18T10:00:21.975Z</time></trkpt><trkpt lat="44.11808226235703" lon="12.067736898562542"><ele>60.25</ele><time>2026-04-18T10:00:22.975Z</time></trkpt><trkpt lat="44.117971763533056" lon="12.067835531665242"><ele>60.5</ele><time>2026-04-18T10:00:23.975Z</time></trkpt><trkpt lat="44.11785215026189" lon="12.067927340383795"><ele>60.75</ele><time>2026-04-18T10:00:24.975Z</time></trkpt><trkpt lat="44.117735172765165" lon="12.068015233898194"><ele>61.0</ele><time>2026-04-18T10:00:25.975Z</time></trkpt><trkpt lat="44.11761488555431" lon="12.068075729798014"><ele>61.0</ele><time>2026-04-18T10:00:26.975Z</time></trkpt><trkpt lat="44.117497662488525" lon="12.06815897572434"><ele>61.0</ele><time>2026-04-18T10:00:27.975Z</time></trkpt><trkpt lat="44.117392819384136" lon="12.068239690451698"><ele>61.0</ele><time>2026-04-18T10:00:28.975Z</time></trkpt><trkpt lat="44.117276068155775" lon="12.068317738296681"><ele>61.0</ele><time>2026-04-18T10:00:29.975Z</time></trkpt><trkpt lat="44.11715902426227" lon="12.068403354625827"><ele>62.0</ele><time>2026-04-18T10:00:30.975Z</time></trkpt><trkpt lat="44.1170567253881" lon="12.068505418123909"><ele>63.0</ele><time>2026-04-18T10:00:31.975Z</time></trkpt><trkpt lat="44.116936950451255" lon="12.068589496313425"><ele>64.0</ele><time>2026-04-18T10:00:32.975Z</time></trkpt><trkpt lat="44.11683246691488" lon="12.06865033583267"><ele>65.0</ele><time>2026-04-18T10:00:33.975Z</time></trkpt><trkpt lat="44.116722777935195" lon="12.068732618819457"><ele>65.0</ele><time>2026-04-18T10:00:34.975Z</time></trkpt><trkpt lat="44.11660100273032" lon="12.068807964878422"><ele>65.0</ele><time>2026-04-18T10:00:35.975Z</time></trkpt><trkpt lat="44.11648488096087" lon="12.068870122463279"><ele>65.0</ele><time>2026-04-18T10:00:36.975Z</time></trkpt><trkpt lat="44.11636816199838" lon="12.068939853735692"><ele>65.0</ele><time>2026-04-18T10:00:37.975Z</time></trkpt><trkpt lat="44.11625451235814" lon="12.069014635568275"><ele>64.75</ele><time>2026-04-18T10:00:38.975Z</time></trkpt><trkpt lat="44.116135295354276" lon="12.069087295954937"><ele>64.5</ele><time>2026-04-18T10:00:39.975Z</time></trkpt><trkpt lat="44.11602000242799" lon="12.069162433661187"><ele>64.25</ele><time>2026-04-18T10:00:40.975Z</time></trkpt><trkpt lat="44.11590602411266" lon="12.069231874309109"><ele>64.0</ele><time>2026-04-18T10:00:41.975Z</time></trkpt><trkpt lat="44.11578972018096" lon="12.069287586390363"><ele>66.25</ele><time>2026-04-18T10:00:42.975Z</time></trkpt><trkpt lat="44.11567801651803" lon="12.069307072936967"><ele>68.5</ele><time>2026-04-18T10:00:43.975Z</time></trkpt><trkpt lat="44.115567235638494" lon="12.069337416400368"><ele>70.75</ele><time>2026-04-18T10:00:44.975Z</time></trkpt><trkpt lat="44.11545982672592" lon="12.06936806014803"><ele>73.0</ele><time>2026-04-18T10:00:45.975Z</time></trkpt><trkpt lat="44.11534601031772" lon="12.069414371793707"><ele>73.0</ele><time>2026-04-18T10:00:46.975Z</time></trkpt><trkpt lat="44.11523526342509" lon="12.069470599454178"><ele>73.0</ele><time>2026-04-18T10:00:47.975Z</time></trkpt><trkpt lat="44.1151265950821" lon="12.069555516197072"><ele>73.0</ele><time>2026-04-18T10:00:48.975Z</time></trkpt><trkpt lat="44.115007269108965" lon="12.06963427591355"><ele>73.0</ele><time>2026-04-18T10:00:49.975Z</time></trkpt><trkpt lat="44.11489841520595" lon="12.0697225159286"><ele>73.6</ele><time>2026-04-18T10:00:50.975Z</time></trkpt><trkpt lat="44.1148009731051" lon="12.069802289669905"><ele>74.19999999999999</ele><time>2026-04-18T10:00:51.975Z</time></trkpt><trkpt lat="44.11470377885081" lon="12.069870018620712"><ele>74.8</ele><time>2026-04-18T10:00:52.975Z</time></trkpt><trkpt lat="44.1146195352979" lon="12.06993071105311"><ele>75.39999999999999</ele><time>2026-04-18T10:00:53.975Z</time></trkpt><trkpt lat="44.114538993463675" lon="12.069983858785614"><ele>76.0</ele><time>2026-04-18T10:00:54.975Z</time></trkpt><trkpt lat="44.11445427849372" lon="12.070050550789794"><ele>78.19999999999999</ele><time>2026-04-18T10:00:55.975Z</time></trkpt><trkpt lat="44.11437402768986" lon="12.070110104342987"><ele>80.39999999999999</ele><time>2026-04-18T10:00:56.975Z</time></trkpt><trkpt lat="44.11429010476641" lon="12.070161148728696"><ele>82.6</ele><time>2026-04-18T10:00:57.975Z</time></trkpt><trkpt lat="44.11420140570338" lon="12.070230429757977"><ele>84.8</ele><time>2026-04-18T10:00:58.975Z</time></trkpt><trkpt lat="44.1141113695981" lon="12.070306796043075"><ele>87.0</ele><time>2026-04-18T10:00:59.975Z</time></trkpt><trkpt lat="44.114019025476544" lon="12.070374187567257"><ele>87.0</ele><time>2026-04-18T10:01:00.975Z</time></trkpt><trkpt lat="44.113918574693045" lon="12.070437450034701"><ele>87.0</ele><time>2026-04-18T10:01:01.975Z</time></trkpt><trkpt lat="44.11382750912058" lon="12.070498991802845"><ele>87.0</ele><time>2026-04-18T10:01:02.975Z</time></trkpt><trkpt lat="44.11373989336595" lon="12.070544035566858"><ele>87.0</ele><time>2026-04-18T10:01:03.975Z</time></trkpt><trkpt lat="44.113637877942374" lon="12.070584222570373"><ele>87.0</ele><time>2026-04-18T10:01:04.975Z</time></trkpt><trkpt lat="44.113523965348" lon="12.0706334390467"><ele>87.0</ele><time>2026-04-18T10:01:05.975Z</time></trkpt><trkpt lat="44.11340945718763" lon="12.070652994353129"><ele>87.0</ele><time>2026-04-18T10:01:06.975Z</time></trkpt><trkpt lat="44.11328812074526" lon="12.070685881063755"><ele>87.0</ele><time>2026-04-18T10:01:07.975Z</time></trkpt><trkpt lat="44.11316404043441" lon="12.070688111221687"><ele>87.0</ele><time>2026-04-18T10:01:08.975Z</time></trkpt><trkpt lat="44.113045774454235" lon="12.07068601375562"><ele>87.0</ele><time>2026-04-18T10:01:09.975Z</time></trkpt><trkpt lat="44.11291978148004" lon="12.070659756130338"><ele>87.0</ele><time>2026-04-18T10:01:10.975Z</time></trkpt><trkpt lat="44.112797924586985" lon="12.070639209734821"><ele>87.0</ele><time>2026-04-18T10:01:11.975Z</time></trkpt><trkpt lat="44.11268940402617" lon="12.070621483772559"><ele>87.0</ele><time>2026-04-18T10:01:12.975Z</time></trkpt><trkpt lat="44.11258091461384" lon="12.070600238329604"><ele>87.0</ele><time>2026-04-18T10:01:13.975Z</time></trkpt><trkpt lat="44.11247740699082" lon="12.070592331308992"><ele>87.0</ele><time>2026-04-18T10:01:14.975Z</time></trkpt><trkpt lat="44.11237553725388" lon="12.070589768436392"><ele>87.0</ele><time>2026-04-18T10:01:15.975Z</time></trkpt><trkpt lat="44.112277185768384" lon="12.070605086948675"><ele>87.0</ele><time>2026-04-18T10:01:16.975Z</time></trkpt><trkpt lat="44.112167718490475" lon="12.070634850137639"><ele>87.0</ele><time>2026-04-18T10:01:17.975Z</time></trkpt><trkpt lat="44.11206457670465" lon="12.07067432093184"><ele>87.19999999999999</ele><time>2026-04-18T10:01:18.975Z</time></trkpt><trkpt lat="44.11195200747159" lon="12.070697972893099"><ele>87.4</ele><time>2026-04-18T10:01:19.975Z</time></trkpt><trkpt lat="44.11184273926119" lon="12.070710129455069"><ele>87.6</ele><time>2026-04-18T10:01:20.975Z</time></trkpt><trkpt lat="44.111728299024534" lon="12.070726363638299"><ele>87.80000000000001</ele><time>2026-04-18T10:01:21.975Z</time></trkpt><trkpt lat="44.11162821242506" lon="12.070737594039086"><ele>88.0</ele><time>2026-04-18T10:01:22.975Z</time></trkpt><trkpt lat="44.111540320911196" lon="12.070738593812951"><ele>88.0</ele><time>2026-04-18T10:01:23.975Z</time></trkpt><trkpt lat="44.11145969231352" lon="12.070747389853802"><ele>88.0</ele><time>2026-04-18T10:01:24.975Z</time></trkpt><trkpt lat="44.11137265129508" lon="12.07076182786034"><ele>88.0</ele><time>2026-04-18T10:01:25.975Z</time></trkpt><trkpt lat="44.111286133910106" lon="12.07079900422092"><ele>88.0</ele><time>2026-04-18T10:01:26.975Z</time></trkpt><trkpt lat="44.111194488228605" lon="12.07086100928814"><ele>88.0</ele><time>2026-04-18T10:01:27.975Z</time></trkpt><trkpt lat="44.11112250285821" lon="12.070934562867722"><ele>90.2</ele><time>2026-04-18T10:01:28.975Z</time></trkpt><trkpt lat="44.11106413971808" lon="12.071019275245908"><ele>92.4</ele><time>2026-04-18T10:01:29.975Z</time></trkpt><trkpt lat="44.11100295393955" lon="12.071123527438266"><ele>94.60000000000001</ele><time>2026-04-18T10:01:30.975Z</time></trkpt><trkpt lat="44.11093359250871" lon="12.071243680970587"><ele>96.80000000000001</ele><time>2026-04-18T10:01:31.975Z</time></trkpt><trkpt lat="44.11085924011969" lon="12.071364014556801"><ele>99.0</ele><time>2026-04-18T10:01:32.975Z</time></trkpt><trkpt lat="44.11077672370111" lon="12.071475684346526"><ele>100.0</ele><time>2026-04-18T10:01:33.975Z</time></trkpt><trkpt lat="44.110701337003846" lon="12.071577921102508"><ele>101.0</ele><time>2026-04-18T10:01:34.975Z</time></trkpt><trkpt lat="44.110621299436254" lon="12.071678687790298"><ele>102.0</ele><time>2026-04-18T10:01:35.975Z</time></trkpt><trkpt lat="44.110544165293994" lon="12.071768949345762"><ele>103.0</ele><time>2026-04-18T10:01:36.975Z</time></trkpt><trkpt lat="44.1104537618641" lon="12.071847382877813"><ele>104.0</ele><time>2026-04-18T10:01:37.975Z</time></trkpt><trkpt lat="44.11036251369494" lon="12.071929352406476"><ele>104.0</ele><time>2026-04-18T10:01:38.975Z</time></trkpt><trkpt lat="44.1102713077802" lon="12.072026538935994"><ele>104.0</ele><time>2026-04-18T10:01:39.975Z</time></trkpt><trkpt lat="44.110177721280685" lon="12.072106219274986"><ele>104.0</ele><time>2026-04-18T10:01:40.975Z</time></trkpt><trkpt lat="44.110080438775626" lon="12.072194206222171"><ele>104.0</ele><time>2026-04-18T10:01:41.975Z</time></trkpt><trkpt lat="44.10999106128554" lon="12.072281679665462"><ele>104.0</ele><time>2026-04-18T10:01:42.975Z</time></trkpt><trkpt lat="44.10990274608602" lon="12.0723829245869"><ele>104.0</ele><time>2026-04-18T10:01:43.975Z</time></trkpt><trkpt lat="44.10981643879831" lon="12.072491492143424"><ele>104.0</ele><time>2026-04-18T10:01:44.975Z</time></trkpt><trkpt lat="44.10972836336136" lon="12.072599042925559"><ele>104.0</ele><time>2026-04-18T10:01:45.975Z</time></trkpt><trkpt lat="44.10964310730844" lon="12.072721741942702"><ele>104.0</ele><time>2026-04-18T10:01:46.975Z</time></trkpt><trkpt lat="44.109549812681365" lon="12.072849540117044"><ele>104.0</ele><time>2026-04-18T10:01:47.975Z</time></trkpt><trkpt lat="44.109468361701964" lon="12.07296651247853"><ele>104.0</ele><time>2026-04-18T10:01:48.974Z</time></trkpt><trkpt lat="44.10939622877594" lon="12.073083542782035"><ele>104.0</ele><time>2026-04-18T10:01:49.974Z</time></trkpt><trkpt lat="44.10932744448943" lon="12.073187568032559"><ele>105.4</ele><time>2026-04-18T10:01:50.974Z</time></trkpt><trkpt lat="44.10924952285727" lon="12.07328264491402"><ele>106.80000000000001</ele><time>2026-04-18T10:01:51.975Z</time></trkpt><trkpt lat="44.109169229416075" lon="12.073364094222278"><ele>108.19999999999999</ele><time>2026-04-18T10:01:52.975Z</time></trkpt><trkpt lat="44.10908666943725" lon="12.073452382925568"><ele>109.6</ele><time>2026-04-18T10:01:53.975Z</time></trkpt><trkpt lat="44.10899954764588" lon="12.0735336004759"><ele>111.0</ele><time>2026-04-18T10:01:54.975Z</time></trkpt><trkpt lat="44.10891786138062" lon="12.07359582369621"><ele>111.0</ele><time>2026-04-18T10:01:55.975Z</time></trkpt><trkpt lat="44.10881927795199" lon="12.073659136518526"><ele>111.0</ele><time>2026-04-18T10:01:56.975Z</time></trkpt><trkpt lat="44.10871512583009" lon="12.073686736597296"><ele>111.0</ele><time>2026-04-18T10:01:57.975Z</time></trkpt><trkpt lat="44.10860992016236" lon="12.073724481306925"><ele>111.0</ele><time>2026-04-18T10:01:58.975Z</time></trkpt><trkpt lat="44.108491172209455" lon="12.07372701188314"><ele>111.0</ele><time>2026-04-18T10:01:59.975Z</time></trkpt><trkpt lat="44.108369411226946" lon="12.073731490660823"><ele>111.0</ele><time>2026-04-18T10:02:00.975Z</time></trkpt><trkpt lat="44.10824509119821" lon="12.07373654275647"><ele>111.0</ele><time>2026-04-18T10:02:01.975Z</time></trkpt><trkpt lat="44.10812190530658" lon="12.07374718283355"><ele>111.0</ele><time>2026-04-18T10:02:02.975Z</time></trkpt><trkpt lat="44.108007162905885" lon="12.073762230697941"><ele>111.0</ele><time>2026-04-18T10:02:03.975Z</time></trkpt><trkpt lat="44.10789301375437" lon="12.073785983781221"><ele>110.8</ele><time>2026-04-18T10:02:04.975Z</time></trkpt><trkpt lat="44.10778529290167" lon="12.073815315202491"><ele>110.6</ele><time>2026-04-18T10:02:05.975Z</time></trkpt><trkpt lat="44.10767788768725" lon="12.073852252791454"><ele>110.4</ele><time>2026-04-18T10:02:06.975Z</time></trkpt><trkpt lat="44.10756830506621" lon="12.073902298760128"><ele>110.2</ele><time>2026-04-18T10:02:07.975Z</time></trkpt><trkpt lat="44.10747067233993" lon="12.073976938353995"><ele>110.0</ele><time>2026-04-18T10:02:08.975Z</time></trkpt><trkpt lat="44.10736678485122" lon="12.074044187142638"><ele>110.0</ele><time>2026-04-18T10:02:09.975Z</time></trkpt><trkpt lat="44.1072767940806" lon="12.074094655146196"><ele>110.0</ele><time>2026-04-18T10:02:10.975Z</time></trkpt><trkpt lat="44.107181378951886" lon="12.074121290221253"><ele>110.0</ele><time>2026-04-18T10:02:11.975Z</time></trkpt><trkpt lat="44.10707345294572" lon="12.074119319648183"><ele>110.0</ele><time>2026-04-18T10:02:12.975Z</time></trkpt><trkpt lat="44.10697152700358" lon="12.074159644274005"><ele>110.0</ele><time>2026-04-18T10:02:13.975Z</time></trkpt><trkpt lat="44.10686609602756" lon="12.074173503933615"><ele>111.0</ele><time>2026-04-18T10:02:14.975Z</time></trkpt><trkpt lat="44.10677138565228" lon="12.074191913070306"><ele>112.0</ele><time>2026-04-18T10:02:15.975Z</time></trkpt><trkpt lat="44.10667921373424" lon="12.074234948043724"><ele>113.0</ele><time>2026-04-18T10:02:16.975Z</time></trkpt><trkpt lat="44.10659578392021" lon="12.074285785514599"><ele>114.0</ele><time>2026-04-18T10:02:17.975Z</time></trkpt><trkpt lat="44.106514679228596" lon="12.074345525362904"><ele>115.0</ele><time>2026-04-18T10:02:18.975Z</time></trkpt><trkpt lat="44.106430001423156" lon="12.074410899405885"><ele>115.0</ele><time>2026-04-18T10:02:19.975Z</time></trkpt><trkpt lat="44.1063479719849" lon="12.07449680873634"><ele>115.0</ele><time>2026-04-18T10:02:20.975Z</time></trkpt><trkpt lat="44.10627245898708" lon="12.07458166373627"><ele>115.0</ele><time>2026-04-18T10:02:21.975Z</time></trkpt><trkpt lat="44.1061948769769" lon="12.074683490392912"><ele>115.0</ele><time>2026-04-18T10:02:22.975Z</time></trkpt><trkpt lat="44.10612998206377" lon="12.074798317924573"><ele>115.0</ele><time>2026-04-18T10:02:23.975Z</time></trkpt><trkpt lat="44.106063532070394" lon="12.07492741460199"><ele>114.6</ele><time>2026-04-18T10:02:24.975Z</time></trkpt><trkpt lat="44.1059948065486" lon="12.075052385292022"><ele>114.2</ele><time>2026-04-18T10:02:25.975Z</time></trkpt><trkpt lat="44.105940670689364" lon="12.075171069410784"><ele>113.80000000000001</ele><time>2026-04-18T10:02:26.975Z</time></trkpt><trkpt lat="44.10586473779807" lon="12.075292469246529"><ele>113.4</ele><time>2026-04-18T10:02:27.975Z</time></trkpt><trkpt lat="44.10580051916696" lon="12.075396245743422"><ele>113.0</ele><time>2026-04-18T10:02:28.975Z</time></trkpt><trkpt lat="44.10573806232809" lon="12.075505605464231"><ele>113.0</ele><time>2026-04-18T10:02:29.975Z</time></trkpt><trkpt lat="44.10567639581239" lon="12.075618249028025"><ele>113.00000000000001</ele><time>2026-04-18T10:02:30.975Z</time></trkpt><trkpt lat="44.105621556764696" lon="12.075732099679245"><ele>113.00000000000001</ele><time>2026-04-18T10:02:31.975Z</time></trkpt><trkpt lat="44.10556338427304" lon="12.07584315553988"><ele>113.0</ele><time>2026-04-18T10:02:32.975Z</time></trkpt><trkpt lat="44.105507954797375" lon="12.075951225841754"><ele>113.0</ele><time>2026-04-18T10:02:33.975Z</time></trkpt><trkpt lat="44.105445139354686" lon="12.076047477960435"><ele>114.4</ele><time>2026-04-18T10:02:34.975Z</time></trkpt><trkpt lat="44.10541557546965" lon="12.076152864493592"><ele>115.80000000000001</ele><time>2026-04-18T10:02:35.975Z</time></trkpt><trkpt lat="44.10540190112267" lon="12.076275864873772"><ele>117.2</ele><time>2026-04-18T10:02:36.975Z</time></trkpt><trkpt lat="44.10541247759588" lon="12.076425236283729"><ele>118.6</ele><time>2026-04-18T10:02:37.975Z</time></trkpt><trkpt lat="44.105426177789084" lon="12.076577205324938"><ele>120.0</ele><time>2026-04-18T10:02:38.975Z</time></trkpt><trkpt lat="44.10544732600829" lon="12.076727887422312"><ele>120.4</ele><time>2026-04-18T10:02:39.975Z</time></trkpt><trkpt lat="44.10546184836062" lon="12.076875058540343"><ele>120.8</ele><time>2026-04-18T10:02:40.975Z</time></trkpt><trkpt lat="44.1054710078166" lon="12.07701930118893"><ele>121.19999999999999</ele><time>2026-04-18T10:02:41.975Z</time></trkpt><trkpt lat="44.10547402059877" lon="12.077151943617329"><ele>121.6</ele><time>2026-04-18T10:02:42.975Z</time></trkpt><trkpt lat="44.10548238479927" lon="12.077282806693706"><ele>122.0</ele><time>2026-04-18T10:02:43.975Z</time></trkpt><trkpt lat="44.105492297246975" lon="12.077399069304198"><ele>122.66666666666666</ele><time>2026-04-18T10:02:44.975Z</time></trkpt><trkpt lat="44.10548902767334" lon="12.077498426089527"><ele>123.33333333333333</ele><time>2026-04-18T10:02:45.975Z</time></trkpt><trkpt lat="44.105477393833354" lon="12.07759439878292"><ele>124.0</ele><time>2026-04-18T10:02:46.975Z</time></trkpt><trkpt lat="44.1053876801197" lon="12.07772688103335"><ele>124.66666666666666</ele><time>2026-04-18T10:02:48.974Z</time></trkpt><trkpt lat="44.105337044436084" lon="12.077786318118518"><ele>125.33333333333333</ele><time>2026-04-18T10:02:49.974Z</time></trkpt><trkpt lat="44.10526899189643" lon="12.077826760134075"><ele>126.0</ele><time>2026-04-18T10:02:50.974Z</time></trkpt><trkpt lat="44.105184713510205" lon="12.077863509208889"><ele>126.0</ele><time>2026-04-18T10:02:51.974Z</time></trkpt><trkpt lat="44.10509250119494" lon="12.077892271960236"><ele>126.0</ele><time>2026-04-18T10:02:52.974Z</time></trkpt><trkpt lat="44.10499613767156" lon="12.077931778744366"><ele>126.0</ele><time>2026-04-18T10:02:53.974Z</time></trkpt><trkpt lat="44.10490947068082" lon="12.077971232774733"><ele>126.0</ele><time>2026-04-18T10:02:54.974Z</time></trkpt><trkpt lat="44.10482929181615" lon="12.078013503004826"><ele>126.0</ele><time>2026-04-18T10:02:55.974Z</time></trkpt><trkpt lat="44.10474264160133" lon="12.078055187892971"><ele>125.66666666666667</ele><time>2026-04-18T10:02:56.974Z</time></trkpt><trkpt lat="44.10465278289822" lon="12.078102579448576"><ele>125.33333333333334</ele><time>2026-04-18T10:02:57.974Z</time></trkpt><trkpt lat="44.104572118985594" lon="12.07815616236721"><ele>125.0</ele><time>2026-04-18T10:02:58.974Z</time></trkpt><trkpt lat="44.10449611401562" lon="12.078210744334733"><ele>124.66666666666667</ele><time>2026-04-18T10:02:59.974Z</time></trkpt><trkpt lat="44.10442339414675" lon="12.078257395131814"><ele>124.33333333333334</ele><time>2026-04-18T10:03:00.974Z</time></trkpt><trkpt lat="44.10434032501539" lon="12.078299194645032"><ele>124.0</ele><time>2026-04-18T10:03:01.974Z</time></trkpt><trkpt lat="44.10425347181309" lon="12.07835604728775"><ele>124.00000000000001</ele><time>2026-04-18T10:03:02.974Z</time></trkpt><trkpt lat="44.10417394252193" lon="12.078421342206301"><ele>124.0</ele><time>2026-04-18T10:03:03.974Z</time></trkpt><trkpt lat="44.104099646089594" lon="12.078463932140483"><ele>124.0</ele><time>2026-04-18T10:03:04.974Z</time></trkpt><trkpt lat="44.104038461630644" lon="12.078519669395723"><ele>124.0</ele><time>2026-04-18T10:03:05.974Z</time></trkpt><trkpt lat="44.10398451498361" lon="12.078600926156389"><ele>124.00000000000001</ele><time>2026-04-18T10:03:06.974Z</time></trkpt><trkpt lat="44.103952345317644" lon="12.078692410313938"><ele>124.0</ele><time>2026-04-18T10:03:07.974Z</time></trkpt><trkpt lat="44.10392185734958" lon="12.078794988840079"><ele>123.66666666666667</ele><time>2026-04-18T10:03:08.974Z</time></trkpt><trkpt lat="44.1039316156791" lon="12.078920578718407"><ele>123.33333333333334</ele><time>2026-04-18T10:03:09.974Z</time></trkpt><trkpt lat="44.10395638397225" lon="12.079043877416838"><ele>123.0</ele><time>2026-04-18T10:03:10.974Z</time></trkpt><trkpt lat="44.10398188992952" lon="12.079152098763565"><ele>122.66666666666666</ele><time>2026-04-18T10:03:11.974Z</time></trkpt><trkpt lat="44.10401320715199" lon="12.079264342635893"><ele>122.33333333333333</ele><time>2026-04-18T10:03:12.974Z</time></trkpt><trkpt lat="44.104031619773046" lon="12.079349164033305"><ele>122.0</ele><time>2026-04-18T10:03:13.974Z</time></trkpt><trkpt lat="44.104050070934456" lon="12.079487859464374"><ele>122.0</ele><time>2026-04-18T10:03:15.974Z</time></trkpt><trkpt lat="44.10396735516067" lon="12.07958111737988"><ele>121.99999999999999</ele><time>2026-04-18T10:03:17.974Z</time></trkpt><trkpt lat="44.103868922334804" lon="12.079659577422614"><ele>121.99999999999999</ele><time>2026-04-18T10:03:19.974Z</time></trkpt><trkpt lat="44.10375597416021" lon="12.079622056809498"><ele>122.0</ele><time>2026-04-18T10:03:21.974Z</time></trkpt><trkpt lat="44.10370097186012" lon="12.079553713767048"><ele>122.0</ele><time>2026-04-18T10:03:22.974Z</time></trkpt><trkpt lat="44.103637433019166" lon="12.079482073695496"><ele>121.99999999999999</ele><time>2026-04-18T10:03:23.974Z</time></trkpt><trkpt lat="44.1035763924381" lon="12.079419007082937"><ele>122.0</ele><time>2026-04-18T10:03:24.974Z</time></trkpt><trkpt lat="44.10351924909932" lon="12.079360787297738"><ele>122.0</ele><time>2026-04-18T10:03:25.974Z</time></trkpt><trkpt lat="44.103422246444474" lon="12.079241488300688"><ele>122.0</ele><time>2026-04-18T10:03:27.974Z</time></trkpt><trkpt lat="44.10336801264227" lon="12.079173653393246"><ele>121.99999999999999</ele><time>2026-04-18T10:03:28.974Z</time></trkpt><trkpt lat="44.1033101385887" lon="12.079108143376907"><ele>122.0</ele><time>2026-04-18T10:03:29.974Z</time></trkpt><trkpt lat="44.10326088822256" lon="12.07904056077593"><ele>121.49999999999999</ele><time>2026-04-18T10:03:30.974Z</time></trkpt><trkpt lat="44.103202153726464" lon="12.078984711839974"><ele>121.0</ele><time>2026-04-18T10:03:31.974Z</time></trkpt><trkpt lat="44.10314272650526" lon="12.07893258318366"><ele>120.5</ele><time>2026-04-18T10:03:32.974Z</time></trkpt><trkpt lat="44.1030835581928" lon="12.078894393480232"><ele>120.0</ele><time>2026-04-18T10:03:33.974Z</time></trkpt><trkpt lat="44.1029811620577" lon="12.078892330466594"><ele>119.49999999999999</ele><time>2026-04-18T10:03:35.974Z</time></trkpt><trkpt lat="44.102873271389356" lon="12.078987790656491"><ele>119.0</ele><time>2026-04-18T10:03:37.974Z</time></trkpt><trkpt lat="44.10279898857216" lon="12.079117946072383"><ele>119.0</ele><time>2026-04-18T10:03:39.974Z</time></trkpt><trkpt lat="44.10274810176845" lon="12.079171621991323"><ele>119.0</ele><time>2026-04-18T10:03:40.974Z</time></trkpt><trkpt lat="44.102690274992675" lon="12.07920731318448"><ele>119.0</ele><time>2026-04-18T10:03:41.974Z</time></trkpt><trkpt lat="44.1026275418945" lon="12.079216661912458"><ele>119.0</ele><time>2026-04-18T10:03:42.974Z</time></trkpt><trkpt lat="44.10256184729893" lon="12.079200248577855"><ele>119.0</ele><time>2026-04-18T10:03:43.974Z</time></trkpt><trkpt lat="44.102489067572535" lon="12.079169154030657"><ele>119.0</ele><time>2026-04-18T10:03:44.974Z</time></trkpt><trkpt lat="44.10240963697131" lon="12.07912399269952"><ele>119.0</ele><time>2026-04-18T10:03:45.974Z</time></trkpt><trkpt lat="44.10232414876937" lon="12.079052574579853"><ele>116.49999999999999</ele><time>2026-04-18T10:03:46.974Z</time></trkpt><trkpt lat="44.10224097093367" lon="12.078984187588146"><ele>114.0</ele><time>2026-04-18T10:03:47.974Z</time></trkpt><trkpt lat="44.10217013887832" lon="12.07892635643826"><ele>111.5</ele><time>2026-04-18T10:03:48.974Z</time></trkpt><trkpt lat="44.10211245325549" lon="12.07887017218266"><ele>109.0</ele><time>2026-04-18T10:03:49.974Z</time></trkpt><trkpt lat="44.102058089693706" lon="12.078801138687128"><ele>106.49999999999999</ele><time>2026-04-18T10:03:50.974Z</time></trkpt><trkpt lat="44.10200517739171" lon="12.078726821408344"><ele>104.0</ele><time>2026-04-18T10:03:51.974Z</time></trkpt><trkpt lat="44.10195112417034" lon="12.078646825310393"><ele>103.99999999999999</ele><time>2026-04-18T10:03:52.974Z</time></trkpt><trkpt lat="44.101902179324306" lon="12.078575401539828"><ele>104.0</ele><time>2026-04-18T10:03:53.974Z</time></trkpt><trkpt lat="44.101848345591094" lon="12.078508116803203"><ele>104.0</ele><time>2026-04-18T10:03:54.975Z</time></trkpt><trkpt lat="44.10179136424924" lon="12.07845857574489"><ele>104.0</ele><time>2026-04-18T10:03:55.974Z</time></trkpt><trkpt lat="44.101730955334375" lon="12.078424527194978"><ele>103.99999999999999</ele><time>2026-04-18T10:03:56.974Z</time></trkpt><trkpt lat="44.10161535129782" lon="12.078458786759008"><ele>104.0</ele><time>2026-04-18T10:03:58.974Z</time></trkpt><trkpt lat="44.10154543863627" lon="12.078515397702676"><ele>99.6</ele><time>2026-04-18T10:03:59.974Z</time></trkpt><trkpt lat="44.101490182314144" lon="12.078607762336343"><ele>95.2</ele><time>2026-04-18T10:04:00.975Z</time></trkpt><trkpt lat="44.10144457480057" lon="12.078717686636528"><ele>90.8</ele><time>2026-04-18T10:04:01.975Z</time></trkpt><trkpt lat="44.101389534213176" lon="12.07883160956524"><ele>86.39999999999999</ele><time>2026-04-18T10:04:02.975Z</time></trkpt><trkpt lat="44.10134354479335" lon="12.07894292032964"><ele>82.0</ele><time>2026-04-18T10:04:03.975Z</time></trkpt><trkpt lat="44.101292458276" lon="12.07904454165113"><ele>84.16666666666666</ele><time>2026-04-18T10:04:04.975Z</time></trkpt><trkpt lat="44.101243356771874" lon="12.079146566094108"><ele>86.33333333333333</ele><time>2026-04-18T10:04:05.975Z</time></trkpt><trkpt lat="44.101198945356664" lon="12.079237183565787"><ele>88.5</ele><time>2026-04-18T10:04:06.975Z</time></trkpt><trkpt lat="44.101141956056985" lon="12.079323106542821"><ele>90.66666666666667</ele><time>2026-04-18T10:04:07.975Z</time></trkpt><trkpt lat="44.101085576747074" lon="12.079398954974451"><ele>92.83333333333334</ele><time>2026-04-18T10:04:08.975Z</time></trkpt><trkpt lat="44.101020970268515" lon="12.07945125566781"><ele>95.0</ele><time>2026-04-18T10:04:09.975Z</time></trkpt><trkpt lat="44.100943151042785" lon="12.079507213433175"><ele>95.0</ele><time>2026-04-18T10:04:10.975Z</time></trkpt><trkpt lat="44.100863607716626" lon="12.0795391297159"><ele>95.0</ele><time>2026-04-18T10:04:11.975Z</time></trkpt><trkpt lat="44.100787228396165" lon="12.079567135907807"><ele>95.0</ele><time>2026-04-18T10:04:12.975Z</time></trkpt><trkpt lat="44.10070809744329" lon="12.079588475132953"><ele>95.0</ele><time>2026-04-18T10:04:13.975Z</time></trkpt><trkpt lat="44.100636166905566" lon="12.079612781724524"><ele>95.0</ele><time>2026-04-18T10:04:14.975Z</time></trkpt><trkpt lat="44.100542506549175" lon="12.079643602162076"><ele>95.0</ele><time>2026-04-18T10:04:15.975Z</time></trkpt><trkpt lat="44.1004596016077" lon="12.079665050746128"><ele>94.5</ele><time>2026-04-18T10:04:16.975Z</time></trkpt><trkpt lat="44.1003727272007" lon="12.079689259741931"><ele>94.0</ele><time>2026-04-18T10:04:17.975Z</time></trkpt><trkpt lat="44.100296640694616" lon="12.079724312385133"><ele>93.5</ele><time>2026-04-18T10:04:18.975Z</time></trkpt><trkpt lat="44.10022509666721" lon="12.079763226783705"><ele>93.0</ele><time>2026-04-18T10:04:19.975Z</time></trkpt><trkpt lat="44.10015266872218" lon="12.07982740266159"><ele>92.5</ele><time>2026-04-18T10:04:20.975Z</time></trkpt><trkpt lat="44.10007914947841" lon="12.079908445211348"><ele>92.0</ele><time>2026-04-18T10:04:21.975Z</time></trkpt><trkpt lat="44.100014954897325" lon="12.080014815280329"><ele>92.0</ele><time>2026-04-18T10:04:22.975Z</time></trkpt><trkpt lat="44.09995076508097" lon="12.080118895854488"><ele>92.0</ele><time>2026-04-18T10:04:23.975Z</time></trkpt><trkpt lat="44.0998730958198" lon="12.080200544139249"><ele>92.0</ele><time>2026-04-18T10:04:24.975Z</time></trkpt><trkpt lat="44.09980657634209" lon="12.08028650706534"><ele>92.0</ele><time>2026-04-18T10:04:25.975Z</time></trkpt><trkpt lat="44.09974762097044" lon="12.080373654945296"><ele>92.0</ele><time>2026-04-18T10:04:26.975Z</time></trkpt><trkpt lat="44.099689474163455" lon="12.080450555937654"><ele>90.5</ele><time>2026-04-18T10:04:27.975Z</time></trkpt><trkpt lat="44.09962621668847" lon="12.080525482659446"><ele>89.0</ele><time>2026-04-18T10:04:28.975Z</time></trkpt><trkpt lat="44.09957865155775" lon="12.080606100382385"><ele>87.5</ele><time>2026-04-18T10:04:29.975Z</time></trkpt><trkpt lat="44.099537126644655" lon="12.080690348010105"><ele>86.0</ele><time>2026-04-18T10:04:30.975Z</time></trkpt><trkpt lat="44.09951097192899" lon="12.080783109023386"><ele>84.5</ele><time>2026-04-18T10:04:31.975Z</time></trkpt><trkpt lat="44.0994860574189" lon="12.080933705281305"><ele>83.0</ele><time>2026-04-18T10:04:33.975Z</time></trkpt><trkpt lat="44.0994638652591" lon="12.081081037285065"><ele>83.0</ele><time>2026-04-18T10:04:35.975Z</time></trkpt><trkpt lat="44.09942254753314" lon="12.081236953701774"><ele>83.0</ele><time>2026-04-18T10:04:37.975Z</time></trkpt><trkpt lat="44.09938048723844" lon="12.081309617911499"><ele>83.0</ele><time>2026-04-18T10:04:38.975Z</time></trkpt><trkpt lat="44.099323991156496" lon="12.081362779250966"><ele>83.0</ele><time>2026-04-18T10:04:39.975Z</time></trkpt><trkpt lat="44.099202574228514" lon="12.081395439039584"><ele>83.0</ele><time>2026-04-18T10:04:41.975Z</time></trkpt><trkpt lat="44.09911959020588" lon="12.081363812247934"><ele>83.0</ele><time>2026-04-18T10:04:42.975Z</time></trkpt><trkpt lat="44.09905187025419" lon="12.081306556127084"><ele>83.0</ele><time>2026-04-18T10:04:43.975Z</time></trkpt><trkpt lat="44.0989777140581" lon="12.081247107387071"><ele>83.0</ele><time>2026-04-18T10:04:44.975Z</time></trkpt><trkpt lat="44.09890518939619" lon="12.081189409319117"><ele>83.0</ele><time>2026-04-18T10:04:45.975Z</time></trkpt><trkpt lat="44.09884614809279" lon="12.081128754928894"><ele>83.0</ele><time>2026-04-18T10:04:46.975Z</time></trkpt><trkpt lat="44.098776814317134" lon="12.081089033855193"><ele>83.0</ele><time>2026-04-18T10:04:47.975Z</time></trkpt><trkpt lat="44.09869516341644" lon="12.081059978662436"><ele>83.0</ele><time>2026-04-18T10:04:48.975Z</time></trkpt><trkpt lat="44.0986091783279" lon="12.081047020415395"><ele>83.0</ele><time>2026-04-18T10:04:49.975Z</time></trkpt><trkpt lat="44.09852169056836" lon="12.0810486264998"><ele>83.0</ele><time>2026-04-18T10:04:50.975Z</time></trkpt><trkpt lat="44.0984215173205" lon="12.081054414213195"><ele>83.0</ele><time>2026-04-18T10:04:51.975Z</time></trkpt><trkpt lat="44.098318056320636" lon="12.081062400582878"><ele>83.0</ele><time>2026-04-18T10:04:52.975Z</time></trkpt><trkpt lat="44.098215507663525" lon="12.081061804862292"><ele>82.2</ele><time>2026-04-18T10:04:53.975Z</time></trkpt><trkpt lat="44.098136652280715" lon="12.081038747767916"><ele>81.4</ele><time>2026-04-18T10:04:54.975Z</time></trkpt><trkpt lat="44.098057919864914" lon="12.080992949131625"><ele>80.60000000000001</ele><time>2026-04-18T10:04:55.975Z</time></trkpt><trkpt lat="44.09799922713224" lon="12.080960599556533"><ele>79.80000000000001</ele><time>2026-04-18T10:04:56.975Z</time></trkpt><trkpt lat="44.097885332568985" lon="12.080893270224419"><ele>79.0</ele><time>2026-04-18T10:04:58.975Z</time></trkpt><trkpt lat="44.09777059792574" lon="12.080866926765207"><ele>79.0</ele><time>2026-04-18T10:05:00.975Z</time></trkpt><trkpt lat="44.09770765457977" lon="12.080889512831796"><ele>79.0</ele><time>2026-04-18T10:05:01.975Z</time></trkpt><trkpt lat="44.097649572002204" lon="12.080944732964094"><ele>79.0</ele><time>2026-04-18T10:05:02.975Z</time></trkpt><trkpt lat="44.09759086288156" lon="12.081030198552988"><ele>79.0</ele><time>2026-04-18T10:05:03.975Z</time></trkpt><trkpt lat="44.097530157403796" lon="12.081142705309839"><ele>79.0</ele><time>2026-04-18T10:05:04.975Z</time></trkpt><trkpt lat="44.0974618024275" lon="12.081252813614169"><ele>79.0</ele><time>2026-04-18T10:05:05.975Z</time></trkpt><trkpt lat="44.09739447152586" lon="12.081367386983418"><ele>79.0</ele><time>2026-04-18T10:05:06.975Z</time></trkpt><trkpt lat="44.09731814968617" lon="12.081474942840073"><ele>79.0</ele><time>2026-04-18T10:05:07.975Z</time></trkpt><trkpt lat="44.0972621520556" lon="12.081557110480093"><ele>79.0</ele><time>2026-04-18T10:05:08.975Z</time></trkpt><trkpt lat="44.09718400316777" lon="12.081642668837372"><ele>79.0</ele><time>2026-04-18T10:05:09.975Z</time></trkpt><trkpt lat="44.097093005911304" lon="12.081709509632773"><ele>79.0</ele><time>2026-04-18T10:05:10.975Z</time></trkpt><trkpt lat="44.097024079961514" lon="12.081775241267628"><ele>79.0</ele><time>2026-04-18T10:05:11.975Z</time></trkpt><trkpt lat="44.09695848349211" lon="12.08185883661023"><ele>79.0</ele><time>2026-04-18T10:05:12.975Z</time></trkpt><trkpt lat="44.09691573563047" lon="12.081952420122516"><ele>79.0</ele><time>2026-04-18T10:05:13.975Z</time></trkpt><trkpt lat="44.096862983740806" lon="12.082047408734569"><ele>79.0</ele><time>2026-04-18T10:05:14.975Z</time></trkpt><trkpt lat="44.096816105830314" lon="12.082135939588161"><ele>79.0</ele><time>2026-04-18T10:05:15.975Z</time></trkpt><trkpt lat="44.096752883855864" lon="12.0821957594782"><ele>79.0</ele><time>2026-04-18T10:05:16.975Z</time></trkpt><trkpt lat="44.09670629666964" lon="12.082267986814834"><ele>79.0</ele><time>2026-04-18T10:05:17.975Z</time></trkpt><trkpt lat="44.09663093578345" lon="12.08230965568722"><ele>79.0</ele><time>2026-04-18T10:05:18.975Z</time></trkpt><trkpt lat="44.096539917870935" lon="12.082330293516629"><ele>79.0</ele><time>2026-04-18T10:05:19.975Z</time></trkpt><trkpt lat="44.096446454985966" lon="12.082340121796468"><ele>79.0</ele><time>2026-04-18T10:05:20.975Z</time></trkpt><trkpt lat="44.09634743147082" lon="12.082341338837251"><ele>79.0</ele><time>2026-04-18T10:05:21.975Z</time></trkpt><trkpt lat="44.09626392812677" lon="12.082325180795564"><ele>78.66666666666666</ele><time>2026-04-18T10:05:22.975Z</time></trkpt><trkpt lat="44.09617452481147" lon="12.082322997561663"><ele>78.33333333333333</ele><time>2026-04-18T10:05:23.975Z</time></trkpt><trkpt lat="44.09608825132965" lon="12.082320493745204"><ele>78.0</ele><time>2026-04-18T10:05:24.975Z</time></trkpt><trkpt lat="44.09599806523138" lon="12.082314136723088"><ele>77.66666666666667</ele><time>2026-04-18T10:05:25.975Z</time></trkpt><trkpt lat="44.09590325154246" lon="12.082311058114309"><ele>77.33333333333334</ele><time>2026-04-18T10:05:26.975Z</time></trkpt><trkpt lat="44.09581773104517" lon="12.082310291734707"><ele>77.0</ele><time>2026-04-18T10:05:27.975Z</time></trkpt><trkpt lat="44.09574609640533" lon="12.082313825748061"><ele>76.6</ele><time>2026-04-18T10:05:28.975Z</time></trkpt><trkpt lat="44.09562674465642" lon="12.082268441871763"><ele>76.2</ele><time>2026-04-18T10:05:30.975Z</time></trkpt><trkpt lat="44.09551758817099" lon="12.082229230687393"><ele>75.8</ele><time>2026-04-18T10:05:32.974Z</time></trkpt><trkpt lat="44.09541218455914" lon="12.082195639874001"><ele>75.4</ele><time>2026-04-18T10:05:34.974Z</time></trkpt><trkpt lat="44.0953400384652" lon="12.08217090224751"><ele>75.0</ele><time>2026-04-18T10:06:25.975Z</time></trkpt><trkpt lat="44.095266493460315" lon="12.082143784904892"><ele>75.0</ele><time>2026-04-18T10:06:27.975Z</time></trkpt><trkpt lat="44.09518110066758" lon="12.082124116113498"><ele>75.0</ele><time>2026-04-18T10:06:29.975Z</time></trkpt><trkpt lat="44.095107949304676" lon="12.082138418711548"><ele>75.0</ele><time>2026-04-18T10:06:31.975Z</time></trkpt><trkpt lat="44.095028607948805" lon="12.082154455714369"><ele>75.0</ele><time>2026-04-18T10:06:34.975Z</time></trkpt><trkpt lat="44.094953544949895" lon="12.082195976767824"><ele>75.0</ele><time>2026-04-18T10:06:37.975Z</time></trkpt><trkpt lat="44.09488637560586" lon="12.082257061451733"><ele>75.0</ele><time>2026-04-18T10:06:40.975Z</time></trkpt><trkpt lat="44.09477278309356" lon="12.082273100809903"><ele>75.16666666666667</ele><time>2026-04-18T10:06:43.975Z</time></trkpt><trkpt lat="44.09472342383963" lon="12.082341707533493"><ele>75.33333333333333</ele><time>2026-04-18T10:06:45.975Z</time></trkpt><trkpt lat="44.09466898491547" lon="12.082421375489385"><ele>75.5</ele><time>2026-04-18T10:06:48.975Z</time></trkpt><trkpt lat="44.09460921983364" lon="12.082511273667121"><ele>75.66666666666666</ele><time>2026-04-18T10:06:51.975Z</time></trkpt><trkpt lat="44.09456484265424" lon="12.082581552167348"><ele>75.83333333333333</ele><time>2026-04-18T10:06:53.975Z</time></trkpt><trkpt lat="44.094512505419225" lon="12.082671693232966"><ele>76.0</ele><time>2026-04-18T10:06:56.975Z</time></trkpt><trkpt lat="44.09447974829112" lon="12.0827477160783"><ele>76.0</ele><time>2026-04-18T10:06:58.975Z</time></trkpt><trkpt lat="44.09445319257392" lon="12.082827983431846"><ele>76.0</ele><time>2026-04-18T10:07:00.975Z</time></trkpt><trkpt lat="44.0943945311986" lon="12.082961637956389"><ele>76.0</ele><time>2026-04-18T10:07:02.975Z</time></trkpt><trkpt lat="44.094333868999136" lon="12.083034163712316"><ele>76.0</ele><time>2026-04-18T10:07:03.975Z</time></trkpt><trkpt lat="44.094281916567496" lon="12.08309255905641"><ele>76.0</ele><time>2026-04-18T10:07:04.975Z</time></trkpt><trkpt lat="44.09422439145616" lon="12.083154033993246"><ele>76.0</ele><time>2026-04-18T10:07:05.975Z</time></trkpt><trkpt lat="44.09416021995664" lon="12.083212453099769"><ele>76.0</ele><time>2026-04-18T10:07:06.975Z</time></trkpt><trkpt lat="44.09408884294517" lon="12.083263703833733"><ele>76.0</ele><time>2026-04-18T10:07:07.975Z</time></trkpt><trkpt lat="44.09401668263366" lon="12.083324709280106"><ele>76.0</ele><time>2026-04-18T10:07:08.975Z</time></trkpt><trkpt lat="44.09395328761332" lon="12.083419881009538"><ele>76.0</ele><time>2026-04-18T10:07:09.975Z</time></trkpt><trkpt lat="44.09388871138907" lon="12.08352220348845"><ele>76.0</ele><time>2026-04-18T10:07:10.975Z</time></trkpt><trkpt lat="44.093832686762156" lon="12.083650609254395"><ele>76.0</ele><time>2026-04-18T10:07:11.975Z</time></trkpt><trkpt lat="44.09378169720008" lon="12.083764121985512"><ele>76.0</ele><time>2026-04-18T10:07:12.975Z</time></trkpt><trkpt lat="44.09372266271708" lon="12.083872785460217"><ele>76.0</ele><time>2026-04-18T10:07:13.975Z</time></trkpt><trkpt lat="44.09366312963336" lon="12.083985331148918"><ele>76.0</ele><time>2026-04-18T10:07:14.975Z</time></trkpt><trkpt lat="44.09360041033616" lon="12.084103102244772"><ele>76.0</ele><time>2026-04-18T10:07:15.975Z</time></trkpt><trkpt lat="44.093535638240326" lon="12.084224206942727"><ele>75.39999999999999</ele><time>2026-04-18T10:07:16.975Z</time></trkpt><trkpt lat="44.09346659966122" lon="12.084339798059522"><ele>74.8</ele><time>2026-04-18T10:07:17.975Z</time></trkpt><trkpt lat="44.09340039462385" lon="12.084453234050182"><ele>74.19999999999999</ele><time>2026-04-18T10:07:18.975Z</time></trkpt><trkpt lat="44.09333960113707" lon="12.084574088950149"><ele>73.6</ele><time>2026-04-18T10:07:19.975Z</time></trkpt><trkpt lat="44.09326626653694" lon="12.084671224150812"><ele>73.0</ele><time>2026-04-18T10:07:20.975Z</time></trkpt><trkpt lat="44.09319453820057" lon="12.084778140578086"><ele>73.0</ele><time>2026-04-18T10:07:21.975Z</time></trkpt><trkpt lat="44.093125445931" lon="12.084888638757812"><ele>73.0</ele><time>2026-04-18T10:07:22.975Z</time></trkpt><trkpt lat="44.09304719966665" lon="12.084979919958418"><ele>73.0</ele><time>2026-04-18T10:07:23.975Z</time></trkpt><trkpt lat="44.09295871894606" lon="12.085024661403013"><ele>73.0</ele><time>2026-04-18T10:07:24.974Z</time></trkpt><trkpt lat="44.092879456675504" lon="12.085064422084232"><ele>73.0</ele><time>2026-04-18T10:07:25.974Z</time></trkpt><trkpt lat="44.09279283915233" lon="12.085116951636582"><ele>74.0</ele><time>2026-04-18T10:07:26.974Z</time></trkpt><trkpt lat="44.09268800707946" lon="12.085136371773405"><ele>75.0</ele><time>2026-04-18T10:07:27.974Z</time></trkpt><trkpt lat="44.09258116878693" lon="12.085182824716"><ele>76.0</ele><time>2026-04-18T10:07:28.974Z</time></trkpt><trkpt lat="44.0924730067547" lon="12.085230319139997"><ele>77.0</ele><time>2026-04-18T10:07:29.974Z</time></trkpt><trkpt lat="44.09237987668531" lon="12.085271212768006"><ele>78.0</ele><time>2026-04-18T10:07:30.974Z</time></trkpt><trkpt lat="44.092289099602" lon="12.08530803881721"><ele>78.0</ele><time>2026-04-18T10:07:31.974Z</time></trkpt><trkpt lat="44.09220581793284" lon="12.085325812350128"><ele>78.0</ele><time>2026-04-18T10:07:32.974Z</time></trkpt><trkpt lat="44.092116289734406" lon="12.085347708735597"><ele>78.0</ele><time>2026-04-18T10:07:33.974Z</time></trkpt><trkpt lat="44.09202275870319" lon="12.085323051154559"><ele>78.0</ele><time>2026-04-18T10:07:34.974Z</time></trkpt><trkpt lat="44.09192644299431" lon="12.085253339189775"><ele>78.0</ele><time>2026-04-18T10:07:35.974Z</time></trkpt><trkpt lat="44.09182543798624" lon="12.085197299075276"><ele>78.0</ele><time>2026-04-18T10:07:36.974Z</time></trkpt><trkpt lat="44.09171024411821" lon="12.085141293336733"><ele>78.0</ele><time>2026-04-18T10:07:37.974Z</time></trkpt><trkpt lat="44.091592694903646" lon="12.08506680259118"><ele>78.0</ele><time>2026-04-18T10:07:38.974Z</time></trkpt><trkpt lat="44.09147097402925" lon="12.084989783585657"><ele>78.0</ele><time>2026-04-18T10:07:39.974Z</time></trkpt><trkpt lat="44.09136276698875" lon="12.084911180473975"><ele>77.25</ele><time>2026-04-18T10:07:40.974Z</time></trkpt><trkpt lat="44.09126079177695" lon="12.084838371064029"><ele>76.5</ele><time>2026-04-18T10:07:41.974Z</time></trkpt><trkpt lat="44.09114315326534" lon="12.084770665717311"><ele>75.75</ele><time>2026-04-18T10:07:42.974Z</time></trkpt><trkpt lat="44.09101721027015" lon="12.08471001630308"><ele>75.0</ele><time>2026-04-18T10:07:43.974Z</time></trkpt><trkpt lat="44.09089031296362" lon="12.084644624537491"><ele>75.0</ele><time>2026-04-18T10:07:44.974Z</time></trkpt><trkpt lat="44.090761122967756" lon="12.084586111275652"><ele>75.0</ele><time>2026-04-18T10:07:45.974Z</time></trkpt><trkpt lat="44.09063800442753" lon="12.084528285719944"><ele>75.0</ele><time>2026-04-18T10:07:46.974Z</time></trkpt><trkpt lat="44.09052107236934" lon="12.084478686079631"><ele>75.0</ele><time>2026-04-18T10:07:47.974Z</time></trkpt><trkpt lat="44.09040378297243" lon="12.084438479728368"><ele>75.5</ele><time>2026-04-18T10:07:48.974Z</time></trkpt><trkpt lat="44.090293075668264" lon="12.084402797532874"><ele>76.0</ele><time>2026-04-18T10:07:49.974Z</time></trkpt><trkpt lat="44.09017455245774" lon="12.08436154984525"><ele>76.5</ele><time>2026-04-18T10:07:50.974Z</time></trkpt><trkpt lat="44.090067711301536" lon="12.084320687642599"><ele>77.0</ele><time>2026-04-18T10:07:51.974Z</time></trkpt><trkpt lat="44.089949238562085" lon="12.084278397999732"><ele>77.2</ele><time>2026-04-18T10:07:52.974Z</time></trkpt><trkpt lat="44.089836238651124" lon="12.084238742109651"><ele>77.4</ele><time>2026-04-18T10:07:53.974Z</time></trkpt><trkpt lat="44.08973549756529" lon="12.084207409604886"><ele>77.6</ele><time>2026-04-18T10:07:54.974Z</time></trkpt><trkpt lat="44.089638956620846" lon="12.08417654413562"><ele>77.8</ele><time>2026-04-18T10:07:55.974Z</time></trkpt><trkpt lat="44.089539920236376" lon="12.084156823934451"><ele>78.0</ele><time>2026-04-18T10:07:56.974Z</time></trkpt><trkpt lat="44.08943831516463" lon="12.0841411866085"><ele>78.0</ele><time>2026-04-18T10:07:57.974Z</time></trkpt><trkpt lat="44.08933820165435" lon="12.084139139801607"><ele>78.0</ele><time>2026-04-18T10:07:58.974Z</time></trkpt><trkpt lat="44.089248934977" lon="12.084138643859497"><ele>78.0</ele><time>2026-04-18T10:07:59.974Z</time></trkpt><trkpt lat="44.089170438050296" lon="12.084154470594475"><ele>78.0</ele><time>2026-04-18T10:08:00.974Z</time></trkpt><trkpt lat="44.08910568326005" lon="12.084160939393433"><ele>78.0</ele><time>2026-04-18T10:08:01.974Z</time></trkpt><trkpt lat="44.08900818443596" lon="12.084189588242799"><ele>78.0</ele><time>2026-04-18T10:08:03.974Z</time></trkpt><trkpt lat="44.08894256384537" lon="12.084198140291388"><ele>78.33333333333333</ele><time>2026-04-18T10:08:05.974Z</time></trkpt><trkpt lat="44.08901877864066" lon="12.084206314059987"><ele>78.66666666666667</ele><time>2026-04-18T10:11:39.968Z</time></trkpt><trkpt lat="44.089020638565195" lon="12.084303510695522"><ele>79.0</ele><time>2026-04-18T10:11:43.968Z</time></trkpt><trkpt lat="44.088961100096455" lon="12.084374417000758"><ele>79.33333333333334</ele><time>2026-04-18T10:11:45.968Z</time></trkpt><trkpt lat="44.088880347995165" lon="12.084434534854976"><ele>79.66666666666667</ele><time>2026-04-18T10:11:47.968Z</time></trkpt><trkpt lat="44.088787481138226" lon="12.084492348076415"><ele>80.0</ele><time>2026-04-18T10:11:49.968Z</time></trkpt><trkpt lat="44.08868252923833" lon="12.084544941616974"><ele>80.0</ele><time>2026-04-18T10:11:51.968Z</time></trkpt><trkpt lat="44.088557809626494" lon="12.084562411488152"><ele>80.0</ele><time>2026-04-18T10:11:53.968Z</time></trkpt><trkpt lat="44.08845659830103" lon="12.0843123488111"><ele>80.0</ele><time>2026-04-18T10:11:54.968Z</time></trkpt><trkpt lat="44.0883422750759" lon="12.084333388889622"><ele>80.0</ele><time>2026-04-18T10:11:56.968Z</time></trkpt><trkpt lat="44.088236452466916" lon="12.084346728371427"><ele>80.33333333333334</ele><time>2026-04-18T10:11:58.968Z</time></trkpt><trkpt lat="44.08811020698789" lon="12.08436296631728"><ele>80.66666666666667</ele><time>2026-04-18T10:12:00.968Z</time></trkpt><trkpt lat="44.0880364649374" lon="12.0843426213942"><ele>81.0</ele><time>2026-04-18T10:12:01.968Z</time></trkpt><trkpt lat="44.0879592474787" lon="12.084322874370308"><ele>81.33333333333333</ele><time>2026-04-18T10:12:02.968Z</time></trkpt><trkpt lat="44.08789204021718" lon="12.084313878767734"><ele>81.66666666666666</ele><time>2026-04-18T10:12:03.968Z</time></trkpt><trkpt lat="44.087819770890604" lon="12.084311639424449"><ele>82.0</ele><time>2026-04-18T10:12:04.968Z</time></trkpt><trkpt lat="44.087741628280426" lon="12.084296301812214"><ele>82.0</ele><time>2026-04-18T10:12:05.968Z</time></trkpt><trkpt lat="44.08767072887309" lon="12.08427393702172"><ele>82.0</ele><time>2026-04-18T10:12:06.968Z</time></trkpt><trkpt lat="44.0875874133245" lon="12.08425753224935"><ele>82.0</ele><time>2026-04-18T10:12:07.968Z</time></trkpt><trkpt lat="44.08751703320491" lon="12.084237035637246"><ele>82.0</ele><time>2026-04-18T10:12:08.968Z</time></trkpt><trkpt lat="44.08741250133872" lon="12.084207097768678"><ele>82.0</ele><time>2026-04-18T10:12:10.968Z</time></trkpt><trkpt lat="44.08733207161212" lon="12.084207341130577"><ele>82.0</ele><time>2026-04-18T10:12:12.968Z</time></trkpt><trkpt lat="44.08739721066317" lon="12.08421595542386"><ele>82.0</ele><time>2026-04-18T10:12:23.97Z</time></trkpt><trkpt lat="44.08750068152657" lon="12.084242548150938"><ele>82.0</ele><time>2026-04-18T10:12:26.969Z</time></trkpt><trkpt lat="44.0873483520803" lon="12.084196151312613"><ele>82.0</ele><time>2026-04-18T10:12:27.97Z</time></trkpt><trkpt lat="44.087689731310185" lon="12.084316019657466"><ele>82.0</ele><time>2026-04-18T10:12:29.97Z</time></trkpt><trkpt lat="44.08775524341678" lon="12.084327834244224"><ele>82.0</ele><time>2026-04-18T10:12:30.97Z</time></trkpt><trkpt lat="44.08786845033533" lon="12.084356146364302"><ele>82.0</ele><time>2026-04-18T10:12:32.97Z</time></trkpt><trkpt lat="44.08798586805567" lon="12.084370356374663"><ele>82.0</ele><time>2026-04-18T10:12:34.97Z</time></trkpt><trkpt lat="44.08809513886813" lon="12.084379689216016"><ele>82.0</ele><time>2026-04-18T10:12:36.97Z</time></trkpt><trkpt lat="44.08820168180751" lon="12.084366301761738"><ele>82.0</ele><time>2026-04-18T10:12:38.97Z</time></trkpt><trkpt lat="44.088282090367905" lon="12.08433937683801"><ele>82.0</ele><time>2026-04-18T10:12:40.97Z</time></trkpt><trkpt lat="44.08836651977324" lon="12.084338833090532"><ele>82.0</ele><time>2026-04-18T10:13:25.969Z</time></trkpt><trkpt lat="44.088312091334124" lon="12.08440920566958"><ele>82.0</ele><time>2026-04-18T10:13:43.969Z</time></trkpt><trkpt lat="44.088248056582984" lon="12.084389387753326"><ele>82.0</ele><time>2026-04-18T10:13:46.969Z</time></trkpt><trkpt lat="44.08815810034212" lon="12.084359536008742"><ele>82.0</ele><time>2026-04-18T10:13:48.969Z</time></trkpt><trkpt lat="44.08804816569577" lon="12.084353759567417"><ele>82.0</ele><time>2026-04-18T10:13:50.969Z</time></trkpt><trkpt lat="44.087961846936935" lon="12.084340074533571"><ele>82.0</ele><time>2026-04-18T10:13:51.969Z</time></trkpt><trkpt lat="44.08787181874786" lon="12.08432105679543"><ele>82.0</ele><time>2026-04-18T10:13:52.969Z</time></trkpt><trkpt lat="44.087798251087634" lon="12.084301664832738"><ele>82.0</ele><time>2026-04-18T10:13:53.969Z</time></trkpt><trkpt lat="44.087724468144906" lon="12.084287791971832"><ele>82.0</ele><time>2026-04-18T10:13:54.969Z</time></trkpt><trkpt lat="44.087657568740816" lon="12.08426814565939"><ele>82.0</ele><time>2026-04-18T10:13:55.969Z</time></trkpt><trkpt lat="44.087580429090764" lon="12.084247461082121"><ele>82.0</ele><time>2026-04-18T10:13:56.969Z</time></trkpt><trkpt lat="44.087505524756025" lon="12.084229423702087"><ele>82.0</ele><time>2026-04-18T10:13:57.969Z</time></trkpt><trkpt lat="44.087428906603456" lon="12.084207590693548"><ele>82.0</ele><time>2026-04-18T10:13:58.969Z</time></trkpt><trkpt lat="44.087350555078935" lon="12.084201426678558"><ele>82.0</ele><time>2026-04-18T10:13:59.969Z</time></trkpt><trkpt lat="44.08726673482077" lon="12.084195697980665"><ele>82.0</ele><time>2026-04-18T10:14:00.969Z</time></trkpt><trkpt lat="44.087185181782274" lon="12.084189640286342"><ele>82.0</ele><time>2026-04-18T10:14:01.969Z</time></trkpt><trkpt lat="44.08710373067316" lon="12.084190683872416"><ele>82.5</ele><time>2026-04-18T10:14:02.969Z</time></trkpt><trkpt lat="44.08701438410238" lon="12.084197879245588"><ele>83.0</ele><time>2026-04-18T10:14:03.969Z</time></trkpt><trkpt lat="44.08692767004486" lon="12.084206114896029"><ele>83.5</ele><time>2026-04-18T10:14:04.969Z</time></trkpt><trkpt lat="44.08684388491252" lon="12.084211522850762"><ele>84.0</ele><time>2026-04-18T10:14:05.969Z</time></trkpt><trkpt lat="44.08676519758148" lon="12.08422215893702"><ele>84.5</ele><time>2026-04-18T10:14:06.969Z</time></trkpt><trkpt lat="44.08668649369732" lon="12.08422847359696"><ele>85.0</ele><time>2026-04-18T10:14:07.969Z</time></trkpt><trkpt lat="44.086602642320486" lon="12.084241064865745"><ele>84.4</ele><time>2026-04-18T10:14:08.969Z</time></trkpt><trkpt lat="44.08651658518551" lon="12.084271356665795"><ele>83.8</ele><time>2026-04-18T10:14:09.969Z</time></trkpt><trkpt lat="44.08642823453313" lon="12.084317921594117"><ele>83.19999999999999</ele><time>2026-04-18T10:14:10.969Z</time></trkpt><trkpt lat="44.08634461448233" lon="12.084383274812614"><ele>82.6</ele><time>2026-04-18T10:14:11.969Z</time></trkpt><trkpt lat="44.08625103986821" lon="12.084461920592513"><ele>82.0</ele><time>2026-04-18T10:14:12.969Z</time></trkpt><trkpt lat="44.086152064809966" lon="12.084535377049697"><ele>82.0</ele><time>2026-04-18T10:14:13.969Z</time></trkpt><trkpt lat="44.086043955175334" lon="12.084615132615129"><ele>82.0</ele><time>2026-04-18T10:14:14.969Z</time></trkpt><trkpt lat="44.08594276662777" lon="12.084694092503492"><ele>82.0</ele><time>2026-04-18T10:14:15.969Z</time></trkpt><trkpt lat="44.08584484248803" lon="12.084770036648967"><ele>82.0</ele><time>2026-04-18T10:14:16.968Z</time></trkpt><trkpt lat="44.08573597868756" lon="12.0848388809368"><ele>82.0</ele><time>2026-04-18T10:14:17.968Z</time></trkpt><trkpt lat="44.08565059768639" lon="12.084923890603498"><ele>82.0</ele><time>2026-04-18T10:14:18.968Z</time></trkpt><trkpt lat="44.08554477894371" lon="12.0850070761063"><ele>82.0</ele><time>2026-04-18T10:14:19.968Z</time></trkpt><trkpt lat="44.08544349001283" lon="12.085096868040718"><ele>82.0</ele><time>2026-04-18T10:14:20.968Z</time></trkpt><trkpt lat="44.0853426493498" lon="12.085173647871652"><ele>82.0</ele><time>2026-04-18T10:14:21.968Z</time></trkpt><trkpt lat="44.085242478223996" lon="12.08524868401028"><ele>82.0</ele><time>2026-04-18T10:14:22.968Z</time></trkpt><trkpt lat="44.08514017167923" lon="12.085331302805258"><ele>82.0</ele><time>2026-04-18T10:14:23.968Z</time></trkpt><trkpt lat="44.08505303152383" lon="12.08538795319314"><ele>82.0</ele><time>2026-04-18T10:14:24.968Z</time></trkpt><trkpt lat="44.084974652655575" lon="12.085449465194122"><ele>82.0</ele><time>2026-04-18T10:14:25.968Z</time></trkpt><trkpt lat="44.08490028771931" lon="12.085518952401126"><ele>82.0</ele><time>2026-04-18T10:14:26.969Z</time></trkpt><trkpt lat="44.08483018256532" lon="12.085604537955511"><ele>82.0</ele><time>2026-04-18T10:14:27.969Z</time></trkpt><trkpt lat="44.08476381191533" lon="12.085701486113086"><ele>82.0</ele><time>2026-04-18T10:14:28.969Z</time></trkpt><trkpt lat="44.08470717051326" lon="12.085815088309632"><ele>82.0</ele><time>2026-04-18T10:14:29.969Z</time></trkpt><trkpt lat="44.08465377999163" lon="12.085950126900736"><ele>82.0</ele><time>2026-04-18T10:14:30.969Z</time></trkpt><trkpt lat="44.08459628176215" lon="12.086089325282446"><ele>82.6</ele><time>2026-04-18T10:14:31.969Z</time></trkpt><trkpt lat="44.084532394811" lon="12.086217112424212"><ele>83.19999999999999</ele><time>2026-04-18T10:14:32.969Z</time></trkpt><trkpt lat="44.084475032788085" lon="12.0863288396026"><ele>83.8</ele><time>2026-04-18T10:14:33.969Z</time></trkpt><trkpt lat="44.08441544124961" lon="12.086426861146562"><ele>84.4</ele><time>2026-04-18T10:14:34.969Z</time></trkpt><trkpt lat="44.084359724283324" lon="12.086498290285645"><ele>85.0</ele><time>2026-04-18T10:14:35.969Z</time></trkpt><trkpt lat="44.08430515272838" lon="12.086568960853755"><ele>85.66666666666666</ele><time>2026-04-18T10:14:36.969Z</time></trkpt><trkpt lat="44.08424813584088" lon="12.086620166535699"><ele>86.33333333333333</ele><time>2026-04-18T10:14:37.969Z</time></trkpt><trkpt lat="44.08417898918333" lon="12.086668835971183"><ele>87.0</ele><time>2026-04-18T10:14:38.969Z</time></trkpt><trkpt lat="44.084107755585485" lon="12.086718980723788"><ele>87.66666666666667</ele><time>2026-04-18T10:14:39.969Z</time></trkpt><trkpt lat="44.08402001919909" lon="12.086760832832502"><ele>88.33333333333334</ele><time>2026-04-18T10:14:40.969Z</time></trkpt><trkpt lat="44.08391444621611" lon="12.086779228647858"><ele>89.0</ele><time>2026-04-18T10:14:41.969Z</time></trkpt><trkpt lat="44.083802267189846" lon="12.086808804244956"><ele>89.0</ele><time>2026-04-18T10:14:42.969Z</time></trkpt><trkpt lat="44.08367663220256" lon="12.086834624087166"><ele>89.0</ele><time>2026-04-18T10:14:43.969Z</time></trkpt><trkpt lat="44.083558815522906" lon="12.086864117954816"><ele>89.0</ele><time>2026-04-18T10:14:44.969Z</time></trkpt><trkpt lat="44.083433390094854" lon="12.086886657987474"><ele>89.0</ele><time>2026-04-18T10:14:45.969Z</time></trkpt><trkpt lat="44.08331339396843" lon="12.086905714025006"><ele>88.6</ele><time>2026-04-18T10:14:46.969Z</time></trkpt><trkpt lat="44.08320299273683" lon="12.086929807519317"><ele>88.2</ele><time>2026-04-18T10:14:47.968Z</time></trkpt><trkpt lat="44.08309954182465" lon="12.08694844110085"><ele>87.8</ele><time>2026-04-18T10:14:48.968Z</time></trkpt><trkpt lat="44.08300733420582" lon="12.08696447490587"><ele>87.39999999999999</ele><time>2026-04-18T10:14:49.968Z</time></trkpt><trkpt lat="44.08290557996489" lon="12.086972871670765"><ele>87.0</ele><time>2026-04-18T10:14:50.968Z</time></trkpt><trkpt lat="44.08279792083467" lon="12.086983737429936"><ele>87.0</ele><time>2026-04-18T10:14:51.968Z</time></trkpt><trkpt lat="44.08269129990103" lon="12.086989369258848"><ele>87.0</ele><time>2026-04-18T10:14:52.968Z</time></trkpt><trkpt lat="44.082576590814426" lon="12.08698606208193"><ele>87.0</ele><time>2026-04-18T10:14:53.968Z</time></trkpt><trkpt lat="44.08247481081588" lon="12.086982826434545"><ele>87.0</ele><time>2026-04-18T10:14:54.968Z</time></trkpt><trkpt lat="44.08237959717934" lon="12.086977062168627"><ele>87.0</ele><time>2026-04-18T10:14:55.968Z</time></trkpt><trkpt lat="44.082269816434845" lon="12.086960751588714"><ele>87.25</ele><time>2026-04-18T10:14:56.968Z</time></trkpt><trkpt lat="44.082153436670126" lon="12.08695561317134"><ele>87.5</ele><time>2026-04-18T10:14:57.968Z</time></trkpt><trkpt lat="44.082048320513124" lon="12.08695099973241"><ele>87.75</ele><time>2026-04-18T10:14:58.968Z</time></trkpt><trkpt lat="44.081930115474314" lon="12.086965427884357"><ele>88.0</ele><time>2026-04-18T10:14:59.968Z</time></trkpt><trkpt lat="44.08182285165874" lon="12.086932987760688"><ele>88.0</ele><time>2026-04-18T10:15:00.968Z</time></trkpt><trkpt lat="44.08171010758126" lon="12.086925860159248"><ele>88.0</ele><time>2026-04-18T10:15:01.968Z</time></trkpt><trkpt lat="44.08158591238349" lon="12.086929896928417"><ele>88.0</ele><time>2026-04-18T10:15:02.968Z</time></trkpt><trkpt lat="44.08147398417675" lon="12.086938763872254"><ele>88.0</ele><time>2026-04-18T10:15:03.968Z</time></trkpt><trkpt lat="44.08135260235663" lon="12.086950555992281"><ele>88.25</ele><time>2026-04-18T10:15:04.968Z</time></trkpt><trkpt lat="44.08123359601389" lon="12.086981072095359"><ele>88.5</ele><time>2026-04-18T10:15:05.968Z</time></trkpt><trkpt lat="44.08111174048089" lon="12.087001783522798"><ele>88.75</ele><time>2026-04-18T10:15:06.968Z</time></trkpt><trkpt lat="44.08098877335988" lon="12.08704478570804"><ele>89.0</ele><time>2026-04-18T10:15:07.968Z</time></trkpt><trkpt lat="44.080868865180996" lon="12.087092245394818"><ele>89.0</ele><time>2026-04-18T10:15:08.968Z</time></trkpt><trkpt lat="44.08073970214929" lon="12.08712695165739"><ele>89.0</ele><time>2026-04-18T10:15:09.968Z</time></trkpt><trkpt lat="44.08062484165736" lon="12.087157245440547"><ele>89.0</ele><time>2026-04-18T10:15:10.968Z</time></trkpt><trkpt lat="44.08051581542727" lon="12.087196813642013"><ele>89.0</ele><time>2026-04-18T10:15:11.968Z</time></trkpt><trkpt lat="44.080402772680515" lon="12.08720842272276"><ele>89.0</ele><time>2026-04-18T10:15:12.968Z</time></trkpt><trkpt lat="44.08029703216665" lon="12.087234276069049"><ele>89.0</ele><time>2026-04-18T10:15:13.968Z</time></trkpt><trkpt lat="44.080190158957855" lon="12.087259907969955"><ele>89.0</ele><time>2026-04-18T10:15:14.968Z</time></trkpt><trkpt lat="44.08008583902968" lon="12.087267063317285"><ele>89.0</ele><time>2026-04-18T10:15:15.968Z</time></trkpt><trkpt lat="44.07998445784193" lon="12.087252621399456"><ele>89.0</ele><time>2026-04-18T10:15:16.968Z</time></trkpt><trkpt lat="44.079874716901294" lon="12.087224401157053"><ele>88.80000000000001</ele><time>2026-04-18T10:15:17.968Z</time></trkpt><trkpt lat="44.0797692288956" lon="12.087203976447753"><ele>88.60000000000001</ele><time>2026-04-18T10:15:18.968Z</time></trkpt><trkpt lat="44.079664831598365" lon="12.087179303602156"><ele>88.4</ele><time>2026-04-18T10:15:19.968Z</time></trkpt><trkpt lat="44.079559491502614" lon="12.087154936217326"><ele>88.2</ele><time>2026-04-18T10:15:20.968Z</time></trkpt><trkpt lat="44.079451105759276" lon="12.087137241949813"><ele>88.0</ele><time>2026-04-18T10:15:21.968Z</time></trkpt><trkpt lat="44.07934981283183" lon="12.087148222028862"><ele>88.0</ele><time>2026-04-18T10:15:22.968Z</time></trkpt><trkpt lat="44.07925339260175" lon="12.087171137256409"><ele>88.0</ele><time>2026-04-18T10:15:23.968Z</time></trkpt><trkpt lat="44.07917932580474" lon="12.087210606521625"><ele>88.0</ele><time>2026-04-18T10:15:24.968Z</time></trkpt><trkpt lat="44.07909077254629" lon="12.087275902390255"><ele>88.0</ele><time>2026-04-18T10:15:25.968Z</time></trkpt><trkpt lat="44.079016468200074" lon="12.087343181229636"><ele>88.0</ele><time>2026-04-18T10:15:26.968Z</time></trkpt><trkpt lat="44.078935795417316" lon="12.087389196727058"><ele>88.80000000000001</ele><time>2026-04-18T10:15:27.968Z</time></trkpt><trkpt lat="44.07885099278729" lon="12.087404208776217"><ele>89.6</ele><time>2026-04-18T10:15:28.968Z</time></trkpt><trkpt lat="44.07876541136021" lon="12.087379750744924"><ele>90.4</ele><time>2026-04-18T10:15:29.968Z</time></trkpt><trkpt lat="44.078658298983484" lon="12.087353537039972"><ele>91.19999999999999</ele><time>2026-04-18T10:15:30.968Z</time></trkpt><trkpt lat="44.078566787733116" lon="12.087313847781797"><ele>92.0</ele><time>2026-04-18T10:15:31.968Z</time></trkpt><trkpt lat="44.0784723711269" lon="12.087259127014919"><ele>92.0</ele><time>2026-04-18T10:15:32.968Z</time></trkpt><trkpt lat="44.0783728460628" lon="12.087199939009398"><ele>92.0</ele><time>2026-04-18T10:15:33.968Z</time></trkpt><trkpt lat="44.07826877162165" lon="12.087137943751587"><ele>92.0</ele><time>2026-04-18T10:15:34.968Z</time></trkpt><trkpt lat="44.07816337050576" lon="12.087075158110904"><ele>92.0</ele><time>2026-04-18T10:15:35.968Z</time></trkpt><trkpt lat="44.078065597949696" lon="12.087039102472554"><ele>92.0</ele><time>2026-04-18T10:15:36.968Z</time></trkpt><trkpt lat="44.077994819325816" lon="12.086985663439329"><ele>92.33333333333334</ele><time>2026-04-18T10:15:37.968Z</time></trkpt><trkpt lat="44.07792056415929" lon="12.086941467215137"><ele>92.66666666666667</ele><time>2026-04-18T10:15:38.968Z</time></trkpt><trkpt lat="44.077850866274794" lon="12.086908272805765"><ele>93.0</ele><time>2026-04-18T10:15:39.968Z</time></trkpt><trkpt lat="44.07774701530398" lon="12.086908210243386"><ele>93.33333333333333</ele><time>2026-04-18T10:15:41.968Z</time></trkpt><trkpt lat="44.07765090084944" lon="12.08693843413407"><ele>93.66666666666666</ele><time>2026-04-18T10:15:43.968Z</time></trkpt><trkpt lat="44.077581309167535" lon="12.086991031464509"><ele>94.0</ele><time>2026-04-18T10:15:45.968Z</time></trkpt><trkpt lat="44.07752398370469" lon="12.087053354637776"><ele>94.2</ele><time>2026-04-18T10:15:47.968Z</time></trkpt><trkpt lat="44.077431814499676" lon="12.087136166447264"><ele>94.4</ele><time>2026-04-18T10:15:49.968Z</time></trkpt><trkpt lat="44.0773334105799" lon="12.087257921471952"><ele>94.6</ele><time>2026-04-18T10:15:51.968Z</time></trkpt><trkpt lat="44.077284537615625" lon="12.087323939626458"><ele>94.8</ele><time>2026-04-18T10:15:52.968Z</time></trkpt><trkpt lat="44.07722862847628" lon="12.087396759313203"><ele>95.0</ele><time>2026-04-18T10:15:53.968Z</time></trkpt><trkpt lat="44.07715937910725" lon="12.087466014060253"><ele>95.0</ele><time>2026-04-18T10:15:54.968Z</time></trkpt><trkpt lat="44.07709521247718" lon="12.087537579168709"><ele>95.0</ele><time>2026-04-18T10:15:55.968Z</time></trkpt><trkpt lat="44.07704222731349" lon="12.08760464850293"><ele>95.0</ele><time>2026-04-18T10:15:56.968Z</time></trkpt><trkpt lat="44.076986304820515" lon="12.087668888027093"><ele>95.0</ele><time>2026-04-18T10:15:57.968Z</time></trkpt><trkpt lat="44.07692656832947" lon="12.087726949208852"><ele>95.0</ele><time>2026-04-18T10:15:58.968Z</time></trkpt><trkpt lat="44.076862900330035" lon="12.087784138744563"><ele>95.0</ele><time>2026-04-18T10:15:59.968Z</time></trkpt><trkpt lat="44.07679270187717" lon="12.087834360024745"><ele>95.0</ele><time>2026-04-18T10:16:00.968Z</time></trkpt><trkpt lat="44.076711722966564" lon="12.087872236776407"><ele>95.0</ele><time>2026-04-18T10:16:01.968Z</time></trkpt><trkpt lat="44.07664162669334" lon="12.087904161155025"><ele>95.0</ele><time>2026-04-18T10:16:02.968Z</time></trkpt><trkpt lat="44.07656686113765" lon="12.087912273749584"><ele>95.0</ele><time>2026-04-18T10:16:03.968Z</time></trkpt><trkpt lat="44.0764941207096" lon="12.087961008376912"><ele>95.0</ele><time>2026-04-18T10:16:04.968Z</time></trkpt><trkpt lat="44.07641930586784" lon="12.088007814279237"><ele>95.0</ele><time>2026-04-18T10:16:05.968Z</time></trkpt><trkpt lat="44.07634586129876" lon="12.088089492215644"><ele>95.4</ele><time>2026-04-18T10:16:06.968Z</time></trkpt><trkpt lat="44.0762788756818" lon="12.088198709626653"><ele>95.8</ele><time>2026-04-18T10:16:07.968Z</time></trkpt><trkpt lat="44.0762095871716" lon="12.088312730528896"><ele>96.19999999999999</ele><time>2026-04-18T10:16:08.968Z</time></trkpt><trkpt lat="44.0761243760134" lon="12.088395804921998"><ele>96.6</ele><time>2026-04-18T10:16:09.968Z</time></trkpt><trkpt lat="44.076052863473194" lon="12.088520728442552"><ele>97.0</ele><time>2026-04-18T10:16:10.968Z</time></trkpt><trkpt lat="44.07597667223161" lon="12.088651996547961"><ele>97.0</ele><time>2026-04-18T10:16:11.968Z</time></trkpt><trkpt lat="44.07590428635955" lon="12.088762552574206"><ele>97.0</ele><time>2026-04-18T10:16:12.968Z</time></trkpt><trkpt lat="44.075832639220174" lon="12.08887769161101"><ele>97.0</ele><time>2026-04-18T10:16:13.968Z</time></trkpt><trkpt lat="44.07576071393183" lon="12.088988023467003"><ele>97.0</ele><time>2026-04-18T10:16:14.968Z</time></trkpt><trkpt lat="44.075697565186864" lon="12.089092018804063"><ele>97.0</ele><time>2026-04-18T10:16:15.968Z</time></trkpt><trkpt lat="44.07563746270565" lon="12.089182530763065"><ele>96.83333333333334</ele><time>2026-04-18T10:16:16.968Z</time></trkpt><trkpt lat="44.07558481168718" lon="12.089253747622939"><ele>96.66666666666667</ele><time>2026-04-18T10:16:17.968Z</time></trkpt><trkpt lat="44.07553886549384" lon="12.089317570891634"><ele>96.5</ele><time>2026-04-18T10:16:18.968Z</time></trkpt><trkpt lat="44.075488801112435" lon="12.089382470542459"><ele>96.33333333333334</ele><time>2026-04-18T10:16:19.968Z</time></trkpt><trkpt lat="44.07542753067684" lon="12.089460437961083"><ele>96.16666666666667</ele><time>2026-04-18T10:16:20.968Z</time></trkpt><trkpt lat="44.0753537254837" lon="12.08953930754291"><ele>96.0</ele><time>2026-04-18T10:16:21.968Z</time></trkpt><trkpt lat="44.07527610967309" lon="12.08962307603112"><ele>96.0</ele><time>2026-04-18T10:16:22.968Z</time></trkpt><trkpt lat="44.07519341468621" lon="12.08971058368641"><ele>96.0</ele><time>2026-04-18T10:16:23.967Z</time></trkpt><trkpt lat="44.075110194458794" lon="12.089793990759143"><ele>96.0</ele><time>2026-04-18T10:16:24.967Z</time></trkpt><trkpt lat="44.075033426475045" lon="12.089873985292543"><ele>96.0</ele><time>2026-04-18T10:16:25.967Z</time></trkpt><trkpt lat="44.07496140209297" lon="12.089959155913645"><ele>96.0</ele><time>2026-04-18T10:16:26.967Z</time></trkpt><trkpt lat="44.07487738442407" lon="12.090052532464309"><ele>97.6</ele><time>2026-04-18T10:16:27.967Z</time></trkpt><trkpt lat="44.074796047850995" lon="12.090144707250317"><ele>99.19999999999999</ele><time>2026-04-18T10:16:28.967Z</time></trkpt><trkpt lat="44.07470987707436" lon="12.09023915477023"><ele>100.80000000000001</ele><time>2026-04-18T10:16:29.968Z</time></trkpt><trkpt lat="44.0746196451448" lon="12.09032833240993"><ele>102.4</ele><time>2026-04-18T10:16:30.968Z</time></trkpt><trkpt lat="44.074525734856884" lon="12.090405461409961"><ele>104.0</ele><time>2026-04-18T10:16:31.968Z</time></trkpt><trkpt lat="44.074432313723214" lon="12.090469970250076"><ele>104.0</ele><time>2026-04-18T10:16:32.968Z</time></trkpt><trkpt lat="44.07434095205691" lon="12.090531889603687"><ele>104.0</ele><time>2026-04-18T10:16:33.968Z</time></trkpt><trkpt lat="44.07423908074042" lon="12.090601735169068"><ele>104.0</ele><time>2026-04-18T10:16:34.968Z</time></trkpt><trkpt lat="44.074146140575856" lon="12.09065892034056"><ele>104.0</ele><time>2026-04-18T10:16:35.968Z</time></trkpt><trkpt lat="44.07405238472095" lon="12.09071004827287"><ele>104.0</ele><time>2026-04-18T10:16:36.968Z</time></trkpt><trkpt lat="44.073956596622374" lon="12.090752453397677"><ele>104.0</ele><time>2026-04-18T10:16:37.968Z</time></trkpt><trkpt lat="44.073870226662216" lon="12.090780761335441"><ele>104.0</ele><time>2026-04-18T10:16:38.968Z</time></trkpt><trkpt lat="44.07378740241409" lon="12.090796527511959"><ele>104.0</ele><time>2026-04-18T10:16:39.968Z</time></trkpt><trkpt lat="44.073693296351266" lon="12.090787255611197"><ele>104.0</ele><time>2026-04-18T10:16:40.968Z</time></trkpt><trkpt lat="44.073596758514135" lon="12.090756989810862"><ele>104.0</ele><time>2026-04-18T10:16:41.968Z</time></trkpt><trkpt lat="44.07348669441662" lon="12.090715104868474"><ele>104.2</ele><time>2026-04-18T10:16:42.968Z</time></trkpt><trkpt lat="44.073379994587555" lon="12.090679753581476"><ele>104.4</ele><time>2026-04-18T10:16:43.968Z</time></trkpt><trkpt lat="44.07327550616691" lon="12.090648981638115"><ele>104.6</ele><time>2026-04-18T10:16:44.968Z</time></trkpt><trkpt lat="44.07317313822312" lon="12.090619086035435"><ele>104.8</ele><time>2026-04-18T10:16:45.968Z</time></trkpt><trkpt lat="44.07306673912344" lon="12.090581508004037"><ele>105.0</ele><time>2026-04-18T10:16:46.968Z</time></trkpt><trkpt lat="44.072953236487145" lon="12.090548803678201"><ele>105.0</ele><time>2026-04-18T10:16:47.968Z</time></trkpt><trkpt lat="44.07282536310091" lon="12.090512361603924"><ele>105.0</ele><time>2026-04-18T10:16:48.968Z</time></trkpt><trkpt lat="44.072700182098444" lon="12.090473327203345"><ele>105.0</ele><time>2026-04-18T10:16:49.968Z</time></trkpt><trkpt lat="44.072580160659115" lon="12.090428937332218"><ele>105.0</ele><time>2026-04-18T10:16:50.968Z</time></trkpt><trkpt lat="44.07245931897766" lon="12.090402088041877"><ele>104.8</ele><time>2026-04-18T10:16:51.968Z</time></trkpt><trkpt lat="44.07235822390789" lon="12.090371415900451"><ele>104.6</ele><time>2026-04-18T10:16:52.968Z</time></trkpt><trkpt lat="44.072255073052496" lon="12.090346444503087"><ele>104.4</ele><time>2026-04-18T10:16:53.968Z</time></trkpt><trkpt lat="44.072156068546526" lon="12.090333060549892"><ele>104.2</ele><time>2026-04-18T10:16:54.968Z</time></trkpt><trkpt lat="44.07205375242234" lon="12.090324590812072"><ele>104.0</ele><time>2026-04-18T10:16:55.968Z</time></trkpt><trkpt lat="44.071951548043046" lon="12.090328703156183"><ele>104.0</ele><time>2026-04-18T10:16:56.968Z</time></trkpt><trkpt lat="44.071837864640855" lon="12.090354755803524"><ele>104.0</ele><time>2026-04-18T10:16:57.968Z</time></trkpt><trkpt lat="44.07172908688819" lon="12.090405269229"><ele>104.0</ele><time>2026-04-18T10:16:58.968Z</time></trkpt><trkpt lat="44.0716244946979" lon="12.09048116793857"><ele>104.0</ele><time>2026-04-18T10:16:59.968Z</time></trkpt><trkpt lat="44.07153142936773" lon="12.090581456947854"><ele>103.0</ele><time>2026-04-18T10:17:00.968Z</time></trkpt><trkpt lat="44.071439113358274" lon="12.090689709770245"><ele>102.0</ele><time>2026-04-18T10:17:01.968Z</time></trkpt><trkpt lat="44.07134707186998" lon="12.090788101761245"><ele>101.0</ele><time>2026-04-18T10:17:02.968Z</time></trkpt><trkpt lat="44.07125563955229" lon="12.0908898181126"><ele>100.0</ele><time>2026-04-18T10:17:03.968Z</time></trkpt><trkpt lat="44.071167139029534" lon="12.090990104416118"><ele>100.0</ele><time>2026-04-18T10:17:04.968Z</time></trkpt><trkpt lat="44.0710803746936" lon="12.091075835022409"><ele>100.0</ele><time>2026-04-18T10:17:05.968Z</time></trkpt><trkpt lat="44.07099740482428" lon="12.091155584550542"><ele>100.0</ele><time>2026-04-18T10:17:06.968Z</time></trkpt><trkpt lat="44.07091388938935" lon="12.091236029052943"><ele>100.0</ele><time>2026-04-18T10:17:07.968Z</time></trkpt><trkpt lat="44.07083018310431" lon="12.091310925635579"><ele>100.0</ele><time>2026-04-18T10:17:08.968Z</time></trkpt><trkpt lat="44.07075465899421" lon="12.091364355320781"><ele>99.6</ele><time>2026-04-18T10:17:09.968Z</time></trkpt><trkpt lat="44.07066213881338" lon="12.09141251979029"><ele>99.2</ele><time>2026-04-18T10:17:10.968Z</time></trkpt><trkpt lat="44.070566903617845" lon="12.091467478848637"><ele>98.80000000000001</ele><time>2026-04-18T10:17:11.968Z</time></trkpt><trkpt lat="44.070463405764144" lon="12.091490694020537"><ele>98.4</ele><time>2026-04-18T10:17:12.968Z</time></trkpt><trkpt lat="44.0703569904349" lon="12.091543360383877"><ele>98.0</ele><time>2026-04-18T10:17:13.968Z</time></trkpt><trkpt lat="44.07024672218627" lon="12.09154631439456"><ele>98.0</ele><time>2026-04-18T10:17:14.968Z</time></trkpt><trkpt lat="44.070142348107346" lon="12.091572717482567"><ele>98.0</ele><time>2026-04-18T10:17:15.968Z</time></trkpt><trkpt lat="44.07003259104268" lon="12.091599236471698"><ele>98.0</ele><time>2026-04-18T10:17:16.968Z</time></trkpt><trkpt lat="44.06992552565349" lon="12.091619204736014"><ele>98.0</ele><time>2026-04-18T10:17:17.968Z</time></trkpt><trkpt lat="44.069827762122266" lon="12.0916380993634"><ele>98.0</ele><time>2026-04-18T10:17:18.968Z</time></trkpt><trkpt lat="44.06973565561677" lon="12.091661836629365"><ele>98.80000000000001</ele><time>2026-04-18T10:17:19.968Z</time></trkpt><trkpt lat="44.06963640095976" lon="12.091658482924329"><ele>99.6</ele><time>2026-04-18T10:17:20.968Z</time></trkpt><trkpt lat="44.06953222288424" lon="12.09167775385128"><ele>100.4</ele><time>2026-04-18T10:17:21.968Z</time></trkpt><trkpt lat="44.06942199187419" lon="12.09169357746948"><ele>101.19999999999999</ele><time>2026-04-18T10:17:22.968Z</time></trkpt><trkpt lat="44.06931052326357" lon="12.091707467469602"><ele>102.0</ele><time>2026-04-18T10:17:23.968Z</time></trkpt><trkpt lat="44.0692077144048" lon="12.091726962973308"><ele>103.8</ele><time>2026-04-18T10:17:24.968Z</time></trkpt><trkpt lat="44.069100388244465" lon="12.091748204215207"><ele>105.6</ele><time>2026-04-18T10:17:25.968Z</time></trkpt><trkpt lat="44.068996235826425" lon="12.091760801707785"><ele>107.39999999999999</ele><time>2026-04-18T10:17:26.968Z</time></trkpt><trkpt lat="44.06889248351365" lon="12.091764432424903"><ele>109.19999999999999</ele><time>2026-04-18T10:17:27.968Z</time></trkpt><trkpt lat="44.06879391058679" lon="12.091774134779689"><ele>111.0</ele><time>2026-04-18T10:17:28.968Z</time></trkpt><trkpt lat="44.068689539493384" lon="12.091783698117444"><ele>111.0</ele><time>2026-04-18T10:17:29.968Z</time></trkpt><trkpt lat="44.06858858242801" lon="12.091787397479212"><ele>111.0</ele><time>2026-04-18T10:17:30.967Z</time></trkpt><trkpt lat="44.06849835127961" lon="12.09178798355857"><ele>111.0</ele><time>2026-04-18T10:17:31.967Z</time></trkpt><trkpt lat="44.068410341027395" lon="12.091783742111886"><ele>111.0</ele><time>2026-04-18T10:17:32.967Z</time></trkpt><trkpt lat="44.068322509301034" lon="12.091744799166317"><ele>111.0</ele><time>2026-04-18T10:17:33.967Z</time></trkpt><trkpt lat="44.06822409120279" lon="12.091714510789153"><ele>111.0</ele><time>2026-04-18T10:17:34.967Z</time></trkpt><trkpt lat="44.068130345601936" lon="12.091672894286448"><ele>111.0</ele><time>2026-04-18T10:17:35.967Z</time></trkpt><trkpt lat="44.06803534572792" lon="12.091629691402343"><ele>111.0</ele><time>2026-04-18T10:17:36.967Z</time></trkpt><trkpt lat="44.06795639723249" lon="12.091559458238835"><ele>111.0</ele><time>2026-04-18T10:17:37.967Z</time></trkpt><trkpt lat="44.06787373689661" lon="12.091476877668592"><ele>111.0</ele><time>2026-04-18T10:17:38.967Z</time></trkpt><trkpt lat="44.06779092826665" lon="12.091385258235007"><ele>111.0</ele><time>2026-04-18T10:17:39.967Z</time></trkpt><trkpt lat="44.06771928479791" lon="12.091263503757627"><ele>111.0</ele><time>2026-04-18T10:17:40.967Z</time></trkpt><trkpt lat="44.067649578760616" lon="12.091139514488399"><ele>111.0</ele><time>2026-04-18T10:17:41.967Z</time></trkpt><trkpt lat="44.067576162636314" lon="12.091001090174208"><ele>111.0</ele><time>2026-04-18T10:17:42.967Z</time></trkpt><trkpt lat="44.067500837645" lon="12.090850479971397"><ele>112.75</ele><time>2026-04-18T10:17:43.967Z</time></trkpt><trkpt lat="44.067429430143335" lon="12.090705999104793"><ele>114.5</ele><time>2026-04-18T10:17:44.967Z</time></trkpt><trkpt lat="44.06735599617912" lon="12.090567050397091"><ele>116.25</ele><time>2026-04-18T10:17:45.967Z</time></trkpt><trkpt lat="44.06728860278198" lon="12.090436028200534"><ele>118.0</ele><time>2026-04-18T10:17:46.967Z</time></trkpt><trkpt lat="44.06722614607423" lon="12.090310310434088"><ele>118.0</ele><time>2026-04-18T10:17:47.967Z</time></trkpt><trkpt lat="44.06715158830507" lon="12.090196534147"><ele>118.00000000000001</ele><time>2026-04-18T10:17:48.967Z</time></trkpt><trkpt lat="44.067088775421595" lon="12.090084485166908"><ele>118.00000000000001</ele><time>2026-04-18T10:17:49.967Z</time></trkpt><trkpt lat="44.06700968886493" lon="12.089974575625945"><ele>118.0</ele><time>2026-04-18T10:17:50.967Z</time></trkpt><trkpt lat="44.06691482782732" lon="12.089877260108457"><ele>118.0</ele><time>2026-04-18T10:17:51.967Z</time></trkpt><trkpt lat="44.06681780848809" lon="12.08977096867719"><ele>117.5</ele><time>2026-04-18T10:17:52.967Z</time></trkpt><trkpt lat="44.06670973310527" lon="12.08966270513395"><ele>117.0</ele><time>2026-04-18T10:17:53.967Z</time></trkpt><trkpt lat="44.066605837334706" lon="12.089544654618651"><ele>116.5</ele><time>2026-04-18T10:17:54.967Z</time></trkpt><trkpt lat="44.06650811785515" lon="12.089440314142077"><ele>116.0</ele><time>2026-04-18T10:17:55.967Z</time></trkpt><trkpt lat="44.06640703258733" lon="12.089328316522328"><ele>116.0</ele><time>2026-04-18T10:17:56.967Z</time></trkpt><trkpt lat="44.06630682891497" lon="12.089225620920898"><ele>116.0</ele><time>2026-04-18T10:17:57.967Z</time></trkpt><trkpt lat="44.06621138960787" lon="12.089126513847331"><ele>116.0</ele><time>2026-04-18T10:17:58.967Z</time></trkpt><trkpt lat="44.06612579261695" lon="12.089031370395405"><ele>116.0</ele><time>2026-04-18T10:17:59.967Z</time></trkpt><trkpt lat="44.0660353474566" lon="12.088939178131902"><ele>114.0</ele><time>2026-04-18T10:18:00.967Z</time></trkpt><trkpt lat="44.06594611317835" lon="12.088854822126873"><ele>112.0</ele><time>2026-04-18T10:18:01.967Z</time></trkpt><trkpt lat="44.065838874483966" lon="12.088821095611413"><ele>110.0</ele><time>2026-04-18T10:18:02.967Z</time></trkpt><trkpt lat="44.065722000189844" lon="12.088800264729894"><ele>108.0</ele><time>2026-04-18T10:18:03.967Z</time></trkpt><trkpt lat="44.065609818268356" lon="12.088785025377591"><ele>106.0</ele><time>2026-04-18T10:18:04.967Z</time></trkpt><trkpt lat="44.06549577285441" lon="12.088795733189473"><ele>106.0</ele><time>2026-04-18T10:18:05.967Z</time></trkpt><trkpt lat="44.065369060070225" lon="12.088799980671624"><ele>106.0</ele><time>2026-04-18T10:18:06.967Z</time></trkpt><trkpt lat="44.06525162615795" lon="12.088812100159538"><ele>106.0</ele><time>2026-04-18T10:18:07.967Z</time></trkpt><trkpt lat="44.06513903394903" lon="12.088831795136182"><ele>106.0</ele><time>2026-04-18T10:18:08.967Z</time></trkpt><trkpt lat="44.06502921027526" lon="12.088831408238857"><ele>105.6</ele><time>2026-04-18T10:18:09.967Z</time></trkpt><trkpt lat="44.06492720841141" lon="12.088839067797512"><ele>105.19999999999999</ele><time>2026-04-18T10:18:10.967Z</time></trkpt><trkpt lat="44.064834790065376" lon="12.088856029313957"><ele>104.80000000000001</ele><time>2026-04-18T10:18:11.967Z</time></trkpt><trkpt lat="44.064730838083605" lon="12.08886116570182"><ele>104.4</ele><time>2026-04-18T10:18:12.967Z</time></trkpt><trkpt lat="44.06462883709098" lon="12.088873828987081"><ele>104.0</ele><time>2026-04-18T10:18:13.967Z</time></trkpt><trkpt lat="44.06452278677389" lon="12.088874023334425"><ele>104.0</ele><time>2026-04-18T10:18:14.967Z</time></trkpt><trkpt lat="44.064416605038666" lon="12.088895238370675"><ele>104.0</ele><time>2026-04-18T10:18:15.967Z</time></trkpt><trkpt lat="44.064314995847695" lon="12.088938093170183"><ele>104.0</ele><time>2026-04-18T10:18:16.967Z</time></trkpt><trkpt lat="44.06420819103691" lon="12.089012978382758"><ele>104.0</ele><time>2026-04-18T10:18:17.967Z</time></trkpt><trkpt lat="44.06409561107244" lon="12.0890936090653"><ele>105.5</ele><time>2026-04-18T10:18:18.967Z</time></trkpt><trkpt lat="44.063980001689956" lon="12.089207048686749"><ele>107.0</ele><time>2026-04-18T10:18:19.967Z</time></trkpt><trkpt lat="44.06384380305373" lon="12.089311413144411"><ele>108.5</ele><time>2026-04-18T10:18:20.967Z</time></trkpt><trkpt lat="44.063721430437774" lon="12.089436248784194"><ele>110.0</ele><time>2026-04-18T10:18:21.967Z</time></trkpt><trkpt lat="44.06359704047819" lon="12.08955629210535"><ele>110.0</ele><time>2026-04-18T10:18:22.967Z</time></trkpt><trkpt lat="44.06346458851491" lon="12.089663453117446"><ele>110.0</ele><time>2026-04-18T10:18:23.967Z</time></trkpt><trkpt lat="44.063354725913925" lon="12.08976149539037"><ele>110.0</ele><time>2026-04-18T10:18:24.967Z</time></trkpt><trkpt lat="44.06325431341476" lon="12.089876147377236"><ele>110.0</ele><time>2026-04-18T10:18:25.967Z</time></trkpt><trkpt lat="44.0631591840674" lon="12.089958385827911"><ele>112.4</ele><time>2026-04-18T10:18:26.967Z</time></trkpt><trkpt lat="44.063068839295816" lon="12.090027542345707"><ele>114.8</ele><time>2026-04-18T10:18:27.967Z</time></trkpt><trkpt lat="44.06297789516949" lon="12.090074648606036"><ele>117.19999999999999</ele><time>2026-04-18T10:18:28.967Z</time></trkpt><trkpt lat="44.062889466057996" lon="12.090097564561558"><ele>119.6</ele><time>2026-04-18T10:18:29.967Z</time></trkpt><trkpt lat="44.062801356622344" lon="12.090118348803509"><ele>122.0</ele><time>2026-04-18T10:18:30.967Z</time></trkpt><trkpt lat="44.06269643230175" lon="12.09011471816787"><ele>122.0</ele><time>2026-04-18T10:18:31.967Z</time></trkpt><trkpt lat="44.06258924748714" lon="12.090098835780202"><ele>121.99999999999999</ele><time>2026-04-18T10:18:32.967Z</time></trkpt><trkpt lat="44.062479813661284" lon="12.090090878333239"><ele>121.99999999999999</ele><time>2026-04-18T10:18:33.967Z</time></trkpt><trkpt lat="44.06237581474841" lon="12.090088022469713"><ele>122.0</ele><time>2026-04-18T10:18:34.967Z</time></trkpt><trkpt lat="44.06229136728387" lon="12.090075206961135"><ele>122.0</ele><time>2026-04-18T10:18:35.967Z</time></trkpt><trkpt lat="44.0622026675925" lon="12.09005488985845"><ele>121.83333333333333</ele><time>2026-04-18T10:18:36.967Z</time></trkpt><trkpt lat="44.06212371598832" lon="12.090029188939964"><ele>121.66666666666666</ele><time>2026-04-18T10:18:37.967Z</time></trkpt><trkpt lat="44.06205932485634" lon="12.089972154264448"><ele>121.5</ele><time>2026-04-18T10:18:38.967Z</time></trkpt><trkpt lat="44.06201339007371" lon="12.089897226341765"><ele>121.33333333333334</ele><time>2026-04-18T10:18:39.967Z</time></trkpt><trkpt lat="44.061984177047414" lon="12.089762861815426"><ele>121.16666666666667</ele><time>2026-04-18T10:18:40.967Z</time></trkpt><trkpt lat="44.06197516641943" lon="12.089641871403984"><ele>121.0</ele><time>2026-04-18T10:18:41.967Z</time></trkpt><trkpt lat="44.062021128402904" lon="12.089519323305863"><ele>121.0</ele><time>2026-04-18T10:18:42.967Z</time></trkpt><trkpt lat="44.06205277003399" lon="12.089388298940346"><ele>121.0</ele><time>2026-04-18T10:18:43.967Z</time></trkpt><trkpt lat="44.06208111086389" lon="12.089244650371395"><ele>121.0</ele><time>2026-04-18T10:18:44.967Z</time></trkpt><trkpt lat="44.062095376321615" lon="12.08911461895007"><ele>121.0</ele><time>2026-04-18T10:18:45.967Z</time></trkpt><trkpt lat="44.06208396035596" lon="12.088988594419417"><ele>121.0</ele><time>2026-04-18T10:18:46.967Z</time></trkpt><trkpt lat="44.06207324872845" lon="12.088869425777713"><ele>120.0</ele><time>2026-04-18T10:18:47.967Z</time></trkpt><trkpt lat="44.0620469022512" lon="12.08876190388596"><ele>119.0</ele><time>2026-04-18T10:18:48.967Z</time></trkpt><trkpt lat="44.06199848424213" lon="12.088650631562603"><ele>118.0</ele><time>2026-04-18T10:18:49.967Z</time></trkpt><trkpt lat="44.061947170273896" lon="12.088543626230832"><ele>117.0</ele><time>2026-04-18T10:18:50.967Z</time></trkpt><trkpt lat="44.061883704592624" lon="12.088442601732673"><ele>116.0</ele><time>2026-04-18T10:18:51.967Z</time></trkpt><trkpt lat="44.061807435657144" lon="12.088352461012843"><ele>116.0</ele><time>2026-04-18T10:18:52.967Z</time></trkpt><trkpt lat="44.061723235830634" lon="12.088262820680225"><ele>116.0</ele><time>2026-04-18T10:18:53.967Z</time></trkpt><trkpt lat="44.0616301404192" lon="12.088187743801077"><ele>116.0</ele><time>2026-04-18T10:18:54.967Z</time></trkpt><trkpt lat="44.0615255509122" lon="12.088120675413316"><ele>116.0</ele><time>2026-04-18T10:18:55.967Z</time></trkpt><trkpt lat="44.061429514536854" lon="12.088055936291864"><ele>116.0</ele><time>2026-04-18T10:18:56.967Z</time></trkpt><trkpt lat="44.06134330438174" lon="12.08800109441859"><ele>115.66666666666666</ele><time>2026-04-18T10:18:57.967Z</time></trkpt><trkpt lat="44.0612566576933" lon="12.087962137308446"><ele>115.33333333333333</ele><time>2026-04-18T10:18:58.967Z</time></trkpt><trkpt lat="44.06118439261428" lon="12.087953057417145"><ele>115.0</ele><time>2026-04-18T10:18:59.967Z</time></trkpt><trkpt lat="44.06110664922067" lon="12.087964290835922"><ele>114.66666666666666</ele><time>2026-04-18T10:19:00.967Z</time></trkpt><trkpt lat="44.06102598765276" lon="12.087998973195832"><ele>114.33333333333333</ele><time>2026-04-18T10:19:01.967Z</time></trkpt><trkpt lat="44.06095260798004" lon="12.08804521131864"><ele>114.0</ele><time>2026-04-18T10:19:02.967Z</time></trkpt><trkpt lat="44.060871565994056" lon="12.088106459693948"><ele>114.0</ele><time>2026-04-18T10:19:03.967Z</time></trkpt><trkpt lat="44.06079083627389" lon="12.088190242112866"><ele>114.0</ele><time>2026-04-18T10:19:04.967Z</time></trkpt><trkpt lat="44.06070915919538" lon="12.088267176040777"><ele>114.0</ele><time>2026-04-18T10:19:05.967Z</time></trkpt><trkpt lat="44.06063418724903" lon="12.088333653246345"><ele>114.0</ele><time>2026-04-18T10:19:06.967Z</time></trkpt><trkpt lat="44.06055869677994" lon="12.088389795519538"><ele>114.0</ele><time>2026-04-18T10:19:07.967Z</time></trkpt><trkpt lat="44.06048226691199" lon="12.088455297547425"><ele>114.0</ele><time>2026-04-18T10:19:08.967Z</time></trkpt><trkpt lat="44.060394065168424" lon="12.088527246299991"><ele>114.0</ele><time>2026-04-18T10:19:09.967Z</time></trkpt><trkpt lat="44.06030804512817" lon="12.08860086983878"><ele>114.0</ele><time>2026-04-18T10:19:10.967Z</time></trkpt><trkpt lat="44.060219369567186" lon="12.088679332493923"><ele>114.0</ele><time>2026-04-18T10:19:11.967Z</time></trkpt><trkpt lat="44.06012040138413" lon="12.088747465803023"><ele>114.0</ele><time>2026-04-18T10:19:12.967Z</time></trkpt><trkpt lat="44.06003878698053" lon="12.088824398700394"><ele>114.0</ele><time>2026-04-18T10:19:13.967Z</time></trkpt><trkpt lat="44.059954323859074" lon="12.088890569474108"><ele>114.0</ele><time>2026-04-18T10:19:14.966Z</time></trkpt><trkpt lat="44.0598798910577" lon="12.088951273416367"><ele>114.0</ele><time>2026-04-18T10:19:15.966Z</time></trkpt><trkpt lat="44.059810455803934" lon="12.089008743936278"><ele>114.0</ele><time>2026-04-18T10:19:16.966Z</time></trkpt><trkpt lat="44.05973957027708" lon="12.089072806383314"><ele>114.0</ele><time>2026-04-18T10:19:17.966Z</time></trkpt><trkpt lat="44.05967830604987" lon="12.089125420435874"><ele>114.0</ele><time>2026-04-18T10:19:18.966Z</time></trkpt><trkpt lat="44.05961612656444" lon="12.08919156963874"><ele>113.80000000000001</ele><time>2026-04-18T10:19:19.966Z</time></trkpt><trkpt lat="44.05955700694079" lon="12.089271631333002"><ele>113.60000000000001</ele><time>2026-04-18T10:19:20.966Z</time></trkpt><trkpt lat="44.05950713974445" lon="12.089363322207813"><ele>113.4</ele><time>2026-04-18T10:19:21.966Z</time></trkpt><trkpt lat="44.059448810402" lon="12.08947667783542"><ele>113.2</ele><time>2026-04-18T10:19:22.966Z</time></trkpt><trkpt lat="44.059402345815265" lon="12.089595980277702"><ele>113.0</ele><time>2026-04-18T10:19:23.966Z</time></trkpt><trkpt lat="44.059353876035395" lon="12.089722399048423"><ele>112.99999999999999</ele><time>2026-04-18T10:19:24.966Z</time></trkpt><trkpt lat="44.059303423071434" lon="12.089840042483882"><ele>113.0</ele><time>2026-04-18T10:19:25.966Z</time></trkpt><trkpt lat="44.05925882816025" lon="12.089956270747985"><ele>113.0</ele><time>2026-04-18T10:19:26.966Z</time></trkpt><trkpt lat="44.05921351589946" lon="12.090061807398326"><ele>113.0</ele><time>2026-04-18T10:19:27.966Z</time></trkpt><trkpt lat="44.059159158728086" lon="12.090148562282357"><ele>112.99999999999999</ele><time>2026-04-18T10:19:28.966Z</time></trkpt><trkpt lat="44.05911248576253" lon="12.090229496969812"><ele>113.0</ele><time>2026-04-18T10:19:29.966Z</time></trkpt><trkpt lat="44.05906518223081" lon="12.090293735679158"><ele>113.83333333333333</ele><time>2026-04-18T10:19:30.966Z</time></trkpt><trkpt lat="44.05900128002427" lon="12.09033682981169"><ele>114.66666666666666</ele><time>2026-04-18T10:19:31.966Z</time></trkpt><trkpt lat="44.05892845751127" lon="12.090382421084787"><ele>115.5</ele><time>2026-04-18T10:19:32.966Z</time></trkpt><trkpt lat="44.0588481717037" lon="12.090405417989972"><ele>116.33333333333334</ele><time>2026-04-18T10:19:33.966Z</time></trkpt><trkpt lat="44.05875411249829" lon="12.090415705441252"><ele>117.16666666666667</ele><time>2026-04-18T10:19:34.966Z</time></trkpt><trkpt lat="44.05866837895073" lon="12.090418311711664"><ele>118.0</ele><time>2026-04-18T10:19:35.966Z</time></trkpt><trkpt lat="44.058586436008845" lon="12.090392590115584"><ele>118.0</ele><time>2026-04-18T10:19:36.966Z</time></trkpt><trkpt lat="44.05850964447702" lon="12.090348750998864"><ele>118.00000000000001</ele><time>2026-04-18T10:19:37.966Z</time></trkpt><trkpt lat="44.05842843309147" lon="12.09029039593972"><ele>118.00000000000001</ele><time>2026-04-18T10:19:38.966Z</time></trkpt><trkpt lat="44.05834481568824" lon="12.090189952881621"><ele>118.0</ele><time>2026-04-18T10:19:39.966Z</time></trkpt><trkpt lat="44.058273371132564" lon="12.090073330890302"><ele>118.0</ele><time>2026-04-18T10:19:40.966Z</time></trkpt><trkpt lat="44.05818948739756" lon="12.089962649941786"><ele>119.25</ele><time>2026-04-18T10:19:41.966Z</time></trkpt><trkpt lat="44.05811958520807" lon="12.089845450179476"><ele>120.5</ele><time>2026-04-18T10:19:42.966Z</time></trkpt><trkpt lat="44.05804407270872" lon="12.089719898733687"><ele>121.75</ele><time>2026-04-18T10:19:43.966Z</time></trkpt><trkpt lat="44.05797101387428" lon="12.089592522884312"><ele>123.0</ele><time>2026-04-18T10:19:44.966Z</time></trkpt><trkpt lat="44.05788529502011" lon="12.089459550849195"><ele>123.0</ele><time>2026-04-18T10:19:45.966Z</time></trkpt><trkpt lat="44.05780924079873" lon="12.089337175956626"><ele>123.0</ele><time>2026-04-18T10:19:46.966Z</time></trkpt><trkpt lat="44.05773659278904" lon="12.08921028839546"><ele>123.0</ele><time>2026-04-18T10:19:47.966Z</time></trkpt><trkpt lat="44.05766228190316" lon="12.089083184795332"><ele>123.0</ele><time>2026-04-18T10:19:48.966Z</time></trkpt><trkpt lat="44.057576588797765" lon="12.088964084639159"><ele>122.60000000000001</ele><time>2026-04-18T10:19:49.966Z</time></trkpt><trkpt lat="44.057514303506146" lon="12.088822078454475"><ele>122.20000000000002</ele><time>2026-04-18T10:19:50.966Z</time></trkpt><trkpt lat="44.057448963588016" lon="12.088707830321841"><ele>121.8</ele><time>2026-04-18T10:19:51.966Z</time></trkpt><trkpt lat="44.057384937501695" lon="12.08859915422423"><ele>121.4</ele><time>2026-04-18T10:19:52.966Z</time></trkpt><trkpt lat="44.05733114724579" lon="12.088504210805525"><ele>121.0</ele><time>2026-04-18T10:19:53.966Z</time></trkpt><trkpt lat="44.05727965107376" lon="12.088412371833588"><ele>121.0</ele><time>2026-04-18T10:19:54.966Z</time></trkpt><trkpt lat="44.057223639309775" lon="12.088334510092409"><ele>121.0</ele><time>2026-04-18T10:19:55.966Z</time></trkpt><trkpt lat="44.05715810814369" lon="12.088263062544277"><ele>121.0</ele><time>2026-04-18T10:19:56.966Z</time></trkpt><trkpt lat="44.057073948144534" lon="12.088200571487167"><ele>121.0</ele><time>2026-04-18T10:19:57.966Z</time></trkpt><trkpt lat="44.05697540783463" lon="12.088153380621671"><ele>121.0</ele><time>2026-04-18T10:19:58.966Z</time></trkpt><trkpt lat="44.05688131393039" lon="12.088117947140805"><ele>120.19999999999999</ele><time>2026-04-18T10:19:59.966Z</time></trkpt><trkpt lat="44.05678589780815" lon="12.08809846819917"><ele>119.39999999999999</ele><time>2026-04-18T10:20:00.966Z</time></trkpt><trkpt lat="44.05668463843712" lon="12.088110504006828"><ele>118.6</ele><time>2026-04-18T10:20:01.966Z</time></trkpt><trkpt lat="44.056576625190374" lon="12.08813076743624"><ele>117.8</ele><time>2026-04-18T10:20:02.966Z</time></trkpt><trkpt lat="44.05647635852615" lon="12.088164416314918"><ele>117.0</ele><time>2026-04-18T10:20:03.966Z</time></trkpt><trkpt lat="44.0563716003982" lon="12.088215901712731"><ele>117.19999999999999</ele><time>2026-04-18T10:20:04.966Z</time></trkpt><trkpt lat="44.05626414830805" lon="12.088261929259252"><ele>117.39999999999999</ele><time>2026-04-18T10:20:05.966Z</time></trkpt><trkpt lat="44.05615851369205" lon="12.088306661541655"><ele>117.60000000000001</ele><time>2026-04-18T10:20:06.966Z</time></trkpt><trkpt lat="44.05605721237254" lon="12.088357630200386"><ele>117.80000000000001</ele><time>2026-04-18T10:20:07.966Z</time></trkpt><trkpt lat="44.05596755404113" lon="12.088408350662746"><ele>118.0</ele><time>2026-04-18T10:20:08.966Z</time></trkpt><trkpt lat="44.05587755653039" lon="12.088446148363753"><ele>118.0</ele><time>2026-04-18T10:20:09.966Z</time></trkpt><trkpt lat="44.05580393365813" lon="12.088477594409277"><ele>118.0</ele><time>2026-04-18T10:20:10.966Z</time></trkpt><trkpt lat="44.05572864690191" lon="12.088483612857944"><ele>118.0</ele><time>2026-04-18T10:20:11.966Z</time></trkpt><trkpt lat="44.055666373889984" lon="12.08850048300143"><ele>118.0</ele><time>2026-04-18T10:20:12.966Z</time></trkpt><trkpt lat="44.05560561016172" lon="12.088471713097432"><ele>118.0</ele><time>2026-04-18T10:20:13.966Z</time></trkpt><trkpt lat="44.05556450485608" lon="12.088401697094376"><ele>118.0</ele><time>2026-04-18T10:20:14.966Z</time></trkpt><trkpt lat="44.05549234011926" lon="12.08833127067487"><ele>118.0</ele><time>2026-04-18T10:20:15.966Z</time></trkpt><trkpt lat="44.05542280547269" lon="12.088278845926569"><ele>118.4</ele><time>2026-04-18T10:20:16.966Z</time></trkpt><trkpt lat="44.05535734134584" lon="12.088209895915352"><ele>118.80000000000001</ele><time>2026-04-18T10:20:17.966Z</time></trkpt><trkpt lat="44.055285079645024" lon="12.08814127618723"><ele>119.2</ele><time>2026-04-18T10:20:18.966Z</time></trkpt><trkpt lat="44.05521673236488" lon="12.08807429268438"><ele>119.6</ele><time>2026-04-18T10:20:19.966Z</time></trkpt><trkpt lat="44.05514889365391" lon="12.088018722927835"><ele>120.0</ele><time>2026-04-18T10:20:20.966Z</time></trkpt><trkpt lat="44.055035492431834" lon="12.08795951518185"><ele>121.0</ele><time>2026-04-18T10:20:22.966Z</time></trkpt><trkpt lat="44.05491887316331" lon="12.087961419275903"><ele>122.0</ele><time>2026-04-18T10:20:24.966Z</time></trkpt><trkpt lat="44.054851760298654" lon="12.08794067756901"><ele>123.0</ele><time>2026-04-18T10:20:25.966Z</time></trkpt><trkpt lat="44.054774361818744" lon="12.0880710242559"><ele>124.0</ele><time>2026-04-18T10:20:26.966Z</time></trkpt><trkpt lat="44.05469599270847" lon="12.088148454335448"><ele>125.0</ele><time>2026-04-18T10:20:27.966Z</time></trkpt><trkpt lat="44.05462607294576" lon="12.088218408415404"><ele>125.42857142857142</ele><time>2026-04-18T10:20:28.966Z</time></trkpt><trkpt lat="44.05454505410789" lon="12.088270745681504"><ele>125.85714285714286</ele><time>2026-04-18T10:20:29.966Z</time></trkpt><trkpt lat="44.05448582908326" lon="12.088331169123116"><ele>126.28571428571428</ele><time>2026-04-18T10:20:30.966Z</time></trkpt><trkpt lat="44.05442084388461" lon="12.08837841065159"><ele>126.71428571428571</ele><time>2026-04-18T10:20:31.966Z</time></trkpt><trkpt lat="44.05436209914252" lon="12.088414634286526"><ele>127.14285714285714</ele><time>2026-04-18T10:20:32.966Z</time></trkpt><trkpt lat="44.05429045968813" lon="12.088442246366006"><ele>127.57142857142857</ele><time>2026-04-18T10:20:33.966Z</time></trkpt><trkpt lat="44.054219236101154" lon="12.08843727703898"><ele>128.0</ele><time>2026-04-18T10:20:34.966Z</time></trkpt><trkpt lat="44.05414887606663" lon="12.088402775790225"><ele>130.5</ele><time>2026-04-18T10:20:35.966Z</time></trkpt><trkpt lat="44.054072087864625" lon="12.08835129888666"><ele>133.0</ele><time>2026-04-18T10:20:36.966Z</time></trkpt><trkpt lat="44.054019559465445" lon="12.088251815024304"><ele>135.5</ele><time>2026-04-18T10:20:37.966Z</time></trkpt><trkpt lat="44.05396567375642" lon="12.088159120675542"><ele>138.0</ele><time>2026-04-18T10:20:38.966Z</time></trkpt><trkpt lat="44.05390919371309" lon="12.088051228690547"><ele>140.5</ele><time>2026-04-18T10:20:39.966Z</time></trkpt><trkpt lat="44.053874279339674" lon="12.087942860279117"><ele>143.0</ele><time>2026-04-18T10:20:40.966Z</time></trkpt><trkpt lat="44.05383979879466" lon="12.087836807755789"><ele>143.0</ele><time>2026-04-18T10:20:41.966Z</time></trkpt><trkpt lat="44.05382515380356" lon="12.087740919525498"><ele>143.0</ele><time>2026-04-18T10:20:42.966Z</time></trkpt><trkpt lat="44.05383006113045" lon="12.087643454065326"><ele>143.0</ele><time>2026-04-18T10:20:43.966Z</time></trkpt><trkpt lat="44.05383451616076" lon="12.087543703841149"><ele>143.0</ele><time>2026-04-18T10:20:44.967Z</time></trkpt><trkpt lat="44.05383261374362" lon="12.087430861988105"><ele>143.0</ele><time>2026-04-18T10:20:45.966Z</time></trkpt><trkpt lat="44.053861308541435" lon="12.087314296977878"><ele>143.0</ele><time>2026-04-18T10:20:46.966Z</time></trkpt><trkpt lat="44.05387927011003" lon="12.087187605936016"><ele>142.66666666666666</ele><time>2026-04-18T10:20:47.966Z</time></trkpt><trkpt lat="44.05388346278104" lon="12.087069923709901"><ele>142.33333333333331</ele><time>2026-04-18T10:20:48.967Z</time></trkpt><trkpt lat="44.05389236010678" lon="12.086967943869285"><ele>142.0</ele><time>2026-04-18T10:20:49.967Z</time></trkpt><trkpt lat="44.05388716262115" lon="12.086863155890544"><ele>141.66666666666666</ele><time>2026-04-18T10:20:50.966Z</time></trkpt><trkpt lat="44.053871082174936" lon="12.086758593528618"><ele>141.33333333333334</ele><time>2026-04-18T10:20:51.967Z</time></trkpt><trkpt lat="44.05383659847417" lon="12.08665425726949"><ele>141.0</ele><time>2026-04-18T10:20:52.967Z</time></trkpt><trkpt lat="44.05379293394806" lon="12.086562579771542"><ele>140.83333333333334</ele><time>2026-04-18T10:20:53.967Z</time></trkpt><trkpt lat="44.053734014560725" lon="12.086500272952012"><ele>140.66666666666666</ele><time>2026-04-18T10:20:54.967Z</time></trkpt><trkpt lat="44.05368026896295" lon="12.086427232981775"><ele>140.5</ele><time>2026-04-18T10:20:55.967Z</time></trkpt><trkpt lat="44.053608564214244" lon="12.086364404396209"><ele>140.33333333333331</ele><time>2026-04-18T10:20:56.967Z</time></trkpt><trkpt lat="44.05355400483025" lon="12.08629231434867"><ele>140.16666666666666</ele><time>2026-04-18T10:20:57.967Z</time></trkpt><trkpt lat="44.053517790087945" lon="12.0862059263315"><ele>140.0</ele><time>2026-04-18T10:20:58.967Z</time></trkpt><trkpt lat="44.053494807309285" lon="12.086110273402463"><ele>140.0</ele><time>2026-04-18T10:20:59.967Z</time></trkpt><trkpt lat="44.05350745544858" lon="12.085989542636398"><ele>140.0</ele><time>2026-04-18T10:21:00.967Z</time></trkpt><trkpt lat="44.05350875195973" lon="12.085880787313048"><ele>140.0</ele><time>2026-04-18T10:21:01.967Z</time></trkpt><trkpt lat="44.05351177349812" lon="12.085769923524708"><ele>140.0</ele><time>2026-04-18T10:21:02.967Z</time></trkpt><trkpt lat="44.05351291396719" lon="12.085625214657055"><ele>140.0</ele><time>2026-04-18T10:21:04.967Z</time></trkpt><trkpt lat="44.05351638733619" lon="12.08551221723716"><ele>140.0</ele><time>2026-04-18T10:21:06.967Z</time></trkpt><trkpt lat="44.05348114303531" lon="12.085386771618007"><ele>140.83333333333331</ele><time>2026-04-18T10:21:09.967Z</time></trkpt><trkpt lat="44.0534247544187" lon="12.085313854377064"><ele>141.66666666666666</ele><time>2026-04-18T10:21:25.967Z</time></trkpt><trkpt lat="44.05337746860394" lon="12.085221018398313"><ele>142.5</ele><time>2026-04-18T10:21:28.967Z</time></trkpt><trkpt lat="44.05331303558992" lon="12.085112364357613"><ele>143.33333333333334</ele><time>2026-04-18T10:21:30.967Z</time></trkpt><trkpt lat="44.05322599468223" lon="12.084999947748523"><ele>144.16666666666669</ele><time>2026-04-18T10:21:32.966Z</time></trkpt><trkpt lat="44.05317837354022" lon="12.08493730990055"><ele>145.0</ele><time>2026-04-18T10:21:33.966Z</time></trkpt><trkpt lat="44.053128096896074" lon="12.084874285487544"><ele>142.6</ele><time>2026-04-18T10:21:34.966Z</time></trkpt><trkpt lat="44.05307408086616" lon="12.084809704961536"><ele>140.2</ele><time>2026-04-18T10:21:35.966Z</time></trkpt><trkpt lat="44.05297926672036" lon="12.084704139129691"><ele>137.8</ele><time>2026-04-18T10:21:37.966Z</time></trkpt><trkpt lat="44.05288180199089" lon="12.084639185853355"><ele>135.4</ele><time>2026-04-18T10:21:39.966Z</time></trkpt><trkpt lat="44.05276678438491" lon="12.084664415474695"><ele>133.0</ele><time>2026-04-18T10:21:41.966Z</time></trkpt><trkpt lat="44.05272600190607" lon="12.084826296126984"><ele>135.0</ele><time>2026-04-18T10:21:43.966Z</time></trkpt><trkpt lat="44.05275621272831" lon="12.084989357108917"><ele>137.0</ele><time>2026-04-18T10:21:45.966Z</time></trkpt><trkpt lat="44.05280781370938" lon="12.085050615404334"><ele>139.0</ele><time>2026-04-18T10:21:46.966Z</time></trkpt><trkpt lat="44.05286435306774" lon="12.085113670158584"><ele>141.0</ele><time>2026-04-18T10:21:47.966Z</time></trkpt><trkpt lat="44.052927442526766" lon="12.085179032738383"><ele>143.0</ele><time>2026-04-18T10:21:48.966Z</time></trkpt><trkpt lat="44.05299876026685" lon="12.085247962249294"><ele>145.0</ele><time>2026-04-18T10:21:49.966Z</time></trkpt><trkpt lat="44.05306544513092" lon="12.085332549431662"><ele>145.0</ele><time>2026-04-18T10:21:50.966Z</time></trkpt><trkpt lat="44.05312445242846" lon="12.085399107490499"><ele>145.0</ele><time>2026-04-18T10:21:51.966Z</time></trkpt><trkpt lat="44.05318061710317" lon="12.08545528203728"><ele>145.0</ele><time>2026-04-18T10:21:52.966Z</time></trkpt><trkpt lat="44.053226514342185" lon="12.085521877749848"><ele>145.0</ele><time>2026-04-18T10:21:53.966Z</time></trkpt><trkpt lat="44.05326190988081" lon="12.085596492971128"><ele>145.0</ele><time>2026-04-18T10:21:54.966Z</time></trkpt><trkpt lat="44.05328949992688" lon="12.085684088515002"><ele>145.0</ele><time>2026-04-18T10:21:55.966Z</time></trkpt><trkpt lat="44.05330021719965" lon="12.08577268737174"><ele>145.0</ele><time>2026-04-18T10:21:56.966Z</time></trkpt><trkpt lat="44.05327772177735" lon="12.085940895476854"><ele>146.66666666666669</ele><time>2026-04-18T10:21:58.966Z</time></trkpt><trkpt lat="44.05324559494895" lon="12.086031944082897"><ele>148.33333333333334</ele><time>2026-04-18T10:21:59.966Z</time></trkpt><trkpt lat="44.05320535808058" lon="12.086121383124055"><ele>150.0</ele><time>2026-04-18T10:22:00.966Z</time></trkpt><trkpt lat="44.0531545947898" lon="12.086205523724997"><ele>151.66666666666666</ele><time>2026-04-18T10:22:01.966Z</time></trkpt><trkpt lat="44.05310608948592" lon="12.086285838136554"><ele>153.33333333333331</ele><time>2026-04-18T10:22:02.966Z</time></trkpt><trkpt lat="44.05304132246808" lon="12.086355828721002"><ele>155.0</ele><time>2026-04-18T10:22:03.966Z</time></trkpt><trkpt lat="44.05298677693989" lon="12.086429388621792"><ele>155.0</ele><time>2026-04-18T10:22:04.966Z</time></trkpt><trkpt lat="44.05294529681461" lon="12.086496821751654"><ele>155.0</ele><time>2026-04-18T10:22:05.966Z</time></trkpt><trkpt lat="44.05291286704181" lon="12.086581099503334"><ele>155.0</ele><time>2026-04-18T10:22:06.966Z</time></trkpt><trkpt lat="44.05289495657719" lon="12.08666875367019"><ele>155.0</ele><time>2026-04-18T10:22:07.966Z</time></trkpt><trkpt lat="44.052891524882035" lon="12.086769834940386"><ele>155.0</ele><time>2026-04-18T10:22:08.966Z</time></trkpt><trkpt lat="44.0529181694834" lon="12.086864170322205"><ele>155.0</ele><time>2026-04-18T10:22:09.966Z</time></trkpt><trkpt lat="44.05295912051669" lon="12.086945047209573"><ele>155.0</ele><time>2026-04-18T10:22:10.966Z</time></trkpt><trkpt lat="44.05301115497413" lon="12.087020778451441"><ele>155.8</ele><time>2026-04-18T10:22:11.966Z</time></trkpt><trkpt lat="44.05306432198641" lon="12.08708601748047"><ele>156.6</ele><time>2026-04-18T10:22:12.966Z</time></trkpt><trkpt lat="44.05311846387244" lon="12.087229117237282"><ele>157.4</ele><time>2026-04-18T10:22:14.966Z</time></trkpt><trkpt lat="44.05306299760816" lon="12.087367929038601"><ele>158.2</ele><time>2026-04-18T10:22:16.966Z</time></trkpt><trkpt lat="44.05296161911706" lon="12.087392253207483"><ele>159.0</ele><time>2026-04-18T10:22:18.966Z</time></trkpt><trkpt lat="44.052899075447996" lon="12.087354229179518"><ele>159.0</ele><time>2026-04-18T10:22:19.966Z</time></trkpt><trkpt lat="44.052857840083064" lon="12.08725258331198"><ele>159.0</ele><time>2026-04-18T10:22:20.966Z</time></trkpt><trkpt lat="44.052802664845935" lon="12.087181908161801"><ele>159.0</ele><time>2026-04-18T10:22:21.966Z</time></trkpt><trkpt lat="44.05274516856388" lon="12.087108643258679"><ele>159.0</ele><time>2026-04-18T10:22:22.966Z</time></trkpt><trkpt lat="44.05268925870295" lon="12.08703603627447"><ele>159.0</ele><time>2026-04-18T10:22:23.966Z</time></trkpt><trkpt lat="44.05261767632623" lon="12.08694903983456"><ele>159.0</ele><time>2026-04-18T10:22:24.966Z</time></trkpt><trkpt lat="44.05255172078323" lon="12.086866717738392"><ele>159.0</ele><time>2026-04-18T10:22:25.966Z</time></trkpt><trkpt lat="44.05249255915703" lon="12.086777569650623"><ele>159.0</ele><time>2026-04-18T10:22:26.966Z</time></trkpt><trkpt lat="44.05244878922519" lon="12.086701825456062"><ele>159.0</ele><time>2026-04-18T10:22:27.966Z</time></trkpt><trkpt lat="44.0524178943166" lon="12.086614030824057"><ele>159.0</ele><time>2026-04-18T10:22:28.966Z</time></trkpt><trkpt lat="44.05240459633554" lon="12.086513887683136"><ele>159.0</ele><time>2026-04-18T10:22:29.966Z</time></trkpt><trkpt lat="44.05239151470287" lon="12.086411816032717"><ele>159.0</ele><time>2026-04-18T10:22:30.966Z</time></trkpt><trkpt lat="44.052385412131564" lon="12.086312878356908"><ele>159.0</ele><time>2026-04-18T10:22:31.966Z</time></trkpt><trkpt lat="44.05237842148959" lon="12.086218337612072"><ele>160.0</ele><time>2026-04-18T10:22:32.966Z</time></trkpt><trkpt lat="44.05234602451909" lon="12.086134862693255"><ele>161.0</ele><time>2026-04-18T10:22:33.966Z</time></trkpt><trkpt lat="44.05230143473622" lon="12.086051992555854"><ele>162.0</ele><time>2026-04-18T10:22:34.966Z</time></trkpt><trkpt lat="44.05224631160783" lon="12.085974249180937"><ele>163.0</ele><time>2026-04-18T10:22:35.966Z</time></trkpt><trkpt lat="44.052188356950026" lon="12.08588648907469"><ele>164.0</ele><time>2026-04-18T10:22:36.966Z</time></trkpt><trkpt lat="44.052131208567296" lon="12.085794633500381"><ele>165.0</ele><time>2026-04-18T10:22:37.966Z</time></trkpt><trkpt lat="44.05207835046754" lon="12.08569657317753"><ele>165.0</ele><time>2026-04-18T10:22:38.966Z</time></trkpt><trkpt lat="44.052029470363294" lon="12.085611072517322"><ele>165.0</ele><time>2026-04-18T10:22:39.966Z</time></trkpt><trkpt lat="44.05197301166034" lon="12.085547766685488"><ele>165.0</ele><time>2026-04-18T10:22:40.966Z</time></trkpt><trkpt lat="44.05186457361187" lon="12.085531119240356"><ele>165.0</ele><time>2026-04-18T10:22:42.966Z</time></trkpt><trkpt lat="44.05176988569688" lon="12.08564638961694"><ele>165.0</ele><time>2026-04-18T10:22:44.966Z</time></trkpt><trkpt lat="44.05175767740202" lon="12.085742583129653"><ele>165.83333333333334</ele><time>2026-04-18T10:22:45.966Z</time></trkpt><trkpt lat="44.05181018850231" lon="12.085908471688233"><ele>166.66666666666666</ele><time>2026-04-18T10:22:47.966Z</time></trkpt><trkpt lat="44.05185862989076" lon="12.085980468010384"><ele>167.5</ele><time>2026-04-18T10:22:48.966Z</time></trkpt><trkpt lat="44.051895484709" lon="12.08607062783518"><ele>168.33333333333331</ele><time>2026-04-18T10:22:49.966Z</time></trkpt><trkpt lat="44.05192964723514" lon="12.086154785016689"><ele>169.16666666666666</ele><time>2026-04-18T10:22:50.966Z</time></trkpt><trkpt lat="44.05195017688547" lon="12.086240256592879"><ele>170.0</ele><time>2026-04-18T10:22:51.966Z</time></trkpt><trkpt lat="44.05196119892744" lon="12.086360239765844"><ele>170.0</ele><time>2026-04-18T10:22:52.966Z</time></trkpt><trkpt lat="44.05196770766037" lon="12.086492535336744"><ele>170.0</ele><time>2026-04-18T10:22:53.967Z</time></trkpt><trkpt lat="44.051967650793564" lon="12.086647209046973"><ele>170.0</ele><time>2026-04-18T10:22:54.967Z</time></trkpt><trkpt lat="44.05196736287843" lon="12.086782977158485"><ele>170.0</ele><time>2026-04-18T10:22:55.967Z</time></trkpt><trkpt lat="44.051982794315656" lon="12.086911862790183"><ele>170.0</ele><time>2026-04-18T10:22:56.967Z</time></trkpt><trkpt lat="44.05196799762587" lon="12.08704831598594"><ele>171.6</ele><time>2026-04-18T10:22:57.967Z</time></trkpt><trkpt lat="44.0519695673509" lon="12.087179961034403"><ele>173.2</ele><time>2026-04-18T10:22:58.967Z</time></trkpt><trkpt lat="44.05197559051459" lon="12.08732694721659"><ele>174.8</ele><time>2026-04-18T10:22:59.966Z</time></trkpt><trkpt lat="44.051970053547976" lon="12.087459706273384"><ele>176.4</ele><time>2026-04-18T10:23:00.966Z</time></trkpt><trkpt lat="44.0519751795255" lon="12.08758455425991"><ele>178.0</ele><time>2026-04-18T10:23:01.966Z</time></trkpt><trkpt lat="44.05198914148616" lon="12.08769288989168"><ele>179.33333333333334</ele><time>2026-04-18T10:23:02.966Z</time></trkpt><trkpt lat="44.05200991051988" lon="12.087781667851633"><ele>180.66666666666669</ele><time>2026-04-18T10:23:03.966Z</time></trkpt><trkpt lat="44.05204410467473" lon="12.087862281944648"><ele>182.0</ele><time>2026-04-18T10:23:04.966Z</time></trkpt><trkpt lat="44.05209916098769" lon="12.08792955020089"><ele>183.33333333333334</ele><time>2026-04-18T10:23:05.966Z</time></trkpt><trkpt lat="44.052157584878316" lon="12.087993981179846"><ele>184.66666666666666</ele><time>2026-04-18T10:23:06.966Z</time></trkpt><trkpt lat="44.05221426940869" lon="12.088053584534586"><ele>186.0</ele><time>2026-04-18T10:23:07.966Z</time></trkpt><trkpt lat="44.05228382391117" lon="12.088177761300706"><ele>186.0</ele><time>2026-04-18T10:23:09.966Z</time></trkpt><trkpt lat="44.05228971466626" lon="12.088322871852252"><ele>186.0</ele><time>2026-04-18T10:23:11.966Z</time></trkpt><trkpt lat="44.05220800884078" lon="12.08841069402769"><ele>186.0</ele><time>2026-04-18T10:23:13.966Z</time></trkpt><trkpt lat="44.05210422292727" lon="12.088340918664047"><ele>186.0</ele><time>2026-04-18T10:23:15.966Z</time></trkpt><trkpt lat="44.052010329301794" lon="12.088190083196324"><ele>186.0</ele><time>2026-04-18T10:23:17.966Z</time></trkpt><trkpt lat="44.0519390229877" lon="12.08811112402912"><ele>186.0</ele><time>2026-04-18T10:23:18.966Z</time></trkpt><trkpt lat="44.05187668339533" lon="12.088026177902616"><ele>186.0</ele><time>2026-04-18T10:23:19.966Z</time></trkpt><trkpt lat="44.05180814134642" lon="12.087948743105894"><ele>186.0</ele><time>2026-04-18T10:23:20.966Z</time></trkpt><trkpt lat="44.0517359263558" lon="12.087879105168856"><ele>186.0</ele><time>2026-04-18T10:23:21.966Z</time></trkpt><trkpt lat="44.05166761608885" lon="12.087807187383605"><ele>186.0</ele><time>2026-04-18T10:23:22.966Z</time></trkpt><trkpt lat="44.051606657388405" lon="12.087740646853266"><ele>187.57142857142858</ele><time>2026-04-18T10:23:23.966Z</time></trkpt><trkpt lat="44.051553361979245" lon="12.08766419611421"><ele>189.14285714285714</ele><time>2026-04-18T10:23:24.966Z</time></trkpt><trkpt lat="44.051519751292936" lon="12.087576055573676"><ele>190.71428571428572</ele><time>2026-04-18T10:23:25.966Z</time></trkpt><trkpt lat="44.05149923426659" lon="12.08747924065557"><ele>192.28571428571428</ele><time>2026-04-18T10:23:26.966Z</time></trkpt><trkpt lat="44.05147009878615" lon="12.087389402145726"><ele>193.85714285714286</ele><time>2026-04-18T10:23:27.966Z</time></trkpt><trkpt lat="44.05142431188913" lon="12.087308699364195"><ele>195.42857142857144</ele><time>2026-04-18T10:23:28.966Z</time></trkpt><trkpt lat="44.05136738367882" lon="12.087248067256676"><ele>197.0</ele><time>2026-04-18T10:23:29.966Z</time></trkpt><trkpt lat="44.0512956987064" lon="12.087179325227018"><ele>197.0</ele><time>2026-04-18T10:23:30.966Z</time></trkpt><trkpt lat="44.05120914656298" lon="12.087118703393559"><ele>197.0</ele><time>2026-04-18T10:23:31.966Z</time></trkpt><trkpt lat="44.051122756284116" lon="12.087053956868768"><ele>197.0</ele><time>2026-04-18T10:23:32.966Z</time></trkpt><trkpt lat="44.051035800935125" lon="12.08698064456739"><ele>197.0</ele><time>2026-04-18T10:23:33.965Z</time></trkpt><trkpt lat="44.05095724629764" lon="12.086904423484233"><ele>197.0</ele><time>2026-04-18T10:23:34.965Z</time></trkpt><trkpt lat="44.050894073544306" lon="12.086809496001953"><ele>197.00000000000003</ele><time>2026-04-18T10:23:35.965Z</time></trkpt><trkpt lat="44.050836025623965" lon="12.086721235138377"><ele>197.0</ele><time>2026-04-18T10:23:36.965Z</time></trkpt><trkpt lat="44.05077417153693" lon="12.08663422402066"><ele>197.0</ele><time>2026-04-18T10:23:37.965Z</time></trkpt><trkpt lat="44.050719275627074" lon="12.086531356827434"><ele>197.0</ele><time>2026-04-18T10:23:38.965Z</time></trkpt><trkpt lat="44.05067058645456" lon="12.08642905995144"><ele>197.00000000000003</ele><time>2026-04-18T10:23:39.965Z</time></trkpt><trkpt lat="44.05062419943245" lon="12.08635942861694"><ele>197.0</ele><time>2026-04-18T10:23:40.965Z</time></trkpt><trkpt lat="44.05053454719034" lon="12.086300339635642"><ele>196.39999999999998</ele><time>2026-04-18T10:23:42.965Z</time></trkpt><trkpt lat="44.05042245513624" lon="12.086320418019037"><ele>195.79999999999998</ele><time>2026-04-18T10:23:44.965Z</time></trkpt><trkpt lat="44.05037761389193" lon="12.086388158068116"><ele>195.2</ele><time>2026-04-18T10:23:45.965Z</time></trkpt><trkpt lat="44.05034749159354" lon="12.086559193579586"><ele>194.6</ele><time>2026-04-18T10:23:47.965Z</time></trkpt><trkpt lat="44.050376678084255" lon="12.086655809979348"><ele>194.0</ele><time>2026-04-18T10:23:48.965Z</time></trkpt><trkpt lat="44.050428733464294" lon="12.086736860513609"><ele>196.00000000000003</ele><time>2026-04-18T10:23:49.965Z</time></trkpt><trkpt lat="44.0504824707968" lon="12.086822046298865"><ele>198.0</ele><time>2026-04-18T10:23:50.965Z</time></trkpt><trkpt lat="44.050533631446214" lon="12.086905924611406"><ele>200.0</ele><time>2026-04-18T10:23:51.965Z</time></trkpt><trkpt lat="44.05056868137043" lon="12.086980043119539"><ele>202.0</ele><time>2026-04-18T10:23:52.965Z</time></trkpt><trkpt lat="44.05060628382453" lon="12.087052786444563"><ele>204.00000000000003</ele><time>2026-04-18T10:23:53.965Z</time></trkpt><trkpt lat="44.05064075503367" lon="12.087227173988348"><ele>206.0</ele><time>2026-04-18T10:23:55.965Z</time></trkpt><trkpt lat="44.0506593157364" lon="12.087325730751516"><ele>207.83333333333334</ele><time>2026-04-18T10:23:56.965Z</time></trkpt><trkpt lat="44.05067674402647" lon="12.08744464501503"><ele>209.66666666666669</ele><time>2026-04-18T10:23:57.965Z</time></trkpt><trkpt lat="44.05068962694282" lon="12.087561021491029"><ele>211.5</ele><time>2026-04-18T10:23:58.965Z</time></trkpt><trkpt lat="44.05070321206497" lon="12.08769510859101"><ele>213.33333333333331</ele><time>2026-04-18T10:23:59.965Z</time></trkpt><trkpt lat="44.050713760185396" lon="12.087818713473505"><ele>215.16666666666666</ele><time>2026-04-18T10:24:00.965Z</time></trkpt><trkpt lat="44.0507240756595" lon="12.087941102173682"><ele>217.0</ele><time>2026-04-18T10:24:01.965Z</time></trkpt><trkpt lat="44.050735857207826" lon="12.088070978468364"><ele>216.99999999999997</ele><time>2026-04-18T10:24:02.965Z</time></trkpt><trkpt lat="44.05075242516233" lon="12.08819695232246"><ele>217.0</ele><time>2026-04-18T10:24:03.965Z</time></trkpt><trkpt lat="44.050787996757876" lon="12.088298520833801"><ele>217.0</ele><time>2026-04-18T10:24:04.966Z</time></trkpt><trkpt lat="44.050817347638954" lon="12.088407410495916"><ele>217.0</ele><time>2026-04-18T10:24:05.966Z</time></trkpt><trkpt lat="44.05085101207317" lon="12.088513194655782"><ele>216.99999999999997</ele><time>2026-04-18T10:24:06.966Z</time></trkpt><trkpt lat="44.050888259488985" lon="12.088607644500899"><ele>217.0</ele><time>2026-04-18T10:24:07.966Z</time></trkpt><trkpt lat="44.050938934147624" lon="12.08876497569116"><ele>215.66666666666666</ele><time>2026-04-18T10:24:09.967Z</time></trkpt><trkpt lat="44.0509491073417" lon="12.088860178455512"><ele>214.33333333333331</ele><time>2026-04-18T10:24:10.967Z</time></trkpt><trkpt lat="44.050916745309166" lon="12.089009507857169"><ele>213.0</ele><time>2026-04-18T10:24:12.967Z</time></trkpt><trkpt lat="44.05080736962949" lon="12.089055235657018"><ele>211.66666666666669</ele><time>2026-04-18T10:24:14.968Z</time></trkpt><trkpt lat="44.05075292388169" lon="12.089010159302186"><ele>210.33333333333334</ele><time>2026-04-18T10:24:15.968Z</time></trkpt><trkpt lat="44.0507040188868" lon="12.088939902617115"><ele>209.0</ele><time>2026-04-18T10:24:16.968Z</time></trkpt><trkpt lat="44.050665959888654" lon="12.08884230003155"><ele>210.33333333333334</ele><time>2026-04-18T10:24:17.968Z</time></trkpt><trkpt lat="44.05063918066614" lon="12.088717045686774"><ele>211.66666666666669</ele><time>2026-04-18T10:24:18.968Z</time></trkpt><trkpt lat="44.05060301648481" lon="12.088598246251355"><ele>213.0</ele><time>2026-04-18T10:24:19.968Z</time></trkpt><trkpt lat="44.05056140136859" lon="12.088487454193503"><ele>214.33333333333331</ele><time>2026-04-18T10:24:20.968Z</time></trkpt><trkpt lat="44.05051875874882" lon="12.088394777362552"><ele>215.66666666666666</ele><time>2026-04-18T10:24:21.968Z</time></trkpt><trkpt lat="44.05047620293653" lon="12.088310817926649"><ele>217.0</ele><time>2026-04-18T10:24:22.968Z</time></trkpt><trkpt lat="44.050426320629576" lon="12.088212903305793"><ele>216.99999999999997</ele><time>2026-04-18T10:24:23.968Z</time></trkpt><trkpt lat="44.05038276316255" lon="12.088119881590723"><ele>217.0</ele><time>2026-04-18T10:24:24.969Z</time></trkpt><trkpt lat="44.05033400133403" lon="12.088036513301567"><ele>217.0</ele><time>2026-04-18T10:24:25.969Z</time></trkpt><trkpt lat="44.05028169034529" lon="12.087962627405561"><ele>217.0</ele><time>2026-04-18T10:24:26.969Z</time></trkpt><trkpt lat="44.050226035985084" lon="12.087893056144035"><ele>216.99999999999997</ele><time>2026-04-18T10:24:27.969Z</time></trkpt><trkpt lat="44.05016527435066" lon="12.08784702856887"><ele>217.0</ele><time>2026-04-18T10:24:28.969Z</time></trkpt><trkpt lat="44.05009065104326" lon="12.087813012030923"><ele>216.99999999999997</ele><time>2026-04-18T10:24:29.969Z</time></trkpt><trkpt lat="44.050016296595864" lon="12.087800495469144"><ele>217.0</ele><time>2026-04-18T10:24:30.969Z</time></trkpt><trkpt lat="44.04994429070391" lon="12.08779347385374"><ele>217.0</ele><time>2026-04-18T10:24:31.969Z</time></trkpt><trkpt lat="44.049868254355104" lon="12.087811778197636"><ele>217.0</ele><time>2026-04-18T10:24:32.969Z</time></trkpt><trkpt lat="44.049795222763365" lon="12.087856572048171"><ele>216.99999999999997</ele><time>2026-04-18T10:24:33.969Z</time></trkpt><trkpt lat="44.049728702247" lon="12.087910185703876"><ele>217.0</ele><time>2026-04-18T10:24:34.969Z</time></trkpt><trkpt lat="44.04967831662865" lon="12.087980733810383"><ele>216.2</ele><time>2026-04-18T10:24:35.969Z</time></trkpt><trkpt lat="44.04964140322003" lon="12.088075262620393"><ele>215.39999999999998</ele><time>2026-04-18T10:24:36.969Z</time></trkpt><trkpt lat="44.04960686012675" lon="12.088182643496943"><ele>214.60000000000002</ele><time>2026-04-18T10:24:37.969Z</time></trkpt><trkpt lat="44.04957257018004" lon="12.088296618332695"><ele>213.8</ele><time>2026-04-18T10:24:38.969Z</time></trkpt><trkpt lat="44.04954092372059" lon="12.088424108750733"><ele>213.0</ele><time>2026-04-18T10:24:39.969Z</time></trkpt><trkpt lat="44.04948180152701" lon="12.08855118638026"><ele>214.83333333333334</ele><time>2026-04-18T10:24:40.969Z</time></trkpt><trkpt lat="44.04944425764562" lon="12.08867472260618"><ele>216.66666666666669</ele><time>2026-04-18T10:24:41.969Z</time></trkpt><trkpt lat="44.04940894029546" lon="12.088785561989779"><ele>218.5</ele><time>2026-04-18T10:24:42.969Z</time></trkpt><trkpt lat="44.04937658754841" lon="12.088879034833901"><ele>220.33333333333334</ele><time>2026-04-18T10:24:43.969Z</time></trkpt><trkpt lat="44.04933147606989" lon="12.088976922997393"><ele>222.16666666666669</ele><time>2026-04-18T10:24:44.969Z</time></trkpt><trkpt lat="44.049276073602734" lon="12.089066534228722"><ele>224.0</ele><time>2026-04-18T10:24:45.969Z</time></trkpt><trkpt lat="44.049209049366596" lon="12.08914151699265"><ele>224.6</ele><time>2026-04-18T10:24:46.969Z</time></trkpt><trkpt lat="44.049135551201125" lon="12.0892120656511"><ele>225.2</ele><time>2026-04-18T10:24:47.969Z</time></trkpt><trkpt lat="44.04905377320449" lon="12.08929019922658"><ele>225.79999999999998</ele><time>2026-04-18T10:24:48.969Z</time></trkpt><trkpt lat="44.04897330251672" lon="12.089364781021613"><ele>226.39999999999998</ele><time>2026-04-18T10:24:49.969Z</time></trkpt><trkpt lat="44.048890479401216" lon="12.089450536024147"><ele>227.0</ele><time>2026-04-18T10:24:50.969Z</time></trkpt><trkpt lat="44.04881112700054" lon="12.089532254738215"><ele>227.0</ele><time>2026-04-18T10:24:51.969Z</time></trkpt><trkpt lat="44.048712993054814" lon="12.089599846795027"><ele>227.0</ele><time>2026-04-18T10:24:52.969Z</time></trkpt><trkpt lat="44.04862381433039" lon="12.089686241889572"><ele>227.0</ele><time>2026-04-18T10:24:53.971Z</time></trkpt><trkpt lat="44.04853930030725" lon="12.0897539810159"><ele>227.0</ele><time>2026-04-18T10:24:54.971Z</time></trkpt><trkpt lat="44.048458529801" lon="12.089824015076617"><ele>227.0</ele><time>2026-04-18T10:24:55.971Z</time></trkpt><trkpt lat="44.048381120900316" lon="12.089883532555353"><ele>228.0</ele><time>2026-04-18T10:24:56.97Z</time></trkpt><trkpt lat="44.048302736651905" lon="12.089934295925401"><ele>229.0</ele><time>2026-04-18T10:24:57.971Z</time></trkpt><trkpt lat="44.04821694916513" lon="12.08997348851329"><ele>230.0</ele><time>2026-04-18T10:24:58.971Z</time></trkpt><trkpt lat="44.048124117192316" lon="12.089988834416012"><ele>231.0</ele><time>2026-04-18T10:24:59.97Z</time></trkpt><trkpt lat="44.04802709145916" lon="12.090002347477975"><ele>232.0</ele><time>2026-04-18T10:25:00.971Z</time></trkpt><trkpt lat="44.047933159470695" lon="12.090014540303738"><ele>233.0</ele><time>2026-04-18T10:25:01.971Z</time></trkpt><trkpt lat="44.047835653549576" lon="12.090027291794874"><ele>234.0</ele><time>2026-04-18T10:25:02.971Z</time></trkpt><trkpt lat="44.04773680941354" lon="12.090040462490741"><ele>235.0</ele><time>2026-04-18T10:25:03.971Z</time></trkpt><trkpt lat="44.047634942476925" lon="12.090059454293431"><ele>236.0</ele><time>2026-04-18T10:25:04.971Z</time></trkpt><trkpt lat="44.04754328650156" lon="12.090071593728307"><ele>237.0</ele><time>2026-04-18T10:25:05.97Z</time></trkpt><trkpt lat="44.04744374898012" lon="12.090092689631252"><ele>237.0</ele><time>2026-04-18T10:25:06.971Z</time></trkpt><trkpt lat="44.04735458159577" lon="12.090123366506342"><ele>237.0</ele><time>2026-04-18T10:25:07.971Z</time></trkpt><trkpt lat="44.04726395626449" lon="12.090177392279937"><ele>237.0</ele><time>2026-04-18T10:25:08.971Z</time></trkpt><trkpt lat="44.04717147281145" lon="12.090239002373474"><ele>237.0</ele><time>2026-04-18T10:25:09.971Z</time></trkpt><trkpt lat="44.04707975510631" lon="12.090293408727423"><ele>237.0</ele><time>2026-04-18T10:25:10.971Z</time></trkpt><trkpt lat="44.04698631246155" lon="12.090358722490155"><ele>237.0</ele><time>2026-04-18T10:25:11.971Z</time></trkpt><trkpt lat="44.046903410528344" lon="12.090413198243708"><ele>237.0</ele><time>2026-04-18T10:25:12.971Z</time></trkpt><trkpt lat="44.04683514734113" lon="12.090464517640061"><ele>237.0</ele><time>2026-04-18T10:25:13.971Z</time></trkpt><trkpt lat="44.04677554611144" lon="12.090509910643663"><ele>237.0</ele><time>2026-04-18T10:25:14.971Z</time></trkpt><trkpt lat="44.04671137283967" lon="12.090607690342596"><ele>237.0</ele><time>2026-04-18T10:25:16.971Z</time></trkpt><trkpt lat="44.04668555405614" lon="12.090721038676797"><ele>237.0</ele><time>2026-04-18T10:25:18.971Z</time></trkpt><trkpt lat="44.046707276462286" lon="12.09080641975947"><ele>238.83333333333334</ele><time>2026-04-18T10:25:19.971Z</time></trkpt><trkpt lat="44.04675731757283" lon="12.09088468750345"><ele>240.66666666666669</ele><time>2026-04-18T10:25:20.971Z</time></trkpt><trkpt lat="44.04683087534582" lon="12.09091511215749"><ele>242.5</ele><time>2026-04-18T10:25:21.971Z</time></trkpt><trkpt lat="44.04691717866853" lon="12.09090004004432"><ele>244.33333333333334</ele><time>2026-04-18T10:25:22.971Z</time></trkpt><trkpt lat="44.04699039624601" lon="12.09088160226997"><ele>246.16666666666669</ele><time>2026-04-18T10:25:23.971Z</time></trkpt><trkpt lat="44.04706869463785" lon="12.090870349152086"><ele>248.0</ele><time>2026-04-18T10:25:24.971Z</time></trkpt><trkpt lat="44.04713762511068" lon="12.090888702772222"><ele>248.00000000000003</ele><time>2026-04-18T10:25:25.971Z</time></trkpt><trkpt lat="44.04720034534827" lon="12.090911534332031"><ele>248.0</ele><time>2026-04-18T10:25:26.971Z</time></trkpt><trkpt lat="44.04728825888353" lon="12.091033949284643"><ele>248.0</ele><time>2026-04-18T10:25:28.971Z</time></trkpt><trkpt lat="44.04731309364909" lon="12.091135943858964"><ele>248.0</ele><time>2026-04-18T10:25:29.971Z</time></trkpt><trkpt lat="44.047298759153676" lon="12.091224994720696"><ele>248.00000000000003</ele><time>2026-04-18T10:25:30.971Z</time></trkpt><trkpt lat="44.04729613946161" lon="12.091326037622034"><ele>248.0</ele><time>2026-04-18T10:25:31.971Z</time></trkpt><trkpt lat="44.04728968898448" lon="12.09145326194953"><ele>248.0</ele><time>2026-04-18T10:25:32.971Z</time></trkpt><trkpt lat="44.04727885181593" lon="12.091565521308938"><ele>248.0</ele><time>2026-04-18T10:25:33.971Z</time></trkpt><trkpt lat="44.04723117849642" lon="12.091701682048685"><ele>248.0</ele><time>2026-04-18T10:25:35.971Z</time></trkpt><trkpt lat="44.04713399559679" lon="12.09180779593662"><ele>248.0</ele><time>2026-04-18T10:25:37.971Z</time></trkpt><trkpt lat="44.04705060346912" lon="12.091809421631314"><ele>248.0</ele><time>2026-04-18T10:25:38.971Z</time></trkpt><trkpt lat="44.04697076041205" lon="12.0918200768384"><ele>250.00000000000003</ele><time>2026-04-18T10:25:39.971Z</time></trkpt><trkpt lat="44.0468812985731" lon="12.091824957470868"><ele>252.0</ele><time>2026-04-18T10:25:40.971Z</time></trkpt><trkpt lat="44.04679280794985" lon="12.091827100646197"><ele>254.0</ele><time>2026-04-18T10:25:41.971Z</time></trkpt><trkpt lat="44.04670684988924" lon="12.09183548863013"><ele>256.0</ele><time>2026-04-18T10:25:42.971Z</time></trkpt><trkpt lat="44.046625588997415" lon="12.091857200831582"><ele>258.0</ele><time>2026-04-18T10:25:43.971Z</time></trkpt><trkpt lat="44.04655345250606" lon="12.091878400532261"><ele>260.0</ele><time>2026-04-18T10:25:44.971Z</time></trkpt><trkpt lat="44.04649067469725" lon="12.091916079936654"><ele>260.1666666666667</ele><time>2026-04-18T10:25:45.971Z</time></trkpt><trkpt lat="44.046445627162136" lon="12.091979998101657"><ele>260.33333333333337</ele><time>2026-04-18T10:25:46.971Z</time></trkpt><trkpt lat="44.04640815360776" lon="12.092062018041906"><ele>260.5</ele><time>2026-04-18T10:25:47.971Z</time></trkpt><trkpt lat="44.04637355917514" lon="12.092172965477843"><ele>260.6666666666667</ele><time>2026-04-18T10:25:48.971Z</time></trkpt><trkpt lat="44.04637400949539" lon="12.092294828807294"><ele>260.8333333333333</ele><time>2026-04-18T10:25:49.971Z</time></trkpt><trkpt lat="44.046351145759" lon="12.092412085934031"><ele>261.0</ele><time>2026-04-18T10:25:50.971Z</time></trkpt><trkpt lat="44.04632478104673" lon="12.09252293286947"><ele>263.1666666666667</ele><time>2026-04-18T10:25:51.97Z</time></trkpt><trkpt lat="44.0462882392875" lon="12.092609637534858"><ele>265.3333333333333</ele><time>2026-04-18T10:25:52.97Z</time></trkpt><trkpt lat="44.04623340188813" lon="12.092677582982144"><ele>267.5</ele><time>2026-04-18T10:25:53.97Z</time></trkpt><trkpt lat="44.04615883535817" lon="12.092713399093855"><ele>269.66666666666663</ele><time>2026-04-18T10:25:54.97Z</time></trkpt><trkpt lat="44.04608512133623" lon="12.092739805997551"><ele>271.8333333333333</ele><time>2026-04-18T10:25:55.97Z</time></trkpt><trkpt lat="44.045991064456786" lon="12.092774392147634"><ele>274.0</ele><time>2026-04-18T10:25:56.97Z</time></trkpt><trkpt lat="44.0459330114677" lon="12.0928278656269"><ele>274.0</ele><time>2026-04-18T10:25:57.97Z</time></trkpt><trkpt lat="44.04585900370923" lon="12.092863674800684"><ele>274.0</ele><time>2026-04-18T10:25:58.97Z</time></trkpt><trkpt lat="44.045821989156295" lon="12.092953847459594"><ele>274.0</ele><time>2026-04-18T10:25:59.97Z</time></trkpt><trkpt lat="44.04577304180948" lon="12.093036650381157"><ele>274.0</ele><time>2026-04-18T10:26:00.97Z</time></trkpt><trkpt lat="44.04574597094362" lon="12.093148690161938"><ele>274.0</ele><time>2026-04-18T10:26:01.97Z</time></trkpt><trkpt lat="44.04575495534475" lon="12.09328101498084"><ele>274.0</ele><time>2026-04-18T10:26:02.97Z</time></trkpt><trkpt lat="44.04574488620699" lon="12.093401112455156"><ele>276.0</ele><time>2026-04-18T10:26:03.97Z</time></trkpt><trkpt lat="44.04572832936679" lon="12.093515800539159"><ele>278.0</ele><time>2026-04-18T10:26:04.97Z</time></trkpt><trkpt lat="44.04569381630402" lon="12.09362581536371"><ele>280.0</ele><time>2026-04-18T10:26:05.97Z</time></trkpt><trkpt lat="44.04566003805758" lon="12.093726648069246"><ele>282.0</ele><time>2026-04-18T10:26:06.97Z</time></trkpt><trkpt lat="44.04562547583119" lon="12.093833771518641"><ele>284.0</ele><time>2026-04-18T10:26:07.97Z</time></trkpt><trkpt lat="44.04555464225519" lon="12.09392546000576"><ele>286.0</ele><time>2026-04-18T10:26:08.97Z</time></trkpt><trkpt lat="44.045503399493654" lon="12.094043397543139"><ele>286.8333333333333</ele><time>2026-04-18T10:26:09.97Z</time></trkpt><trkpt lat="44.04549017836062" lon="12.094151711019038"><ele>287.66666666666663</ele><time>2026-04-18T10:26:10.97Z</time></trkpt><trkpt lat="44.04547816952474" lon="12.094264694880922"><ele>288.5</ele><time>2026-04-18T10:26:11.97Z</time></trkpt><trkpt lat="44.045466159844494" lon="12.094386455688332"><ele>289.3333333333333</ele><time>2026-04-18T10:26:12.97Z</time></trkpt><trkpt lat="44.045454163557665" lon="12.094499441845072"><ele>290.1666666666667</ele><time>2026-04-18T10:26:13.97Z</time></trkpt><trkpt lat="44.04543711910221" lon="12.09459417225077"><ele>291.0</ele><time>2026-04-18T10:26:14.97Z</time></trkpt><trkpt lat="44.045390730707176" lon="12.0946590951684"><ele>291.0</ele><time>2026-04-18T10:26:15.97Z</time></trkpt><trkpt lat="44.0453170613143" lon="12.094724570536972"><ele>291.0</ele><time>2026-04-18T10:26:17.97Z</time></trkpt><trkpt lat="44.04525196927134" lon="12.094684037402908"><ele>291.0</ele><time>2026-04-18T10:26:18.97Z</time></trkpt><trkpt lat="44.04515299433447" lon="12.094569363273573"><ele>291.0</ele><time>2026-04-18T10:26:20.97Z</time></trkpt><trkpt lat="44.045130897730544" lon="12.094436185102882"><ele>291.0</ele><time>2026-04-18T10:26:21.97Z</time></trkpt><trkpt lat="44.0451236727256" lon="12.094298347220725"><ele>291.0</ele><time>2026-04-18T10:26:22.97Z</time></trkpt><trkpt lat="44.0451093780077" lon="12.094177955711682"><ele>291.0</ele><time>2026-04-18T10:26:23.97Z</time></trkpt><trkpt lat="44.04508421192494" lon="12.09407479699"><ele>291.0</ele><time>2026-04-18T10:26:24.97Z</time></trkpt><trkpt lat="44.04504821277828" lon="12.093992500105625"><ele>291.0</ele><time>2026-04-18T10:26:25.97Z</time></trkpt><trkpt lat="44.04499565453527" lon="12.09392507746888"><ele>291.0</ele><time>2026-04-18T10:26:26.97Z</time></trkpt><trkpt lat="44.04493542017546" lon="12.093868647497704"><ele>291.0</ele><time>2026-04-18T10:26:27.97Z</time></trkpt><trkpt lat="44.04487188173538" lon="12.093842149794678"><ele>291.0</ele><time>2026-04-18T10:26:28.97Z</time></trkpt><trkpt lat="44.04480532450057" lon="12.093812666494093"><ele>290.1666666666667</ele><time>2026-04-18T10:26:29.97Z</time></trkpt><trkpt lat="44.04473087853424" lon="12.093815646189768"><ele>289.3333333333333</ele><time>2026-04-18T10:26:30.97Z</time></trkpt><trkpt lat="44.04465786712582" lon="12.093816379950866"><ele>288.5</ele><time>2026-04-18T10:26:31.97Z</time></trkpt><trkpt lat="44.044572121969445" lon="12.093829477127416"><ele>287.66666666666663</ele><time>2026-04-18T10:26:32.97Z</time></trkpt><trkpt lat="44.04449223417712" lon="12.093842148325995"><ele>286.8333333333333</ele><time>2026-04-18T10:26:33.97Z</time></trkpt><trkpt lat="44.044417089774704" lon="12.093857100055967"><ele>286.0</ele><time>2026-04-18T10:26:34.97Z</time></trkpt><trkpt lat="44.04429472931849" lon="12.093875632092093"><ele>286.0</ele><time>2026-04-18T10:26:36.97Z</time></trkpt><trkpt lat="44.044219068917066" lon="12.093871620781524"><ele>286.0</ele><time>2026-04-18T10:26:37.97Z</time></trkpt><trkpt lat="44.04415228574326" lon="12.093888427435108"><ele>286.0</ele><time>2026-04-18T10:26:38.97Z</time></trkpt><trkpt lat="44.044054382396425" lon="12.09394678137715"><ele>286.0</ele><time>2026-04-18T10:26:40.97Z</time></trkpt><trkpt lat="44.04394800331772" lon="12.093989954341575"><ele>286.0</ele><time>2026-04-18T10:26:42.97Z</time></trkpt><trkpt lat="44.04387953606409" lon="12.094042771947695"><ele>286.0</ele><time>2026-04-18T10:26:43.97Z</time></trkpt><trkpt lat="44.04381191429327" lon="12.094114077142034"><ele>288.16666666666663</ele><time>2026-04-18T10:26:44.97Z</time></trkpt><trkpt lat="44.04374309722203" lon="12.09419472272943"><ele>290.3333333333333</ele><time>2026-04-18T10:26:45.97Z</time></trkpt><trkpt lat="44.043680092597405" lon="12.094272308641113"><ele>292.5</ele><time>2026-04-18T10:26:46.97Z</time></trkpt><trkpt lat="44.04362822306316" lon="12.094354022414405"><ele>294.6666666666667</ele><time>2026-04-18T10:26:47.97Z</time></trkpt><trkpt lat="44.04357277493146" lon="12.094441316677011"><ele>296.83333333333337</ele><time>2026-04-18T10:26:48.97Z</time></trkpt><trkpt lat="44.04351389901754" lon="12.094532807472891"><ele>299.0</ele><time>2026-04-18T10:26:49.97Z</time></trkpt><trkpt lat="44.04345208273799" lon="12.094616232738126"><ele>299.0</ele><time>2026-04-18T10:26:50.97Z</time></trkpt><trkpt lat="44.04337798758127" lon="12.094677772766882"><ele>299.0</ele><time>2026-04-18T10:26:51.97Z</time></trkpt><trkpt lat="44.04329922592886" lon="12.09471135368727"><ele>299.0</ele><time>2026-04-18T10:26:52.97Z</time></trkpt><trkpt lat="44.043224367150195" lon="12.094765558632306"><ele>299.0</ele><time>2026-04-18T10:26:53.97Z</time></trkpt><trkpt lat="44.0431370665092" lon="12.094782063476888"><ele>299.0</ele><time>2026-04-18T10:26:54.97Z</time></trkpt><trkpt lat="44.04306124471432" lon="12.094794742469194"><ele>299.0</ele><time>2026-04-18T10:26:55.97Z</time></trkpt><trkpt lat="44.0429776875909" lon="12.094797501641224"><ele>300.1666666666667</ele><time>2026-04-18T10:26:56.97Z</time></trkpt><trkpt lat="44.04289578421216" lon="12.094777403909761"><ele>301.33333333333337</ele><time>2026-04-18T10:26:57.97Z</time></trkpt><trkpt lat="44.042805342979946" lon="12.094772534984456"><ele>302.5</ele><time>2026-04-18T10:26:58.97Z</time></trkpt><trkpt lat="44.042713560227256" lon="12.094760557757146"><ele>303.6666666666667</ele><time>2026-04-18T10:26:59.971Z</time></trkpt><trkpt lat="44.042631626586655" lon="12.09473900421057"><ele>304.8333333333333</ele><time>2026-04-18T10:27:00.971Z</time></trkpt><trkpt lat="44.04255295077542" lon="12.094710084177287"><ele>306.0</ele><time>2026-04-18T10:27:01.971Z</time></trkpt><trkpt lat="44.04248160473704" lon="12.094671449755431"><ele>306.8333333333333</ele><time>2026-04-18T10:27:02.971Z</time></trkpt><trkpt lat="44.04240536780857" lon="12.094623813700093"><ele>307.6666666666667</ele><time>2026-04-18T10:27:03.971Z</time></trkpt><trkpt lat="44.042335228825394" lon="12.094564366014948"><ele>308.5</ele><time>2026-04-18T10:27:04.971Z</time></trkpt><trkpt lat="44.042264906264954" lon="12.094494430995589"><ele>309.33333333333337</ele><time>2026-04-18T10:27:05.97Z</time></trkpt><trkpt lat="44.04218902104781" lon="12.094415426990182"><ele>310.1666666666667</ele><time>2026-04-18T10:27:06.971Z</time></trkpt><trkpt lat="44.04211340130717" lon="12.094336444967462"><ele>311.0</ele><time>2026-04-18T10:27:07.971Z</time></trkpt><trkpt lat="44.0420387466342" lon="12.094264353021133"><ele>311.0</ele><time>2026-04-18T10:27:08.971Z</time></trkpt><trkpt lat="44.04196016817463" lon="12.094180294499465"><ele>311.0</ele><time>2026-04-18T10:27:09.97Z</time></trkpt><trkpt lat="44.041881114454945" lon="12.094096127008955"><ele>311.0</ele><time>2026-04-18T10:27:10.97Z</time></trkpt><trkpt lat="44.04179910954826" lon="12.094017032792166"><ele>311.0</ele><time>2026-04-18T10:27:11.971Z</time></trkpt><trkpt lat="44.04171517741778" lon="12.093941199358841"><ele>311.0</ele><time>2026-04-18T10:27:12.971Z</time></trkpt><trkpt lat="44.041624472588396" lon="12.093876610047804"><ele>313.0</ele><time>2026-04-18T10:27:13.971Z</time></trkpt><trkpt lat="44.041531634231276" lon="12.093829209544921"><ele>315.0</ele><time>2026-04-18T10:27:14.971Z</time></trkpt><trkpt lat="44.04143330838924" lon="12.09380635565545"><ele>317.0</ele><time>2026-04-18T10:27:15.971Z</time></trkpt><trkpt lat="44.04133102943795" lon="12.093791902532605"><ele>319.0</ele><time>2026-04-18T10:27:16.971Z</time></trkpt><trkpt lat="44.04122634664894" lon="12.093779912193659"><ele>321.0</ele><time>2026-04-18T10:27:17.971Z</time></trkpt><trkpt lat="44.04112868307046" lon="12.093788018821902"><ele>321.0</ele><time>2026-04-18T10:27:18.971Z</time></trkpt><trkpt lat="44.04102952977537" lon="12.093799490045779"><ele>321.0</ele><time>2026-04-18T10:27:19.971Z</time></trkpt><trkpt lat="44.04093202869365" lon="12.09382705697427"><ele>321.0</ele><time>2026-04-18T10:27:20.971Z</time></trkpt><trkpt lat="44.040833548852945" lon="12.09386182059438"><ele>321.0</ele><time>2026-04-18T10:27:21.971Z</time></trkpt><trkpt lat="44.040742151843425" lon="12.093899974128494"><ele>321.0</ele><time>2026-04-18T10:27:22.971Z</time></trkpt><trkpt lat="44.04064899281708" lon="12.093945193348205"><ele>323.4</ele><time>2026-04-18T10:27:23.971Z</time></trkpt><trkpt lat="44.04055475939468" lon="12.093995831070004"><ele>325.8</ele><time>2026-04-18T10:27:24.971Z</time></trkpt><trkpt lat="44.0404567853881" lon="12.094004127397602"><ele>328.2</ele><time>2026-04-18T10:27:25.971Z</time></trkpt><trkpt lat="44.04036929104873" lon="12.094019832825861"><ele>330.59999999999997</ele><time>2026-04-18T10:27:26.971Z</time></trkpt><trkpt lat="44.040279974519756" lon="12.094022623946334"><ele>333.0</ele><time>2026-04-18T10:27:27.971Z</time></trkpt><trkpt lat="44.04019293388762" lon="12.093990159260011"><ele>333.0</ele><time>2026-04-18T10:27:28.971Z</time></trkpt><trkpt lat="44.04010532856646" lon="12.093944748104969"><ele>333.0</ele><time>2026-04-18T10:27:29.971Z</time></trkpt><trkpt lat="44.04001988810971" lon="12.093889039770794"><ele>333.0</ele><time>2026-04-18T10:27:30.971Z</time></trkpt><trkpt lat="44.03992276640343" lon="12.093815417126214"><ele>333.0</ele><time>2026-04-18T10:27:31.971Z</time></trkpt><trkpt lat="44.039829031811784" lon="12.093744809032904"><ele>333.0</ele><time>2026-04-18T10:27:32.971Z</time></trkpt><trkpt lat="44.03973525712367" lon="12.09367623871467"><ele>334.79999999999995</ele><time>2026-04-18T10:27:33.971Z</time></trkpt><trkpt lat="44.03963869403906" lon="12.093623109702005"><ele>336.6</ele><time>2026-04-18T10:27:34.971Z</time></trkpt><trkpt lat="44.03955333409016" lon="12.09356989325235"><ele>338.4</ele><time>2026-04-18T10:27:35.971Z</time></trkpt><trkpt lat="44.039466286139366" lon="12.093540390499003"><ele>340.20000000000005</ele><time>2026-04-18T10:27:36.971Z</time></trkpt><trkpt lat="44.039368651500155" lon="12.093525341516644"><ele>342.0</ele><time>2026-04-18T10:27:37.971Z</time></trkpt><trkpt lat="44.03927621071525" lon="12.093504457584347"><ele>342.0</ele><time>2026-04-18T10:27:38.971Z</time></trkpt><trkpt lat="44.03917862925227" lon="12.093485162968262"><ele>342.0</ele><time>2026-04-18T10:27:39.971Z</time></trkpt><trkpt lat="44.03909656613304" lon="12.093473367612221"><ele>342.0</ele><time>2026-04-18T10:27:40.971Z</time></trkpt><trkpt lat="44.03902636191425" lon="12.09347202321491"><ele>342.0</ele><time>2026-04-18T10:27:41.971Z</time></trkpt><trkpt lat="44.03896322373133" lon="12.093483644081276"><ele>342.0</ele><time>2026-04-18T10:27:42.971Z</time></trkpt><trkpt lat="44.03886140173585" lon="12.093552763374724"><ele>342.0</ele><time>2026-04-18T10:27:44.971Z</time></trkpt><trkpt lat="44.038749392725975" lon="12.093607128584855"><ele>344.8</ele><time>2026-04-18T10:27:46.971Z</time></trkpt><trkpt lat="44.03865798626547" lon="12.093655884073314"><ele>347.6</ele><time>2026-04-18T10:27:48.971Z</time></trkpt><trkpt lat="44.03857657067925" lon="12.093654683293728"><ele>350.40000000000003</ele><time>2026-04-18T10:27:50.971Z</time></trkpt><trkpt lat="44.03855794324765" lon="12.093515055252418"><ele>353.20000000000005</ele><time>2026-04-18T10:27:52.971Z</time></trkpt><trkpt lat="44.03861816974473" lon="12.093372362046821"><ele>356.0</ele><time>2026-04-18T10:27:54.971Z</time></trkpt><trkpt lat="44.03867536025836" lon="12.093307338525369"><ele>356.83333333333337</ele><time>2026-04-18T10:27:55.971Z</time></trkpt><trkpt lat="44.03873615402696" lon="12.09324637548977"><ele>357.6666666666667</ele><time>2026-04-18T10:27:56.971Z</time></trkpt><trkpt lat="44.03880677675443" lon="12.093200954197703"><ele>358.5</ele><time>2026-04-18T10:27:57.971Z</time></trkpt><trkpt lat="44.03888534044086" lon="12.093154464093878"><ele>359.3333333333333</ele><time>2026-04-18T10:27:58.971Z</time></trkpt><trkpt lat="44.038968285945046" lon="12.09312551707418"><ele>360.16666666666663</ele><time>2026-04-18T10:27:59.971Z</time></trkpt><trkpt lat="44.03906748167119" lon="12.093096407420106"><ele>361.0</ele><time>2026-04-18T10:28:00.971Z</time></trkpt><trkpt lat="44.03915122006959" lon="12.09307672152885"><ele>358.5</ele><time>2026-04-18T10:28:01.971Z</time></trkpt><trkpt lat="44.039228667092154" lon="12.093050102852866"><ele>356.0</ele><time>2026-04-18T10:28:02.971Z</time></trkpt><trkpt lat="44.039294183863504" lon="12.093017242197668"><ele>353.5</ele><time>2026-04-18T10:28:03.971Z</time></trkpt><trkpt lat="44.03934833448477" lon="12.092961724452076"><ele>351.0</ele><time>2026-04-18T10:28:04.971Z</time></trkpt><trkpt lat="44.03938738853607" lon="12.092890291491724"><ele>348.5</ele><time>2026-04-18T10:28:05.971Z</time></trkpt><trkpt lat="44.03937282915531" lon="12.092737380439882"><ele>346.0</ele><time>2026-04-18T10:28:07.971Z</time></trkpt><trkpt lat="44.039276745537116" lon="12.092648332476072"><ele>346.0</ele><time>2026-04-18T10:28:09.971Z</time></trkpt><trkpt lat="44.03921018562208" lon="12.09261860197129"><ele>346.0</ele><time>2026-04-18T10:28:10.971Z</time></trkpt><trkpt lat="44.039133482487486" lon="12.092667436810405"><ele>346.0</ele><time>2026-04-18T10:28:11.97Z</time></trkpt><trkpt lat="44.03905262230858" lon="12.092695862535766"><ele>346.0</ele><time>2026-04-18T10:28:12.97Z</time></trkpt><trkpt lat="44.03897212543226" lon="12.092719552862171"><ele>346.0</ele><time>2026-04-18T10:28:13.97Z</time></trkpt><trkpt lat="44.03889328363905" lon="12.092715766726013"><ele>346.0</ele><time>2026-04-18T10:28:14.97Z</time></trkpt><trkpt lat="44.03882205862665" lon="12.092675337819479"><ele>348.5</ele><time>2026-04-18T10:28:15.97Z</time></trkpt><trkpt lat="44.03873909985653" lon="12.092616582949779"><ele>351.0</ele><time>2026-04-18T10:28:16.97Z</time></trkpt><trkpt lat="44.0386684103035" lon="12.092554559648745"><ele>353.5</ele><time>2026-04-18T10:28:17.97Z</time></trkpt><trkpt lat="44.03860573833794" lon="12.092492157821217"><ele>356.0</ele><time>2026-04-18T10:28:18.97Z</time></trkpt><trkpt lat="44.038540991092674" lon="12.092462220665068"><ele>358.5</ele><time>2026-04-18T10:28:19.97Z</time></trkpt><trkpt lat="44.03846870527439" lon="12.092467424808197"><ele>361.0</ele><time>2026-04-18T10:28:20.97Z</time></trkpt><trkpt lat="44.03839750320774" lon="12.092512834336473"><ele>361.0</ele><time>2026-04-18T10:28:21.97Z</time></trkpt><trkpt lat="44.03833227555808" lon="12.092574643248915"><ele>361.0</ele><time>2026-04-18T10:28:22.97Z</time></trkpt><trkpt lat="44.03826073934855" lon="12.092651425671079"><ele>361.0</ele><time>2026-04-18T10:28:23.97Z</time></trkpt><trkpt lat="44.03818385054624" lon="12.092742725917706"><ele>361.0</ele><time>2026-04-18T10:28:24.97Z</time></trkpt><trkpt lat="44.03811027489842" lon="12.09283905537215"><ele>361.0</ele><time>2026-04-18T10:28:25.97Z</time></trkpt><trkpt lat="44.03803274757904" lon="12.092936423298921"><ele>363.0</ele><time>2026-04-18T10:28:26.97Z</time></trkpt><trkpt lat="44.03796081092741" lon="12.093025574387301"><ele>365.0</ele><time>2026-04-18T10:28:27.97Z</time></trkpt><trkpt lat="44.03789424868739" lon="12.093110563200574"><ele>367.0</ele><time>2026-04-18T10:28:28.97Z</time></trkpt><trkpt lat="44.03781657719505" lon="12.09318795766867"><ele>369.0</ele><time>2026-04-18T10:28:29.97Z</time></trkpt><trkpt lat="44.037745798881076" lon="12.09324906281301"><ele>371.0</ele><time>2026-04-18T10:28:30.97Z</time></trkpt><trkpt lat="44.037659325247965" lon="12.093281276565035"><ele>371.0</ele><time>2026-04-18T10:28:31.97Z</time></trkpt><trkpt lat="44.037575236304804" lon="12.093313414766978"><ele>371.0</ele><time>2026-04-18T10:28:32.97Z</time></trkpt><trkpt lat="44.03749476589131" lon="12.093345586836474"><ele>371.0</ele><time>2026-04-18T10:28:33.97Z</time></trkpt><trkpt lat="44.037405718758805" lon="12.093378887572063"><ele>371.0</ele><time>2026-04-18T10:28:34.97Z</time></trkpt><trkpt lat="44.037320090254916" lon="12.09341330612714"><ele>371.0</ele><time>2026-04-18T10:28:35.97Z</time></trkpt><trkpt lat="44.0372373893429" lon="12.093431132000127"><ele>371.0</ele><time>2026-04-18T10:28:36.97Z</time></trkpt><trkpt lat="44.037144504659885" lon="12.093449473750962"><ele>371.33333333333337</ele><time>2026-04-18T10:28:37.97Z</time></trkpt><trkpt lat="44.037069109737175" lon="12.093464948678859"><ele>371.6666666666667</ele><time>2026-04-18T10:28:38.97Z</time></trkpt><trkpt lat="44.03699053216543" lon="12.093485681589435"><ele>372.0</ele><time>2026-04-18T10:28:39.97Z</time></trkpt><trkpt lat="44.036917907220776" lon="12.093511047415037"><ele>372.3333333333333</ele><time>2026-04-18T10:28:40.97Z</time></trkpt><trkpt lat="44.036799591064984" lon="12.093592183614458"><ele>372.66666666666663</ele><time>2026-04-18T10:28:42.97Z</time></trkpt><trkpt lat="44.03673385905776" lon="12.093648455776014"><ele>373.0</ele><time>2026-04-18T10:28:43.97Z</time></trkpt><trkpt lat="44.03667128073728" lon="12.093720954637488"><ele>373.57142857142856</ele><time>2026-04-18T10:28:44.97Z</time></trkpt><trkpt lat="44.03661785463768" lon="12.093792792490914"><ele>374.14285714285717</ele><time>2026-04-18T10:28:45.97Z</time></trkpt><trkpt lat="44.03657028791284" lon="12.09385733361"><ele>374.71428571428567</ele><time>2026-04-18T10:28:46.97Z</time></trkpt><trkpt lat="44.036531085636106" lon="12.093926310669616"><ele>375.2857142857143</ele><time>2026-04-18T10:28:47.97Z</time></trkpt><trkpt lat="44.036491287095274" lon="12.09399468491092"><ele>375.85714285714283</ele><time>2026-04-18T10:28:48.97Z</time></trkpt><trkpt lat="44.03644781129363" lon="12.094071947939383"><ele>376.4285714285714</ele><time>2026-04-18T10:28:49.97Z</time></trkpt><trkpt lat="44.03639836459335" lon="12.094130803962884"><ele>377.0</ele><time>2026-04-18T10:28:50.97Z</time></trkpt><trkpt lat="44.03636801754138" lon="12.094219175187181"><ele>377.0</ele><time>2026-04-18T10:28:51.97Z</time></trkpt><trkpt lat="44.03632612774781" lon="12.094308865745354"><ele>377.0</ele><time>2026-04-18T10:28:52.97Z</time></trkpt><trkpt lat="44.036270631090034" lon="12.094381369911002"><ele>377.0</ele><time>2026-04-18T10:28:53.97Z</time></trkpt><trkpt lat="44.036247730397726" lon="12.094463943364227"><ele>377.0</ele><time>2026-04-18T10:28:54.97Z</time></trkpt><trkpt lat="44.03620731205283" lon="12.094593839352934"><ele>377.0</ele><time>2026-04-18T10:28:56.97Z</time></trkpt><trkpt lat="44.03613594322629" lon="12.094722959588335"><ele>377.0</ele><time>2026-04-18T10:28:58.97Z</time></trkpt><trkpt lat="44.036093924142385" lon="12.094792718387781"><ele>377.0</ele><time>2026-04-18T10:28:59.97Z</time></trkpt><trkpt lat="44.036040010722516" lon="12.094856022510605"><ele>377.0</ele><time>2026-04-18T10:29:00.97Z</time></trkpt><trkpt lat="44.035985971533194" lon="12.094921493973859"><ele>377.0</ele><time>2026-04-18T10:29:01.97Z</time></trkpt><trkpt lat="44.03592779434479" lon="12.094967016939181"><ele>377.0</ele><time>2026-04-18T10:29:02.97Z</time></trkpt><trkpt lat="44.03586387744304" lon="12.095011754633685"><ele>377.0</ele><time>2026-04-18T10:29:03.97Z</time></trkpt><trkpt lat="44.035762638579044" lon="12.095064923130359"><ele>377.0</ele><time>2026-04-18T10:29:05.971Z</time></trkpt><trkpt lat="44.03567197224246" lon="12.095044965872752"><ele>375.0</ele><time>2026-04-18T10:29:07.97Z</time></trkpt><trkpt lat="44.03554134465615" lon="12.095007739294276"><ele>373.0</ele><time>2026-04-18T10:29:09.971Z</time></trkpt><trkpt lat="44.03546321003387" lon="12.094978014539636"><ele>371.0</ele><time>2026-04-18T10:29:10.971Z</time></trkpt><trkpt lat="44.03539301596747" lon="12.094948410024434"><ele>369.0</ele><time>2026-04-18T10:29:11.971Z</time></trkpt><trkpt lat="44.03531234265779" lon="12.094915559947209"><ele>367.0</ele><time>2026-04-18T10:29:12.971Z</time></trkpt><trkpt lat="44.03523848758397" lon="12.094878767349142"><ele>367.0</ele><time>2026-04-18T10:29:13.971Z</time></trkpt><trkpt lat="44.035164601509955" lon="12.094850092863497"><ele>367.0</ele><time>2026-04-18T10:29:14.97Z</time></trkpt><trkpt lat="44.03509873745334" lon="12.094832863865104"><ele>367.0</ele><time>2026-04-18T10:29:15.971Z</time></trkpt><trkpt lat="44.03501410450622" lon="12.094821703487968"><ele>367.0</ele><time>2026-04-18T10:29:16.971Z</time></trkpt><trkpt lat="44.03493934767324" lon="12.094821728820383"><ele>367.0</ele><time>2026-04-18T10:29:17.97Z</time></trkpt><trkpt lat="44.03484858439372" lon="12.094849384769928"><ele>367.0</ele><time>2026-04-18T10:29:18.97Z</time></trkpt><trkpt lat="44.03477123476189" lon="12.094891498148668"><ele>370.0</ele><time>2026-04-18T10:29:19.97Z</time></trkpt><trkpt lat="44.03469191398441" lon="12.094956772052239"><ele>373.0</ele><time>2026-04-18T10:29:20.97Z</time></trkpt><trkpt lat="44.0346068090341" lon="12.095026992240037"><ele>376.0</ele><time>2026-04-18T10:29:21.97Z</time></trkpt><trkpt lat="44.03453992469642" lon="12.095112642433078"><ele>379.0</ele><time>2026-04-18T10:29:22.97Z</time></trkpt><trkpt lat="44.034464715924045" lon="12.095234803780173"><ele>382.0</ele><time>2026-04-18T10:29:23.97Z</time></trkpt><trkpt lat="44.03440171421806" lon="12.095372853725392"><ele>382.0</ele><time>2026-04-18T10:29:24.97Z</time></trkpt><trkpt lat="44.03432225849281" lon="12.095482729436"><ele>382.0</ele><time>2026-04-18T10:29:25.97Z</time></trkpt><trkpt lat="44.03425137795569" lon="12.095591555606289"><ele>382.0</ele><time>2026-04-18T10:29:26.97Z</time></trkpt><trkpt lat="44.03417869351071" lon="12.09569512553674"><ele>382.0</ele><time>2026-04-18T10:29:27.97Z</time></trkpt><trkpt lat="44.034098934598006" lon="12.09579331440604"><ele>382.0</ele><time>2026-04-18T10:29:28.97Z</time></trkpt><trkpt lat="44.034024694673946" lon="12.095865748211086"><ele>383.16666666666663</ele><time>2026-04-18T10:29:29.97Z</time></trkpt><trkpt lat="44.03394885536292" lon="12.09593570055211"><ele>384.3333333333333</ele><time>2026-04-18T10:29:30.97Z</time></trkpt><trkpt lat="44.03387057264748" lon="12.095979514321243"><ele>385.5</ele><time>2026-04-18T10:29:31.97Z</time></trkpt><trkpt lat="44.03377898305614" lon="12.095990148284821"><ele>386.66666666666663</ele><time>2026-04-18T10:29:32.97Z</time></trkpt><trkpt lat="44.03368687589826" lon="12.09600524414199"><ele>387.8333333333333</ele><time>2026-04-18T10:29:33.97Z</time></trkpt><trkpt lat="44.03360704727888" lon="12.096022447193995"><ele>389.0</ele><time>2026-04-18T10:29:34.97Z</time></trkpt><trkpt lat="44.03352636972969" lon="12.09604350094868"><ele>388.99999999999994</ele><time>2026-04-18T10:29:35.97Z</time></trkpt><trkpt lat="44.03344824008492" lon="12.096056762487365"><ele>389.0</ele><time>2026-04-18T10:29:36.97Z</time></trkpt><trkpt lat="44.03337242850335" lon="12.096066033554415"><ele>389.0</ele><time>2026-04-18T10:29:37.97Z</time></trkpt><trkpt lat="44.03329360534297" lon="12.096059203340493"><ele>389.0</ele><time>2026-04-18T10:29:38.97Z</time></trkpt><trkpt lat="44.03322033321491" lon="12.096052821105385"><ele>388.99999999999994</ele><time>2026-04-18T10:29:39.97Z</time></trkpt><trkpt lat="44.033137414451126" lon="12.096044611573344"><ele>389.0</ele><time>2026-04-18T10:29:40.97Z</time></trkpt><trkpt lat="44.03304616609979" lon="12.096042911532262"><ele>389.66666666666663</ele><time>2026-04-18T10:29:41.97Z</time></trkpt><trkpt lat="44.032957263526185" lon="12.096047851504714"><ele>390.3333333333333</ele><time>2026-04-18T10:29:42.97Z</time></trkpt><trkpt lat="44.03288019364799" lon="12.096037641385601"><ele>391.0</ele><time>2026-04-18T10:29:43.97Z</time></trkpt><trkpt lat="44.03280181824404" lon="12.09601230492853"><ele>391.66666666666663</ele><time>2026-04-18T10:29:44.97Z</time></trkpt><trkpt lat="44.03272684693145" lon="12.09596315925804"><ele>392.3333333333333</ele><time>2026-04-18T10:29:45.97Z</time></trkpt><trkpt lat="44.03264119410697" lon="12.095901361552544"><ele>393.0</ele><time>2026-04-18T10:29:46.97Z</time></trkpt><trkpt lat="44.032557305338436" lon="12.095836381403792"><ele>393.0</ele><time>2026-04-18T10:29:47.97Z</time></trkpt><trkpt lat="44.032483609019444" lon="12.095791546408783"><ele>393.0</ele><time>2026-04-18T10:29:48.97Z</time></trkpt><trkpt lat="44.03240637171886" lon="12.095773091874884"><ele>393.0</ele><time>2026-04-18T10:29:49.97Z</time></trkpt><trkpt lat="44.03232218640746" lon="12.09576651502658"><ele>393.0</ele><time>2026-04-18T10:29:50.97Z</time></trkpt><trkpt lat="44.03222874925115" lon="12.095790704961301"><ele>393.0</ele><time>2026-04-18T10:29:51.97Z</time></trkpt><trkpt lat="44.032130843323614" lon="12.09580951450766"><ele>393.0</ele><time>2026-04-18T10:29:52.97Z</time></trkpt><trkpt lat="44.03202999377563" lon="12.095844610711879"><ele>392.6666666666667</ele><time>2026-04-18T10:29:53.97Z</time></trkpt><trkpt lat="44.03193373634032" lon="12.095875707992255"><ele>392.33333333333337</ele><time>2026-04-18T10:29:54.97Z</time></trkpt><trkpt lat="44.031850093458466" lon="12.095898768199408"><ele>392.0</ele><time>2026-04-18T10:29:55.97Z</time></trkpt><trkpt lat="44.03177167745302" lon="12.095887316081532"><ele>391.6666666666667</ele><time>2026-04-18T10:29:56.97Z</time></trkpt><trkpt lat="44.031691546161234" lon="12.095876652251734"><ele>391.33333333333337</ele><time>2026-04-18T10:29:57.97Z</time></trkpt><trkpt lat="44.03160593334296" lon="12.095868232832741"><ele>391.0</ele><time>2026-04-18T10:29:58.97Z</time></trkpt><trkpt lat="44.031548277705895" lon="12.095763220965138"><ele>389.20000000000005</ele><time>2026-04-18T10:29:59.97Z</time></trkpt><trkpt lat="44.03146695718903" lon="12.095706633525692"><ele>387.40000000000003</ele><time>2026-04-18T10:30:00.97Z</time></trkpt><trkpt lat="44.03138654228407" lon="12.095611157105303"><ele>385.6</ele><time>2026-04-18T10:30:01.97Z</time></trkpt><trkpt lat="44.03130042470445" lon="12.095534737200976"><ele>383.8</ele><time>2026-04-18T10:30:02.97Z</time></trkpt><trkpt lat="44.031207097642294" lon="12.095475612184508"><ele>382.0</ele><time>2026-04-18T10:30:03.97Z</time></trkpt><trkpt lat="44.03110793835975" lon="12.09542664678172"><ele>382.0</ele><time>2026-04-18T10:30:04.97Z</time></trkpt><trkpt lat="44.03101557819788" lon="12.095372927438122"><ele>382.0</ele><time>2026-04-18T10:30:05.97Z</time></trkpt><trkpt lat="44.030928775247254" lon="12.09532826976673"><ele>382.0</ele><time>2026-04-18T10:30:06.97Z</time></trkpt><trkpt lat="44.03084447343434" lon="12.09528886673466"><ele>382.0</ele><time>2026-04-18T10:30:07.97Z</time></trkpt><trkpt lat="44.030752303921346" lon="12.095263557686751"><ele>382.0</ele><time>2026-04-18T10:30:08.97Z</time></trkpt><trkpt lat="44.030650062951345" lon="12.095246444165939"><ele>383.20000000000005</ele><time>2026-04-18T10:30:09.97Z</time></trkpt><trkpt lat="44.030552065665994" lon="12.095202317478332"><ele>384.4</ele><time>2026-04-18T10:30:10.97Z</time></trkpt><trkpt lat="44.03044806488623" lon="12.095195090488481"><ele>385.6</ele><time>2026-04-18T10:30:11.97Z</time></trkpt><trkpt lat="44.03034685226243" lon="12.09517894680963"><ele>386.79999999999995</ele><time>2026-04-18T10:30:12.97Z</time></trkpt><trkpt lat="44.0302523714702" lon="12.095169675738491"><ele>388.0</ele><time>2026-04-18T10:30:13.97Z</time></trkpt><trkpt lat="44.03014787826286" lon="12.095160797858771"><ele>388.0</ele><time>2026-04-18T10:30:14.97Z</time></trkpt><trkpt lat="44.03004700316444" lon="12.095148021067207"><ele>388.0</ele><time>2026-04-18T10:30:15.97Z</time></trkpt><trkpt lat="44.02994344705402" lon="12.095141889911257"><ele>388.0</ele><time>2026-04-18T10:30:16.97Z</time></trkpt><trkpt lat="44.02985172549547" lon="12.095126193541677"><ele>388.0</ele><time>2026-04-18T10:30:17.97Z</time></trkpt><trkpt lat="44.02975776404635" lon="12.095116406761012"><ele>388.0</ele><time>2026-04-18T10:30:18.97Z</time></trkpt><trkpt lat="44.02966824071367" lon="12.095116017887586"><ele>388.79999999999995</ele><time>2026-04-18T10:30:19.97Z</time></trkpt><trkpt lat="44.02957720071108" lon="12.09510943689312"><ele>389.6</ele><time>2026-04-18T10:30:20.969Z</time></trkpt><trkpt lat="44.02948273273219" lon="12.09510227098002"><ele>390.4</ele><time>2026-04-18T10:30:21.969Z</time></trkpt><trkpt lat="44.02938184888369" lon="12.095094378931107"><ele>391.20000000000005</ele><time>2026-04-18T10:30:22.969Z</time></trkpt><trkpt lat="44.02929447175436" lon="12.095090438273585"><ele>392.0</ele><time>2026-04-18T10:30:23.969Z</time></trkpt><trkpt lat="44.02919929189079" lon="12.095108910656592"><ele>391.8</ele><time>2026-04-18T10:30:24.969Z</time></trkpt><trkpt lat="44.02910913124633" lon="12.095158844231134"><ele>391.6</ele><time>2026-04-18T10:30:25.969Z</time></trkpt><trkpt lat="44.0290206573534" lon="12.095213030727665"><ele>391.40000000000003</ele><time>2026-04-18T10:30:26.969Z</time></trkpt><trkpt lat="44.02892944803634" lon="12.095274539200078"><ele>391.20000000000005</ele><time>2026-04-18T10:30:27.969Z</time></trkpt><trkpt lat="44.0288398663491" lon="12.095333755741704"><ele>391.0</ele><time>2026-04-18T10:30:28.969Z</time></trkpt><trkpt lat="44.02874899863161" lon="12.095379000813885"><ele>391.0</ele><time>2026-04-18T10:30:29.969Z</time></trkpt><trkpt lat="44.02865079536675" lon="12.095424080042925"><ele>391.0</ele><time>2026-04-18T10:30:30.969Z</time></trkpt><trkpt lat="44.02854887957717" lon="12.095448767247408"><ele>391.0</ele><time>2026-04-18T10:30:31.969Z</time></trkpt><trkpt lat="44.028435590377605" lon="12.0954482202894"><ele>391.0</ele><time>2026-04-18T10:30:32.969Z</time></trkpt><trkpt lat="44.02831797111155" lon="12.095436897475292"><ele>391.0</ele><time>2026-04-18T10:30:33.969Z</time></trkpt><trkpt lat="44.02820626441567" lon="12.095424939540772"><ele>389.5</ele><time>2026-04-18T10:30:34.969Z</time></trkpt><trkpt lat="44.02808561602772" lon="12.09541192894325"><ele>388.0</ele><time>2026-04-18T10:30:35.969Z</time></trkpt><trkpt lat="44.027964033025235" lon="12.095394610989302"><ele>386.5</ele><time>2026-04-18T10:30:36.969Z</time></trkpt><trkpt lat="44.027846822682925" lon="12.095381357197015"><ele>385.0</ele><time>2026-04-18T10:30:37.969Z</time></trkpt><trkpt lat="44.02772908528316" lon="12.095373154834993"><ele>385.0</ele><time>2026-04-18T10:30:38.969Z</time></trkpt><trkpt lat="44.02762085378262" lon="12.095363801170668"><ele>385.0</ele><time>2026-04-18T10:30:39.969Z</time></trkpt><trkpt lat="44.027518743748715" lon="12.09535835493023"><ele>385.0</ele><time>2026-04-18T10:30:40.969Z</time></trkpt><trkpt lat="44.02742285984382" lon="12.095353147495363"><ele>385.0</ele><time>2026-04-18T10:30:41.969Z</time></trkpt><trkpt lat="44.02732586777817" lon="12.095349820458598"><ele>385.0</ele><time>2026-04-18T10:30:42.969Z</time></trkpt><trkpt lat="44.02723112193367" lon="12.09534171430725"><ele>384.4</ele><time>2026-04-18T10:30:43.969Z</time></trkpt><trkpt lat="44.02712027577596" lon="12.095329982038077"><ele>383.8</ele><time>2026-04-18T10:30:44.969Z</time></trkpt><trkpt lat="44.02701332331237" lon="12.095316036673811"><ele>383.20000000000005</ele><time>2026-04-18T10:30:45.969Z</time></trkpt><trkpt lat="44.02692219369744" lon="12.095283378504494"><ele>382.6</ele><time>2026-04-18T10:30:46.969Z</time></trkpt><trkpt lat="44.0268335947302" lon="12.095246804600523"><ele>382.0</ele><time>2026-04-18T10:30:47.969Z</time></trkpt><trkpt lat="44.02673147238252" lon="12.09522087364951"><ele>382.25</ele><time>2026-04-18T10:30:48.969Z</time></trkpt><trkpt lat="44.02661300459576" lon="12.095196566883711"><ele>382.5</ele><time>2026-04-18T10:30:49.969Z</time></trkpt><trkpt lat="44.026501098405184" lon="12.095164503524835"><ele>382.75</ele><time>2026-04-18T10:30:50.969Z</time></trkpt><trkpt lat="44.02638794645526" lon="12.095154524350562"><ele>383.0</ele><time>2026-04-18T10:30:51.969Z</time></trkpt><trkpt lat="44.026276757255935" lon="12.095130232458757"><ele>383.0</ele><time>2026-04-18T10:30:52.969Z</time></trkpt><trkpt lat="44.02616987874399" lon="12.095100883321383"><ele>383.0</ele><time>2026-04-18T10:30:53.969Z</time></trkpt><trkpt lat="44.0260725360132" lon="12.095063629986441"><ele>383.0</ele><time>2026-04-18T10:30:54.969Z</time></trkpt><trkpt lat="44.02596862469934" lon="12.095005134861447"><ele>383.0</ele><time>2026-04-18T10:30:55.969Z</time></trkpt><trkpt lat="44.02587163906673" lon="12.094935039917745"><ele>383.0</ele><time>2026-04-18T10:30:56.969Z</time></trkpt><trkpt lat="44.02577277504016" lon="12.094860113445918"><ele>382.0</ele><time>2026-04-18T10:30:57.969Z</time></trkpt><trkpt lat="44.025680152950244" lon="12.094790816796555"><ele>381.0</ele><time>2026-04-18T10:30:58.969Z</time></trkpt><trkpt lat="44.02557750647254" lon="12.094714579337005"><ele>380.0</ele><time>2026-04-18T10:30:59.969Z</time></trkpt><trkpt lat="44.02548151279974" lon="12.094646256581992"><ele>379.0</ele><time>2026-04-18T10:31:00.969Z</time></trkpt><trkpt lat="44.025392333716155" lon="12.094584013049182"><ele>378.0</ele><time>2026-04-18T10:31:01.969Z</time></trkpt><trkpt lat="44.025301301331616" lon="12.094528683988628"><ele>378.0</ele><time>2026-04-18T10:31:02.969Z</time></trkpt><trkpt lat="44.025218204942924" lon="12.094488020011601"><ele>378.0</ele><time>2026-04-18T10:31:03.969Z</time></trkpt><trkpt lat="44.02511987354358" lon="12.094460454858153"><ele>378.0</ele><time>2026-04-18T10:31:04.969Z</time></trkpt><trkpt lat="44.02502364730896" lon="12.094434587806262"><ele>378.0</ele><time>2026-04-18T10:31:05.969Z</time></trkpt><trkpt lat="44.024924360560085" lon="12.09441481685684"><ele>378.0</ele><time>2026-04-18T10:31:06.969Z</time></trkpt><trkpt lat="44.024827563840425" lon="12.094383869012274"><ele>378.79999999999995</ele><time>2026-04-18T10:31:07.969Z</time></trkpt><trkpt lat="44.02473412272277" lon="12.094350191869133"><ele>379.6</ele><time>2026-04-18T10:31:08.969Z</time></trkpt><trkpt lat="44.02464455804234" lon="12.094326649282436"><ele>380.4</ele><time>2026-04-18T10:31:09.969Z</time></trkpt><trkpt lat="44.024558357435836" lon="12.094294375078118"><ele>381.20000000000005</ele><time>2026-04-18T10:31:10.969Z</time></trkpt><trkpt lat="44.02447188785879" lon="12.094253269898832"><ele>382.0</ele><time>2026-04-18T10:31:11.97Z</time></trkpt><trkpt lat="44.02438522198535" lon="12.094200073025851"><ele>382.0</ele><time>2026-04-18T10:31:12.971Z</time></trkpt><trkpt lat="44.02429827299513" lon="12.09412665318574"><ele>382.0</ele><time>2026-04-18T10:31:13.971Z</time></trkpt><trkpt lat="44.02421758995969" lon="12.094057306854848"><ele>382.0</ele><time>2026-04-18T10:31:14.97Z</time></trkpt><trkpt lat="44.02413959428053" lon="12.093984524714264"><ele>382.0</ele><time>2026-04-18T10:31:15.97Z</time></trkpt><trkpt lat="44.02406138969776" lon="12.093904855064965"><ele>382.0</ele><time>2026-04-18T10:31:16.97Z</time></trkpt><trkpt lat="44.02398708730399" lon="12.09381640909088"><ele>381.0</ele><time>2026-04-18T10:31:17.971Z</time></trkpt><trkpt lat="44.02390429931672" lon="12.093737592765759"><ele>380.0</ele><time>2026-04-18T10:31:18.97Z</time></trkpt><trkpt lat="44.02382371928302" lon="12.093658241636831"><ele>379.0</ele><time>2026-04-18T10:31:19.97Z</time></trkpt><trkpt lat="44.02374112849633" lon="12.093566078770014"><ele>378.0</ele><time>2026-04-18T10:31:20.97Z</time></trkpt><trkpt lat="44.02366192000198" lon="12.093483379423576"><ele>377.0</ele><time>2026-04-18T10:31:21.97Z</time></trkpt><trkpt lat="44.02358825951908" lon="12.093406731850383"><ele>376.99999999999994</ele><time>2026-04-18T10:31:22.97Z</time></trkpt><trkpt lat="44.02352074701618" lon="12.093339594203927"><ele>377.0</ele><time>2026-04-18T10:31:23.97Z</time></trkpt><trkpt lat="44.023458519581446" lon="12.093281662627641"><ele>377.0</ele><time>2026-04-18T10:31:24.97Z</time></trkpt><trkpt lat="44.02339196574907" lon="12.093239714925998"><ele>377.0</ele><time>2026-04-18T10:31:25.97Z</time></trkpt><trkpt lat="44.023318545208205" lon="12.093225626340285"><ele>377.0</ele><time>2026-04-18T10:31:26.97Z</time></trkpt><trkpt lat="44.02325344041938" lon="12.093225076929356"><ele>376.99999999999994</ele><time>2026-04-18T10:31:27.97Z</time></trkpt><trkpt lat="44.023181074487304" lon="12.093238871018853"><ele>377.0</ele><time>2026-04-18T10:31:28.97Z</time></trkpt><trkpt lat="44.02310966600285" lon="12.093268050474592"><ele>374.6666666666667</ele><time>2026-04-18T10:31:29.97Z</time></trkpt><trkpt lat="44.023037341824754" lon="12.093313331805136"><ele>372.33333333333337</ele><time>2026-04-18T10:31:30.97Z</time></trkpt><trkpt lat="44.0229777248585" lon="12.093389274628624"><ele>370.0</ele><time>2026-04-18T10:31:31.97Z</time></trkpt><trkpt lat="44.022939301167455" lon="12.093503866581264"><ele>367.6666666666667</ele><time>2026-04-18T10:31:32.97Z</time></trkpt><trkpt lat="44.02289297956483" lon="12.093599858274946"><ele>365.3333333333333</ele><time>2026-04-18T10:31:33.97Z</time></trkpt><trkpt lat="44.02284085257785" lon="12.093681735714732"><ele>363.0</ele><time>2026-04-18T10:31:34.97Z</time></trkpt><trkpt lat="44.022797278595064" lon="12.09376839720239"><ele>363.0</ele><time>2026-04-18T10:31:35.97Z</time></trkpt><trkpt lat="44.022763837583646" lon="12.093857755758725"><ele>363.0</ele><time>2026-04-18T10:31:36.97Z</time></trkpt><trkpt lat="44.022706487114405" lon="12.093930151456913"><ele>363.0</ele><time>2026-04-18T10:31:37.97Z</time></trkpt><trkpt lat="44.02263573370041" lon="12.09399731992001"><ele>363.0</ele><time>2026-04-18T10:31:38.97Z</time></trkpt><trkpt lat="44.02255433039113" lon="12.09405874781569"><ele>363.0</ele><time>2026-04-18T10:31:39.97Z</time></trkpt><trkpt lat="44.02247765049907" lon="12.094111213659891"><ele>363.0</ele><time>2026-04-18T10:31:40.97Z</time></trkpt><trkpt lat="44.02239887805113" lon="12.094168116785461"><ele>362.79999999999995</ele><time>2026-04-18T10:31:41.97Z</time></trkpt><trkpt lat="44.02231788549232" lon="12.094221668375111"><ele>362.6</ele><time>2026-04-18T10:31:42.97Z</time></trkpt><trkpt lat="44.02222943708808" lon="12.094272591837445"><ele>362.4</ele><time>2026-04-18T10:31:43.97Z</time></trkpt><trkpt lat="44.02213280604913" lon="12.094321286121536"><ele>362.20000000000005</ele><time>2026-04-18T10:31:44.97Z</time></trkpt><trkpt lat="44.0220295315318" lon="12.09434591342998"><ele>362.0</ele><time>2026-04-18T10:31:45.97Z</time></trkpt><trkpt lat="44.021931567811045" lon="12.094337674097046"><ele>362.0</ele><time>2026-04-18T10:31:46.97Z</time></trkpt><trkpt lat="44.021827123041035" lon="12.094345135586682"><ele>362.0</ele><time>2026-04-18T10:31:47.97Z</time></trkpt><trkpt lat="44.021725144084435" lon="12.094350006298113"><ele>362.0</ele><time>2026-04-18T10:31:48.97Z</time></trkpt><trkpt lat="44.021620668846765" lon="12.094356136909218"><ele>362.0</ele><time>2026-04-18T10:31:49.97Z</time></trkpt><trkpt lat="44.02152339970465" lon="12.094359827184153"><ele>362.0</ele><time>2026-04-18T10:31:50.97Z</time></trkpt><trkpt lat="44.021429167401415" lon="12.094355682099037"><ele>361.5</ele><time>2026-04-18T10:31:51.97Z</time></trkpt><trkpt lat="44.02133306238641" lon="12.094349755319367"><ele>361.0</ele><time>2026-04-18T10:31:52.97Z</time></trkpt><trkpt lat="44.02124520551925" lon="12.094345699849898"><ele>360.5</ele><time>2026-04-18T10:31:53.97Z</time></trkpt><trkpt lat="44.02115822835634" lon="12.094344020109185"><ele>360.0</ele><time>2026-04-18T10:31:54.97Z</time></trkpt><trkpt lat="44.02107686087187" lon="12.094337088279522"><ele>359.5</ele><time>2026-04-18T10:31:55.97Z</time></trkpt><trkpt lat="44.02098635858534" lon="12.094332073500388"><ele>359.0</ele><time>2026-04-18T10:31:56.97Z</time></trkpt><trkpt lat="44.02089665253224" lon="12.09432458303909"><ele>358.33333333333337</ele><time>2026-04-18T10:31:57.97Z</time></trkpt><trkpt lat="44.0208122125669" lon="12.094325432260622"><ele>357.6666666666667</ele><time>2026-04-18T10:31:58.97Z</time></trkpt><trkpt lat="44.020726610172844" lon="12.09432199757072"><ele>357.0</ele><time>2026-04-18T10:31:59.97Z</time></trkpt><trkpt lat="44.0206454017469" lon="12.09432642189432"><ele>356.3333333333333</ele><time>2026-04-18T10:32:00.97Z</time></trkpt><trkpt lat="44.0205624799178" lon="12.094321634814776"><ele>355.66666666666663</ele><time>2026-04-18T10:32:01.97Z</time></trkpt><trkpt lat="44.02048850876975" lon="12.094320482735816"><ele>355.0</ele><time>2026-04-18T10:32:02.97Z</time></trkpt><trkpt lat="44.02040954152014" lon="12.094320896317363"><ele>355.0</ele><time>2026-04-18T10:32:03.97Z</time></trkpt><trkpt lat="44.02033236225143" lon="12.094306907030433"><ele>355.0</ele><time>2026-04-18T10:32:04.969Z</time></trkpt><trkpt lat="44.02024889620505" lon="12.094305693269577"><ele>355.0</ele><time>2026-04-18T10:32:05.969Z</time></trkpt><trkpt lat="44.02016979516215" lon="12.094317443783893"><ele>355.0</ele><time>2026-04-18T10:32:06.969Z</time></trkpt><trkpt lat="44.02008611502735" lon="12.09431573499731"><ele>355.0</ele><time>2026-04-18T10:32:07.969Z</time></trkpt><trkpt lat="44.01999672189881" lon="12.094317103408345"><ele>355.0</ele><time>2026-04-18T10:32:08.969Z</time></trkpt><trkpt lat="44.01990797535224" lon="12.094316659367882"><ele>354.6</ele><time>2026-04-18T10:32:09.969Z</time></trkpt><trkpt lat="44.019809952780626" lon="12.094315832142186"><ele>354.2</ele><time>2026-04-18T10:32:10.969Z</time></trkpt><trkpt lat="44.01972055877015" lon="12.094318586592495"><ele>353.79999999999995</ele><time>2026-04-18T10:32:11.969Z</time></trkpt><trkpt lat="44.01962437234828" lon="12.094319841250062"><ele>353.4</ele><time>2026-04-18T10:32:12.969Z</time></trkpt><trkpt lat="44.01953594458537" lon="12.094318428272"><ele>353.0</ele><time>2026-04-18T10:32:13.969Z</time></trkpt><trkpt lat="44.019456636028096" lon="12.094317096301804"><ele>353.0</ele><time>2026-04-18T10:32:14.969Z</time></trkpt><trkpt lat="44.01938463455341" lon="12.094315996340638"><ele>353.0</ele><time>2026-04-18T10:32:15.969Z</time></trkpt><trkpt lat="44.0193199771555" lon="12.0943037595326"><ele>353.0</ele><time>2026-04-18T10:32:16.969Z</time></trkpt><trkpt lat="44.01925371029389" lon="12.094293130777254"><ele>353.0</ele><time>2026-04-18T10:32:17.969Z</time></trkpt><trkpt lat="44.019185296827736" lon="12.094276999970242"><ele>353.0</ele><time>2026-04-18T10:32:18.969Z</time></trkpt><trkpt lat="44.01911758455584" lon="12.09425589720258"><ele>353.0</ele><time>2026-04-18T10:32:19.969Z</time></trkpt><trkpt lat="44.01904232365128" lon="12.094233293721866"><ele>353.0</ele><time>2026-04-18T10:32:20.969Z</time></trkpt><trkpt lat="44.01896953557331" lon="12.094198001953634"><ele>352.57142857142856</ele><time>2026-04-18T10:32:21.969Z</time></trkpt><trkpt lat="44.01890027138619" lon="12.094151817219178"><ele>352.14285714285717</ele><time>2026-04-18T10:32:22.969Z</time></trkpt><trkpt lat="44.01884044966954" lon="12.094116317694759"><ele>351.7142857142857</ele><time>2026-04-18T10:32:23.969Z</time></trkpt><trkpt lat="44.018778961022356" lon="12.094081398603418"><ele>351.2857142857143</ele><time>2026-04-18T10:32:24.969Z</time></trkpt><trkpt lat="44.01871244254571" lon="12.09405297866233"><ele>350.8571428571429</ele><time>2026-04-18T10:32:25.969Z</time></trkpt><trkpt lat="44.018631331627375" lon="12.094029838501807"><ele>350.42857142857144</ele><time>2026-04-18T10:32:26.969Z</time></trkpt><trkpt lat="44.01855183905783" lon="12.09401461293923"><ele>350.0</ele><time>2026-04-18T10:32:27.969Z</time></trkpt><trkpt lat="44.018469890226676" lon="12.094006501054372"><ele>350.0</ele><time>2026-04-18T10:32:28.969Z</time></trkpt><trkpt lat="44.018385218497734" lon="12.094003645839365"><ele>350.0</ele><time>2026-04-18T10:32:29.969Z</time></trkpt><trkpt lat="44.01830018690378" lon="12.094008203683305"><ele>350.0</ele><time>2026-04-18T10:32:30.969Z</time></trkpt><trkpt lat="44.01821951207037" lon="12.09400963880546"><ele>350.0</ele><time>2026-04-18T10:32:31.969Z</time></trkpt><trkpt lat="44.018152178093914" lon="12.094006762724119"><ele>350.0</ele><time>2026-04-18T10:32:32.969Z</time></trkpt><trkpt lat="44.01807395912787" lon="12.09398740175668"><ele>350.0</ele><time>2026-04-18T10:32:33.969Z</time></trkpt><trkpt lat="44.017993812957364" lon="12.093959274016404"><ele>350.5</ele><time>2026-04-18T10:32:34.969Z</time></trkpt><trkpt lat="44.0179176486868" lon="12.093924184625006"><ele>351.0</ele><time>2026-04-18T10:32:35.969Z</time></trkpt><trkpt lat="44.017837186012734" lon="12.093874536161898"><ele>351.5</ele><time>2026-04-18T10:32:36.969Z</time></trkpt><trkpt lat="44.01775496556504" lon="12.093842028194508"><ele>352.0</ele><time>2026-04-18T10:32:37.969Z</time></trkpt><trkpt lat="44.01767498771327" lon="12.09379856253193"><ele>352.5</ele><time>2026-04-18T10:32:38.969Z</time></trkpt><trkpt lat="44.01759586174082" lon="12.093764207930532"><ele>353.0</ele><time>2026-04-18T10:32:39.969Z</time></trkpt><trkpt lat="44.01751434617592" lon="12.093725029227802"><ele>354.4</ele><time>2026-04-18T10:32:40.969Z</time></trkpt><trkpt lat="44.01742237894169" lon="12.093685616821096"><ele>355.79999999999995</ele><time>2026-04-18T10:32:41.969Z</time></trkpt><trkpt lat="44.01733470666128" lon="12.09364105486783"><ele>357.2</ele><time>2026-04-18T10:32:42.969Z</time></trkpt><trkpt lat="44.017245931121955" lon="12.093591889291806"><ele>358.6</ele><time>2026-04-18T10:32:43.969Z</time></trkpt><trkpt lat="44.017161326222244" lon="12.093546899947384"><ele>360.0</ele><time>2026-04-18T10:32:44.969Z</time></trkpt><trkpt lat="44.01707095106095" lon="12.093503576273598"><ele>360.0</ele><time>2026-04-18T10:32:45.969Z</time></trkpt><trkpt lat="44.0169760618869" lon="12.093466598764325"><ele>360.0</ele><time>2026-04-18T10:32:46.969Z</time></trkpt><trkpt lat="44.01687971212282" lon="12.09341892244173"><ele>360.0</ele><time>2026-04-18T10:32:47.969Z</time></trkpt><trkpt lat="44.01678829918992" lon="12.093368602029942"><ele>360.0</ele><time>2026-04-18T10:32:48.969Z</time></trkpt><trkpt lat="44.01670617972824" lon="12.093326900079086"><ele>360.0</ele><time>2026-04-18T10:32:49.969Z</time></trkpt><trkpt lat="44.01662904841972" lon="12.093293257986735"><ele>359.8333333333333</ele><time>2026-04-18T10:32:50.969Z</time></trkpt><trkpt lat="44.01654900012257" lon="12.093257354047006"><ele>359.6666666666667</ele><time>2026-04-18T10:32:51.969Z</time></trkpt><trkpt lat="44.01647606044552" lon="12.093208289261824"><ele>359.5</ele><time>2026-04-18T10:32:52.969Z</time></trkpt><trkpt lat="44.016412387225856" lon="12.093142027424117"><ele>359.33333333333337</ele><time>2026-04-18T10:32:53.969Z</time></trkpt><trkpt lat="44.01635297406816" lon="12.093053988016694"><ele>359.1666666666667</ele><time>2026-04-18T10:32:54.969Z</time></trkpt><trkpt lat="44.01629095656191" lon="12.092966896066146"><ele>359.0</ele><time>2026-04-18T10:32:55.969Z</time></trkpt><trkpt lat="44.01621632855231" lon="12.092891115652778"><ele>359.0</ele><time>2026-04-18T10:32:56.969Z</time></trkpt><trkpt lat="44.01613310417374" lon="12.09283632441055"><ele>359.0</ele><time>2026-04-18T10:32:57.969Z</time></trkpt><trkpt lat="44.016046411956445" lon="12.092789272852688"><ele>359.0</ele><time>2026-04-18T10:32:58.969Z</time></trkpt><trkpt lat="44.0159539662856" lon="12.092768482798313"><ele>359.0</ele><time>2026-04-18T10:32:59.969Z</time></trkpt><trkpt lat="44.01586483508764" lon="12.092744175906953"><ele>359.0</ele><time>2026-04-18T10:33:00.969Z</time></trkpt><trkpt lat="44.015778450824996" lon="12.092724776249703"><ele>359.33333333333337</ele><time>2026-04-18T10:33:01.969Z</time></trkpt><trkpt lat="44.01569244816069" lon="12.09268053860222"><ele>359.6666666666667</ele><time>2026-04-18T10:33:02.969Z</time></trkpt><trkpt lat="44.01560299308282" lon="12.09266757292247"><ele>360.0</ele><time>2026-04-18T10:33:03.969Z</time></trkpt><trkpt lat="44.01551545112872" lon="12.092650257509103"><ele>360.3333333333333</ele><time>2026-04-18T10:33:04.969Z</time></trkpt><trkpt lat="44.01543344171159" lon="12.092640134117838"><ele>360.66666666666663</ele><time>2026-04-18T10:33:05.969Z</time></trkpt><trkpt lat="44.01535346542919" lon="12.092615872371645"><ele>361.0</ele><time>2026-04-18T10:33:06.969Z</time></trkpt><trkpt lat="44.015271868751995" lon="12.092607194053121"><ele>361.0</ele><time>2026-04-18T10:33:07.969Z</time></trkpt><trkpt lat="44.01519586853731" lon="12.092566388628848"><ele>361.0</ele><time>2026-04-18T10:33:08.969Z</time></trkpt><trkpt lat="44.015112397124234" lon="12.092541156909428"><ele>361.0</ele><time>2026-04-18T10:33:09.969Z</time></trkpt><trkpt lat="44.01502850278205" lon="12.09253643089132"><ele>361.0</ele><time>2026-04-18T10:33:10.969Z</time></trkpt><trkpt lat="44.01495713174883" lon="12.092520749254316"><ele>361.0</ele><time>2026-04-18T10:33:11.969Z</time></trkpt><trkpt lat="44.01484881154143" lon="12.0925190424724"><ele>361.0</ele><time>2026-04-18T10:33:13.969Z</time></trkpt><trkpt lat="44.01476097498027" lon="12.092505512462239"><ele>360.3333333333333</ele><time>2026-04-18T10:33:15.969Z</time></trkpt><trkpt lat="44.01469585980208" lon="12.092483345876827"><ele>359.66666666666663</ele><time>2026-04-18T10:33:17.97Z</time></trkpt><trkpt lat="44.01463183198938" lon="12.092520248014859"><ele>359.0</ele><time>2026-04-18T10:33:47.97Z</time></trkpt><trkpt lat="44.01452714415565" lon="12.092529066317363"><ele>358.3333333333333</ele><time>2026-04-18T10:33:50.969Z</time></trkpt><trkpt lat="44.01440977571137" lon="12.0925278683704"><ele>357.6666666666667</ele><time>2026-04-18T10:33:52.969Z</time></trkpt><trkpt lat="44.01433780791451" lon="12.092528555242417"><ele>357.0</ele><time>2026-04-18T10:33:53.969Z</time></trkpt><trkpt lat="44.01426426061781" lon="12.092525731027568"><ele>357.0</ele><time>2026-04-18T10:33:54.969Z</time></trkpt><trkpt lat="44.01418352008199" lon="12.092525695439477"><ele>357.0</ele><time>2026-04-18T10:33:55.969Z</time></trkpt><trkpt lat="44.01410298513022" lon="12.092507116332179"><ele>357.0</ele><time>2026-04-18T10:33:56.969Z</time></trkpt><trkpt lat="44.01402197914167" lon="12.092500088834914"><ele>357.0</ele><time>2026-04-18T10:33:57.969Z</time></trkpt><trkpt lat="44.01394311740202" lon="12.092497585598924"><ele>357.0</ele><time>2026-04-18T10:33:58.969Z</time></trkpt><trkpt lat="44.013861891744334" lon="12.092483296675482"><ele>357.0</ele><time>2026-04-18T10:33:59.969Z</time></trkpt><trkpt lat="44.01377769171459" lon="12.092466461858766"><ele>357.1666666666667</ele><time>2026-04-18T10:34:00.969Z</time></trkpt><trkpt lat="44.0137027645245" lon="12.092434696753799"><ele>357.3333333333333</ele><time>2026-04-18T10:34:01.969Z</time></trkpt><trkpt lat="44.013630102030916" lon="12.092386023406236"><ele>357.5</ele><time>2026-04-18T10:34:02.969Z</time></trkpt><trkpt lat="44.01356573674619" lon="12.092318672118617"><ele>357.66666666666663</ele><time>2026-04-18T10:34:03.969Z</time></trkpt><trkpt lat="44.013494017098196" lon="12.092231043139117"><ele>357.8333333333333</ele><time>2026-04-18T10:34:04.969Z</time></trkpt><trkpt lat="44.01342164422951" lon="12.09214096640741"><ele>358.0</ele><time>2026-04-18T10:34:05.969Z</time></trkpt><trkpt lat="44.01335220358544" lon="12.092053220904516"><ele>354.5</ele><time>2026-04-18T10:34:06.969Z</time></trkpt><trkpt lat="44.01328493358471" lon="12.091976134074004"><ele>351.0</ele><time>2026-04-18T10:34:07.969Z</time></trkpt><trkpt lat="44.01322348349646" lon="12.091909310830552"><ele>347.5</ele><time>2026-04-18T10:34:08.969Z</time></trkpt><trkpt lat="44.01315564153448" lon="12.09183625371497"><ele>344.0</ele><time>2026-04-18T10:34:09.969Z</time></trkpt><trkpt lat="44.01309780285454" lon="12.091756658577507"><ele>340.5</ele><time>2026-04-18T10:34:10.969Z</time></trkpt><trkpt lat="44.013039231104514" lon="12.091679170107799"><ele>337.0</ele><time>2026-04-18T10:34:11.969Z</time></trkpt><trkpt lat="44.01298909753215" lon="12.09159933166426"><ele>335.6</ele><time>2026-04-18T10:34:12.969Z</time></trkpt><trkpt lat="44.01295976635549" lon="12.091489990098914"><ele>334.20000000000005</ele><time>2026-04-18T10:34:13.969Z</time></trkpt><trkpt lat="44.01294892201392" lon="12.0913777340218"><ele>332.8</ele><time>2026-04-18T10:34:14.969Z</time></trkpt><trkpt lat="44.0129501204306" lon="12.091240591094197"><ele>331.4</ele><time>2026-04-18T10:34:15.969Z</time></trkpt><trkpt lat="44.01296144088436" lon="12.091093844584018"><ele>330.0</ele><time>2026-04-18T10:34:16.969Z</time></trkpt><trkpt lat="44.012975576996304" lon="12.090935478925857"><ele>330.0</ele><time>2026-04-18T10:34:17.969Z</time></trkpt><trkpt lat="44.01299347922451" lon="12.090777766062196"><ele>330.0</ele><time>2026-04-18T10:34:18.969Z</time></trkpt><trkpt lat="44.013002158361104" lon="12.09063017316988"><ele>330.0</ele><time>2026-04-18T10:34:19.969Z</time></trkpt><trkpt lat="44.01300114193891" lon="12.090494188562884"><ele>330.0</ele><time>2026-04-18T10:34:20.969Z</time></trkpt><trkpt lat="44.01300413491222" lon="12.09037220412648"><ele>330.0</ele><time>2026-04-18T10:34:21.969Z</time></trkpt><trkpt lat="44.01299238072375" lon="12.090241508153557"><ele>329.8</ele><time>2026-04-18T10:34:22.969Z</time></trkpt><trkpt lat="44.01298446214154" lon="12.090116604953462"><ele>329.6</ele><time>2026-04-18T10:34:23.969Z</time></trkpt><trkpt lat="44.01298178536572" lon="12.089989532792076"><ele>329.4</ele><time>2026-04-18T10:34:24.969Z</time></trkpt><trkpt lat="44.01297925565469" lon="12.089852335490821"><ele>329.2</ele><time>2026-04-18T10:34:25.969Z</time></trkpt><trkpt lat="44.01298580749582" lon="12.089716057396148"><ele>329.0</ele><time>2026-04-18T10:34:26.969Z</time></trkpt><trkpt lat="44.0129831562175" lon="12.089580515092061"><ele>329.0</ele><time>2026-04-18T10:34:27.969Z</time></trkpt><trkpt lat="44.01297927280971" lon="12.089448296163853"><ele>329.0</ele><time>2026-04-18T10:34:28.969Z</time></trkpt><trkpt lat="44.012977581583556" lon="12.089320435598244"><ele>329.0</ele><time>2026-04-18T10:34:29.969Z</time></trkpt><trkpt lat="44.01297931603154" lon="12.089205335662163"><ele>329.0</ele><time>2026-04-18T10:34:30.969Z</time></trkpt><trkpt lat="44.012975862597735" lon="12.089095235281963"><ele>329.0</ele><time>2026-04-18T10:34:31.969Z</time></trkpt><trkpt lat="44.01297040595175" lon="12.08899402210196"><ele>329.0</ele><time>2026-04-18T10:34:32.969Z</time></trkpt><trkpt lat="44.0129570769311" lon="12.088897551756727"><ele>329.5</ele><time>2026-04-18T10:34:33.969Z</time></trkpt><trkpt lat="44.01293668159232" lon="12.088810894153383"><ele>330.0</ele><time>2026-04-18T10:34:34.969Z</time></trkpt><trkpt lat="44.0128903631968" lon="12.08872591561474"><ele>330.5</ele><time>2026-04-18T10:34:35.969Z</time></trkpt><trkpt lat="44.01285125231812" lon="12.088621874862845"><ele>331.0</ele><time>2026-04-18T10:34:36.969Z</time></trkpt><trkpt lat="44.01280632656697" lon="12.08852160325406"><ele>331.5</ele><time>2026-04-18T10:34:37.969Z</time></trkpt><trkpt lat="44.01275335912274" lon="12.088424903152221"><ele>332.0</ele><time>2026-04-18T10:34:38.969Z</time></trkpt><trkpt lat="44.01271899540345" lon="12.088309489963923"><ele>331.6666666666667</ele><time>2026-04-18T10:34:39.969Z</time></trkpt><trkpt lat="44.01266677788707" lon="12.088224555517353"><ele>331.33333333333337</ele><time>2026-04-18T10:34:40.969Z</time></trkpt><trkpt lat="44.012621825564196" lon="12.088136952552901"><ele>331.0</ele><time>2026-04-18T10:34:41.969Z</time></trkpt><trkpt lat="44.01258408510932" lon="12.08804924947892"><ele>330.6666666666667</ele><time>2026-04-18T10:34:42.969Z</time></trkpt><trkpt lat="44.01254998214002" lon="12.087956423052812"><ele>330.3333333333333</ele><time>2026-04-18T10:34:43.969Z</time></trkpt><trkpt lat="44.01251322865037" lon="12.087867163512124"><ele>330.0</ele><time>2026-04-18T10:34:44.969Z</time></trkpt><trkpt lat="44.012472016484615" lon="12.087781457219261"><ele>330.0</ele><time>2026-04-18T10:34:45.969Z</time></trkpt><trkpt lat="44.01243616911879" lon="12.08770669615663"><ele>330.0</ele><time>2026-04-18T10:34:46.969Z</time></trkpt><trkpt lat="44.01239812263183" lon="12.087635477870068"><ele>330.0</ele><time>2026-04-18T10:34:47.969Z</time></trkpt><trkpt lat="44.01236036395875" lon="12.087552336050875"><ele>330.0</ele><time>2026-04-18T10:34:48.969Z</time></trkpt><trkpt lat="44.01230904275324" lon="12.087450068512753"><ele>330.0</ele><time>2026-04-18T10:34:49.969Z</time></trkpt><trkpt lat="44.012278314338886" lon="12.087327953780004"><ele>330.0</ele><time>2026-04-18T10:34:50.969Z</time></trkpt><trkpt lat="44.0122312256194" lon="12.087230600789136"><ele>330.0</ele><time>2026-04-18T10:34:51.969Z</time></trkpt><trkpt lat="44.012190844225" lon="12.087132141154052"><ele>330.0</ele><time>2026-04-18T10:34:52.969Z</time></trkpt><trkpt lat="44.012153687900565" lon="12.08703660691279"><ele>330.0</ele><time>2026-04-18T10:34:53.969Z</time></trkpt><trkpt lat="44.01211302633222" lon="12.086938957077466"><ele>330.0</ele><time>2026-04-18T10:34:54.969Z</time></trkpt><trkpt lat="44.01207867681037" lon="12.086835103436497"><ele>330.0</ele><time>2026-04-18T10:34:55.969Z</time></trkpt><trkpt lat="44.01204273397925" lon="12.086720861047048"><ele>330.0</ele><time>2026-04-18T10:34:56.969Z</time></trkpt><trkpt lat="44.012015771257346" lon="12.08660260268121"><ele>330.5714285714286</ele><time>2026-04-18T10:34:57.969Z</time></trkpt><trkpt lat="44.01199460545492" lon="12.086492398980123"><ele>331.14285714285717</ele><time>2026-04-18T10:34:58.969Z</time></trkpt><trkpt lat="44.011975343241026" lon="12.086395592264255"><ele>331.7142857142857</ele><time>2026-04-18T10:34:59.969Z</time></trkpt><trkpt lat="44.01195473821611" lon="12.086294628773048"><ele>332.28571428571433</ele><time>2026-04-18T10:35:00.969Z</time></trkpt><trkpt lat="44.011932479214856" lon="12.086194946603007"><ele>332.8571428571429</ele><time>2026-04-18T10:35:01.969Z</time></trkpt><trkpt lat="44.01191844841248" lon="12.086095428026173"><ele>333.42857142857144</ele><time>2026-04-18T10:35:02.969Z</time></trkpt><trkpt lat="44.01189819644159" lon="12.086011880779294"><ele>334.0</ele><time>2026-04-18T10:35:03.969Z</time></trkpt><trkpt lat="44.01187676540687" lon="12.085856378984834"><ele>334.0</ele><time>2026-04-18T10:35:05.969Z</time></trkpt><trkpt lat="44.01185526911483" lon="12.0857688232493"><ele>334.0</ele><time>2026-04-18T10:35:06.969Z</time></trkpt><trkpt lat="44.01184801649657" lon="12.085652970359376"><ele>334.0</ele><time>2026-04-18T10:35:07.969Z</time></trkpt><trkpt lat="44.01183089814412" lon="12.085540525359528"><ele>334.0</ele><time>2026-04-18T10:35:08.969Z</time></trkpt><trkpt lat="44.01180816695625" lon="12.085420814756318"><ele>334.0</ele><time>2026-04-18T10:35:09.969Z</time></trkpt><trkpt lat="44.011779300886325" lon="12.085306091153674"><ele>334.0</ele><time>2026-04-18T10:35:10.969Z</time></trkpt><trkpt lat="44.011751494276425" lon="12.08521272302044"><ele>333.85714285714283</ele><time>2026-04-18T10:35:11.969Z</time></trkpt><trkpt lat="44.01172472934639" lon="12.08513001838281"><ele>333.7142857142857</ele><time>2026-04-18T10:35:12.969Z</time></trkpt><trkpt lat="44.011696238014665" lon="12.08504416067061"><ele>333.57142857142856</ele><time>2026-04-18T10:35:13.969Z</time></trkpt><trkpt lat="44.011663213293666" lon="12.084943098692852"><ele>333.42857142857144</ele><time>2026-04-18T10:35:14.969Z</time></trkpt><trkpt lat="44.01161547949449" lon="12.084851951206373"><ele>333.2857142857143</ele><time>2026-04-18T10:35:15.969Z</time></trkpt><trkpt lat="44.01157378044232" lon="12.084770758367958"><ele>333.14285714285717</ele><time>2026-04-18T10:35:16.969Z</time></trkpt><trkpt lat="44.01152538819377" lon="12.084689357702857"><ele>333.0</ele><time>2026-04-18T10:35:17.969Z</time></trkpt><trkpt lat="44.0114710743174" lon="12.084592597857952"><ele>332.4</ele><time>2026-04-18T10:35:18.969Z</time></trkpt><trkpt lat="44.0114161405017" lon="12.084488659790324"><ele>331.79999999999995</ele><time>2026-04-18T10:35:19.969Z</time></trkpt><trkpt lat="44.01135749002959" lon="12.084384989516805"><ele>331.2</ele><time>2026-04-18T10:35:20.969Z</time></trkpt><trkpt lat="44.011296912479146" lon="12.08428362078619"><ele>330.6</ele><time>2026-04-18T10:35:21.969Z</time></trkpt><trkpt lat="44.01123873776448" lon="12.0841817415907"><ele>330.0</ele><time>2026-04-18T10:35:22.969Z</time></trkpt><trkpt lat="44.01117604184917" lon="12.084075759070519"><ele>330.0</ele><time>2026-04-18T10:35:23.97Z</time></trkpt><trkpt lat="44.01110699652772" lon="12.083959567378633"><ele>330.0</ele><time>2026-04-18T10:35:24.97Z</time></trkpt><trkpt lat="44.0110453301785" lon="12.083844716851068"><ele>330.0</ele><time>2026-04-18T10:35:25.97Z</time></trkpt><trkpt lat="44.0109824121747" lon="12.083722097872345"><ele>330.0</ele><time>2026-04-18T10:35:26.97Z</time></trkpt><trkpt lat="44.01092582002275" lon="12.083602840393242"><ele>330.0</ele><time>2026-04-18T10:35:27.97Z</time></trkpt><trkpt lat="44.01086654007323" lon="12.083496448026118"><ele>329.8</ele><time>2026-04-18T10:35:28.97Z</time></trkpt><trkpt lat="44.01080455636781" lon="12.083386934118968"><ele>329.6</ele><time>2026-04-18T10:35:29.97Z</time></trkpt><trkpt lat="44.01074822232983" lon="12.083275808585887"><ele>329.4</ele><time>2026-04-18T10:35:30.97Z</time></trkpt><trkpt lat="44.01068936167388" lon="12.083166516649518"><ele>329.2</ele><time>2026-04-18T10:35:31.97Z</time></trkpt><trkpt lat="44.010636190359385" lon="12.083074544509588"><ele>329.0</ele><time>2026-04-18T10:35:32.97Z</time></trkpt><trkpt lat="44.01057801952423" lon="12.082978034925791"><ele>329.0</ele><time>2026-04-18T10:35:33.97Z</time></trkpt><trkpt lat="44.01051992017622" lon="12.082873093606956"><ele>329.0</ele><time>2026-04-18T10:35:34.97Z</time></trkpt><trkpt lat="44.01047966661892" lon="12.082751147155635"><ele>329.0</ele><time>2026-04-18T10:35:35.97Z</time></trkpt><trkpt lat="44.01041517165669" lon="12.082661364608526"><ele>329.0</ele><time>2026-04-18T10:35:36.97Z</time></trkpt><trkpt lat="44.01034445576343" lon="12.082562278825087"><ele>329.0</ele><time>2026-04-18T10:35:37.97Z</time></trkpt><trkpt lat="44.01027043020316" lon="12.082464903078101"><ele>329.6</ele><time>2026-04-18T10:35:38.97Z</time></trkpt><trkpt lat="44.01018811749702" lon="12.082386519717728"><ele>330.2</ele><time>2026-04-18T10:35:39.97Z</time></trkpt><trkpt lat="44.01010946941969" lon="12.082300433261729"><ele>330.8</ele><time>2026-04-18T10:35:40.97Z</time></trkpt><trkpt lat="44.01002287841362" lon="12.082207554451955"><ele>331.40000000000003</ele><time>2026-04-18T10:35:41.97Z</time></trkpt><trkpt lat="44.00994067868981" lon="12.082118124414883"><ele>332.0</ele><time>2026-04-18T10:35:42.97Z</time></trkpt><trkpt lat="44.00985827706009" lon="12.082027322670063"><ele>332.0</ele><time>2026-04-18T10:35:43.97Z</time></trkpt><trkpt lat="44.009789992542814" lon="12.081944763802513"><ele>332.0</ele><time>2026-04-18T10:35:44.97Z</time></trkpt><trkpt lat="44.009727997640006" lon="12.081886249352587"><ele>332.0</ele><time>2026-04-18T10:35:45.97Z</time></trkpt><trkpt lat="44.009669376190146" lon="12.081849075134722"><ele>332.0</ele><time>2026-04-18T10:35:46.97Z</time></trkpt><trkpt lat="44.00959080583952" lon="12.081790034159729"><ele>332.0</ele><time>2026-04-18T10:35:48.97Z</time></trkpt><trkpt lat="44.009555845074274" lon="12.081696941338937"><ele>332.0</ele><time>2026-04-18T10:35:51.97Z</time></trkpt><trkpt lat="44.00950701744324" lon="12.081641372585144"><ele>332.6666666666667</ele><time>2026-04-18T10:36:11.97Z</time></trkpt><trkpt lat="44.00944413336674" lon="12.081570651523228"><ele>333.33333333333337</ele><time>2026-04-18T10:36:13.97Z</time></trkpt><trkpt lat="44.009353574198386" lon="12.081493908124656"><ele>334.0</ele><time>2026-04-18T10:36:15.97Z</time></trkpt><trkpt lat="44.009300208902104" lon="12.081433915576389"><ele>334.6666666666667</ele><time>2026-04-18T10:36:16.97Z</time></trkpt><trkpt lat="44.00924235773355" lon="12.081365222948182"><ele>335.3333333333333</ele><time>2026-04-18T10:36:17.97Z</time></trkpt><trkpt lat="44.00917890926434" lon="12.081294600764716"><ele>336.0</ele><time>2026-04-18T10:36:18.97Z</time></trkpt><trkpt lat="44.00911891763383" lon="12.081225363411887"><ele>333.8333333333333</ele><time>2026-04-18T10:36:19.97Z</time></trkpt><trkpt lat="44.0090639543685" lon="12.081153876163278"><ele>331.6666666666667</ele><time>2026-04-18T10:36:20.97Z</time></trkpt><trkpt lat="44.009009170473846" lon="12.081088110274852"><ele>329.5</ele><time>2026-04-18T10:36:21.97Z</time></trkpt><trkpt lat="44.00894893051555" lon="12.081017056316494"><ele>327.33333333333337</ele><time>2026-04-18T10:36:22.97Z</time></trkpt><trkpt lat="44.00888954010733" lon="12.080943772944511"><ele>325.1666666666667</ele><time>2026-04-18T10:36:23.97Z</time></trkpt><trkpt lat="44.00883117208845" lon="12.080870842379367"><ele>323.0</ele><time>2026-04-18T10:36:24.97Z</time></trkpt><trkpt lat="44.00876925291041" lon="12.080796982078116"><ele>323.79999999999995</ele><time>2026-04-18T10:36:25.97Z</time></trkpt><trkpt lat="44.008714686248666" lon="12.080715092176945"><ele>324.6</ele><time>2026-04-18T10:36:26.97Z</time></trkpt><trkpt lat="44.00865693394579" lon="12.080620649036655"><ele>325.4</ele><time>2026-04-18T10:36:27.97Z</time></trkpt><trkpt lat="44.00860024992666" lon="12.08051332638071"><ele>326.20000000000005</ele><time>2026-04-18T10:36:28.97Z</time></trkpt><trkpt lat="44.0085405736828" lon="12.080401663406185"><ele>327.0</ele><time>2026-04-18T10:36:29.97Z</time></trkpt><trkpt lat="44.00848907413274" lon="12.080292701765114"><ele>327.0</ele><time>2026-04-18T10:36:30.97Z</time></trkpt><trkpt lat="44.00844115682679" lon="12.08017684578911"><ele>327.0</ele><time>2026-04-18T10:36:31.97Z</time></trkpt><trkpt lat="44.00839351110629" lon="12.080062138917997"><ele>327.0</ele><time>2026-04-18T10:36:32.97Z</time></trkpt><trkpt lat="44.00833674361589" lon="12.079949608894042"><ele>327.0</ele><time>2026-04-18T10:36:33.97Z</time></trkpt><trkpt lat="44.008280276234984" lon="12.07983090434034"><ele>327.0</ele><time>2026-04-18T10:36:34.97Z</time></trkpt><trkpt lat="44.00822876837849" lon="12.079714278309472"><ele>324.6</ele><time>2026-04-18T10:36:35.97Z</time></trkpt><trkpt lat="44.008169594085274" lon="12.079595174199081"><ele>322.20000000000005</ele><time>2026-04-18T10:36:36.97Z</time></trkpt><trkpt lat="44.00812246896021" lon="12.07947465440586"><ele>319.8</ele><time>2026-04-18T10:36:37.97Z</time></trkpt><trkpt lat="44.00806985458593" lon="12.079374712977367"><ele>317.4</ele><time>2026-04-18T10:36:38.97Z</time></trkpt><trkpt lat="44.00802027078164" lon="12.07927149314949"><ele>315.0</ele><time>2026-04-18T10:36:39.97Z</time></trkpt><trkpt lat="44.00797229479875" lon="12.0791676632466"><ele>317.1666666666667</ele><time>2026-04-18T10:36:40.97Z</time></trkpt><trkpt lat="44.00792389710616" lon="12.079063074809941"><ele>319.3333333333333</ele><time>2026-04-18T10:36:41.97Z</time></trkpt><trkpt lat="44.00787981392736" lon="12.07896835149102"><ele>321.5</ele><time>2026-04-18T10:36:42.97Z</time></trkpt><trkpt lat="44.007824826817206" lon="12.078867750397102"><ele>323.66666666666663</ele><time>2026-04-18T10:36:43.97Z</time></trkpt><trkpt lat="44.00777418440324" lon="12.078771384666046"><ele>325.8333333333333</ele><time>2026-04-18T10:36:44.97Z</time></trkpt><trkpt lat="44.00772660609219" lon="12.078688005103107"><ele>328.0</ele><time>2026-04-18T10:36:45.97Z</time></trkpt><trkpt lat="44.00766510705616" lon="12.078611299555279"><ele>328.0</ele><time>2026-04-18T10:36:46.97Z</time></trkpt><trkpt lat="44.00759724982166" lon="12.078536247502916"><ele>328.0</ele><time>2026-04-18T10:36:47.97Z</time></trkpt><trkpt lat="44.00752426618067" lon="12.078473055650536"><ele>328.0</ele><time>2026-04-18T10:36:48.97Z</time></trkpt><trkpt lat="44.007440141761805" lon="12.078417715200281"><ele>328.0</ele><time>2026-04-18T10:36:49.97Z</time></trkpt><trkpt lat="44.007347805796684" lon="12.078378276422114"><ele>328.0</ele><time>2026-04-18T10:36:50.97Z</time></trkpt><trkpt lat="44.007253708780745" lon="12.078337300721836"><ele>328.66666666666663</ele><time>2026-04-18T10:36:51.97Z</time></trkpt><trkpt lat="44.00716895074325" lon="12.078295660710193"><ele>329.3333333333333</ele><time>2026-04-18T10:36:52.97Z</time></trkpt><trkpt lat="44.00708683061707" lon="12.078258937118095"><ele>330.0</ele><time>2026-04-18T10:36:53.97Z</time></trkpt><trkpt lat="44.00701154188405" lon="12.07820709824394"><ele>330.6666666666667</ele><time>2026-04-18T10:36:54.97Z</time></trkpt><trkpt lat="44.006929884097836" lon="12.078148920544468"><ele>331.33333333333337</ele><time>2026-04-18T10:36:55.97Z</time></trkpt><trkpt lat="44.00685170926174" lon="12.078067896411158"><ele>332.0</ele><time>2026-04-18T10:36:56.97Z</time></trkpt><trkpt lat="44.00677395743923" lon="12.077970834009966"><ele>332.0</ele><time>2026-04-18T10:36:57.97Z</time></trkpt><trkpt lat="44.006708044823085" lon="12.0778500349991"><ele>332.0</ele><time>2026-04-18T10:36:58.97Z</time></trkpt><trkpt lat="44.00664137137056" lon="12.077733762104684"><ele>332.0</ele><time>2026-04-18T10:36:59.97Z</time></trkpt><trkpt lat="44.00655996600972" lon="12.077622091551714"><ele>332.0</ele><time>2026-04-18T10:37:00.97Z</time></trkpt><trkpt lat="44.00648610278534" lon="12.077530627252258"><ele>332.0</ele><time>2026-04-18T10:37:01.969Z</time></trkpt><trkpt lat="44.006401789097374" lon="12.077448995440411"><ele>332.0</ele><time>2026-04-18T10:37:02.969Z</time></trkpt><trkpt lat="44.00630752447361" lon="12.077378383735661"><ele>332.0</ele><time>2026-04-18T10:37:03.969Z</time></trkpt><trkpt lat="44.006215061973464" lon="12.077322715801792"><ele>332.0</ele><time>2026-04-18T10:37:04.969Z</time></trkpt><trkpt lat="44.00612321816514" lon="12.077266994081539"><ele>332.0</ele><time>2026-04-18T10:37:05.969Z</time></trkpt><trkpt lat="44.006040081324706" lon="12.077206687288871"><ele>332.0</ele><time>2026-04-18T10:37:06.969Z</time></trkpt><trkpt lat="44.005962991283" lon="12.077139304886108"><ele>332.0</ele><time>2026-04-18T10:37:07.969Z</time></trkpt><trkpt lat="44.0058924186036" lon="12.07705803865767"><ele>332.0</ele><time>2026-04-18T10:37:08.969Z</time></trkpt><trkpt lat="44.005841253914696" lon="12.076963132999058"><ele>332.0</ele><time>2026-04-18T10:37:09.969Z</time></trkpt><trkpt lat="44.00578652741297" lon="12.07689735979785"><ele>332.0</ele><time>2026-04-18T10:37:10.969Z</time></trkpt><trkpt lat="44.005701147949424" lon="12.076785493855912"><ele>332.0</ele><time>2026-04-18T10:37:12.969Z</time></trkpt><trkpt lat="44.00557770880917" lon="12.076685572063065"><ele>331.6666666666667</ele><time>2026-04-18T10:37:14.969Z</time></trkpt><trkpt lat="44.00550094562648" lon="12.076643240738939"><ele>331.33333333333337</ele><time>2026-04-18T10:37:15.969Z</time></trkpt><trkpt lat="44.005419674905646" lon="12.07661011955968"><ele>331.0</ele><time>2026-04-18T10:37:16.969Z</time></trkpt><trkpt lat="44.0053357419636" lon="12.07657513207035"><ele>330.6666666666667</ele><time>2026-04-18T10:37:17.969Z</time></trkpt><trkpt lat="44.0052490261946" lon="12.076538252384163"><ele>330.3333333333333</ele><time>2026-04-18T10:37:18.969Z</time></trkpt><trkpt lat="44.0051699027147" lon="12.076502421029549"><ele>330.0</ele><time>2026-04-18T10:37:19.969Z</time></trkpt><trkpt lat="44.005095798446035" lon="12.07646709191022"><ele>330.00000000000006</ele><time>2026-04-18T10:37:20.969Z</time></trkpt><trkpt lat="44.005025418867234" lon="12.076437196004548"><ele>330.0</ele><time>2026-04-18T10:37:21.969Z</time></trkpt><trkpt lat="44.00495261531171" lon="12.076411133904413"><ele>330.0</ele><time>2026-04-18T10:37:22.969Z</time></trkpt><trkpt lat="44.00488665564542" lon="12.076367839074733"><ele>330.0</ele><time>2026-04-18T10:37:23.969Z</time></trkpt><trkpt lat="44.00481790573882" lon="12.076366070512108"><ele>330.0</ele><time>2026-04-18T10:37:24.969Z</time></trkpt><trkpt lat="44.00474591757526" lon="12.076387551045553"><ele>330.00000000000006</ele><time>2026-04-18T10:37:25.969Z</time></trkpt><trkpt lat="44.00466575047864" lon="12.07640510920557"><ele>330.0</ele><time>2026-04-18T10:37:26.969Z</time></trkpt><trkpt lat="44.004570614611886" lon="12.076435731662778"><ele>332.1666666666667</ele><time>2026-04-18T10:37:27.969Z</time></trkpt><trkpt lat="44.004480118517364" lon="12.076468062151331"><ele>334.3333333333333</ele><time>2026-04-18T10:37:28.969Z</time></trkpt><trkpt lat="44.00439257721831" lon="12.076506719779356"><ele>336.5</ele><time>2026-04-18T10:37:29.97Z</time></trkpt><trkpt lat="44.00431193334036" lon="12.076526010899396"><ele>338.66666666666663</ele><time>2026-04-18T10:37:30.97Z</time></trkpt><trkpt lat="44.00423577626416" lon="12.076519912609792"><ele>340.8333333333333</ele><time>2026-04-18T10:37:31.97Z</time></trkpt><trkpt lat="44.00416380090683" lon="12.076493422989058"><ele>343.0</ele><time>2026-04-18T10:37:32.97Z</time></trkpt><trkpt lat="44.00410355166919" lon="12.07644987474004"><ele>346.5</ele><time>2026-04-18T10:37:33.97Z</time></trkpt><trkpt lat="44.00404083806214" lon="12.076371729551376"><ele>350.0</ele><time>2026-04-18T10:37:34.97Z</time></trkpt><trkpt lat="44.003986895086676" lon="12.076288910052883"><ele>353.5</ele><time>2026-04-18T10:37:35.97Z</time></trkpt><trkpt lat="44.0039272233449" lon="12.076202842693036"><ele>357.0</ele><time>2026-04-18T10:37:36.971Z</time></trkpt><trkpt lat="44.00387842467751" lon="12.076115592158045"><ele>360.5</ele><time>2026-04-18T10:37:37.97Z</time></trkpt><trkpt lat="44.003831859728145" lon="12.0760367501426"><ele>364.0</ele><time>2026-04-18T10:37:38.97Z</time></trkpt><trkpt lat="44.00377991983282" lon="12.075954405148908"><ele>364.0</ele><time>2026-04-18T10:37:39.97Z</time></trkpt><trkpt lat="44.003711755930325" lon="12.075882625976181"><ele>364.0</ele><time>2026-04-18T10:37:40.97Z</time></trkpt><trkpt lat="44.00363018785933" lon="12.075808156473402"><ele>364.0</ele><time>2026-04-18T10:37:41.97Z</time></trkpt><trkpt lat="44.00353859996178" lon="12.075740710798355"><ele>364.0</ele><time>2026-04-18T10:37:42.97Z</time></trkpt><trkpt lat="44.003451263335776" lon="12.075695183034329"><ele>364.0</ele><time>2026-04-18T10:37:43.97Z</time></trkpt><trkpt lat="44.00334847638501" lon="12.07566219535578"><ele>369.5</ele><time>2026-04-18T10:37:44.97Z</time></trkpt><trkpt lat="44.00327574231035" lon="12.075617254219992"><ele>375.0</ele><time>2026-04-18T10:37:45.97Z</time></trkpt><trkpt lat="44.00320554896891" lon="12.075585800736157"><ele>380.5</ele><time>2026-04-18T10:37:46.97Z</time></trkpt><trkpt lat="44.003149358370116" lon="12.075440905102907"><ele>386.0</ele><time>2026-04-18T10:37:48.97Z</time></trkpt><trkpt lat="44.00313631943788" lon="12.075320012549922"><ele>391.50000000000006</ele><time>2026-04-18T10:37:49.97Z</time></trkpt><trkpt lat="44.0031468408146" lon="12.07520654053105"><ele>397.0</ele><time>2026-04-18T10:37:50.97Z</time></trkpt><trkpt lat="44.003151703955815" lon="12.075091381922032"><ele>397.00000000000006</ele><time>2026-04-18T10:37:51.97Z</time></trkpt><trkpt lat="44.003161578898066" lon="12.074982197948277"><ele>397.0</ele><time>2026-04-18T10:37:52.97Z</time></trkpt><trkpt lat="44.003169950052666" lon="12.074888891890414"><ele>397.0</ele><time>2026-04-18T10:37:53.97Z</time></trkpt><trkpt lat="44.00313433954379" lon="12.074732384904827"><ele>397.0</ele><time>2026-04-18T10:37:55.97Z</time></trkpt><trkpt lat="44.003063422422734" lon="12.074653500402505"><ele>397.00000000000006</ele><time>2026-04-18T10:37:57.97Z</time></trkpt><trkpt lat="44.00298931827199" lon="12.074654944073949"><ele>397.0</ele><time>2026-04-18T10:37:58.97Z</time></trkpt><trkpt lat="44.002898617873775" lon="12.074779568514945"><ele>397.00000000000006</ele><time>2026-04-18T10:38:00.97Z</time></trkpt><trkpt lat="44.00289276976919" lon="12.074901084763487"><ele>397.0</ele><time>2026-04-18T10:38:01.97Z</time></trkpt><trkpt lat="44.00286891066841" lon="12.075020810876516"><ele>397.0</ele><time>2026-04-18T10:38:02.97Z</time></trkpt><trkpt lat="44.002844108807516" lon="12.075142069948965"><ele>397.0</ele><time>2026-04-18T10:38:03.97Z</time></trkpt><trkpt lat="44.00281932914419" lon="12.075265319189358"><ele>397.00000000000006</ele><time>2026-04-18T10:38:04.97Z</time></trkpt><trkpt lat="44.00279731570037" lon="12.075386025694828"><ele>397.0</ele><time>2026-04-18T10:38:05.97Z</time></trkpt><trkpt lat="44.00277394744926" lon="12.075489650477646"><ele>397.00000000000006</ele><time>2026-04-18T10:38:06.97Z</time></trkpt><trkpt lat="44.00277069895798" lon="12.075591432374821"><ele>397.0</ele><time>2026-04-18T10:38:07.97Z</time></trkpt><trkpt lat="44.00277925833548" lon="12.075725776138118"><ele>397.0</ele><time>2026-04-18T10:38:08.97Z</time></trkpt><trkpt lat="44.00280456027127" lon="12.075834895685784"><ele>397.0</ele><time>2026-04-18T10:38:09.97Z</time></trkpt><trkpt lat="44.00280636662084" lon="12.075935608653744"><ele>397.00000000000006</ele><time>2026-04-18T10:38:10.97Z</time></trkpt><trkpt lat="44.00277196850131" lon="12.076051135332941"><ele>397.0</ele><time>2026-04-18T10:38:11.97Z</time></trkpt><trkpt lat="44.00273252736275" lon="12.076142534871689"><ele>396.50000000000006</ele><time>2026-04-18T10:38:12.97Z</time></trkpt><trkpt lat="44.00267026982802" lon="12.076191331705235"><ele>396.0</ele><time>2026-04-18T10:38:13.97Z</time></trkpt><trkpt lat="44.002603969460964" lon="12.076242874294502"><ele>395.5</ele><time>2026-04-18T10:38:14.97Z</time></trkpt><trkpt lat="44.00253026319794" lon="12.07628703400037"><ele>395.0</ele><time>2026-04-18T10:38:15.97Z</time></trkpt><trkpt lat="44.002451109573855" lon="12.076349200283618"><ele>394.50000000000006</ele><time>2026-04-18T10:38:16.97Z</time></trkpt><trkpt lat="44.00237945006631" lon="12.07642798746439"><ele>394.0</ele><time>2026-04-18T10:38:17.97Z</time></trkpt><trkpt lat="44.00230961753116" lon="12.076520020715446"><ele>396.1666666666667</ele><time>2026-04-18T10:38:18.97Z</time></trkpt><trkpt lat="44.00224977627498" lon="12.076613790209029"><ele>398.33333333333337</ele><time>2026-04-18T10:38:19.97Z</time></trkpt><trkpt lat="44.00220299999467" lon="12.076694283487424"><ele>400.5</ele><time>2026-04-18T10:38:20.97Z</time></trkpt><trkpt lat="44.00216014752415" lon="12.076781569535491"><ele>402.66666666666663</ele><time>2026-04-18T10:38:21.97Z</time></trkpt><trkpt lat="44.00212192727666" lon="12.076863729929626"><ele>404.8333333333333</ele><time>2026-04-18T10:38:22.97Z</time></trkpt><trkpt lat="44.00209309157916" lon="12.076972008639538"><ele>407.0</ele><time>2026-04-18T10:38:23.97Z</time></trkpt><trkpt lat="44.00205573646491" lon="12.077075707553485"><ele>407.00000000000006</ele><time>2026-04-18T10:38:24.97Z</time></trkpt><trkpt lat="44.00201963523471" lon="12.077157865604649"><ele>407.0</ele><time>2026-04-18T10:38:25.97Z</time></trkpt><trkpt lat="44.00198956572833" lon="12.077242172542789"><ele>407.0</ele><time>2026-04-18T10:38:26.969Z</time></trkpt><trkpt lat="44.00195534009927" lon="12.077328769847528"><ele>407.0</ele><time>2026-04-18T10:38:27.969Z</time></trkpt><trkpt lat="44.001916583447574" lon="12.07741157234703"><ele>407.0</ele><time>2026-04-18T10:38:28.969Z</time></trkpt><trkpt lat="44.00186973464614" lon="12.077480466032924"><ele>407.00000000000006</ele><time>2026-04-18T10:38:29.969Z</time></trkpt><trkpt lat="44.0018134007254" lon="12.07754306874891"><ele>407.0</ele><time>2026-04-18T10:38:30.969Z</time></trkpt><trkpt lat="44.00175482980368" lon="12.07757897868151"><ele>405.3333333333333</ele><time>2026-04-18T10:38:31.969Z</time></trkpt><trkpt lat="44.0016823091092" lon="12.07762621445563"><ele>403.66666666666663</ele><time>2026-04-18T10:38:33.969Z</time></trkpt><trkpt lat="44.00163636895865" lon="12.077747543736761"><ele>402.0</ele><time>2026-04-18T10:38:46.969Z</time></trkpt><trkpt lat="44.00159808611295" lon="12.077907402469437"><ele>400.33333333333337</ele><time>2026-04-18T10:38:48.969Z</time></trkpt><trkpt lat="44.00157036131475" lon="12.078001151236156"><ele>398.6666666666667</ele><time>2026-04-18T10:38:49.969Z</time></trkpt><trkpt lat="44.001541603839996" lon="12.078092658083596"><ele>397.0</ele><time>2026-04-18T10:38:50.969Z</time></trkpt><trkpt lat="44.00149840429358" lon="12.078193111609206"><ele>394.50000000000006</ele><time>2026-04-18T10:38:51.969Z</time></trkpt><trkpt lat="44.001457848899875" lon="12.078290194816123"><ele>392.0</ele><time>2026-04-18T10:38:52.969Z</time></trkpt><trkpt lat="44.001422634538606" lon="12.078391610919837"><ele>389.5</ele><time>2026-04-18T10:38:53.969Z</time></trkpt><trkpt lat="44.00138699429535" lon="12.078498932981919"><ele>387.0</ele><time>2026-04-18T10:38:54.969Z</time></trkpt><trkpt lat="44.00135585673936" lon="12.078608461606015"><ele>384.5</ele><time>2026-04-18T10:38:55.969Z</time></trkpt><trkpt lat="44.00133600416226" lon="12.078723872998202"><ele>382.0</ele><time>2026-04-18T10:38:56.969Z</time></trkpt><trkpt lat="44.001321534302285" lon="12.078835606382972"><ele>382.0</ele><time>2026-04-18T10:38:57.969Z</time></trkpt><trkpt lat="44.001314966245744" lon="12.078958082189315"><ele>382.0</ele><time>2026-04-18T10:38:58.969Z</time></trkpt><trkpt lat="44.00132211797267" lon="12.079072273364574"><ele>382.0</ele><time>2026-04-18T10:38:59.969Z</time></trkpt><trkpt lat="44.001332958471096" lon="12.079181874522614"><ele>382.0</ele><time>2026-04-18T10:39:00.969Z</time></trkpt><trkpt lat="44.00134634333223" lon="12.079280472165633"><ele>382.0</ele><time>2026-04-18T10:39:01.969Z</time></trkpt><trkpt lat="44.001354191942255" lon="12.07938439594903"><ele>382.0</ele><time>2026-04-18T10:39:02.969Z</time></trkpt><trkpt lat="44.00135868484008" lon="12.079476501579144"><ele>382.5714285714286</ele><time>2026-04-18T10:39:03.969Z</time></trkpt><trkpt lat="44.001361040823014" lon="12.079567083777105"><ele>383.1428571428571</ele><time>2026-04-18T10:39:04.969Z</time></trkpt><trkpt lat="44.00134395018794" lon="12.079659246986997"><ele>383.7142857142857</ele><time>2026-04-18T10:39:05.969Z</time></trkpt><trkpt lat="44.001329088223834" lon="12.07976063491844"><ele>384.28571428571433</ele><time>2026-04-18T10:39:06.969Z</time></trkpt><trkpt lat="44.001307827835625" lon="12.079858357004888"><ele>384.8571428571429</ele><time>2026-04-18T10:39:07.969Z</time></trkpt><trkpt lat="44.00128295641533" lon="12.079956660356439"><ele>385.42857142857144</ele><time>2026-04-18T10:39:08.969Z</time></trkpt><trkpt lat="44.001263888156586" lon="12.080069090377124"><ele>386.0</ele><time>2026-04-18T10:39:09.969Z</time></trkpt><trkpt lat="44.00121511983531" lon="12.080156634633836"><ele>386.6</ele><time>2026-04-18T10:39:10.969Z</time></trkpt><trkpt lat="44.0011815106958" lon="12.08025338704574"><ele>387.20000000000005</ele><time>2026-04-18T10:39:11.969Z</time></trkpt><trkpt lat="44.00114274125764" lon="12.080377922414549"><ele>387.79999999999995</ele><time>2026-04-18T10:39:12.969Z</time></trkpt><trkpt lat="44.00110141557306" lon="12.080497399021338"><ele>388.4</ele><time>2026-04-18T10:39:13.969Z</time></trkpt><trkpt lat="44.001060132491716" lon="12.080621836744875"><ele>389.0</ele><time>2026-04-18T10:39:14.969Z</time></trkpt><trkpt lat="44.00101822136152" lon="12.080744985553396"><ele>390.6</ele><time>2026-04-18T10:39:15.969Z</time></trkpt><trkpt lat="44.00097458497359" lon="12.080878782350494"><ele>392.2</ele><time>2026-04-18T10:39:16.969Z</time></trkpt><trkpt lat="44.00095342533777" lon="12.081009379276676"><ele>393.8</ele><time>2026-04-18T10:39:17.969Z</time></trkpt><trkpt lat="44.00091711543108" lon="12.08115703854458"><ele>395.40000000000003</ele><time>2026-04-18T10:39:18.969Z</time></trkpt><trkpt lat="44.000888510214295" lon="12.081298275319194"><ele>397.0</ele><time>2026-04-18T10:39:19.969Z</time></trkpt><trkpt lat="44.00086045469106" lon="12.08143317461902"><ele>397.0</ele><time>2026-04-18T10:39:20.968Z</time></trkpt><trkpt lat="44.00084514948642" lon="12.081571679607608"><ele>397.0</ele><time>2026-04-18T10:39:21.967Z</time></trkpt><trkpt lat="44.0008370660151" lon="12.081699181436905"><ele>397.0</ele><time>2026-04-18T10:39:22.966Z</time></trkpt><trkpt lat="44.000816435269414" lon="12.081819280841682"><ele>397.0</ele><time>2026-04-18T10:39:23.965Z</time></trkpt><trkpt lat="44.00081027445299" lon="12.08196494077013"><ele>397.0</ele><time>2026-04-18T10:39:24.964Z</time></trkpt><trkpt lat="44.00080196856642" lon="12.082128621286367"><ele>392.8</ele><time>2026-04-18T10:39:25.963Z</time></trkpt><trkpt lat="44.000805293678525" lon="12.082277447418518"><ele>388.6</ele><time>2026-04-18T10:39:26.962Z</time></trkpt><trkpt lat="44.00078734813514" lon="12.082429821563263"><ele>384.40000000000003</ele><time>2026-04-18T10:39:27.961Z</time></trkpt><trkpt lat="44.000784118203725" lon="12.082580007660512"><ele>380.20000000000005</ele><time>2026-04-18T10:39:28.961Z</time></trkpt><trkpt lat="44.000781049872586" lon="12.082732728717351"><ele>376.0</ele><time>2026-04-18T10:39:29.88Z</time></trkpt><trkpt lat="44.00077927769938" lon="12.082873786401453"><ele>375.6</ele><time>2026-04-18T10:39:30.88Z</time></trkpt><trkpt lat="44.00079481100113" lon="12.083029894650732"><ele>375.20000000000005</ele><time>2026-04-18T10:39:31.88Z</time></trkpt><trkpt lat="44.00080383673893" lon="12.083170656966798"><ele>374.79999999999995</ele><time>2026-04-18T10:39:32.88Z</time></trkpt><trkpt lat="44.000807674928915" lon="12.083311824160043"><ele>374.4</ele><time>2026-04-18T10:39:33.88Z</time></trkpt><trkpt lat="44.00081316380998" lon="12.083444858658718"><ele>374.0</ele><time>2026-04-18T10:39:34.88Z</time></trkpt><trkpt lat="44.00080966648385" lon="12.083580783263914"><ele>371.79999999999995</ele><time>2026-04-18T10:39:35.881Z</time></trkpt><trkpt lat="44.00080084878982" lon="12.083722376702207"><ele>369.59999999999997</ele><time>2026-04-18T10:39:36.881Z</time></trkpt><trkpt lat="44.000790257067145" lon="12.083883026809916"><ele>367.4</ele><time>2026-04-18T10:39:37.881Z</time></trkpt><trkpt lat="44.00079615369508" lon="12.084025803766007"><ele>365.2</ele><time>2026-04-18T10:39:38.881Z</time></trkpt><trkpt lat="44.00079879881206" lon="12.08415890337809"><ele>363.0</ele><time>2026-04-18T10:39:39.881Z</time></trkpt><trkpt lat="44.00081073274326" lon="12.08428835738997"><ele>360.79999999999995</ele><time>2026-04-18T10:39:40.881Z</time></trkpt><trkpt lat="44.000815490109815" lon="12.084413422684555"><ele>358.6</ele><time>2026-04-18T10:39:41.881Z</time></trkpt><trkpt lat="44.00079520570855" lon="12.084528982021183"><ele>356.4</ele><time>2026-04-18T10:39:42.881Z</time></trkpt><trkpt lat="44.000776995653354" lon="12.084637820258209"><ele>354.20000000000005</ele><time>2026-04-18T10:39:43.881Z</time></trkpt><trkpt lat="44.0007509901405" lon="12.0847504699119"><ele>352.0</ele><time>2026-04-18T10:39:44.881Z</time></trkpt><trkpt lat="44.00069892959457" lon="12.084883610884935"><ele>352.6</ele><time>2026-04-18T10:39:45.881Z</time></trkpt><trkpt lat="44.00063927691765" lon="12.085009387001325"><ele>353.20000000000005</ele><time>2026-04-18T10:39:46.881Z</time></trkpt><trkpt lat="44.00059170320641" lon="12.085110021586658"><ele>353.8</ele><time>2026-04-18T10:39:47.881Z</time></trkpt><trkpt lat="44.000537432003874" lon="12.085237099789092"><ele>354.4</ele><time>2026-04-18T10:39:48.881Z</time></trkpt><trkpt lat="44.00050442390949" lon="12.085327220314316"><ele>355.0</ele><time>2026-04-18T10:39:49.881Z</time></trkpt><trkpt lat="44.00046540496106" lon="12.085441165025507"><ele>355.0</ele><time>2026-04-18T10:39:50.881Z</time></trkpt><trkpt lat="44.00042764145201" lon="12.085566337180618"><ele>355.0</ele><time>2026-04-18T10:39:51.881Z</time></trkpt><trkpt lat="44.00039676397239" lon="12.085675401832832"><ele>355.0</ele><time>2026-04-18T10:39:52.881Z</time></trkpt><trkpt lat="44.00037631745272" lon="12.085802035556842"><ele>355.0</ele><time>2026-04-18T10:39:53.881Z</time></trkpt><trkpt lat="44.00036366624758" lon="12.085938722721265"><ele>355.0</ele><time>2026-04-18T10:39:54.881Z</time></trkpt><trkpt lat="44.00035771521336" lon="12.086089567996844"><ele>355.2</ele><time>2026-04-18T10:39:55.881Z</time></trkpt><trkpt lat="44.000371808353805" lon="12.08623727921137"><ele>355.4</ele><time>2026-04-18T10:39:56.881Z</time></trkpt><trkpt lat="44.00037079291706" lon="12.086383184702772"><ele>355.6</ele><time>2026-04-18T10:39:57.881Z</time></trkpt><trkpt lat="44.00037418923693" lon="12.086528155405007"><ele>355.8</ele><time>2026-04-18T10:39:58.881Z</time></trkpt><trkpt lat="44.00038098871745" lon="12.086657244421557"><ele>356.0</ele><time>2026-04-18T10:39:59.881Z</time></trkpt><trkpt lat="44.00038173359537" lon="12.086776601342489"><ele>355.33333333333337</ele><time>2026-04-18T10:40:00.881Z</time></trkpt><trkpt lat="44.00039191203846" lon="12.086877874175489"><ele>354.6666666666667</ele><time>2026-04-18T10:40:01.881Z</time></trkpt><trkpt lat="44.00039994860266" lon="12.086983912061141"><ele>354.0</ele><time>2026-04-18T10:40:02.881Z</time></trkpt><trkpt lat="44.00042141458961" lon="12.08710314652588"><ele>353.3333333333333</ele><time>2026-04-18T10:40:03.881Z</time></trkpt><trkpt lat="44.00046766008798" lon="12.087224933796792"><ele>352.66666666666663</ele><time>2026-04-18T10:40:04.881Z</time></trkpt><trkpt lat="44.000514906579305" lon="12.0873651112877"><ele>352.0</ele><time>2026-04-18T10:40:05.881Z</time></trkpt><trkpt lat="44.000565068603905" lon="12.087478038346008"><ele>350.20000000000005</ele><time>2026-04-18T10:40:06.881Z</time></trkpt><trkpt lat="44.000613520254305" lon="12.087603890347898"><ele>348.4</ele><time>2026-04-18T10:40:07.881Z</time></trkpt><trkpt lat="44.000639966343215" lon="12.087737079480473"><ele>346.6</ele><time>2026-04-18T10:40:08.881Z</time></trkpt><trkpt lat="44.000676438293006" lon="12.087860475193265"><ele>344.79999999999995</ele><time>2026-04-18T10:40:09.881Z</time></trkpt><trkpt lat="44.00070113101372" lon="12.08797724635492"><ele>343.0</ele><time>2026-04-18T10:40:10.881Z</time></trkpt><trkpt lat="44.00073040865022" lon="12.088105954210667"><ele>343.0</ele><time>2026-04-18T10:40:11.881Z</time></trkpt><trkpt lat="44.00073933325132" lon="12.08825568804956"><ele>343.0</ele><time>2026-04-18T10:40:12.881Z</time></trkpt><trkpt lat="44.00074523915321" lon="12.08837383722534"><ele>343.0</ele><time>2026-04-18T10:40:13.881Z</time></trkpt><trkpt lat="44.0007479883118" lon="12.08850353880662"><ele>343.0</ele><time>2026-04-18T10:40:14.881Z</time></trkpt><trkpt lat="44.000736157011005" lon="12.088634070071443"><ele>343.0</ele><time>2026-04-18T10:40:15.881Z</time></trkpt><trkpt lat="44.00072046201786" lon="12.08876198111045"><ele>341.4</ele><time>2026-04-18T10:40:16.881Z</time></trkpt><trkpt lat="44.000703692615154" lon="12.088903358302225"><ele>339.79999999999995</ele><time>2026-04-18T10:40:17.881Z</time></trkpt><trkpt lat="44.00068171601897" lon="12.08903640552263"><ele>338.2</ele><time>2026-04-18T10:40:18.881Z</time></trkpt><trkpt lat="44.00065123708858" lon="12.089185578634034"><ele>336.6</ele><time>2026-04-18T10:40:19.88Z</time></trkpt><trkpt lat="44.000623145309504" lon="12.08931823913485"><ele>335.0</ele><time>2026-04-18T10:40:20.88Z</time></trkpt><trkpt lat="44.00059415958071" lon="12.089458033490834"><ele>335.0</ele><time>2026-04-18T10:40:21.88Z</time></trkpt><trkpt lat="44.00056125134349" lon="12.089594273051178"><ele>335.0</ele><time>2026-04-18T10:40:22.88Z</time></trkpt><trkpt lat="44.00052203267084" lon="12.08972484798882"><ele>335.0</ele><time>2026-04-18T10:40:23.88Z</time></trkpt><trkpt lat="44.00048920175316" lon="12.08986699322545"><ele>335.0</ele><time>2026-04-18T10:40:24.88Z</time></trkpt><trkpt lat="44.000454774512825" lon="12.089992424188816"><ele>335.0</ele><time>2026-04-18T10:40:25.88Z</time></trkpt><trkpt lat="44.00041639789742" lon="12.09011331467654"><ele>335.2</ele><time>2026-04-18T10:40:26.88Z</time></trkpt><trkpt lat="44.00037702370054" lon="12.090228224003386"><ele>335.4</ele><time>2026-04-18T10:40:27.88Z</time></trkpt><trkpt lat="44.00033966274493" lon="12.090371013652366"><ele>335.6</ele><time>2026-04-18T10:40:28.88Z</time></trkpt><trkpt lat="44.0002763035206" lon="12.090481070183758"><ele>335.8</ele><time>2026-04-18T10:40:29.88Z</time></trkpt><trkpt lat="44.00022398411061" lon="12.090583525043183"><ele>336.0</ele><time>2026-04-18T10:40:30.88Z</time></trkpt><trkpt lat="44.00016434903917" lon="12.090677534598186"><ele>338.0</ele><time>2026-04-18T10:40:31.88Z</time></trkpt><trkpt lat="44.000099018889806" lon="12.090778215728992"><ele>340.0</ele><time>2026-04-18T10:40:32.88Z</time></trkpt><trkpt lat="44.0000542602227" lon="12.090897044782217"><ele>342.0</ele><time>2026-04-18T10:40:33.88Z</time></trkpt><trkpt lat="44.00002378605227" lon="12.091045744366946"><ele>344.0</ele><time>2026-04-18T10:40:34.88Z</time></trkpt><trkpt lat="44.000008511284264" lon="12.0911975092784"><ele>346.0</ele><time>2026-04-18T10:40:35.88Z</time></trkpt><trkpt lat="44.00000860258818" lon="12.091357813172692"><ele>346.0</ele><time>2026-04-18T10:40:36.88Z</time></trkpt><trkpt lat="43.99998985747508" lon="12.091504453213846"><ele>346.0</ele><time>2026-04-18T10:40:37.88Z</time></trkpt><trkpt lat="43.99995234185698" lon="12.091652144184852"><ele>346.0</ele><time>2026-04-18T10:40:38.88Z</time></trkpt><trkpt lat="43.99995102083099" lon="12.091787251559271"><ele>346.0</ele><time>2026-04-18T10:40:39.88Z</time></trkpt><trkpt lat="43.9999245796487" lon="12.091933532471016"><ele>346.0</ele><time>2026-04-18T10:40:40.88Z</time></trkpt><trkpt lat="43.99991247177076" lon="12.092081006626572"><ele>346.25</ele><time>2026-04-18T10:40:41.88Z</time></trkpt><trkpt lat="43.99989167582547" lon="12.092254320219395"><ele>346.5</ele><time>2026-04-18T10:40:42.88Z</time></trkpt><trkpt lat="43.999909505169434" lon="12.092422848467859"><ele>346.75</ele><time>2026-04-18T10:40:43.88Z</time></trkpt><trkpt lat="43.99992566160246" lon="12.09258276917562"><ele>347.0</ele><time>2026-04-18T10:40:44.88Z</time></trkpt><trkpt lat="43.999937121300746" lon="12.09273821578323"><ele>347.0</ele><time>2026-04-18T10:40:45.88Z</time></trkpt><trkpt lat="43.999948040697696" lon="12.092889863954218"><ele>347.0</ele><time>2026-04-18T10:40:46.88Z</time></trkpt><trkpt lat="43.99994361435841" lon="12.093050003368525"><ele>347.0</ele><time>2026-04-18T10:40:47.88Z</time></trkpt><trkpt lat="43.999924076603065" lon="12.09321196329411"><ele>347.0</ele><time>2026-04-18T10:40:48.88Z</time></trkpt><trkpt lat="43.99989749272393" lon="12.09336367315786"><ele>345.20000000000005</ele><time>2026-04-18T10:40:49.88Z</time></trkpt><trkpt lat="43.99985998473976" lon="12.09351789026086"><ele>343.4</ele><time>2026-04-18T10:40:50.88Z</time></trkpt><trkpt lat="43.999800761478284" lon="12.093649066956269"><ele>341.6</ele><time>2026-04-18T10:40:51.88Z</time></trkpt><trkpt lat="43.99974846247268" lon="12.093775573079174"><ele>339.79999999999995</ele><time>2026-04-18T10:40:52.88Z</time></trkpt><trkpt lat="43.99970043125781" lon="12.093918855866844"><ele>338.0</ele><time>2026-04-18T10:40:53.88Z</time></trkpt><trkpt lat="43.999668354192586" lon="12.094086844201495"><ele>336.5</ele><time>2026-04-18T10:40:54.88Z</time></trkpt><trkpt lat="43.999630079864396" lon="12.094252952928047"><ele>335.0</ele><time>2026-04-18T10:40:55.88Z</time></trkpt><trkpt lat="43.99956937312217" lon="12.09441329046875"><ele>333.5</ele><time>2026-04-18T10:40:56.88Z</time></trkpt><trkpt lat="43.99952170408414" lon="12.094567722878578"><ele>332.0</ele><time>2026-04-18T10:40:57.879Z</time></trkpt><trkpt lat="43.99947702699907" lon="12.094695857324076"><ele>332.0</ele><time>2026-04-18T10:40:58.879Z</time></trkpt><trkpt lat="43.9994267015474" lon="12.094820404882691"><ele>332.0</ele><time>2026-04-18T10:40:59.879Z</time></trkpt><trkpt lat="43.99937455850026" lon="12.094950434098527"><ele>332.0</ele><time>2026-04-18T10:41:00.879Z</time></trkpt><trkpt lat="43.999298299857294" lon="12.095054584182858"><ele>332.0</ele><time>2026-04-18T10:41:01.879Z</time></trkpt><trkpt lat="43.999229885179346" lon="12.095178768818858"><ele>332.0</ele><time>2026-04-18T10:41:02.879Z</time></trkpt><trkpt lat="43.99916960166078" lon="12.095311192515114"><ele>334.6</ele><time>2026-04-18T10:41:03.879Z</time></trkpt><trkpt lat="43.99910476568344" lon="12.095442850845679"><ele>337.20000000000005</ele><time>2026-04-18T10:41:04.879Z</time></trkpt><trkpt lat="43.99904845396719" lon="12.095561273350603"><ele>339.8</ele><time>2026-04-18T10:41:05.879Z</time></trkpt><trkpt lat="43.99900734298754" lon="12.09567735050596"><ele>342.4</ele><time>2026-04-18T10:41:06.879Z</time></trkpt><trkpt lat="43.998988957853875" lon="12.095807052337918"><ele>345.0</ele><time>2026-04-18T10:41:07.879Z</time></trkpt><trkpt lat="43.998987181464756" lon="12.095923203278486"><ele>346.25</ele><time>2026-04-18T10:41:08.879Z</time></trkpt><trkpt lat="43.99901068779342" lon="12.09606108407807"><ele>347.5</ele><time>2026-04-18T10:41:09.879Z</time></trkpt><trkpt lat="43.999050352397916" lon="12.096244775009588"><ele>348.75</ele><time>2026-04-18T10:41:10.879Z</time></trkpt><trkpt lat="43.999077334387884" lon="12.096417989354538"><ele>350.0</ele><time>2026-04-18T10:41:11.879Z</time></trkpt><trkpt lat="43.999101520033555" lon="12.096561502849562"><ele>350.0</ele><time>2026-04-18T10:41:12.879Z</time></trkpt><trkpt lat="43.999119606338546" lon="12.096681645712357"><ele>350.0</ele><time>2026-04-18T10:41:13.879Z</time></trkpt><trkpt lat="43.999157118857006" lon="12.096801077307719"><ele>350.0</ele><time>2026-04-18T10:41:14.879Z</time></trkpt><trkpt lat="43.99921344571644" lon="12.096912116785056"><ele>350.0</ele><time>2026-04-18T10:41:15.879Z</time></trkpt><trkpt lat="43.999289403989415" lon="12.097007190822872"><ele>350.0</ele><time>2026-04-18T10:41:16.879Z</time></trkpt><trkpt lat="43.99935841024885" lon="12.097070358772553"><ele>350.0</ele><time>2026-04-18T10:41:17.879Z</time></trkpt><trkpt lat="43.99944169154758" lon="12.097086657070141"><ele>350.0</ele><time>2026-04-18T10:41:18.879Z</time></trkpt><trkpt lat="43.99951930023804" lon="12.09711833415923"><ele>350.0</ele><time>2026-04-18T10:41:19.879Z</time></trkpt><trkpt lat="43.9996113890971" lon="12.097122505950656"><ele>350.0</ele><time>2026-04-18T10:41:20.879Z</time></trkpt><trkpt lat="43.999707359191454" lon="12.097107353888203"><ele>350.0</ele><time>2026-04-18T10:41:21.879Z</time></trkpt><trkpt lat="43.99981404528412" lon="12.097095804698696"><ele>350.0</ele><time>2026-04-18T10:41:22.879Z</time></trkpt><trkpt lat="43.99992124036779" lon="12.097094021132166"><ele>350.0</ele><time>2026-04-18T10:41:23.879Z</time></trkpt><trkpt lat="44.0000249035515" lon="12.097102271279912"><ele>350.0</ele><time>2026-04-18T10:41:24.879Z</time></trkpt><trkpt lat="44.00013144505532" lon="12.097107426712778"><ele>350.0</ele><time>2026-04-18T10:41:25.879Z</time></trkpt><trkpt lat="44.00022954579357" lon="12.097146301366914"><ele>350.0</ele><time>2026-04-18T10:41:26.879Z</time></trkpt><trkpt lat="44.00032179854217" lon="12.097192759458672"><ele>350.0</ele><time>2026-04-18T10:41:27.879Z</time></trkpt><trkpt lat="44.00041016335787" lon="12.097246653159788"><ele>350.0</ele><time>2026-04-18T10:41:28.879Z</time></trkpt><trkpt lat="44.000507458506966" lon="12.097305744181073"><ele>350.0</ele><time>2026-04-18T10:41:29.879Z</time></trkpt><trkpt lat="44.000598565726676" lon="12.097350779619289"><ele>350.0</ele><time>2026-04-18T10:41:30.879Z</time></trkpt><trkpt lat="44.00069598978935" lon="12.097382661534567"><ele>350.0</ele><time>2026-04-18T10:41:31.879Z</time></trkpt><trkpt lat="44.00078570205776" lon="12.097399015148804"><ele>347.0</ele><time>2026-04-18T10:41:32.879Z</time></trkpt><trkpt lat="44.000862646137094" lon="12.097414244874917"><ele>344.0</ele><time>2026-04-18T10:41:33.879Z</time></trkpt><trkpt lat="44.00097639399885" lon="12.09751202562079"><ele>341.0</ele><time>2026-04-18T10:41:35.879Z</time></trkpt><trkpt lat="44.000989280279256" lon="12.09763497759556"><ele>338.0</ele><time>2026-04-18T10:41:36.879Z</time></trkpt><trkpt lat="44.00098507502658" lon="12.097757357779438"><ele>335.0</ele><time>2026-04-18T10:41:37.879Z</time></trkpt><trkpt lat="44.000992397457665" lon="12.097886125029904"><ele>334.0</ele><time>2026-04-18T10:41:38.879Z</time></trkpt><trkpt lat="44.0009996653368" lon="12.098013932919862"><ele>333.0</ele><time>2026-04-18T10:41:39.879Z</time></trkpt><trkpt lat="44.00100665737671" lon="12.09813688993307"><ele>332.0</ele><time>2026-04-18T10:41:40.879Z</time></trkpt><trkpt lat="44.001030691664276" lon="12.098266905128703"><ele>331.0</ele><time>2026-04-18T10:41:41.879Z</time></trkpt><trkpt lat="44.00102748200659" lon="12.0983868519352"><ele>330.0</ele><time>2026-04-18T10:41:42.88Z</time></trkpt><trkpt lat="44.00104854746319" lon="12.098509777282645"><ele>327.5</ele><time>2026-04-18T10:41:43.88Z</time></trkpt><trkpt lat="44.00108254190991" lon="12.098615036639163"><ele>325.0</ele><time>2026-04-18T10:41:44.879Z</time></trkpt><trkpt lat="44.00112612031042" lon="12.09871406578484"><ele>322.5</ele><time>2026-04-18T10:41:45.879Z</time></trkpt><trkpt lat="44.001170262435124" lon="12.098795789737439"><ele>320.0</ele><time>2026-04-18T10:41:46.879Z</time></trkpt><trkpt lat="44.00121392732003" lon="12.098889859705979"><ele>317.5</ele><time>2026-04-18T10:41:47.88Z</time></trkpt><trkpt lat="44.0012478202782" lon="12.098996258926606"><ele>315.0</ele><time>2026-04-18T10:41:48.88Z</time></trkpt><trkpt lat="44.00124896396277" lon="12.099108236148089"><ele>312.1666666666667</ele><time>2026-04-18T10:41:49.88Z</time></trkpt><trkpt lat="44.001281763110875" lon="12.099219305942645"><ele>309.3333333333333</ele><time>2026-04-18T10:41:50.88Z</time></trkpt><trkpt lat="44.001316077088845" lon="12.09932539263725"><ele>306.5</ele><time>2026-04-18T10:41:51.88Z</time></trkpt><trkpt lat="44.0013541890858" lon="12.09943824343041"><ele>303.66666666666663</ele><time>2026-04-18T10:41:52.88Z</time></trkpt><trkpt lat="44.00139246898414" lon="12.099546716578537"><ele>300.8333333333333</ele><time>2026-04-18T10:41:53.879Z</time></trkpt><trkpt lat="44.00142755031207" lon="12.099651828205348"><ele>298.0</ele><time>2026-04-18T10:41:54.879Z</time></trkpt><trkpt lat="44.001465661595546" lon="12.099766902580344"><ele>298.0</ele><time>2026-04-18T10:41:55.879Z</time></trkpt><trkpt lat="44.0015018496704" lon="12.099882276698448"><ele>298.0</ele><time>2026-04-18T10:41:56.879Z</time></trkpt><trkpt lat="44.00153598707391" lon="12.099999695073528"><ele>298.0</ele><time>2026-04-18T10:41:57.879Z</time></trkpt><trkpt lat="44.00157867506831" lon="12.100116671597075"><ele>298.0</ele><time>2026-04-18T10:41:58.879Z</time></trkpt><trkpt lat="44.00161099541146" lon="12.100233596693178"><ele>298.0</ele><time>2026-04-18T10:41:59.879Z</time></trkpt><trkpt lat="44.00164788664787" lon="12.100352861818534"><ele>297.2</ele><time>2026-04-18T10:42:00.879Z</time></trkpt><trkpt lat="44.001680173711094" lon="12.100475114720398"><ele>296.4</ele><time>2026-04-18T10:42:01.879Z</time></trkpt><trkpt lat="44.00171023538279" lon="12.100608434815502"><ele>295.59999999999997</ele><time>2026-04-18T10:42:02.879Z</time></trkpt><trkpt lat="44.001728729412854" lon="12.100745149006782"><ele>294.8</ele><time>2026-04-18T10:42:03.879Z</time></trkpt><trkpt lat="44.00175079357503" lon="12.100879295340864"><ele>294.0</ele><time>2026-04-18T10:42:04.879Z</time></trkpt><trkpt lat="44.00176654298638" lon="12.101014243751091"><ele>293.2</ele><time>2026-04-18T10:42:05.879Z</time></trkpt><trkpt lat="44.001778081741655" lon="12.101148602521862"><ele>292.4</ele><time>2026-04-18T10:42:06.879Z</time></trkpt><trkpt lat="44.0017823475133" lon="12.101286692816595"><ele>291.6</ele><time>2026-04-18T10:42:07.879Z</time></trkpt><trkpt lat="44.00177950686395" lon="12.101427260325533"><ele>290.8</ele><time>2026-04-18T10:42:08.879Z</time></trkpt><trkpt lat="44.00176680469118" lon="12.101569136079956"><ele>290.0</ele><time>2026-04-18T10:42:09.879Z</time></trkpt><trkpt lat="44.00175453328085" lon="12.101709780413024"><ele>288.6</ele><time>2026-04-18T10:42:10.879Z</time></trkpt><trkpt lat="44.00174706302032" lon="12.101839905335098"><ele>287.2</ele><time>2026-04-18T10:42:11.879Z</time></trkpt><trkpt lat="44.001721760521626" lon="12.101967218435966"><ele>285.8</ele><time>2026-04-18T10:42:12.879Z</time></trkpt><trkpt lat="44.00170236477152" lon="12.102087222634507"><ele>284.4</ele><time>2026-04-18T10:42:13.879Z</time></trkpt><trkpt lat="44.001692970783694" lon="12.102203095264304"><ele>283.0</ele><time>2026-04-18T10:42:14.879Z</time></trkpt><trkpt lat="44.00168856366896" lon="12.10232617009672"><ele>281.2</ele><time>2026-04-18T10:42:15.878Z</time></trkpt><trkpt lat="44.00170080154898" lon="12.102458713879628"><ele>279.4</ele><time>2026-04-18T10:42:16.878Z</time></trkpt><trkpt lat="44.001732447000606" lon="12.10259121264999"><ele>277.59999999999997</ele><time>2026-04-18T10:42:17.878Z</time></trkpt><trkpt lat="44.00176264561644" lon="12.1027266236813"><ele>275.8</ele><time>2026-04-18T10:42:18.878Z</time></trkpt><trkpt lat="44.0017940079172" lon="12.102881082399128"><ele>274.0</ele><time>2026-04-18T10:42:19.878Z</time></trkpt><trkpt lat="44.001822113584666" lon="12.103030711349332"><ele>274.0</ele><time>2026-04-18T10:42:20.878Z</time></trkpt><trkpt lat="44.00185057707395" lon="12.103187505471515"><ele>274.0</ele><time>2026-04-18T10:42:21.878Z</time></trkpt><trkpt lat="44.001881003741765" lon="12.103339004469392"><ele>274.0</ele><time>2026-04-18T10:42:22.878Z</time></trkpt><trkpt lat="44.001913675498564" lon="12.103491948576082"><ele>274.0</ele><time>2026-04-18T10:42:23.878Z</time></trkpt><trkpt lat="44.0019415097841" lon="12.103634818506784"><ele>272.0</ele><time>2026-04-18T10:42:24.878Z</time></trkpt><trkpt lat="44.00196530179469" lon="12.10376249003287"><ele>270.0</ele><time>2026-04-18T10:42:25.878Z</time></trkpt><trkpt lat="44.001987816461245" lon="12.103894682616621"><ele>268.0</ele><time>2026-04-18T10:42:26.878Z</time></trkpt><trkpt lat="44.00201324473575" lon="12.104016004688086"><ele>266.0</ele><time>2026-04-18T10:42:27.878Z</time></trkpt><trkpt lat="44.002035545201174" lon="12.10413290992103"><ele>264.0</ele><time>2026-04-18T10:42:28.878Z</time></trkpt><trkpt lat="44.00206803977504" lon="12.1042518778433"><ele>262.3333333333333</ele><time>2026-04-18T10:42:29.878Z</time></trkpt><trkpt lat="44.00209842434155" lon="12.104364058822519"><ele>260.6666666666667</ele><time>2026-04-18T10:42:30.878Z</time></trkpt><trkpt lat="44.00214164402498" lon="12.104449453066946"><ele>259.0</ele><time>2026-04-18T10:42:31.878Z</time></trkpt><trkpt lat="44.00219672824761" lon="12.104535979573589"><ele>257.33333333333337</ele><time>2026-04-18T10:42:32.878Z</time></trkpt><trkpt lat="44.002272319349785" lon="12.104606733647302"><ele>255.66666666666669</ele><time>2026-04-18T10:42:33.878Z</time></trkpt><trkpt lat="44.00234791692387" lon="12.104673070652943"><ele>254.0</ele><time>2026-04-18T10:42:34.878Z</time></trkpt><trkpt lat="44.002433200398976" lon="12.104722783176769"><ele>253.33333333333334</ele><time>2026-04-18T10:42:35.878Z</time></trkpt><trkpt lat="44.00251717494141" lon="12.104788068214896"><ele>252.66666666666669</ele><time>2026-04-18T10:42:36.878Z</time></trkpt><trkpt lat="44.00259197891054" lon="12.10485799243527"><ele>252.0</ele><time>2026-04-18T10:42:37.878Z</time></trkpt><trkpt lat="44.002646779736665" lon="12.104943566147137"><ele>251.33333333333331</ele><time>2026-04-18T10:42:38.878Z</time></trkpt><trkpt lat="44.002677564709806" lon="12.105059922961704"><ele>250.66666666666666</ele><time>2026-04-18T10:42:39.878Z</time></trkpt><trkpt lat="44.00270608388883" lon="12.10517301838128"><ele>250.0</ele><time>2026-04-18T10:42:40.878Z</time></trkpt><trkpt lat="44.00271823863439" lon="12.105295146231077"><ele>249.99999999999997</ele><time>2026-04-18T10:42:41.878Z</time></trkpt><trkpt lat="44.0027357921534" lon="12.105421915920884"><ele>250.0</ele><time>2026-04-18T10:42:42.878Z</time></trkpt><trkpt lat="44.0027659705429" lon="12.105545392929919"><ele>250.0</ele><time>2026-04-18T10:42:43.878Z</time></trkpt><trkpt lat="44.00277458468397" lon="12.10566692480678"><ele>250.0</ele><time>2026-04-18T10:42:44.878Z</time></trkpt><trkpt lat="44.00279008286133" lon="12.105785854072584"><ele>249.99999999999997</ele><time>2026-04-18T10:42:45.878Z</time></trkpt><trkpt lat="44.00279271376578" lon="12.10588737858134"><ele>250.0</ele><time>2026-04-18T10:42:46.878Z</time></trkpt><trkpt lat="44.002777599400964" lon="12.105982818217509"><ele>248.6</ele><time>2026-04-18T10:42:47.878Z</time></trkpt><trkpt lat="44.00269306917867" lon="12.106092993738285"><ele>247.2</ele><time>2026-04-18T10:42:49.878Z</time></trkpt><trkpt lat="44.0025795336432" lon="12.106123722248952"><ele>245.8</ele><time>2026-04-18T10:42:51.878Z</time></trkpt><trkpt lat="44.00250587642168" lon="12.106097158681347"><ele>244.4</ele><time>2026-04-18T10:42:52.878Z</time></trkpt><trkpt lat="44.00237942828507" lon="12.106057360075244"><ele>243.0</ele><time>2026-04-18T10:42:54.877Z</time></trkpt><trkpt lat="44.00231026256647" lon="12.10603469009607"><ele>242.4</ele><time>2026-04-18T10:42:55.877Z</time></trkpt><trkpt lat="44.00219995006629" lon="12.10602933479845"><ele>241.8</ele><time>2026-04-18T10:42:57.877Z</time></trkpt><trkpt lat="44.002119768680444" lon="12.106141527981917"><ele>241.2</ele><time>2026-04-18T10:42:59.877Z</time></trkpt><trkpt lat="44.002131815857375" lon="12.106236318218432"><ele>240.6</ele><time>2026-04-18T10:43:00.877Z</time></trkpt><trkpt lat="44.00217818847611" lon="12.106397118028221"><ele>240.0</ele><time>2026-04-18T10:43:02.877Z</time></trkpt><trkpt lat="44.00219990114422" lon="12.10649864335742"><ele>237.5</ele><time>2026-04-18T10:43:03.877Z</time></trkpt><trkpt lat="44.002247645612265" lon="12.106580556877088"><ele>235.0</ele><time>2026-04-18T10:43:04.877Z</time></trkpt><trkpt lat="44.00226761636443" lon="12.106681459273291"><ele>232.5</ele><time>2026-04-18T10:43:05.877Z</time></trkpt><trkpt lat="44.00230178887543" lon="12.10677805343674"><ele>230.0</ele><time>2026-04-18T10:43:06.877Z</time></trkpt><trkpt lat="44.00233932309363" lon="12.106873412410547"><ele>227.5</ele><time>2026-04-18T10:43:07.877Z</time></trkpt><trkpt lat="44.00237246540529" lon="12.106963969853561"><ele>225.0</ele><time>2026-04-18T10:43:08.877Z</time></trkpt><trkpt lat="44.00241644335871" lon="12.107043470251295"><ele>225.0</ele><time>2026-04-18T10:43:09.877Z</time></trkpt><trkpt lat="44.002461948995304" lon="12.107116520499362"><ele>225.0</ele><time>2026-04-18T10:43:10.877Z</time></trkpt><trkpt lat="44.00252247786997" lon="12.1071850135893"><ele>225.0</ele><time>2026-04-18T10:43:11.877Z</time></trkpt><trkpt lat="44.0025900841773" lon="12.107252624574373"><ele>225.0</ele><time>2026-04-18T10:43:12.877Z</time></trkpt><trkpt lat="44.00266182002555" lon="12.107303640593393"><ele>225.0</ele><time>2026-04-18T10:43:13.877Z</time></trkpt><trkpt lat="44.00272849331813" lon="12.107356781877128"><ele>225.0</ele><time>2026-04-18T10:43:14.877Z</time></trkpt><trkpt lat="44.00280233194812" lon="12.107406542657232"><ele>224.0</ele><time>2026-04-18T10:43:15.877Z</time></trkpt><trkpt lat="44.00287961742976" lon="12.107450412898144"><ele>223.0</ele><time>2026-04-18T10:43:16.877Z</time></trkpt><trkpt lat="44.002958233316335" lon="12.107496850379968"><ele>222.0</ele><time>2026-04-18T10:43:17.877Z</time></trkpt><trkpt lat="44.0030315478191" lon="12.10754165670034"><ele>221.0</ele><time>2026-04-18T10:43:18.877Z</time></trkpt><trkpt lat="44.003096005649276" lon="12.10759046105827"><ele>220.0</ele><time>2026-04-18T10:43:19.877Z</time></trkpt><trkpt lat="44.00314162380027" lon="12.107654613766355"><ele>219.0</ele><time>2026-04-18T10:43:20.877Z</time></trkpt><trkpt lat="44.00317190242558" lon="12.107736195139637"><ele>219.0</ele><time>2026-04-18T10:43:21.877Z</time></trkpt><trkpt lat="44.00318264093069" lon="12.107835383573317"><ele>219.0</ele><time>2026-04-18T10:43:22.877Z</time></trkpt><trkpt lat="44.00316648938507" lon="12.107928930845931"><ele>219.0</ele><time>2026-04-18T10:43:23.877Z</time></trkpt><trkpt lat="44.003145934387184" lon="12.108014660200134"><ele>219.0</ele><time>2026-04-18T10:43:24.877Z</time></trkpt><trkpt lat="44.003119518488916" lon="12.108105830387123"><ele>219.0</ele><time>2026-04-18T10:43:25.877Z</time></trkpt><trkpt lat="44.00309107125533" lon="12.108193996876413"><ele>219.0</ele><time>2026-04-18T10:43:26.877Z</time></trkpt><trkpt lat="44.00306575825463" lon="12.108290488664519"><ele>219.0</ele><time>2026-04-18T10:43:27.877Z</time></trkpt><trkpt lat="44.003016084881786" lon="12.108392446961869"><ele>217.33333333333334</ele><time>2026-04-18T10:43:28.877Z</time></trkpt><trkpt lat="44.002985751699505" lon="12.108501004825722"><ele>215.66666666666669</ele><time>2026-04-18T10:43:29.877Z</time></trkpt><trkpt lat="44.00295938602946" lon="12.108599571438457"><ele>214.0</ele><time>2026-04-18T10:43:30.877Z</time></trkpt><trkpt lat="44.00293797980005" lon="12.108691282067486"><ele>212.33333333333334</ele><time>2026-04-18T10:43:31.876Z</time></trkpt><trkpt lat="44.002924448042386" lon="12.108780956403569"><ele>210.66666666666669</ele><time>2026-04-18T10:43:32.876Z</time></trkpt><trkpt lat="44.00291457755702" lon="12.108877238655609"><ele>209.0</ele><time>2026-04-18T10:43:33.876Z</time></trkpt><trkpt lat="44.002908068819345" lon="12.109037318592794"><ele>209.0</ele><time>2026-04-18T10:43:35.876Z</time></trkpt><trkpt lat="44.0029219336167" lon="12.109179539739442"><ele>203.0</ele><time>2026-04-18T10:43:37.876Z</time></trkpt><trkpt lat="44.00293547341256" lon="12.109309837938445"><ele>203.0</ele><time>2026-04-18T10:43:39.876Z</time></trkpt><trkpt lat="44.00295308058825" lon="12.10940219420042"><ele>203.0</ele><time>2026-04-18T10:43:42.876Z</time></trkpt><trkpt lat="44.00299571027733" lon="12.10948103213236"><ele>203.0</ele><time>2026-04-18T10:44:43.876Z</time></trkpt></trkseg><trkseg><trkpt lat="44.003026738530515" lon="12.109626441368675"><ele>203.00000000000003</ele><time>2026-04-18T11:52:48Z</time></trkpt><trkpt lat="44.00305087888819" lon="12.109760162340379"><ele>203.0</ele><time>2026-04-18T11:52:49.999Z</time></trkpt><trkpt lat="44.00310640008353" lon="12.109903600543356"><ele>203.0</ele><time>2026-04-18T11:52:51.999Z</time></trkpt><trkpt lat="44.003132549972804" lon="12.109996981709363"><ele>203.0</ele><time>2026-04-18T11:52:52.999Z</time></trkpt><trkpt lat="44.00316227407676" lon="12.11008135463728"><ele>203.00000000000003</ele><time>2026-04-18T11:52:53.999Z</time></trkpt><trkpt lat="44.00320297822347" lon="12.110160228700177"><ele>203.0</ele><time>2026-04-18T11:52:54.999Z</time></trkpt><trkpt lat="44.00325658005616" lon="12.110228649557035"><ele>203.66666666666669</ele><time>2026-04-18T11:52:55.999Z</time></trkpt><trkpt lat="44.003303383216306" lon="12.110302457916726"><ele>204.33333333333334</ele><time>2026-04-18T11:52:56.999Z</time></trkpt><trkpt lat="44.003365345921345" lon="12.11038765768632"><ele>205.0</ele><time>2026-04-18T11:52:57.999Z</time></trkpt><trkpt lat="44.003403854107006" lon="12.110472718639544"><ele>205.66666666666669</ele><time>2026-04-18T11:52:58.999Z</time></trkpt><trkpt lat="44.00346715492476" lon="12.110530488076215"><ele>206.33333333333334</ele><time>2026-04-18T11:52:59.999Z</time></trkpt><trkpt lat="44.003542215751956" lon="12.110661091527552"><ele>207.0</ele><time>2026-04-18T11:53:01.999Z</time></trkpt><trkpt lat="44.00358455684999" lon="12.110729171754071"><ele>205.66666666666666</ele><time>2026-04-18T11:53:02.999Z</time></trkpt><trkpt lat="44.00363393044076" lon="12.110808434538368"><ele>204.33333333333331</ele><time>2026-04-18T11:53:03.999Z</time></trkpt><trkpt lat="44.00369183752785" lon="12.110904504848229"><ele>203.0</ele><time>2026-04-18T11:53:04.999Z</time></trkpt><trkpt lat="44.00375844784952" lon="12.110992903751919"><ele>201.66666666666666</ele><time>2026-04-18T11:53:05.999Z</time></trkpt><trkpt lat="44.00381596167271" lon="12.11107836896032"><ele>200.33333333333331</ele><time>2026-04-18T11:53:06.999Z</time></trkpt><trkpt lat="44.00386407465691" lon="12.111170464485935"><ele>199.0</ele><time>2026-04-18T11:53:07.999Z</time></trkpt><trkpt lat="44.0039225565553" lon="12.111258279731773"><ele>198.99999999999997</ele><time>2026-04-18T11:53:08.999Z</time></trkpt><trkpt lat="44.0039854642432" lon="12.111339570374405"><ele>199.0</ele><time>2026-04-18T11:53:09.999Z</time></trkpt><trkpt lat="44.00404349612078" lon="12.111436076159178"><ele>199.0</ele><time>2026-04-18T11:53:10.999Z</time></trkpt><trkpt lat="44.00411017401866" lon="12.111527067235537"><ele>199.0</ele><time>2026-04-18T11:53:11.999Z</time></trkpt><trkpt lat="44.004163348091964" lon="12.111613696084113"><ele>198.99999999999997</ele><time>2026-04-18T11:53:12.999Z</time></trkpt><trkpt lat="44.00421500204061" lon="12.111695369318786"><ele>199.0</ele><time>2026-04-18T11:53:13.999Z</time></trkpt><trkpt lat="44.00426801971152" lon="12.111775977236373"><ele>199.33333333333331</ele><time>2026-04-18T11:53:14.999Z</time></trkpt><trkpt lat="44.00430842770706" lon="12.11186051056058"><ele>199.66666666666666</ele><time>2026-04-18T11:53:15.999Z</time></trkpt><trkpt lat="44.004359637665004" lon="12.11194186846271"><ele>200.0</ele><time>2026-04-18T11:53:16.999Z</time></trkpt><trkpt lat="44.004405674615136" lon="12.112021034326604"><ele>200.33333333333331</ele><time>2026-04-18T11:53:17.999Z</time></trkpt><trkpt lat="44.00445530264265" lon="12.112104409806552"><ele>200.66666666666666</ele><time>2026-04-18T11:53:18.999Z</time></trkpt><trkpt lat="44.00451494415407" lon="12.112188944899149"><ele>201.0</ele><time>2026-04-18T11:53:19.999Z</time></trkpt><trkpt lat="44.00455809502914" lon="12.112275636290994"><ele>201.0</ele><time>2026-04-18T11:53:20.999Z</time></trkpt><trkpt lat="44.004610838706064" lon="12.112364576092826"><ele>201.0</ele><time>2026-04-18T11:53:21.999Z</time></trkpt><trkpt lat="44.00466500978451" lon="12.112441245972331"><ele>201.0</ele><time>2026-04-18T11:53:22.999Z</time></trkpt><trkpt lat="44.004747737426705" lon="12.112571493855452"><ele>201.0</ele><time>2026-04-18T11:53:24.999Z</time></trkpt><trkpt lat="44.004802448053915" lon="12.112652075391269"><ele>201.0</ele><time>2026-04-18T11:53:25.999Z</time></trkpt><trkpt lat="44.004864322359964" lon="12.112748680063532"><ele>200.16666666666666</ele><time>2026-04-18T11:53:26.999Z</time></trkpt><trkpt lat="44.00491799892941" lon="12.112822730867864"><ele>199.33333333333331</ele><time>2026-04-18T11:53:27.999Z</time></trkpt><trkpt lat="44.00499860207532" lon="12.11289104473287"><ele>198.5</ele><time>2026-04-18T11:53:28.999Z</time></trkpt><trkpt lat="44.00508976912806" lon="12.112948307350255"><ele>197.66666666666666</ele><time>2026-04-18T11:53:29.999Z</time></trkpt><trkpt lat="44.00516906369383" lon="12.112985760061726"><ele>196.83333333333331</ele><time>2026-04-18T11:53:30.999Z</time></trkpt><trkpt lat="44.00525134705232" lon="12.11303263616626"><ele>196.0</ele><time>2026-04-18T11:53:31.999Z</time></trkpt><trkpt lat="44.00534480590558" lon="12.113097926217927"><ele>196.0</ele><time>2026-04-18T11:53:32.999Z</time></trkpt><trkpt lat="44.00541653614698" lon="12.113185029412714"><ele>196.0</ele><time>2026-04-18T11:53:33.999Z</time></trkpt><trkpt lat="44.00549257522399" lon="12.113280686362659"><ele>196.0</ele><time>2026-04-18T11:53:34.999Z</time></trkpt><trkpt lat="44.00556103245839" lon="12.11339050749549"><ele>196.0</ele><time>2026-04-18T11:53:35.999Z</time></trkpt><trkpt lat="44.00562135570354" lon="12.113514597633063"><ele>196.0</ele><time>2026-04-18T11:53:36.999Z</time></trkpt><trkpt lat="44.0056844961982" lon="12.113639686641962"><ele>194.83333333333331</ele><time>2026-04-18T11:53:37.999Z</time></trkpt><trkpt lat="44.00574668004462" lon="12.1137462729338"><ele>193.66666666666666</ele><time>2026-04-18T11:53:38.999Z</time></trkpt><trkpt lat="44.0058061008109" lon="12.113847626757922"><ele>192.5</ele><time>2026-04-18T11:53:39.999Z</time></trkpt><trkpt lat="44.005850725682606" lon="12.113952272193028"><ele>191.33333333333331</ele><time>2026-04-18T11:53:40.999Z</time></trkpt><trkpt lat="44.00588988168451" lon="12.11404220425321"><ele>190.16666666666666</ele><time>2026-04-18T11:53:41.999Z</time></trkpt><trkpt lat="44.00593843574564" lon="12.11415032854577"><ele>189.0</ele><time>2026-04-18T11:53:42.999Z</time></trkpt><trkpt lat="44.005977404764515" lon="12.114273389697697"><ele>187.2</ele><time>2026-04-18T11:53:43.999Z</time></trkpt><trkpt lat="44.00607193937487" lon="12.114478386390564"><ele>185.39999999999998</ele><time>2026-04-18T11:53:45.999Z</time></trkpt><trkpt lat="44.00613241561511" lon="12.114564903766551"><ele>183.6</ele><time>2026-04-18T11:53:46.999Z</time></trkpt><trkpt lat="44.0061916528588" lon="12.114641659709232"><ele>181.8</ele><time>2026-04-18T11:53:47.999Z</time></trkpt><trkpt lat="44.00624974443287" lon="12.114724941496641"><ele>180.0</ele><time>2026-04-18T11:53:48.999Z</time></trkpt><trkpt lat="44.006307219473285" lon="12.114811088107826"><ele>178.4</ele><time>2026-04-18T11:53:49.999Z</time></trkpt><trkpt lat="44.00635873257203" lon="12.114912528169612"><ele>176.8</ele><time>2026-04-18T11:53:50.999Z</time></trkpt><trkpt lat="44.00635889372157" lon="12.115025226978332"><ele>175.2</ele><time>2026-04-18T11:53:51.999Z</time></trkpt><trkpt lat="44.00637758792757" lon="12.115127650275936"><ele>173.6</ele><time>2026-04-18T11:53:52.999Z</time></trkpt><trkpt lat="44.00638352381695" lon="12.11523045084529"><ele>172.0</ele><time>2026-04-18T11:53:53.999Z</time></trkpt><trkpt lat="44.006505116204956" lon="12.115336525686425"><ele>172.0</ele><time>2026-04-18T11:53:55.999Z</time></trkpt><trkpt lat="44.006597106391816" lon="12.115260090670885"><ele>172.0</ele><time>2026-04-18T11:53:56.999Z</time></trkpt><trkpt lat="44.006603166112846" lon="12.115093861776625"><ele>172.0</ele><time>2026-04-18T11:53:57.999Z</time></trkpt><trkpt lat="44.00661101042696" lon="12.114966692715262"><ele>172.0</ele><time>2026-04-18T11:53:58.999Z</time></trkpt><trkpt lat="44.00659514361006" lon="12.114866207570655"><ele>172.0</ele><time>2026-04-18T11:53:59.999Z</time></trkpt><trkpt lat="44.006577840484255" lon="12.114764406120617"><ele>173.33333333333334</ele><time>2026-04-18T11:54:00.999Z</time></trkpt><trkpt lat="44.006562608853166" lon="12.114671884894928"><ele>174.66666666666669</ele><time>2026-04-18T11:54:01.999Z</time></trkpt><trkpt lat="44.006533752918166" lon="12.114576750093585"><ele>176.0</ele><time>2026-04-18T11:54:02.999Z</time></trkpt><trkpt lat="44.00651720255227" lon="12.114482344903076"><ele>177.33333333333334</ele><time>2026-04-18T11:54:03.999Z</time></trkpt><trkpt lat="44.0065305794383" lon="12.114361483765412"><ele>178.66666666666666</ele><time>2026-04-18T11:54:05.999Z</time></trkpt><trkpt lat="44.00664630383409" lon="12.11438051038085"><ele>180.0</ele><time>2026-04-18T11:54:07.999Z</time></trkpt><trkpt lat="44.00668502311292" lon="12.11447178979689"><ele>176.83333333333334</ele><time>2026-04-18T11:54:08.999Z</time></trkpt><trkpt lat="44.006724082621936" lon="12.114555812919013"><ele>173.66666666666666</ele><time>2026-04-18T11:54:09.998Z</time></trkpt><trkpt lat="44.006766323960875" lon="12.114639930043904"><ele>170.5</ele><time>2026-04-18T11:54:10.998Z</time></trkpt><trkpt lat="44.006814554618494" lon="12.114733010546935"><ele>167.33333333333331</ele><time>2026-04-18T11:54:11.999Z</time></trkpt><trkpt lat="44.006854064839274" lon="12.11480837273414"><ele>164.16666666666666</ele><time>2026-04-18T11:54:12.999Z</time></trkpt><trkpt lat="44.006895358765895" lon="12.114887098497956"><ele>161.0</ele><time>2026-04-18T11:54:13.999Z</time></trkpt><trkpt lat="44.00695395907145" lon="12.114975126855175"><ele>161.0</ele><time>2026-04-18T11:54:14.999Z</time></trkpt><trkpt lat="44.00699591735725" lon="12.115070740200581"><ele>161.0</ele><time>2026-04-18T11:54:15.999Z</time></trkpt><trkpt lat="44.00705604464428" lon="12.115144197626963"><ele>161.0</ele><time>2026-04-18T11:54:16.999Z</time></trkpt><trkpt lat="44.007105816096626" lon="12.115228182976896"><ele>161.0</ele><time>2026-04-18T11:54:17.999Z</time></trkpt><trkpt lat="44.00715357195495" lon="12.115308137306704"><ele>161.0</ele><time>2026-04-18T11:54:18.999Z</time></trkpt><trkpt lat="44.00719524231387" lon="12.115426646906336"><ele>161.0</ele><time>2026-04-18T11:54:19.999Z</time></trkpt><trkpt lat="44.00725064217389" lon="12.115522127037808"><ele>161.0</ele><time>2026-04-18T11:54:20.999Z</time></trkpt><trkpt lat="44.00730031498431" lon="12.115611377120324"><ele>161.0</ele><time>2026-04-18T11:54:21.999Z</time></trkpt><trkpt lat="44.00734878303925" lon="12.11570296920613"><ele>161.0</ele><time>2026-04-18T11:54:22.999Z</time></trkpt><trkpt lat="44.00739116275744" lon="12.115796970278765"><ele>161.0</ele><time>2026-04-18T11:54:23.999Z</time></trkpt><trkpt lat="44.0074253531678" lon="12.115898934744331"><ele>161.0</ele><time>2026-04-18T11:54:24.999Z</time></trkpt><trkpt lat="44.00745199928751" lon="12.11601633231339"><ele>161.0</ele><time>2026-04-18T11:54:25.999Z</time></trkpt><trkpt lat="44.00746538482498" lon="12.116130074410165"><ele>159.5</ele><time>2026-04-18T11:54:26.999Z</time></trkpt><trkpt lat="44.00748472816136" lon="12.116237295274974"><ele>158.0</ele><time>2026-04-18T11:54:27.999Z</time></trkpt><trkpt lat="44.00747690786036" lon="12.116343278812145"><ele>156.5</ele><time>2026-04-18T11:54:28.999Z</time></trkpt><trkpt lat="44.00748370396181" lon="12.116450033707867"><ele>155.0</ele><time>2026-04-18T11:54:29.999Z</time></trkpt><trkpt lat="44.007480160979114" lon="12.116567353979825"><ele>153.5</ele><time>2026-04-18T11:54:30.999Z</time></trkpt><trkpt lat="44.007480117065235" lon="12.116693526503994"><ele>152.0</ele><time>2026-04-18T11:54:31.999Z</time></trkpt><trkpt lat="44.00748458520805" lon="12.116793635055357"><ele>149.6</ele><time>2026-04-18T11:54:32.999Z</time></trkpt><trkpt lat="44.007492123759256" lon="12.116895992268443"><ele>147.2</ele><time>2026-04-18T11:54:33.999Z</time></trkpt><trkpt lat="44.00749089803915" lon="12.11703740954864"><ele>144.8</ele><time>2026-04-18T11:54:35.999Z</time></trkpt><trkpt lat="44.00744561807879" lon="12.117152367260038"><ele>142.4</ele><time>2026-04-18T11:54:38.999Z</time></trkpt><trkpt lat="44.00734346939419" lon="12.117197139036934"><ele>140.0</ele><time>2026-04-18T11:54:40.999Z</time></trkpt><trkpt lat="44.007223668568614" lon="12.117214333083268"><ele>140.0</ele><time>2026-04-18T11:54:42.999Z</time></trkpt><trkpt lat="44.0071440166089" lon="12.117224897697898"><ele>140.0</ele><time>2026-04-18T11:54:43.999Z</time></trkpt><trkpt lat="44.00705170518308" lon="12.117239006567171"><ele>140.0</ele><time>2026-04-18T11:54:44.999Z</time></trkpt><trkpt lat="44.00695642381672" lon="12.117251655192936"><ele>140.0</ele><time>2026-04-18T11:54:45.999Z</time></trkpt><trkpt lat="44.0068474357955" lon="12.117248960234468"><ele>140.0</ele><time>2026-04-18T11:54:46.999Z</time></trkpt><trkpt lat="44.00674051957145" lon="12.117248814740135"><ele>140.6</ele><time>2026-04-18T11:54:47.999Z</time></trkpt><trkpt lat="44.00663202013677" lon="12.117231812856113"><ele>141.2</ele><time>2026-04-18T11:54:48.999Z</time></trkpt><trkpt lat="44.006520683209246" lon="12.11721810050486"><ele>141.8</ele><time>2026-04-18T11:54:49.999Z</time></trkpt><trkpt lat="44.00641464800858" lon="12.117209513593798"><ele>142.4</ele><time>2026-04-18T11:54:50.999Z</time></trkpt><trkpt lat="44.00630177895199" lon="12.117184817693659"><ele>143.0</ele><time>2026-04-18T11:54:51.999Z</time></trkpt><trkpt lat="44.00619163973209" lon="12.117162117880003"><ele>143.0</ele><time>2026-04-18T11:54:52.999Z</time></trkpt><trkpt lat="44.00608281764269" lon="12.117135160230992"><ele>143.0</ele><time>2026-04-18T11:54:53.999Z</time></trkpt><trkpt lat="44.005977901529214" lon="12.117110275425345"><ele>143.0</ele><time>2026-04-18T11:54:54.999Z</time></trkpt><trkpt lat="44.005876134980426" lon="12.117079092890602"><ele>143.0</ele><time>2026-04-18T11:54:55.999Z</time></trkpt><trkpt lat="44.00576950033094" lon="12.117052954035298"><ele>143.0</ele><time>2026-04-18T11:54:56.999Z</time></trkpt><trkpt lat="44.00565765536971" lon="12.11702776234867"><ele>142.75</ele><time>2026-04-18T11:54:57.999Z</time></trkpt><trkpt lat="44.00554542924551" lon="12.11700876505465"><ele>142.5</ele><time>2026-04-18T11:54:58.999Z</time></trkpt><trkpt lat="44.005429191398655" lon="12.116980722154803"><ele>142.25</ele><time>2026-04-18T11:54:59.999Z</time></trkpt><trkpt lat="44.00530896266417" lon="12.116940942145021"><ele>142.0</ele><time>2026-04-18T11:55:00.999Z</time></trkpt><trkpt lat="44.00519341406742" lon="12.116885039723003"><ele>142.0</ele><time>2026-04-18T11:55:01.999Z</time></trkpt><trkpt lat="44.005086094026325" lon="12.116805333892328"><ele>142.0</ele><time>2026-04-18T11:55:02.999Z</time></trkpt><trkpt lat="44.004981097386484" lon="12.116717427188627"><ele>142.0</ele><time>2026-04-18T11:55:03.999Z</time></trkpt><trkpt lat="44.004874894453614" lon="12.11661770771728"><ele>142.0</ele><time>2026-04-18T11:55:04.999Z</time></trkpt><trkpt lat="44.0047639381564" lon="12.116507792068285"><ele>142.5</ele><time>2026-04-18T11:55:05.999Z</time></trkpt><trkpt lat="44.004658346092164" lon="12.116403605406868"><ele>143.0</ele><time>2026-04-18T11:55:06.999Z</time></trkpt><trkpt lat="44.004547328769874" lon="12.11629792457043"><ele>143.5</ele><time>2026-04-18T11:55:07.999Z</time></trkpt><trkpt lat="44.004434290510716" lon="12.116195013482924"><ele>144.0</ele><time>2026-04-18T11:55:08.999Z</time></trkpt><trkpt lat="44.00432518778356" lon="12.116085814572806"><ele>144.0</ele><time>2026-04-18T11:55:09.999Z</time></trkpt><trkpt lat="44.00421495518216" lon="12.115979105728341"><ele>144.0</ele><time>2026-04-18T11:55:10.999Z</time></trkpt><trkpt lat="44.00411139218057" lon="12.115864752743024"><ele>144.0</ele><time>2026-04-18T11:55:11.999Z</time></trkpt><trkpt lat="44.00401275887419" lon="12.11574136255908"><ele>144.0</ele><time>2026-04-18T11:55:12.999Z</time></trkpt><trkpt lat="44.003920720218645" lon="12.115604584668235"><ele>143.5</ele><time>2026-04-18T11:55:13.999Z</time></trkpt><trkpt lat="44.00384118060127" lon="12.115449289922758"><ele>143.0</ele><time>2026-04-18T11:55:14.999Z</time></trkpt><trkpt lat="44.003775833169115" lon="12.115280163736752"><ele>142.5</ele><time>2026-04-18T11:55:15.999Z</time></trkpt><trkpt lat="44.00371829716826" lon="12.115101973868612"><ele>142.0</ele><time>2026-04-18T11:55:16.999Z</time></trkpt><trkpt lat="44.00367211175705" lon="12.114911027794559"><ele>142.75</ele><time>2026-04-18T11:55:17.999Z</time></trkpt><trkpt lat="44.003621479917875" lon="12.114716094696863"><ele>143.5</ele><time>2026-04-18T11:55:18.999Z</time></trkpt><trkpt lat="44.00356099914521" lon="12.114532751846866"><ele>144.25</ele><time>2026-04-18T11:55:19.999Z</time></trkpt><trkpt lat="44.00349402248052" lon="12.114351006588398"><ele>145.0</ele><time>2026-04-18T11:55:20.999Z</time></trkpt><trkpt lat="44.003414291482606" lon="12.11417169562697"><ele>144.66666666666669</ele><time>2026-04-18T11:55:21.999Z</time></trkpt><trkpt lat="44.00329968619517" lon="12.114032258473246"><ele>144.33333333333334</ele><time>2026-04-18T11:55:22.999Z</time></trkpt><trkpt lat="44.00318823747984" lon="12.113877369970107"><ele>144.0</ele><time>2026-04-18T11:55:23.999Z</time></trkpt><trkpt lat="44.00307550780896" lon="12.113729056094934"><ele>144.0</ele><time>2026-04-18T11:55:24.999Z</time></trkpt><trkpt lat="44.00296177805687" lon="12.113583393374737"><ele>144.0</ele><time>2026-04-18T11:55:25.999Z</time></trkpt><trkpt lat="44.00284859415502" lon="12.113442423698402"><ele>144.0</ele><time>2026-04-18T11:55:26.999Z</time></trkpt><trkpt lat="44.002733794937036" lon="12.113310994166072"><ele>144.5</ele><time>2026-04-18T11:55:27.999Z</time></trkpt><trkpt lat="44.00260840856356" lon="12.113192752375815"><ele>145.0</ele><time>2026-04-18T11:55:28.999Z</time></trkpt><trkpt lat="44.00248818125387" lon="12.113086445820482"><ele>145.5</ele><time>2026-04-18T11:55:29.999Z</time></trkpt><trkpt lat="44.00236879647464" lon="12.112989917390324"><ele>146.0</ele><time>2026-04-18T11:55:30.999Z</time></trkpt><trkpt lat="44.00225374269563" lon="12.112906522122419"><ele>146.0</ele><time>2026-04-18T11:55:31.999Z</time></trkpt><trkpt lat="44.00213164763029" lon="12.112822293388131"><ele>146.0</ele><time>2026-04-18T11:55:32.999Z</time></trkpt><trkpt lat="44.002010687460036" lon="12.112745640667235"><ele>146.0</ele><time>2026-04-18T11:55:33.999Z</time></trkpt><trkpt lat="44.00189003966171" lon="12.112679960840435"><ele>146.0</ele><time>2026-04-18T11:55:34.999Z</time></trkpt><trkpt lat="44.00176818606009" lon="12.112622443587561"><ele>146.0</ele><time>2026-04-18T11:55:35.999Z</time></trkpt><trkpt lat="44.00164652905829" lon="12.112581834228681"><ele>146.0</ele><time>2026-04-18T11:55:36.999Z</time></trkpt><trkpt lat="44.0015255535726" lon="12.112549678455906"><ele>146.0</ele><time>2026-04-18T11:55:37.999Z</time></trkpt><trkpt lat="44.00140809061965" lon="12.112522978752414"><ele>146.0</ele><time>2026-04-18T11:55:38.999Z</time></trkpt><trkpt lat="44.00129292686115" lon="12.112516537801636"><ele>146.0</ele><time>2026-04-18T11:55:39.999Z</time></trkpt><trkpt lat="44.0011832683276" lon="12.11254005733437"><ele>146.0</ele><time>2026-04-18T11:55:40.998Z</time></trkpt><trkpt lat="44.001074299058544" lon="12.112598230068519"><ele>146.0</ele><time>2026-04-18T11:55:41.998Z</time></trkpt><trkpt lat="44.00096945058741" lon="12.112671027363145"><ele>146.0</ele><time>2026-04-18T11:55:42.998Z</time></trkpt><trkpt lat="44.000869893847245" lon="12.112748599664279"><ele>146.75</ele><time>2026-04-18T11:55:43.998Z</time></trkpt><trkpt lat="44.00076294817467" lon="12.112827719227452"><ele>147.5</ele><time>2026-04-18T11:55:44.998Z</time></trkpt><trkpt lat="44.00065900161416" lon="12.112902284815908"><ele>148.25</ele><time>2026-04-18T11:55:45.998Z</time></trkpt><trkpt lat="44.00055530257194" lon="12.11297479727128"><ele>149.0</ele><time>2026-04-18T11:55:46.998Z</time></trkpt><trkpt lat="44.00046052212299" lon="12.113034432514167"><ele>149.0</ele><time>2026-04-18T11:55:47.998Z</time></trkpt><trkpt lat="44.000370495761516" lon="12.113081134761929"><ele>149.0</ele><time>2026-04-18T11:55:48.998Z</time></trkpt><trkpt lat="44.000274993265755" lon="12.113095707798298"><ele>149.0</ele><time>2026-04-18T11:55:49.998Z</time></trkpt><trkpt lat="44.000165368433215" lon="12.113080109263912"><ele>149.0</ele><time>2026-04-18T11:55:50.998Z</time></trkpt><trkpt lat="44.000058298647986" lon="12.11302921016962"><ele>149.0</ele><time>2026-04-18T11:55:51.998Z</time></trkpt><trkpt lat="43.99995622730603" lon="12.112944557391033"><ele>149.0</ele><time>2026-04-18T11:55:52.998Z</time></trkpt><trkpt lat="43.99986120862446" lon="12.112835937417099"><ele>149.0</ele><time>2026-04-18T11:55:53.998Z</time></trkpt><trkpt lat="43.999765621540504" lon="12.112723219731778"><ele>149.0</ele><time>2026-04-18T11:55:54.998Z</time></trkpt><trkpt lat="43.99967014690009" lon="12.112611849134385"><ele>149.0</ele><time>2026-04-18T11:55:55.998Z</time></trkpt><trkpt lat="43.99957461359532" lon="12.112505629151176"><ele>148.75</ele><time>2026-04-18T11:55:56.998Z</time></trkpt><trkpt lat="43.999482393968115" lon="12.112405476529746"><ele>148.5</ele><time>2026-04-18T11:55:57.998Z</time></trkpt><trkpt lat="43.99938101247674" lon="12.112303186682693"><ele>148.25</ele><time>2026-04-18T11:55:58.998Z</time></trkpt><trkpt lat="43.99928354374968" lon="12.112199100069923"><ele>148.0</ele><time>2026-04-18T11:55:59.998Z</time></trkpt><trkpt lat="43.999186966204704" lon="12.112084304775387"><ele>148.75</ele><time>2026-04-18T11:56:00.998Z</time></trkpt><trkpt lat="43.999088629888774" lon="12.111970176452123"><ele>149.5</ele><time>2026-04-18T11:56:01.998Z</time></trkpt><trkpt lat="43.99899143075927" lon="12.111849876143784"><ele>150.25</ele><time>2026-04-18T11:56:02.998Z</time></trkpt><trkpt lat="43.9988952044476" lon="12.111737404798603"><ele>151.0</ele><time>2026-04-18T11:56:03.998Z</time></trkpt><trkpt lat="43.99880099354397" lon="12.111634902107038"><ele>151.0</ele><time>2026-04-18T11:56:04.998Z</time></trkpt><trkpt lat="43.998716991254" lon="12.111541354784718"><ele>151.0</ele><time>2026-04-18T11:56:05.998Z</time></trkpt><trkpt lat="43.998633732216526" lon="12.11144249559669"><ele>151.0</ele><time>2026-04-18T11:56:06.998Z</time></trkpt><trkpt lat="43.998550798307946" lon="12.11135138957643"><ele>151.0</ele><time>2026-04-18T11:56:07.998Z</time></trkpt><trkpt lat="43.99846737505111" lon="12.111255886297888"><ele>151.0</ele><time>2026-04-18T11:56:08.998Z</time></trkpt><trkpt lat="43.99837688482029" lon="12.111156113900394"><ele>151.5</ele><time>2026-04-18T11:56:09.998Z</time></trkpt><trkpt lat="43.99828627027028" lon="12.11105065590905"><ele>152.0</ele><time>2026-04-18T11:56:10.998Z</time></trkpt><trkpt lat="43.99819272852607" lon="12.110946361479499"><ele>152.5</ele><time>2026-04-18T11:56:11.998Z</time></trkpt><trkpt lat="43.99810133052956" lon="12.110842434712772"><ele>153.0</ele><time>2026-04-18T11:56:12.998Z</time></trkpt><trkpt lat="43.99801222144382" lon="12.110735887274544"><ele>153.0</ele><time>2026-04-18T11:56:13.998Z</time></trkpt><trkpt lat="43.99792560350579" lon="12.11063659706776"><ele>153.0</ele><time>2026-04-18T11:56:14.998Z</time></trkpt><trkpt lat="43.99783786162415" lon="12.110536292725461"><ele>153.0</ele><time>2026-04-18T11:56:15.998Z</time></trkpt><trkpt lat="43.99775113062019" lon="12.11043552681696"><ele>153.0</ele><time>2026-04-18T11:56:16.998Z</time></trkpt><trkpt lat="43.99766749066723" lon="12.110337450676184"><ele>153.0</ele><time>2026-04-18T11:56:17.998Z</time></trkpt><trkpt lat="43.997574607756846" lon="12.110234900924462"><ele>153.5</ele><time>2026-04-18T11:56:18.998Z</time></trkpt><trkpt lat="43.99748071724974" lon="12.110129278945074"><ele>154.0</ele><time>2026-04-18T11:56:19.998Z</time></trkpt><trkpt lat="43.99738255454632" lon="12.11001715729507"><ele>154.5</ele><time>2026-04-18T11:56:20.998Z</time></trkpt><trkpt lat="43.99728483731151" lon="12.109911360202233"><ele>155.0</ele><time>2026-04-18T11:56:21.998Z</time></trkpt><trkpt lat="43.99719100167049" lon="12.109814049102807"><ele>155.0</ele><time>2026-04-18T11:56:22.998Z</time></trkpt><trkpt lat="43.997093310279205" lon="12.109707030903534"><ele>155.0</ele><time>2026-04-18T11:56:23.998Z</time></trkpt><trkpt lat="43.99700186510007" lon="12.109606239121913"><ele>155.0</ele><time>2026-04-18T11:56:24.998Z</time></trkpt><trkpt lat="43.99690769253878" lon="12.10950463533642"><ele>155.0</ele><time>2026-04-18T11:56:25.998Z</time></trkpt><trkpt lat="43.99682567877974" lon="12.109409406685376"><ele>155.0</ele><time>2026-04-18T11:56:26.998Z</time></trkpt><trkpt lat="43.99674228939353" lon="12.109307532502426"><ele>155.0</ele><time>2026-04-18T11:56:27.998Z</time></trkpt><trkpt lat="43.99665636480868" lon="12.10920939087612"><ele>155.0</ele><time>2026-04-18T11:56:28.998Z</time></trkpt><trkpt lat="43.996567270628184" lon="12.109111103752577"><ele>155.0</ele><time>2026-04-18T11:56:29.998Z</time></trkpt><trkpt lat="43.99647664620808" lon="12.109008978730037"><ele>155.75</ele><time>2026-04-18T11:56:30.998Z</time></trkpt><trkpt lat="43.996385180843454" lon="12.108907003129483"><ele>156.5</ele><time>2026-04-18T11:56:31.998Z</time></trkpt><trkpt lat="43.9962911353435" lon="12.108804736055424"><ele>157.25</ele><time>2026-04-18T11:56:32.998Z</time></trkpt><trkpt lat="43.99619666123404" lon="12.10870677496125"><ele>158.0</ele><time>2026-04-18T11:56:33.998Z</time></trkpt><trkpt lat="43.996093041549535" lon="12.108610216611709"><ele>158.0</ele><time>2026-04-18T11:56:34.998Z</time></trkpt><trkpt lat="43.99599257270624" lon="12.108532723644068"><ele>158.0</ele><time>2026-04-18T11:56:35.998Z</time></trkpt><trkpt lat="43.9958868819051" lon="12.108452999195862"><ele>158.0</ele><time>2026-04-18T11:56:36.998Z</time></trkpt><trkpt lat="43.99578466101849" lon="12.108373598059668"><ele>158.0</ele><time>2026-04-18T11:56:37.998Z</time></trkpt><trkpt lat="43.99568772188581" lon="12.108300885828912"><ele>159.25</ele><time>2026-04-18T11:56:38.998Z</time></trkpt><trkpt lat="43.99559195419156" lon="12.108225979608576"><ele>160.5</ele><time>2026-04-18T11:56:39.998Z</time></trkpt><trkpt lat="43.99549885162501" lon="12.108145524113388"><ele>161.75</ele><time>2026-04-18T11:56:40.998Z</time></trkpt><trkpt lat="43.99540324995008" lon="12.1080588837521"><ele>163.0</ele><time>2026-04-18T11:56:41.998Z</time></trkpt><trkpt lat="43.99530527136598" lon="12.107969381281329"><ele>163.0</ele><time>2026-04-18T11:56:42.998Z</time></trkpt><trkpt lat="43.99520883881505" lon="12.107881144952687"><ele>163.0</ele><time>2026-04-18T11:56:43.998Z</time></trkpt><trkpt lat="43.99511992526547" lon="12.107797993558805"><ele>163.0</ele><time>2026-04-18T11:56:44.998Z</time></trkpt><trkpt lat="43.995041870306" lon="12.107713603012359"><ele>163.0</ele><time>2026-04-18T11:56:45.998Z</time></trkpt><trkpt lat="43.9949492644839" lon="12.107642677769325"><ele>163.0</ele><time>2026-04-18T11:56:46.998Z</time></trkpt><trkpt lat="43.99486134618946" lon="12.10757638336462"><ele>163.8</ele><time>2026-04-18T11:56:47.998Z</time></trkpt><trkpt lat="43.99478229327112" lon="12.10754162400236"><ele>164.60000000000002</ele><time>2026-04-18T11:56:48.998Z</time></trkpt><trkpt lat="43.99469017995803" lon="12.107546979274368"><ele>165.39999999999998</ele><time>2026-04-18T11:56:49.998Z</time></trkpt><trkpt lat="43.99458574239791" lon="12.107548937139871"><ele>166.2</ele><time>2026-04-18T11:56:50.998Z</time></trkpt><trkpt lat="43.994463887098426" lon="12.107548937141985"><ele>167.0</ele><time>2026-04-18T11:56:51.998Z</time></trkpt><trkpt lat="43.994358941101666" lon="12.107548937146184"><ele>167.0</ele><time>2026-04-18T11:56:52.998Z</time></trkpt><trkpt lat="43.99425865183246" lon="12.107727967968495"><ele>167.0</ele><time>2026-04-18T11:56:53.998Z</time></trkpt><trkpt lat="43.99415007495122" lon="12.107775861919746"><ele>167.0</ele><time>2026-04-18T11:56:54.998Z</time></trkpt><trkpt lat="43.99406626265249" lon="12.107807686507087"><ele>167.0</ele><time>2026-04-18T11:56:55.998Z</time></trkpt><trkpt lat="43.99399777729818" lon="12.107827161189704"><ele>167.0</ele><time>2026-04-18T11:56:56.998Z</time></trkpt><trkpt lat="43.993938713734266" lon="12.107861474709283"><ele>169.2</ele><time>2026-04-18T11:56:57.998Z</time></trkpt><trkpt lat="43.99383337968826" lon="12.107906447525297"><ele>171.39999999999998</ele><time>2026-04-18T11:56:59.998Z</time></trkpt><trkpt lat="43.99375637868889" lon="12.1080109717799"><ele>173.60000000000002</ele><time>2026-04-18T11:57:01.998Z</time></trkpt><trkpt lat="43.9937348823038" lon="12.10809329782343"><ele>175.8</ele><time>2026-04-18T11:57:02.998Z</time></trkpt><trkpt lat="43.993718521876055" lon="12.108274171893664"><ele>178.0</ele><time>2026-04-18T11:57:04.998Z</time></trkpt><trkpt lat="43.993744948408185" lon="12.108356662596341"><ele>178.0</ele><time>2026-04-18T11:57:05.998Z</time></trkpt><trkpt lat="43.99381136120792" lon="12.10848256858534"><ele>178.0</ele><time>2026-04-18T11:57:07.998Z</time></trkpt><trkpt lat="43.99391946580696" lon="12.108549697045595"><ele>178.0</ele><time>2026-04-18T11:57:09.998Z</time></trkpt><trkpt lat="43.99399222542869" lon="12.108570131403766"><ele>178.0</ele><time>2026-04-18T11:57:10.998Z</time></trkpt><trkpt lat="43.994060427791844" lon="12.108595049447004"><ele>178.0</ele><time>2026-04-18T11:57:11.997Z</time></trkpt><trkpt lat="43.994125514588475" lon="12.108647314921425"><ele>176.5</ele><time>2026-04-18T11:57:12.997Z</time></trkpt><trkpt lat="43.99418433135613" lon="12.108714102378551"><ele>175.0</ele><time>2026-04-18T11:57:13.997Z</time></trkpt><trkpt lat="43.994243936371014" lon="12.108784064793946"><ele>173.5</ele><time>2026-04-18T11:57:14.997Z</time></trkpt><trkpt lat="43.994297239214774" lon="12.108857273280817"><ele>172.0</ele><time>2026-04-18T11:57:15.997Z</time></trkpt><trkpt lat="43.99435391607489" lon="12.108935080813756"><ele>170.5</ele><time>2026-04-18T11:57:16.997Z</time></trkpt><trkpt lat="43.99442284634116" lon="12.109020215209362"><ele>169.0</ele><time>2026-04-18T11:57:17.997Z</time></trkpt><trkpt lat="43.99449306583665" lon="12.109111670271668"><ele>173.5</ele><time>2026-04-18T11:57:18.997Z</time></trkpt><trkpt lat="43.994590054757445" lon="12.109201391005804"><ele>178.0</ele><time>2026-04-18T11:57:19.997Z</time></trkpt><trkpt lat="43.99468729355538" lon="12.109243712219081"><ele>182.5</ele><time>2026-04-18T11:57:20.997Z</time></trkpt><trkpt lat="43.99481422737297" lon="12.109286019213203"><ele>187.0</ele><time>2026-04-18T11:57:21.997Z</time></trkpt><trkpt lat="43.99493815500387" lon="12.109325213858892"><ele>184.5</ele><time>2026-04-18T11:57:22.997Z</time></trkpt><trkpt lat="43.995066350510726" lon="12.109345792313748"><ele>182.0</ele><time>2026-04-18T11:57:23.997Z</time></trkpt><trkpt lat="43.99517355992012" lon="12.109343372061826"><ele>179.5</ele><time>2026-04-18T11:57:24.997Z</time></trkpt><trkpt lat="43.995289677962354" lon="12.109244481857452"><ele>177.0</ele><time>2026-04-18T11:57:26.997Z</time></trkpt><trkpt lat="43.995243466622426" lon="12.10904078769104"><ele>177.0</ele><time>2026-04-18T11:57:27.997Z</time></trkpt><trkpt lat="43.99533791700524" lon="12.108980689063879"><ele>177.0</ele><time>2026-04-18T11:57:29.997Z</time></trkpt><trkpt lat="43.995402359079804" lon="12.10899478164878"><ele>177.0</ele><time>2026-04-18T11:57:30.997Z</time></trkpt><trkpt lat="43.99546860209535" lon="12.109054349108373"><ele>177.0</ele><time>2026-04-18T11:57:31.997Z</time></trkpt><trkpt lat="43.99554465862413" lon="12.109188774977675"><ele>177.0</ele><time>2026-04-18T11:57:33.997Z</time></trkpt><trkpt lat="43.99560527795846" lon="12.109374472382845"><ele>177.0</ele><time>2026-04-18T11:57:35.997Z</time></trkpt><trkpt lat="43.99562696555675" lon="12.109488393283247"><ele>177.0</ele><time>2026-04-18T11:57:36.997Z</time></trkpt><trkpt lat="43.99562635754661" lon="12.10960117844561"><ele>177.0</ele><time>2026-04-18T11:57:37.997Z</time></trkpt><trkpt lat="43.9956126159527" lon="12.109710246049552"><ele>177.0</ele><time>2026-04-18T11:57:38.997Z</time></trkpt><trkpt lat="43.99558572144874" lon="12.1098181679684"><ele>177.0</ele><time>2026-04-18T11:57:39.997Z</time></trkpt><trkpt lat="43.995547133783774" lon="12.1099415977067"><ele>177.0</ele><time>2026-04-18T11:57:40.997Z</time></trkpt><trkpt lat="43.99551030528966" lon="12.110070691021965"><ele>179.6</ele><time>2026-04-18T11:57:41.997Z</time></trkpt><trkpt lat="43.99548290021672" lon="12.110201941087022"><ele>182.2</ele><time>2026-04-18T11:57:42.997Z</time></trkpt><trkpt lat="43.99546627752718" lon="12.110334380339022"><ele>184.8</ele><time>2026-04-18T11:57:43.997Z</time></trkpt><trkpt lat="43.99546073315184" lon="12.110467002951337"><ele>187.4</ele><time>2026-04-18T11:57:44.997Z</time></trkpt><trkpt lat="43.995476510298445" lon="12.11060450767202"><ele>190.0</ele><time>2026-04-18T11:57:45.997Z</time></trkpt><trkpt lat="43.99550633324864" lon="12.110734708538704"><ele>192.0</ele><time>2026-04-18T11:57:46.997Z</time></trkpt><trkpt lat="43.99555847606452" lon="12.110857507661077"><ele>194.0</ele><time>2026-04-18T11:57:47.997Z</time></trkpt><trkpt lat="43.99562582182964" lon="12.110953217531979"><ele>196.0</ele><time>2026-04-18T11:57:48.997Z</time></trkpt><trkpt lat="43.995686589943396" lon="12.111030872475508"><ele>198.0</ele><time>2026-04-18T11:57:49.997Z</time></trkpt><trkpt lat="43.99573299393601" lon="12.11113538704804"><ele>200.0</ele><time>2026-04-18T11:57:51.997Z</time></trkpt><trkpt lat="43.9956523004125" lon="12.11121255381715"><ele>200.0</ele><time>2026-04-18T11:57:53.997Z</time></trkpt><trkpt lat="43.99558999498454" lon="12.11119240453097"><ele>200.0</ele><time>2026-04-18T11:57:54.997Z</time></trkpt><trkpt lat="43.99550350913381" lon="12.111113994522146"><ele>200.0</ele><time>2026-04-18T11:57:55.997Z</time></trkpt><trkpt lat="43.995415412222584" lon="12.111038470649712"><ele>200.0</ele><time>2026-04-18T11:57:56.997Z</time></trkpt><trkpt lat="43.99533520079108" lon="12.11095800345929"><ele>200.0</ele><time>2026-04-18T11:57:57.997Z</time></trkpt><trkpt lat="43.995265361971626" lon="12.110872312461375"><ele>200.00000000000003</ele><time>2026-04-18T11:57:58.997Z</time></trkpt><trkpt lat="43.9952091988715" lon="12.110774636333149"><ele>200.0</ele><time>2026-04-18T11:57:59.997Z</time></trkpt><trkpt lat="43.99516267646814" lon="12.110674881089253"><ele>200.0</ele><time>2026-04-18T11:58:00.997Z</time></trkpt><trkpt lat="43.995114627872205" lon="12.110578877790228"><ele>200.0</ele><time>2026-04-18T11:58:01.997Z</time></trkpt><trkpt lat="43.99506591554793" lon="12.110489716370182"><ele>200.00000000000003</ele><time>2026-04-18T11:58:02.997Z</time></trkpt><trkpt lat="43.995024335073886" lon="12.110402771978825"><ele>200.0</ele><time>2026-04-18T11:58:03.997Z</time></trkpt><trkpt lat="43.99497579201295" lon="12.110317378214797"><ele>201.71428571428572</ele><time>2026-04-18T11:58:04.997Z</time></trkpt><trkpt lat="43.994930671829614" lon="12.110236760044641"><ele>203.42857142857144</ele><time>2026-04-18T11:58:05.997Z</time></trkpt><trkpt lat="43.994889439063684" lon="12.110156652115883"><ele>205.14285714285717</ele><time>2026-04-18T11:58:06.997Z</time></trkpt><trkpt lat="43.994836078027504" lon="12.110080946326926"><ele>206.85714285714286</ele><time>2026-04-18T11:58:07.997Z</time></trkpt><trkpt lat="43.99479083283027" lon="12.110008719518612"><ele>208.57142857142856</ele><time>2026-04-18T11:58:08.997Z</time></trkpt><trkpt lat="43.9947427405948" lon="12.109945617946792"><ele>210.2857142857143</ele><time>2026-04-18T11:58:09.997Z</time></trkpt><trkpt lat="43.99467813245915" lon="12.109900401788714"><ele>212.0</ele><time>2026-04-18T11:58:10.997Z</time></trkpt><trkpt lat="43.994602340586844" lon="12.109836822763947"><ele>209.39999999999998</ele><time>2026-04-18T11:58:11.997Z</time></trkpt><trkpt lat="43.99450902488011" lon="12.109805770756687"><ele>206.79999999999998</ele><time>2026-04-18T11:58:12.997Z</time></trkpt><trkpt lat="43.99441517359365" lon="12.109794237335777"><ele>204.2</ele><time>2026-04-18T11:58:13.997Z</time></trkpt><trkpt lat="43.9943381812435" lon="12.109798231402902"><ele>201.6</ele><time>2026-04-18T11:58:14.997Z</time></trkpt><trkpt lat="43.99420127970682" lon="12.109830835191328"><ele>199.0</ele><time>2026-04-18T11:58:16.997Z</time></trkpt><trkpt lat="43.99414427355731" lon="12.109879812617757"><ele>201.16666666666666</ele><time>2026-04-18T11:58:17.997Z</time></trkpt><trkpt lat="43.99410706157187" lon="12.109953971484538"><ele>203.33333333333331</ele><time>2026-04-18T11:58:18.997Z</time></trkpt><trkpt lat="43.994108615941066" lon="12.110079637202876"><ele>205.5</ele><time>2026-04-18T11:58:19.997Z</time></trkpt><trkpt lat="43.99419483701709" lon="12.110153260413284"><ele>207.66666666666669</ele><time>2026-04-18T11:58:20.997Z</time></trkpt><trkpt lat="43.99426824881055" lon="12.110164743487124"><ele>209.83333333333334</ele><time>2026-04-18T11:58:21.997Z</time></trkpt><trkpt lat="43.994336674979884" lon="12.110138428523477"><ele>212.0</ele><time>2026-04-18T11:58:22.997Z</time></trkpt><trkpt lat="43.994405466333724" lon="12.110137188876246"><ele>212.00000000000003</ele><time>2026-04-18T11:58:23.997Z</time></trkpt><trkpt lat="43.994464408263276" lon="12.110171415240488"><ele>212.0</ele><time>2026-04-18T11:58:24.997Z</time></trkpt><trkpt lat="43.99453842093872" lon="12.110337254584199"><ele>212.0</ele><time>2026-04-18T11:58:26.997Z</time></trkpt><trkpt lat="43.99456323684433" lon="12.110461875422281"><ele>212.0</ele><time>2026-04-18T11:58:27.997Z</time></trkpt><trkpt lat="43.994584660784284" lon="12.110566452125783"><ele>212.00000000000003</ele><time>2026-04-18T11:58:28.997Z</time></trkpt><trkpt lat="43.99459993251657" lon="12.110653849842825"><ele>212.0</ele><time>2026-04-18T11:58:29.997Z</time></trkpt><trkpt lat="43.99461632305206" lon="12.110802787633956"><ele>212.00000000000003</ele><time>2026-04-18T11:58:31.997Z</time></trkpt><trkpt lat="43.9946185143984" lon="12.110912019113558"><ele>212.0</ele><time>2026-04-18T11:58:33.997Z</time></trkpt><trkpt lat="43.99455045557291" lon="12.110950174771732"><ele>212.0</ele><time>2026-04-18T11:58:35.997Z</time></trkpt><trkpt lat="43.994512744654934" lon="12.110785488582714"><ele>212.0</ele><time>2026-04-18T11:58:37.997Z</time></trkpt><trkpt lat="43.99449666103843" lon="12.110681730255566"><ele>212.00000000000003</ele><time>2026-04-18T11:58:38.997Z</time></trkpt><trkpt lat="43.994486667714234" lon="12.110589627312875"><ele>212.0</ele><time>2026-04-18T11:58:39.997Z</time></trkpt><trkpt lat="43.9944478961953" lon="12.11051183227414"><ele>212.00000000000003</ele><time>2026-04-18T11:58:40.997Z</time></trkpt><trkpt lat="43.99439553776792" lon="12.110438286342747"><ele>212.0</ele><time>2026-04-18T11:58:41.996Z</time></trkpt><trkpt lat="43.99432475935097" lon="12.110379324240158"><ele>212.0</ele><time>2026-04-18T11:58:42.996Z</time></trkpt><trkpt lat="43.994246741724666" lon="12.110343707698672"><ele>212.0</ele><time>2026-04-18T11:58:43.996Z</time></trkpt><trkpt lat="43.994170868382845" lon="12.110349943525998"><ele>212.00000000000003</ele><time>2026-04-18T11:58:44.996Z</time></trkpt><trkpt lat="43.99411014283434" lon="12.110396809492041"><ele>212.0</ele><time>2026-04-18T11:58:45.996Z</time></trkpt><trkpt lat="43.994053977765205" lon="12.110459660052028"><ele>213.50000000000003</ele><time>2026-04-18T11:58:46.996Z</time></trkpt><trkpt lat="43.994021872307066" lon="12.11054736012824"><ele>215.0</ele><time>2026-04-18T11:58:47.996Z</time></trkpt><trkpt lat="43.99401452863304" lon="12.110638904056312"><ele>216.5</ele><time>2026-04-18T11:58:48.996Z</time></trkpt><trkpt lat="43.994037136398184" lon="12.110742540197847"><ele>218.0</ele><time>2026-04-18T11:58:49.996Z</time></trkpt><trkpt lat="43.99408840885251" lon="12.110839546893743"><ele>219.50000000000003</ele><time>2026-04-18T11:58:50.996Z</time></trkpt><trkpt lat="43.99414220447449" lon="12.110931146385846"><ele>221.0</ele><time>2026-04-18T11:58:51.996Z</time></trkpt><trkpt lat="43.99419126794851" lon="12.111015412616787"><ele>221.00000000000003</ele><time>2026-04-18T11:58:52.996Z</time></trkpt><trkpt lat="43.99425771749509" lon="12.111096842793158"><ele>221.0</ele><time>2026-04-18T11:58:53.996Z</time></trkpt><trkpt lat="43.994305178773594" lon="12.111206290299473"><ele>221.0</ele><time>2026-04-18T11:58:54.996Z</time></trkpt><trkpt lat="43.994357985396555" lon="12.111308956191893"><ele>221.0</ele><time>2026-04-18T11:58:55.996Z</time></trkpt><trkpt lat="43.994408045711054" lon="12.111405626625968"><ele>221.00000000000003</ele><time>2026-04-18T11:58:56.996Z</time></trkpt><trkpt lat="43.994452540243024" lon="12.111499355674814"><ele>221.0</ele><time>2026-04-18T11:58:57.996Z</time></trkpt><trkpt lat="43.99448947768197" lon="12.111601510977689"><ele>223.50000000000003</ele><time>2026-04-18T11:58:58.996Z</time></trkpt><trkpt lat="43.99451416698993" lon="12.111704052769507"><ele>226.0</ele><time>2026-04-18T11:58:59.996Z</time></trkpt><trkpt lat="43.99455930450614" lon="12.111815801703058"><ele>228.5</ele><time>2026-04-18T11:59:00.996Z</time></trkpt><trkpt lat="43.994589002766865" lon="12.111931273740508"><ele>231.0</ele><time>2026-04-18T11:59:01.996Z</time></trkpt><trkpt lat="43.99462227323769" lon="12.112039755699985"><ele>233.50000000000003</ele><time>2026-04-18T11:59:02.996Z</time></trkpt><trkpt lat="43.99464310147107" lon="12.112162794381"><ele>236.0</ele><time>2026-04-18T11:59:03.996Z</time></trkpt><trkpt lat="43.994658479319526" lon="12.112280468458147"><ele>236.00000000000003</ele><time>2026-04-18T11:59:04.996Z</time></trkpt><trkpt lat="43.99467053226216" lon="12.11240492032101"><ele>236.0</ele><time>2026-04-18T11:59:05.996Z</time></trkpt><trkpt lat="43.99468418851323" lon="12.112523411681911"><ele>236.0</ele><time>2026-04-18T11:59:06.996Z</time></trkpt><trkpt lat="43.994685177112416" lon="12.112642763610518"><ele>236.0</ele><time>2026-04-18T11:59:07.996Z</time></trkpt><trkpt lat="43.99467279903516" lon="12.1127669455708"><ele>236.00000000000003</ele><time>2026-04-18T11:59:08.996Z</time></trkpt><trkpt lat="43.99465199410571" lon="12.112890724672594"><ele>236.0</ele><time>2026-04-18T11:59:09.996Z</time></trkpt><trkpt lat="43.9946243955087" lon="12.113019081993437"><ele>237.50000000000003</ele><time>2026-04-18T11:59:10.996Z</time></trkpt><trkpt lat="43.99460033141774" lon="12.113129181048985"><ele>239.0</ele><time>2026-04-18T11:59:11.996Z</time></trkpt><trkpt lat="43.99457763862349" lon="12.113234346213146"><ele>240.5</ele><time>2026-04-18T11:59:12.996Z</time></trkpt><trkpt lat="43.99455806646935" lon="12.113336287774795"><ele>242.0</ele><time>2026-04-18T11:59:13.996Z</time></trkpt><trkpt lat="43.994537842389136" lon="12.113427223868957"><ele>243.50000000000003</ele><time>2026-04-18T11:59:14.996Z</time></trkpt><trkpt lat="43.99446848198792" lon="12.113522367554237"><ele>245.0</ele><time>2026-04-18T11:59:16.996Z</time></trkpt><trkpt lat="43.99443177960781" lon="12.113417898485821"><ele>245.00000000000003</ele><time>2026-04-18T11:59:18.996Z</time></trkpt><trkpt lat="43.994465183685215" lon="12.113342774162655"><ele>245.0</ele><time>2026-04-18T11:59:19.996Z</time></trkpt><trkpt lat="43.99447592131778" lon="12.113247204809486"><ele>245.0</ele><time>2026-04-18T11:59:20.996Z</time></trkpt><trkpt lat="43.99448377999009" lon="12.113147612209831"><ele>245.0</ele><time>2026-04-18T11:59:21.996Z</time></trkpt><trkpt lat="43.994494682970505" lon="12.113033121054794"><ele>245.00000000000003</ele><time>2026-04-18T11:59:22.996Z</time></trkpt><trkpt lat="43.99450234223746" lon="12.112914739562386"><ele>245.0</ele><time>2026-04-18T11:59:23.996Z</time></trkpt><trkpt lat="43.994504194584096" lon="12.112799229788735"><ele>245.0</ele><time>2026-04-18T11:59:24.996Z</time></trkpt><trkpt lat="43.994505768660595" lon="12.112708868205095"><ele>245.0</ele><time>2026-04-18T11:59:25.996Z</time></trkpt><trkpt lat="43.99450183119397" lon="12.11254476752618"><ele>245.0</ele><time>2026-04-18T11:59:27.996Z</time></trkpt><trkpt lat="43.9944347516455" lon="12.112442553825892"><ele>245.0</ele><time>2026-04-18T11:59:29.996Z</time></trkpt><trkpt lat="43.99431360661496" lon="12.112476857507732"><ele>245.0</ele><time>2026-04-18T11:59:31.996Z</time></trkpt><trkpt lat="43.99427783284208" lon="12.112593211820121"><ele>245.00000000000003</ele><time>2026-04-18T11:59:32.996Z</time></trkpt><trkpt lat="43.99428485286052" lon="12.112708449344895"><ele>245.0</ele><time>2026-04-18T11:59:33.996Z</time></trkpt><trkpt lat="43.99428850886793" lon="12.112827752866119"><ele>245.0</ele><time>2026-04-18T11:59:34.996Z</time></trkpt><trkpt lat="43.99428334907938" lon="12.112944518255713"><ele>245.0</ele><time>2026-04-18T11:59:35.996Z</time></trkpt><trkpt lat="43.99427326195816" lon="12.113060537594261"><ele>245.00000000000003</ele><time>2026-04-18T11:59:36.996Z</time></trkpt><trkpt lat="43.99425245991784" lon="12.113166436108504"><ele>245.0</ele><time>2026-04-18T11:59:37.996Z</time></trkpt><trkpt lat="43.99422456382525" lon="12.113267474757558"><ele>245.14285714285714</ele><time>2026-04-18T11:59:38.996Z</time></trkpt><trkpt lat="43.99419778632274" lon="12.113358658866446"><ele>245.28571428571428</ele><time>2026-04-18T11:59:39.996Z</time></trkpt><trkpt lat="43.99416714827432" lon="12.113441499227688"><ele>245.42857142857144</ele><time>2026-04-18T11:59:40.996Z</time></trkpt><trkpt lat="43.99413173363133" lon="12.113518974900053"><ele>245.57142857142858</ele><time>2026-04-18T11:59:41.996Z</time></trkpt><trkpt lat="43.99410306502579" lon="12.113605583614337"><ele>245.71428571428572</ele><time>2026-04-18T11:59:42.996Z</time></trkpt><trkpt lat="43.994081040069034" lon="12.113707120973585"><ele>245.8571428571429</ele><time>2026-04-18T11:59:43.996Z</time></trkpt><trkpt lat="43.994076494441195" lon="12.113803656471056"><ele>246.00000000000003</ele><time>2026-04-18T11:59:44.996Z</time></trkpt><trkpt lat="43.99407791872153" lon="12.113901610020937"><ele>247.0</ele><time>2026-04-18T11:59:45.996Z</time></trkpt><trkpt lat="43.994086146186696" lon="12.114000880213757"><ele>248.0</ele><time>2026-04-18T11:59:46.996Z</time></trkpt><trkpt lat="43.99409845117071" lon="12.11409942326486"><ele>249.0</ele><time>2026-04-18T11:59:47.996Z</time></trkpt><trkpt lat="43.99411884103784" lon="12.114194591119114"><ele>250.0</ele><time>2026-04-18T11:59:48.996Z</time></trkpt><trkpt lat="43.99414683057157" lon="12.114293307388682"><ele>251.0</ele><time>2026-04-18T11:59:49.996Z</time></trkpt><trkpt lat="43.994181074772825" lon="12.114390340285828"><ele>252.0</ele><time>2026-04-18T11:59:50.996Z</time></trkpt><trkpt lat="43.99422272289329" lon="12.114488347750628"><ele>252.0</ele><time>2026-04-18T11:59:51.996Z</time></trkpt><trkpt lat="43.99425659694525" lon="12.11458789189817"><ele>252.0</ele><time>2026-04-18T11:59:52.996Z</time></trkpt><trkpt lat="43.99429323000627" lon="12.114686634884713"><ele>252.0</ele><time>2026-04-18T11:59:53.996Z</time></trkpt><trkpt lat="43.99432530361418" lon="12.114785374755062"><ele>252.0</ele><time>2026-04-18T11:59:54.996Z</time></trkpt><trkpt lat="43.99435193935518" lon="12.11488678953349"><ele>252.0</ele><time>2026-04-18T11:59:55.996Z</time></trkpt><trkpt lat="43.99437018405939" lon="12.114992540057779"><ele>252.0</ele><time>2026-04-18T11:59:56.996Z</time></trkpt><trkpt lat="43.99438634753166" lon="12.115097008785465"><ele>254.66666666666666</ele><time>2026-04-18T11:59:57.996Z</time></trkpt><trkpt lat="43.99439786091341" lon="12.115204656378923"><ele>257.3333333333333</ele><time>2026-04-18T11:59:58.996Z</time></trkpt><trkpt lat="43.994404690295305" lon="12.115315233972767"><ele>260.0</ele><time>2026-04-18T11:59:59.996Z</time></trkpt><trkpt lat="43.994414676727224" lon="12.11542893257448"><ele>262.66666666666663</ele><time>2026-04-18T12:00:00.996Z</time></trkpt><trkpt lat="43.994418238494134" lon="12.115551547141893"><ele>265.3333333333333</ele><time>2026-04-18T12:00:01.996Z</time></trkpt><trkpt lat="43.994411180886246" lon="12.115668155577545"><ele>268.0</ele><time>2026-04-18T12:00:02.996Z</time></trkpt><trkpt lat="43.9944172845237" lon="12.1157782314791"><ele>269.6</ele><time>2026-04-18T12:00:03.996Z</time></trkpt><trkpt lat="43.99441764340788" lon="12.115927461848784"><ele>271.20000000000005</ele><time>2026-04-18T12:00:05.996Z</time></trkpt><trkpt lat="43.99433103250997" lon="12.116027510720999"><ele>272.8</ele><time>2026-04-18T12:00:07.996Z</time></trkpt><trkpt lat="43.994268827907334" lon="12.115978690444098"><ele>274.40000000000003</ele><time>2026-04-18T12:00:08.996Z</time></trkpt><trkpt lat="43.99425070807055" lon="12.115855202515515"><ele>276.0</ele><time>2026-04-18T12:00:09.996Z</time></trkpt><trkpt lat="43.99426225192663" lon="12.115762823059907"><ele>274.6666666666667</ele><time>2026-04-18T12:00:10.996Z</time></trkpt><trkpt lat="43.99426660797316" lon="12.115565861239665"><ele>273.3333333333333</ele><time>2026-04-18T12:00:12.995Z</time></trkpt><trkpt lat="43.994243147714805" lon="12.11546719025176"><ele>272.0</ele><time>2026-04-18T12:00:13.995Z</time></trkpt><trkpt lat="43.994206730227894" lon="12.115392929301283"><ele>270.66666666666663</ele><time>2026-04-18T12:00:14.995Z</time></trkpt><trkpt lat="43.994158695707334" lon="12.115327583560289"><ele>269.3333333333333</ele><time>2026-04-18T12:00:15.995Z</time></trkpt><trkpt lat="43.99411693301507" lon="12.115258595862379"><ele>268.0</ele><time>2026-04-18T12:00:16.995Z</time></trkpt><trkpt lat="43.994066277425425" lon="12.115190925471472"><ele>271.5</ele><time>2026-04-18T12:00:17.995Z</time></trkpt><trkpt lat="43.994009443219355" lon="12.115116247857326"><ele>275.0</ele><time>2026-04-18T12:00:18.995Z</time></trkpt><trkpt lat="43.99396169118498" lon="12.115051277242422"><ele>278.5</ele><time>2026-04-18T12:00:19.995Z</time></trkpt><trkpt lat="43.993871118649444" lon="12.114939350614483"><ele>282.0</ele><time>2026-04-18T12:00:21.995Z</time></trkpt><trkpt lat="43.993806658319805" lon="12.114871738806235"><ele>285.5</ele><time>2026-04-18T12:00:22.995Z</time></trkpt><trkpt lat="43.993729717798196" lon="12.114801851606641"><ele>289.0</ele><time>2026-04-18T12:00:23.995Z</time></trkpt><trkpt lat="43.993658406781556" lon="12.114738186503159"><ele>289.0</ele><time>2026-04-18T12:00:24.995Z</time></trkpt><trkpt lat="43.99358447674363" lon="12.114670490862004"><ele>289.0</ele><time>2026-04-18T12:00:25.995Z</time></trkpt><trkpt lat="43.993511374844985" lon="12.1146037589139"><ele>289.0</ele><time>2026-04-18T12:00:26.995Z</time></trkpt><trkpt lat="43.99344328746421" lon="12.114534822337516"><ele>289.0</ele><time>2026-04-18T12:00:27.995Z</time></trkpt><trkpt lat="43.993373423397806" lon="12.114472672312724"><ele>289.0</ele><time>2026-04-18T12:00:28.995Z</time></trkpt><trkpt lat="43.99330481556786" lon="12.114410429578792"><ele>289.0</ele><time>2026-04-18T12:00:29.995Z</time></trkpt><trkpt lat="43.99323567122257" lon="12.114346294207438"><ele>293.5</ele><time>2026-04-18T12:00:30.995Z</time></trkpt><trkpt lat="43.993165691643945" lon="12.114294540960664"><ele>298.0</ele><time>2026-04-18T12:00:31.995Z</time></trkpt><trkpt lat="43.993092262675034" lon="12.114272052997316"><ele>302.5</ele><time>2026-04-18T12:00:32.995Z</time></trkpt><trkpt lat="43.99301596798493" lon="12.11428662756344"><ele>307.0</ele><time>2026-04-18T12:00:33.995Z</time></trkpt><trkpt lat="43.992941642654415" lon="12.114282613742677"><ele>311.5</ele><time>2026-04-18T12:00:34.995Z</time></trkpt><trkpt lat="43.99287692593068" lon="12.114286104673743"><ele>316.0</ele><time>2026-04-18T12:00:35.995Z</time></trkpt><trkpt lat="43.992812334922775" lon="12.114624075497211"><ele>316.0</ele><time>2026-04-18T12:00:37.995Z</time></trkpt><trkpt lat="43.99279618705032" lon="12.114759699432017"><ele>316.0</ele><time>2026-04-18T12:00:38.995Z</time></trkpt><trkpt lat="43.992790476700605" lon="12.114903670156135"><ele>316.0</ele><time>2026-04-18T12:00:39.995Z</time></trkpt><trkpt lat="43.992796029462916" lon="12.115050184935626"><ele>316.0</ele><time>2026-04-18T12:00:40.995Z</time></trkpt><trkpt lat="43.992810198359386" lon="12.115195758645548"><ele>316.0</ele><time>2026-04-18T12:00:41.995Z</time></trkpt><trkpt lat="43.99281700105299" lon="12.115338785378833"><ele>317.8</ele><time>2026-04-18T12:00:42.995Z</time></trkpt><trkpt lat="43.99279719126028" lon="12.115474250272849"><ele>319.6</ele><time>2026-04-18T12:00:43.995Z</time></trkpt><trkpt lat="43.992752931632886" lon="12.115599160445457"><ele>321.4</ele><time>2026-04-18T12:00:44.995Z</time></trkpt><trkpt lat="43.99267963592381" lon="12.115722796647576"><ele>323.2</ele><time>2026-04-18T12:00:45.995Z</time></trkpt><trkpt lat="43.99260381665695" lon="12.115831013818704"><ele>325.0</ele><time>2026-04-18T12:00:46.995Z</time></trkpt><trkpt lat="43.99252349737899" lon="12.115919084942997"><ele>327.6</ele><time>2026-04-18T12:00:47.995Z</time></trkpt><trkpt lat="43.99243087122158" lon="12.116004378344073"><ele>330.2</ele><time>2026-04-18T12:00:48.995Z</time></trkpt><trkpt lat="43.99234481328721" lon="12.116070925782388"><ele>332.79999999999995</ele><time>2026-04-18T12:00:49.995Z</time></trkpt><trkpt lat="43.99226304172098" lon="12.11612676998768"><ele>335.4</ele><time>2026-04-18T12:00:50.995Z</time></trkpt><trkpt lat="43.99218353599794" lon="12.116184698714493"><ele>338.0</ele><time>2026-04-18T12:00:51.995Z</time></trkpt><trkpt lat="43.99212576945108" lon="12.116259480355973"><ele>338.0</ele><time>2026-04-18T12:00:52.995Z</time></trkpt><trkpt lat="43.992078458816984" lon="12.116354721598746"><ele>338.0</ele><time>2026-04-18T12:00:53.995Z</time></trkpt><trkpt lat="43.992080202006775" lon="12.116458009701345"><ele>338.0</ele><time>2026-04-18T12:00:54.995Z</time></trkpt><trkpt lat="43.992078345102314" lon="12.116580679313206"><ele>338.0</ele><time>2026-04-18T12:00:55.995Z</time></trkpt><trkpt lat="43.992071051706354" lon="12.116718928984989"><ele>338.0</ele><time>2026-04-18T12:00:56.995Z</time></trkpt><trkpt lat="43.99205248642035" lon="12.116858828742782"><ele>338.0</ele><time>2026-04-18T12:00:57.995Z</time></trkpt><trkpt lat="43.99202171092199" lon="12.11698851445389"><ele>340.33333333333337</ele><time>2026-04-18T12:00:58.995Z</time></trkpt><trkpt lat="43.99199185826096" lon="12.117107865833676"><ele>342.6666666666667</ele><time>2026-04-18T12:00:59.995Z</time></trkpt><trkpt lat="43.99196495188096" lon="12.117216368933013"><ele>345.0</ele><time>2026-04-18T12:01:00.995Z</time></trkpt><trkpt lat="43.99194017517392" lon="12.117323609425336"><ele>347.3333333333333</ele><time>2026-04-18T12:01:01.995Z</time></trkpt><trkpt lat="43.9919183505933" lon="12.117439888162618"><ele>349.66666666666663</ele><time>2026-04-18T12:01:02.995Z</time></trkpt><trkpt lat="43.991895882193795" lon="12.117555589691"><ele>352.0</ele><time>2026-04-18T12:01:03.995Z</time></trkpt><trkpt lat="43.99187090545837" lon="12.11766841609442"><ele>350.8333333333333</ele><time>2026-04-18T12:01:04.995Z</time></trkpt><trkpt lat="43.991839274607955" lon="12.117770149590642"><ele>349.66666666666663</ele><time>2026-04-18T12:01:05.995Z</time></trkpt><trkpt lat="43.991787861045474" lon="12.11786364131994"><ele>348.5</ele><time>2026-04-18T12:01:06.995Z</time></trkpt><trkpt lat="43.99171640208885" lon="12.117932153168724"><ele>347.3333333333333</ele><time>2026-04-18T12:01:07.995Z</time></trkpt><trkpt lat="43.99163450817413" lon="12.117982852776287"><ele>346.1666666666667</ele><time>2026-04-18T12:01:08.995Z</time></trkpt><trkpt lat="43.99155567929503" lon="12.118034191553342"><ele>345.0</ele><time>2026-04-18T12:01:09.995Z</time></trkpt><trkpt lat="43.991482425654354" lon="12.118089587688873"><ele>345.0</ele><time>2026-04-18T12:01:10.995Z</time></trkpt><trkpt lat="43.99142208541655" lon="12.118146009954142"><ele>345.0</ele><time>2026-04-18T12:01:11.995Z</time></trkpt><trkpt lat="43.99136227091313" lon="12.118233454202771"><ele>345.0</ele><time>2026-04-18T12:01:12.995Z</time></trkpt><trkpt lat="43.991306258236435" lon="12.118336800965372"><ele>345.0</ele><time>2026-04-18T12:01:13.995Z</time></trkpt><trkpt lat="43.991254706736406" lon="12.11846934691516"><ele>345.0</ele><time>2026-04-18T12:01:14.995Z</time></trkpt><trkpt lat="43.991216605835334" lon="12.118602900629096"><ele>349.8</ele><time>2026-04-18T12:01:15.995Z</time></trkpt><trkpt lat="43.991181364272975" lon="12.118706377598293"><ele>354.6</ele><time>2026-04-18T12:01:16.995Z</time></trkpt><trkpt lat="43.99114726893581" lon="12.118798698447831"><ele>359.4</ele><time>2026-04-18T12:01:17.995Z</time></trkpt><trkpt lat="43.991125309196214" lon="12.118882140679307"><ele>364.2</ele><time>2026-04-18T12:01:18.995Z</time></trkpt><trkpt lat="43.99114825961586" lon="12.11903302431462"><ele>369.0</ele><time>2026-04-18T12:01:20.995Z</time></trkpt><trkpt lat="43.99127256014543" lon="12.119062457049445"><ele>369.0</ele><time>2026-04-18T12:01:22.995Z</time></trkpt><trkpt lat="43.99133394203085" lon="12.119008718378495"><ele>369.0</ele><time>2026-04-18T12:01:23.995Z</time></trkpt><trkpt lat="43.99138420817223" lon="12.118915696301885"><ele>369.0</ele><time>2026-04-18T12:01:24.995Z</time></trkpt><trkpt lat="43.991426376971496" lon="12.118813735244727"><ele>369.0</ele><time>2026-04-18T12:01:25.995Z</time></trkpt><trkpt lat="43.991475088158765" lon="12.118706055611606"><ele>369.0</ele><time>2026-04-18T12:01:26.995Z</time></trkpt><trkpt lat="43.99153198414553" lon="12.118610677955804"><ele>369.0</ele><time>2026-04-18T12:01:27.995Z</time></trkpt><trkpt lat="43.991599881072915" lon="12.118534263473215"><ele>369.5</ele><time>2026-04-18T12:01:28.995Z</time></trkpt><trkpt lat="43.99168102830321" lon="12.118476643745199"><ele>370.0</ele><time>2026-04-18T12:01:29.995Z</time></trkpt><trkpt lat="43.99176931866071" lon="12.118439038056762"><ele>370.5</ele><time>2026-04-18T12:01:30.995Z</time></trkpt><trkpt lat="43.99185583629236" lon="12.118437792671397"><ele>371.0</ele><time>2026-04-18T12:01:31.995Z</time></trkpt><trkpt lat="43.99194204878472" lon="12.118439915118795"><ele>371.5</ele><time>2026-04-18T12:01:32.995Z</time></trkpt><trkpt lat="43.99202693884916" lon="12.118447741207616"><ele>372.0</ele><time>2026-04-18T12:01:33.995Z</time></trkpt><trkpt lat="43.99210804641135" lon="12.118455981994636"><ele>372.0</ele><time>2026-04-18T12:01:34.995Z</time></trkpt><trkpt lat="43.99218618319779" lon="12.118467480224847"><ele>372.0</ele><time>2026-04-18T12:01:35.995Z</time></trkpt><trkpt lat="43.99226165437632" lon="12.118481530543622"><ele>372.0</ele><time>2026-04-18T12:01:36.995Z</time></trkpt><trkpt lat="43.992333879181786" lon="12.118519263798794"><ele>372.0</ele><time>2026-04-18T12:01:37.995Z</time></trkpt><trkpt lat="43.99240547393004" lon="12.118574932225759"><ele>372.0</ele><time>2026-04-18T12:01:38.995Z</time></trkpt><trkpt lat="43.99246172924766" lon="12.118652827908127"><ele>372.0</ele><time>2026-04-18T12:01:39.995Z</time></trkpt><trkpt lat="43.99249759775354" lon="12.118746723410407"><ele>372.0</ele><time>2026-04-18T12:01:40.995Z</time></trkpt><trkpt lat="43.99251129413726" lon="12.118856286295705"><ele>372.0</ele><time>2026-04-18T12:01:41.995Z</time></trkpt><trkpt lat="43.99250473098497" lon="12.118979789541067"><ele>372.0</ele><time>2026-04-18T12:01:42.994Z</time></trkpt><trkpt lat="43.99249080976124" lon="12.11910749112379"><ele>372.0</ele><time>2026-04-18T12:01:43.994Z</time></trkpt><trkpt lat="43.992451562353736" lon="12.119239810671573"><ele>372.0</ele><time>2026-04-18T12:01:44.994Z</time></trkpt><trkpt lat="43.99239794531792" lon="12.119370159157851"><ele>372.8</ele><time>2026-04-18T12:01:45.994Z</time></trkpt><trkpt lat="43.99234594597857" lon="12.119489908792406"><ele>373.6</ele><time>2026-04-18T12:01:46.994Z</time></trkpt><trkpt lat="43.992291774917774" lon="12.119605968854128"><ele>374.40000000000003</ele><time>2026-04-18T12:01:47.994Z</time></trkpt><trkpt lat="43.99224509007546" lon="12.11971870560975"><ele>375.20000000000005</ele><time>2026-04-18T12:01:48.994Z</time></trkpt><trkpt lat="43.992190438796214" lon="12.119829031736883"><ele>376.0</ele><time>2026-04-18T12:01:49.994Z</time></trkpt><trkpt lat="43.99213413847323" lon="12.119941039868168"><ele>376.0</ele><time>2026-04-18T12:01:50.994Z</time></trkpt><trkpt lat="43.992075150515" lon="12.12005006278956"><ele>376.0</ele><time>2026-04-18T12:01:51.994Z</time></trkpt><trkpt lat="43.9920180777086" lon="12.120162986532662"><ele>376.0</ele><time>2026-04-18T12:01:52.994Z</time></trkpt><trkpt lat="43.991960116264494" lon="12.120260155080022"><ele>376.0</ele><time>2026-04-18T12:01:53.994Z</time></trkpt><trkpt lat="43.99189581793405" lon="12.120339699280892"><ele>376.0</ele><time>2026-04-18T12:01:54.994Z</time></trkpt><trkpt lat="43.9918243164153" lon="12.120409424534031"><ele>376.0</ele><time>2026-04-18T12:01:55.994Z</time></trkpt><trkpt lat="43.99174817617395" lon="12.120464163249055"><ele>376.0</ele><time>2026-04-18T12:01:56.994Z</time></trkpt><trkpt lat="43.991660823050225" lon="12.120507052198823"><ele>376.0</ele><time>2026-04-18T12:01:57.994Z</time></trkpt><trkpt lat="43.99156839765092" lon="12.120530889131395"><ele>376.0</ele><time>2026-04-18T12:01:58.994Z</time></trkpt><trkpt lat="43.99146832236888" lon="12.120538004742283"><ele>376.0</ele><time>2026-04-18T12:01:59.994Z</time></trkpt><trkpt lat="43.99135914718539" lon="12.120546988962843"><ele>380.20000000000005</ele><time>2026-04-18T12:02:00.994Z</time></trkpt><trkpt lat="43.991251237484065" lon="12.12055341916536"><ele>384.40000000000003</ele><time>2026-04-18T12:02:01.994Z</time></trkpt><trkpt lat="43.991141193365515" lon="12.120569289361871"><ele>388.6</ele><time>2026-04-18T12:02:02.994Z</time></trkpt><trkpt lat="43.99104026930705" lon="12.120593364391004"><ele>392.8</ele><time>2026-04-18T12:02:03.994Z</time></trkpt><trkpt lat="43.99095408116179" lon="12.120633290107987"><ele>397.0</ele><time>2026-04-18T12:02:04.994Z</time></trkpt><trkpt lat="43.99089845813109" lon="12.120706235659007"><ele>395.6</ele><time>2026-04-18T12:02:05.994Z</time></trkpt><trkpt lat="43.990858010506905" lon="12.120809100714895"><ele>394.20000000000005</ele><time>2026-04-18T12:02:06.994Z</time></trkpt><trkpt lat="43.990841360948686" lon="12.120925654510472"><ele>392.8</ele><time>2026-04-18T12:02:07.994Z</time></trkpt><trkpt lat="43.99084560530018" lon="12.121064094122772"><ele>391.4</ele><time>2026-04-18T12:02:08.994Z</time></trkpt><trkpt lat="43.99087075513757" lon="12.121221084986173"><ele>390.0</ele><time>2026-04-18T12:02:09.994Z</time></trkpt><trkpt lat="43.990901413681264" lon="12.121368870973251"><ele>390.0</ele><time>2026-04-18T12:02:10.994Z</time></trkpt><trkpt lat="43.99093170039296" lon="12.121508123988372"><ele>390.0</ele><time>2026-04-18T12:02:11.994Z</time></trkpt><trkpt lat="43.99096751261203" lon="12.121649604322354"><ele>390.0</ele><time>2026-04-18T12:02:12.994Z</time></trkpt><trkpt lat="43.99100866358286" lon="12.12179437666734"><ele>390.0</ele><time>2026-04-18T12:02:13.994Z</time></trkpt><trkpt lat="43.99105409275891" lon="12.12194247497824"><ele>390.0</ele><time>2026-04-18T12:02:14.994Z</time></trkpt><trkpt lat="43.99108644842169" lon="12.122079418477705"><ele>389.2</ele><time>2026-04-18T12:02:15.994Z</time></trkpt><trkpt lat="43.99111265245105" lon="12.122226228325097"><ele>388.4</ele><time>2026-04-18T12:02:16.994Z</time></trkpt><trkpt lat="43.99114112201815" lon="12.12236663191595"><ele>387.6</ele><time>2026-04-18T12:02:17.994Z</time></trkpt><trkpt lat="43.99116213580454" lon="12.122501719249417"><ele>386.8</ele><time>2026-04-18T12:02:18.994Z</time></trkpt><trkpt lat="43.991173915926055" lon="12.122636035702152"><ele>386.0</ele><time>2026-04-18T12:02:19.994Z</time></trkpt><trkpt lat="43.99118463582624" lon="12.12276026081718"><ele>386.0</ele><time>2026-04-18T12:02:20.994Z</time></trkpt><trkpt lat="43.99118724078915" lon="12.12288613981249"><ele>386.0</ele><time>2026-04-18T12:02:21.994Z</time></trkpt><trkpt lat="43.99117210332227" lon="12.123011395621564"><ele>386.0</ele><time>2026-04-18T12:02:22.994Z</time></trkpt><trkpt lat="43.99114351512336" lon="12.12313136185632"><ele>386.0</ele><time>2026-04-18T12:02:23.994Z</time></trkpt><trkpt lat="43.99109819507337" lon="12.123235127140962"><ele>386.0</ele><time>2026-04-18T12:02:24.994Z</time></trkpt><trkpt lat="43.9910340868733" lon="12.123324971273744"><ele>387.0</ele><time>2026-04-18T12:02:25.994Z</time></trkpt><trkpt lat="43.99095858802607" lon="12.123402500261745"><ele>388.0</ele><time>2026-04-18T12:02:26.994Z</time></trkpt><trkpt lat="43.990882238049885" lon="12.123477059671595"><ele>389.0</ele><time>2026-04-18T12:02:27.994Z</time></trkpt><trkpt lat="43.99079518660821" lon="12.123534521590194"><ele>390.0</ele><time>2026-04-18T12:02:28.994Z</time></trkpt><trkpt lat="43.990710629221695" lon="12.123590527807087"><ele>391.0</ele><time>2026-04-18T12:02:29.994Z</time></trkpt><trkpt lat="43.99062823383119" lon="12.123640507552368"><ele>396.83333333333337</ele><time>2026-04-18T12:02:30.994Z</time></trkpt><trkpt lat="43.990547987573265" lon="12.123684516781477"><ele>402.6666666666667</ele><time>2026-04-18T12:02:31.994Z</time></trkpt><trkpt lat="43.99046842618242" lon="12.123703673806117"><ele>408.5</ele><time>2026-04-18T12:02:32.994Z</time></trkpt><trkpt lat="43.990381533432334" lon="12.123703914980656"><ele>414.33333333333337</ele><time>2026-04-18T12:02:33.994Z</time></trkpt><trkpt lat="43.990304222933716" lon="12.123677457198204"><ele>420.1666666666667</ele><time>2026-04-18T12:02:34.994Z</time></trkpt><trkpt lat="43.99023238084006" lon="12.123622125697063"><ele>426.0</ele><time>2026-04-18T12:02:35.994Z</time></trkpt><trkpt lat="43.990185032577365" lon="12.123545305953495"><ele>426.0</ele><time>2026-04-18T12:02:36.994Z</time></trkpt><trkpt lat="43.990122396278466" lon="12.123434908393728"><ele>426.0</ele><time>2026-04-18T12:02:37.994Z</time></trkpt><trkpt lat="43.99005902618753" lon="12.12330804932859"><ele>426.0</ele><time>2026-04-18T12:02:38.994Z</time></trkpt><trkpt lat="43.989992101042624" lon="12.123185364968853"><ele>426.0</ele><time>2026-04-18T12:02:39.994Z</time></trkpt><trkpt lat="43.98992471638862" lon="12.12306960141284"><ele>426.0</ele><time>2026-04-18T12:02:40.994Z</time></trkpt><trkpt lat="43.98985171207331" lon="12.122943527923804"><ele>428.0</ele><time>2026-04-18T12:02:41.994Z</time></trkpt><trkpt lat="43.989779198068604" lon="12.12283146963169"><ele>430.0</ele><time>2026-04-18T12:02:42.994Z</time></trkpt><trkpt lat="43.98970964487275" lon="12.122720435989361"><ele>432.0</ele><time>2026-04-18T12:02:43.994Z</time></trkpt><trkpt lat="43.98963422546075" lon="12.122622441580639"><ele>434.0</ele><time>2026-04-18T12:02:44.994Z</time></trkpt><trkpt lat="43.989563116998895" lon="12.122537483245138"><ele>436.0</ele><time>2026-04-18T12:02:45.994Z</time></trkpt><trkpt lat="43.989462325328326" lon="12.122498439470766"><ele>436.0</ele><time>2026-04-18T12:02:46.994Z</time></trkpt><trkpt lat="43.98935927695695" lon="12.122466942384952"><ele>436.0</ele><time>2026-04-18T12:02:47.994Z</time></trkpt><trkpt lat="43.989261677599295" lon="12.122448194757059"><ele>436.0</ele><time>2026-04-18T12:02:48.994Z</time></trkpt><trkpt lat="43.98915362442242" lon="12.122448154348715"><ele>436.0</ele><time>2026-04-18T12:02:49.994Z</time></trkpt><trkpt lat="43.98905965889178" lon="12.12246866948715"><ele>436.0</ele><time>2026-04-18T12:02:50.994Z</time></trkpt><trkpt lat="43.98896762465973" lon="12.122523475665446"><ele>437.0</ele><time>2026-04-18T12:02:51.994Z</time></trkpt><trkpt lat="43.98887843490721" lon="12.12259809744002"><ele>438.0</ele><time>2026-04-18T12:02:52.994Z</time></trkpt><trkpt lat="43.988800864039625" lon="12.12268684605336"><ele>439.0</ele><time>2026-04-18T12:02:53.994Z</time></trkpt><trkpt lat="43.988727535437675" lon="12.12278648822626"><ele>440.0</ele><time>2026-04-18T12:02:54.994Z</time></trkpt><trkpt lat="43.988660222034945" lon="12.122863911647782"><ele>441.0</ele><time>2026-04-18T12:02:55.994Z</time></trkpt><trkpt lat="43.98859086242027" lon="12.122914421258164"><ele>441.0</ele><time>2026-04-18T12:02:56.994Z</time></trkpt><trkpt lat="43.98852236687209" lon="12.122942637344012"><ele>441.0</ele><time>2026-04-18T12:02:57.994Z</time></trkpt><trkpt lat="43.98844922981029" lon="12.122965311909883"><ele>441.0</ele><time>2026-04-18T12:02:58.994Z</time></trkpt><trkpt lat="43.98836366338137" lon="12.123008369144806"><ele>441.0</ele><time>2026-04-18T12:02:59.994Z</time></trkpt><trkpt lat="43.98827820656554" lon="12.123041476602232"><ele>441.0</ele><time>2026-04-18T12:03:00.994Z</time></trkpt><trkpt lat="43.988195203917186" lon="12.123080321614777"><ele>441.0</ele><time>2026-04-18T12:03:01.994Z</time></trkpt><trkpt lat="43.98811244678498" lon="12.12313512586352"><ele>440.20000000000005</ele><time>2026-04-18T12:03:02.994Z</time></trkpt><trkpt lat="43.98802975123854" lon="12.123208638002026"><ele>439.40000000000003</ele><time>2026-04-18T12:03:03.994Z</time></trkpt><trkpt lat="43.98795040319888" lon="12.123298974602099"><ele>438.6</ele><time>2026-04-18T12:03:04.994Z</time></trkpt><trkpt lat="43.987879118488664" lon="12.12339104910818"><ele>437.8</ele><time>2026-04-18T12:03:05.994Z</time></trkpt><trkpt lat="43.98780864730953" lon="12.12347584944055"><ele>437.0</ele><time>2026-04-18T12:03:06.994Z</time></trkpt><trkpt lat="43.98774132109718" lon="12.123552304477116"><ele>437.0</ele><time>2026-04-18T12:03:07.994Z</time></trkpt><trkpt lat="43.98768536263425" lon="12.123613928985401"><ele>437.00000000000006</ele><time>2026-04-18T12:03:08.994Z</time></trkpt><trkpt lat="43.98762538099721" lon="12.12366276538513"><ele>437.00000000000006</ele><time>2026-04-18T12:03:09.994Z</time></trkpt><trkpt lat="43.98749427290048" lon="12.123692948210142"><ele>437.0</ele><time>2026-04-18T12:03:11.994Z</time></trkpt><trkpt lat="43.987398426610724" lon="12.12366116982798"><ele>437.0</ele><time>2026-04-18T12:03:12.994Z</time></trkpt><trkpt lat="43.98730590141514" lon="12.123629891170724"><ele>440.99999999999994</ele><time>2026-04-18T12:03:13.993Z</time></trkpt><trkpt lat="43.987207116665566" lon="12.123609990206365"><ele>445.0</ele><time>2026-04-18T12:03:14.993Z</time></trkpt><trkpt lat="43.9871167335439" lon="12.123578425231893"><ele>449.0</ele><time>2026-04-18T12:03:15.993Z</time></trkpt><trkpt lat="43.98703636724645" lon="12.123530793347696"><ele>453.0</ele><time>2026-04-18T12:03:16.993Z</time></trkpt><trkpt lat="43.98697178101257" lon="12.123469830109212"><ele>456.99999999999994</ele><time>2026-04-18T12:03:17.993Z</time></trkpt><trkpt lat="43.986921015803276" lon="12.123369980714527"><ele>461.0</ele><time>2026-04-18T12:03:18.993Z</time></trkpt><trkpt lat="43.98687621301265" lon="12.1232673007406"><ele>461.49999999999994</ele><time>2026-04-18T12:03:19.993Z</time></trkpt><trkpt lat="43.9868254603942" lon="12.123167839074888"><ele>462.0</ele><time>2026-04-18T12:03:20.993Z</time></trkpt><trkpt lat="43.9867722455473" lon="12.123075300598186"><ele>462.5</ele><time>2026-04-18T12:03:21.993Z</time></trkpt><trkpt lat="43.98671063662142" lon="12.123001647325358"><ele>463.0</ele><time>2026-04-18T12:03:22.993Z</time></trkpt><trkpt lat="43.9866362376176" lon="12.122950463814611"><ele>463.49999999999994</ele><time>2026-04-18T12:03:23.993Z</time></trkpt><trkpt lat="43.98655042756673" lon="12.122915498594388"><ele>464.0</ele><time>2026-04-18T12:03:24.993Z</time></trkpt><trkpt lat="43.986464149246686" lon="12.122920572024745"><ele>466.16666666666663</ele><time>2026-04-18T12:03:25.993Z</time></trkpt><trkpt lat="43.986379576389595" lon="12.122949139777251"><ele>468.3333333333333</ele><time>2026-04-18T12:03:26.993Z</time></trkpt><trkpt lat="43.98630051408333" lon="12.122983173098403"><ele>470.5</ele><time>2026-04-18T12:03:27.993Z</time></trkpt><trkpt lat="43.986220896023156" lon="12.12300655147638"><ele>472.66666666666663</ele><time>2026-04-18T12:03:28.993Z</time></trkpt><trkpt lat="43.986149389345954" lon="12.123022989467136"><ele>474.8333333333333</ele><time>2026-04-18T12:03:29.993Z</time></trkpt><trkpt lat="43.98602916237799" lon="12.123069756476877"><ele>477.0</ele><time>2026-04-18T12:03:31.993Z</time></trkpt><trkpt lat="43.98597457438434" lon="12.123133704691755"><ele>477.0</ele><time>2026-04-18T12:03:32.993Z</time></trkpt><trkpt lat="43.98591140856383" lon="12.123207715010643"><ele>477.0</ele><time>2026-04-18T12:03:33.993Z</time></trkpt><trkpt lat="43.98585899519512" lon="12.123283869195317"><ele>477.0</ele><time>2026-04-18T12:03:34.993Z</time></trkpt><trkpt lat="43.9858043252307" lon="12.123345332560955"><ele>477.0</ele><time>2026-04-18T12:03:35.993Z</time></trkpt><trkpt lat="43.9857422089037" lon="12.123393986587814"><ele>477.0</ele><time>2026-04-18T12:03:36.993Z</time></trkpt><trkpt lat="43.98566788179971" lon="12.123392732072682"><ele>477.0</ele><time>2026-04-18T12:03:37.993Z</time></trkpt><trkpt lat="43.98558331840098" lon="12.123348482880187"><ele>473.5</ele><time>2026-04-18T12:03:38.993Z</time></trkpt><trkpt lat="43.98549505921429" lon="12.123264920755432"><ele>470.0</ele><time>2026-04-18T12:03:39.993Z</time></trkpt><trkpt lat="43.98538646838924" lon="12.123199810779381"><ele>466.5</ele><time>2026-04-18T12:03:40.993Z</time></trkpt><trkpt lat="43.98527843937366" lon="12.123141726289157"><ele>463.0</ele><time>2026-04-18T12:03:41.993Z</time></trkpt><trkpt lat="43.98517980386423" lon="12.123076849768072"><ele>465.25</ele><time>2026-04-18T12:03:42.993Z</time></trkpt><trkpt lat="43.98508989292859" lon="12.12299080754283"><ele>467.5</ele><time>2026-04-18T12:03:43.993Z</time></trkpt><trkpt lat="43.98500326647771" lon="12.122888261095836"><ele>469.75</ele><time>2026-04-18T12:03:44.993Z</time></trkpt><trkpt lat="43.984930809648226" lon="12.122766895471488"><ele>472.0</ele><time>2026-04-18T12:03:45.993Z</time></trkpt><trkpt lat="43.98486600024186" lon="12.122636642187729"><ele>472.0</ele><time>2026-04-18T12:03:46.993Z</time></trkpt><trkpt lat="43.98480974326651" lon="12.122513732824904"><ele>472.00000000000006</ele><time>2026-04-18T12:03:47.993Z</time></trkpt><trkpt lat="43.984746279934576" lon="12.122417100491349"><ele>472.00000000000006</ele><time>2026-04-18T12:03:48.993Z</time></trkpt><trkpt lat="43.98465933861791" lon="12.122356658522587"><ele>472.0</ele><time>2026-04-18T12:03:49.993Z</time></trkpt><trkpt lat="43.984560590538564" lon="12.122322453525824"><ele>472.0</ele><time>2026-04-18T12:03:50.993Z</time></trkpt><trkpt lat="43.9844704177933" lon="12.122316605931584"><ele>472.0</ele><time>2026-04-18T12:03:51.993Z</time></trkpt><trkpt lat="43.98439199103481" lon="12.12236368913877"><ele>472.00000000000006</ele><time>2026-04-18T12:03:52.993Z</time></trkpt><trkpt lat="43.98430487916996" lon="12.122438964722349"><ele>472.00000000000006</ele><time>2026-04-18T12:03:53.993Z</time></trkpt><trkpt lat="43.98421612134245" lon="12.122540821073864"><ele>472.0</ele><time>2026-04-18T12:03:54.993Z</time></trkpt><trkpt lat="43.98412291061072" lon="12.12264696780659"><ele>472.0</ele><time>2026-04-18T12:03:55.993Z</time></trkpt><trkpt lat="43.98403111457174" lon="12.122736559936103"><ele>472.75</ele><time>2026-04-18T12:03:56.993Z</time></trkpt><trkpt lat="43.983935825741106" lon="12.122819146654093"><ele>473.5</ele><time>2026-04-18T12:03:57.993Z</time></trkpt><trkpt lat="43.98383489587107" lon="12.122883138582377"><ele>474.25</ele><time>2026-04-18T12:03:58.993Z</time></trkpt><trkpt lat="43.98372335055694" lon="12.122935712835854"><ele>475.0</ele><time>2026-04-18T12:03:59.993Z</time></trkpt><trkpt lat="43.98360294648757" lon="12.12298339933153"><ele>475.0</ele><time>2026-04-18T12:04:00.993Z</time></trkpt><trkpt lat="43.98347964176038" lon="12.123029594523707"><ele>475.0</ele><time>2026-04-18T12:04:01.993Z</time></trkpt><trkpt lat="43.98335953346835" lon="12.123071190133627"><ele>475.0</ele><time>2026-04-18T12:04:02.993Z</time></trkpt><trkpt lat="43.98324594111314" lon="12.123105088887138"><ele>475.0</ele><time>2026-04-18T12:04:03.993Z</time></trkpt><trkpt lat="43.983135728944546" lon="12.123135545688966"><ele>475.25</ele><time>2026-04-18T12:04:04.993Z</time></trkpt><trkpt lat="43.98302563709493" lon="12.123173834847716"><ele>475.5</ele><time>2026-04-18T12:04:05.993Z</time></trkpt><trkpt lat="43.98291330761142" lon="12.123215445739822"><ele>475.75</ele><time>2026-04-18T12:04:06.993Z</time></trkpt><trkpt lat="43.98279878153935" lon="12.123258133594264"><ele>476.0</ele><time>2026-04-18T12:04:07.993Z</time></trkpt><trkpt lat="43.98268205259994" lon="12.123299403610757"><ele>476.0</ele><time>2026-04-18T12:04:08.993Z</time></trkpt><trkpt lat="43.98256206353679" lon="12.123336945883477"><ele>476.0</ele><time>2026-04-18T12:04:09.993Z</time></trkpt><trkpt lat="43.98244042729566" lon="12.123378008120003"><ele>476.0</ele><time>2026-04-18T12:04:10.993Z</time></trkpt><trkpt lat="43.98232095929736" lon="12.123419751231049"><ele>476.0</ele><time>2026-04-18T12:04:11.993Z</time></trkpt><trkpt lat="43.98220944469602" lon="12.123467582580735"><ele>478.25</ele><time>2026-04-18T12:04:12.993Z</time></trkpt><trkpt lat="43.982094560695124" lon="12.1235168650616"><ele>480.5</ele><time>2026-04-18T12:04:13.993Z</time></trkpt><trkpt lat="43.98197686790875" lon="12.12356958592908"><ele>482.75</ele><time>2026-04-18T12:04:14.993Z</time></trkpt><trkpt lat="43.98186314492973" lon="12.123626907650857"><ele>485.0</ele><time>2026-04-18T12:04:15.993Z</time></trkpt><trkpt lat="43.98175213945906" lon="12.123681364320925"><ele>487.5</ele><time>2026-04-18T12:04:16.993Z</time></trkpt><trkpt lat="43.98164814080504" lon="12.123738438631737"><ele>490.0</ele><time>2026-04-18T12:04:17.993Z</time></trkpt><trkpt lat="43.98154209287133" lon="12.123793196594143"><ele>492.5</ele><time>2026-04-18T12:04:18.993Z</time></trkpt><trkpt lat="43.98143621434645" lon="12.123853467806635"><ele>495.0</ele><time>2026-04-18T12:04:19.993Z</time></trkpt><trkpt lat="43.98133130741627" lon="12.123926070890457"><ele>495.0</ele><time>2026-04-18T12:04:20.993Z</time></trkpt><trkpt lat="43.98122471650459" lon="12.12401624546565"><ele>495.0</ele><time>2026-04-18T12:04:21.993Z</time></trkpt><trkpt lat="43.98112445568705" lon="12.12412408308378"><ele>495.0</ele><time>2026-04-18T12:04:22.993Z</time></trkpt><trkpt lat="43.98103087347502" lon="12.124221803481516"><ele>495.0</ele><time>2026-04-18T12:04:23.993Z</time></trkpt><trkpt lat="43.980942841055246" lon="12.124307280950287"><ele>494.0</ele><time>2026-04-18T12:04:24.993Z</time></trkpt><trkpt lat="43.98084811715365" lon="12.12439587357575"><ele>493.0</ele><time>2026-04-18T12:04:25.993Z</time></trkpt><trkpt lat="43.98076638588424" lon="12.124490223556359"><ele>492.0</ele><time>2026-04-18T12:04:26.993Z</time></trkpt><trkpt lat="43.98070535059454" lon="12.124616040579706"><ele>491.0</ele><time>2026-04-18T12:04:27.993Z</time></trkpt><trkpt lat="43.98066173102725" lon="12.124773460173287"><ele>490.0</ele><time>2026-04-18T12:04:28.993Z</time></trkpt><trkpt lat="43.980624406242455" lon="12.124919431364345"><ele>489.0</ele><time>2026-04-18T12:04:29.993Z</time></trkpt><trkpt lat="43.98058143263836" lon="12.125057039290548"><ele>488.0</ele><time>2026-04-18T12:04:30.993Z</time></trkpt><trkpt lat="43.980528987176356" lon="12.125195059154358"><ele>487.0</ele><time>2026-04-18T12:04:31.993Z</time></trkpt><trkpt lat="43.980455246785155" lon="12.12535519404362"><ele>487.0</ele><time>2026-04-18T12:04:32.993Z</time></trkpt><trkpt lat="43.980384659065614" lon="12.125500993996706"><ele>487.0</ele><time>2026-04-18T12:04:33.993Z</time></trkpt><trkpt lat="43.980306705794206" lon="12.125645679510399"><ele>487.0</ele><time>2026-04-18T12:04:34.993Z</time></trkpt><trkpt lat="43.980245739127064" lon="12.125773712923937"><ele>487.0</ele><time>2026-04-18T12:04:35.993Z</time></trkpt><trkpt lat="43.98018020923337" lon="12.125898002345036"><ele>486.0</ele><time>2026-04-18T12:04:36.993Z</time></trkpt><trkpt lat="43.980112653499745" lon="12.126026453116284"><ele>485.00000000000006</ele><time>2026-04-18T12:04:37.993Z</time></trkpt><trkpt lat="43.980047618716625" lon="12.126147973329715"><ele>484.00000000000006</ele><time>2026-04-18T12:04:38.993Z</time></trkpt><trkpt lat="43.97997440927578" lon="12.126269501739985"><ele>483.0</ele><time>2026-04-18T12:04:39.993Z</time></trkpt><trkpt lat="43.97989945373456" lon="12.126383623456121"><ele>482.0</ele><time>2026-04-18T12:04:40.993Z</time></trkpt><trkpt lat="43.979824021926696" lon="12.126491820709687"><ele>484.8</ele><time>2026-04-18T12:04:41.993Z</time></trkpt><trkpt lat="43.979747415523256" lon="12.126599694604433"><ele>487.6</ele><time>2026-04-18T12:04:42.993Z</time></trkpt><trkpt lat="43.97966756692758" lon="12.126706256839874"><ele>490.40000000000003</ele><time>2026-04-18T12:04:43.992Z</time></trkpt><trkpt lat="43.979590041074076" lon="12.126814638056002"><ele>493.20000000000005</ele><time>2026-04-18T12:04:44.992Z</time></trkpt><trkpt lat="43.97951260645014" lon="12.126918790353796"><ele>496.0</ele><time>2026-04-18T12:04:45.992Z</time></trkpt><trkpt lat="43.9794391736122" lon="12.127013839010921"><ele>496.0</ele><time>2026-04-18T12:04:46.992Z</time></trkpt><trkpt lat="43.9793628373561" lon="12.127108243993892"><ele>496.0</ele><time>2026-04-18T12:04:47.992Z</time></trkpt><trkpt lat="43.979283578290584" lon="12.127183895475968"><ele>496.0</ele><time>2026-04-18T12:04:48.992Z</time></trkpt><trkpt lat="43.97918635531264" lon="12.12724372549354"><ele>496.0</ele><time>2026-04-18T12:04:49.992Z</time></trkpt><trkpt lat="43.97907492905295" lon="12.127287107253146"><ele>496.0</ele><time>2026-04-18T12:04:50.992Z</time></trkpt><trkpt lat="43.97895353575127" lon="12.127302098442936"><ele>497.75</ele><time>2026-04-18T12:04:51.992Z</time></trkpt><trkpt lat="43.978839591831644" lon="12.127309445890791"><ele>499.5</ele><time>2026-04-18T12:04:52.992Z</time></trkpt><trkpt lat="43.97872256143117" lon="12.127303378076492"><ele>501.25</ele><time>2026-04-18T12:04:53.992Z</time></trkpt><trkpt lat="43.978607540629" lon="12.127298771248626"><ele>503.0</ele><time>2026-04-18T12:04:54.992Z</time></trkpt><trkpt lat="43.978493375241456" lon="12.127299058038657"><ele>503.0</ele><time>2026-04-18T12:04:55.992Z</time></trkpt><trkpt lat="43.97838250558073" lon="12.12731068821908"><ele>502.99999999999994</ele><time>2026-04-18T12:04:56.992Z</time></trkpt><trkpt lat="43.97828444944001" lon="12.127331690524375"><ele>502.99999999999994</ele><time>2026-04-18T12:04:57.992Z</time></trkpt><trkpt lat="43.97819181124495" lon="12.127347571045247"><ele>503.0</ele><time>2026-04-18T12:04:58.992Z</time></trkpt><trkpt lat="43.97810164488013" lon="12.127350983383673"><ele>503.0</ele><time>2026-04-18T12:04:59.992Z</time></trkpt><trkpt lat="43.978006699429145" lon="12.127319586716412"><ele>500.79999999999995</ele><time>2026-04-18T12:05:00.992Z</time></trkpt><trkpt lat="43.977918754144596" lon="12.127256051101034"><ele>498.59999999999997</ele><time>2026-04-18T12:05:01.992Z</time></trkpt><trkpt lat="43.977832799833344" lon="12.12717910553898"><ele>496.40000000000003</ele><time>2026-04-18T12:05:02.992Z</time></trkpt><trkpt lat="43.97774608146741" lon="12.127091500189383"><ele>494.20000000000005</ele><time>2026-04-18T12:05:03.992Z</time></trkpt><trkpt lat="43.977675750683744" lon="12.127002837338935"><ele>492.0</ele><time>2026-04-18T12:05:04.992Z</time></trkpt><trkpt lat="43.97761120927673" lon="12.126925948948978"><ele>492.0</ele><time>2026-04-18T12:05:05.992Z</time></trkpt><trkpt lat="43.97754071179059" lon="12.126866940555072"><ele>492.00000000000006</ele><time>2026-04-18T12:05:06.992Z</time></trkpt><trkpt lat="43.97745807862604" lon="12.126820653939477"><ele>492.00000000000006</ele><time>2026-04-18T12:05:07.992Z</time></trkpt><trkpt lat="43.977368726292234" lon="12.126810209640734"><ele>492.0</ele><time>2026-04-18T12:05:08.992Z</time></trkpt><trkpt lat="43.97727991799248" lon="12.12682224596722"><ele>492.0</ele><time>2026-04-18T12:05:09.992Z</time></trkpt><trkpt lat="43.97717971946428" lon="12.126867216760635"><ele>495.5</ele><time>2026-04-18T12:05:10.992Z</time></trkpt><trkpt lat="43.9770778788657" lon="12.126941051355796"><ele>499.0</ele><time>2026-04-18T12:05:11.992Z</time></trkpt><trkpt lat="43.97697356073768" lon="12.127014698553712"><ele>502.5</ele><time>2026-04-18T12:05:12.992Z</time></trkpt><trkpt lat="43.97687037219228" lon="12.12709317750931"><ele>506.0</ele><time>2026-04-18T12:05:13.992Z</time></trkpt><trkpt lat="43.97677307344073" lon="12.12717426016442"><ele>506.8</ele><time>2026-04-18T12:05:14.992Z</time></trkpt><trkpt lat="43.97667317144294" lon="12.127245408457613"><ele>507.6</ele><time>2026-04-18T12:05:15.992Z</time></trkpt><trkpt lat="43.97657818759666" lon="12.12732160781926"><ele>508.4</ele><time>2026-04-18T12:05:16.992Z</time></trkpt><trkpt lat="43.97649541015669" lon="12.127388812489562"><ele>509.2</ele><time>2026-04-18T12:05:17.992Z</time></trkpt><trkpt lat="43.97641382025995" lon="12.12744576409731"><ele>510.0</ele><time>2026-04-18T12:05:18.992Z</time></trkpt><trkpt lat="43.97634388576835" lon="12.127522336857275"><ele>512.6</ele><time>2026-04-18T12:05:19.992Z</time></trkpt><trkpt lat="43.97628721858218" lon="12.12761790884093"><ele>515.2</ele><time>2026-04-18T12:05:20.992Z</time></trkpt><trkpt lat="43.97624684630215" lon="12.127724131003152"><ele>517.8</ele><time>2026-04-18T12:05:21.992Z</time></trkpt><trkpt lat="43.976227972798945" lon="12.127841513987557"><ele>520.4</ele><time>2026-04-18T12:05:22.992Z</time></trkpt><trkpt lat="43.97623193821368" lon="12.127975031047399"><ele>523.0</ele><time>2026-04-18T12:05:23.992Z</time></trkpt><trkpt lat="43.97624877309191" lon="12.12810254655336"><ele>526.1999999999999</ele><time>2026-04-18T12:05:24.992Z</time></trkpt><trkpt lat="43.97626013264013" lon="12.12823193300638"><ele>529.4</ele><time>2026-04-18T12:05:25.992Z</time></trkpt><trkpt lat="43.97624865453053" lon="12.128371457453813"><ele>532.5999999999999</ele><time>2026-04-18T12:05:26.992Z</time></trkpt><trkpt lat="43.97620636541002" lon="12.12849226505718"><ele>535.8</ele><time>2026-04-18T12:05:27.992Z</time></trkpt><trkpt lat="43.97614217404829" lon="12.128599774420914"><ele>539.0</ele><time>2026-04-18T12:05:28.992Z</time></trkpt><trkpt lat="43.97605952761837" lon="12.128693754768175"><ele>539.0</ele><time>2026-04-18T12:05:29.992Z</time></trkpt><trkpt lat="43.975983892399576" lon="12.12878047575165"><ele>539.0</ele><time>2026-04-18T12:05:30.992Z</time></trkpt><trkpt lat="43.97591993834538" lon="12.128867445047428"><ele>539.0</ele><time>2026-04-18T12:05:31.992Z</time></trkpt><trkpt lat="43.97585901589294" lon="12.128952212779767"><ele>539.0</ele><time>2026-04-18T12:05:32.992Z</time></trkpt><trkpt lat="43.97582228422558" lon="12.129031667745847"><ele>539.0</ele><time>2026-04-18T12:05:33.992Z</time></trkpt><trkpt lat="43.97579877080128" lon="12.129144008625074"><ele>539.0</ele><time>2026-04-18T12:05:34.992Z</time></trkpt><trkpt lat="43.97579767753957" lon="12.129261720477313"><ele>540.4</ele><time>2026-04-18T12:05:35.992Z</time></trkpt><trkpt lat="43.97582723759976" lon="12.12938199283071"><ele>541.8</ele><time>2026-04-18T12:05:36.992Z</time></trkpt><trkpt lat="43.9758742088309" lon="12.129493819165099"><ele>543.2</ele><time>2026-04-18T12:05:37.992Z</time></trkpt><trkpt lat="43.97593611442757" lon="12.12960929159345"><ele>544.6</ele><time>2026-04-18T12:05:38.992Z</time></trkpt><trkpt lat="43.976003717517116" lon="12.129730853243561"><ele>546.0</ele><time>2026-04-18T12:05:39.992Z</time></trkpt><trkpt lat="43.976072492452246" lon="12.12986512613229"><ele>544.8</ele><time>2026-04-18T12:05:40.992Z</time></trkpt><trkpt lat="43.97613836283296" lon="12.129989723630132"><ele>543.6</ele><time>2026-04-18T12:05:41.992Z</time></trkpt><trkpt lat="43.97620448987021" lon="12.130105650932864"><ele>542.4</ele><time>2026-04-18T12:05:42.992Z</time></trkpt><trkpt lat="43.976265330066795" lon="12.130216264536408"><ele>541.2</ele><time>2026-04-18T12:05:43.992Z</time></trkpt><trkpt lat="43.976322561884764" lon="12.130322789289488"><ele>540.0</ele><time>2026-04-18T12:05:44.992Z</time></trkpt><trkpt lat="43.976369268474905" lon="12.130427007680343"><ele>540.0</ele><time>2026-04-18T12:05:45.992Z</time></trkpt><trkpt lat="43.97640175633398" lon="12.13054159423182"><ele>540.0</ele><time>2026-04-18T12:05:46.992Z</time></trkpt><trkpt lat="43.976424486021976" lon="12.130661238640812"><ele>540.0</ele><time>2026-04-18T12:05:47.992Z</time></trkpt><trkpt lat="43.97642329139345" lon="12.130799344898545"><ele>540.0</ele><time>2026-04-18T12:05:48.992Z</time></trkpt><trkpt lat="43.97640107877163" lon="12.130945891813216"><ele>540.0</ele><time>2026-04-18T12:05:49.992Z</time></trkpt><trkpt lat="43.97635995340503" lon="12.131081712528498"><ele>539.6</ele><time>2026-04-18T12:05:50.992Z</time></trkpt><trkpt lat="43.976294756096316" lon="12.131201353015452"><ele>539.2</ele><time>2026-04-18T12:05:51.992Z</time></trkpt><trkpt lat="43.97620919811715" lon="12.131292368617546"><ele>538.8</ele><time>2026-04-18T12:05:52.992Z</time></trkpt><trkpt lat="43.976112517230575" lon="12.13135493986761"><ele>538.4</ele><time>2026-04-18T12:05:53.992Z</time></trkpt><trkpt lat="43.97600190911971" lon="12.131405168425117"><ele>538.0</ele><time>2026-04-18T12:05:54.992Z</time></trkpt><trkpt lat="43.975895039580536" lon="12.131453442348104"><ele>538.1999999999999</ele><time>2026-04-18T12:05:55.992Z</time></trkpt><trkpt lat="43.975791888173546" lon="12.13152080287458"><ele>538.4</ele><time>2026-04-18T12:05:56.992Z</time></trkpt><trkpt lat="43.97570602224186" lon="12.131596583182453"><ele>538.5999999999999</ele><time>2026-04-18T12:05:57.992Z</time></trkpt><trkpt lat="43.97562921424895" lon="12.131685056732026"><ele>538.8</ele><time>2026-04-18T12:05:58.992Z</time></trkpt><trkpt lat="43.975575338607364" lon="12.131776843875244"><ele>539.0</ele><time>2026-04-18T12:05:59.992Z</time></trkpt><trkpt lat="43.9755442022084" lon="12.131870945194706"><ele>539.0</ele><time>2026-04-18T12:06:00.992Z</time></trkpt><trkpt lat="43.9755445849606" lon="12.131972980456437"><ele>539.0</ele><time>2026-04-18T12:06:01.992Z</time></trkpt><trkpt lat="43.97557662425912" lon="12.1320710464013"><ele>539.0</ele><time>2026-04-18T12:06:02.992Z</time></trkpt><trkpt lat="43.97563817491544" lon="12.132152883534449"><ele>539.0</ele><time>2026-04-18T12:06:03.992Z</time></trkpt><trkpt lat="43.97572774186864" lon="12.132228725305914"><ele>539.0</ele><time>2026-04-18T12:06:04.992Z</time></trkpt><trkpt lat="43.975827386930796" lon="12.132295409321697"><ele>539.25</ele><time>2026-04-18T12:06:05.992Z</time></trkpt><trkpt lat="43.975934241660056" lon="12.132372724797461"><ele>539.5</ele><time>2026-04-18T12:06:06.992Z</time></trkpt><trkpt lat="43.97603847823686" lon="12.132456143553403"><ele>539.75</ele><time>2026-04-18T12:06:07.992Z</time></trkpt><trkpt lat="43.976139506831615" lon="12.13253172597806"><ele>540.0</ele><time>2026-04-18T12:06:08.992Z</time></trkpt><trkpt lat="43.97623921367063" lon="12.132604450011586"><ele>540.0</ele><time>2026-04-18T12:06:09.992Z</time></trkpt><trkpt lat="43.976332709241305" lon="12.132678477380383"><ele>540.0</ele><time>2026-04-18T12:06:10.992Z</time></trkpt><trkpt lat="43.97642364910927" lon="12.132752277031116"><ele>540.0</ele><time>2026-04-18T12:06:11.992Z</time></trkpt><trkpt lat="43.9765166851251" lon="12.132821774761931"><ele>540.0</ele><time>2026-04-18T12:06:12.992Z</time></trkpt><trkpt lat="43.97660204982811" lon="12.132900007710868"><ele>540.0</ele><time>2026-04-18T12:06:13.991Z</time></trkpt><trkpt lat="43.97666238653299" lon="12.13299825884255"><ele>538.6</ele><time>2026-04-18T12:06:14.991Z</time></trkpt><trkpt lat="43.97670116031108" lon="12.133124296193422"><ele>537.2</ele><time>2026-04-18T12:06:15.991Z</time></trkpt><trkpt lat="43.9767240734591" lon="12.133268000839118"><ele>535.8</ele><time>2026-04-18T12:06:16.991Z</time></trkpt><trkpt lat="43.9767183847136" lon="12.133420950514864"><ele>534.4</ele><time>2026-04-18T12:06:17.991Z</time></trkpt><trkpt lat="43.976705506977225" lon="12.133578300041282"><ele>533.0</ele><time>2026-04-18T12:06:18.991Z</time></trkpt><trkpt lat="43.97668432401322" lon="12.133721310242207"><ele>533.0</ele><time>2026-04-18T12:06:19.991Z</time></trkpt><trkpt lat="43.976651407147095" lon="12.13384146714117"><ele>533.0</ele><time>2026-04-18T12:06:20.991Z</time></trkpt><trkpt lat="43.97658525387204" lon="12.133935407479857"><ele>533.0</ele><time>2026-04-18T12:06:21.991Z</time></trkpt><trkpt lat="43.97649863718679" lon="12.133993304170088"><ele>533.0</ele><time>2026-04-18T12:06:22.991Z</time></trkpt><trkpt lat="43.97640132679017" lon="12.134030410009517"><ele>533.0</ele><time>2026-04-18T12:06:23.991Z</time></trkpt><trkpt lat="43.97629509793617" lon="12.13407039473391"><ele>534.5</ele><time>2026-04-18T12:06:24.991Z</time></trkpt><trkpt lat="43.97620365404716" lon="12.134103829775071"><ele>536.0</ele><time>2026-04-18T12:06:25.991Z</time></trkpt><trkpt lat="43.976124072608314" lon="12.134138288107584"><ele>537.5</ele><time>2026-04-18T12:06:26.991Z</time></trkpt><trkpt lat="43.976068817845814" lon="12.134195594071764"><ele>539.0</ele><time>2026-04-18T12:06:27.991Z</time></trkpt><trkpt lat="43.97603139211172" lon="12.134267346326627"><ele>540.5</ele><time>2026-04-18T12:06:28.991Z</time></trkpt><trkpt lat="43.97603928317384" lon="12.134433365953036"><ele>542.0</ele><time>2026-04-18T12:06:30.991Z</time></trkpt><trkpt lat="43.97608294850039" lon="12.134537460622804"><ele>542.0</ele><time>2026-04-18T12:06:31.991Z</time></trkpt><trkpt lat="43.97613719376842" lon="12.134642536051826"><ele>542.0</ele><time>2026-04-18T12:06:32.991Z</time></trkpt><trkpt lat="43.976195092046176" lon="12.13475633039172"><ele>542.0</ele><time>2026-04-18T12:06:33.991Z</time></trkpt><trkpt lat="43.97625485777727" lon="12.134864649578414"><ele>542.0</ele><time>2026-04-18T12:06:34.991Z</time></trkpt><trkpt lat="43.976314475516766" lon="12.13497974548326"><ele>542.0</ele><time>2026-04-18T12:06:35.991Z</time></trkpt><trkpt lat="43.976384185289824" lon="12.13511584771746"><ele>543.4</ele><time>2026-04-18T12:06:36.991Z</time></trkpt><trkpt lat="43.97644881944599" lon="12.135255011652237"><ele>544.8000000000001</ele><time>2026-04-18T12:06:37.991Z</time></trkpt><trkpt lat="43.97651454207701" lon="12.135390176527592"><ele>546.2</ele><time>2026-04-18T12:06:38.991Z</time></trkpt><trkpt lat="43.97656931725807" lon="12.135510738580827"><ele>547.6</ele><time>2026-04-18T12:06:39.991Z</time></trkpt><trkpt lat="43.97662737814703" lon="12.135626485030585"><ele>549.0</ele><time>2026-04-18T12:06:40.991Z</time></trkpt><trkpt lat="43.97667970217809" lon="12.13573678273357"><ele>546.0</ele><time>2026-04-18T12:06:41.991Z</time></trkpt><trkpt lat="43.976732212520226" lon="12.135843701046346"><ele>543.0</ele><time>2026-04-18T12:06:42.991Z</time></trkpt><trkpt lat="43.97678482250527" lon="12.135953170017775"><ele>540.0</ele><time>2026-04-18T12:06:43.991Z</time></trkpt><trkpt lat="43.97684523317423" lon="12.136065394443866"><ele>537.0</ele><time>2026-04-18T12:06:44.991Z</time></trkpt><trkpt lat="43.9768938414935" lon="12.136173773361419"><ele>534.0</ele><time>2026-04-18T12:06:45.991Z</time></trkpt><trkpt lat="43.9769288770167" lon="12.136277115775352"><ele>534.0</ele><time>2026-04-18T12:06:46.991Z</time></trkpt><trkpt lat="43.97696404604374" lon="12.136389945612212"><ele>534.0</ele><time>2026-04-18T12:06:47.991Z</time></trkpt><trkpt lat="43.97701887091925" lon="12.13650057619595"><ele>534.0</ele><time>2026-04-18T12:06:48.991Z</time></trkpt><trkpt lat="43.977078248630384" lon="12.136622196057994"><ele>534.0</ele><time>2026-04-18T12:06:49.991Z</time></trkpt><trkpt lat="43.97714814785801" lon="12.136779571420643"><ele>534.0</ele><time>2026-04-18T12:06:50.991Z</time></trkpt><trkpt lat="43.9771963595864" lon="12.136928845769232"><ele>536.6</ele><time>2026-04-18T12:06:51.991Z</time></trkpt><trkpt lat="43.97722613788669" lon="12.137080228542157"><ele>539.2</ele><time>2026-04-18T12:06:52.991Z</time></trkpt><trkpt lat="43.97724755596056" lon="12.137228920549967"><ele>541.8000000000001</ele><time>2026-04-18T12:06:53.991Z</time></trkpt><trkpt lat="43.977264185887556" lon="12.137364013914022"><ele>544.4</ele><time>2026-04-18T12:06:54.991Z</time></trkpt><trkpt lat="43.977283510494004" lon="12.137466005597426"><ele>547.0</ele><time>2026-04-18T12:06:55.991Z</time></trkpt><trkpt lat="43.97732723536889" lon="12.137542777270045"><ele>547.5</ele><time>2026-04-18T12:06:56.991Z</time></trkpt><trkpt lat="43.97739691127294" lon="12.137588422396492"><ele>548.0</ele><time>2026-04-18T12:06:57.991Z</time></trkpt><trkpt lat="43.977477336830695" lon="12.137600929300673"><ele>548.5</ele><time>2026-04-18T12:06:58.991Z</time></trkpt><trkpt lat="43.97756890944038" lon="12.137584583037718"><ele>549.0</ele><time>2026-04-18T12:06:59.991Z</time></trkpt><trkpt lat="43.97766673471169" lon="12.137565996721833"><ele>549.5</ele><time>2026-04-18T12:07:00.991Z</time></trkpt><trkpt lat="43.977764137659804" lon="12.13757197107848"><ele>550.0</ele><time>2026-04-18T12:07:01.991Z</time></trkpt><trkpt lat="43.97786093964905" lon="12.137602574573545"><ele>550.0</ele><time>2026-04-18T12:07:02.991Z</time></trkpt><trkpt lat="43.9779495600272" lon="12.137647091588628"><ele>550.0</ele><time>2026-04-18T12:07:03.991Z</time></trkpt><trkpt lat="43.97803975169198" lon="12.137709142070195"><ele>550.0</ele><time>2026-04-18T12:07:04.991Z</time></trkpt><trkpt lat="43.97812027319998" lon="12.137792393753521"><ele>550.0</ele><time>2026-04-18T12:07:05.991Z</time></trkpt><trkpt lat="43.97818318286839" lon="12.137890741789217"><ele>550.0</ele><time>2026-04-18T12:07:06.991Z</time></trkpt><trkpt lat="43.978237669651186" lon="12.137987569346466"><ele>550.0</ele><time>2026-04-18T12:07:07.991Z</time></trkpt><trkpt lat="43.97829698871182" lon="12.138072438027727"><ele>550.0</ele><time>2026-04-18T12:07:08.991Z</time></trkpt><trkpt lat="43.97837446767419" lon="12.13813930285238"><ele>550.0</ele><time>2026-04-18T12:07:09.991Z</time></trkpt><trkpt lat="43.97847357327117" lon="12.1381945232897"><ele>550.0</ele><time>2026-04-18T12:07:10.991Z</time></trkpt><trkpt lat="43.97857811036442" lon="12.138239555452063"><ele>550.0</ele><time>2026-04-18T12:07:11.991Z</time></trkpt><trkpt lat="43.97869246083212" lon="12.138275766698966"><ele>550.5</ele><time>2026-04-18T12:07:12.991Z</time></trkpt><trkpt lat="43.97880878317488" lon="12.138327967234304"><ele>551.0</ele><time>2026-04-18T12:07:13.991Z</time></trkpt><trkpt lat="43.97892508608019" lon="12.138400969309933"><ele>551.5</ele><time>2026-04-18T12:07:14.991Z</time></trkpt><trkpt lat="43.97903048080577" lon="12.138477312071997"><ele>552.0</ele><time>2026-04-18T12:07:15.991Z</time></trkpt><trkpt lat="43.979121382226054" lon="12.138560254495108"><ele>547.75</ele><time>2026-04-18T12:07:16.991Z</time></trkpt><trkpt lat="43.97919752257243" lon="12.13866419937906"><ele>543.5</ele><time>2026-04-18T12:07:17.991Z</time></trkpt><trkpt lat="43.97925297737522" lon="12.138804914932228"><ele>539.25</ele><time>2026-04-18T12:07:18.991Z</time></trkpt><trkpt lat="43.97929738190809" lon="12.138973987565388"><ele>535.0</ele><time>2026-04-18T12:07:19.991Z</time></trkpt><trkpt lat="43.979344059272464" lon="12.139134424193292"><ele>535.0</ele><time>2026-04-18T12:07:20.991Z</time></trkpt><trkpt lat="43.979403635631066" lon="12.13927778542855"><ele>535.0</ele><time>2026-04-18T12:07:21.991Z</time></trkpt><trkpt lat="43.979474202923384" lon="12.13939617183682"><ele>535.0</ele><time>2026-04-18T12:07:22.991Z</time></trkpt><trkpt lat="43.97954275482611" lon="12.139495814968393"><ele>535.0</ele><time>2026-04-18T12:07:23.991Z</time></trkpt><trkpt lat="43.979603084407955" lon="12.139585598649898"><ele>535.0</ele><time>2026-04-18T12:07:24.991Z</time></trkpt><trkpt lat="43.97964403647101" lon="12.139679088943854"><ele>535.0</ele><time>2026-04-18T12:07:25.991Z</time></trkpt><trkpt lat="43.97966508359077" lon="12.139788406910425"><ele>535.0</ele><time>2026-04-18T12:07:26.991Z</time></trkpt><trkpt lat="43.97965612494015" lon="12.139924197315345"><ele>535.0</ele><time>2026-04-18T12:07:27.991Z</time></trkpt><trkpt lat="43.979620226871084" lon="12.140059153571777"><ele>535.0</ele><time>2026-04-18T12:07:28.991Z</time></trkpt><trkpt lat="43.979570887828324" lon="12.140191938856765"><ele>535.0</ele><time>2026-04-18T12:07:29.991Z</time></trkpt><trkpt lat="43.97950340432508" lon="12.140327494761335"><ele>534.2</ele><time>2026-04-18T12:07:30.991Z</time></trkpt><trkpt lat="43.97943912141392" lon="12.1404452703588"><ele>533.4</ele><time>2026-04-18T12:07:31.991Z</time></trkpt><trkpt lat="43.97936941452934" lon="12.14055705317274"><ele>532.6</ele><time>2026-04-18T12:07:32.991Z</time></trkpt><trkpt lat="43.97929571503386" lon="12.1406625275031"><ele>531.8</ele><time>2026-04-18T12:07:33.991Z</time></trkpt><trkpt lat="43.97922174135811" lon="12.140757856504836"><ele>531.0</ele><time>2026-04-18T12:07:34.991Z</time></trkpt><trkpt lat="43.97914938208501" lon="12.140827816231981"><ele>534.1666666666666</ele><time>2026-04-18T12:07:35.991Z</time></trkpt><trkpt lat="43.97907456605212" lon="12.140899540338191"><ele>537.3333333333334</ele><time>2026-04-18T12:07:36.991Z</time></trkpt><trkpt lat="43.9790140852422" lon="12.140975696356456"><ele>540.5</ele><time>2026-04-18T12:07:37.991Z</time></trkpt><trkpt lat="43.978962731383675" lon="12.141061720276355"><ele>543.6666666666667</ele><time>2026-04-18T12:07:38.991Z</time></trkpt><trkpt lat="43.978917229183956" lon="12.141171101984009"><ele>546.8333333333334</ele><time>2026-04-18T12:07:39.991Z</time></trkpt><trkpt lat="43.97888621683334" lon="12.141284772484864"><ele>550.0</ele><time>2026-04-18T12:07:40.991Z</time></trkpt><trkpt lat="43.978829149582" lon="12.141477450425597"><ele>547.6666666666667</ele><time>2026-04-18T12:07:42.991Z</time></trkpt><trkpt lat="43.97879261740954" lon="12.14156760985422"><ele>545.3333333333334</ele><time>2026-04-18T12:07:43.991Z</time></trkpt><trkpt lat="43.978745583223" lon="12.141657895724979"><ele>543.0</ele><time>2026-04-18T12:07:44.99Z</time></trkpt><trkpt lat="43.97868582924138" lon="12.141727405205092"><ele>540.6666666666666</ele><time>2026-04-18T12:07:45.99Z</time></trkpt><trkpt lat="43.97860926181878" lon="12.141760793640243"><ele>538.3333333333333</ele><time>2026-04-18T12:07:46.99Z</time></trkpt><trkpt lat="43.97851098591904" lon="12.141767573358743"><ele>536.0</ele><time>2026-04-18T12:07:47.99Z</time></trkpt><trkpt lat="43.97840338198372" lon="12.141769679026075"><ele>539.0</ele><time>2026-04-18T12:07:48.99Z</time></trkpt><trkpt lat="43.97830773221657" lon="12.141757313074471"><ele>542.0</ele><time>2026-04-18T12:07:49.99Z</time></trkpt><trkpt lat="43.97821054550966" lon="12.141756939288827"><ele>545.0</ele><time>2026-04-18T12:07:50.99Z</time></trkpt><trkpt lat="43.978107416155375" lon="12.141742611402906"><ele>548.0</ele><time>2026-04-18T12:07:51.99Z</time></trkpt><trkpt lat="43.97801349690316" lon="12.141752249149992"><ele>551.0</ele><time>2026-04-18T12:07:52.99Z</time></trkpt><trkpt lat="43.97792916798833" lon="12.141776631702951"><ele>551.0</ele><time>2026-04-18T12:07:53.99Z</time></trkpt><trkpt lat="43.97787087466684" lon="12.141821421670443"><ele>551.0</ele><time>2026-04-18T12:07:54.99Z</time></trkpt><trkpt lat="43.977803954999345" lon="12.141909997898793"><ele>551.0</ele><time>2026-04-18T12:07:55.99Z</time></trkpt><trkpt lat="43.97776522404341" lon="12.142089100776738"><ele>551.0</ele><time>2026-04-18T12:07:57.99Z</time></trkpt><trkpt lat="43.977742041984236" lon="12.142226773878798"><ele>551.0</ele><time>2026-04-18T12:07:58.99Z</time></trkpt><trkpt lat="43.977709996990505" lon="12.142371069320825"><ele>547.8</ele><time>2026-04-18T12:07:59.99Z</time></trkpt><trkpt lat="43.977668722774" lon="12.142495719360861"><ele>544.6</ele><time>2026-04-18T12:08:00.99Z</time></trkpt><trkpt lat="43.977621980605484" lon="12.142623873917504"><ele>541.4</ele><time>2026-04-18T12:08:01.99Z</time></trkpt><trkpt lat="43.97758033257464" lon="12.142754742760642"><ele>538.2</ele><time>2026-04-18T12:08:02.99Z</time></trkpt><trkpt lat="43.977556966862196" lon="12.14287955986808"><ele>535.0</ele><time>2026-04-18T12:08:03.99Z</time></trkpt><trkpt lat="43.977545373205544" lon="12.143008255711948"><ele>535.0</ele><time>2026-04-18T12:08:04.99Z</time></trkpt><trkpt lat="43.97753450657758" lon="12.143137751681413"><ele>535.0</ele><time>2026-04-18T12:08:05.99Z</time></trkpt><trkpt lat="43.97751576496447" lon="12.14327207854073"><ele>535.0</ele><time>2026-04-18T12:08:06.99Z</time></trkpt><trkpt lat="43.97747860064507" lon="12.143428446580097"><ele>535.0</ele><time>2026-04-18T12:08:07.99Z</time></trkpt><trkpt lat="43.977428360846716" lon="12.143584416111008"><ele>535.0</ele><time>2026-04-18T12:08:08.99Z</time></trkpt><trkpt lat="43.97737475640352" lon="12.143728527665107"><ele>536.75</ele><time>2026-04-18T12:08:09.99Z</time></trkpt><trkpt lat="43.9773291921812" lon="12.143872279628447"><ele>538.5</ele><time>2026-04-18T12:08:10.99Z</time></trkpt><trkpt lat="43.97728531992464" lon="12.14401954224013"><ele>540.25</ele><time>2026-04-18T12:08:11.99Z</time></trkpt><trkpt lat="43.97725027780103" lon="12.144176123466913"><ele>542.0</ele><time>2026-04-18T12:08:12.99Z</time></trkpt><trkpt lat="43.97723072424461" lon="12.144336161275536"><ele>542.0</ele><time>2026-04-18T12:08:13.99Z</time></trkpt><trkpt lat="43.97721545055654" lon="12.144485850818585"><ele>542.0</ele><time>2026-04-18T12:08:14.99Z</time></trkpt><trkpt lat="43.97720402812151" lon="12.144635357247324"><ele>542.0</ele><time>2026-04-18T12:08:15.99Z</time></trkpt><trkpt lat="43.97718654144119" lon="12.144784086425153"><ele>542.0</ele><time>2026-04-18T12:08:16.99Z</time></trkpt><trkpt lat="43.97716265669903" lon="12.144928139785447"><ele>542.0</ele><time>2026-04-18T12:08:17.99Z</time></trkpt><trkpt lat="43.97713628194696" lon="12.145067730582605"><ele>539.8000000000001</ele><time>2026-04-18T12:08:18.99Z</time></trkpt><trkpt lat="43.977100396854915" lon="12.14519881125251"><ele>537.6</ele><time>2026-04-18T12:08:19.99Z</time></trkpt><trkpt lat="43.977063705973165" lon="12.145327934989588"><ele>535.4000000000001</ele><time>2026-04-18T12:08:20.99Z</time></trkpt><trkpt lat="43.977031934434244" lon="12.14545501307875"><ele>533.2</ele><time>2026-04-18T12:08:21.99Z</time></trkpt><trkpt lat="43.97700332982342" lon="12.145595908745856"><ele>531.0</ele><time>2026-04-18T12:08:22.99Z</time></trkpt><trkpt lat="43.97697646037842" lon="12.14574363638824"><ele>528.0</ele><time>2026-04-18T12:08:23.99Z</time></trkpt><trkpt lat="43.97695292618243" lon="12.145892590145968"><ele>525.0</ele><time>2026-04-18T12:08:24.99Z</time></trkpt><trkpt lat="43.97692909311476" lon="12.146035955794307"><ele>522.0</ele><time>2026-04-18T12:08:25.99Z</time></trkpt><trkpt lat="43.97690923365923" lon="12.146176150476679"><ele>519.0</ele><time>2026-04-18T12:08:26.99Z</time></trkpt><trkpt lat="43.976890419861626" lon="12.14630148731395"><ele>516.0</ele><time>2026-04-18T12:08:27.99Z</time></trkpt><trkpt lat="43.976868478576144" lon="12.1464286495893"><ele>516.0</ele><time>2026-04-18T12:08:28.99Z</time></trkpt><trkpt lat="43.976850553602326" lon="12.14654411593369"><ele>516.0</ele><time>2026-04-18T12:08:29.99Z</time></trkpt><trkpt lat="43.976839460185886" lon="12.14666910126971"><ele>516.0</ele><time>2026-04-18T12:08:30.99Z</time></trkpt><trkpt lat="43.97683617739349" lon="12.146795337323596"><ele>516.0</ele><time>2026-04-18T12:08:31.99Z</time></trkpt><trkpt lat="43.97684366414168" lon="12.146924354573109"><ele>516.0</ele><time>2026-04-18T12:08:32.99Z</time></trkpt><trkpt lat="43.97685712526308" lon="12.14705783805471"><ele>516.5</ele><time>2026-04-18T12:08:33.99Z</time></trkpt><trkpt lat="43.97687710767969" lon="12.147189523931251"><ele>517.0</ele><time>2026-04-18T12:08:34.99Z</time></trkpt><trkpt lat="43.976902834784646" lon="12.147307876296862"><ele>517.5</ele><time>2026-04-18T12:08:35.99Z</time></trkpt><trkpt lat="43.97692838295927" lon="12.147417739195411"><ele>518.0</ele><time>2026-04-18T12:08:36.99Z</time></trkpt><trkpt lat="43.976955737396075" lon="12.147531759878385"><ele>518.5</ele><time>2026-04-18T12:08:37.99Z</time></trkpt><trkpt lat="43.976979927843516" lon="12.147632840397431"><ele>519.0</ele><time>2026-04-18T12:08:38.99Z</time></trkpt><trkpt lat="43.97699641565417" lon="12.147766925858866"><ele>523.5</ele><time>2026-04-18T12:08:40.99Z</time></trkpt><trkpt lat="43.97709429748044" lon="12.148284323083152"><ele>528.0</ele><time>2026-04-18T12:08:42.99Z</time></trkpt><trkpt lat="43.977115980430874" lon="12.148414718921478"><ele>528.0</ele><time>2026-04-18T12:08:43.99Z</time></trkpt><trkpt lat="43.97712950485496" lon="12.148547655704977"><ele>528.0</ele><time>2026-04-18T12:08:44.99Z</time></trkpt><trkpt lat="43.977154208984885" lon="12.14867221346975"><ele>528.0</ele><time>2026-04-18T12:08:45.99Z</time></trkpt><trkpt lat="43.97718453817547" lon="12.148803078753708"><ele>528.0</ele><time>2026-04-18T12:08:46.99Z</time></trkpt><trkpt lat="43.97722112806965" lon="12.148934808832507"><ele>528.0</ele><time>2026-04-18T12:08:47.99Z</time></trkpt><trkpt lat="43.97727720750985" lon="12.149068464160758"><ele>527.1999999999999</ele><time>2026-04-18T12:08:48.99Z</time></trkpt><trkpt lat="43.977337326497484" lon="12.1491964651222"><ele>526.4</ele><time>2026-04-18T12:08:49.99Z</time></trkpt><trkpt lat="43.97740183182243" lon="12.149316177213931"><ele>525.5999999999999</ele><time>2026-04-18T12:08:50.99Z</time></trkpt><trkpt lat="43.97746630120665" lon="12.149439568715644"><ele>524.8</ele><time>2026-04-18T12:08:51.99Z</time></trkpt><trkpt lat="43.977531514019525" lon="12.149550889375881"><ele>524.0</ele><time>2026-04-18T12:08:52.99Z</time></trkpt><trkpt lat="43.97759471571995" lon="12.149647861555255"><ele>522.6</ele><time>2026-04-18T12:08:53.99Z</time></trkpt><trkpt lat="43.97767130493497" lon="12.149730997983198"><ele>521.2</ele><time>2026-04-18T12:08:54.99Z</time></trkpt><trkpt lat="43.97776122431937" lon="12.14980052109957"><ele>519.8000000000001</ele><time>2026-04-18T12:08:55.99Z</time></trkpt><trkpt lat="43.97787116476421" lon="12.149865392647458"><ele>518.4</ele><time>2026-04-18T12:08:56.99Z</time></trkpt><trkpt lat="43.9779841871134" lon="12.149931349165872"><ele>517.0</ele><time>2026-04-18T12:08:57.99Z</time></trkpt><trkpt lat="43.978081203422256" lon="12.150014649012569"><ele>516.6</ele><time>2026-04-18T12:08:58.99Z</time></trkpt><trkpt lat="43.978165262528776" lon="12.150116535003491"><ele>516.2</ele><time>2026-04-18T12:08:59.99Z</time></trkpt><trkpt lat="43.9782441305793" lon="12.15021266820171"><ele>515.8</ele><time>2026-04-18T12:09:00.99Z</time></trkpt><trkpt lat="43.97832821763275" lon="12.150314067009877"><ele>515.4</ele><time>2026-04-18T12:09:01.99Z</time></trkpt><trkpt lat="43.97841808642065" lon="12.15040028722691"><ele>515.0</ele><time>2026-04-18T12:09:02.99Z</time></trkpt><trkpt lat="43.97850729974884" lon="12.15046701848278"><ele>512.8</ele><time>2026-04-18T12:09:03.99Z</time></trkpt><trkpt lat="43.978592969785176" lon="12.150537046333728"><ele>510.6</ele><time>2026-04-18T12:09:04.99Z</time></trkpt><trkpt lat="43.97869658062553" lon="12.150590866859371"><ele>508.4</ele><time>2026-04-18T12:09:05.99Z</time></trkpt><trkpt lat="43.978736478998975" lon="12.150698866880202"><ele>506.2</ele><time>2026-04-18T12:09:06.99Z</time></trkpt><trkpt lat="43.978744531670706" lon="12.150817280465496"><ele>504.0</ele><time>2026-04-18T12:09:07.99Z</time></trkpt><trkpt lat="43.978736713436355" lon="12.150946198996435"><ele>504.0</ele><time>2026-04-18T12:09:08.99Z</time></trkpt><trkpt lat="43.9787186985219" lon="12.151048215076795"><ele>504.0</ele><time>2026-04-18T12:09:09.99Z</time></trkpt><trkpt lat="43.97875695914212" lon="12.151147574048982"><ele>504.0</ele><time>2026-04-18T12:09:10.99Z</time></trkpt><trkpt lat="43.97880306330955" lon="12.151220832213335"><ele>504.0</ele><time>2026-04-18T12:09:11.99Z</time></trkpt><trkpt lat="43.97891432047541" lon="12.151260193043354"><ele>504.0</ele><time>2026-04-18T12:09:13.99Z</time></trkpt><trkpt lat="43.97898768911704" lon="12.151284574017662"><ele>504.0</ele><time>2026-04-18T12:09:14.989Z</time></trkpt><trkpt lat="43.97906732484546" lon="12.151329902236519"><ele>504.0</ele><time>2026-04-18T12:09:15.989Z</time></trkpt><trkpt lat="43.97914390732712" lon="12.151411511984415"><ele>504.0</ele><time>2026-04-18T12:09:16.989Z</time></trkpt><trkpt lat="43.979208708586675" lon="12.151508549802514"><ele>504.0</ele><time>2026-04-18T12:09:17.989Z</time></trkpt><trkpt lat="43.97928547132273" lon="12.151587906521687"><ele>504.0</ele><time>2026-04-18T12:09:18.989Z</time></trkpt><trkpt lat="43.979363552910186" lon="12.151684760357666"><ele>504.0</ele><time>2026-04-18T12:09:19.989Z</time></trkpt><trkpt lat="43.97944583888846" lon="12.151779766591247"><ele>498.4</ele><time>2026-04-18T12:09:20.989Z</time></trkpt><trkpt lat="43.979539859604294" lon="12.151877449168413"><ele>492.79999999999995</ele><time>2026-04-18T12:09:21.989Z</time></trkpt><trkpt lat="43.97961602955767" lon="12.151961267047152"><ele>487.20000000000005</ele><time>2026-04-18T12:09:22.989Z</time></trkpt><trkpt lat="43.97967718989156" lon="12.15204310701194"><ele>481.6</ele><time>2026-04-18T12:09:23.989Z</time></trkpt><trkpt lat="43.979724891909505" lon="12.152146233551115"><ele>476.0</ele><time>2026-04-18T12:09:24.989Z</time></trkpt><trkpt lat="43.97974027196057" lon="12.152270915053442"><ele>476.8333333333333</ele><time>2026-04-18T12:09:25.989Z</time></trkpt><trkpt lat="43.979727807573184" lon="12.152396598717422"><ele>477.66666666666663</ele><time>2026-04-18T12:09:26.989Z</time></trkpt><trkpt lat="43.97970860509909" lon="12.152518214979093"><ele>478.5</ele><time>2026-04-18T12:09:27.989Z</time></trkpt><trkpt lat="43.97969178861487" lon="12.152636431124277"><ele>479.33333333333337</ele><time>2026-04-18T12:09:28.989Z</time></trkpt><trkpt lat="43.97968222843135" lon="12.152753075863213"><ele>480.1666666666667</ele><time>2026-04-18T12:09:29.989Z</time></trkpt><trkpt lat="43.97966932135233" lon="12.152865727400917"><ele>481.0</ele><time>2026-04-18T12:09:30.989Z</time></trkpt><trkpt lat="43.97964268877898" lon="12.15298866210969"><ele>481.00000000000006</ele><time>2026-04-18T12:09:31.989Z</time></trkpt><trkpt lat="43.9796373732943" lon="12.15309867189104"><ele>481.0</ele><time>2026-04-18T12:09:32.989Z</time></trkpt><trkpt lat="43.97961916465901" lon="12.153225058295552"><ele>481.0</ele><time>2026-04-18T12:09:33.989Z</time></trkpt><trkpt lat="43.9796342966818" lon="12.153341443351607"><ele>481.0</ele><time>2026-04-18T12:09:34.989Z</time></trkpt><trkpt lat="43.97964536519832" lon="12.15345205727532"><ele>481.00000000000006</ele><time>2026-04-18T12:09:35.989Z</time></trkpt><trkpt lat="43.97963740841103" lon="12.153575831948803"><ele>481.0</ele><time>2026-04-18T12:09:36.989Z</time></trkpt><trkpt lat="43.97961092050563" lon="12.153693188058687"><ele>482.8</ele><time>2026-04-18T12:09:37.989Z</time></trkpt><trkpt lat="43.97956257939642" lon="12.153814213079157"><ele>484.6</ele><time>2026-04-18T12:09:38.989Z</time></trkpt><trkpt lat="43.979503200264276" lon="12.15392674886749"><ele>486.4</ele><time>2026-04-18T12:09:39.989Z</time></trkpt><trkpt lat="43.979410723480356" lon="12.154015066182227"><ele>488.2</ele><time>2026-04-18T12:09:40.989Z</time></trkpt><trkpt lat="43.97933648616659" lon="12.15410437319117"><ele>490.0</ele><time>2026-04-18T12:09:41.989Z</time></trkpt><trkpt lat="43.97924857568895" lon="12.154167320505175"><ele>488.6</ele><time>2026-04-18T12:09:42.989Z</time></trkpt><trkpt lat="43.979148942065024" lon="12.154211713202233"><ele>487.2</ele><time>2026-04-18T12:09:43.989Z</time></trkpt><trkpt lat="43.97906565867359" lon="12.154253102379267"><ele>485.79999999999995</ele><time>2026-04-18T12:09:44.989Z</time></trkpt><trkpt lat="43.979003182299685" lon="12.15428627747085"><ele>484.4</ele><time>2026-04-18T12:09:45.989Z</time></trkpt><trkpt lat="43.978894292447904" lon="12.154376230207127"><ele>483.0</ele><time>2026-04-18T12:09:47.989Z</time></trkpt><trkpt lat="43.97885614841956" lon="12.15446380053817"><ele>483.0</ele><time>2026-04-18T12:09:48.989Z</time></trkpt><trkpt lat="43.97883089283422" lon="12.154575276138145"><ele>482.99999999999994</ele><time>2026-04-18T12:09:49.989Z</time></trkpt><trkpt lat="43.97883345745868" lon="12.154705795751953"><ele>482.99999999999994</ele><time>2026-04-18T12:09:50.989Z</time></trkpt><trkpt lat="43.97883271198353" lon="12.154835779833679"><ele>483.0</ele><time>2026-04-18T12:09:51.989Z</time></trkpt><trkpt lat="43.97882345030589" lon="12.154955940042738"><ele>483.0</ele><time>2026-04-18T12:09:52.989Z</time></trkpt><trkpt lat="43.97880010385661" lon="12.155090978953574"><ele>483.0</ele><time>2026-04-18T12:09:53.989Z</time></trkpt><trkpt lat="43.97876855450979" lon="12.155210445839693"><ele>482.99999999999994</ele><time>2026-04-18T12:09:54.989Z</time></trkpt><trkpt lat="43.978724827611835" lon="12.15535639144871"><ele>482.99999999999994</ele><time>2026-04-18T12:09:55.989Z</time></trkpt><trkpt lat="43.97867714727877" lon="12.155484648350917"><ele>483.0</ele><time>2026-04-18T12:09:56.989Z</time></trkpt><trkpt lat="43.97863727586017" lon="12.155599315000556"><ele>483.0</ele><time>2026-04-18T12:09:57.989Z</time></trkpt><trkpt lat="43.97860330215373" lon="12.155708868610668"><ele>479.2</ele><time>2026-04-18T12:09:58.989Z</time></trkpt><trkpt lat="43.97856615752322" lon="12.155837597798467"><ele>475.4</ele><time>2026-04-18T12:09:59.989Z</time></trkpt><trkpt lat="43.978520106711976" lon="12.155960009051116"><ele>471.59999999999997</ele><time>2026-04-18T12:10:00.989Z</time></trkpt><trkpt lat="43.9784588466815" lon="12.156078424952092"><ele>467.79999999999995</ele><time>2026-04-18T12:10:01.989Z</time></trkpt><trkpt lat="43.97840936319188" lon="12.156188654704346"><ele>464.0</ele><time>2026-04-18T12:10:02.989Z</time></trkpt><trkpt lat="43.97834806854666" lon="12.156290986738071"><ele>464.0</ele><time>2026-04-18T12:10:03.989Z</time></trkpt><trkpt lat="43.978275005319816" lon="12.156391286488468"><ele>464.0</ele><time>2026-04-18T12:10:04.989Z</time></trkpt><trkpt lat="43.978206728807244" lon="12.156480542451293"><ele>464.0</ele><time>2026-04-18T12:10:05.989Z</time></trkpt><trkpt lat="43.97813602201522" lon="12.156574168341018"><ele>464.0</ele><time>2026-04-18T12:10:06.989Z</time></trkpt><trkpt lat="43.978062829349" lon="12.156672903555839"><ele>464.0</ele><time>2026-04-18T12:10:07.989Z</time></trkpt><trkpt lat="43.97800809187174" lon="12.15678431401408"><ele>462.79999999999995</ele><time>2026-04-18T12:10:08.989Z</time></trkpt><trkpt lat="43.97794945161506" lon="12.156887943524913"><ele>461.59999999999997</ele><time>2026-04-18T12:10:09.989Z</time></trkpt><trkpt lat="43.97788021029356" lon="12.156982921720864"><ele>460.4</ele><time>2026-04-18T12:10:10.989Z</time></trkpt><trkpt lat="43.97781392235722" lon="12.15707949811224"><ele>459.2</ele><time>2026-04-18T12:10:11.989Z</time></trkpt><trkpt lat="43.97775368066569" lon="12.157170771646177"><ele>458.0</ele><time>2026-04-18T12:10:12.989Z</time></trkpt><trkpt lat="43.977696646264526" lon="12.157271610620567"><ele>459.4</ele><time>2026-04-18T12:10:13.989Z</time></trkpt><trkpt lat="43.97763103280568" lon="12.157373578348734"><ele>460.79999999999995</ele><time>2026-04-18T12:10:14.989Z</time></trkpt><trkpt lat="43.977577573072864" lon="12.15747927233758"><ele>462.2</ele><time>2026-04-18T12:10:15.989Z</time></trkpt><trkpt lat="43.977541033752104" lon="12.157598082214529"><ele>463.6</ele><time>2026-04-18T12:10:16.989Z</time></trkpt><trkpt lat="43.97749432550327" lon="12.15773568995477"><ele>465.0</ele><time>2026-04-18T12:10:17.989Z</time></trkpt><trkpt lat="43.97744940456281" lon="12.157869091123603"><ele>465.0</ele><time>2026-04-18T12:10:18.989Z</time></trkpt><trkpt lat="43.977395596660166" lon="12.158005958373252"><ele>465.0</ele><time>2026-04-18T12:10:19.989Z</time></trkpt><trkpt lat="43.977341827328615" lon="12.158154147964412"><ele>465.0</ele><time>2026-04-18T12:10:20.989Z</time></trkpt><trkpt lat="43.97728987406094" lon="12.158295116631967"><ele>465.0</ele><time>2026-04-18T12:10:21.989Z</time></trkpt><trkpt lat="43.9772241222101" lon="12.158428744824514"><ele>463.2</ele><time>2026-04-18T12:10:22.989Z</time></trkpt><trkpt lat="43.977180990466074" lon="12.158563724374826"><ele>461.4</ele><time>2026-04-18T12:10:23.989Z</time></trkpt><trkpt lat="43.977144007160234" lon="12.158704926687893"><ele>459.6</ele><time>2026-04-18T12:10:24.989Z</time></trkpt><trkpt lat="43.977096736100265" lon="12.15884322503223"><ele>457.8</ele><time>2026-04-18T12:10:25.989Z</time></trkpt><trkpt lat="43.97704097701151" lon="12.158986031347158"><ele>456.0</ele><time>2026-04-18T12:10:26.989Z</time></trkpt><trkpt lat="43.97700401289954" lon="12.159112130289904"><ele>453.8</ele><time>2026-04-18T12:10:27.989Z</time></trkpt><trkpt lat="43.976965196059155" lon="12.159232999731003"><ele>451.6</ele><time>2026-04-18T12:10:28.989Z</time></trkpt><trkpt lat="43.97692578683843" lon="12.159346931286638"><ele>449.4</ele><time>2026-04-18T12:10:29.989Z</time></trkpt><trkpt lat="43.97689413378651" lon="12.159463583014798"><ele>447.2</ele><time>2026-04-18T12:10:30.989Z</time></trkpt><trkpt lat="43.97685665094488" lon="12.15959969359646"><ele>445.0</ele><time>2026-04-18T12:10:31.989Z</time></trkpt><trkpt lat="43.97682155413809" lon="12.159739560363164"><ele>445.8</ele><time>2026-04-18T12:10:32.989Z</time></trkpt><trkpt lat="43.976783955899954" lon="12.159890115092015"><ele>446.6</ele><time>2026-04-18T12:10:33.989Z</time></trkpt><trkpt lat="43.97676733948614" lon="12.160033834149942"><ele>447.4</ele><time>2026-04-18T12:10:34.989Z</time></trkpt><trkpt lat="43.97674313278296" lon="12.160172672464101"><ele>448.2</ele><time>2026-04-18T12:10:35.989Z</time></trkpt><trkpt lat="43.97673127936305" lon="12.160316394769822"><ele>449.0</ele><time>2026-04-18T12:10:36.989Z</time></trkpt><trkpt lat="43.97671742417364" lon="12.16045181557272"><ele>449.0</ele><time>2026-04-18T12:10:37.989Z</time></trkpt><trkpt lat="43.97671820246837" lon="12.160572905201933"><ele>449.0</ele><time>2026-04-18T12:10:38.989Z</time></trkpt><trkpt lat="43.9767421971046" lon="12.160706829598992"><ele>449.0</ele><time>2026-04-18T12:10:39.989Z</time></trkpt><trkpt lat="43.97674900038907" lon="12.160831353326671"><ele>449.0</ele><time>2026-04-18T12:10:40.988Z</time></trkpt><trkpt lat="43.976741535886504" lon="12.160972093207546"><ele>449.0</ele><time>2026-04-18T12:10:41.988Z</time></trkpt><trkpt lat="43.97670877804465" lon="12.161117641154371"><ele>451.6</ele><time>2026-04-18T12:10:42.988Z</time></trkpt><trkpt lat="43.97664409687604" lon="12.16123795644477"><ele>454.2</ele><time>2026-04-18T12:10:43.988Z</time></trkpt><trkpt lat="43.9765792505554" lon="12.161319330312423"><ele>456.80000000000007</ele><time>2026-04-18T12:10:44.988Z</time></trkpt><trkpt lat="43.976537344574616" lon="12.161427742143363"><ele>459.40000000000003</ele><time>2026-04-18T12:10:45.988Z</time></trkpt><trkpt lat="43.97651046930299" lon="12.16153210745933"><ele>462.0</ele><time>2026-04-18T12:10:46.988Z</time></trkpt><trkpt lat="43.97650270977882" lon="12.161654306537095"><ele>465.0</ele><time>2026-04-18T12:10:47.988Z</time></trkpt><trkpt lat="43.97650921354735" lon="12.161799398026325"><ele>468.00000000000006</ele><time>2026-04-18T12:10:48.988Z</time></trkpt><trkpt lat="43.97653257411219" lon="12.161929068864996"><ele>471.00000000000006</ele><time>2026-04-18T12:10:49.988Z</time></trkpt><trkpt lat="43.97653579473563" lon="12.162044351730385"><ele>474.0</ele><time>2026-04-18T12:10:50.988Z</time></trkpt><trkpt lat="43.97652791360404" lon="12.162180889479822"><ele>477.0</ele><time>2026-04-18T12:10:51.988Z</time></trkpt><trkpt lat="43.976494505240986" lon="12.162308836184451"><ele>478.1666666666667</ele><time>2026-04-18T12:10:52.988Z</time></trkpt><trkpt lat="43.97644798042847" lon="12.162409452679519"><ele>479.33333333333337</ele><time>2026-04-18T12:10:53.988Z</time></trkpt><trkpt lat="43.97637700287989" lon="12.162495075578526"><ele>480.5</ele><time>2026-04-18T12:10:54.988Z</time></trkpt><trkpt lat="43.9762972384896" lon="12.162556377586828"><ele>481.6666666666667</ele><time>2026-04-18T12:10:55.988Z</time></trkpt><trkpt lat="43.97621896728955" lon="12.162593612835234"><ele>482.83333333333337</ele><time>2026-04-18T12:10:56.988Z</time></trkpt><trkpt lat="43.976148065719144" lon="12.162613020899036"><ele>484.0</ele><time>2026-04-18T12:10:57.988Z</time></trkpt><trkpt lat="43.976071622831626" lon="12.162598858834835"><ele>484.00000000000006</ele><time>2026-04-18T12:10:58.988Z</time></trkpt><trkpt lat="43.97600556062714" lon="12.162577335377003"><ele>484.0</ele><time>2026-04-18T12:10:59.988Z</time></trkpt><trkpt lat="43.975938500339666" lon="12.16255047122894"><ele>484.0</ele><time>2026-04-18T12:11:00.988Z</time></trkpt><trkpt lat="43.97586074828236" lon="12.162572685396018"><ele>484.0</ele><time>2026-04-18T12:11:02.988Z</time></trkpt><trkpt lat="43.97585167464298" lon="12.162715009391663"><ele>484.00000000000006</ele><time>2026-04-18T12:11:04.988Z</time></trkpt><trkpt lat="43.97591190085153" lon="12.162763891672254"><ele>484.0</ele><time>2026-04-18T12:11:05.988Z</time></trkpt><trkpt lat="43.97600035266767" lon="12.162794696947463"><ele>484.00000000000006</ele><time>2026-04-18T12:11:06.988Z</time></trkpt><trkpt lat="43.97608503142006" lon="12.162779416551436"><ele>484.0</ele><time>2026-04-18T12:11:07.988Z</time></trkpt><trkpt lat="43.97616205932241" lon="12.16278716870382"><ele>484.0</ele><time>2026-04-18T12:11:08.988Z</time></trkpt><trkpt lat="43.97622929598767" lon="12.162857278715226"><ele>484.0</ele><time>2026-04-18T12:11:09.988Z</time></trkpt><trkpt lat="43.976255213337595" lon="12.16294963925568"><ele>484.00000000000006</ele><time>2026-04-18T12:11:10.988Z</time></trkpt><trkpt lat="43.976262096363406" lon="12.163053696785525"><ele>484.0</ele><time>2026-04-18T12:11:11.988Z</time></trkpt><trkpt lat="43.97625543453409" lon="12.163158749020475"><ele>482.2</ele><time>2026-04-18T12:11:12.988Z</time></trkpt><trkpt lat="43.97624794393254" lon="12.163252569961484"><ele>480.4</ele><time>2026-04-18T12:11:13.988Z</time></trkpt><trkpt lat="43.97620944191007" lon="12.163349263495466"><ele>478.6</ele><time>2026-04-18T12:11:14.988Z</time></trkpt><trkpt lat="43.976139700654365" lon="12.163440517613324"><ele>476.8</ele><time>2026-04-18T12:11:15.988Z</time></trkpt><trkpt lat="43.97604409414372" lon="12.163513545009966"><ele>475.0</ele><time>2026-04-18T12:11:16.988Z</time></trkpt><trkpt lat="43.97593968952477" lon="12.16357624070109"><ele>480.25</ele><time>2026-04-18T12:11:17.988Z</time></trkpt><trkpt lat="43.97583623715485" lon="12.163638627323829"><ele>485.5</ele><time>2026-04-18T12:11:18.988Z</time></trkpt><trkpt lat="43.97573974788284" lon="12.163725370448429"><ele>490.75</ele><time>2026-04-18T12:11:19.988Z</time></trkpt><trkpt lat="43.97565790527674" lon="12.163842725576407"><ele>496.0</ele><time>2026-04-18T12:11:20.988Z</time></trkpt><trkpt lat="43.97559095005227" lon="12.16397630059261"><ele>492.75</ele><time>2026-04-18T12:11:21.988Z</time></trkpt><trkpt lat="43.97552744531355" lon="12.164119188073334"><ele>489.5</ele><time>2026-04-18T12:11:22.988Z</time></trkpt><trkpt lat="43.97546630324901" lon="12.164261526302974"><ele>486.25</ele><time>2026-04-18T12:11:23.988Z</time></trkpt><trkpt lat="43.97540602023564" lon="12.164395495989158"><ele>483.0</ele><time>2026-04-18T12:11:24.988Z</time></trkpt><trkpt lat="43.975350205304125" lon="12.164528456427494"><ele>483.0</ele><time>2026-04-18T12:11:25.988Z</time></trkpt><trkpt lat="43.97528936360377" lon="12.16466730842855"><ele>483.0</ele><time>2026-04-18T12:11:26.988Z</time></trkpt><trkpt lat="43.975229072535676" lon="12.164795688000915"><ele>483.0</ele><time>2026-04-18T12:11:27.988Z</time></trkpt><trkpt lat="43.975175278139496" lon="12.164952069641918"><ele>483.0</ele><time>2026-04-18T12:11:28.988Z</time></trkpt><trkpt lat="43.97511773966347" lon="12.16510351317543"><ele>482.75</ele><time>2026-04-18T12:11:29.988Z</time></trkpt><trkpt lat="43.975067511274204" lon="12.165255750867312"><ele>482.5</ele><time>2026-04-18T12:11:30.988Z</time></trkpt><trkpt lat="43.975020446355224" lon="12.165418560094928"><ele>482.25</ele><time>2026-04-18T12:11:31.988Z</time></trkpt><trkpt lat="43.97497551212322" lon="12.165593289339444"><ele>482.0</ele><time>2026-04-18T12:11:32.988Z</time></trkpt><trkpt lat="43.974944089785026" lon="12.165749204313762"><ele>482.0</ele><time>2026-04-18T12:11:33.988Z</time></trkpt><trkpt lat="43.974912245877945" lon="12.165913547778649"><ele>482.0</ele><time>2026-04-18T12:11:34.988Z</time></trkpt><trkpt lat="43.97487894103297" lon="12.16607680988034"><ele>482.0</ele><time>2026-04-18T12:11:35.988Z</time></trkpt><trkpt lat="43.97484359112602" lon="12.166248503626456"><ele>482.0</ele><time>2026-04-18T12:11:36.988Z</time></trkpt><trkpt lat="43.974808584503855" lon="12.166412878231899"><ele>481.5</ele><time>2026-04-18T12:11:37.988Z</time></trkpt><trkpt lat="43.97477773206954" lon="12.166578162910685"><ele>481.0</ele><time>2026-04-18T12:11:38.988Z</time></trkpt><trkpt lat="43.97475899585356" lon="12.16674243757436"><ele>480.5</ele><time>2026-04-18T12:11:39.988Z</time></trkpt><trkpt lat="43.9747517841036" lon="12.166914331220585"><ele>480.0</ele><time>2026-04-18T12:11:40.988Z</time></trkpt><trkpt lat="43.97475251310656" lon="12.167089486809497"><ele>480.0</ele><time>2026-04-18T12:11:41.988Z</time></trkpt><trkpt lat="43.974749400596494" lon="12.167255024502303"><ele>480.0</ele><time>2026-04-18T12:11:42.988Z</time></trkpt><trkpt lat="43.97474002816535" lon="12.167422739128146"><ele>480.0</ele><time>2026-04-18T12:11:43.988Z</time></trkpt><trkpt lat="43.97471268811804" lon="12.167581791176305"><ele>480.0</ele><time>2026-04-18T12:11:44.988Z</time></trkpt><trkpt lat="43.97464778190432" lon="12.167737342325259"><ele>483.25</ele><time>2026-04-18T12:11:45.988Z</time></trkpt><trkpt lat="43.9745793877712" lon="12.167882150637654"><ele>486.5</ele><time>2026-04-18T12:11:46.988Z</time></trkpt><trkpt lat="43.974490111707375" lon="12.168011037081408"><ele>489.75</ele><time>2026-04-18T12:11:47.988Z</time></trkpt><trkpt lat="43.974393285086784" lon="12.168133520185707"><ele>493.0</ele><time>2026-04-18T12:11:48.988Z</time></trkpt><trkpt lat="43.974296798146455" lon="12.16825179941958"><ele>494.2</ele><time>2026-04-18T12:11:49.988Z</time></trkpt><trkpt lat="43.974202148559286" lon="12.168354318466685"><ele>495.4</ele><time>2026-04-18T12:11:50.988Z</time></trkpt><trkpt lat="43.9741153858998" lon="12.168428190277508"><ele>496.59999999999997</ele><time>2026-04-18T12:11:51.988Z</time></trkpt><trkpt lat="43.974016887474036" lon="12.168495005356553"><ele>497.79999999999995</ele><time>2026-04-18T12:11:52.988Z</time></trkpt><trkpt lat="43.973903345640515" lon="12.168533751029027"><ele>499.0</ele><time>2026-04-18T12:11:53.988Z</time></trkpt><trkpt lat="43.97381123802409" lon="12.168559829206393"><ele>499.00000000000006</ele><time>2026-04-18T12:11:54.988Z</time></trkpt><trkpt lat="43.97372069716188" lon="12.168581813959133"><ele>499.0</ele><time>2026-04-18T12:11:55.988Z</time></trkpt><trkpt lat="43.973613929332096" lon="12.168569105577992"><ele>499.0</ele><time>2026-04-18T12:11:56.988Z</time></trkpt><trkpt lat="43.97352579172639" lon="12.168554892880012"><ele>499.0</ele><time>2026-04-18T12:11:57.988Z</time></trkpt><trkpt lat="43.973447031192144" lon="12.168555943560552"><ele>499.00000000000006</ele><time>2026-04-18T12:11:58.988Z</time></trkpt><trkpt lat="43.973379701445126" lon="12.168595782347449"><ele>499.0</ele><time>2026-04-18T12:11:59.988Z</time></trkpt><trkpt lat="43.97332023364217" lon="12.168673564849886"><ele>500.00000000000006</ele><time>2026-04-18T12:12:00.988Z</time></trkpt><trkpt lat="43.97329039071317" lon="12.16879649534801"><ele>501.0</ele><time>2026-04-18T12:12:01.988Z</time></trkpt><trkpt lat="43.97326152152563" lon="12.168922806318669"><ele>502.0</ele><time>2026-04-18T12:12:02.988Z</time></trkpt><trkpt lat="43.97321435956553" lon="12.16902317290543"><ele>503.0</ele><time>2026-04-18T12:12:03.988Z</time></trkpt><trkpt lat="43.973140670857205" lon="12.169080915062269"><ele>504.00000000000006</ele><time>2026-04-18T12:12:04.988Z</time></trkpt><trkpt lat="43.97305650118956" lon="12.169100685733673"><ele>505.0</ele><time>2026-04-18T12:12:05.988Z</time></trkpt><trkpt lat="43.9729757946923" lon="12.169114982223268"><ele>505.00000000000006</ele><time>2026-04-18T12:12:06.988Z</time></trkpt><trkpt lat="43.97290959176171" lon="12.169150848126083"><ele>505.0</ele><time>2026-04-18T12:12:07.988Z</time></trkpt><trkpt lat="43.972862661827655" lon="12.169223515024948"><ele>505.0</ele><time>2026-04-18T12:12:08.988Z</time></trkpt><trkpt lat="43.97283053625726" lon="12.169329622682332"><ele>505.0</ele><time>2026-04-18T12:12:09.988Z</time></trkpt><trkpt lat="43.97283052938749" lon="12.169462288575803"><ele>505.00000000000006</ele><time>2026-04-18T12:12:10.987Z</time></trkpt><trkpt lat="43.97284594449708" lon="12.16960509548618"><ele>505.0</ele><time>2026-04-18T12:12:11.987Z</time></trkpt><trkpt lat="43.97286800768339" lon="12.169742603086616"><ele>503.8</ele><time>2026-04-18T12:12:12.987Z</time></trkpt><trkpt lat="43.9728763490349" lon="12.169883763361677"><ele>502.6</ele><time>2026-04-18T12:12:13.987Z</time></trkpt><trkpt lat="43.972873920318854" lon="12.170024469934814"><ele>501.4</ele><time>2026-04-18T12:12:14.987Z</time></trkpt><trkpt lat="43.97285787095949" lon="12.170169605451056"><ele>500.2</ele><time>2026-04-18T12:12:15.987Z</time></trkpt><trkpt lat="43.97282858579543" lon="12.170297108658287"><ele>499.0</ele><time>2026-04-18T12:12:16.987Z</time></trkpt><trkpt lat="43.972788288953005" lon="12.170432021665658"><ele>499.0</ele><time>2026-04-18T12:12:17.987Z</time></trkpt><trkpt lat="43.9727382316261" lon="12.170564545316036"><ele>499.0</ele><time>2026-04-18T12:12:18.987Z</time></trkpt><trkpt lat="43.97267844816174" lon="12.170703783609252"><ele>499.0</ele><time>2026-04-18T12:12:19.987Z</time></trkpt><trkpt lat="43.97262126524538" lon="12.170849274966061"><ele>499.0</ele><time>2026-04-18T12:12:20.987Z</time></trkpt><trkpt lat="43.97256733322041" lon="12.170998393015205"><ele>498.0</ele><time>2026-04-18T12:12:21.987Z</time></trkpt><trkpt lat="43.97251100697153" lon="12.171133421196703"><ele>497.0</ele><time>2026-04-18T12:12:22.987Z</time></trkpt><trkpt lat="43.97246121536709" lon="12.171272811413736"><ele>496.0</ele><time>2026-04-18T12:12:23.987Z</time></trkpt><trkpt lat="43.9724164840198" lon="12.171416570343132"><ele>495.0</ele><time>2026-04-18T12:12:24.987Z</time></trkpt><trkpt lat="43.97237197796126" lon="12.171551325632727"><ele>494.0</ele><time>2026-04-18T12:12:25.987Z</time></trkpt><trkpt lat="43.97233151394307" lon="12.171688433479677"><ele>493.4</ele><time>2026-04-18T12:12:26.987Z</time></trkpt><trkpt lat="43.97229572797718" lon="12.171817672698353"><ele>492.79999999999995</ele><time>2026-04-18T12:12:27.987Z</time></trkpt><trkpt lat="43.9722618731482" lon="12.171950377233161"><ele>492.20000000000005</ele><time>2026-04-18T12:12:28.987Z</time></trkpt><trkpt lat="43.972234286225756" lon="12.172078749995068"><ele>491.6</ele><time>2026-04-18T12:12:29.987Z</time></trkpt><trkpt lat="43.972204928306404" lon="12.17220752269391"><ele>491.0</ele><time>2026-04-18T12:12:30.987Z</time></trkpt><trkpt lat="43.97217721612399" lon="12.172330244529814"><ele>489.6</ele><time>2026-04-18T12:12:31.987Z</time></trkpt><trkpt lat="43.97215076788783" lon="12.172463546008968"><ele>488.20000000000005</ele><time>2026-04-18T12:12:32.987Z</time></trkpt><trkpt lat="43.97212456555823" lon="12.17261686457783"><ele>486.79999999999995</ele><time>2026-04-18T12:12:33.987Z</time></trkpt><trkpt lat="43.972109438641965" lon="12.172769076884672"><ele>485.4</ele><time>2026-04-18T12:12:34.987Z</time></trkpt><trkpt lat="43.97209588128032" lon="12.172929558273983"><ele>484.0</ele><time>2026-04-18T12:12:35.987Z</time></trkpt><trkpt lat="43.97207302335668" lon="12.173079151729024"><ele>483.0</ele><time>2026-04-18T12:12:36.987Z</time></trkpt><trkpt lat="43.97205881594217" lon="12.17323444302184"><ele>482.0</ele><time>2026-04-18T12:12:37.987Z</time></trkpt><trkpt lat="43.97203041795103" lon="12.173368576703218"><ele>481.0</ele><time>2026-04-18T12:12:38.987Z</time></trkpt><trkpt lat="43.97199101504318" lon="12.173497822632196"><ele>480.0</ele><time>2026-04-18T12:12:39.987Z</time></trkpt><trkpt lat="43.97194198456831" lon="12.173626465956566"><ele>479.0</ele><time>2026-04-18T12:12:40.987Z</time></trkpt><trkpt lat="43.97189519714414" lon="12.173756983003459"><ele>479.0</ele><time>2026-04-18T12:12:41.987Z</time></trkpt><trkpt lat="43.97185824758959" lon="12.173897297742318"><ele>479.0</ele><time>2026-04-18T12:12:42.987Z</time></trkpt><trkpt lat="43.97183699006909" lon="12.174058148082938"><ele>479.0</ele><time>2026-04-18T12:12:43.987Z</time></trkpt><trkpt lat="43.97183303923708" lon="12.17424728543006"><ele>479.0</ele><time>2026-04-18T12:12:44.987Z</time></trkpt><trkpt lat="43.971824421430675" lon="12.174426549932845"><ele>479.25</ele><time>2026-04-18T12:12:45.987Z</time></trkpt><trkpt lat="43.971808533937235" lon="12.174633470573434"><ele>479.5</ele><time>2026-04-18T12:12:46.987Z</time></trkpt><trkpt lat="43.97181653014162" lon="12.174782203781469"><ele>479.75</ele><time>2026-04-18T12:12:47.987Z</time></trkpt><trkpt lat="43.971834139561004" lon="12.174894115172954"><ele>480.0</ele><time>2026-04-18T12:12:48.987Z</time></trkpt><trkpt lat="43.9719441899055" lon="12.175016729559582"><ele>479.2</ele><time>2026-04-18T12:12:50.987Z</time></trkpt><trkpt lat="43.97202180469176" lon="12.175104920264946"><ele>478.4</ele><time>2026-04-18T12:12:51.987Z</time></trkpt><trkpt lat="43.97209557897772" lon="12.175191818518755"><ele>477.6</ele><time>2026-04-18T12:12:52.987Z</time></trkpt><trkpt lat="43.9721723663856" lon="12.175285793435904"><ele>476.8</ele><time>2026-04-18T12:12:53.987Z</time></trkpt><trkpt lat="43.97225123424737" lon="12.175366159523879"><ele>476.0</ele><time>2026-04-18T12:12:54.987Z</time></trkpt><trkpt lat="43.97232357761362" lon="12.175437583915823"><ele>475.99999999999994</ele><time>2026-04-18T12:12:55.987Z</time></trkpt><trkpt lat="43.9724048236507" lon="12.175509094732858"><ele>476.0</ele><time>2026-04-18T12:12:56.987Z</time></trkpt><trkpt lat="43.97247684231297" lon="12.175569562209908"><ele>476.0</ele><time>2026-04-18T12:12:57.987Z</time></trkpt><trkpt lat="43.9725398432348" lon="12.175638813685325"><ele>476.0</ele><time>2026-04-18T12:12:58.987Z</time></trkpt><trkpt lat="43.97259067482204" lon="12.175709920013977"><ele>475.99999999999994</ele><time>2026-04-18T12:12:59.987Z</time></trkpt><trkpt lat="43.97260072587923" lon="12.175859327378832"><ele>476.0</ele><time>2026-04-18T12:13:01.987Z</time></trkpt><trkpt lat="43.972543559545805" lon="12.175912334700794"><ele>475.99999999999994</ele><time>2026-04-18T12:13:02.987Z</time></trkpt><trkpt lat="43.97247414336153" lon="12.175903162889249"><ele>476.0</ele><time>2026-04-18T12:13:03.987Z</time></trkpt><trkpt lat="43.97239979491816" lon="12.175846097312084"><ele>476.0</ele><time>2026-04-18T12:13:04.987Z</time></trkpt><trkpt lat="43.97232730123327" lon="12.175778057328788"><ele>476.0</ele><time>2026-04-18T12:13:05.987Z</time></trkpt><trkpt lat="43.97224846977183" lon="12.17571275498931"><ele>475.99999999999994</ele><time>2026-04-18T12:13:06.987Z</time></trkpt><trkpt lat="43.97217554244727" lon="12.175648972753379"><ele>476.0</ele><time>2026-04-18T12:13:07.987Z</time></trkpt><trkpt lat="43.97210127376025" lon="12.175590627757487"><ele>475.99999999999994</ele><time>2026-04-18T12:13:08.987Z</time></trkpt><trkpt lat="43.97202847707334" lon="12.175543394431577"><ele>476.0</ele><time>2026-04-18T12:13:09.987Z</time></trkpt><trkpt lat="43.97196450286295" lon="12.175493851439061"><ele>476.0</ele><time>2026-04-18T12:13:10.987Z</time></trkpt><trkpt lat="43.97190136618831" lon="12.175466678559186"><ele>476.0</ele><time>2026-04-18T12:13:11.987Z</time></trkpt><trkpt lat="43.97177126904562" lon="12.175481732208777"><ele>475.99999999999994</ele><time>2026-04-18T12:13:13.987Z</time></trkpt><trkpt lat="43.97169770807071" lon="12.175527839703777"><ele>476.0</ele><time>2026-04-18T12:13:14.987Z</time></trkpt><trkpt lat="43.97163219892033" lon="12.175602428126597"><ele>473.6</ele><time>2026-04-18T12:13:15.987Z</time></trkpt><trkpt lat="43.97158224790109" lon="12.175708607283552"><ele>471.20000000000005</ele><time>2026-04-18T12:13:16.987Z</time></trkpt><trkpt lat="43.971553038165794" lon="12.175829901683935"><ele>468.79999999999995</ele><time>2026-04-18T12:13:17.987Z</time></trkpt><trkpt lat="43.97153808876869" lon="12.175961715309409"><ele>466.4</ele><time>2026-04-18T12:13:18.987Z</time></trkpt><trkpt lat="43.971525707040776" lon="12.176089864229933"><ele>464.0</ele><time>2026-04-18T12:13:19.987Z</time></trkpt><trkpt lat="43.971509334902876" lon="12.176205539522899"><ele>463.99999999999994</ele><time>2026-04-18T12:13:20.987Z</time></trkpt><trkpt lat="43.9714874030446" lon="12.176313825068732"><ele>464.0</ele><time>2026-04-18T12:13:21.987Z</time></trkpt><trkpt lat="43.971467588106506" lon="12.176411115009532"><ele>464.0</ele><time>2026-04-18T12:13:22.987Z</time></trkpt><trkpt lat="43.9714377801247" lon="12.176491887562582"><ele>464.0</ele><time>2026-04-18T12:13:23.987Z</time></trkpt><trkpt lat="43.971377740613924" lon="12.176568180800405"><ele>463.99999999999994</ele><time>2026-04-18T12:13:24.987Z</time></trkpt><trkpt lat="43.97130249665683" lon="12.17663011131268"><ele>464.0</ele><time>2026-04-18T12:13:25.987Z</time></trkpt><trkpt lat="43.97121814528136" lon="12.176656696073943"><ele>463.99999999999994</ele><time>2026-04-18T12:13:26.987Z</time></trkpt><trkpt lat="43.97114313915087" lon="12.176638832514104"><ele>464.0</ele><time>2026-04-18T12:13:27.987Z</time></trkpt><trkpt lat="43.971092102416236" lon="12.176571307118474"><ele>464.0</ele><time>2026-04-18T12:13:28.987Z</time></trkpt><trkpt lat="43.971056549661746" lon="12.176473105869867"><ele>464.0</ele><time>2026-04-18T12:13:29.987Z</time></trkpt><trkpt lat="43.97103634059247" lon="12.176352349279018"><ele>463.99999999999994</ele><time>2026-04-18T12:13:30.987Z</time></trkpt><trkpt lat="43.97102772568153" lon="12.176209049761272"><ele>464.0</ele><time>2026-04-18T12:13:31.987Z</time></trkpt><trkpt lat="43.971027459216415" lon="12.176084314683571"><ele>463.99999999999994</ele><time>2026-04-18T12:13:32.987Z</time></trkpt><trkpt lat="43.97104189647831" lon="12.175973432221932"><ele>464.0</ele><time>2026-04-18T12:13:33.987Z</time></trkpt><trkpt lat="43.97106484501691" lon="12.175874936475694"><ele>464.0</ele><time>2026-04-18T12:13:34.987Z</time></trkpt><trkpt lat="43.97108608833742" lon="12.175783532016574"><ele>464.0</ele><time>2026-04-18T12:13:35.987Z</time></trkpt><trkpt lat="43.97111104541692" lon="12.175695414808414"><ele>463.99999999999994</ele><time>2026-04-18T12:13:36.987Z</time></trkpt><trkpt lat="43.971092399870535" lon="12.175541510372462"><ele>464.0</ele><time>2026-04-18T12:13:38.987Z</time></trkpt><trkpt lat="43.970966383554064" lon="12.175541821538632"><ele>464.00000000000006</ele><time>2026-04-18T12:13:40.987Z</time></trkpt><trkpt lat="43.97092260143709" lon="12.175619305202757"><ele>464.0</ele><time>2026-04-18T12:13:41.987Z</time></trkpt><trkpt lat="43.970901309353096" lon="12.175731220477914"><ele>464.00000000000006</ele><time>2026-04-18T12:13:42.987Z</time></trkpt><trkpt lat="43.97089020830025" lon="12.175825499910438"><ele>464.00000000000006</ele><time>2026-04-18T12:13:43.987Z</time></trkpt><trkpt lat="43.97087773843846" lon="12.175919037318947"><ele>464.0</ele><time>2026-04-18T12:13:44.987Z</time></trkpt><trkpt lat="43.9708623522599" lon="12.17601758291094"><ele>464.00000000000006</ele><time>2026-04-18T12:13:45.986Z</time></trkpt><trkpt lat="43.97084195783141" lon="12.176112395747582"><ele>464.00000000000006</ele><time>2026-04-18T12:13:46.986Z</time></trkpt><trkpt lat="43.9708171262417" lon="12.17620799194983"><ele>460.6</ele><time>2026-04-18T12:13:47.986Z</time></trkpt><trkpt lat="43.970783980622016" lon="12.17632706316352"><ele>457.2</ele><time>2026-04-18T12:13:48.986Z</time></trkpt><trkpt lat="43.97073824851454" lon="12.176455196337159"><ele>453.80000000000007</ele><time>2026-04-18T12:13:49.986Z</time></trkpt><trkpt lat="43.97068211669833" lon="12.176572858772714"><ele>450.40000000000003</ele><time>2026-04-18T12:13:50.986Z</time></trkpt><trkpt lat="43.97062295002761" lon="12.176684271225788"><ele>447.0</ele><time>2026-04-18T12:13:51.986Z</time></trkpt><trkpt lat="43.970558224496905" lon="12.176801293393659"><ele>447.0</ele><time>2026-04-18T12:13:52.986Z</time></trkpt><trkpt lat="43.97049627935097" lon="12.176919550262118"><ele>447.00000000000006</ele><time>2026-04-18T12:13:53.986Z</time></trkpt><trkpt lat="43.970438153814655" lon="12.17702999137588"><ele>447.00000000000006</ele><time>2026-04-18T12:13:54.986Z</time></trkpt><trkpt lat="43.970370913947185" lon="12.17714681878247"><ele>447.0</ele><time>2026-04-18T12:13:55.986Z</time></trkpt><trkpt lat="43.970306484085064" lon="12.177252498832235"><ele>447.0</ele><time>2026-04-18T12:13:56.986Z</time></trkpt><trkpt lat="43.970237597377256" lon="12.177371713060047"><ele>442.75</ele><time>2026-04-18T12:13:57.986Z</time></trkpt><trkpt lat="43.97017983247894" lon="12.177503111668532"><ele>438.5</ele><time>2026-04-18T12:13:58.986Z</time></trkpt><trkpt lat="43.97012242399319" lon="12.17765266027791"><ele>434.25</ele><time>2026-04-18T12:13:59.986Z</time></trkpt><trkpt lat="43.97007972710149" lon="12.177813272779527"><ele>430.0</ele><time>2026-04-18T12:14:00.986Z</time></trkpt><trkpt lat="43.97004273057879" lon="12.17797319056012"><ele>430.8</ele><time>2026-04-18T12:14:01.986Z</time></trkpt><trkpt lat="43.970015332381216" lon="12.178118351700567"><ele>431.6</ele><time>2026-04-18T12:14:02.986Z</time></trkpt><trkpt lat="43.96996822855752" lon="12.17825260423378"><ele>432.4</ele><time>2026-04-18T12:14:03.986Z</time></trkpt><trkpt lat="43.96992317963116" lon="12.178387940607923"><ele>433.2</ele><time>2026-04-18T12:14:04.986Z</time></trkpt><trkpt lat="43.96985913097367" lon="12.178532577226925"><ele>434.0</ele><time>2026-04-18T12:14:05.986Z</time></trkpt><trkpt lat="43.969786233583264" lon="12.178681366407357"><ele>434.5</ele><time>2026-04-18T12:14:06.986Z</time></trkpt><trkpt lat="43.96970886676223" lon="12.178819842212764"><ele>435.0</ele><time>2026-04-18T12:14:07.986Z</time></trkpt><trkpt lat="43.96964326722339" lon="12.178945826080195"><ele>435.5</ele><time>2026-04-18T12:14:08.986Z</time></trkpt><trkpt lat="43.96957074184807" lon="12.179075098784697"><ele>436.0</ele><time>2026-04-18T12:14:09.986Z</time></trkpt><trkpt lat="43.96949810748378" lon="12.179207904423736"><ele>433.0</ele><time>2026-04-18T12:14:10.986Z</time></trkpt><trkpt lat="43.969422142557626" lon="12.179334432411727"><ele>430.0</ele><time>2026-04-18T12:14:11.986Z</time></trkpt><trkpt lat="43.96935087547274" lon="12.179451807065217"><ele>427.0</ele><time>2026-04-18T12:14:12.986Z</time></trkpt><trkpt lat="43.96928215113027" lon="12.179574544395457"><ele>424.0</ele><time>2026-04-18T12:14:13.986Z</time></trkpt><trkpt lat="43.96921543939475" lon="12.17971243213238"><ele>427.5</ele><time>2026-04-18T12:14:14.986Z</time></trkpt><trkpt lat="43.969155622258945" lon="12.179862784885444"><ele>431.0</ele><time>2026-04-18T12:14:15.986Z</time></trkpt><trkpt lat="43.96910234089041" lon="12.180023928159327"><ele>434.5</ele><time>2026-04-18T12:14:16.986Z</time></trkpt><trkpt lat="43.969064479388685" lon="12.18018392756971"><ele>438.0</ele><time>2026-04-18T12:14:17.986Z</time></trkpt><trkpt lat="43.96903317519267" lon="12.18034085766145"><ele>438.0</ele><time>2026-04-18T12:14:18.986Z</time></trkpt><trkpt lat="43.96901592498448" lon="12.180485429356578"><ele>437.99999999999994</ele><time>2026-04-18T12:14:19.986Z</time></trkpt><trkpt lat="43.969012102010424" lon="12.180615847456462"><ele>437.99999999999994</ele><time>2026-04-18T12:14:20.986Z</time></trkpt><trkpt lat="43.96902099155271" lon="12.180744955800122"><ele>438.0</ele><time>2026-04-18T12:14:21.986Z</time></trkpt><trkpt lat="43.96904387433277" lon="12.18087049522454"><ele>438.0</ele><time>2026-04-18T12:14:22.986Z</time></trkpt><trkpt lat="43.9690952931885" lon="12.180984188654104"><ele>437.5</ele><time>2026-04-18T12:14:23.986Z</time></trkpt><trkpt lat="43.96915355747644" lon="12.1810749398652"><ele>437.0</ele><time>2026-04-18T12:14:24.983Z</time></trkpt><trkpt lat="43.969209407203486" lon="12.18115424641972"><ele>436.5</ele><time>2026-04-18T12:14:25.983Z</time></trkpt><trkpt lat="43.9692488158326" lon="12.181231514733781"><ele>436.0</ele><time>2026-04-18T12:14:26.983Z</time></trkpt><trkpt lat="43.96926438188936" lon="12.181324691784479"><ele>435.5</ele><time>2026-04-18T12:14:27.983Z</time></trkpt><trkpt lat="43.96925227040112" lon="12.181490546902376"><ele>435.0</ele><time>2026-04-18T12:14:29.983Z</time></trkpt><trkpt lat="43.96920089386275" lon="12.181614334049966"><ele>434.5</ele><time>2026-04-18T12:14:30.983Z</time></trkpt><trkpt lat="43.969097490619255" lon="12.182178390522072"><ele>434.0</ele><time>2026-04-18T12:14:31.983Z</time></trkpt><trkpt lat="43.96902153194992" lon="12.182321878964133"><ele>432.0</ele><time>2026-04-18T12:14:32.983Z</time></trkpt><trkpt lat="43.968960603914546" lon="12.182470210512825"><ele>430.0</ele><time>2026-04-18T12:14:33.983Z</time></trkpt><trkpt lat="43.968912339053375" lon="12.182614777831834"><ele>428.0</ele><time>2026-04-18T12:14:34.983Z</time></trkpt><trkpt lat="43.968870359132666" lon="12.182739480220429"><ele>426.0</ele><time>2026-04-18T12:14:35.983Z</time></trkpt><trkpt lat="43.96881629683182" lon="12.18287523928563"><ele>424.0</ele><time>2026-04-18T12:14:36.983Z</time></trkpt><trkpt lat="43.96877537192121" lon="12.183003246631884"><ele>424.0</ele><time>2026-04-18T12:14:37.983Z</time></trkpt><trkpt lat="43.96871681545485" lon="12.183113947093243"><ele>424.0</ele><time>2026-04-18T12:14:38.983Z</time></trkpt><trkpt lat="43.968662191024336" lon="12.18320754770179"><ele>424.0</ele><time>2026-04-18T12:14:39.983Z</time></trkpt><trkpt lat="43.96859804855988" lon="12.183289404122846"><ele>424.0</ele><time>2026-04-18T12:14:40.983Z</time></trkpt><trkpt lat="43.968507996659156" lon="12.183384969836872"><ele>424.0</ele><time>2026-04-18T12:14:41.983Z</time></trkpt><trkpt lat="43.96842139943744" lon="12.183478206416543"><ele>425.0</ele><time>2026-04-18T12:14:42.983Z</time></trkpt><trkpt lat="43.96833826036602" lon="12.183568474976935"><ele>426.0</ele><time>2026-04-18T12:14:43.983Z</time></trkpt><trkpt lat="43.968256793724436" lon="12.183638830826688"><ele>427.0</ele><time>2026-04-18T12:14:44.983Z</time></trkpt><trkpt lat="43.968175271985146" lon="12.183728485647926"><ele>428.0</ele><time>2026-04-18T12:14:45.983Z</time></trkpt><trkpt lat="43.96811134384949" lon="12.183829526125082"><ele>429.0</ele><time>2026-04-18T12:14:46.983Z</time></trkpt><trkpt lat="43.968064418375214" lon="12.183939411256793"><ele>426.0</ele><time>2026-04-18T12:14:47.983Z</time></trkpt><trkpt lat="43.96800520595234" lon="12.184028220140563"><ele>423.0</ele><time>2026-04-18T12:14:48.983Z</time></trkpt><trkpt lat="43.967932541456626" lon="12.18409075381718"><ele>420.0</ele><time>2026-04-18T12:14:49.983Z</time></trkpt><trkpt lat="43.96784304016279" lon="12.184120911179008"><ele>417.0</ele><time>2026-04-18T12:14:50.983Z</time></trkpt><trkpt lat="43.967726616921524" lon="12.184181359002308"><ele>414.0</ele><time>2026-04-18T12:14:51.983Z</time></trkpt><trkpt lat="43.967616238971864" lon="12.184238740387308"><ele>414.0</ele><time>2026-04-18T12:14:52.983Z</time></trkpt><trkpt lat="43.96750601064014" lon="12.184278200196797"><ele>414.0</ele><time>2026-04-18T12:14:53.983Z</time></trkpt><trkpt lat="43.96737050415626" lon="12.184269946839883"><ele>414.0</ele><time>2026-04-18T12:14:54.983Z</time></trkpt><trkpt lat="43.96725656125546" lon="12.184253314559594"><ele>414.0</ele><time>2026-04-18T12:14:55.983Z</time></trkpt><trkpt lat="43.967146385401385" lon="12.184221608774621"><ele>414.0</ele><time>2026-04-18T12:14:56.983Z</time></trkpt><trkpt lat="43.96702600950825" lon="12.184167322011442"><ele>414.0</ele><time>2026-04-18T12:14:57.983Z</time></trkpt><trkpt lat="43.96691294742758" lon="12.184104783911485"><ele>414.0</ele><time>2026-04-18T12:14:58.983Z</time></trkpt><trkpt lat="43.96679766007888" lon="12.184033496823403"><ele>414.0</ele><time>2026-04-18T12:14:59.983Z</time></trkpt><trkpt lat="43.9666949186466" lon="12.183932436323339"><ele>413.5</ele><time>2026-04-18T12:15:00.983Z</time></trkpt><trkpt lat="43.96659129808099" lon="12.183846600550314"><ele>413.0</ele><time>2026-04-18T12:15:01.983Z</time></trkpt><trkpt lat="43.96648476527983" lon="12.18377137276482"><ele>412.5</ele><time>2026-04-18T12:15:02.983Z</time></trkpt><trkpt lat="43.966371698738456" lon="12.18369598500402"><ele>412.0</ele><time>2026-04-18T12:15:03.983Z</time></trkpt><trkpt lat="43.96626254538491" lon="12.183598279882588"><ele>412.0</ele><time>2026-04-18T12:15:04.983Z</time></trkpt><trkpt lat="43.96619380966952" lon="12.183511073657355"><ele>412.0</ele><time>2026-04-18T12:15:05.983Z</time></trkpt><trkpt lat="43.96609692377002" lon="12.183438771611984"><ele>412.0</ele><time>2026-04-18T12:15:06.983Z</time></trkpt><trkpt lat="43.96598930779695" lon="12.18340585000726"><ele>412.0</ele><time>2026-04-18T12:15:07.983Z</time></trkpt><trkpt lat="43.96586296763656" lon="12.183365134586662"><ele>412.0</ele><time>2026-04-18T12:15:08.983Z</time></trkpt><trkpt lat="43.965717661075" lon="12.183339574901419"><ele>409.25</ele><time>2026-04-18T12:15:09.983Z</time></trkpt><trkpt lat="43.96556931878057" lon="12.183319570350907"><ele>406.5</ele><time>2026-04-18T12:15:10.983Z</time></trkpt><trkpt lat="43.96542594473873" lon="12.183319814691313"><ele>403.75</ele><time>2026-04-18T12:15:11.982Z</time></trkpt><trkpt lat="43.96529278372869" lon="12.183321148804792"><ele>401.0</ele><time>2026-04-18T12:15:12.982Z</time></trkpt><trkpt lat="43.965172911454154" lon="12.1833341786213"><ele>401.0</ele><time>2026-04-18T12:15:13.982Z</time></trkpt><trkpt lat="43.96505446422298" lon="12.183338427592478"><ele>401.0</ele><time>2026-04-18T12:15:14.982Z</time></trkpt><trkpt lat="43.96492644217401" lon="12.183346422033132"><ele>401.0</ele><time>2026-04-18T12:15:15.982Z</time></trkpt><trkpt lat="43.9648140837733" lon="12.18335218601981"><ele>401.0</ele><time>2026-04-18T12:15:16.982Z</time></trkpt><trkpt lat="43.96469957187681" lon="12.183344130291752"><ele>399.4</ele><time>2026-04-18T12:15:17.983Z</time></trkpt><trkpt lat="43.964593367227735" lon="12.183344159958855"><ele>397.8</ele><time>2026-04-18T12:15:18.982Z</time></trkpt><trkpt lat="43.964491011566764" lon="12.183347837653317"><ele>396.2</ele><time>2026-04-18T12:15:19.982Z</time></trkpt><trkpt lat="43.96437469868834" lon="12.18335389981906"><ele>394.59999999999997</ele><time>2026-04-18T12:15:20.982Z</time></trkpt><trkpt lat="43.9642667312372" lon="12.183345073809603"><ele>393.0</ele><time>2026-04-18T12:15:21.982Z</time></trkpt><trkpt lat="43.96416010561204" lon="12.183334045897725"><ele>392.0</ele><time>2026-04-18T12:15:22.982Z</time></trkpt><trkpt lat="43.96404162451071" lon="12.183326505625333"><ele>391.0</ele><time>2026-04-18T12:15:23.982Z</time></trkpt><trkpt lat="43.96393416552104" lon="12.183324125538116"><ele>390.0</ele><time>2026-04-18T12:15:24.982Z</time></trkpt><trkpt lat="43.96382125658312" lon="12.183325812541227"><ele>389.0</ele><time>2026-04-18T12:15:25.982Z</time></trkpt><trkpt lat="43.963702710115" lon="12.183321237777909"><ele>389.0</ele><time>2026-04-18T12:15:26.982Z</time></trkpt><trkpt lat="43.96358537411028" lon="12.183320607789629"><ele>389.0</ele><time>2026-04-18T12:15:27.982Z</time></trkpt><trkpt lat="43.963481776944676" lon="12.183324528561306"><ele>389.0</ele><time>2026-04-18T12:15:28.982Z</time></trkpt><trkpt lat="43.96337337881712" lon="12.183323469865872"><ele>389.0</ele><time>2026-04-18T12:15:29.982Z</time></trkpt><trkpt lat="43.9632659132271" lon="12.183324340916084"><ele>389.0</ele><time>2026-04-18T12:15:30.982Z</time></trkpt><trkpt lat="43.963153638421346" lon="12.183324832794487"><ele>387.4</ele><time>2026-04-18T12:15:31.982Z</time></trkpt><trkpt lat="43.96304947233113" lon="12.183340948085311"><ele>385.79999999999995</ele><time>2026-04-18T12:15:32.982Z</time></trkpt><trkpt lat="43.96294963774606" lon="12.18333936091256"><ele>384.20000000000005</ele><time>2026-04-18T12:15:33.982Z</time></trkpt><trkpt lat="43.962860746592796" lon="12.183325984069318"><ele>382.6</ele><time>2026-04-18T12:15:34.982Z</time></trkpt><trkpt lat="43.962772461880725" lon="12.183306778646589"><ele>381.0</ele><time>2026-04-18T12:15:35.982Z</time></trkpt><trkpt lat="43.96269735324018" lon="12.18329305947538"><ele>381.0</ele><time>2026-04-18T12:15:36.982Z</time></trkpt><trkpt lat="43.9625801702341" lon="12.183305056027697"><ele>381.0</ele><time>2026-04-18T12:15:38.982Z</time></trkpt><trkpt lat="43.96251572529258" lon="12.183356293866389"><ele>381.0</ele><time>2026-04-18T12:15:39.982Z</time></trkpt><trkpt lat="43.96247132251053" lon="12.183441705115053"><ele>381.0</ele><time>2026-04-18T12:15:40.982Z</time></trkpt><trkpt lat="43.96246399706203" lon="12.183557950094668"><ele>381.0</ele><time>2026-04-18T12:15:41.982Z</time></trkpt><trkpt lat="43.962495195008145" lon="12.183663520454727"><ele>381.0</ele><time>2026-04-18T12:15:42.982Z</time></trkpt><trkpt lat="43.96255883674052" lon="12.183763400113705"><ele>381.0</ele><time>2026-04-18T12:15:43.982Z</time></trkpt><trkpt lat="43.96264603828624" lon="12.183844214057132"><ele>381.0</ele><time>2026-04-18T12:15:44.982Z</time></trkpt><trkpt lat="43.9627421832535" lon="12.183912600559964"><ele>381.0</ele><time>2026-04-18T12:15:45.982Z</time></trkpt><trkpt lat="43.962839879328435" lon="12.184020708707"><ele>381.0</ele><time>2026-04-18T12:15:46.982Z</time></trkpt><trkpt lat="43.96294129687232" lon="12.184134957565021"><ele>378.0</ele><time>2026-04-18T12:15:47.982Z</time></trkpt><trkpt lat="43.9630385730123" lon="12.184246609968787"><ele>375.0</ele><time>2026-04-18T12:15:48.982Z</time></trkpt><trkpt lat="43.963131628831036" lon="12.184356369264632"><ele>372.0</ele><time>2026-04-18T12:15:49.982Z</time></trkpt><trkpt lat="43.963221085808314" lon="12.184444054039956"><ele>369.0</ele><time>2026-04-18T12:15:50.982Z</time></trkpt><trkpt lat="43.96330906154911" lon="12.184532453532338"><ele>368.5</ele><time>2026-04-18T12:15:51.982Z</time></trkpt><trkpt lat="43.96339508127048" lon="12.184644455555931"><ele>368.0</ele><time>2026-04-18T12:15:52.982Z</time></trkpt><trkpt lat="43.96349360797415" lon="12.184750030831774"><ele>367.5</ele><time>2026-04-18T12:15:53.982Z</time></trkpt><trkpt lat="43.96356228333669" lon="12.184865636153997"><ele>367.0</ele><time>2026-04-18T12:15:54.982Z</time></trkpt><trkpt lat="43.963601565936735" lon="12.18501567300827"><ele>367.0</ele><time>2026-04-18T12:15:55.982Z</time></trkpt><trkpt lat="43.963638619481564" lon="12.185160864436543"><ele>367.0</ele><time>2026-04-18T12:15:56.982Z</time></trkpt><trkpt lat="43.963654571169975" lon="12.185321802314698"><ele>367.0</ele><time>2026-04-18T12:15:57.982Z</time></trkpt><trkpt lat="43.963653934922164" lon="12.185484365476574"><ele>367.0</ele><time>2026-04-18T12:15:58.982Z</time></trkpt><trkpt lat="43.96363683239197" lon="12.1856541454429"><ele>366.20000000000005</ele><time>2026-04-18T12:15:59.982Z</time></trkpt><trkpt lat="43.96359804424469" lon="12.185811791319257"><ele>365.4</ele><time>2026-04-18T12:16:00.982Z</time></trkpt><trkpt lat="43.96357079628579" lon="12.185952663263608"><ele>364.6</ele><time>2026-04-18T12:16:01.982Z</time></trkpt><trkpt lat="43.963551119198954" lon="12.186100258346867"><ele>363.79999999999995</ele><time>2026-04-18T12:16:02.982Z</time></trkpt><trkpt lat="43.963546799773525" lon="12.186251613616838"><ele>363.0</ele><time>2026-04-18T12:16:03.982Z</time></trkpt><trkpt lat="43.96353074430895" lon="12.186389459288065"><ele>362.2</ele><time>2026-04-18T12:16:04.982Z</time></trkpt><trkpt lat="43.96350014930308" lon="12.186553031996885"><ele>361.4</ele><time>2026-04-18T12:16:05.982Z</time></trkpt><trkpt lat="43.96347269806539" lon="12.186699602798365"><ele>360.59999999999997</ele><time>2026-04-18T12:16:06.982Z</time></trkpt><trkpt lat="43.96345039689542" lon="12.186837211387893"><ele>359.79999999999995</ele><time>2026-04-18T12:16:07.982Z</time></trkpt><trkpt lat="43.963434019344035" lon="12.186975708050378"><ele>359.0</ele><time>2026-04-18T12:16:08.982Z</time></trkpt><trkpt lat="43.96342694088663" lon="12.187118596223007"><ele>359.0</ele><time>2026-04-18T12:16:09.982Z</time></trkpt><trkpt lat="43.96342355763294" lon="12.187270689765231"><ele>359.0</ele><time>2026-04-18T12:16:10.982Z</time></trkpt><trkpt lat="43.96343625919341" lon="12.187425059906756"><ele>359.0</ele><time>2026-04-18T12:16:11.982Z</time></trkpt><trkpt lat="43.96344854329711" lon="12.187593552054441"><ele>359.0</ele><time>2026-04-18T12:16:12.982Z</time></trkpt><trkpt lat="43.963457541468365" lon="12.187763501644486"><ele>357.5</ele><time>2026-04-18T12:16:13.982Z</time></trkpt><trkpt lat="43.963479642270954" lon="12.187926423906134"><ele>356.0</ele><time>2026-04-18T12:16:14.982Z</time></trkpt><trkpt lat="43.96350169118931" lon="12.1880854066909"><ele>354.5</ele><time>2026-04-18T12:16:15.982Z</time></trkpt><trkpt lat="43.963509227017" lon="12.188240519142958"><ele>353.0</ele><time>2026-04-18T12:16:16.982Z</time></trkpt><trkpt lat="43.96352630163616" lon="12.188403971449196"><ele>352.4</ele><time>2026-04-18T12:16:17.982Z</time></trkpt><trkpt lat="43.96354578894608" lon="12.188561430572602"><ele>351.79999999999995</ele><time>2026-04-18T12:16:18.982Z</time></trkpt><trkpt lat="43.963568383292234" lon="12.188716530549025"><ele>351.2</ele><time>2026-04-18T12:16:19.982Z</time></trkpt><trkpt lat="43.96358262682926" lon="12.188870281763736"><ele>350.6</ele><time>2026-04-18T12:16:20.982Z</time></trkpt><trkpt lat="43.963598657179666" lon="12.189008313459539"><ele>350.0</ele><time>2026-04-18T12:16:21.982Z</time></trkpt><trkpt lat="43.96361413544383" lon="12.189149728179796"><ele>349.5</ele><time>2026-04-18T12:16:22.982Z</time></trkpt><trkpt lat="43.96363688394185" lon="12.189296022633803"><ele>349.0</ele><time>2026-04-18T12:16:23.982Z</time></trkpt><trkpt lat="43.963653348717315" lon="12.189454063918946"><ele>348.5</ele><time>2026-04-18T12:16:24.982Z</time></trkpt><trkpt lat="43.96365936453998" lon="12.189613717112028"><ele>348.0</ele><time>2026-04-18T12:16:25.982Z</time></trkpt><trkpt lat="43.963686217617216" lon="12.18979396906678"><ele>346.59999999999997</ele><time>2026-04-18T12:16:26.982Z</time></trkpt><trkpt lat="43.96368937909822" lon="12.189948099860658"><ele>345.2</ele><time>2026-04-18T12:16:27.982Z</time></trkpt><trkpt lat="43.96370327917531" lon="12.190089605897931"><ele>343.8</ele><time>2026-04-18T12:16:28.982Z</time></trkpt><trkpt lat="43.96371793465505" lon="12.190228425511272"><ele>342.4</ele><time>2026-04-18T12:16:29.982Z</time></trkpt><trkpt lat="43.96372674729866" lon="12.190375451424117"><ele>341.0</ele><time>2026-04-18T12:16:30.982Z</time></trkpt><trkpt lat="43.96374184625196" lon="12.190519100498719"><ele>341.0</ele><time>2026-04-18T12:16:31.982Z</time></trkpt><trkpt lat="43.96378371537804" lon="12.190619321835474"><ele>341.0</ele><time>2026-04-18T12:16:32.982Z</time></trkpt><trkpt lat="43.96383806191271" lon="12.19072141813296"><ele>341.0</ele><time>2026-04-18T12:16:33.982Z</time></trkpt><trkpt lat="43.963918367724155" lon="12.190807785059562"><ele>341.0</ele><time>2026-04-18T12:16:34.982Z</time></trkpt><trkpt lat="43.96401360727832" lon="12.190860548687827"><ele>341.0</ele><time>2026-04-18T12:16:35.982Z</time></trkpt><trkpt lat="43.96413082677348" lon="12.190894980897692"><ele>336.40000000000003</ele><time>2026-04-18T12:16:36.982Z</time></trkpt><trkpt lat="43.9642315371658" lon="12.190909672051054"><ele>331.8</ele><time>2026-04-18T12:16:37.982Z</time></trkpt><trkpt lat="43.96435175432057" lon="12.190886371926442"><ele>327.20000000000005</ele><time>2026-04-18T12:16:38.982Z</time></trkpt><trkpt lat="43.96444906029565" lon="12.19085730558423"><ele>322.6</ele><time>2026-04-18T12:16:39.982Z</time></trkpt><trkpt lat="43.964543514568746" lon="12.190807799433012"><ele>318.0</ele><time>2026-04-18T12:16:40.982Z</time></trkpt><trkpt lat="43.964638800376626" lon="12.190764371950323"><ele>318.0</ele><time>2026-04-18T12:16:41.982Z</time></trkpt><trkpt lat="43.96474581434623" lon="12.190734587875014"><ele>318.0</ele><time>2026-04-18T12:16:42.981Z</time></trkpt><trkpt lat="43.964865987040376" lon="12.190734572754794"><ele>318.0</ele><time>2026-04-18T12:16:43.981Z</time></trkpt><trkpt lat="43.96497655200791" lon="12.19074132296665"><ele>318.0</ele><time>2026-04-18T12:16:44.981Z</time></trkpt><trkpt lat="43.965082229440064" lon="12.190764259536213"><ele>318.0</ele><time>2026-04-18T12:16:45.981Z</time></trkpt><trkpt lat="43.96518645347105" lon="12.190792491307546"><ele>316.2</ele><time>2026-04-18T12:16:46.981Z</time></trkpt><trkpt lat="43.965284370246124" lon="12.190805887528745"><ele>314.4</ele><time>2026-04-18T12:16:47.981Z</time></trkpt><trkpt lat="43.965391622159395" lon="12.190800814140168"><ele>312.59999999999997</ele><time>2026-04-18T12:16:48.981Z</time></trkpt><trkpt lat="43.96550766886826" lon="12.190799093472997"><ele>310.8</ele><time>2026-04-18T12:16:49.981Z</time></trkpt><trkpt lat="43.965618910641425" lon="12.190813131813277"><ele>309.0</ele><time>2026-04-18T12:16:50.981Z</time></trkpt><trkpt lat="43.96573329291365" lon="12.190838885541286"><ele>309.0</ele><time>2026-04-18T12:16:51.981Z</time></trkpt><trkpt lat="43.96584450002301" lon="12.190850078749222"><ele>309.0</ele><time>2026-04-18T12:16:52.981Z</time></trkpt><trkpt lat="43.96592632434469" lon="12.19085621435321"><ele>309.0</ele><time>2026-04-18T12:16:53.981Z</time></trkpt><trkpt lat="43.96600157376115" lon="12.19085882441004"><ele>309.0</ele><time>2026-04-18T12:16:54.981Z</time></trkpt><trkpt lat="43.96607343502869" lon="12.19082797145326"><ele>309.0</ele><time>2026-04-18T12:16:55.981Z</time></trkpt><trkpt lat="43.96613923602356" lon="12.190785091191254"><ele>309.0</ele><time>2026-04-18T12:16:56.981Z</time></trkpt><trkpt lat="43.96621748150825" lon="12.190703135830825"><ele>309.0</ele><time>2026-04-18T12:16:57.981Z</time></trkpt><trkpt lat="43.966286612269165" lon="12.190610485905315"><ele>309.0</ele><time>2026-04-18T12:16:58.981Z</time></trkpt><trkpt lat="43.96635675815441" lon="12.19052570155688"><ele>309.0</ele><time>2026-04-18T12:16:59.981Z</time></trkpt><trkpt lat="43.966404432162086" lon="12.190442245855182"><ele>309.0</ele><time>2026-04-18T12:17:00.981Z</time></trkpt><trkpt lat="43.96647500863516" lon="12.19037668756615"><ele>309.0</ele><time>2026-04-18T12:17:01.981Z</time></trkpt><trkpt lat="43.96654732129129" lon="12.190348365642924"><ele>309.0</ele><time>2026-04-18T12:17:02.981Z</time></trkpt><trkpt lat="43.96664520037355" lon="12.190399886102549"><ele>309.0</ele><time>2026-04-18T12:17:04.981Z</time></trkpt><trkpt lat="43.96667359739604" lon="12.190514203867743"><ele>309.0</ele><time>2026-04-18T12:17:05.981Z</time></trkpt><trkpt lat="43.96665543512476" lon="12.190603492651407"><ele>309.0</ele><time>2026-04-18T12:17:06.981Z</time></trkpt><trkpt lat="43.966592426068324" lon="12.190684561704149"><ele>309.0</ele><time>2026-04-18T12:17:07.981Z</time></trkpt><trkpt lat="43.966511041798924" lon="12.190748221783531"><ele>309.0</ele><time>2026-04-18T12:17:08.981Z</time></trkpt><trkpt lat="43.96644124990088" lon="12.190806466897822"><ele>309.0</ele><time>2026-04-18T12:17:09.981Z</time></trkpt><trkpt lat="43.96638226208754" lon="12.190876584796378"><ele>305.8333333333333</ele><time>2026-04-18T12:17:10.981Z</time></trkpt><trkpt lat="43.966314216088584" lon="12.190937769722062"><ele>302.6666666666667</ele><time>2026-04-18T12:17:11.981Z</time></trkpt><trkpt lat="43.96625091334153" lon="12.190999613229225"><ele>299.5</ele><time>2026-04-18T12:17:12.981Z</time></trkpt><trkpt lat="43.9661805695346" lon="12.191063141434546"><ele>296.33333333333337</ele><time>2026-04-18T12:17:13.981Z</time></trkpt><trkpt lat="43.96611823111557" lon="12.191114141576765"><ele>293.1666666666667</ele><time>2026-04-18T12:17:14.981Z</time></trkpt><trkpt lat="43.96603812612698" lon="12.191150168993099"><ele>290.0</ele><time>2026-04-18T12:17:15.981Z</time></trkpt><trkpt lat="43.96595974330428" lon="12.191178586612638"><ele>290.0</ele><time>2026-04-18T12:17:16.981Z</time></trkpt><trkpt lat="43.96587863189628" lon="12.191202633200255"><ele>290.0</ele><time>2026-04-18T12:17:17.98Z</time></trkpt><trkpt lat="43.965792938267526" lon="12.191216504312203"><ele>290.0</ele><time>2026-04-18T12:17:18.98Z</time></trkpt><trkpt lat="43.965722099261804" lon="12.191214830594195"><ele>290.0</ele><time>2026-04-18T12:17:19.98Z</time></trkpt><trkpt lat="43.96564181682752" lon="12.191223458001584"><ele>290.0</ele><time>2026-04-18T12:17:20.981Z</time></trkpt><trkpt lat="43.96553367649917" lon="12.191244154367697"><ele>290.0</ele><time>2026-04-18T12:17:21.98Z</time></trkpt><trkpt lat="43.96544311175575" lon="12.1912677935939"><ele>288.4</ele><time>2026-04-18T12:17:22.98Z</time></trkpt><trkpt lat="43.965348036181176" lon="12.19131997716809"><ele>286.8</ele><time>2026-04-18T12:17:23.98Z</time></trkpt><trkpt lat="43.96526222222095" lon="12.19137602169809"><ele>285.2</ele><time>2026-04-18T12:17:24.981Z</time></trkpt><trkpt lat="43.96517824718757" lon="12.191446545281075"><ele>283.6</ele><time>2026-04-18T12:17:25.981Z</time></trkpt><trkpt lat="43.9651024756429" lon="12.191515092209762"><ele>282.0</ele><time>2026-04-18T12:17:26.981Z</time></trkpt><trkpt lat="43.965027920436626" lon="12.191585403882614"><ele>282.0</ele><time>2026-04-18T12:17:27.98Z</time></trkpt><trkpt lat="43.96495272632567" lon="12.191653729538187"><ele>282.0</ele><time>2026-04-18T12:17:28.98Z</time></trkpt><trkpt lat="43.96484340893913" lon="12.191709191169304"><ele>282.0</ele><time>2026-04-18T12:17:29.98Z</time></trkpt><trkpt lat="43.964743697778616" lon="12.191733436976346"><ele>282.0</ele><time>2026-04-18T12:17:30.98Z</time></trkpt><trkpt lat="43.96462848083766" lon="12.191751095130533"><ele>282.0</ele><time>2026-04-18T12:17:31.98Z</time></trkpt><trkpt lat="43.96451379354508" lon="12.191768043823417"><ele>282.0</ele><time>2026-04-18T12:17:32.98Z</time></trkpt><trkpt lat="43.96440324208405" lon="12.191785385307972"><ele>282.0</ele><time>2026-04-18T12:17:33.98Z</time></trkpt><trkpt lat="43.96429336811086" lon="12.191786588746394"><ele>282.0</ele><time>2026-04-18T12:17:34.98Z</time></trkpt><trkpt lat="43.964184069817755" lon="12.191807359186143"><ele>282.0</ele><time>2026-04-18T12:17:35.98Z</time></trkpt><trkpt lat="43.96407211635211" lon="12.191805568013663"><ele>282.0</ele><time>2026-04-18T12:17:36.98Z</time></trkpt><trkpt lat="43.963963617281074" lon="12.191808444880829"><ele>282.75</ele><time>2026-04-18T12:17:37.98Z</time></trkpt><trkpt lat="43.96385572388292" lon="12.19178167419651"><ele>283.5</ele><time>2026-04-18T12:17:38.98Z</time></trkpt><trkpt lat="43.96374001757853" lon="12.191761351560556"><ele>284.25</ele><time>2026-04-18T12:17:39.98Z</time></trkpt><trkpt lat="43.96363061442823" lon="12.191735387782417"><ele>285.0</ele><time>2026-04-18T12:17:40.98Z</time></trkpt><trkpt lat="43.963518170824045" lon="12.191710190774566"><ele>285.0</ele><time>2026-04-18T12:17:41.98Z</time></trkpt><trkpt lat="43.963421301215135" lon="12.191689562534192"><ele>285.0</ele><time>2026-04-18T12:17:42.98Z</time></trkpt><trkpt lat="43.96333137469169" lon="12.191642979233885"><ele>285.0</ele><time>2026-04-18T12:17:43.98Z</time></trkpt><trkpt lat="43.963251583208084" lon="12.191589769270932"><ele>285.0</ele><time>2026-04-18T12:17:44.98Z</time></trkpt><trkpt lat="43.96316386279186" lon="12.191542858279295"><ele>285.0</ele><time>2026-04-18T12:17:45.98Z</time></trkpt><trkpt lat="43.96309091419767" lon="12.19146113812064"><ele>287.57142857142856</ele><time>2026-04-18T12:17:46.98Z</time></trkpt><trkpt lat="43.96303458931515" lon="12.191383174897142"><ele>290.14285714285717</ele><time>2026-04-18T12:17:47.98Z</time></trkpt><trkpt lat="43.96298598884873" lon="12.191306539747664"><ele>292.7142857142857</ele><time>2026-04-18T12:17:48.98Z</time></trkpt><trkpt lat="43.96293238748073" lon="12.191253960581014"><ele>295.2857142857143</ele><time>2026-04-18T12:17:49.98Z</time></trkpt><trkpt lat="43.96286697848549" lon="12.19122623005143"><ele>297.85714285714283</ele><time>2026-04-18T12:17:50.98Z</time></trkpt><trkpt lat="43.962781816697714" lon="12.191210730044167"><ele>300.42857142857144</ele><time>2026-04-18T12:17:51.98Z</time></trkpt><trkpt lat="43.962718905434784" lon="12.191244099281253"><ele>303.0</ele><time>2026-04-18T12:17:52.98Z</time></trkpt><trkpt lat="43.962661612923064" lon="12.191321046944347"><ele>303.0</ele><time>2026-04-18T12:17:53.98Z</time></trkpt><trkpt lat="43.96262630540429" lon="12.191426671549646"><ele>303.0</ele><time>2026-04-18T12:17:54.98Z</time></trkpt><trkpt lat="43.96258884600025" lon="12.191552407136072"><ele>303.0</ele><time>2026-04-18T12:17:55.98Z</time></trkpt><trkpt lat="43.962558302382675" lon="12.19167986284356"><ele>303.0</ele><time>2026-04-18T12:17:56.98Z</time></trkpt><trkpt lat="43.96252452436344" lon="12.191810421743018"><ele>303.0</ele><time>2026-04-18T12:17:57.98Z</time></trkpt><trkpt lat="43.96250229118088" lon="12.191927571087103"><ele>296.2</ele><time>2026-04-18T12:17:58.98Z</time></trkpt><trkpt lat="43.96246960561476" lon="12.192054754092844"><ele>289.4</ele><time>2026-04-18T12:17:59.98Z</time></trkpt><trkpt lat="43.96241781480419" lon="12.192164894273308"><ele>282.59999999999997</ele><time>2026-04-18T12:18:00.98Z</time></trkpt><trkpt lat="43.96235118710005" lon="12.19226601704172"><ele>275.8</ele><time>2026-04-18T12:18:01.98Z</time></trkpt><trkpt lat="43.96228510673361" lon="12.192334846212583"><ele>269.0</ele><time>2026-04-18T12:18:02.98Z</time></trkpt><trkpt lat="43.96220787587352" lon="12.192373766937047"><ele>263.0</ele><time>2026-04-18T12:18:03.98Z</time></trkpt><trkpt lat="43.96210057767527" lon="12.19239977688114"><ele>257.0</ele><time>2026-04-18T12:18:04.98Z</time></trkpt><trkpt lat="43.961983471982904" lon="12.192436961903505"><ele>251.0</ele><time>2026-04-18T12:18:05.98Z</time></trkpt><trkpt lat="43.961873671044366" lon="12.19246851427986"><ele>245.0</ele><time>2026-04-18T12:18:06.98Z</time></trkpt><trkpt lat="43.96176791937981" lon="12.192505646319866"><ele>247.0</ele><time>2026-04-18T12:18:07.98Z</time></trkpt><trkpt lat="43.96166876782183" lon="12.192547023800437"><ele>249.0</ele><time>2026-04-18T12:18:08.98Z</time></trkpt><trkpt lat="43.96156503584585" lon="12.192587741420164"><ele>251.0</ele><time>2026-04-18T12:18:09.98Z</time></trkpt><trkpt lat="43.961462874878926" lon="12.192637273772087"><ele>253.0</ele><time>2026-04-18T12:18:10.98Z</time></trkpt><trkpt lat="43.96135310325616" lon="12.192686342302416"><ele>255.0</ele><time>2026-04-18T12:18:11.98Z</time></trkpt><trkpt lat="43.961245995429486" lon="12.192709756428217"><ele>255.0</ele><time>2026-04-18T12:18:12.98Z</time></trkpt><trkpt lat="43.961128129673206" lon="12.192736545514034"><ele>255.0</ele><time>2026-04-18T12:18:13.98Z</time></trkpt><trkpt lat="43.961026612650016" lon="12.192728337070854"><ele>255.0</ele><time>2026-04-18T12:18:14.98Z</time></trkpt><trkpt lat="43.96091726986408" lon="12.192731164484325"><ele>255.0</ele><time>2026-04-18T12:18:15.98Z</time></trkpt><trkpt lat="43.960810746637534" lon="12.192739534551338"><ele>255.0</ele><time>2026-04-18T12:18:16.98Z</time></trkpt><trkpt lat="43.96070904966127" lon="12.192750984751518"><ele>254.2</ele><time>2026-04-18T12:18:17.98Z</time></trkpt><trkpt lat="43.96060137229431" lon="12.192761203010582"><ele>253.4</ele><time>2026-04-18T12:18:18.98Z</time></trkpt><trkpt lat="43.960498293631034" lon="12.192763709785627"><ele>252.60000000000002</ele><time>2026-04-18T12:18:19.979Z</time></trkpt><trkpt lat="43.960395305018814" lon="12.192745775167264"><ele>251.8</ele><time>2026-04-18T12:18:20.979Z</time></trkpt><trkpt lat="43.96028394754442" lon="12.192726761652946"><ele>251.0</ele><time>2026-04-18T12:18:21.979Z</time></trkpt><trkpt lat="43.96018643043246" lon="12.192709506591681"><ele>251.0</ele><time>2026-04-18T12:18:22.979Z</time></trkpt><trkpt lat="43.96009177748596" lon="12.19269507737546"><ele>251.00000000000003</ele><time>2026-04-18T12:18:23.979Z</time></trkpt><trkpt lat="43.96001084538722" lon="12.192652593185024"><ele>251.00000000000003</ele><time>2026-04-18T12:18:24.979Z</time></trkpt><trkpt lat="43.95993440809587" lon="12.19259201274382"><ele>251.0</ele><time>2026-04-18T12:18:25.979Z</time></trkpt><trkpt lat="43.959857970319725" lon="12.19249993734366"><ele>251.0</ele><time>2026-04-18T12:18:26.979Z</time></trkpt><trkpt lat="43.959776206421445" lon="12.192406281201617"><ele>250.8</ele><time>2026-04-18T12:18:27.979Z</time></trkpt><trkpt lat="43.95969768569519" lon="12.19231773543766"><ele>250.60000000000002</ele><time>2026-04-18T12:18:28.979Z</time></trkpt><trkpt lat="43.959612681707945" lon="12.19222335720374"><ele>250.4</ele><time>2026-04-18T12:18:29.979Z</time></trkpt><trkpt lat="43.95953531998811" lon="12.192134438829298"><ele>250.2</ele><time>2026-04-18T12:18:30.979Z</time></trkpt><trkpt lat="43.95945632615464" lon="12.192038265239672"><ele>250.0</ele><time>2026-04-18T12:18:31.979Z</time></trkpt><trkpt lat="43.95936689859665" lon="12.19195849505461"><ele>250.0</ele><time>2026-04-18T12:18:32.979Z</time></trkpt><trkpt lat="43.959281511501786" lon="12.191871892534218"><ele>250.0</ele><time>2026-04-18T12:18:33.979Z</time></trkpt><trkpt lat="43.95921289707022" lon="12.191786469017327"><ele>250.0</ele><time>2026-04-18T12:18:34.979Z</time></trkpt><trkpt lat="43.95915778122074" lon="12.191692318200793"><ele>250.0</ele><time>2026-04-18T12:18:35.979Z</time></trkpt><trkpt lat="43.95911931865029" lon="12.19159404925814"><ele>250.0</ele><time>2026-04-18T12:18:36.979Z</time></trkpt><trkpt lat="43.95909428276216" lon="12.191475159280106"><ele>245.66666666666666</ele><time>2026-04-18T12:18:37.979Z</time></trkpt><trkpt lat="43.95907235960731" lon="12.19134941764811"><ele>241.33333333333331</ele><time>2026-04-18T12:18:38.979Z</time></trkpt><trkpt lat="43.959071579667686" lon="12.191222165841445"><ele>237.0</ele><time>2026-04-18T12:18:39.979Z</time></trkpt><trkpt lat="43.95909074367916" lon="12.191103426467585"><ele>232.66666666666669</ele><time>2026-04-18T12:18:40.979Z</time></trkpt><trkpt lat="43.95908000143343" lon="12.190978774266252"><ele>228.33333333333334</ele><time>2026-04-18T12:18:41.979Z</time></trkpt><trkpt lat="43.95906332957416" lon="12.190864941882388"><ele>224.0</ele><time>2026-04-18T12:18:42.979Z</time></trkpt><trkpt lat="43.95901503902756" lon="12.190769521512571"><ele>224.00000000000003</ele><time>2026-04-18T12:18:43.979Z</time></trkpt><trkpt lat="43.958942705475174" lon="12.190717366803925"><ele>224.0</ele><time>2026-04-18T12:18:44.979Z</time></trkpt><trkpt lat="43.95886049155368" lon="12.19071810526341"><ele>224.0</ele><time>2026-04-18T12:18:45.979Z</time></trkpt><trkpt lat="43.958800090927795" lon="12.19076919329067"><ele>224.0</ele><time>2026-04-18T12:18:46.979Z</time></trkpt><trkpt lat="43.95874820340635" lon="12.190864898998317"><ele>224.00000000000003</ele><time>2026-04-18T12:18:47.979Z</time></trkpt><trkpt lat="43.958729239626" lon="12.190975055253535"><ele>224.0</ele><time>2026-04-18T12:18:48.979Z</time></trkpt><trkpt lat="43.95873585005524" lon="12.191105442375184"><ele>224.0</ele><time>2026-04-18T12:18:49.979Z</time></trkpt><trkpt lat="43.95875567303444" lon="12.19124286378907"><ele>223.99999999999997</ele><time>2026-04-18T12:18:50.979Z</time></trkpt><trkpt lat="43.958771005020616" lon="12.191390543352076"><ele>223.99999999999997</ele><time>2026-04-18T12:18:51.979Z</time></trkpt><trkpt lat="43.958792015846775" lon="12.191543294264678"><ele>224.0</ele><time>2026-04-18T12:18:52.979Z</time></trkpt><trkpt lat="43.95880094431968" lon="12.191680087236785"><ele>224.0</ele><time>2026-04-18T12:18:53.979Z</time></trkpt><trkpt lat="43.958802570528654" lon="12.191819600707264"><ele>223.79999999999998</ele><time>2026-04-18T12:18:54.979Z</time></trkpt><trkpt lat="43.958793231280396" lon="12.191951672934401"><ele>223.59999999999997</ele><time>2026-04-18T12:18:55.979Z</time></trkpt><trkpt lat="43.958770193925965" lon="12.192078019584217"><ele>223.4</ele><time>2026-04-18T12:18:56.979Z</time></trkpt><trkpt lat="43.95872680203561" lon="12.192214218051605"><ele>223.2</ele><time>2026-04-18T12:18:57.979Z</time></trkpt><trkpt lat="43.95867480151418" lon="12.192340750117948"><ele>223.0</ele><time>2026-04-18T12:18:58.979Z</time></trkpt><trkpt lat="43.958617610985165" lon="12.192457791421367"><ele>222.4</ele><time>2026-04-18T12:18:59.979Z</time></trkpt><trkpt lat="43.958558217672135" lon="12.19256815519944"><ele>221.8</ele><time>2026-04-18T12:19:00.979Z</time></trkpt><trkpt lat="43.958483366683204" lon="12.192676833338163"><ele>221.2</ele><time>2026-04-18T12:19:01.979Z</time></trkpt><trkpt lat="43.95841367687515" lon="12.192783206814187"><ele>220.6</ele><time>2026-04-18T12:19:02.979Z</time></trkpt><trkpt lat="43.95835726073532" lon="12.192888357743062"><ele>220.0</ele><time>2026-04-18T12:19:03.979Z</time></trkpt><trkpt lat="43.95832253906194" lon="12.193016469100089"><ele>217.6</ele><time>2026-04-18T12:19:04.979Z</time></trkpt><trkpt lat="43.95831098960914" lon="12.193163301234149"><ele>215.2</ele><time>2026-04-18T12:19:05.979Z</time></trkpt><trkpt lat="43.9583187713401" lon="12.193316311673943"><ele>212.8</ele><time>2026-04-18T12:19:06.979Z</time></trkpt><trkpt lat="43.9583487941066" lon="12.193457320951905"><ele>210.4</ele><time>2026-04-18T12:19:07.979Z</time></trkpt><trkpt lat="43.95840664882097" lon="12.193581720439845"><ele>208.0</ele><time>2026-04-18T12:19:08.979Z</time></trkpt><trkpt lat="43.95848060144343" lon="12.193677186615728"><ele>208.0</ele><time>2026-04-18T12:19:09.979Z</time></trkpt><trkpt lat="43.9585617585005" lon="12.193781685578289"><ele>208.0</ele><time>2026-04-18T12:19:10.979Z</time></trkpt><trkpt lat="43.958643578153335" lon="12.193873478597151"><ele>208.0</ele><time>2026-04-18T12:19:11.979Z</time></trkpt><trkpt lat="43.95871970522143" lon="12.193970066254726"><ele>208.0</ele><time>2026-04-18T12:19:12.979Z</time></trkpt><trkpt lat="43.958806112969256" lon="12.194051359698634"><ele>208.0</ele><time>2026-04-18T12:19:13.979Z</time></trkpt><trkpt lat="43.95888865489315" lon="12.194134288518896"><ele>204.0</ele><time>2026-04-18T12:19:14.979Z</time></trkpt><trkpt lat="43.9589825914825" lon="12.194221563205746"><ele>200.0</ele><time>2026-04-18T12:19:15.979Z</time></trkpt><trkpt lat="43.9590902041948" lon="12.19430139282384"><ele>196.0</ele><time>2026-04-18T12:19:16.979Z</time></trkpt><trkpt lat="43.9591860286709" lon="12.194366413072087"><ele>192.0</ele><time>2026-04-18T12:19:17.979Z</time></trkpt><trkpt lat="43.959293225228436" lon="12.194383603628273"><ele>192.0</ele><time>2026-04-18T12:19:18.979Z</time></trkpt><trkpt lat="43.95939775141194" lon="12.19449256543919"><ele>192.0</ele><time>2026-04-18T12:19:19.979Z</time></trkpt><trkpt lat="43.95950188786591" lon="12.194450569301372"><ele>192.0</ele><time>2026-04-18T12:19:20.979Z</time></trkpt><trkpt lat="43.959568559967735" lon="12.194414274015534"><ele>192.0</ele><time>2026-04-18T12:19:21.979Z</time></trkpt><trkpt lat="43.959652755925084" lon="12.194449915738666"><ele>192.0</ele><time>2026-04-18T12:19:22.979Z</time></trkpt><trkpt lat="43.95974212874039" lon="12.194486536647851"><ele>192.0</ele><time>2026-04-18T12:19:23.979Z</time></trkpt><trkpt lat="43.95984726061516" lon="12.194533760126099"><ele>192.0</ele><time>2026-04-18T12:19:24.979Z</time></trkpt><trkpt lat="43.95994823459994" lon="12.194588803012671"><ele>192.0</ele><time>2026-04-18T12:19:25.979Z</time></trkpt><trkpt lat="43.9600488527576" lon="12.194631633864345"><ele>192.0</ele><time>2026-04-18T12:19:26.978Z</time></trkpt><trkpt lat="43.96013723512059" lon="12.194687347648976"><ele>192.0</ele><time>2026-04-18T12:19:27.979Z</time></trkpt><trkpt lat="43.960222006178626" lon="12.194728740899869"><ele>193.0</ele><time>2026-04-18T12:19:28.979Z</time></trkpt><trkpt lat="43.960312837653056" lon="12.19478383875275"><ele>194.0</ele><time>2026-04-18T12:19:29.979Z</time></trkpt><trkpt lat="43.96039324971354" lon="12.194833240363577"><ele>195.0</ele><time>2026-04-18T12:19:30.979Z</time></trkpt><trkpt lat="43.96047426513424" lon="12.194873357517405"><ele>196.0</ele><time>2026-04-18T12:19:31.979Z</time></trkpt><trkpt lat="43.96057473707001" lon="12.194917675111276"><ele>197.0</ele><time>2026-04-18T12:19:32.979Z</time></trkpt><trkpt lat="43.96066812110269" lon="12.194967631428186"><ele>195.16666666666669</ele><time>2026-04-18T12:19:33.979Z</time></trkpt><trkpt lat="43.960752925304035" lon="12.195018980644837"><ele>193.33333333333334</ele><time>2026-04-18T12:19:34.979Z</time></trkpt><trkpt lat="43.96084096735463" lon="12.195066182772258"><ele>191.5</ele><time>2026-04-18T12:19:35.979Z</time></trkpt><trkpt lat="43.96092214271844" lon="12.19509750339952"><ele>189.66666666666669</ele><time>2026-04-18T12:19:36.979Z</time></trkpt><trkpt lat="43.9610007857508" lon="12.195132922034864"><ele>187.83333333333334</ele><time>2026-04-18T12:19:37.979Z</time></trkpt><trkpt lat="43.96106178642973" lon="12.195175378496636"><ele>186.0</ele><time>2026-04-18T12:19:38.979Z</time></trkpt><trkpt lat="43.96112556231702" lon="12.19521413984997"><ele>186.0</ele><time>2026-04-18T12:19:39.979Z</time></trkpt><trkpt lat="43.961202327584786" lon="12.195259952164315"><ele>186.0</ele><time>2026-04-18T12:19:40.979Z</time></trkpt><trkpt lat="43.96127910430032" lon="12.195316690871577"><ele>186.0</ele><time>2026-04-18T12:19:41.978Z</time></trkpt><trkpt lat="43.961376707453894" lon="12.195378468893944"><ele>186.0</ele><time>2026-04-18T12:19:42.978Z</time></trkpt><trkpt lat="43.96146530618275" lon="12.195428707607608"><ele>186.0</ele><time>2026-04-18T12:19:43.978Z</time></trkpt><trkpt lat="43.961564947803" lon="12.195492770845279"><ele>186.0</ele><time>2026-04-18T12:19:44.978Z</time></trkpt><trkpt lat="43.961650379265784" lon="12.195559883966752"><ele>186.0</ele><time>2026-04-18T12:19:45.978Z</time></trkpt><trkpt lat="43.96173556404973" lon="12.195625402650759"><ele>186.0</ele><time>2026-04-18T12:19:46.978Z</time></trkpt><trkpt lat="43.96182535062415" lon="12.195673638501594"><ele>186.0</ele><time>2026-04-18T12:19:47.978Z</time></trkpt><trkpt lat="43.96190809588329" lon="12.195715699607108"><ele>186.0</ele><time>2026-04-18T12:19:48.978Z</time></trkpt><trkpt lat="43.96198485126332" lon="12.195749765073769"><ele>184.83333333333334</ele><time>2026-04-18T12:19:49.978Z</time></trkpt><trkpt lat="43.962050983713404" lon="12.195790569344716"><ele>183.66666666666666</ele><time>2026-04-18T12:19:50.978Z</time></trkpt><trkpt lat="43.962141890179105" lon="12.195876395949664"><ele>182.5</ele><time>2026-04-18T12:19:52.978Z</time></trkpt><trkpt lat="43.962151185044384" lon="12.196012086494287"><ele>181.33333333333331</ele><time>2026-04-18T12:19:54.978Z</time></trkpt><trkpt lat="43.96211595779464" lon="12.196114705610235"><ele>180.16666666666666</ele><time>2026-04-18T12:19:55.978Z</time></trkpt><trkpt lat="43.96207386968867" lon="12.196197126567792"><ele>179.0</ele><time>2026-04-18T12:19:56.978Z</time></trkpt><trkpt lat="43.96203694428031" lon="12.196278671404524"><ele>179.0</ele><time>2026-04-18T12:19:57.978Z</time></trkpt><trkpt lat="43.96200145915027" lon="12.196358138337752"><ele>179.0</ele><time>2026-04-18T12:19:58.978Z</time></trkpt><trkpt lat="43.961934502082805" lon="12.196462459341959"><ele>179.0</ele><time>2026-04-18T12:20:00.978Z</time></trkpt><trkpt lat="43.96185518512279" lon="12.196540125071289"><ele>179.0</ele><time>2026-04-18T12:20:03.978Z</time></trkpt><trkpt lat="43.961747533537626" lon="12.196568938869571"><ele>179.0</ele><time>2026-04-18T12:20:05.978Z</time></trkpt><trkpt lat="43.96168355766117" lon="12.196597295593156"><ele>179.0</ele><time>2026-04-18T12:20:06.978Z</time></trkpt><trkpt lat="43.96161256451945" lon="12.196618929075363"><ele>177.39999999999998</ele><time>2026-04-18T12:20:07.978Z</time></trkpt><trkpt lat="43.9615428186303" lon="12.196633897961794"><ele>175.8</ele><time>2026-04-18T12:20:08.978Z</time></trkpt><trkpt lat="43.96141758375894" lon="12.19664705460125"><ele>174.2</ele><time>2026-04-18T12:20:10.978Z</time></trkpt><trkpt lat="43.96129547145676" lon="12.19666107886734"><ele>172.60000000000002</ele><time>2026-04-18T12:20:12.978Z</time></trkpt><trkpt lat="43.96121237270718" lon="12.196684870588959"><ele>171.0</ele><time>2026-04-18T12:20:13.978Z</time></trkpt><trkpt lat="43.9611412924181" lon="12.196692838165838"><ele>171.0</ele><time>2026-04-18T12:20:14.978Z</time></trkpt><trkpt lat="43.961068682284974" lon="12.19669506086911"><ele>171.0</ele><time>2026-04-18T12:20:15.978Z</time></trkpt><trkpt lat="43.9609913570527" lon="12.196698499747015"><ele>171.0</ele><time>2026-04-18T12:20:16.978Z</time></trkpt><trkpt lat="43.96090969647261" lon="12.19672129265915"><ele>171.0</ele><time>2026-04-18T12:20:17.978Z</time></trkpt><trkpt lat="43.960820444186226" lon="12.196741718631166"><ele>171.0</ele><time>2026-04-18T12:20:18.978Z</time></trkpt><trkpt lat="43.960742762891314" lon="12.19676179652378"><ele>171.0</ele><time>2026-04-18T12:20:19.978Z</time></trkpt><trkpt lat="43.96064383273" lon="12.196795988928423"><ele>169.8</ele><time>2026-04-18T12:20:20.978Z</time></trkpt><trkpt lat="43.960552117124706" lon="12.19680065092016"><ele>168.60000000000002</ele><time>2026-04-18T12:20:21.978Z</time></trkpt><trkpt lat="43.96043479128267" lon="12.196800705573652"><ele>167.4</ele><time>2026-04-18T12:20:22.978Z</time></trkpt><trkpt lat="43.960325302849654" lon="12.196809656764326"><ele>166.2</ele><time>2026-04-18T12:20:23.978Z</time></trkpt><trkpt lat="43.96021814478948" lon="12.196800434350738"><ele>165.0</ele><time>2026-04-18T12:20:24.978Z</time></trkpt><trkpt lat="43.96011155787923" lon="12.196793139458935"><ele>163.83333333333334</ele><time>2026-04-18T12:20:25.978Z</time></trkpt><trkpt lat="43.960024126763344" lon="12.196811316138469"><ele>162.66666666666666</ele><time>2026-04-18T12:20:26.978Z</time></trkpt><trkpt lat="43.959954884258316" lon="12.196822623722062"><ele>161.5</ele><time>2026-04-18T12:20:27.978Z</time></trkpt><trkpt lat="43.95984101846753" lon="12.196844070454416"><ele>160.33333333333331</ele><time>2026-04-18T12:20:29.978Z</time></trkpt><trkpt lat="43.959878276357664" lon="12.196762534296898"><ele>159.16666666666666</ele><time>2026-04-18T12:20:32.978Z</time></trkpt><trkpt lat="43.95980726430523" lon="12.196725187269578"><ele>158.0</ele><time>2026-04-18T12:20:35.978Z</time></trkpt><trkpt lat="43.959734426617004" lon="12.19671635231483"><ele>158.0</ele><time>2026-04-18T12:20:38.978Z</time></trkpt><trkpt lat="43.95965122311316" lon="12.196695611487087"><ele>158.0</ele><time>2026-04-18T12:20:40.978Z</time></trkpt><trkpt lat="43.95959109456708" lon="12.196665136230981"><ele>158.0</ele><time>2026-04-18T12:20:41.978Z</time></trkpt><trkpt lat="43.95952609201282" lon="12.19662381609572"><ele>158.0</ele><time>2026-04-18T12:20:42.978Z</time></trkpt><trkpt lat="43.959451695550904" lon="12.19657581303724"><ele>158.0</ele><time>2026-04-18T12:20:43.978Z</time></trkpt><trkpt lat="43.959375232915434" lon="12.19653818990724"><ele>158.0</ele><time>2026-04-18T12:20:44.978Z</time></trkpt><trkpt lat="43.959304615605966" lon="12.19650546657557"><ele>158.0</ele><time>2026-04-18T12:20:45.978Z</time></trkpt><trkpt lat="43.959238781756795" lon="12.196459516767293"><ele>158.0</ele><time>2026-04-18T12:20:46.978Z</time></trkpt><trkpt lat="43.959168362394884" lon="12.196411486165461"><ele>158.0</ele><time>2026-04-18T12:20:47.978Z</time></trkpt><trkpt lat="43.95910267894908" lon="12.196352888704915"><ele>158.0</ele><time>2026-04-18T12:20:48.978Z</time></trkpt><trkpt lat="43.959025301309914" lon="12.196307445994911"><ele>158.0</ele><time>2026-04-18T12:20:49.978Z</time></trkpt><trkpt lat="43.95894078867373" lon="12.196253139761247"><ele>158.0</ele><time>2026-04-18T12:20:50.978Z</time></trkpt><trkpt lat="43.958850602494216" lon="12.196194380492496"><ele>158.0</ele><time>2026-04-18T12:20:51.978Z</time></trkpt><trkpt lat="43.958759470797254" lon="12.196128800812552"><ele>158.0</ele><time>2026-04-18T12:20:52.978Z</time></trkpt><trkpt lat="43.95866376205788" lon="12.19607031146538"><ele>158.0</ele><time>2026-04-18T12:20:53.978Z</time></trkpt><trkpt lat="43.958570726070946" lon="12.196015374355275"><ele>158.0</ele><time>2026-04-18T12:20:54.978Z</time></trkpt><trkpt lat="43.95847724229607" lon="12.195956519589169"><ele>158.0</ele><time>2026-04-18T12:20:55.978Z</time></trkpt><trkpt lat="43.95838617269525" lon="12.195894630832463"><ele>157.25</ele><time>2026-04-18T12:20:56.978Z</time></trkpt><trkpt lat="43.95828903809167" lon="12.195840507305613"><ele>156.5</ele><time>2026-04-18T12:20:57.978Z</time></trkpt><trkpt lat="43.958189637699356" lon="12.195771741914387"><ele>155.75</ele><time>2026-04-18T12:20:58.978Z</time></trkpt><trkpt lat="43.95807732173413" lon="12.195709024992627"><ele>155.0</ele><time>2026-04-18T12:20:59.978Z</time></trkpt><trkpt lat="43.957967918435735" lon="12.19564955133947"><ele>156.2</ele><time>2026-04-18T12:21:00.978Z</time></trkpt><trkpt lat="43.957868544175085" lon="12.195577440248027"><ele>157.4</ele><time>2026-04-18T12:21:01.978Z</time></trkpt><trkpt lat="43.957774853022016" lon="12.195512970402334"><ele>158.60000000000002</ele><time>2026-04-18T12:21:02.978Z</time></trkpt><trkpt lat="43.95767479648323" lon="12.195462641482097"><ele>159.8</ele><time>2026-04-18T12:21:03.978Z</time></trkpt><trkpt lat="43.95757516656395" lon="12.195412629287267"><ele>161.0</ele><time>2026-04-18T12:21:04.978Z</time></trkpt><trkpt lat="43.957473767814456" lon="12.195382217645442"><ele>161.0</ele><time>2026-04-18T12:21:05.978Z</time></trkpt><trkpt lat="43.957367441510485" lon="12.195370860378437"><ele>161.0</ele><time>2026-04-18T12:21:06.978Z</time></trkpt><trkpt lat="43.95725190740232" lon="12.195366680389833"><ele>161.0</ele><time>2026-04-18T12:21:07.978Z</time></trkpt><trkpt lat="43.95714279364333" lon="12.195368119342984"><ele>161.0</ele><time>2026-04-18T12:21:08.978Z</time></trkpt><trkpt lat="43.95703901237798" lon="12.195347771637872"><ele>161.0</ele><time>2026-04-18T12:21:09.978Z</time></trkpt><trkpt lat="43.956827148520595" lon="12.1952795233274"><ele>161.0</ele><time>2026-04-18T12:21:11.978Z</time></trkpt><trkpt lat="43.956736941829725" lon="12.195219696085429"><ele>161.0</ele><time>2026-04-18T12:21:12.977Z</time></trkpt><trkpt lat="43.95666522779157" lon="12.195147327557393"><ele>161.0</ele><time>2026-04-18T12:21:13.977Z</time></trkpt><trkpt lat="43.95659198891976" lon="12.195048853129608"><ele>161.0</ele><time>2026-04-18T12:21:14.977Z</time></trkpt><trkpt lat="43.956536197246244" lon="12.194948208534507"><ele>161.0</ele><time>2026-04-18T12:21:15.977Z</time></trkpt><trkpt lat="43.956505682191974" lon="12.19482789621934"><ele>160.4</ele><time>2026-04-18T12:21:16.977Z</time></trkpt><trkpt lat="43.9564724572718" lon="12.194704937965504"><ele>159.8</ele><time>2026-04-18T12:21:17.977Z</time></trkpt><trkpt lat="43.95645385383973" lon="12.194547302862103"><ele>159.20000000000002</ele><time>2026-04-18T12:21:18.977Z</time></trkpt><trkpt lat="43.95643403844333" lon="12.19441151254963"><ele>158.60000000000002</ele><time>2026-04-18T12:21:19.977Z</time></trkpt><trkpt lat="43.956399998973446" lon="12.194285890464418"><ele>158.0</ele><time>2026-04-18T12:21:20.977Z</time></trkpt><trkpt lat="43.956358383902206" lon="12.194160380609175"><ele>158.0</ele><time>2026-04-18T12:21:21.977Z</time></trkpt><trkpt lat="43.956297055894865" lon="12.19402537061222"><ele>158.0</ele><time>2026-04-18T12:21:22.977Z</time></trkpt><trkpt lat="43.956221020958324" lon="12.193904187361655"><ele>158.0</ele><time>2026-04-18T12:21:23.977Z</time></trkpt><trkpt lat="43.95614130493897" lon="12.193780889424408"><ele>158.0</ele><time>2026-04-18T12:21:24.977Z</time></trkpt><trkpt lat="43.9560697813878" lon="12.193653339516317"><ele>158.60000000000002</ele><time>2026-04-18T12:21:25.977Z</time></trkpt><trkpt lat="43.955995231612874" lon="12.193529839316584"><ele>159.20000000000002</ele><time>2026-04-18T12:21:26.977Z</time></trkpt><trkpt lat="43.95591714602764" lon="12.193416569893476"><ele>159.8</ele><time>2026-04-18T12:21:27.977Z</time></trkpt><trkpt lat="43.95583909240268" lon="12.193298270491619"><ele>160.4</ele><time>2026-04-18T12:21:28.977Z</time></trkpt><trkpt lat="43.955765811917104" lon="12.193195501777366"><ele>161.0</ele><time>2026-04-18T12:21:29.977Z</time></trkpt><trkpt lat="43.95569621699144" lon="12.193087770856577"><ele>159.4</ele><time>2026-04-18T12:21:30.977Z</time></trkpt><trkpt lat="43.95563169278051" lon="12.192977304510242"><ele>157.8</ele><time>2026-04-18T12:21:31.977Z</time></trkpt><trkpt lat="43.95556073411561" lon="12.192869643618709"><ele>156.20000000000002</ele><time>2026-04-18T12:21:32.977Z</time></trkpt><trkpt lat="43.95548616490609" lon="12.192775977668287"><ele>154.60000000000002</ele><time>2026-04-18T12:21:33.977Z</time></trkpt><trkpt lat="43.95539545478336" lon="12.192706340316615"><ele>153.0</ele><time>2026-04-18T12:21:34.977Z</time></trkpt><trkpt lat="43.95529164664637" lon="12.19266102738551"><ele>153.0</ele><time>2026-04-18T12:21:35.977Z</time></trkpt><trkpt lat="43.95518362465548" lon="12.192626972435177"><ele>153.0</ele><time>2026-04-18T12:21:36.977Z</time></trkpt><trkpt lat="43.955073514738956" lon="12.192582231832208"><ele>153.0</ele><time>2026-04-18T12:21:37.977Z</time></trkpt><trkpt lat="43.95496103227717" lon="12.192523687540293"><ele>153.0</ele><time>2026-04-18T12:21:38.977Z</time></trkpt><trkpt lat="43.954839784888094" lon="12.1924383009791"><ele>152.5</ele><time>2026-04-18T12:21:39.977Z</time></trkpt><trkpt lat="43.95472241143763" lon="12.192339553094422"><ele>152.0</ele><time>2026-04-18T12:21:40.977Z</time></trkpt><trkpt lat="43.954610764062885" lon="12.192231489242978"><ele>151.5</ele><time>2026-04-18T12:21:41.976Z</time></trkpt><trkpt lat="43.954497066013005" lon="12.192128590273741"><ele>151.0</ele><time>2026-04-18T12:21:42.977Z</time></trkpt><trkpt lat="43.954388862986164" lon="12.192029804529076"><ele>151.0</ele><time>2026-04-18T12:21:43.977Z</time></trkpt><trkpt lat="43.95429622114149" lon="12.19194771434197"><ele>151.0</ele><time>2026-04-18T12:21:44.977Z</time></trkpt><trkpt lat="43.954205550901705" lon="12.191888694110332"><ele>151.0</ele><time>2026-04-18T12:21:45.977Z</time></trkpt><trkpt lat="43.95413587342482" lon="12.191863996687394"><ele>151.0</ele><time>2026-04-18T12:21:46.977Z</time></trkpt><trkpt lat="43.954125711529734" lon="12.191761911993202"><ele>151.0</ele><time>2026-04-18T12:21:49.977Z</time></trkpt><trkpt lat="43.954200275398605" lon="12.191877659073096"><ele>151.0</ele><time>2026-04-18T12:21:55.977Z</time></trkpt><trkpt lat="43.954252929653784" lon="12.191945434655485"><ele>151.0</ele><time>2026-04-18T12:21:56.977Z</time></trkpt><trkpt lat="43.95432706602643" lon="12.192031309034114"><ele>151.0</ele><time>2026-04-18T12:21:58.977Z</time></trkpt><trkpt lat="43.95440014330302" lon="12.192087971376534"><ele>151.0</ele><time>2026-04-18T12:22:30.976Z</time></trkpt><trkpt lat="43.95447601967487" lon="12.1921737101686"><ele>151.0</ele><time>2026-04-18T12:22:32.976Z</time></trkpt><trkpt lat="43.954523983805174" lon="12.192235298037012"><ele>151.0</ele><time>2026-04-18T12:22:33.976Z</time></trkpt><trkpt lat="43.95457505706277" lon="12.192306723582135"><ele>149.5</ele><time>2026-04-18T12:22:34.976Z</time></trkpt><trkpt lat="43.954620067776375" lon="12.192389959104988"><ele>148.0</ele><time>2026-04-18T12:22:35.976Z</time></trkpt><trkpt lat="43.954677012606886" lon="12.192469079764503"><ele>146.5</ele><time>2026-04-18T12:22:36.976Z</time></trkpt><trkpt lat="43.95470940184418" lon="12.19255353312879"><ele>145.0</ele><time>2026-04-18T12:22:37.976Z</time></trkpt><trkpt lat="43.95477573256386" lon="12.192650273831164"><ele>143.5</ele><time>2026-04-18T12:22:38.976Z</time></trkpt><trkpt lat="43.954832461575684" lon="12.19273901645609"><ele>142.0</ele><time>2026-04-18T12:22:39.976Z</time></trkpt><trkpt lat="43.95489007914067" lon="12.192836946830655"><ele>142.0</ele><time>2026-04-18T12:22:40.976Z</time></trkpt><trkpt lat="43.95495831189352" lon="12.192931817889935"><ele>142.0</ele><time>2026-04-18T12:22:41.976Z</time></trkpt><trkpt lat="43.95501765386687" lon="12.193022533442086"><ele>142.0</ele><time>2026-04-18T12:22:42.976Z</time></trkpt><trkpt lat="43.95506517221962" lon="12.19311181892898"><ele>142.0</ele><time>2026-04-18T12:22:43.976Z</time></trkpt><trkpt lat="43.95512439194462" lon="12.19321634328521"><ele>142.0</ele><time>2026-04-18T12:22:44.976Z</time></trkpt><trkpt lat="43.95519142277524" lon="12.19332109533485"><ele>142.5</ele><time>2026-04-18T12:22:45.976Z</time></trkpt><trkpt lat="43.955254788831596" lon="12.193419636957376"><ele>143.0</ele><time>2026-04-18T12:22:46.976Z</time></trkpt><trkpt lat="43.95532093964789" lon="12.193510027764"><ele>143.5</ele><time>2026-04-18T12:22:47.976Z</time></trkpt><trkpt lat="43.955375697067936" lon="12.193594256797288"><ele>144.0</ele><time>2026-04-18T12:22:48.976Z</time></trkpt><trkpt lat="43.9554222524107" lon="12.19368036549665"><ele>144.5</ele><time>2026-04-18T12:22:49.976Z</time></trkpt><trkpt lat="43.95546745939375" lon="12.193760592399142"><ele>145.0</ele><time>2026-04-18T12:22:50.976Z</time></trkpt><trkpt lat="43.955510075177926" lon="12.193846484670054"><ele>145.0</ele><time>2026-04-18T12:22:51.976Z</time></trkpt><trkpt lat="43.95554557827522" lon="12.193942229587503"><ele>145.0</ele><time>2026-04-18T12:22:52.976Z</time></trkpt><trkpt lat="43.95557428489391" lon="12.194041425622302"><ele>145.0</ele><time>2026-04-18T12:22:53.976Z</time></trkpt><trkpt lat="43.95559708537204" lon="12.194134769222686"><ele>145.0</ele><time>2026-04-18T12:22:54.976Z</time></trkpt><trkpt lat="43.95561944953983" lon="12.194236798473199"><ele>145.0</ele><time>2026-04-18T12:22:55.976Z</time></trkpt><trkpt lat="43.955645457571926" lon="12.19433626552544"><ele>145.0</ele><time>2026-04-18T12:22:56.976Z</time></trkpt><trkpt lat="43.955666565437326" lon="12.19444869142939"><ele>144.0</ele><time>2026-04-18T12:22:57.976Z</time></trkpt><trkpt lat="43.955683695767114" lon="12.194555080499688"><ele>143.0</ele><time>2026-04-18T12:22:58.976Z</time></trkpt><trkpt lat="43.95568975252582" lon="12.194657614107301"><ele>142.0</ele><time>2026-04-18T12:22:59.976Z</time></trkpt><trkpt lat="43.95570342314643" lon="12.194777679215598"><ele>141.0</ele><time>2026-04-18T12:23:00.976Z</time></trkpt><trkpt lat="43.95572726814542" lon="12.194878752451437"><ele>140.0</ele><time>2026-04-18T12:23:01.976Z</time></trkpt><trkpt lat="43.955740611028986" lon="12.19499053349599"><ele>139.0</ele><time>2026-04-18T12:23:02.976Z</time></trkpt><trkpt lat="43.95574482542061" lon="12.19509724104785"><ele>138.83333333333334</ele><time>2026-04-18T12:23:03.976Z</time></trkpt><trkpt lat="43.95576287135512" lon="12.195207271998129"><ele>138.66666666666669</ele><time>2026-04-18T12:23:04.976Z</time></trkpt><trkpt lat="43.955777025443524" lon="12.19531496525121"><ele>138.5</ele><time>2026-04-18T12:23:05.976Z</time></trkpt><trkpt lat="43.95578889113899" lon="12.19541759120184"><ele>138.33333333333334</ele><time>2026-04-18T12:23:06.976Z</time></trkpt><trkpt lat="43.955757545916796" lon="12.195571548873973"><ele>138.16666666666666</ele><time>2026-04-18T12:23:08.976Z</time></trkpt><trkpt lat="43.955700241103415" lon="12.195610351077901"><ele>138.0</ele><time>2026-04-18T12:23:09.976Z</time></trkpt><trkpt lat="43.95562925196734" lon="12.195632328482418"><ele>137.20000000000002</ele><time>2026-04-18T12:23:10.976Z</time></trkpt><trkpt lat="43.955531380937835" lon="12.19567278392764"><ele>136.4</ele><time>2026-04-18T12:23:11.976Z</time></trkpt><trkpt lat="43.95544174645972" lon="12.195699716173205"><ele>135.60000000000002</ele><time>2026-04-18T12:23:12.976Z</time></trkpt><trkpt lat="43.955360403028585" lon="12.195731247426924"><ele>134.8</ele><time>2026-04-18T12:23:13.976Z</time></trkpt><trkpt lat="43.955265862375505" lon="12.195766227304471"><ele>134.0</ele><time>2026-04-18T12:23:14.976Z</time></trkpt><trkpt lat="43.9551618637867" lon="12.195798534888675"><ele>134.0</ele><time>2026-04-18T12:23:15.976Z</time></trkpt><trkpt lat="43.955087230546944" lon="12.195824871102547"><ele>134.0</ele><time>2026-04-18T12:23:16.976Z</time></trkpt><trkpt lat="43.955013841964764" lon="12.19583296304325"><ele>134.0</ele><time>2026-04-18T12:23:17.976Z</time></trkpt><trkpt lat="43.954951746721065" lon="12.195800852742714"><ele>134.0</ele><time>2026-04-18T12:23:18.976Z</time></trkpt><trkpt lat="43.95488097014751" lon="12.195751925009041"><ele>134.0</ele><time>2026-04-18T12:23:19.976Z</time></trkpt><trkpt lat="43.954795592273804" lon="12.195685645391794"><ele>134.0</ele><time>2026-04-18T12:23:20.976Z</time></trkpt><trkpt lat="43.95470102166671" lon="12.195632413458606"><ele>134.8</ele><time>2026-04-18T12:23:21.976Z</time></trkpt><trkpt lat="43.95461077468468" lon="12.195584259852843"><ele>135.60000000000002</ele><time>2026-04-18T12:23:22.976Z</time></trkpt><trkpt lat="43.954531320638935" lon="12.195549619022806"><ele>136.4</ele><time>2026-04-18T12:23:23.976Z</time></trkpt><trkpt lat="43.95443773205884" lon="12.19552680042964"><ele>137.20000000000002</ele><time>2026-04-18T12:23:24.976Z</time></trkpt><trkpt lat="43.954334774590755" lon="12.195498018539048"><ele>138.0</ele><time>2026-04-18T12:23:25.976Z</time></trkpt><trkpt lat="43.95423692440407" lon="12.19546923167744"><ele>141.33333333333334</ele><time>2026-04-18T12:23:26.976Z</time></trkpt><trkpt lat="43.95416344446123" lon="12.195440315337"><ele>144.66666666666666</ele><time>2026-04-18T12:23:27.976Z</time></trkpt><trkpt lat="43.9540886350195" lon="12.195390784886293"><ele>148.0</ele><time>2026-04-18T12:23:28.976Z</time></trkpt><trkpt lat="43.95399783934411" lon="12.195364204030856"><ele>151.33333333333331</ele><time>2026-04-18T12:23:29.976Z</time></trkpt><trkpt lat="43.953927894483726" lon="12.195342583791374"><ele>154.66666666666666</ele><time>2026-04-18T12:23:30.976Z</time></trkpt><trkpt lat="43.95382079018755" lon="12.195416253279191"><ele>158.0</ele><time>2026-04-18T12:23:32.976Z</time></trkpt><trkpt lat="43.95380605209519" lon="12.195548308688782"><ele>158.0</ele><time>2026-04-18T12:23:34.976Z</time></trkpt><trkpt lat="43.953893937434884" lon="12.195624388488044"><ele>158.0</ele><time>2026-04-18T12:23:36.974Z</time></trkpt><trkpt lat="43.95396995015726" lon="12.19562569396302"><ele>158.0</ele><time>2026-04-18T12:23:38.975Z</time></trkpt><trkpt lat="43.953986108846244" lon="12.19553318726673"><ele>158.0</ele><time>2026-04-18T12:23:50.974Z</time></trkpt><trkpt lat="43.95405206587891" lon="12.195526962945301"><ele>158.0</ele><time>2026-04-18T12:24:00.974Z</time></trkpt><trkpt lat="43.95417474665299" lon="12.195540295110137"><ele>158.0</ele><time>2026-04-18T12:24:02.974Z</time></trkpt><trkpt lat="43.95423916656627" lon="12.195554623481499"><ele>156.16666666666666</ele><time>2026-04-18T12:24:03.974Z</time></trkpt><trkpt lat="43.95431448399442" lon="12.1955719015676"><ele>154.33333333333331</ele><time>2026-04-18T12:24:04.974Z</time></trkpt><trkpt lat="43.95438670693313" lon="12.195615031889872"><ele>152.5</ele><time>2026-04-18T12:24:05.974Z</time></trkpt><trkpt lat="43.95447201707306" lon="12.195656524194003"><ele>150.66666666666666</ele><time>2026-04-18T12:24:06.974Z</time></trkpt><trkpt lat="43.954554191875935" lon="12.195701571184555"><ele>148.83333333333334</ele><time>2026-04-18T12:24:07.974Z</time></trkpt><trkpt lat="43.95463111057591" lon="12.195760697401651"><ele>147.0</ele><time>2026-04-18T12:24:08.974Z</time></trkpt><trkpt lat="43.95470393427748" lon="12.195843634982907"><ele>147.0</ele><time>2026-04-18T12:24:09.974Z</time></trkpt><trkpt lat="43.95478354041813" lon="12.195935933364051"><ele>147.0</ele><time>2026-04-18T12:24:10.974Z</time></trkpt><trkpt lat="43.954847620826946" lon="12.196056604469574"><ele>147.0</ele><time>2026-04-18T12:24:11.974Z</time></trkpt><trkpt lat="43.954912570477696" lon="12.196179298236764"><ele>147.0</ele><time>2026-04-18T12:24:12.974Z</time></trkpt><trkpt lat="43.95498287132259" lon="12.19631317858992"><ele>147.0</ele><time>2026-04-18T12:24:13.974Z</time></trkpt><trkpt lat="43.95504981538523" lon="12.196470383162827"><ele>144.75</ele><time>2026-04-18T12:24:14.974Z</time></trkpt><trkpt lat="43.95511567110345" lon="12.196627784471206"><ele>142.5</ele><time>2026-04-18T12:24:15.974Z</time></trkpt><trkpt lat="43.955182098846436" lon="12.196784929559927"><ele>140.25</ele><time>2026-04-18T12:24:16.974Z</time></trkpt><trkpt lat="43.95524792268876" lon="12.196936973963963"><ele>138.0</ele><time>2026-04-18T12:24:17.974Z</time></trkpt><trkpt lat="43.95530974944469" lon="12.197085129918626"><ele>138.0</ele><time>2026-04-18T12:24:18.974Z</time></trkpt><trkpt lat="43.955375787183485" lon="12.197226083489277"><ele>138.0</ele><time>2026-04-18T12:24:19.974Z</time></trkpt><trkpt lat="43.95544027288616" lon="12.197362194322944"><ele>138.0</ele><time>2026-04-18T12:24:20.974Z</time></trkpt><trkpt lat="43.9555067798703" lon="12.197492985135778"><ele>138.0</ele><time>2026-04-18T12:24:21.974Z</time></trkpt><trkpt lat="43.955568375988086" lon="12.197623156829213"><ele>141.20000000000002</ele><time>2026-04-18T12:24:22.974Z</time></trkpt><trkpt lat="43.95562705817691" lon="12.19775219464108"><ele>144.4</ele><time>2026-04-18T12:24:23.974Z</time></trkpt><trkpt lat="43.95569241531011" lon="12.197865736028515"><ele>147.60000000000002</ele><time>2026-04-18T12:24:24.974Z</time></trkpt><trkpt lat="43.95575517084238" lon="12.197984305936037"><ele>150.8</ele><time>2026-04-18T12:24:25.974Z</time></trkpt><trkpt lat="43.95581751149828" lon="12.198105689865647"><ele>154.0</ele><time>2026-04-18T12:24:26.974Z</time></trkpt><trkpt lat="43.95588075384882" lon="12.198226308542962"><ele>154.0</ele><time>2026-04-18T12:24:27.974Z</time></trkpt><trkpt lat="43.95594030244066" lon="12.198343221272648"><ele>154.0</ele><time>2026-04-18T12:24:28.974Z</time></trkpt><trkpt lat="43.95599576393565" lon="12.198441789375956"><ele>154.0</ele><time>2026-04-18T12:24:29.974Z</time></trkpt><trkpt lat="43.956048257750396" lon="12.19853823115696"><ele>154.0</ele><time>2026-04-18T12:24:30.974Z</time></trkpt><trkpt lat="43.956080641704396" lon="12.198646609828211"><ele>154.0</ele><time>2026-04-18T12:24:31.974Z</time></trkpt><trkpt lat="43.95609448781513" lon="12.198758725840115"><ele>154.0</ele><time>2026-04-18T12:24:32.974Z</time></trkpt><trkpt lat="43.956091888674266" lon="12.198868001430204"><ele>154.0</ele><time>2026-04-18T12:24:33.974Z</time></trkpt><trkpt lat="43.956064282484974" lon="12.198979825101413"><ele>154.0</ele><time>2026-04-18T12:24:34.974Z</time></trkpt><trkpt lat="43.956012728814294" lon="12.199069999663083"><ele>154.0</ele><time>2026-04-18T12:24:35.974Z</time></trkpt><trkpt lat="43.95594902478444" lon="12.199149769043167"><ele>154.0</ele><time>2026-04-18T12:24:36.974Z</time></trkpt><trkpt lat="43.95587120892974" lon="12.199210920803102"><ele>154.0</ele><time>2026-04-18T12:24:37.974Z</time></trkpt><trkpt lat="43.955792114842545" lon="12.19924611284014"><ele>154.0</ele><time>2026-04-18T12:24:38.974Z</time></trkpt><trkpt lat="43.95568328600609" lon="12.199255541646483"><ele>161.5</ele><time>2026-04-18T12:24:39.974Z</time></trkpt><trkpt lat="43.95556265291979" lon="12.199236752761088"><ele>169.0</ele><time>2026-04-18T12:24:40.974Z</time></trkpt><trkpt lat="43.955434309373494" lon="12.199206490687594"><ele>176.5</ele><time>2026-04-18T12:24:41.974Z</time></trkpt><trkpt lat="43.95532146308264" lon="12.199170195163987"><ele>184.0</ele><time>2026-04-18T12:24:42.974Z</time></trkpt><trkpt lat="43.95519055517475" lon="12.199129402504626"><ele>184.0</ele><time>2026-04-18T12:24:43.974Z</time></trkpt><trkpt lat="43.95507083734895" lon="12.199091652390143"><ele>184.0</ele><time>2026-04-18T12:24:44.974Z</time></trkpt><trkpt lat="43.954964039102414" lon="12.199059341543018"><ele>184.0</ele><time>2026-04-18T12:24:45.974Z</time></trkpt><trkpt lat="43.95485534116637" lon="12.199015417296689"><ele>184.0</ele><time>2026-04-18T12:24:46.974Z</time></trkpt><trkpt lat="43.95475198535991" lon="12.198981968095012"><ele>183.79999999999998</ele><time>2026-04-18T12:24:47.974Z</time></trkpt><trkpt lat="43.95465739405534" lon="12.19895969082627"><ele>183.6</ele><time>2026-04-18T12:24:48.974Z</time></trkpt><trkpt lat="43.954559539667216" lon="12.198932539659474"><ele>183.4</ele><time>2026-04-18T12:24:49.974Z</time></trkpt><trkpt lat="43.95446616992868" lon="12.198907515127889"><ele>183.2</ele><time>2026-04-18T12:24:50.974Z</time></trkpt><trkpt lat="43.95436828395057" lon="12.198874327021368"><ele>183.0</ele><time>2026-04-18T12:24:51.974Z</time></trkpt><trkpt lat="43.95427499382642" lon="12.198848824399912"><ele>184.60000000000002</ele><time>2026-04-18T12:24:52.974Z</time></trkpt><trkpt lat="43.954181604295705" lon="12.198843039502504"><ele>186.20000000000002</ele><time>2026-04-18T12:24:53.974Z</time></trkpt><trkpt lat="43.9540906053841" lon="12.198867944183712"><ele>187.8</ele><time>2026-04-18T12:24:54.974Z</time></trkpt><trkpt lat="43.9540053225485" lon="12.19892676720126"><ele>189.4</ele><time>2026-04-18T12:24:55.974Z</time></trkpt><trkpt lat="43.95393236996797" lon="12.199014219447733"><ele>191.0</ele><time>2026-04-18T12:24:56.974Z</time></trkpt><trkpt lat="43.95389609674555" lon="12.199116011860655"><ele>193.60000000000002</ele><time>2026-04-18T12:24:57.974Z</time></trkpt><trkpt lat="43.95387907960151" lon="12.199234637674955"><ele>196.2</ele><time>2026-04-18T12:24:58.974Z</time></trkpt><trkpt lat="43.95389897776085" lon="12.199359715684604"><ele>198.8</ele><time>2026-04-18T12:24:59.974Z</time></trkpt><trkpt lat="43.9539510357872" lon="12.199467628566861"><ele>201.39999999999998</ele><time>2026-04-18T12:25:00.973Z</time></trkpt><trkpt lat="43.954011830019155" lon="12.199557571855982"><ele>204.0</ele><time>2026-04-18T12:25:01.973Z</time></trkpt><trkpt lat="43.95409820216865" lon="12.199633025258487"><ele>204.0</ele><time>2026-04-18T12:25:02.973Z</time></trkpt><trkpt lat="43.95416537763642" lon="12.199726975899596"><ele>204.0</ele><time>2026-04-18T12:25:03.973Z</time></trkpt><trkpt lat="43.95421581612795" lon="12.199830660926386"><ele>204.0</ele><time>2026-04-18T12:25:04.973Z</time></trkpt><trkpt lat="43.95424309695152" lon="12.199946647238555"><ele>204.0</ele><time>2026-04-18T12:25:05.973Z</time></trkpt><trkpt lat="43.95425138097817" lon="12.200069998307576"><ele>204.0</ele><time>2026-04-18T12:25:06.973Z</time></trkpt><trkpt lat="43.954236269974686" lon="12.200187902979458"><ele>204.0</ele><time>2026-04-18T12:25:07.973Z</time></trkpt><trkpt lat="43.95419833377635" lon="12.200298789753148"><ele>204.39999999999998</ele><time>2026-04-18T12:25:08.973Z</time></trkpt><trkpt lat="43.954141451542846" lon="12.200412021187553"><ele>204.8</ele><time>2026-04-18T12:25:09.973Z</time></trkpt><trkpt lat="43.95406025276478" lon="12.200497416441456"><ele>205.2</ele><time>2026-04-18T12:25:10.973Z</time></trkpt><trkpt lat="43.95397516744238" lon="12.200577994531603"><ele>205.60000000000002</ele><time>2026-04-18T12:25:11.973Z</time></trkpt><trkpt lat="43.95389616019142" lon="12.200652422630984"><ele>206.0</ele><time>2026-04-18T12:25:12.973Z</time></trkpt><trkpt lat="43.95381262242535" lon="12.200736790338913"><ele>206.00000000000003</ele><time>2026-04-18T12:25:13.973Z</time></trkpt><trkpt lat="43.95373992737859" lon="12.200821424292782"><ele>206.0</ele><time>2026-04-18T12:25:14.973Z</time></trkpt><trkpt lat="43.95368234533366" lon="12.200904269493469"><ele>206.0</ele><time>2026-04-18T12:25:15.973Z</time></trkpt><trkpt lat="43.95364660187537" lon="12.200988468455249"><ele>206.0</ele><time>2026-04-18T12:25:16.973Z</time></trkpt><trkpt lat="43.95363253181285" lon="12.201090443020469"><ele>206.00000000000003</ele><time>2026-04-18T12:25:17.973Z</time></trkpt><trkpt lat="43.95363755154939" lon="12.201198993558641"><ele>206.0</ele><time>2026-04-18T12:25:18.973Z</time></trkpt><trkpt lat="43.95364204083481" lon="12.201324579652269"><ele>206.0</ele><time>2026-04-18T12:25:19.973Z</time></trkpt><trkpt lat="43.95364598114371" lon="12.201450940864335"><ele>206.0</ele><time>2026-04-18T12:25:20.973Z</time></trkpt><trkpt lat="43.953647305961915" lon="12.201585342738626"><ele>206.0</ele><time>2026-04-18T12:25:21.973Z</time></trkpt><trkpt lat="43.95363319903299" lon="12.201717265377079"><ele>206.0</ele><time>2026-04-18T12:25:22.973Z</time></trkpt><trkpt lat="43.95363348878361" lon="12.20185644270731"><ele>206.0</ele><time>2026-04-18T12:25:23.973Z</time></trkpt><trkpt lat="43.9536204906747" lon="12.201988506622026"><ele>205.66666666666669</ele><time>2026-04-18T12:25:24.973Z</time></trkpt><trkpt lat="43.95359562995013" lon="12.202106002700162"><ele>205.33333333333334</ele><time>2026-04-18T12:25:25.973Z</time></trkpt><trkpt lat="43.953558280968096" lon="12.202197137123623"><ele>205.0</ele><time>2026-04-18T12:25:26.973Z</time></trkpt><trkpt lat="43.953507333890435" lon="12.202257895619569"><ele>204.66666666666669</ele><time>2026-04-18T12:25:27.973Z</time></trkpt><trkpt lat="43.95344702027622" lon="12.202297170610406"><ele>204.33333333333334</ele><time>2026-04-18T12:25:28.973Z</time></trkpt><trkpt lat="43.95333729927266" lon="12.202234340566017"><ele>204.0</ele><time>2026-04-18T12:25:30.973Z</time></trkpt><trkpt lat="43.953290881010325" lon="12.202135505603783"><ele>207.16666666666666</ele><time>2026-04-18T12:25:31.973Z</time></trkpt><trkpt lat="43.953260222759916" lon="12.20201695380782"><ele>210.33333333333331</ele><time>2026-04-18T12:25:32.973Z</time></trkpt><trkpt lat="43.953240145736" lon="12.201910055051373"><ele>213.5</ele><time>2026-04-18T12:25:33.973Z</time></trkpt><trkpt lat="43.95321456400602" lon="12.201808631894117"><ele>216.66666666666666</ele><time>2026-04-18T12:25:34.973Z</time></trkpt><trkpt lat="43.953167186089566" lon="12.201725906661146"><ele>219.83333333333331</ele><time>2026-04-18T12:25:35.973Z</time></trkpt><trkpt lat="43.95310823740371" lon="12.20166936951905"><ele>223.0</ele><time>2026-04-18T12:25:36.973Z</time></trkpt><trkpt lat="43.953025206923094" lon="12.2016350473458"><ele>222.99999999999997</ele><time>2026-04-18T12:25:37.973Z</time></trkpt><trkpt lat="43.95293571338988" lon="12.201626218443577"><ele>223.0</ele><time>2026-04-18T12:25:38.973Z</time></trkpt><trkpt lat="43.9528553913629" lon="12.201634482455832"><ele>223.0</ele><time>2026-04-18T12:25:39.973Z</time></trkpt><trkpt lat="43.95276971131485" lon="12.201657667996995"><ele>223.0</ele><time>2026-04-18T12:25:40.973Z</time></trkpt><trkpt lat="43.952692540106014" lon="12.201700262947119"><ele>222.99999999999997</ele><time>2026-04-18T12:25:41.972Z</time></trkpt><trkpt lat="43.952616053666084" lon="12.201753668858922"><ele>223.0</ele><time>2026-04-18T12:25:42.973Z</time></trkpt><trkpt lat="43.9525386548824" lon="12.201817476219874"><ele>224.8</ele><time>2026-04-18T12:25:43.973Z</time></trkpt><trkpt lat="43.95245636495294" lon="12.20189515480242"><ele>226.60000000000002</ele><time>2026-04-18T12:25:44.972Z</time></trkpt><trkpt lat="43.952390294405" lon="12.201990998975328"><ele>228.39999999999998</ele><time>2026-04-18T12:25:45.972Z</time></trkpt><trkpt lat="43.95233202544456" lon="12.202103106238466"><ele>230.2</ele><time>2026-04-18T12:25:46.972Z</time></trkpt><trkpt lat="43.952270601335194" lon="12.202219297534853"><ele>232.0</ele><time>2026-04-18T12:25:47.972Z</time></trkpt><trkpt lat="43.95222581569812" lon="12.202339152716775"><ele>233.0</ele><time>2026-04-18T12:25:48.972Z</time></trkpt><trkpt lat="43.952185896831416" lon="12.202447498893822"><ele>234.0</ele><time>2026-04-18T12:25:49.972Z</time></trkpt><trkpt lat="43.952166703575365" lon="12.202557359414953"><ele>235.0</ele><time>2026-04-18T12:25:50.972Z</time></trkpt><trkpt lat="43.95216096675863" lon="12.202679534504698"><ele>236.0</ele><time>2026-04-18T12:25:51.973Z</time></trkpt><trkpt lat="43.952174830968865" lon="12.202812030637892"><ele>237.0</ele><time>2026-04-18T12:25:52.973Z</time></trkpt><trkpt lat="43.95219885470056" lon="12.202941594887257"><ele>237.0</ele><time>2026-04-18T12:25:53.972Z</time></trkpt><trkpt lat="43.95221784268695" lon="12.20308810342375"><ele>237.0</ele><time>2026-04-18T12:25:54.972Z</time></trkpt><trkpt lat="43.95223093492399" lon="12.20323781690112"><ele>237.0</ele><time>2026-04-18T12:25:55.972Z</time></trkpt><trkpt lat="43.95224250508668" lon="12.203381074966044"><ele>237.0</ele><time>2026-04-18T12:25:56.972Z</time></trkpt><trkpt lat="43.95225975433774" lon="12.203530880815082"><ele>237.0</ele><time>2026-04-18T12:25:57.972Z</time></trkpt><trkpt lat="43.95227480515983" lon="12.203678873806538"><ele>238.0</ele><time>2026-04-18T12:25:58.972Z</time></trkpt><trkpt lat="43.95228328916113" lon="12.203825130886763"><ele>239.0</ele><time>2026-04-18T12:25:59.972Z</time></trkpt><trkpt lat="43.952287382770436" lon="12.203963580390896"><ele>240.0</ele><time>2026-04-18T12:26:00.972Z</time></trkpt><trkpt lat="43.95229873532015" lon="12.20409842078568"><ele>241.0</ele><time>2026-04-18T12:26:01.972Z</time></trkpt><trkpt lat="43.95232208174305" lon="12.204234336566081"><ele>242.0</ele><time>2026-04-18T12:26:02.972Z</time></trkpt><trkpt lat="43.95235993418546" lon="12.20435734362117"><ele>242.39999999999998</ele><time>2026-04-18T12:26:03.972Z</time></trkpt><trkpt lat="43.95239313801688" lon="12.204497521139364"><ele>242.79999999999998</ele><time>2026-04-18T12:26:04.972Z</time></trkpt><trkpt lat="43.952423846653474" lon="12.204622213898247"><ele>243.2</ele><time>2026-04-18T12:26:05.972Z</time></trkpt><trkpt lat="43.95244724499239" lon="12.204752925885854"><ele>243.6</ele><time>2026-04-18T12:26:06.972Z</time></trkpt><trkpt lat="43.9524653309248" lon="12.204894158548338"><ele>244.0</ele><time>2026-04-18T12:26:07.972Z</time></trkpt><trkpt lat="43.952455879169655" lon="12.20505887443717"><ele>244.79999999999998</ele><time>2026-04-18T12:26:08.972Z</time></trkpt><trkpt lat="43.95243877257944" lon="12.205232647970853"><ele>245.59999999999997</ele><time>2026-04-18T12:26:09.972Z</time></trkpt><trkpt lat="43.952430426197104" lon="12.205379283685946"><ele>246.4</ele><time>2026-04-18T12:26:10.972Z</time></trkpt><trkpt lat="43.952430408448905" lon="12.205514387401712"><ele>247.2</ele><time>2026-04-18T12:26:11.972Z</time></trkpt><trkpt lat="43.95243994010206" lon="12.205640242953427"><ele>248.0</ele><time>2026-04-18T12:26:12.972Z</time></trkpt><trkpt lat="43.95246495992051" lon="12.20575437366812"><ele>247.83333333333334</ele><time>2026-04-18T12:26:13.972Z</time></trkpt><trkpt lat="43.952503461348776" lon="12.205852065597977"><ele>247.66666666666669</ele><time>2026-04-18T12:26:14.972Z</time></trkpt><trkpt lat="43.952553292514644" lon="12.205949842215372"><ele>247.5</ele><time>2026-04-18T12:26:15.972Z</time></trkpt><trkpt lat="43.95260190044053" lon="12.206050259262398"><ele>247.33333333333331</ele><time>2026-04-18T12:26:16.972Z</time></trkpt><trkpt lat="43.952657652845694" lon="12.206161305570454"><ele>247.16666666666666</ele><time>2026-04-18T12:26:17.972Z</time></trkpt><trkpt lat="43.95270237229435" lon="12.206281760270182"><ele>247.0</ele><time>2026-04-18T12:26:18.972Z</time></trkpt><trkpt lat="43.95272746294396" lon="12.206413327874916"><ele>248.0</ele><time>2026-04-18T12:26:19.972Z</time></trkpt><trkpt lat="43.95272988213111" lon="12.206542773041377"><ele>249.0</ele><time>2026-04-18T12:26:20.972Z</time></trkpt><trkpt lat="43.95270822788436" lon="12.206678896218552"><ele>250.0</ele><time>2026-04-18T12:26:21.972Z</time></trkpt><trkpt lat="43.95266659986429" lon="12.20680192990734"><ele>251.0</ele><time>2026-04-18T12:26:22.972Z</time></trkpt><trkpt lat="43.95260176335078" lon="12.20691435678071"><ele>252.0</ele><time>2026-04-18T12:26:23.972Z</time></trkpt><trkpt lat="43.95252268472818" lon="12.207021522140591"><ele>253.39999999999998</ele><time>2026-04-18T12:26:24.972Z</time></trkpt><trkpt lat="43.95243823830254" lon="12.207136114894448"><ele>254.79999999999998</ele><time>2026-04-18T12:26:25.972Z</time></trkpt><trkpt lat="43.95235629534132" lon="12.207241267360239"><ele>256.2</ele><time>2026-04-18T12:26:26.972Z</time></trkpt><trkpt lat="43.952277306253244" lon="12.207354493460699"><ele>257.59999999999997</ele><time>2026-04-18T12:26:27.972Z</time></trkpt><trkpt lat="43.952209242322" lon="12.207462675928605"><ele>259.0</ele><time>2026-04-18T12:26:28.972Z</time></trkpt><trkpt lat="43.95215574038616" lon="12.207559722652194"><ele>260.16666666666663</ele><time>2026-04-18T12:26:29.972Z</time></trkpt><trkpt lat="43.95211317104151" lon="12.207682107942606"><ele>261.3333333333333</ele><time>2026-04-18T12:26:30.972Z</time></trkpt><trkpt lat="43.95207346232828" lon="12.207806007405678"><ele>262.5</ele><time>2026-04-18T12:26:31.972Z</time></trkpt><trkpt lat="43.95204694551831" lon="12.207914558432522"><ele>263.6666666666667</ele><time>2026-04-18T12:26:32.972Z</time></trkpt><trkpt lat="43.952015077992094" lon="12.208010575112425"><ele>264.83333333333337</ele><time>2026-04-18T12:26:33.972Z</time></trkpt><trkpt lat="43.951968503236095" lon="12.20808474541882"><ele>266.0</ele><time>2026-04-18T12:26:34.972Z</time></trkpt><trkpt lat="43.95189773435339" lon="12.208118379011902"><ele>266.0</ele><time>2026-04-18T12:26:35.972Z</time></trkpt><trkpt lat="43.95181854778623" lon="12.208096731446371"><ele>266.0</ele><time>2026-04-18T12:26:36.971Z</time></trkpt><trkpt lat="43.95173953165316" lon="12.20802508229381"><ele>266.0</ele><time>2026-04-18T12:26:37.971Z</time></trkpt><trkpt lat="43.95165320395209" lon="12.207969192378856"><ele>266.0</ele><time>2026-04-18T12:26:38.971Z</time></trkpt><trkpt lat="43.95156024468562" lon="12.207945950877745"><ele>266.0</ele><time>2026-04-18T12:26:39.971Z</time></trkpt><trkpt lat="43.95145767557548" lon="12.207957433644836"><ele>267.75</ele><time>2026-04-18T12:26:40.971Z</time></trkpt><trkpt lat="43.951351975683394" lon="12.207996946399888"><ele>269.5</ele><time>2026-04-18T12:26:41.971Z</time></trkpt><trkpt lat="43.951237217537425" lon="12.208058836077077"><ele>271.25</ele><time>2026-04-18T12:26:42.971Z</time></trkpt><trkpt lat="43.95111212568553" lon="12.208133099725798"><ele>273.0</ele><time>2026-04-18T12:26:43.971Z</time></trkpt><trkpt lat="43.950994427547066" lon="12.208202270071736"><ele>273.25</ele><time>2026-04-18T12:26:44.971Z</time></trkpt><trkpt lat="43.95088772470901" lon="12.20826633595131"><ele>273.5</ele><time>2026-04-18T12:26:45.971Z</time></trkpt><trkpt lat="43.95078099443766" lon="12.208324596607987"><ele>273.75</ele><time>2026-04-18T12:26:46.971Z</time></trkpt><trkpt lat="43.95066791741388" lon="12.20836969662866"><ele>274.0</ele><time>2026-04-18T12:26:47.971Z</time></trkpt><trkpt lat="43.95055912339687" lon="12.20841409758293"><ele>277.0</ele><time>2026-04-18T12:26:48.971Z</time></trkpt><trkpt lat="43.95045673810426" lon="12.208464474746577"><ele>280.0</ele><time>2026-04-18T12:26:49.971Z</time></trkpt><trkpt lat="43.95034382539612" lon="12.208498841961129"><ele>283.0</ele><time>2026-04-18T12:26:50.971Z</time></trkpt><trkpt lat="43.950230440239004" lon="12.208535795250699"><ele>286.0</ele><time>2026-04-18T12:26:51.971Z</time></trkpt><trkpt lat="43.950112576085914" lon="12.20857309855313"><ele>287.40000000000003</ele><time>2026-04-18T12:26:52.971Z</time></trkpt><trkpt lat="43.950010065322346" lon="12.208597559741756"><ele>288.8</ele><time>2026-04-18T12:26:53.971Z</time></trkpt><trkpt lat="43.949922491307916" lon="12.208620306146052"><ele>290.20000000000005</ele><time>2026-04-18T12:26:54.971Z</time></trkpt><trkpt lat="43.94984173846781" lon="12.20865970428754"><ele>291.6</ele><time>2026-04-18T12:26:55.971Z</time></trkpt><trkpt lat="43.94976147835889" lon="12.208732067417497"><ele>293.0</ele><time>2026-04-18T12:26:56.971Z</time></trkpt><trkpt lat="43.94970355050325" lon="12.208825546955277"><ele>293.0</ele><time>2026-04-18T12:26:57.971Z</time></trkpt><trkpt lat="43.94966361054368" lon="12.208949773268357"><ele>293.0</ele><time>2026-04-18T12:26:58.971Z</time></trkpt><trkpt lat="43.94963018483814" lon="12.209102507083282"><ele>293.0</ele><time>2026-04-18T12:26:59.971Z</time></trkpt><trkpt lat="43.94962032313366" lon="12.209267509746715"><ele>293.0</ele><time>2026-04-18T12:27:00.971Z</time></trkpt><trkpt lat="43.94961966148702" lon="12.20941321146251"><ele>293.0</ele><time>2026-04-18T12:27:01.971Z</time></trkpt><trkpt lat="43.94961698427754" lon="12.209546105972494"><ele>292.8</ele><time>2026-04-18T12:27:02.971Z</time></trkpt><trkpt lat="43.949596470518784" lon="12.209664697914343"><ele>292.6</ele><time>2026-04-18T12:27:03.971Z</time></trkpt><trkpt lat="43.94954837454521" lon="12.209768217857828"><ele>292.4</ele><time>2026-04-18T12:27:04.971Z</time></trkpt><trkpt lat="43.949471876894236" lon="12.209856667607959"><ele>292.2</ele><time>2026-04-18T12:27:05.971Z</time></trkpt><trkpt lat="43.94938215499344" lon="12.209953297703313"><ele>292.0</ele><time>2026-04-18T12:27:06.971Z</time></trkpt><trkpt lat="43.949300487641274" lon="12.21006924506165"><ele>291.75</ele><time>2026-04-18T12:27:07.971Z</time></trkpt><trkpt lat="43.949225864917985" lon="12.210194378514657"><ele>291.5</ele><time>2026-04-18T12:27:08.971Z</time></trkpt><trkpt lat="43.94915214742076" lon="12.21031713992514"><ele>291.25</ele><time>2026-04-18T12:27:09.971Z</time></trkpt><trkpt lat="43.94907637200354" lon="12.21043481748237"><ele>291.0</ele><time>2026-04-18T12:27:10.971Z</time></trkpt><trkpt lat="43.94901056461991" lon="12.21056341301015"><ele>293.8</ele><time>2026-04-18T12:27:11.971Z</time></trkpt><trkpt lat="43.94894748988494" lon="12.210687076234903"><ele>296.6</ele><time>2026-04-18T12:27:12.971Z</time></trkpt><trkpt lat="43.94888167642676" lon="12.210810301331087"><ele>299.4</ele><time>2026-04-18T12:27:13.971Z</time></trkpt><trkpt lat="43.94881731277733" lon="12.210919627471625"><ele>302.2</ele><time>2026-04-18T12:27:14.971Z</time></trkpt><trkpt lat="43.94874473161697" lon="12.211012987399306"><ele>305.0</ele><time>2026-04-18T12:27:15.971Z</time></trkpt><trkpt lat="43.94866763083218" lon="12.211098013495242"><ele>305.0</ele><time>2026-04-18T12:27:16.971Z</time></trkpt><trkpt lat="43.948578780090976" lon="12.211178293466684"><ele>305.0</ele><time>2026-04-18T12:27:17.971Z</time></trkpt><trkpt lat="43.948488050398375" lon="12.211270937209363"><ele>305.0</ele><time>2026-04-18T12:27:18.971Z</time></trkpt><trkpt lat="43.94840913897747" lon="12.21138385616246"><ele>305.0</ele><time>2026-04-18T12:27:19.971Z</time></trkpt><trkpt lat="43.948329205174396" lon="12.211520873400426"><ele>306.2</ele><time>2026-04-18T12:27:20.971Z</time></trkpt><trkpt lat="43.94824503703857" lon="12.211649727011407"><ele>307.4</ele><time>2026-04-18T12:27:21.971Z</time></trkpt><trkpt lat="43.94815744553987" lon="12.211745661227956"><ele>308.6</ele><time>2026-04-18T12:27:22.971Z</time></trkpt><trkpt lat="43.94807149610164" lon="12.211824472229338"><ele>309.8</ele><time>2026-04-18T12:27:23.971Z</time></trkpt><trkpt lat="43.94798670559733" lon="12.21188179024492"><ele>311.0</ele><time>2026-04-18T12:27:24.971Z</time></trkpt><trkpt lat="43.94790575715543" lon="12.211926793182911"><ele>311.0</ele><time>2026-04-18T12:27:25.971Z</time></trkpt><trkpt lat="43.947822653235825" lon="12.211987657136419"><ele>311.0</ele><time>2026-04-18T12:27:26.971Z</time></trkpt><trkpt lat="43.94773898346848" lon="12.21205858991159"><ele>311.0</ele><time>2026-04-18T12:27:27.971Z</time></trkpt><trkpt lat="43.9476529977685" lon="12.212156911209785"><ele>311.0</ele><time>2026-04-18T12:27:28.971Z</time></trkpt><trkpt lat="43.94757705362502" lon="12.21226572066246"><ele>311.0</ele><time>2026-04-18T12:27:29.971Z</time></trkpt><trkpt lat="43.94750179760382" lon="12.212373177187374"><ele>313.5</ele><time>2026-04-18T12:27:30.971Z</time></trkpt><trkpt lat="43.947426991999386" lon="12.21249120152093"><ele>316.0</ele><time>2026-04-18T12:27:31.971Z</time></trkpt><trkpt lat="43.947349491871165" lon="12.212604622036267"><ele>318.5</ele><time>2026-04-18T12:27:32.971Z</time></trkpt><trkpt lat="43.94726815198707" lon="12.212721154371277"><ele>321.0</ele><time>2026-04-18T12:27:33.971Z</time></trkpt><trkpt lat="43.947191058876555" lon="12.212833583258128"><ele>321.0</ele><time>2026-04-18T12:27:34.971Z</time></trkpt><trkpt lat="43.94712394851525" lon="12.21296304462029"><ele>321.0</ele><time>2026-04-18T12:27:35.971Z</time></trkpt><trkpt lat="43.947061418692165" lon="12.213108793150742"><ele>321.0</ele><time>2026-04-18T12:27:36.971Z</time></trkpt><trkpt lat="43.94702506604078" lon="12.213258264615055"><ele>321.0</ele><time>2026-04-18T12:27:37.971Z</time></trkpt><trkpt lat="43.94699932096639" lon="12.21341600461761"><ele>321.4</ele><time>2026-04-18T12:27:38.971Z</time></trkpt><trkpt lat="43.94698004169555" lon="12.213572279283255"><ele>321.8</ele><time>2026-04-18T12:27:39.971Z</time></trkpt><trkpt lat="43.94695068231493" lon="12.213703248398797"><ele>322.2</ele><time>2026-04-18T12:27:40.971Z</time></trkpt><trkpt lat="43.94690466109649" lon="12.2138097952168"><ele>322.59999999999997</ele><time>2026-04-18T12:27:41.971Z</time></trkpt><trkpt lat="43.94683520479688" lon="12.213895496604017"><ele>323.0</ele><time>2026-04-18T12:27:42.971Z</time></trkpt><trkpt lat="43.9467465701552" lon="12.213960469040948"><ele>324.2</ele><time>2026-04-18T12:27:43.971Z</time></trkpt><trkpt lat="43.94665113982683" lon="12.213987934735963"><ele>325.4</ele><time>2026-04-18T12:27:44.971Z</time></trkpt><trkpt lat="43.946548706081806" lon="12.213992385999909"><ele>326.59999999999997</ele><time>2026-04-18T12:27:45.971Z</time></trkpt><trkpt lat="43.94645574081496" lon="12.21397870059297"><ele>327.79999999999995</ele><time>2026-04-18T12:27:46.971Z</time></trkpt><trkpt lat="43.9463638726962" lon="12.213975076245072"><ele>329.0</ele><time>2026-04-18T12:27:47.97Z</time></trkpt><trkpt lat="43.946275754272506" lon="12.213969194166562"><ele>329.0</ele><time>2026-04-18T12:27:48.971Z</time></trkpt><trkpt lat="43.946185793623194" lon="12.213955486185695"><ele>329.0</ele><time>2026-04-18T12:27:49.971Z</time></trkpt><trkpt lat="43.94610837416431" lon="12.213942382934015"><ele>329.0</ele><time>2026-04-18T12:27:50.97Z</time></trkpt><trkpt lat="43.94601993274948" lon="12.213916293723369"><ele>329.0</ele><time>2026-04-18T12:27:51.97Z</time></trkpt><trkpt lat="43.94593380350381" lon="12.213891216312309"><ele>329.0</ele><time>2026-04-18T12:27:52.97Z</time></trkpt><trkpt lat="43.94585150066329" lon="12.213893513507916"><ele>329.0</ele><time>2026-04-18T12:27:53.97Z</time></trkpt><trkpt lat="43.945765977095455" lon="12.213922937307665"><ele>330.83333333333337</ele><time>2026-04-18T12:27:54.97Z</time></trkpt><trkpt lat="43.94571333437861" lon="12.214007251512776"><ele>332.6666666666667</ele><time>2026-04-18T12:27:55.97Z</time></trkpt><trkpt lat="43.94568834992969" lon="12.21411764160372"><ele>334.5</ele><time>2026-04-18T12:27:56.97Z</time></trkpt><trkpt lat="43.94569364480043" lon="12.214247218629545"><ele>336.3333333333333</ele><time>2026-04-18T12:27:57.97Z</time></trkpt><trkpt lat="43.945713706394336" lon="12.214366613856631"><ele>338.16666666666663</ele><time>2026-04-18T12:27:58.97Z</time></trkpt><trkpt lat="43.94573272044125" lon="12.214458290196646"><ele>340.0</ele><time>2026-04-18T12:27:59.97Z</time></trkpt><trkpt lat="43.94567145119231" lon="12.214573728627894"><ele>340.0</ele><time>2026-04-18T12:28:01.97Z</time></trkpt><trkpt lat="43.945554894535746" lon="12.214575299059602"><ele>340.0</ele><time>2026-04-18T12:28:03.97Z</time></trkpt><trkpt lat="43.94547747003102" lon="12.214516417504916"><ele>340.0</ele><time>2026-04-18T12:28:04.97Z</time></trkpt><trkpt lat="43.94540312021456" lon="12.214440676843578"><ele>340.0</ele><time>2026-04-18T12:28:05.97Z</time></trkpt><trkpt lat="43.94532573625408" lon="12.214359951297487"><ele>340.0</ele><time>2026-04-18T12:28:06.97Z</time></trkpt><trkpt lat="43.94525310716565" lon="12.214283530158214"><ele>340.0</ele><time>2026-04-18T12:28:07.97Z</time></trkpt><trkpt lat="43.94519342922922" lon="12.214219357876887"><ele>340.0</ele><time>2026-04-18T12:28:08.97Z</time></trkpt><trkpt lat="43.9451289529923" lon="12.214156717294145"><ele>340.0</ele><time>2026-04-18T12:28:09.97Z</time></trkpt><trkpt lat="43.94505379330964" lon="12.214110920754074"><ele>340.0</ele><time>2026-04-18T12:28:10.97Z</time></trkpt><trkpt lat="43.94497884713335" lon="12.214073652683394"><ele>340.0</ele><time>2026-04-18T12:28:11.97Z</time></trkpt><trkpt lat="43.94490757817497" lon="12.214051201758975"><ele>340.0</ele><time>2026-04-18T12:28:12.97Z</time></trkpt><trkpt lat="43.94483367509862" lon="12.214069108715425"><ele>342.8</ele><time>2026-04-18T12:28:13.97Z</time></trkpt><trkpt lat="43.944726952896126" lon="12.214200459445747"><ele>345.6</ele><time>2026-04-18T12:28:15.97Z</time></trkpt><trkpt lat="43.94468121839691" lon="12.214306731775297"><ele>348.4</ele><time>2026-04-18T12:28:16.97Z</time></trkpt><trkpt lat="43.94462852920064" lon="12.214429667381093"><ele>351.2</ele><time>2026-04-18T12:28:17.969Z</time></trkpt><trkpt lat="43.94458417673603" lon="12.214566343649167"><ele>354.0</ele><time>2026-04-18T12:28:18.969Z</time></trkpt><trkpt lat="43.94455791827233" lon="12.214692912954447"><ele>354.0</ele><time>2026-04-18T12:28:19.969Z</time></trkpt><trkpt lat="43.94452841345566" lon="12.21482051160474"><ele>354.0</ele><time>2026-04-18T12:28:20.969Z</time></trkpt><trkpt lat="43.944491497450805" lon="12.214951172109492"><ele>354.0</ele><time>2026-04-18T12:28:21.969Z</time></trkpt><trkpt lat="43.94446390406361" lon="12.215075096514527"><ele>354.0</ele><time>2026-04-18T12:28:22.969Z</time></trkpt><trkpt lat="43.94443950664026" lon="12.215186233141642"><ele>354.0</ele><time>2026-04-18T12:28:23.969Z</time></trkpt><trkpt lat="43.94438154493167" lon="12.215294535624908"><ele>354.6</ele><time>2026-04-18T12:28:24.969Z</time></trkpt><trkpt lat="43.94431187612675" lon="12.215397666863666"><ele>355.2</ele><time>2026-04-18T12:28:25.969Z</time></trkpt><trkpt lat="43.944238625400786" lon="12.215485920288923"><ele>355.8</ele><time>2026-04-18T12:28:26.969Z</time></trkpt><trkpt lat="43.94415544394639" lon="12.215560152006466"><ele>356.40000000000003</ele><time>2026-04-18T12:28:27.969Z</time></trkpt><trkpt lat="43.94407070529129" lon="12.215624789987146"><ele>357.0</ele><time>2026-04-18T12:28:28.969Z</time></trkpt><trkpt lat="43.94399477805813" lon="12.215673649203158"><ele>358.40000000000003</ele><time>2026-04-18T12:28:29.969Z</time></trkpt><trkpt lat="43.94391594743477" lon="12.215712519786434"><ele>359.8</ele><time>2026-04-18T12:28:30.969Z</time></trkpt><trkpt lat="43.94383530497532" lon="12.215739824187626"><ele>361.2</ele><time>2026-04-18T12:28:31.969Z</time></trkpt><trkpt lat="43.943754763487256" lon="12.215717710850521"><ele>362.6</ele><time>2026-04-18T12:28:32.969Z</time></trkpt><trkpt lat="43.943666214155144" lon="12.21565951700915"><ele>364.0</ele><time>2026-04-18T12:28:33.969Z</time></trkpt><trkpt lat="43.94356730677925" lon="12.215596282173365"><ele>364.0</ele><time>2026-04-18T12:28:34.969Z</time></trkpt><trkpt lat="43.94347125238905" lon="12.215548020988102"><ele>364.0</ele><time>2026-04-18T12:28:35.969Z</time></trkpt><trkpt lat="43.943373341324175" lon="12.215526014097664"><ele>364.0</ele><time>2026-04-18T12:28:36.969Z</time></trkpt><trkpt lat="43.94328594695953" lon="12.215533909665155"><ele>364.0</ele><time>2026-04-18T12:28:37.969Z</time></trkpt><trkpt lat="43.94320444027672" lon="12.215569675573459"><ele>364.0</ele><time>2026-04-18T12:28:38.969Z</time></trkpt><trkpt lat="43.94313117270971" lon="12.215643251181767"><ele>366.0</ele><time>2026-04-18T12:28:39.969Z</time></trkpt><trkpt lat="43.94306652240283" lon="12.215742200673894"><ele>368.0</ele><time>2026-04-18T12:28:40.969Z</time></trkpt><trkpt lat="43.94299720805868" lon="12.21585219842232"><ele>370.0</ele><time>2026-04-18T12:28:41.969Z</time></trkpt><trkpt lat="43.942901899971574" lon="12.215945442028554"><ele>372.0</ele><time>2026-04-18T12:28:42.969Z</time></trkpt><trkpt lat="43.9427991792192" lon="12.216025696546506"><ele>374.0</ele><time>2026-04-18T12:28:43.969Z</time></trkpt><trkpt lat="43.942709418238564" lon="12.216104701664324"><ele>374.0</ele><time>2026-04-18T12:28:44.969Z</time></trkpt><trkpt lat="43.94263615753499" lon="12.216189344353538"><ele>374.0</ele><time>2026-04-18T12:28:45.969Z</time></trkpt><trkpt lat="43.94258808105464" lon="12.216303110253607"><ele>374.0</ele><time>2026-04-18T12:28:46.969Z</time></trkpt><trkpt lat="43.94256075925551" lon="12.216431831489441"><ele>374.0</ele><time>2026-04-18T12:28:47.969Z</time></trkpt><trkpt lat="43.942530002290354" lon="12.216567279240996"><ele>374.0</ele><time>2026-04-18T12:28:48.969Z</time></trkpt><trkpt lat="43.942501141628036" lon="12.216706610075837"><ele>376.2</ele><time>2026-04-18T12:28:49.969Z</time></trkpt><trkpt lat="43.94246648898646" lon="12.216854607839615"><ele>378.4</ele><time>2026-04-18T12:28:50.969Z</time></trkpt><trkpt lat="43.942447499975096" lon="12.216995388406866"><ele>380.6</ele><time>2026-04-18T12:28:51.969Z</time></trkpt><trkpt lat="43.94242300623954" lon="12.21713291172098"><ele>382.8</ele><time>2026-04-18T12:28:52.969Z</time></trkpt><trkpt lat="43.94239654530603" lon="12.21728084732342"><ele>385.0</ele><time>2026-04-18T12:28:53.969Z</time></trkpt><trkpt lat="43.9423848510119" lon="12.21743061124149"><ele>385.75</ele><time>2026-04-18T12:28:54.969Z</time></trkpt><trkpt lat="43.942400662140486" lon="12.217587060947725"><ele>386.5</ele><time>2026-04-18T12:28:55.969Z</time></trkpt><trkpt lat="43.942438596023806" lon="12.217739046001878"><ele>387.25</ele><time>2026-04-18T12:28:56.969Z</time></trkpt><trkpt lat="43.942475549377875" lon="12.217897273373094"><ele>388.0</ele><time>2026-04-18T12:28:57.969Z</time></trkpt><trkpt lat="43.94251681859057" lon="12.218039097542617"><ele>387.59999999999997</ele><time>2026-04-18T12:28:58.969Z</time></trkpt><trkpt lat="43.94255696316996" lon="12.21819992457003"><ele>387.2</ele><time>2026-04-18T12:28:59.969Z</time></trkpt><trkpt lat="43.94258844334008" lon="12.218338422068364"><ele>386.8</ele><time>2026-04-18T12:29:00.969Z</time></trkpt><trkpt lat="43.9426166636478" lon="12.218486137569593"><ele>386.4</ele><time>2026-04-18T12:29:01.969Z</time></trkpt><trkpt lat="43.94266062629721" lon="12.218620710825197"><ele>386.0</ele><time>2026-04-18T12:29:02.969Z</time></trkpt><trkpt lat="43.94273236548597" lon="12.218746926178905"><ele>386.0</ele><time>2026-04-18T12:29:03.969Z</time></trkpt><trkpt lat="43.942815733185476" lon="12.218872740190132"><ele>386.0</ele><time>2026-04-18T12:29:04.969Z</time></trkpt><trkpt lat="43.94292341918285" lon="12.218944299795217"><ele>386.0</ele><time>2026-04-18T12:29:05.969Z</time></trkpt><trkpt lat="43.943039612310194" lon="12.218996942857244"><ele>386.0</ele><time>2026-04-18T12:29:06.969Z</time></trkpt><trkpt lat="43.94314452964967" lon="12.219073819923858"><ele>388.20000000000005</ele><time>2026-04-18T12:29:07.969Z</time></trkpt><trkpt lat="43.94321256915883" lon="12.219117295297666"><ele>390.40000000000003</ele><time>2026-04-18T12:29:08.969Z</time></trkpt><trkpt lat="43.943259714576556" lon="12.219278919821287"><ele>392.6</ele><time>2026-04-18T12:29:10.969Z</time></trkpt><trkpt lat="43.94325211625126" lon="12.219383029466742"><ele>394.8</ele><time>2026-04-18T12:29:12.969Z</time></trkpt><trkpt lat="43.943194805424376" lon="12.219435044377397"><ele>397.0</ele><time>2026-04-18T12:29:13.969Z</time></trkpt><trkpt lat="43.94306895711804" lon="12.219396901326018"><ele>397.00000000000006</ele><time>2026-04-18T12:29:15.969Z</time></trkpt><trkpt lat="43.94298475085255" lon="12.219354652110164"><ele>397.0</ele><time>2026-04-18T12:29:16.969Z</time></trkpt><trkpt lat="43.94289797372686" lon="12.219351806526607"><ele>397.0</ele><time>2026-04-18T12:29:17.969Z</time></trkpt><trkpt lat="43.94282033281667" lon="12.219367154010845"><ele>397.0</ele><time>2026-04-18T12:29:18.969Z</time></trkpt><trkpt lat="43.94275378070108" lon="12.219426706359506"><ele>397.00000000000006</ele><time>2026-04-18T12:29:19.969Z</time></trkpt><trkpt lat="43.94271648232579" lon="12.219521553868816"><ele>397.0</ele><time>2026-04-18T12:29:20.969Z</time></trkpt><trkpt lat="43.942714587436356" lon="12.219625682441915"><ele>397.0</ele><time>2026-04-18T12:29:21.969Z</time></trkpt><trkpt lat="43.94275257529797" lon="12.21973862849511"><ele>397.0</ele><time>2026-04-18T12:29:22.969Z</time></trkpt><trkpt lat="43.94279131168907" lon="12.21983802277919"><ele>397.0</ele><time>2026-04-18T12:29:23.969Z</time></trkpt><trkpt lat="43.942797303313974" lon="12.219926228255297"><ele>397.0</ele><time>2026-04-18T12:29:24.969Z</time></trkpt><trkpt lat="43.942714691509224" lon="12.219993889486663"><ele>397.0</ele><time>2026-04-18T12:29:26.969Z</time></trkpt><trkpt lat="43.94258482977799" lon="12.219882903020272"><ele>398.40000000000003</ele><time>2026-04-18T12:29:28.969Z</time></trkpt><trkpt lat="43.94252317854825" lon="12.219831321377075"><ele>399.8</ele><time>2026-04-18T12:29:29.969Z</time></trkpt><trkpt lat="43.942462508262764" lon="12.219795424112151"><ele>401.2</ele><time>2026-04-18T12:29:30.969Z</time></trkpt><trkpt lat="43.942353274963494" lon="12.219824239180905"><ele>402.6</ele><time>2026-04-18T12:29:32.969Z</time></trkpt><trkpt lat="43.94237851865754" lon="12.219985424335452"><ele>404.0</ele><time>2026-04-18T12:29:34.969Z</time></trkpt><trkpt lat="43.94245268036368" lon="12.220039226290961"><ele>404.49999999999994</ele><time>2026-04-18T12:29:35.969Z</time></trkpt><trkpt lat="43.94252528415079" lon="12.22009594524203"><ele>405.0</ele><time>2026-04-18T12:29:36.969Z</time></trkpt><trkpt lat="43.942598007259726" lon="12.220147034192497"><ele>405.5</ele><time>2026-04-18T12:29:37.969Z</time></trkpt><trkpt lat="43.94266433339026" lon="12.220204788616334"><ele>406.0</ele><time>2026-04-18T12:29:38.969Z</time></trkpt><trkpt lat="43.94270108868968" lon="12.220279945985208"><ele>406.49999999999994</ele><time>2026-04-18T12:29:39.969Z</time></trkpt><trkpt lat="43.942671620294426" lon="12.220381628663658"><ele>407.0</ele><time>2026-04-18T12:29:41.969Z</time></trkpt><trkpt lat="43.94256920464914" lon="12.220359836389079"><ele>408.99999999999994</ele><time>2026-04-18T12:29:43.969Z</time></trkpt><trkpt lat="43.9425242324005" lon="12.220291484921717"><ele>411.0</ele><time>2026-04-18T12:29:44.969Z</time></trkpt><trkpt lat="43.942431508606106" lon="12.220191770045172"><ele>413.0</ele><time>2026-04-18T12:29:46.969Z</time></trkpt><trkpt lat="43.942368673807714" lon="12.220175186502301"><ele>415.0</ele><time>2026-04-18T12:29:47.969Z</time></trkpt><trkpt lat="43.942306435083616" lon="12.220197673728824"><ele>416.99999999999994</ele><time>2026-04-18T12:29:48.968Z</time></trkpt><trkpt lat="43.94221067969978" lon="12.220295922570013"><ele>419.0</ele><time>2026-04-18T12:29:50.968Z</time></trkpt><trkpt lat="43.942150420494094" lon="12.220428463167211"><ele>418.99999999999994</ele><time>2026-04-18T12:29:52.968Z</time></trkpt><trkpt lat="43.94211275741456" lon="12.22050537999381"><ele>419.0</ele><time>2026-04-18T12:29:53.968Z</time></trkpt><trkpt lat="43.94205283499924" lon="12.220626370265704"><ele>419.0</ele><time>2026-04-18T12:29:55.968Z</time></trkpt><trkpt lat="43.94201771003237" lon="12.220718775082386"><ele>419.0</ele><time>2026-04-18T12:29:56.968Z</time></trkpt><trkpt lat="43.94198565859841" lon="12.22082009635026"><ele>418.99999999999994</ele><time>2026-04-18T12:29:57.968Z</time></trkpt><trkpt lat="43.94197220241379" lon="12.220913671909333"><ele>419.0</ele><time>2026-04-18T12:29:58.968Z</time></trkpt><trkpt lat="43.94197056303602" lon="12.221012435827298"><ele>420.99999999999994</ele><time>2026-04-18T12:29:59.968Z</time></trkpt><trkpt lat="43.94198002211207" lon="12.221118145350246"><ele>423.0</ele><time>2026-04-18T12:30:00.968Z</time></trkpt><trkpt lat="43.941990271625926" lon="12.221221101554486"><ele>425.0</ele><time>2026-04-18T12:30:01.968Z</time></trkpt><trkpt lat="43.94200155948453" lon="12.221343199056959"><ele>427.0</ele><time>2026-04-18T12:30:02.968Z</time></trkpt><trkpt lat="43.94200116951175" lon="12.221464443832808"><ele>428.99999999999994</ele><time>2026-04-18T12:30:03.968Z</time></trkpt><trkpt lat="43.941997994277536" lon="12.22158857256682"><ele>431.0</ele><time>2026-04-18T12:30:04.968Z</time></trkpt><trkpt lat="43.941989622853" lon="12.221716604425941"><ele>432.6</ele><time>2026-04-18T12:30:05.968Z</time></trkpt><trkpt lat="43.94196496915979" lon="12.22184224353394"><ele>434.20000000000005</ele><time>2026-04-18T12:30:06.968Z</time></trkpt><trkpt lat="43.941922599905745" lon="12.221968240474945"><ele>435.79999999999995</ele><time>2026-04-18T12:30:07.968Z</time></trkpt><trkpt lat="43.94186254653495" lon="12.222087955192295"><ele>437.4</ele><time>2026-04-18T12:30:08.968Z</time></trkpt><trkpt lat="43.94178957528307" lon="12.222200952171834"><ele>439.0</ele><time>2026-04-18T12:30:09.968Z</time></trkpt><trkpt lat="43.94172194612483" lon="12.222300988497"><ele>442.2</ele><time>2026-04-18T12:30:10.968Z</time></trkpt><trkpt lat="43.94165735521707" lon="12.222416309204094"><ele>445.4</ele><time>2026-04-18T12:30:11.968Z</time></trkpt><trkpt lat="43.941599558171085" lon="12.222551979300937"><ele>448.6</ele><time>2026-04-18T12:30:12.968Z</time></trkpt><trkpt lat="43.94154824314935" lon="12.222696955101604"><ele>451.8</ele><time>2026-04-18T12:30:13.968Z</time></trkpt><trkpt lat="43.94149306014889" lon="12.222832274872566"><ele>455.0</ele><time>2026-04-18T12:30:14.968Z</time></trkpt><trkpt lat="43.94143666946379" lon="12.222950173004968"><ele>455.0</ele><time>2026-04-18T12:30:15.968Z</time></trkpt><trkpt lat="43.941374905953744" lon="12.223070531001321"><ele>455.0</ele><time>2026-04-18T12:30:16.968Z</time></trkpt><trkpt lat="43.94131624535359" lon="12.223206613314566"><ele>455.0</ele><time>2026-04-18T12:30:17.968Z</time></trkpt><trkpt lat="43.94125302207529" lon="12.223321860844623"><ele>455.0</ele><time>2026-04-18T12:30:18.968Z</time></trkpt><trkpt lat="43.941186875970864" lon="12.223438897996036"><ele>455.0</ele><time>2026-04-18T12:30:19.968Z</time></trkpt><trkpt lat="43.94111662168127" lon="12.223548619150188"><ele>456.4</ele><time>2026-04-18T12:30:20.968Z</time></trkpt><trkpt lat="43.94105310823506" lon="12.223655263023803"><ele>457.8</ele><time>2026-04-18T12:30:21.968Z</time></trkpt><trkpt lat="43.940991049185676" lon="12.223755282697384"><ele>459.20000000000005</ele><time>2026-04-18T12:30:22.968Z</time></trkpt><trkpt lat="43.94092750508058" lon="12.223890490155938"><ele>460.6</ele><time>2026-04-18T12:30:23.968Z</time></trkpt><trkpt lat="43.940896259516705" lon="12.223996780941897"><ele>462.0</ele><time>2026-04-18T12:30:24.968Z</time></trkpt><trkpt lat="43.94086784088425" lon="12.2241201496179"><ele>463.8</ele><time>2026-04-18T12:30:25.968Z</time></trkpt><trkpt lat="43.94084940487062" lon="12.224260852549472"><ele>465.6</ele><time>2026-04-18T12:30:26.968Z</time></trkpt><trkpt lat="43.940844753180436" lon="12.224408996647016"><ele>467.40000000000003</ele><time>2026-04-18T12:30:27.968Z</time></trkpt><trkpt lat="43.94086006464854" lon="12.224569410329291"><ele>469.20000000000005</ele><time>2026-04-18T12:30:28.968Z</time></trkpt><trkpt lat="43.94088105477416" lon="12.224736802694213"><ele>471.0</ele><time>2026-04-18T12:30:29.968Z</time></trkpt><trkpt lat="43.9409123689667" lon="12.224900589657528"><ele>471.0</ele><time>2026-04-18T12:30:30.968Z</time></trkpt><trkpt lat="43.94094882710521" lon="12.225057774537799"><ele>471.0</ele><time>2026-04-18T12:30:31.968Z</time></trkpt><trkpt lat="43.940988174819395" lon="12.225206241526575"><ele>471.0</ele><time>2026-04-18T12:30:32.968Z</time></trkpt><trkpt lat="43.94104691167361" lon="12.225343144430358"><ele>471.0</ele><time>2026-04-18T12:30:33.968Z</time></trkpt><trkpt lat="43.941118162773606" lon="12.225467667494764"><ele>471.0</ele><time>2026-04-18T12:30:34.968Z</time></trkpt><trkpt lat="43.941197603972064" lon="12.225582897914427"><ele>471.0</ele><time>2026-04-18T12:30:35.968Z</time></trkpt><trkpt lat="43.941268380278245" lon="12.225700289886577"><ele>471.0</ele><time>2026-04-18T12:30:36.968Z</time></trkpt><trkpt lat="43.94132463097633" lon="12.225809930650597"><ele>471.0</ele><time>2026-04-18T12:30:37.968Z</time></trkpt><trkpt lat="43.94136023220483" lon="12.225936472827446"><ele>471.0</ele><time>2026-04-18T12:30:38.968Z</time></trkpt><trkpt lat="43.94136821407678" lon="12.226074138575965"><ele>474.4</ele><time>2026-04-18T12:30:39.968Z</time></trkpt><trkpt lat="43.941362651557796" lon="12.226199825936996"><ele>477.8</ele><time>2026-04-18T12:30:40.968Z</time></trkpt><trkpt lat="43.941368436798726" lon="12.22632152466013"><ele>481.19999999999993</ele><time>2026-04-18T12:30:41.968Z</time></trkpt><trkpt lat="43.941387206148804" lon="12.226438498866417"><ele>484.59999999999997</ele><time>2026-04-18T12:30:42.968Z</time></trkpt><trkpt lat="43.941431178739634" lon="12.226565012630733"><ele>488.0</ele><time>2026-04-18T12:30:43.968Z</time></trkpt><trkpt lat="43.941487380606006" lon="12.226677241587407"><ele>489.2</ele><time>2026-04-18T12:30:44.968Z</time></trkpt><trkpt lat="43.94157186532464" lon="12.226783213263587"><ele>490.4</ele><time>2026-04-18T12:30:45.968Z</time></trkpt><trkpt lat="43.941666149985046" lon="12.226877435396874"><ele>491.59999999999997</ele><time>2026-04-18T12:30:46.968Z</time></trkpt><trkpt lat="43.94176335655256" lon="12.226961158513882"><ele>492.79999999999995</ele><time>2026-04-18T12:30:47.967Z</time></trkpt><trkpt lat="43.94184798708792" lon="12.227047103087374"><ele>494.0</ele><time>2026-04-18T12:30:48.967Z</time></trkpt><trkpt lat="43.94192744706787" lon="12.227098396100097"><ele>493.99999999999994</ele><time>2026-04-18T12:30:49.967Z</time></trkpt><trkpt lat="43.94200440421617" lon="12.227134139704228"><ele>494.0</ele><time>2026-04-18T12:30:50.967Z</time></trkpt><trkpt lat="43.94206143941087" lon="12.227176552430326"><ele>494.0</ele><time>2026-04-18T12:30:51.967Z</time></trkpt><trkpt lat="43.942118766657615" lon="12.227270587902604"><ele>494.0</ele><time>2026-04-18T12:30:53.967Z</time></trkpt><trkpt lat="43.94213148375291" lon="12.227361198788815"><ele>493.99999999999994</ele><time>2026-04-18T12:30:56.967Z</time></trkpt><trkpt lat="43.94204125253829" lon="12.227388789484422"><ele>494.0</ele><time>2026-04-18T12:31:08.967Z</time></trkpt><trkpt lat="43.94197641894615" lon="12.227334751755738"><ele>507.0</ele><time>2026-04-18T12:31:10.967Z</time></trkpt><trkpt lat="43.94197726092866" lon="12.227236291538516"><ele>494.0</ele><time>2026-04-18T12:31:13.967Z</time></trkpt></trkseg><trkseg><trkpt lat="43.94208123932267" lon="12.227427995708187"><ele>507.0</ele><time>2026-04-18T12:52:26.001Z</time></trkpt><trkpt lat="43.94218793775937" lon="12.227457309661371"><ele>507.0</ele><time>2026-04-18T12:52:28.001Z</time></trkpt><trkpt lat="43.94229557538065" lon="12.227497158773286"><ele>507.0</ele><time>2026-04-18T12:52:30.001Z</time></trkpt><trkpt lat="43.94241676104279" lon="12.227558058022117"><ele>507.0</ele><time>2026-04-18T12:52:32.001Z</time></trkpt><trkpt lat="43.94253689794877" lon="12.22764864253019"><ele>506.0</ele><time>2026-04-18T12:52:34.001Z</time></trkpt><trkpt lat="43.94260970502805" lon="12.227692600323756"><ele>505.0</ele><time>2026-04-18T12:52:35.001Z</time></trkpt><trkpt lat="43.94267226779832" lon="12.227748516515074"><ele>504.0</ele><time>2026-04-18T12:52:36.001Z</time></trkpt><trkpt lat="43.94273851437142" lon="12.227802859158414"><ele>503.0</ele><time>2026-04-18T12:52:37.001Z</time></trkpt><trkpt lat="43.942802036229494" lon="12.22785241794735"><ele>502.0</ele><time>2026-04-18T12:52:38.001Z</time></trkpt><trkpt lat="43.942911931498564" lon="12.227899459768457"><ele>501.0</ele><time>2026-04-18T12:52:40.001Z</time></trkpt><trkpt lat="43.94302078654107" lon="12.227947313379392"><ele>501.0</ele><time>2026-04-18T12:52:42.001Z</time></trkpt><trkpt lat="43.943112928682254" lon="12.22797690817313"><ele>501.0</ele><time>2026-04-18T12:52:44.001Z</time></trkpt><trkpt lat="43.94317323697876" lon="12.228013067452295"><ele>501.0</ele><time>2026-04-18T12:53:16.001Z</time></trkpt><trkpt lat="43.943244169450644" lon="12.228008366548346"><ele>501.0</ele><time>2026-04-18T12:53:18.001Z</time></trkpt><trkpt lat="43.943362512068646" lon="12.227997793195259"><ele>501.0</ele><time>2026-04-18T12:53:20.001Z</time></trkpt><trkpt lat="43.94348848904224" lon="12.227978818933128"><ele>502.7142857142857</ele><time>2026-04-18T12:53:22.001Z</time></trkpt><trkpt lat="43.943563985210794" lon="12.227960160765464"><ele>504.42857142857144</ele><time>2026-04-18T12:53:23.001Z</time></trkpt><trkpt lat="43.94363264368538" lon="12.2279356058014"><ele>506.14285714285717</ele><time>2026-04-18T12:53:24.001Z</time></trkpt><trkpt lat="43.943702407851816" lon="12.22790573734103"><ele>507.8571428571429</ele><time>2026-04-18T12:53:25.001Z</time></trkpt><trkpt lat="43.943769287591444" lon="12.227872440800523"><ele>509.57142857142856</ele><time>2026-04-18T12:53:26.001Z</time></trkpt><trkpt lat="43.943838088113736" lon="12.227828790887687"><ele>511.28571428571433</ele><time>2026-04-18T12:53:27.001Z</time></trkpt><trkpt lat="43.9439065407846" lon="12.227785211689081"><ele>513.0</ele><time>2026-04-18T12:53:28.001Z</time></trkpt><trkpt lat="43.943977592088146" lon="12.227734414484937"><ele>513.0</ele><time>2026-04-18T12:53:29.001Z</time></trkpt><trkpt lat="43.944056049876444" lon="12.227695894830093"><ele>513.0</ele><time>2026-04-18T12:53:30.001Z</time></trkpt><trkpt lat="43.94414622231741" lon="12.227668881618595"><ele>513.0</ele><time>2026-04-18T12:53:31.001Z</time></trkpt><trkpt lat="43.94422663542478" lon="12.227678737992685"><ele>513.0</ele><time>2026-04-18T12:53:32.001Z</time></trkpt><trkpt lat="43.94430862388428" lon="12.227692804509864"><ele>513.0</ele><time>2026-04-18T12:53:33.001Z</time></trkpt><trkpt lat="43.9443967121402" lon="12.227736934900996"><ele>513.0</ele><time>2026-04-18T12:53:34.001Z</time></trkpt><trkpt lat="43.9444746887057" lon="12.227783207243363"><ele>515.6</ele><time>2026-04-18T12:53:35.001Z</time></trkpt><trkpt lat="43.94455425083195" lon="12.227839640014363"><ele>518.1999999999999</ele><time>2026-04-18T12:53:36.001Z</time></trkpt><trkpt lat="43.94464049193842" lon="12.227909804995887"><ele>520.8</ele><time>2026-04-18T12:53:37.001Z</time></trkpt><trkpt lat="43.94472710169492" lon="12.227967707869263"><ele>523.4</ele><time>2026-04-18T12:53:38.001Z</time></trkpt><trkpt lat="43.944808210307585" lon="12.228028131592854"><ele>526.0</ele><time>2026-04-18T12:53:39.001Z</time></trkpt><trkpt lat="43.9448858132027" lon="12.228079320401537"><ele>526.0</ele><time>2026-04-18T12:53:40.001Z</time></trkpt><trkpt lat="43.9449576352326" lon="12.228140197586269"><ele>526.0</ele><time>2026-04-18T12:53:41.001Z</time></trkpt><trkpt lat="43.945017705909684" lon="12.22819158665029"><ele>526.0</ele><time>2026-04-18T12:53:42.001Z</time></trkpt><trkpt lat="43.94509583029601" lon="12.228251157469119"><ele>526.0</ele><time>2026-04-18T12:53:43.001Z</time></trkpt><trkpt lat="43.94516498797449" lon="12.228298177010405"><ele>526.0</ele><time>2026-04-18T12:53:44.002Z</time></trkpt><trkpt lat="43.945248914134886" lon="12.228344632979928"><ele>526.0</ele><time>2026-04-18T12:53:45.002Z</time></trkpt><trkpt lat="43.94535330174753" lon="12.228384352495496"><ele>526.0</ele><time>2026-04-18T12:53:46.002Z</time></trkpt><trkpt lat="43.94543421671643" lon="12.22843303899047"><ele>526.0</ele><time>2026-04-18T12:53:47.002Z</time></trkpt><trkpt lat="43.94552374934056" lon="12.228482855961982"><ele>526.0</ele><time>2026-04-18T12:53:48.002Z</time></trkpt><trkpt lat="43.94560740454024" lon="12.228523071838293"><ele>526.0</ele><time>2026-04-18T12:53:49.002Z</time></trkpt><trkpt lat="43.945688353812685" lon="12.228557116833079"><ele>526.0</ele><time>2026-04-18T12:53:50.002Z</time></trkpt><trkpt lat="43.945770243858426" lon="12.228572045574591"><ele>526.0</ele><time>2026-04-18T12:53:51.002Z</time></trkpt><trkpt lat="43.945844485082205" lon="12.228568187301978"><ele>524.4</ele><time>2026-04-18T12:53:52.002Z</time></trkpt><trkpt lat="43.94594581328954" lon="12.22853579718048"><ele>522.8</ele><time>2026-04-18T12:53:53.002Z</time></trkpt><trkpt lat="43.94603578985975" lon="12.228489571432535"><ele>521.1999999999999</ele><time>2026-04-18T12:53:54.002Z</time></trkpt><trkpt lat="43.94612627940655" lon="12.228443482714544"><ele>519.6</ele><time>2026-04-18T12:53:55.002Z</time></trkpt><trkpt lat="43.946235282916874" lon="12.228369970165025"><ele>518.0</ele><time>2026-04-18T12:53:56.002Z</time></trkpt><trkpt lat="43.94634354295057" lon="12.228325972026772"><ele>518.0</ele><time>2026-04-18T12:53:57.002Z</time></trkpt><trkpt lat="43.94644833568207" lon="12.22828309262107"><ele>518.0</ele><time>2026-04-18T12:53:58.002Z</time></trkpt><trkpt lat="43.946569734720974" lon="12.228258694492737"><ele>518.0</ele><time>2026-04-18T12:53:59.002Z</time></trkpt><trkpt lat="43.946677872943866" lon="12.228229093567446"><ele>518.0</ele><time>2026-04-18T12:54:00.002Z</time></trkpt><trkpt lat="43.94679382664631" lon="12.228223131074706"><ele>518.8</ele><time>2026-04-18T12:54:01.002Z</time></trkpt><trkpt lat="43.94689991142104" lon="12.228212836234535"><ele>519.5999999999999</ele><time>2026-04-18T12:54:02.002Z</time></trkpt><trkpt lat="43.94700234706415" lon="12.228211961209885"><ele>520.4000000000001</ele><time>2026-04-18T12:54:03.002Z</time></trkpt><trkpt lat="43.94709976347462" lon="12.22820061157223"><ele>521.2</ele><time>2026-04-18T12:54:04.002Z</time></trkpt><trkpt lat="43.94721209840946" lon="12.228174856670764"><ele>522.0</ele><time>2026-04-18T12:54:05.002Z</time></trkpt><trkpt lat="43.94731854154421" lon="12.228142281036167"><ele>522.0</ele><time>2026-04-18T12:54:06.002Z</time></trkpt><trkpt lat="43.947412664678026" lon="12.228114579588176"><ele>522.0</ele><time>2026-04-18T12:54:07.002Z</time></trkpt><trkpt lat="43.94750897627335" lon="12.228085308284276"><ele>522.0</ele><time>2026-04-18T12:54:08.002Z</time></trkpt><trkpt lat="43.947596083743285" lon="12.22803802950708"><ele>522.0</ele><time>2026-04-18T12:54:09.002Z</time></trkpt><trkpt lat="43.9476805164474" lon="12.227965805549092"><ele>522.0</ele><time>2026-04-18T12:54:10.002Z</time></trkpt><trkpt lat="43.947754380468155" lon="12.227878222592812"><ele>519.6</ele><time>2026-04-18T12:54:11.002Z</time></trkpt><trkpt lat="43.947824361533726" lon="12.22779632663187"><ele>517.2</ele><time>2026-04-18T12:54:12.002Z</time></trkpt><trkpt lat="43.947892058979626" lon="12.22772380815466"><ele>514.8</ele><time>2026-04-18T12:54:13.002Z</time></trkpt><trkpt lat="43.94797338590119" lon="12.227654210133597"><ele>512.4</ele><time>2026-04-18T12:54:14.002Z</time></trkpt><trkpt lat="43.94805349909981" lon="12.227604153224204"><ele>510.0</ele><time>2026-04-18T12:54:15.002Z</time></trkpt><trkpt lat="43.94814374742029" lon="12.227567535808515"><ele>510.0</ele><time>2026-04-18T12:54:16.002Z</time></trkpt><trkpt lat="43.94824720319817" lon="12.227546324747555"><ele>510.0</ele><time>2026-04-18T12:54:17.002Z</time></trkpt><trkpt lat="43.94835166183088" lon="12.22754943131105"><ele>510.0</ele><time>2026-04-18T12:54:18.002Z</time></trkpt><trkpt lat="43.9484597463477" lon="12.227572565809247"><ele>510.0</ele><time>2026-04-18T12:54:19.002Z</time></trkpt><trkpt lat="43.94856881014987" lon="12.227617919510205"><ele>510.0</ele><time>2026-04-18T12:54:20.002Z</time></trkpt><trkpt lat="43.94867489813193" lon="12.227668543337206"><ele>509.4</ele><time>2026-04-18T12:54:21.002Z</time></trkpt><trkpt lat="43.948759426159725" lon="12.227744541930669"><ele>508.8</ele><time>2026-04-18T12:54:22.002Z</time></trkpt><trkpt lat="43.94884281370423" lon="12.227835563798054"><ele>508.20000000000005</ele><time>2026-04-18T12:54:23.002Z</time></trkpt><trkpt lat="43.948920723240214" lon="12.22794047696657"><ele>507.6</ele><time>2026-04-18T12:54:24.002Z</time></trkpt><trkpt lat="43.94900231778214" lon="12.228045309014396"><ele>507.0</ele><time>2026-04-18T12:54:25.002Z</time></trkpt><trkpt lat="43.94908417615269" lon="12.228131376155837"><ele>506.6</ele><time>2026-04-18T12:54:26.002Z</time></trkpt><trkpt lat="43.9491641340046" lon="12.228196527581249"><ele>506.20000000000005</ele><time>2026-04-18T12:54:27.002Z</time></trkpt><trkpt lat="43.949243366695406" lon="12.228245113598087"><ele>505.8</ele><time>2026-04-18T12:54:28.002Z</time></trkpt><trkpt lat="43.949328564679654" lon="12.228303918375289"><ele>505.4</ele><time>2026-04-18T12:54:29.002Z</time></trkpt><trkpt lat="43.94942924195021" lon="12.228355227233925"><ele>505.0</ele><time>2026-04-18T12:54:30.002Z</time></trkpt><trkpt lat="43.94953115237515" lon="12.228405535657112"><ele>505.0</ele><time>2026-04-18T12:54:31.002Z</time></trkpt><trkpt lat="43.94964048248752" lon="12.228453686839744"><ele>505.0</ele><time>2026-04-18T12:54:32.002Z</time></trkpt><trkpt lat="43.94974556241308" lon="12.228503964538199"><ele>505.0</ele><time>2026-04-18T12:54:33.002Z</time></trkpt><trkpt lat="43.94983862239452" lon="12.228557751646896"><ele>505.0</ele><time>2026-04-18T12:54:34.002Z</time></trkpt><trkpt lat="43.949931319360594" lon="12.228603269892414"><ele>505.0</ele><time>2026-04-18T12:54:35.002Z</time></trkpt><trkpt lat="43.9500203524117" lon="12.228629644207198"><ele>503.4</ele><time>2026-04-18T12:54:36.002Z</time></trkpt><trkpt lat="43.950121971994534" lon="12.22864351768944"><ele>501.8</ele><time>2026-04-18T12:54:37.002Z</time></trkpt><trkpt lat="43.95024010814171" lon="12.228637314421492"><ele>500.20000000000005</ele><time>2026-04-18T12:54:38.002Z</time></trkpt><trkpt lat="43.95034395343888" lon="12.228637412271038"><ele>498.6</ele><time>2026-04-18T12:54:39.002Z</time></trkpt><trkpt lat="43.950449747361795" lon="12.228630747558604"><ele>497.0</ele><time>2026-04-18T12:54:40.002Z</time></trkpt><trkpt lat="43.95055033882878" lon="12.228619580984967"><ele>497.0</ele><time>2026-04-18T12:54:41.002Z</time></trkpt><trkpt lat="43.950652208226344" lon="12.22858723020391"><ele>497.00000000000006</ele><time>2026-04-18T12:54:42.002Z</time></trkpt><trkpt lat="43.950750048941465" lon="12.228563959295776"><ele>497.00000000000006</ele><time>2026-04-18T12:54:43.002Z</time></trkpt><trkpt lat="43.950846311095134" lon="12.228550990145813"><ele>497.0</ele><time>2026-04-18T12:54:44.002Z</time></trkpt><trkpt lat="43.950942463964815" lon="12.228546488867796"><ele>497.0</ele><time>2026-04-18T12:54:45.002Z</time></trkpt><trkpt lat="43.95104511712715" lon="12.22854712940405"><ele>497.40000000000003</ele><time>2026-04-18T12:54:46.002Z</time></trkpt><trkpt lat="43.9511365629512" lon="12.228541654983394"><ele>497.80000000000007</ele><time>2026-04-18T12:54:47.002Z</time></trkpt><trkpt lat="43.95123394756914" lon="12.228541545903735"><ele>498.2</ele><time>2026-04-18T12:54:48.002Z</time></trkpt><trkpt lat="43.951337656696786" lon="12.228538574158161"><ele>498.6</ele><time>2026-04-18T12:54:49.002Z</time></trkpt><trkpt lat="43.95143720590133" lon="12.228527810586781"><ele>499.0</ele><time>2026-04-18T12:54:50.002Z</time></trkpt><trkpt lat="43.95153085992549" lon="12.228522108949807"><ele>499.0</ele><time>2026-04-18T12:54:51.002Z</time></trkpt><trkpt lat="43.95162544909757" lon="12.22852232825096"><ele>499.0</ele><time>2026-04-18T12:54:52.002Z</time></trkpt><trkpt lat="43.95173009625571" lon="12.228522029539302"><ele>499.0</ele><time>2026-04-18T12:54:53.002Z</time></trkpt><trkpt lat="43.95182931201392" lon="12.228511275690215"><ele>499.0</ele><time>2026-04-18T12:54:54.002Z</time></trkpt><trkpt lat="43.95193349001545" lon="12.228510659500003"><ele>499.0</ele><time>2026-04-18T12:54:55.002Z</time></trkpt><trkpt lat="43.95204848829808" lon="12.228510383663634"><ele>499.0</ele><time>2026-04-18T12:54:56.002Z</time></trkpt><trkpt lat="43.95217503414348" lon="12.228510299290681"><ele>499.0</ele><time>2026-04-18T12:54:57.002Z</time></trkpt><trkpt lat="43.95229930459445" lon="12.228520301552743"><ele>499.0</ele><time>2026-04-18T12:54:58.002Z</time></trkpt><trkpt lat="43.952420215814996" lon="12.228548493865901"><ele>499.0</ele><time>2026-04-18T12:54:59.002Z</time></trkpt><trkpt lat="43.952531220781815" lon="12.228594999981995"><ele>497.4</ele><time>2026-04-18T12:55:00.002Z</time></trkpt><trkpt lat="43.952626093516756" lon="12.228652430230706"><ele>495.79999999999995</ele><time>2026-04-18T12:55:01.002Z</time></trkpt><trkpt lat="43.95273050514542" lon="12.228707034364826"><ele>494.20000000000005</ele><time>2026-04-18T12:55:02.002Z</time></trkpt><trkpt lat="43.95283199764856" lon="12.228767102579273"><ele>492.6</ele><time>2026-04-18T12:55:03.002Z</time></trkpt><trkpt lat="43.95293380698578" lon="12.228831908927145"><ele>491.0</ele><time>2026-04-18T12:55:04.002Z</time></trkpt><trkpt lat="43.95303385715634" lon="12.228892445099264"><ele>491.0</ele><time>2026-04-18T12:55:05.002Z</time></trkpt><trkpt lat="43.95313788195055" lon="12.228954879104158"><ele>491.0</ele><time>2026-04-18T12:55:06.002Z</time></trkpt><trkpt lat="43.95324278187265" lon="12.229003560760882"><ele>491.0</ele><time>2026-04-18T12:55:07.002Z</time></trkpt><trkpt lat="43.953357675922085" lon="12.229060894187166"><ele>491.0</ele><time>2026-04-18T12:55:08.002Z</time></trkpt><trkpt lat="43.95346842523041" lon="12.2291205806184"><ele>495.25</ele><time>2026-04-18T12:55:09.002Z</time></trkpt><trkpt lat="43.95357768923435" lon="12.229172688692024"><ele>499.5</ele><time>2026-04-18T12:55:10.002Z</time></trkpt><trkpt lat="43.95369236205576" lon="12.229230616176222"><ele>503.75</ele><time>2026-04-18T12:55:11.002Z</time></trkpt><trkpt lat="43.95379813875696" lon="12.229275887824596"><ele>508.0</ele><time>2026-04-18T12:55:12.002Z</time></trkpt><trkpt lat="43.95390006741554" lon="12.229333935345664"><ele>508.0</ele><time>2026-04-18T12:55:13.002Z</time></trkpt><trkpt lat="43.95399669793694" lon="12.2293974821609"><ele>507.99999999999994</ele><time>2026-04-18T12:55:14.002Z</time></trkpt><trkpt lat="43.95409143944687" lon="12.229473194429476"><ele>507.99999999999994</ele><time>2026-04-18T12:55:15.002Z</time></trkpt><trkpt lat="43.954177943593734" lon="12.229552451588313"><ele>508.0</ele><time>2026-04-18T12:55:16.002Z</time></trkpt><trkpt lat="43.95424965814374" lon="12.229629659996549"><ele>508.0</ele><time>2026-04-18T12:55:17.002Z</time></trkpt><trkpt lat="43.95432808301906" lon="12.229713305036483"><ele>510.59999999999997</ele><time>2026-04-18T12:55:18.002Z</time></trkpt><trkpt lat="43.954408299291124" lon="12.229799423308858"><ele>513.1999999999999</ele><time>2026-04-18T12:55:19.002Z</time></trkpt><trkpt lat="43.95447594022653" lon="12.229887998667781"><ele>515.8</ele><time>2026-04-18T12:55:20.002Z</time></trkpt><trkpt lat="43.95454098955119" lon="12.229980593183429"><ele>518.4</ele><time>2026-04-18T12:55:21.002Z</time></trkpt><trkpt lat="43.95460509426319" lon="12.230072637315784"><ele>521.0</ele><time>2026-04-18T12:55:22.002Z</time></trkpt><trkpt lat="43.95468480024619" lon="12.230171750463436"><ele>521.0</ele><time>2026-04-18T12:55:23.002Z</time></trkpt><trkpt lat="43.954770639047865" lon="12.230269801876753"><ele>521.0</ele><time>2026-04-18T12:55:24.002Z</time></trkpt><trkpt lat="43.95485224553583" lon="12.230367939473131"><ele>521.0</ele><time>2026-04-18T12:55:25.002Z</time></trkpt><trkpt lat="43.95492512811853" lon="12.230475226011878"><ele>521.0</ele><time>2026-04-18T12:55:26.002Z</time></trkpt><trkpt lat="43.95498246651178" lon="12.230566691092726"><ele>521.0</ele><time>2026-04-18T12:55:27.002Z</time></trkpt><trkpt lat="43.95503437348104" lon="12.230648164651255"><ele>518.6666666666666</ele><time>2026-04-18T12:55:28.002Z</time></trkpt><trkpt lat="43.95509242533174" lon="12.230709527640546"><ele>516.3333333333333</ele><time>2026-04-18T12:55:29.002Z</time></trkpt><trkpt lat="43.955169678202864" lon="12.230755575418621"><ele>514.0</ele><time>2026-04-18T12:55:30.002Z</time></trkpt><trkpt lat="43.955246630620806" lon="12.230781349497962"><ele>511.66666666666663</ele><time>2026-04-18T12:55:31.002Z</time></trkpt><trkpt lat="43.95532722333655" lon="12.23076622937309"><ele>509.3333333333333</ele><time>2026-04-18T12:55:32.002Z</time></trkpt><trkpt lat="43.955413465455635" lon="12.230711645426565"><ele>507.0</ele><time>2026-04-18T12:55:33.002Z</time></trkpt><trkpt lat="43.955490690365835" lon="12.230665471484397"><ele>510.40000000000003</ele><time>2026-04-18T12:55:34.002Z</time></trkpt><trkpt lat="43.955556007891886" lon="12.230603690808227"><ele>513.8000000000001</ele><time>2026-04-18T12:55:35.002Z</time></trkpt><trkpt lat="43.95561678786869" lon="12.23051627984748"><ele>517.2</ele><time>2026-04-18T12:55:36.002Z</time></trkpt><trkpt lat="43.955687204555076" lon="12.230412740063638"><ele>520.6</ele><time>2026-04-18T12:55:37.002Z</time></trkpt><trkpt lat="43.955761555349255" lon="12.23029580290575"><ele>524.0</ele><time>2026-04-18T12:55:38.002Z</time></trkpt><trkpt lat="43.95583918934398" lon="12.230197653920335"><ele>519.8</ele><time>2026-04-18T12:55:39.002Z</time></trkpt><trkpt lat="43.95591578736948" lon="12.230119214175005"><ele>515.5999999999999</ele><time>2026-04-18T12:55:40.002Z</time></trkpt><trkpt lat="43.95598807846061" lon="12.230044502012834"><ele>511.4</ele><time>2026-04-18T12:55:41.002Z</time></trkpt><trkpt lat="43.95607270299852" lon="12.229981853885553"><ele>507.2</ele><time>2026-04-18T12:55:42.002Z</time></trkpt><trkpt lat="43.95616815299111" lon="12.229918734000798"><ele>503.0</ele><time>2026-04-18T12:55:43.002Z</time></trkpt><trkpt lat="43.9562553751234" lon="12.229865716726163"><ele>503.0</ele><time>2026-04-18T12:55:44.002Z</time></trkpt><trkpt lat="43.95634819623955" lon="12.229818798207491"><ele>502.99999999999994</ele><time>2026-04-18T12:55:45.001Z</time></trkpt><trkpt lat="43.95644504073515" lon="12.229777868920634"><ele>502.99999999999994</ele><time>2026-04-18T12:55:46.001Z</time></trkpt><trkpt lat="43.95653723773095" lon="12.229745571963859"><ele>503.0</ele><time>2026-04-18T12:55:47.001Z</time></trkpt><trkpt lat="43.95663392204149" lon="12.229723972927527"><ele>503.0</ele><time>2026-04-18T12:55:48.001Z</time></trkpt><trkpt lat="43.956737252326434" lon="12.229704696143724"><ele>504.0</ele><time>2026-04-18T12:55:49.001Z</time></trkpt><trkpt lat="43.95683346440153" lon="12.22970494115763"><ele>504.99999999999994</ele><time>2026-04-18T12:55:50.001Z</time></trkpt><trkpt lat="43.956926849641754" lon="12.229719905808308"><ele>505.99999999999994</ele><time>2026-04-18T12:55:51.001Z</time></trkpt><trkpt lat="43.95702565675199" lon="12.229734198428531"><ele>507.0</ele><time>2026-04-18T12:55:52.001Z</time></trkpt><trkpt lat="43.95712474962464" lon="12.229753008398555"><ele>508.0</ele><time>2026-04-18T12:55:53.001Z</time></trkpt><trkpt lat="43.95722722373654" lon="12.229777020608793"><ele>508.0</ele><time>2026-04-18T12:55:54.001Z</time></trkpt><trkpt lat="43.95732320644608" lon="12.229804011757656"><ele>507.99999999999994</ele><time>2026-04-18T12:55:55.001Z</time></trkpt><trkpt lat="43.95743097170658" lon="12.229833309818275"><ele>507.99999999999994</ele><time>2026-04-18T12:55:56.001Z</time></trkpt><trkpt lat="43.957538088201034" lon="12.229856550441527"><ele>508.0</ele><time>2026-04-18T12:55:57.001Z</time></trkpt><trkpt lat="43.95764837553903" lon="12.229883088806728"><ele>508.0</ele><time>2026-04-18T12:55:58.001Z</time></trkpt><trkpt lat="43.957767343906944" lon="12.22990601693695"><ele>508.0</ele><time>2026-04-18T12:55:59.001Z</time></trkpt><trkpt lat="43.95789487238042" lon="12.229923950517911"><ele>508.0</ele><time>2026-04-18T12:56:00.001Z</time></trkpt><trkpt lat="43.95802307272727" lon="12.229940200871905"><ele>508.0</ele><time>2026-04-18T12:56:01.001Z</time></trkpt><trkpt lat="43.95814293035509" lon="12.229950782522057"><ele>508.0</ele><time>2026-04-18T12:56:02.001Z</time></trkpt><trkpt lat="43.95825040710112" lon="12.229961505567042"><ele>508.0</ele><time>2026-04-18T12:56:03.001Z</time></trkpt><trkpt lat="43.95835130707343" lon="12.229970849902948"><ele>507.99999999999994</ele><time>2026-04-18T12:56:04.001Z</time></trkpt><trkpt lat="43.95844324536553" lon="12.22998000075053"><ele>507.99999999999994</ele><time>2026-04-18T12:56:05.001Z</time></trkpt><trkpt lat="43.958534881273046" lon="12.229999384159928"><ele>508.0</ele><time>2026-04-18T12:56:06.001Z</time></trkpt><trkpt lat="43.95864241518481" lon="12.230039408925945"><ele>508.0</ele><time>2026-04-18T12:56:07.001Z</time></trkpt><trkpt lat="43.95874384307035" lon="12.230104256235101"><ele>509.5</ele><time>2026-04-18T12:56:08.001Z</time></trkpt><trkpt lat="43.958835685886385" lon="12.23018630113223"><ele>511.0</ele><time>2026-04-18T12:56:09.001Z</time></trkpt><trkpt lat="43.95893193562897" lon="12.230261035872301"><ele>512.5</ele><time>2026-04-18T12:56:10.001Z</time></trkpt><trkpt lat="43.95902907015907" lon="12.23034272934388"><ele>514.0</ele><time>2026-04-18T12:56:11.001Z</time></trkpt><trkpt lat="43.95913221810074" lon="12.230421891291309"><ele>516.2</ele><time>2026-04-18T12:56:12.001Z</time></trkpt><trkpt lat="43.95921989231873" lon="12.230497919492255"><ele>518.4</ele><time>2026-04-18T12:56:13.001Z</time></trkpt><trkpt lat="43.959307678749276" lon="12.23053927805905"><ele>520.6</ele><time>2026-04-18T12:56:14.001Z</time></trkpt><trkpt lat="43.959398452178625" lon="12.230576284035411"><ele>522.8</ele><time>2026-04-18T12:56:15.001Z</time></trkpt><trkpt lat="43.959491575644755" lon="12.230587181672927"><ele>525.0</ele><time>2026-04-18T12:56:16.001Z</time></trkpt><trkpt lat="43.95958611057611" lon="12.230582089883123"><ele>525.0</ele><time>2026-04-18T12:56:17.001Z</time></trkpt><trkpt lat="43.95968165360374" lon="12.230579507970532"><ele>525.0</ele><time>2026-04-18T12:56:18.001Z</time></trkpt><trkpt lat="43.959775219313535" lon="12.230564422857693"><ele>525.0</ele><time>2026-04-18T12:56:19.001Z</time></trkpt><trkpt lat="43.959872485129345" lon="12.230533928632832"><ele>525.0</ele><time>2026-04-18T12:56:20.001Z</time></trkpt><trkpt lat="43.95996518521751" lon="12.230488106810695"><ele>525.0</ele><time>2026-04-18T12:56:21.001Z</time></trkpt><trkpt lat="43.960054670817314" lon="12.23043566903789"><ele>524.8</ele><time>2026-04-18T12:56:22.001Z</time></trkpt><trkpt lat="43.960144153440424" lon="12.230368965206274"><ele>524.6</ele><time>2026-04-18T12:56:23.001Z</time></trkpt><trkpt lat="43.96023380218856" lon="12.230292241002209"><ele>524.4</ele><time>2026-04-18T12:56:24.001Z</time></trkpt><trkpt lat="43.9603226351781" lon="12.23022159331431"><ele>524.2</ele><time>2026-04-18T12:56:25.001Z</time></trkpt><trkpt lat="43.960419255825975" lon="12.230154422114339"><ele>524.0</ele><time>2026-04-18T12:56:26.001Z</time></trkpt><trkpt lat="43.96051442646114" lon="12.2300926133329"><ele>524.0</ele><time>2026-04-18T12:56:27.001Z</time></trkpt><trkpt lat="43.960608535472666" lon="12.230039681489165"><ele>524.0</ele><time>2026-04-18T12:56:28.001Z</time></trkpt><trkpt lat="43.960704705201685" lon="12.230003997852242"><ele>524.0</ele><time>2026-04-18T12:56:29.001Z</time></trkpt><trkpt lat="43.96080757300055" lon="12.229959159170939"><ele>524.0</ele><time>2026-04-18T12:56:30.001Z</time></trkpt><trkpt lat="43.96091607071995" lon="12.22992764251701"><ele>524.0</ele><time>2026-04-18T12:56:31.001Z</time></trkpt><trkpt lat="43.96101819376669" lon="12.229886141999549"><ele>524.0</ele><time>2026-04-18T12:56:32.001Z</time></trkpt><trkpt lat="43.96111564261361" lon="12.22984968654086"><ele>524.0</ele><time>2026-04-18T12:56:33.001Z</time></trkpt><trkpt lat="43.96121571155531" lon="12.229812666693617"><ele>524.0</ele><time>2026-04-18T12:56:34.001Z</time></trkpt><trkpt lat="43.9613104848381" lon="12.229787002827987"><ele>524.0</ele><time>2026-04-18T12:56:35.001Z</time></trkpt><trkpt lat="43.96140444976321" lon="12.22977796468091"><ele>524.0</ele><time>2026-04-18T12:56:36.001Z</time></trkpt><trkpt lat="43.96149716927778" lon="12.229792664002174"><ele>524.6</ele><time>2026-04-18T12:56:37.001Z</time></trkpt><trkpt lat="43.96157849047094" lon="12.229859198321755"><ele>525.2</ele><time>2026-04-18T12:56:38.001Z</time></trkpt><trkpt lat="43.961664805958655" lon="12.229923878205366"><ele>525.8000000000001</ele><time>2026-04-18T12:56:39.001Z</time></trkpt><trkpt lat="43.96175060821761" lon="12.230024122700623"><ele>526.4</ele><time>2026-04-18T12:56:40.001Z</time></trkpt><trkpt lat="43.96183590508634" lon="12.2301417309193"><ele>527.0</ele><time>2026-04-18T12:56:41.001Z</time></trkpt><trkpt lat="43.961925075042274" lon="12.23025090804078"><ele>528.25</ele><time>2026-04-18T12:56:42.001Z</time></trkpt><trkpt lat="43.96201916462727" lon="12.23035628739575"><ele>529.5</ele><time>2026-04-18T12:56:43.001Z</time></trkpt><trkpt lat="43.9621205932291" lon="12.230475146273864"><ele>530.75</ele><time>2026-04-18T12:56:44.001Z</time></trkpt><trkpt lat="43.96221769876338" lon="12.23058760683828"><ele>532.0</ele><time>2026-04-18T12:56:45.001Z</time></trkpt><trkpt lat="43.962319760061355" lon="12.230689868060393"><ele>532.0</ele><time>2026-04-18T12:56:46.001Z</time></trkpt><trkpt lat="43.96240237804777" lon="12.230809467369445"><ele>532.0</ele><time>2026-04-18T12:56:47.001Z</time></trkpt><trkpt lat="43.96248371730218" lon="12.23091674784731"><ele>532.0</ele><time>2026-04-18T12:56:48.001Z</time></trkpt><trkpt lat="43.96257368038779" lon="12.231025237945627"><ele>532.0</ele><time>2026-04-18T12:56:49.001Z</time></trkpt><trkpt lat="43.962662058562124" lon="12.23114624828239"><ele>532.5</ele><time>2026-04-18T12:56:50.001Z</time></trkpt><trkpt lat="43.96275903807795" lon="12.231262239566899"><ele>533.0</ele><time>2026-04-18T12:56:51.001Z</time></trkpt><trkpt lat="43.96285901053357" lon="12.231387768590952"><ele>533.5</ele><time>2026-04-18T12:56:52.001Z</time></trkpt><trkpt lat="43.96295955485717" lon="12.231509410920992"><ele>534.0</ele><time>2026-04-18T12:56:53.001Z</time></trkpt><trkpt lat="43.963059898559514" lon="12.231638064444738"><ele>534.0</ele><time>2026-04-18T12:56:54.001Z</time></trkpt><trkpt lat="43.96315989954441" lon="12.231766268684684"><ele>534.0</ele><time>2026-04-18T12:56:55.001Z</time></trkpt><trkpt lat="43.963259624977105" lon="12.231890819857977"><ele>534.0</ele><time>2026-04-18T12:56:56.001Z</time></trkpt><trkpt lat="43.96334399576712" lon="12.232011160925621"><ele>534.0</ele><time>2026-04-18T12:56:57.001Z</time></trkpt><trkpt lat="43.96342976440651" lon="12.232127740034295"><ele>533.6</ele><time>2026-04-18T12:56:58.001Z</time></trkpt><trkpt lat="43.963505115543015" lon="12.232232814877182"><ele>533.2</ele><time>2026-04-18T12:56:59.001Z</time></trkpt><trkpt lat="43.96356765580985" lon="12.232332529149666"><ele>532.8000000000001</ele><time>2026-04-18T12:57:00.001Z</time></trkpt><trkpt lat="43.963638836513326" lon="12.23241496418464"><ele>532.4</ele><time>2026-04-18T12:57:01.001Z</time></trkpt><trkpt lat="43.96371221395324" lon="12.232485577035394"><ele>532.0</ele><time>2026-04-18T12:57:02.001Z</time></trkpt><trkpt lat="43.96380960859091" lon="12.23253926993768"><ele>532.0</ele><time>2026-04-18T12:57:03.001Z</time></trkpt><trkpt lat="43.96390111316084" lon="12.232600217137733"><ele>532.0</ele><time>2026-04-18T12:57:04.001Z</time></trkpt><trkpt lat="43.963982686493885" lon="12.232678608778686"><ele>532.0</ele><time>2026-04-18T12:57:05.001Z</time></trkpt><trkpt lat="43.96405560252653" lon="12.23277574015506"><ele>532.0</ele><time>2026-04-18T12:57:06.001Z</time></trkpt><trkpt lat="43.964128578268266" lon="12.232888620523592"><ele>532.0</ele><time>2026-04-18T12:57:07.001Z</time></trkpt><trkpt lat="43.96419439285547" lon="12.233014950347814"><ele>532.8000000000001</ele><time>2026-04-18T12:57:08.001Z</time></trkpt><trkpt lat="43.96424728008069" lon="12.233129071959823"><ele>533.6</ele><time>2026-04-18T12:57:09.001Z</time></trkpt><trkpt lat="43.964304178862186" lon="12.23325853663119"><ele>534.4000000000001</ele><time>2026-04-18T12:57:10.001Z</time></trkpt><trkpt lat="43.96434745120498" lon="12.233393151544458"><ele>535.2</ele><time>2026-04-18T12:57:11.001Z</time></trkpt><trkpt lat="43.96438471617847" lon="12.233542326242956"><ele>536.0</ele><time>2026-04-18T12:57:12.001Z</time></trkpt><trkpt lat="43.96441771225389" lon="12.233700207698307"><ele>534.0</ele><time>2026-04-18T12:57:13.001Z</time></trkpt><trkpt lat="43.96444761554666" lon="12.233853330811648"><ele>532.0</ele><time>2026-04-18T12:57:14.001Z</time></trkpt><trkpt lat="43.96447760392045" lon="12.234007977202369"><ele>530.0</ele><time>2026-04-18T12:57:15.001Z</time></trkpt><trkpt lat="43.96450371005471" lon="12.23416582871305"><ele>528.0</ele><time>2026-04-18T12:57:16.001Z</time></trkpt><trkpt lat="43.96453397809105" lon="12.234325000961446"><ele>527.0</ele><time>2026-04-18T12:57:17.001Z</time></trkpt><trkpt lat="43.96455863687613" lon="12.234488331878177"><ele>526.0</ele><time>2026-04-18T12:57:18.001Z</time></trkpt><trkpt lat="43.96458058471861" lon="12.234640486986626"><ele>525.0</ele><time>2026-04-18T12:57:19.001Z</time></trkpt><trkpt lat="43.96460381021422" lon="12.234790727617499"><ele>524.0</ele><time>2026-04-18T12:57:20.001Z</time></trkpt><trkpt lat="43.96464384753269" lon="12.234933220030651"><ele>524.0</ele><time>2026-04-18T12:57:21.001Z</time></trkpt><trkpt lat="43.96468952221904" lon="12.235075304941402"><ele>524.0</ele><time>2026-04-18T12:57:22.001Z</time></trkpt><trkpt lat="43.96474072456613" lon="12.235209978173883"><ele>524.0</ele><time>2026-04-18T12:57:23.001Z</time></trkpt><trkpt lat="43.96480200558464" lon="12.23535074504595"><ele>524.0</ele><time>2026-04-18T12:57:24.001Z</time></trkpt><trkpt lat="43.96488294917745" lon="12.235485066837816"><ele>524.0</ele><time>2026-04-18T12:57:25.001Z</time></trkpt><trkpt lat="43.96496924629743" lon="12.235600682636154"><ele>524.0</ele><time>2026-04-18T12:57:26.001Z</time></trkpt><trkpt lat="43.965044046671565" lon="12.2357103989148"><ele>524.0</ele><time>2026-04-18T12:57:27.001Z</time></trkpt><trkpt lat="43.96511277499947" lon="12.235810478432903"><ele>524.0</ele><time>2026-04-18T12:57:28.001Z</time></trkpt><trkpt lat="43.96516995172567" lon="12.235931123833815"><ele>524.0</ele><time>2026-04-18T12:57:29.001Z</time></trkpt><trkpt lat="43.96521806335106" lon="12.236065179720413"><ele>523.75</ele><time>2026-04-18T12:57:30.001Z</time></trkpt><trkpt lat="43.965264440279356" lon="12.236228009162641"><ele>523.5</ele><time>2026-04-18T12:57:31.001Z</time></trkpt><trkpt lat="43.965276031401515" lon="12.236387133606263"><ele>523.25</ele><time>2026-04-18T12:57:32.001Z</time></trkpt><trkpt lat="43.96527587393222" lon="12.236544678528537"><ele>523.0</ele><time>2026-04-18T12:57:33.001Z</time></trkpt><trkpt lat="43.96530501516864" lon="12.236689582830492"><ele>523.0</ele><time>2026-04-18T12:57:34.001Z</time></trkpt><trkpt lat="43.96531917756174" lon="12.236810264008938"><ele>523.0</ele><time>2026-04-18T12:57:35.001Z</time></trkpt><trkpt lat="43.965337771862785" lon="12.236920485522578"><ele>523.0</ele><time>2026-04-18T12:57:36.001Z</time></trkpt><trkpt lat="43.965367159794965" lon="12.237027249295087"><ele>523.0</ele><time>2026-04-18T12:57:37.001Z</time></trkpt><trkpt lat="43.965399333530875" lon="12.237121437549561"><ele>523.0</ele><time>2026-04-18T12:57:38.001Z</time></trkpt><trkpt lat="43.96545598542049" lon="12.237207177268932"><ele>523.0</ele><time>2026-04-18T12:57:39.001Z</time></trkpt><trkpt lat="43.965534967876245" lon="12.237277995633907"><ele>522.0</ele><time>2026-04-18T12:57:40.001Z</time></trkpt><trkpt lat="43.96562530252144" lon="12.237349930594872"><ele>521.0</ele><time>2026-04-18T12:57:41.001Z</time></trkpt><trkpt lat="43.96571602224418" lon="12.237420286881273"><ele>520.0</ele><time>2026-04-18T12:57:42.001Z</time></trkpt><trkpt lat="43.96579557750551" lon="12.237489834409796"><ele>519.0</ele><time>2026-04-18T12:57:43.001Z</time></trkpt><trkpt lat="43.965860312861516" lon="12.237568087471873"><ele>518.0</ele><time>2026-04-18T12:57:44.001Z</time></trkpt><trkpt lat="43.96590970464128" lon="12.237667032909314"><ele>518.0</ele><time>2026-04-18T12:57:45.001Z</time></trkpt><trkpt lat="43.96590420866172" lon="12.237788267278798"><ele>518.0</ele><time>2026-04-18T12:57:46.001Z</time></trkpt><trkpt lat="43.9658732699883" lon="12.237909459401035"><ele>518.0</ele><time>2026-04-18T12:57:47.001Z</time></trkpt><trkpt lat="43.965818557106594" lon="12.238015890049331"><ele>518.0</ele><time>2026-04-18T12:57:48.001Z</time></trkpt><trkpt lat="43.96572996321945" lon="12.238094712443099"><ele>518.0</ele><time>2026-04-18T12:57:49.001Z</time></trkpt><trkpt lat="43.9656523766032" lon="12.238158428042626"><ele>525.5</ele><time>2026-04-18T12:57:50.001Z</time></trkpt><trkpt lat="43.96555863366907" lon="12.238210876943901"><ele>533.0</ele><time>2026-04-18T12:57:51.001Z</time></trkpt><trkpt lat="43.96545220132244" lon="12.238235605470456"><ele>540.5</ele><time>2026-04-18T12:57:52.001Z</time></trkpt><trkpt lat="43.96532425554944" lon="12.2382608022997"><ele>548.0</ele><time>2026-04-18T12:57:53.001Z</time></trkpt><trkpt lat="43.96520707528829" lon="12.238304460383192"><ele>548.0</ele><time>2026-04-18T12:57:54.002Z</time></trkpt><trkpt lat="43.96509131010101" lon="12.238358412501425"><ele>548.0</ele><time>2026-04-18T12:57:55.002Z</time></trkpt><trkpt lat="43.964978199523905" lon="12.23842218365314"><ele>548.0</ele><time>2026-04-18T12:57:56.002Z</time></trkpt><trkpt lat="43.964872432064624" lon="12.23851665288075"><ele>548.0</ele><time>2026-04-18T12:57:57.002Z</time></trkpt><trkpt lat="43.964763391802585" lon="12.23863020329541"><ele>547.8</ele><time>2026-04-18T12:57:58.002Z</time></trkpt><trkpt lat="43.96465772481588" lon="12.238726066253326"><ele>547.5999999999999</ele><time>2026-04-18T12:57:59.002Z</time></trkpt><trkpt lat="43.96455691012853" lon="12.238798625414262"><ele>547.4000000000001</ele><time>2026-04-18T12:58:00.002Z</time></trkpt><trkpt lat="43.964461988827175" lon="12.238843221407647"><ele>547.2</ele><time>2026-04-18T12:58:01.002Z</time></trkpt><trkpt lat="43.96436231319409" lon="12.238865283830329"><ele>547.0</ele><time>2026-04-18T12:58:02.002Z</time></trkpt><trkpt lat="43.96426769397315" lon="12.238898016435497"><ele>548.1666666666667</ele><time>2026-04-18T12:58:03.002Z</time></trkpt><trkpt lat="43.96419204632914" lon="12.23893803359577"><ele>549.3333333333334</ele><time>2026-04-18T12:58:04.002Z</time></trkpt><trkpt lat="43.964119202689524" lon="12.239012415752542"><ele>550.5</ele><time>2026-04-18T12:58:05.002Z</time></trkpt><trkpt lat="43.9640647304749" lon="12.239103453622109"><ele>551.6666666666666</ele><time>2026-04-18T12:58:06.002Z</time></trkpt><trkpt lat="43.96404114814476" lon="12.239211619691517"><ele>552.8333333333333</ele><time>2026-04-18T12:58:07.002Z</time></trkpt><trkpt lat="43.96405022063218" lon="12.239330589469388"><ele>554.0</ele><time>2026-04-18T12:58:08.002Z</time></trkpt><trkpt lat="43.9640834160323" lon="12.23945207313387"><ele>554.0</ele><time>2026-04-18T12:58:09.002Z</time></trkpt><trkpt lat="43.96413202465268" lon="12.239570760571668"><ele>554.0</ele><time>2026-04-18T12:58:10.002Z</time></trkpt><trkpt lat="43.96418915862905" lon="12.239675460933777"><ele>554.0</ele><time>2026-04-18T12:58:11.002Z</time></trkpt><trkpt lat="43.96422154308941" lon="12.239786236737514"><ele>554.0</ele><time>2026-04-18T12:58:12.002Z</time></trkpt><trkpt lat="43.96423926235079" lon="12.239927336700932"><ele>554.0</ele><time>2026-04-18T12:58:13.002Z</time></trkpt><trkpt lat="43.96424633858573" lon="12.240078316151587"><ele>555.25</ele><time>2026-04-18T12:58:14.002Z</time></trkpt><trkpt lat="43.96422328609326" lon="12.240228921376962"><ele>556.5</ele><time>2026-04-18T12:58:15.002Z</time></trkpt><trkpt lat="43.964186142797764" lon="12.240386472451217"><ele>557.75</ele><time>2026-04-18T12:58:16.002Z</time></trkpt><trkpt lat="43.964143308411835" lon="12.240527101196161"><ele>559.0</ele><time>2026-04-18T12:58:17.002Z</time></trkpt><trkpt lat="43.96409502036242" lon="12.240666793117999"><ele>560.2</ele><time>2026-04-18T12:58:18.002Z</time></trkpt><trkpt lat="43.96404408672201" lon="12.240791329025718"><ele>561.4</ele><time>2026-04-18T12:58:19.002Z</time></trkpt><trkpt lat="43.9639951730893" lon="12.240944274966505"><ele>562.6</ele><time>2026-04-18T12:58:20.002Z</time></trkpt><trkpt lat="43.96395399189653" lon="12.24109028612422"><ele>563.8</ele><time>2026-04-18T12:58:21.002Z</time></trkpt><trkpt lat="43.96391606198145" lon="12.241214643603143"><ele>565.0</ele><time>2026-04-18T12:58:22.002Z</time></trkpt><trkpt lat="43.96388055340884" lon="12.241325558478447"><ele>565.0</ele><time>2026-04-18T12:58:23.002Z</time></trkpt><trkpt lat="43.96384741316563" lon="12.241436642853154"><ele>565.0</ele><time>2026-04-18T12:58:24.002Z</time></trkpt><trkpt lat="43.96381304881595" lon="12.241555456337386"><ele>565.0</ele><time>2026-04-18T12:58:25.002Z</time></trkpt><trkpt lat="43.96378588031345" lon="12.241700108326489"><ele>565.0</ele><time>2026-04-18T12:58:26.002Z</time></trkpt><trkpt lat="43.96376563071393" lon="12.241844418054574"><ele>565.0</ele><time>2026-04-18T12:58:27.002Z</time></trkpt><trkpt lat="43.9637497156051" lon="12.241986935674477"><ele>565.8333333333334</ele><time>2026-04-18T12:58:28.002Z</time></trkpt><trkpt lat="43.96373979882515" lon="12.24211886963019"><ele>566.6666666666667</ele><time>2026-04-18T12:58:29.002Z</time></trkpt><trkpt lat="43.963719914022356" lon="12.242245365139024"><ele>567.5</ele><time>2026-04-18T12:58:30.002Z</time></trkpt><trkpt lat="43.96368585887061" lon="12.242362756492739"><ele>568.3333333333334</ele><time>2026-04-18T12:58:31.002Z</time></trkpt><trkpt lat="43.963644475216846" lon="12.242466381171834"><ele>569.1666666666666</ele><time>2026-04-18T12:58:32.002Z</time></trkpt><trkpt lat="43.963599014054346" lon="12.242548667350054"><ele>570.0</ele><time>2026-04-18T12:58:33.002Z</time></trkpt><trkpt lat="43.9635533599186" lon="12.242628351962907"><ele>571.5</ele><time>2026-04-18T12:58:34.002Z</time></trkpt><trkpt lat="43.963510684251844" lon="12.242715974892265"><ele>573.0</ele><time>2026-04-18T12:58:35.002Z</time></trkpt><trkpt lat="43.96349071132387" lon="12.242812111686808"><ele>574.5</ele><time>2026-04-18T12:58:36.002Z</time></trkpt><trkpt lat="43.963501215470544" lon="12.24293281881038"><ele>576.0</ele><time>2026-04-18T12:58:37.002Z</time></trkpt><trkpt lat="43.96353713020508" lon="12.243059272168084"><ele>577.5</ele><time>2026-04-18T12:58:38.002Z</time></trkpt><trkpt lat="43.96359777330954" lon="12.243177038610815"><ele>579.0</ele><time>2026-04-18T12:58:39.002Z</time></trkpt><trkpt lat="43.96366384933576" lon="12.243284575762479"><ele>579.2</ele><time>2026-04-18T12:58:40.002Z</time></trkpt><trkpt lat="43.9637171021576" lon="12.243395128393312"><ele>579.4</ele><time>2026-04-18T12:58:41.002Z</time></trkpt><trkpt lat="43.963752716984416" lon="12.243503824556466"><ele>579.6</ele><time>2026-04-18T12:58:42.002Z</time></trkpt><trkpt lat="43.9637745771978" lon="12.243624904978155"><ele>579.8</ele><time>2026-04-18T12:58:43.002Z</time></trkpt><trkpt lat="43.96379991868992" lon="12.243753560600103"><ele>580.0</ele><time>2026-04-18T12:58:44.002Z</time></trkpt><trkpt lat="43.963841716381914" lon="12.243894274342134"><ele>581.0</ele><time>2026-04-18T12:58:45.002Z</time></trkpt><trkpt lat="43.96391274150472" lon="12.24402763205535"><ele>582.0</ele><time>2026-04-18T12:58:46.002Z</time></trkpt><trkpt lat="43.96399002751033" lon="12.244144675687958"><ele>583.0</ele><time>2026-04-18T12:58:47.002Z</time></trkpt><trkpt lat="43.96406103607944" lon="12.24424392262584"><ele>584.0</ele><time>2026-04-18T12:58:48.002Z</time></trkpt><trkpt lat="43.96412981318938" lon="12.244349407100879"><ele>585.0</ele><time>2026-04-18T12:58:49.002Z</time></trkpt><trkpt lat="43.96419878036326" lon="12.244455177740484"><ele>585.0</ele><time>2026-04-18T12:58:50.002Z</time></trkpt><trkpt lat="43.96425614237649" lon="12.244569600243219"><ele>585.0</ele><time>2026-04-18T12:58:51.002Z</time></trkpt><trkpt lat="43.96431704703875" lon="12.244688851445384"><ele>585.0</ele><time>2026-04-18T12:58:52.002Z</time></trkpt><trkpt lat="43.964369298134066" lon="12.244808099749376"><ele>585.0</ele><time>2026-04-18T12:58:53.002Z</time></trkpt><trkpt lat="43.964423359726936" lon="12.244930175497016"><ele>585.0</ele><time>2026-04-18T12:58:54.002Z</time></trkpt><trkpt lat="43.96447837714949" lon="12.245047083537827"><ele>582.8</ele><time>2026-04-18T12:58:55.002Z</time></trkpt><trkpt lat="43.96453169092388" lon="12.245163429146517"><ele>580.6</ele><time>2026-04-18T12:58:56.002Z</time></trkpt><trkpt lat="43.96459235747304" lon="12.24525306517692"><ele>578.4</ele><time>2026-04-18T12:58:57.002Z</time></trkpt><trkpt lat="43.964668954290474" lon="12.245320785874313"><ele>576.2</ele><time>2026-04-18T12:58:58.002Z</time></trkpt><trkpt lat="43.96476050601525" lon="12.245380518556768"><ele>574.0</ele><time>2026-04-18T12:58:59.002Z</time></trkpt><trkpt lat="43.96486555010478" lon="12.245420628314678"><ele>574.0</ele><time>2026-04-18T12:59:00.002Z</time></trkpt><trkpt lat="43.964974058748936" lon="12.245421259512053"><ele>574.0</ele><time>2026-04-18T12:59:01.002Z</time></trkpt><trkpt lat="43.96507829828131" lon="12.245397115003241"><ele>574.0</ele><time>2026-04-18T12:59:02.002Z</time></trkpt><trkpt lat="43.96518901041196" lon="12.245373080583686"><ele>574.0</ele><time>2026-04-18T12:59:03.002Z</time></trkpt><trkpt lat="43.9652903227354" lon="12.245374592737136"><ele>574.0</ele><time>2026-04-18T12:59:04.002Z</time></trkpt><trkpt lat="43.96539070624326" lon="12.245415328554817"><ele>574.6</ele><time>2026-04-18T12:59:05.002Z</time></trkpt><trkpt lat="43.96548928871375" lon="12.245478897771907"><ele>575.2</ele><time>2026-04-18T12:59:06.002Z</time></trkpt><trkpt lat="43.965577000358564" lon="12.245557513453166"><ele>575.8000000000001</ele><time>2026-04-18T12:59:07.002Z</time></trkpt><trkpt lat="43.96566616253853" lon="12.245650146959061"><ele>576.4</ele><time>2026-04-18T12:59:08.002Z</time></trkpt><trkpt lat="43.96574656771067" lon="12.245733058012492"><ele>577.0</ele><time>2026-04-18T12:59:09.002Z</time></trkpt><trkpt lat="43.96582215581347" lon="12.24579272555902"><ele>574.4</ele><time>2026-04-18T12:59:10.002Z</time></trkpt><trkpt lat="43.965907956583386" lon="12.245833526993358"><ele>571.8000000000001</ele><time>2026-04-18T12:59:11.002Z</time></trkpt><trkpt lat="43.96599964908287" lon="12.245861064156847"><ele>569.2</ele><time>2026-04-18T12:59:12.002Z</time></trkpt><trkpt lat="43.96612000016482" lon="12.24587531045542"><ele>566.6</ele><time>2026-04-18T12:59:13.002Z</time></trkpt><trkpt lat="43.96623146582509" lon="12.245871092495038"><ele>564.0</ele><time>2026-04-18T12:59:14.002Z</time></trkpt><trkpt lat="43.96635609625367" lon="12.245861343661447"><ele>564.0</ele><time>2026-04-18T12:59:15.002Z</time></trkpt><trkpt lat="43.96647124695688" lon="12.245846958108034"><ele>564.0</ele><time>2026-04-18T12:59:16.002Z</time></trkpt><trkpt lat="43.966580280511245" lon="12.245824108907089"><ele>564.0</ele><time>2026-04-18T12:59:17.002Z</time></trkpt><trkpt lat="43.96668672622412" lon="12.245807409610316"><ele>564.0</ele><time>2026-04-18T12:59:18.002Z</time></trkpt><trkpt lat="43.96679444337269" lon="12.245800984329415"><ele>564.0</ele><time>2026-04-18T12:59:19.002Z</time></trkpt><trkpt lat="43.966897957905715" lon="12.245790268550227"><ele>562.8</ele><time>2026-04-18T12:59:20.002Z</time></trkpt><trkpt lat="43.967002140462206" lon="12.245767937139233"><ele>561.5999999999999</ele><time>2026-04-18T12:59:21.002Z</time></trkpt><trkpt lat="43.96709702910428" lon="12.245745650720588"><ele>560.4</ele><time>2026-04-18T12:59:22.002Z</time></trkpt><trkpt lat="43.9671916147561" lon="12.245722320480619"><ele>559.1999999999999</ele><time>2026-04-18T12:59:23.002Z</time></trkpt><trkpt lat="43.96728534894346" lon="12.245693488219871"><ele>558.0</ele><time>2026-04-18T12:59:24.002Z</time></trkpt><trkpt lat="43.96737597874553" lon="12.245674116414035"><ele>558.0</ele><time>2026-04-18T12:59:25.002Z</time></trkpt><trkpt lat="43.967463860926266" lon="12.245673276427002"><ele>558.0</ele><time>2026-04-18T12:59:26.002Z</time></trkpt><trkpt lat="43.96754353838943" lon="12.245700359816054"><ele>558.0</ele><time>2026-04-18T12:59:27.002Z</time></trkpt><trkpt lat="43.967620864771604" lon="12.245754872856669"><ele>558.0</ele><time>2026-04-18T12:59:28.002Z</time></trkpt><trkpt lat="43.96769264199671" lon="12.245826891986718"><ele>558.0</ele><time>2026-04-18T12:59:29.002Z</time></trkpt><trkpt lat="43.96776459841542" lon="12.245900073819033"><ele>558.0</ele><time>2026-04-18T12:59:30.002Z</time></trkpt><trkpt lat="43.96783735936099" lon="12.245938407815881"><ele>558.1666666666666</ele><time>2026-04-18T12:59:31.002Z</time></trkpt><trkpt lat="43.967915946168375" lon="12.245949197158625"><ele>558.3333333333334</ele><time>2026-04-18T12:59:32.002Z</time></trkpt><trkpt lat="43.96800053209548" lon="12.245926986451103"><ele>558.5</ele><time>2026-04-18T12:59:33.002Z</time></trkpt><trkpt lat="43.96809101750373" lon="12.245881498743705"><ele>558.6666666666667</ele><time>2026-04-18T12:59:34.002Z</time></trkpt><trkpt lat="43.96817658078104" lon="12.24582304117598"><ele>558.8333333333334</ele><time>2026-04-18T12:59:35.002Z</time></trkpt><trkpt lat="43.9682564905118" lon="12.245770319083961"><ele>559.0</ele><time>2026-04-18T12:59:36.002Z</time></trkpt><trkpt lat="43.96834065907999" lon="12.245756164137505"><ele>556.8</ele><time>2026-04-18T12:59:37.002Z</time></trkpt><trkpt lat="43.968416510516484" lon="12.245779337418885"><ele>554.5999999999999</ele><time>2026-04-18T12:59:38.002Z</time></trkpt><trkpt lat="43.968481045218056" lon="12.245841351453526"><ele>552.4</ele><time>2026-04-18T12:59:39.002Z</time></trkpt><trkpt lat="43.968542990740964" lon="12.245945390270368"><ele>550.1999999999999</ele><time>2026-04-18T12:59:40.002Z</time></trkpt><trkpt lat="43.9685925248152" lon="12.246081327635851"><ele>548.0</ele><time>2026-04-18T12:59:41.002Z</time></trkpt><trkpt lat="43.968624104969756" lon="12.24623805756248"><ele>548.0</ele><time>2026-04-18T12:59:42.002Z</time></trkpt><trkpt lat="43.968673007895916" lon="12.246395091326285"><ele>548.0</ele><time>2026-04-18T12:59:43.002Z</time></trkpt><trkpt lat="43.96871704069367" lon="12.246539607018043"><ele>548.0</ele><time>2026-04-18T12:59:44.002Z</time></trkpt><trkpt lat="43.9687556835074" lon="12.246680040993136"><ele>548.0</ele><time>2026-04-18T12:59:45.002Z</time></trkpt><trkpt lat="43.968794962919496" lon="12.24681233105061"><ele>548.0</ele><time>2026-04-18T12:59:46.002Z</time></trkpt><trkpt lat="43.9688344557951" lon="12.24692722073919"><ele>548.6666666666666</ele><time>2026-04-18T12:59:47.002Z</time></trkpt><trkpt lat="43.968879871263056" lon="12.247013693444671"><ele>549.3333333333333</ele><time>2026-04-18T12:59:48.002Z</time></trkpt><trkpt lat="43.968933363544565" lon="12.247076142669398"><ele>550.0</ele><time>2026-04-18T12:59:49.002Z</time></trkpt><trkpt lat="43.96900503948205" lon="12.247118130221367"><ele>550.6666666666666</ele><time>2026-04-18T12:59:50.002Z</time></trkpt><trkpt lat="43.96910181768449" lon="12.247118374406556"><ele>551.3333333333334</ele><time>2026-04-18T12:59:51.002Z</time></trkpt><trkpt lat="43.969198852850404" lon="12.247099412285406"><ele>552.0</ele><time>2026-04-18T12:59:52.002Z</time></trkpt><trkpt lat="43.96930272768302" lon="12.247083817367422"><ele>548.0</ele><time>2026-04-18T12:59:53.002Z</time></trkpt><trkpt lat="43.969411444051964" lon="12.247073033430588"><ele>544.0</ele><time>2026-04-18T12:59:54.002Z</time></trkpt><trkpt lat="43.969522774440904" lon="12.247055869933957"><ele>540.0</ele><time>2026-04-18T12:59:55.002Z</time></trkpt><trkpt lat="43.969636146468524" lon="12.247031207227407"><ele>536.0</ele><time>2026-04-18T12:59:56.002Z</time></trkpt><trkpt lat="43.969751182221174" lon="12.246995696405147"><ele>536.0</ele><time>2026-04-18T12:59:57.002Z</time></trkpt><trkpt lat="43.969856761536626" lon="12.246970616411765"><ele>536.0</ele><time>2026-04-18T12:59:58.002Z</time></trkpt><trkpt lat="43.96996951437068" lon="12.24694955794654"><ele>536.0</ele><time>2026-04-18T12:59:59.002Z</time></trkpt><trkpt lat="43.970081795706044" lon="12.246927519777444"><ele>536.0</ele><time>2026-04-18T13:00:00.002Z</time></trkpt><trkpt lat="43.97018145772416" lon="12.246910870407156"><ele>536.0</ele><time>2026-04-18T13:00:01.002Z</time></trkpt><trkpt lat="43.97026471961164" lon="12.246889062798855"><ele>534.5</ele><time>2026-04-18T13:00:02.002Z</time></trkpt><trkpt lat="43.9703485258503" lon="12.246878633987311"><ele>533.0</ele><time>2026-04-18T13:00:04.002Z</time></trkpt><trkpt lat="43.97042315449227" lon="12.24697055677775"><ele>531.5</ele><time>2026-04-18T13:00:06.002Z</time></trkpt><trkpt lat="43.970451285136974" lon="12.247076857734912"><ele>530.0</ele><time>2026-04-18T13:00:07.002Z</time></trkpt><trkpt lat="43.970419616722126" lon="12.247176518732315"><ele>528.5</ele><time>2026-04-18T13:00:08.002Z</time></trkpt><trkpt lat="43.970394120115984" lon="12.247277894288306"><ele>527.0</ele><time>2026-04-18T13:00:09.002Z</time></trkpt><trkpt lat="43.97037143395151" lon="12.24736943529213"><ele>527.0</ele><time>2026-04-18T13:00:10.002Z</time></trkpt><trkpt lat="43.97036623619782" lon="12.247468684398116"><ele>527.0</ele><time>2026-04-18T13:00:11.002Z</time></trkpt><trkpt lat="43.97037843693151" lon="12.247558009338402"><ele>527.0</ele><time>2026-04-18T13:00:12.002Z</time></trkpt><trkpt lat="43.97042443533986" lon="12.24762185206303"><ele>527.0</ele><time>2026-04-18T13:00:13.002Z</time></trkpt><trkpt lat="43.970554460125456" lon="12.247619953210624"><ele>527.0</ele><time>2026-04-18T13:00:15.002Z</time></trkpt><trkpt lat="43.97062576888796" lon="12.247551171445604"><ele>527.0</ele><time>2026-04-18T13:00:16.002Z</time></trkpt><trkpt lat="43.97068001041791" lon="12.247456534959268"><ele>527.0</ele><time>2026-04-18T13:00:17.002Z</time></trkpt><trkpt lat="43.97072392432348" lon="12.247335540261309"><ele>527.0</ele><time>2026-04-18T13:00:18.002Z</time></trkpt><trkpt lat="43.970759628938545" lon="12.247213101986468"><ele>527.0</ele><time>2026-04-18T13:00:19.002Z</time></trkpt><trkpt lat="43.97079004384152" lon="12.24710912180189"><ele>527.0</ele><time>2026-04-18T13:00:20.002Z</time></trkpt><trkpt lat="43.97082412636719" lon="12.24699628345584"><ele>527.0</ele><time>2026-04-18T13:00:21.002Z</time></trkpt><trkpt lat="43.970862893835914" lon="12.246885684322574"><ele>523.5</ele><time>2026-04-18T13:00:22.002Z</time></trkpt><trkpt lat="43.97089491172619" lon="12.246794355061688"><ele>520.0</ele><time>2026-04-18T13:00:23.002Z</time></trkpt><trkpt lat="43.97093438794707" lon="12.246709109087119"><ele>516.5</ele><time>2026-04-18T13:00:24.002Z</time></trkpt><trkpt lat="43.970980226702025" lon="12.24664355906951"><ele>513.0</ele><time>2026-04-18T13:00:25.002Z</time></trkpt><trkpt lat="43.97108910025217" lon="12.246633829346795"><ele>509.49999999999994</ele><time>2026-04-18T13:00:27.002Z</time></trkpt><trkpt lat="43.97115001454109" lon="12.246759618123422"><ele>506.0</ele><time>2026-04-18T13:00:29.002Z</time></trkpt><trkpt lat="43.97113801295275" lon="12.246862420068329"><ele>505.99999999999994</ele><time>2026-04-18T13:00:30.002Z</time></trkpt><trkpt lat="43.97111511961145" lon="12.246972748947154"><ele>506.0</ele><time>2026-04-18T13:00:31.002Z</time></trkpt><trkpt lat="43.97110278724571" lon="12.247086773862135"><ele>506.0</ele><time>2026-04-18T13:00:32.002Z</time></trkpt><trkpt lat="43.97108761317506" lon="12.247196096142924"><ele>506.0</ele><time>2026-04-18T13:00:33.002Z</time></trkpt><trkpt lat="43.97108314272628" lon="12.247298981571484"><ele>505.99999999999994</ele><time>2026-04-18T13:00:34.002Z</time></trkpt><trkpt lat="43.97110285683534" lon="12.247390961754794"><ele>506.0</ele><time>2026-04-18T13:00:35.002Z</time></trkpt><trkpt lat="43.97114457125816" lon="12.24748679781841"><ele>506.99999999999994</ele><time>2026-04-18T13:00:36.002Z</time></trkpt><trkpt lat="43.97120516822735" lon="12.24754971097643"><ele>508.0</ele><time>2026-04-18T13:00:37.002Z</time></trkpt><trkpt lat="43.97127953459151" lon="12.247580194586998"><ele>509.0</ele><time>2026-04-18T13:00:38.002Z</time></trkpt><trkpt lat="43.9713608256235" lon="12.247559804734609"><ele>510.0</ele><time>2026-04-18T13:00:39.002Z</time></trkpt><trkpt lat="43.97143871929357" lon="12.247509095334081"><ele>510.99999999999994</ele><time>2026-04-18T13:00:40.002Z</time></trkpt><trkpt lat="43.971495722143445" lon="12.24742861207173"><ele>512.0</ele><time>2026-04-18T13:00:41.002Z</time></trkpt><trkpt lat="43.97155082909314" lon="12.247318234148302"><ele>510.8</ele><time>2026-04-18T13:00:42.002Z</time></trkpt><trkpt lat="43.9716019569263" lon="12.247198397371525"><ele>509.6</ele><time>2026-04-18T13:00:43.002Z</time></trkpt><trkpt lat="43.97165911861748" lon="12.24707180520725"><ele>508.40000000000003</ele><time>2026-04-18T13:00:44.002Z</time></trkpt><trkpt lat="43.97171334508497" lon="12.246942198345103"><ele>507.20000000000005</ele><time>2026-04-18T13:00:45.002Z</time></trkpt><trkpt lat="43.97176021078908" lon="12.246806020173011"><ele>506.0</ele><time>2026-04-18T13:00:46.002Z</time></trkpt><trkpt lat="43.971796497263504" lon="12.246688195627224"><ele>503.3333333333333</ele><time>2026-04-18T13:00:47.002Z</time></trkpt><trkpt lat="43.97183847527831" lon="12.246594654497654"><ele>500.66666666666663</ele><time>2026-04-18T13:00:48.002Z</time></trkpt><trkpt lat="43.97188788024553" lon="12.246525300783352"><ele>498.0</ele><time>2026-04-18T13:00:49.002Z</time></trkpt><trkpt lat="43.97195127976979" lon="12.246478009652826"><ele>495.33333333333337</ele><time>2026-04-18T13:00:50.002Z</time></trkpt><trkpt lat="43.97205022558641" lon="12.246558373637228"><ele>492.6666666666667</ele><time>2026-04-18T13:00:52.002Z</time></trkpt><trkpt lat="43.97204328288397" lon="12.246684346427639"><ele>490.0</ele><time>2026-04-18T13:00:53.002Z</time></trkpt><trkpt lat="43.97202588627726" lon="12.246799058567124"><ele>490.00000000000006</ele><time>2026-04-18T13:00:54.002Z</time></trkpt><trkpt lat="43.97201960205489" lon="12.24689336390634"><ele>490.0</ele><time>2026-04-18T13:00:55.002Z</time></trkpt><trkpt lat="43.972016044294996" lon="12.24698772402137"><ele>490.0</ele><time>2026-04-18T13:00:56.002Z</time></trkpt><trkpt lat="43.972018889873866" lon="12.247080249623949"><ele>490.0</ele><time>2026-04-18T13:00:57.002Z</time></trkpt><trkpt lat="43.97206007448622" lon="12.247230584194803"><ele>490.00000000000006</ele><time>2026-04-18T13:00:59.002Z</time></trkpt><trkpt lat="43.97211721536989" lon="12.247282533335087"><ele>490.0</ele><time>2026-04-18T13:01:00.002Z</time></trkpt><trkpt lat="43.97218071108756" lon="12.24727652553946"><ele>490.0</ele><time>2026-04-18T13:01:01.002Z</time></trkpt><trkpt lat="43.972245011785795" lon="12.247221062942753"><ele>490.0</ele><time>2026-04-18T13:01:02.002Z</time></trkpt><trkpt lat="43.97229640337609" lon="12.2471331548599"><ele>490.0</ele><time>2026-04-18T13:01:03.002Z</time></trkpt><trkpt lat="43.97235577834812" lon="12.247026955393768"><ele>490.0</ele><time>2026-04-18T13:01:04.002Z</time></trkpt><trkpt lat="43.97239960834457" lon="12.246894609288274"><ele>490.0</ele><time>2026-04-18T13:01:05.002Z</time></trkpt><trkpt lat="43.972474515995835" lon="12.246817955358628"><ele>490.0</ele><time>2026-04-18T13:01:06.002Z</time></trkpt><trkpt lat="43.97251778154407" lon="12.246753654600063"><ele>490.0</ele><time>2026-04-18T13:01:07.002Z</time></trkpt><trkpt lat="43.97255781548663" lon="12.246569016165259"><ele>490.0</ele><time>2026-04-18T13:01:09.002Z</time></trkpt><trkpt lat="43.97257939989259" lon="12.246464316171618"><ele>490.0</ele><time>2026-04-18T13:01:10.002Z</time></trkpt><trkpt lat="43.97264709165079" lon="12.24634362484528"><ele>490.0</ele><time>2026-04-18T13:01:12.002Z</time></trkpt><trkpt lat="43.97274838321505" lon="12.246392921936316"><ele>486.83333333333337</ele><time>2026-04-18T13:01:14.002Z</time></trkpt><trkpt lat="43.97279479464899" lon="12.246474798079767"><ele>483.6666666666667</ele><time>2026-04-18T13:01:15.002Z</time></trkpt><trkpt lat="43.97283455727765" lon="12.246570169446583"><ele>480.5</ele><time>2026-04-18T13:01:16.002Z</time></trkpt><trkpt lat="43.97288621808287" lon="12.246671920755915"><ele>477.33333333333337</ele><time>2026-04-18T13:01:17.002Z</time></trkpt><trkpt lat="43.97293175398989" lon="12.246780942707856"><ele>474.1666666666667</ele><time>2026-04-18T13:01:18.002Z</time></trkpt><trkpt lat="43.972983729550336" lon="12.246897734770279"><ele>471.0</ele><time>2026-04-18T13:01:19.002Z</time></trkpt><trkpt lat="43.97303881146881" lon="12.247009581684605"><ele>471.0</ele><time>2026-04-18T13:01:20.002Z</time></trkpt><trkpt lat="43.973093874484" lon="12.247111909638434"><ele>471.0</ele><time>2026-04-18T13:01:21.002Z</time></trkpt><trkpt lat="43.97314344498431" lon="12.24719467105059"><ele>471.0</ele><time>2026-04-18T13:01:22.002Z</time></trkpt><trkpt lat="43.97321389514586" lon="12.247269224063807"><ele>471.0</ele><time>2026-04-18T13:01:23.002Z</time></trkpt><trkpt lat="43.97329107873537" lon="12.24733489348737"><ele>471.0</ele><time>2026-04-18T13:01:24.002Z</time></trkpt><trkpt lat="43.973379452013475" lon="12.247390490480667"><ele>471.0</ele><time>2026-04-18T13:01:25.002Z</time></trkpt><trkpt lat="43.9734572319396" lon="12.247450168493414"><ele>469.1666666666667</ele><time>2026-04-18T13:01:26.002Z</time></trkpt><trkpt lat="43.97353148613801" lon="12.24751469624312"><ele>467.33333333333337</ele><time>2026-04-18T13:01:27.002Z</time></trkpt><trkpt lat="43.9736040332655" lon="12.24756678332225"><ele>465.5</ele><time>2026-04-18T13:01:28.002Z</time></trkpt><trkpt lat="43.973676677286534" lon="12.247597594327972"><ele>463.6666666666667</ele><time>2026-04-18T13:01:29.002Z</time></trkpt><trkpt lat="43.97375922208083" lon="12.247599524927622"><ele>461.83333333333337</ele><time>2026-04-18T13:01:30.002Z</time></trkpt><trkpt lat="43.97385144372671" lon="12.24757438035587"><ele>460.0</ele><time>2026-04-18T13:01:31.002Z</time></trkpt><trkpt lat="43.973925543176065" lon="12.247516894473856"><ele>460.0</ele><time>2026-04-18T13:01:32.002Z</time></trkpt><trkpt lat="43.974012000189546" lon="12.247422942310767"><ele>460.0</ele><time>2026-04-18T13:01:33.002Z</time></trkpt><trkpt lat="43.97410397117528" lon="12.247306357018495"><ele>460.0</ele><time>2026-04-18T13:01:34.002Z</time></trkpt><trkpt lat="43.97421612973401" lon="12.24716902471615"><ele>460.0</ele><time>2026-04-18T13:01:35.002Z</time></trkpt><trkpt lat="43.97434279929216" lon="12.247013834479004"><ele>455.6666666666667</ele><time>2026-04-18T13:01:36.002Z</time></trkpt><trkpt lat="43.97447379397362" lon="12.246850576528638"><ele>451.33333333333337</ele><time>2026-04-18T13:01:37.002Z</time></trkpt><trkpt lat="43.97459593286559" lon="12.246684910680168"><ele>447.0</ele><time>2026-04-18T13:01:38.002Z</time></trkpt><trkpt lat="43.974715601169336" lon="12.246519901668746"><ele>446.33333333333337</ele><time>2026-04-18T13:01:39.002Z</time></trkpt><trkpt lat="43.97482946730526" lon="12.246357830536367"><ele>445.6666666666667</ele><time>2026-04-18T13:01:40.002Z</time></trkpt><trkpt lat="43.974931800442064" lon="12.246202879381745"><ele>445.0</ele><time>2026-04-18T13:01:41.002Z</time></trkpt><trkpt lat="43.975020192739755" lon="12.246052251342444"><ele>444.8</ele><time>2026-04-18T13:01:42.002Z</time></trkpt><trkpt lat="43.97509865841105" lon="12.245904839615879"><ele>444.6</ele><time>2026-04-18T13:01:43.002Z</time></trkpt><trkpt lat="43.97516776717875" lon="12.245773181165974"><ele>444.4</ele><time>2026-04-18T13:01:44.002Z</time></trkpt><trkpt lat="43.975232319740556" lon="12.245660196331709"><ele>444.2</ele><time>2026-04-18T13:01:45.002Z</time></trkpt><trkpt lat="43.97529391939753" lon="12.245574273112474"><ele>444.0</ele><time>2026-04-18T13:01:46.002Z</time></trkpt><trkpt lat="43.975360152333124" lon="12.245503505695034"><ele>444.0</ele><time>2026-04-18T13:01:47.002Z</time></trkpt><trkpt lat="43.97542905293631" lon="12.245444660569438"><ele>444.0</ele><time>2026-04-18T13:01:48.002Z</time></trkpt><trkpt lat="43.97551024290091" lon="12.245391905089818"><ele>444.0</ele><time>2026-04-18T13:01:49.002Z</time></trkpt><trkpt lat="43.97558964346546" lon="12.245354920091483"><ele>444.0</ele><time>2026-04-18T13:01:50.002Z</time></trkpt><trkpt lat="43.975669108969285" lon="12.245322062205997"><ele>444.0</ele><time>2026-04-18T13:01:51.002Z</time></trkpt><trkpt lat="43.97574886271645" lon="12.245289572348874"><ele>444.0</ele><time>2026-04-18T13:01:52.002Z</time></trkpt><trkpt lat="43.97582416263007" lon="12.24526288168869"><ele>443.1428571428571</ele><time>2026-04-18T13:01:53.002Z</time></trkpt><trkpt lat="43.97589828454427" lon="12.245243180770597"><ele>442.28571428571433</ele><time>2026-04-18T13:01:54.002Z</time></trkpt><trkpt lat="43.97596768350062" lon="12.245227262867047"><ele>441.42857142857144</ele><time>2026-04-18T13:01:55.002Z</time></trkpt><trkpt lat="43.97603933600128" lon="12.245208087460073"><ele>440.57142857142856</ele><time>2026-04-18T13:01:56.002Z</time></trkpt><trkpt lat="43.97610628073943" lon="12.245188308685766"><ele>439.71428571428567</ele><time>2026-04-18T13:01:57.002Z</time></trkpt><trkpt lat="43.976177226405696" lon="12.245166466254993"><ele>438.8571428571429</ele><time>2026-04-18T13:01:58.002Z</time></trkpt><trkpt lat="43.976254552181324" lon="12.245136695712743"><ele>438.0</ele><time>2026-04-18T13:01:59.002Z</time></trkpt><trkpt lat="43.97633067302723" lon="12.245105344641223"><ele>438.0</ele><time>2026-04-18T13:02:00.002Z</time></trkpt><trkpt lat="43.97641601709731" lon="12.245073727881433"><ele>437.99999999999994</ele><time>2026-04-18T13:02:01.002Z</time></trkpt><trkpt lat="43.97650224438136" lon="12.245041106965635"><ele>437.99999999999994</ele><time>2026-04-18T13:02:02.002Z</time></trkpt><trkpt lat="43.97660168272397" lon="12.245007226966164"><ele>438.0</ele><time>2026-04-18T13:02:03.002Z</time></trkpt><trkpt lat="43.97671330304559" lon="12.244976938899097"><ele>438.0</ele><time>2026-04-18T13:02:04.002Z</time></trkpt><trkpt lat="43.97681884843196" lon="12.244941765774657"><ele>437.4</ele><time>2026-04-18T13:02:05.002Z</time></trkpt><trkpt lat="43.976921968647666" lon="12.244909616451508"><ele>436.79999999999995</ele><time>2026-04-18T13:02:06.002Z</time></trkpt><trkpt lat="43.97701943531393" lon="12.244879538869899"><ele>436.2</ele><time>2026-04-18T13:02:07.002Z</time></trkpt><trkpt lat="43.97712064332145" lon="12.244846367669084"><ele>435.6</ele><time>2026-04-18T13:02:08.002Z</time></trkpt><trkpt lat="43.977219797320785" lon="12.244818789149578"><ele>435.0</ele><time>2026-04-18T13:02:09.002Z</time></trkpt><trkpt lat="43.977313262213116" lon="12.244795946409688"><ele>434.0</ele><time>2026-04-18T13:02:10.002Z</time></trkpt><trkpt lat="43.97741522789085" lon="12.244756037991191"><ele>433.0</ele><time>2026-04-18T13:02:11.002Z</time></trkpt><trkpt lat="43.977513188299795" lon="12.244728889752576"><ele>432.0</ele><time>2026-04-18T13:02:12.002Z</time></trkpt><trkpt lat="43.977610678481064" lon="12.2447225097098"><ele>431.0</ele><time>2026-04-18T13:02:13.002Z</time></trkpt><trkpt lat="43.97770441052969" lon="12.244736740793371"><ele>430.0</ele><time>2026-04-18T13:02:14.002Z</time></trkpt><trkpt lat="43.97780757771557" lon="12.244768487462597"><ele>429.8</ele><time>2026-04-18T13:02:15.002Z</time></trkpt><trkpt lat="43.97790541580417" lon="12.244795741806247"><ele>429.6</ele><time>2026-04-18T13:02:16.002Z</time></trkpt><trkpt lat="43.97801113395289" lon="12.244828279913152"><ele>429.4</ele><time>2026-04-18T13:02:17.002Z</time></trkpt><trkpt lat="43.978110298286886" lon="12.24486153101652"><ele>429.2</ele><time>2026-04-18T13:02:18.002Z</time></trkpt><trkpt lat="43.97819959300741" lon="12.244903935613783"><ele>429.0</ele><time>2026-04-18T13:02:19.002Z</time></trkpt><trkpt lat="43.97828484368102" lon="12.244963143174475"><ele>429.0</ele><time>2026-04-18T13:02:20.002Z</time></trkpt><trkpt lat="43.97836572071249" lon="12.245040423596869"><ele>429.0</ele><time>2026-04-18T13:02:21.002Z</time></trkpt><trkpt lat="43.97843678721335" lon="12.245114216548608"><ele>429.0</ele><time>2026-04-18T13:02:22.002Z</time></trkpt><trkpt lat="43.97851036278652" lon="12.245211319746712"><ele>429.0</ele><time>2026-04-18T13:02:23.002Z</time></trkpt><trkpt lat="43.97859125063578" lon="12.245302191763335"><ele>429.0</ele><time>2026-04-18T13:02:24.002Z</time></trkpt><trkpt lat="43.97867509492835" lon="12.245406973001174"><ele>429.0</ele><time>2026-04-18T13:02:25.002Z</time></trkpt><trkpt lat="43.97874984642321" lon="12.245507721232812"><ele>429.0</ele><time>2026-04-18T13:02:26.002Z</time></trkpt><trkpt lat="43.97882722825219" lon="12.245613465075849"><ele>429.0</ele><time>2026-04-18T13:02:27.002Z</time></trkpt><trkpt lat="43.97888814535239" lon="12.245708633299826"><ele>429.0</ele><time>2026-04-18T13:02:28.002Z</time></trkpt><trkpt lat="43.97894230322611" lon="12.245803975169672"><ele>429.0</ele><time>2026-04-18T13:02:29.002Z</time></trkpt><trkpt lat="43.97900423854847" lon="12.245895712342529"><ele>428.79999999999995</ele><time>2026-04-18T13:02:30.002Z</time></trkpt><trkpt lat="43.97906680675527" lon="12.245994312239667"><ele>428.59999999999997</ele><time>2026-04-18T13:02:31.002Z</time></trkpt><trkpt lat="43.97912891436902" lon="12.246094439930214"><ele>428.4</ele><time>2026-04-18T13:02:32.002Z</time></trkpt><trkpt lat="43.979194068009626" lon="12.246190299199744"><ele>428.2</ele><time>2026-04-18T13:02:33.002Z</time></trkpt><trkpt lat="43.97926877574737" lon="12.246276497882862"><ele>428.0</ele><time>2026-04-18T13:02:34.002Z</time></trkpt><trkpt lat="43.97934208286032" lon="12.246355645177804"><ele>425.79999999999995</ele><time>2026-04-18T13:02:35.002Z</time></trkpt><trkpt lat="43.97941618923159" lon="12.246445746361061"><ele>423.59999999999997</ele><time>2026-04-18T13:02:36.002Z</time></trkpt><trkpt lat="43.9794775743073" lon="12.246539680539241"><ele>421.4</ele><time>2026-04-18T13:02:37.002Z</time></trkpt><trkpt lat="43.979526922202815" lon="12.246635324734697"><ele>419.20000000000005</ele><time>2026-04-18T13:02:38.002Z</time></trkpt><trkpt lat="43.979594749007326" lon="12.246731366722956"><ele>417.0</ele><time>2026-04-18T13:02:39.002Z</time></trkpt><trkpt lat="43.979685493200755" lon="12.246832794480738"><ele>417.0</ele><time>2026-04-18T13:02:40.002Z</time></trkpt><trkpt lat="43.97979771220117" lon="12.246917523495556"><ele>417.0</ele><time>2026-04-18T13:02:41.002Z</time></trkpt><trkpt lat="43.979924464069576" lon="12.246986635628122"><ele>417.0</ele><time>2026-04-18T13:02:42.002Z</time></trkpt><trkpt lat="43.98004395711378" lon="12.247052477457954"><ele>417.0</ele><time>2026-04-18T13:02:43.002Z</time></trkpt><trkpt lat="43.980156654437025" lon="12.247112131198515"><ele>414.6</ele><time>2026-04-18T13:02:44.002Z</time></trkpt><trkpt lat="43.9802604387894" lon="12.247177595976641"><ele>412.20000000000005</ele><time>2026-04-18T13:02:45.002Z</time></trkpt><trkpt lat="43.980360443740025" lon="12.247248344092075"><ele>409.8</ele><time>2026-04-18T13:02:46.002Z</time></trkpt><trkpt lat="43.980457873423056" lon="12.247310485497513"><ele>407.4</ele><time>2026-04-18T13:02:47.003Z</time></trkpt><trkpt lat="43.98056109442432" lon="12.24737907749169"><ele>405.0</ele><time>2026-04-18T13:02:48.003Z</time></trkpt><trkpt lat="43.98066555955562" lon="12.247458693924155"><ele>405.0</ele><time>2026-04-18T13:02:49.003Z</time></trkpt><trkpt lat="43.980771305832796" lon="12.247524395884486"><ele>405.0</ele><time>2026-04-18T13:02:50.003Z</time></trkpt><trkpt lat="43.980873205761846" lon="12.247606514259479"><ele>405.0</ele><time>2026-04-18T13:02:51.003Z</time></trkpt><trkpt lat="43.98096802624011" lon="12.247702121971429"><ele>405.0</ele><time>2026-04-18T13:02:52.003Z</time></trkpt><trkpt lat="43.98105594436951" lon="12.247814708605464"><ele>406.0</ele><time>2026-04-18T13:02:53.003Z</time></trkpt><trkpt lat="43.98113737410433" lon="12.247940055147115"><ele>407.0</ele><time>2026-04-18T13:02:54.003Z</time></trkpt><trkpt lat="43.98121377953432" lon="12.248070049671181"><ele>408.0</ele><time>2026-04-18T13:02:55.003Z</time></trkpt><trkpt lat="43.98128719715" lon="12.248199780407058"><ele>409.0</ele><time>2026-04-18T13:02:56.003Z</time></trkpt><trkpt lat="43.9813622632037" lon="12.248327716646068"><ele>409.0</ele><time>2026-04-18T13:02:57.003Z</time></trkpt><trkpt lat="43.98144878558025" lon="12.24845769356418"><ele>409.0</ele><time>2026-04-18T13:02:58.003Z</time></trkpt><trkpt lat="43.98152638598736" lon="12.248580651075878"><ele>409.0</ele><time>2026-04-18T13:02:59.003Z</time></trkpt><trkpt lat="43.98161296078229" lon="12.248704749405926"><ele>409.0</ele><time>2026-04-18T13:03:00.003Z</time></trkpt><trkpt lat="43.981702508744654" lon="12.248831250863121"><ele>409.0</ele><time>2026-04-18T13:03:01.003Z</time></trkpt><trkpt lat="43.981794267838175" lon="12.248955909218767"><ele>409.0</ele><time>2026-04-18T13:03:02.003Z</time></trkpt><trkpt lat="43.98187742719097" lon="12.249072418816885"><ele>409.0</ele><time>2026-04-18T13:03:03.003Z</time></trkpt><trkpt lat="43.981963359378035" lon="12.24917805004598"><ele>409.0</ele><time>2026-04-18T13:03:04.003Z</time></trkpt><trkpt lat="43.98205491737247" lon="12.249283853481378"><ele>409.0</ele><time>2026-04-18T13:03:05.003Z</time></trkpt><trkpt lat="43.982148100863206" lon="12.249378844418723"><ele>409.0</ele><time>2026-04-18T13:03:06.003Z</time></trkpt><trkpt lat="43.98224578637541" lon="12.249456993570083"><ele>409.0</ele><time>2026-04-18T13:03:07.003Z</time></trkpt><trkpt lat="43.982353289121356" lon="12.249510570478447"><ele>409.0</ele><time>2026-04-18T13:03:08.003Z</time></trkpt><trkpt lat="43.98247022424419" lon="12.249538967249727"><ele>409.75</ele><time>2026-04-18T13:03:09.003Z</time></trkpt><trkpt lat="43.982588783836604" lon="12.24955566499208"><ele>410.5</ele><time>2026-04-18T13:03:10.003Z</time></trkpt><trkpt lat="43.98270743077987" lon="12.249570609901848"><ele>411.25</ele><time>2026-04-18T13:03:11.003Z</time></trkpt><trkpt lat="43.98282729676774" lon="12.249591334804462"><ele>412.0</ele><time>2026-04-18T13:03:12.003Z</time></trkpt><trkpt lat="43.98293885232066" lon="12.249629631107807"><ele>412.0</ele><time>2026-04-18T13:03:13.003Z</time></trkpt><trkpt lat="43.9830521971755" lon="12.249666347872015"><ele>412.0</ele><time>2026-04-18T13:03:14.003Z</time></trkpt><trkpt lat="43.98316440816919" lon="12.249714687529481"><ele>412.0</ele><time>2026-04-18T13:03:15.003Z</time></trkpt><trkpt lat="43.983274316535415" lon="12.249761546451365"><ele>412.0</ele><time>2026-04-18T13:03:16.003Z</time></trkpt><trkpt lat="43.98337204615828" lon="12.249804966474445"><ele>410.6</ele><time>2026-04-18T13:03:17.003Z</time></trkpt><trkpt lat="43.9834690937359" lon="12.249840521282593"><ele>409.20000000000005</ele><time>2026-04-18T13:03:18.003Z</time></trkpt><trkpt lat="43.98357333602423" lon="12.249871474295645"><ele>407.8</ele><time>2026-04-18T13:03:19.003Z</time></trkpt><trkpt lat="43.983684888140196" lon="12.249879797380485"><ele>406.4</ele><time>2026-04-18T13:03:20.003Z</time></trkpt><trkpt lat="43.98379322322062" lon="12.249853544073028"><ele>405.0</ele><time>2026-04-18T13:03:21.003Z</time></trkpt><trkpt lat="43.98388570591686" lon="12.24979710187404"><ele>405.0</ele><time>2026-04-18T13:03:22.003Z</time></trkpt><trkpt lat="43.983988200686646" lon="12.24973426068282"><ele>405.0</ele><time>2026-04-18T13:03:23.003Z</time></trkpt><trkpt lat="43.984101587407864" lon="12.24969140388851"><ele>405.0</ele><time>2026-04-18T13:03:24.003Z</time></trkpt><trkpt lat="43.984225744079964" lon="12.249656717321718"><ele>405.0</ele><time>2026-04-18T13:03:25.003Z</time></trkpt><trkpt lat="43.984334519030305" lon="12.249628564106407"><ele>404.0</ele><time>2026-04-18T13:03:26.003Z</time></trkpt><trkpt lat="43.98444858801184" lon="12.249610214453586"><ele>403.0</ele><time>2026-04-18T13:03:27.003Z</time></trkpt><trkpt lat="43.98455676105898" lon="12.249601907845223"><ele>402.0</ele><time>2026-04-18T13:03:28.003Z</time></trkpt><trkpt lat="43.98466771120088" lon="12.249601516997155"><ele>401.0</ele><time>2026-04-18T13:03:29.003Z</time></trkpt><trkpt lat="43.98478021109058" lon="12.249588007643641"><ele>400.0</ele><time>2026-04-18T13:03:30.003Z</time></trkpt><trkpt lat="43.98488313887211" lon="12.249566737093513"><ele>400.0</ele><time>2026-04-18T13:03:31.003Z</time></trkpt><trkpt lat="43.98499478367519" lon="12.249533254445069"><ele>400.0</ele><time>2026-04-18T13:03:32.003Z</time></trkpt><trkpt lat="43.985110723736895" lon="12.249488044294996"><ele>400.0</ele><time>2026-04-18T13:03:33.003Z</time></trkpt><trkpt lat="43.98522813919366" lon="12.249425090884438"><ele>400.0</ele><time>2026-04-18T13:03:34.003Z</time></trkpt><trkpt lat="43.985328468137446" lon="12.249361157209924"><ele>400.75</ele><time>2026-04-18T13:03:35.003Z</time></trkpt><trkpt lat="43.98542745392495" lon="12.249296018393684"><ele>401.5</ele><time>2026-04-18T13:03:36.003Z</time></trkpt><trkpt lat="43.98553061158512" lon="12.249225301882415"><ele>402.25</ele><time>2026-04-18T13:03:37.003Z</time></trkpt><trkpt lat="43.98563695087263" lon="12.249156130341193"><ele>403.0</ele><time>2026-04-18T13:03:38.003Z</time></trkpt><trkpt lat="43.985740885189514" lon="12.249085719560053"><ele>403.5</ele><time>2026-04-18T13:03:39.003Z</time></trkpt><trkpt lat="43.98585317605613" lon="12.249037793823518"><ele>404.0</ele><time>2026-04-18T13:03:40.003Z</time></trkpt><trkpt lat="43.98596966746429" lon="12.249008096119084"><ele>404.5</ele><time>2026-04-18T13:03:41.003Z</time></trkpt><trkpt lat="43.98609037544859" lon="12.248988819883374"><ele>405.0</ele><time>2026-04-18T13:03:42.003Z</time></trkpt><trkpt lat="43.986208281158866" lon="12.248976437070374"><ele>403.25</ele><time>2026-04-18T13:03:43.003Z</time></trkpt><trkpt lat="43.98633150918877" lon="12.248958465716436"><ele>401.5</ele><time>2026-04-18T13:03:44.003Z</time></trkpt><trkpt lat="43.98645737578398" lon="12.24895047605854"><ele>399.75</ele><time>2026-04-18T13:03:45.003Z</time></trkpt><trkpt lat="43.98657651181958" lon="12.248951268382648"><ele>398.0</ele><time>2026-04-18T13:03:46.003Z</time></trkpt><trkpt lat="43.9866989180861" lon="12.248972518520754"><ele>401.75</ele><time>2026-04-18T13:03:47.003Z</time></trkpt><trkpt lat="43.98680848356166" lon="12.249005524195919"><ele>405.5</ele><time>2026-04-18T13:03:48.003Z</time></trkpt><trkpt lat="43.98691769136458" lon="12.249052122286031"><ele>409.25</ele><time>2026-04-18T13:03:49.003Z</time></trkpt><trkpt lat="43.98702484378007" lon="12.24910531381095"><ele>413.0</ele><time>2026-04-18T13:03:50.003Z</time></trkpt><trkpt lat="43.98713522482641" lon="12.249158029987022"><ele>413.0</ele><time>2026-04-18T13:03:51.003Z</time></trkpt><trkpt lat="43.987250021377136" lon="12.249212971462782"><ele>413.0</ele><time>2026-04-18T13:03:52.003Z</time></trkpt><trkpt lat="43.98736142505869" lon="12.249273374142385"><ele>413.0</ele><time>2026-04-18T13:03:53.003Z</time></trkpt><trkpt lat="43.98747525010714" lon="12.249332230983637"><ele>413.0</ele><time>2026-04-18T13:03:54.003Z</time></trkpt><trkpt lat="43.98759217171862" lon="12.24939341721958"><ele>413.25</ele><time>2026-04-18T13:03:55.003Z</time></trkpt><trkpt lat="43.987712124030196" lon="12.249456458220479"><ele>413.5</ele><time>2026-04-18T13:03:56.003Z</time></trkpt><trkpt lat="43.98783703442315" lon="12.249528497080533"><ele>413.75</ele><time>2026-04-18T13:03:57.003Z</time></trkpt><trkpt lat="43.9879681864756" lon="12.249605965193622"><ele>414.0</ele><time>2026-04-18T13:03:58.003Z</time></trkpt><trkpt lat="43.98809626301504" lon="12.249684389623257"><ele>414.0</ele><time>2026-04-18T13:03:59.003Z</time></trkpt><trkpt lat="43.988220959000195" lon="12.249764094475305"><ele>414.0</ele><time>2026-04-18T13:04:00.003Z</time></trkpt><trkpt lat="43.988342742502866" lon="12.249847960758688"><ele>414.0</ele><time>2026-04-18T13:04:01.003Z</time></trkpt><trkpt lat="43.98846154460201" lon="12.249928371571858"><ele>414.0</ele><time>2026-04-18T13:04:02.003Z</time></trkpt><trkpt lat="43.988575821596804" lon="12.250004813793723"><ele>413.25</ele><time>2026-04-18T13:04:03.003Z</time></trkpt><trkpt lat="43.98868974010219" lon="12.250085821597848"><ele>412.5</ele><time>2026-04-18T13:04:04.003Z</time></trkpt><trkpt lat="43.98880679848896" lon="12.250161143145633"><ele>411.75</ele><time>2026-04-18T13:04:05.003Z</time></trkpt><trkpt lat="43.98892897181566" lon="12.250235277902728"><ele>411.0</ele><time>2026-04-18T13:04:06.003Z</time></trkpt><trkpt lat="43.989040210382136" lon="12.250299757039175"><ele>411.0</ele><time>2026-04-18T13:04:07.003Z</time></trkpt><trkpt lat="43.9891494177767" lon="12.250365600383878"><ele>411.0</ele><time>2026-04-18T13:04:08.003Z</time></trkpt><trkpt lat="43.98925136103594" lon="12.250432546725577"><ele>411.0</ele><time>2026-04-18T13:04:09.003Z</time></trkpt><trkpt lat="43.98935363358592" lon="12.250501343264116"><ele>411.0</ele><time>2026-04-18T13:04:10.003Z</time></trkpt><trkpt lat="43.98946553852742" lon="12.250571614057735"><ele>415.5</ele><time>2026-04-18T13:04:11.003Z</time></trkpt><trkpt lat="43.98957422760548" lon="12.250646604300611"><ele>420.0</ele><time>2026-04-18T13:04:12.003Z</time></trkpt><trkpt lat="43.98968312207816" lon="12.250722426614912"><ele>424.5</ele><time>2026-04-18T13:04:13.003Z</time></trkpt><trkpt lat="43.98978465139374" lon="12.250798832862735"><ele>429.0</ele><time>2026-04-18T13:04:14.003Z</time></trkpt><trkpt lat="43.98988747550987" lon="12.250880656199472"><ele>429.0</ele><time>2026-04-18T13:04:15.003Z</time></trkpt><trkpt lat="43.989994042277445" lon="12.250975885887385"><ele>429.0</ele><time>2026-04-18T13:04:16.003Z</time></trkpt><trkpt lat="43.99009601461403" lon="12.251075914903758"><ele>429.0</ele><time>2026-04-18T13:04:17.003Z</time></trkpt><trkpt lat="43.99019672035998" lon="12.251193127024443"><ele>429.0</ele><time>2026-04-18T13:04:18.003Z</time></trkpt><trkpt lat="43.99029032799201" lon="12.251313832547686"><ele>430.5</ele><time>2026-04-18T13:04:19.003Z</time></trkpt><trkpt lat="43.99038052487698" lon="12.25143644894201"><ele>432.0</ele><time>2026-04-18T13:04:20.003Z</time></trkpt><trkpt lat="43.990458465802526" lon="12.251570222770148"><ele>433.5</ele><time>2026-04-18T13:04:21.003Z</time></trkpt><trkpt lat="43.99053263131296" lon="12.251712393857646"><ele>435.0</ele><time>2026-04-18T13:04:22.003Z</time></trkpt><trkpt lat="43.99059202648432" lon="12.251866645745137"><ele>434.6</ele><time>2026-04-18T13:04:23.003Z</time></trkpt><trkpt lat="43.9906382390329" lon="12.252021599105602"><ele>434.2</ele><time>2026-04-18T13:04:24.003Z</time></trkpt><trkpt lat="43.99067688473489" lon="12.252164999556806"><ele>433.79999999999995</ele><time>2026-04-18T13:04:25.003Z</time></trkpt><trkpt lat="43.990702912905334" lon="12.252305990766192"><ele>433.4</ele><time>2026-04-18T13:04:26.003Z</time></trkpt><trkpt lat="43.99070556673191" lon="12.252455916076563"><ele>433.0</ele><time>2026-04-18T13:04:27.003Z</time></trkpt><trkpt lat="43.99068615512854" lon="12.252587657392374"><ele>433.0</ele><time>2026-04-18T13:04:28.003Z</time></trkpt><trkpt lat="43.99064971925004" lon="12.252703503488432"><ele>432.99999999999994</ele><time>2026-04-18T13:04:29.003Z</time></trkpt><trkpt lat="43.99059959358068" lon="12.252804614520937"><ele>432.99999999999994</ele><time>2026-04-18T13:04:30.003Z</time></trkpt><trkpt lat="43.99053969954139" lon="12.252907273518234"><ele>433.0</ele><time>2026-04-18T13:04:31.003Z</time></trkpt><trkpt lat="43.99049260287294" lon="12.253014277114367"><ele>433.0</ele><time>2026-04-18T13:04:32.003Z</time></trkpt><trkpt lat="43.990456591046865" lon="12.253137382033467"><ele>431.5</ele><time>2026-04-18T13:04:33.003Z</time></trkpt><trkpt lat="43.99044946901687" lon="12.253269895354993"><ele>430.0</ele><time>2026-04-18T13:04:34.003Z</time></trkpt><trkpt lat="43.9904482174258" lon="12.253439156998185"><ele>428.5</ele><time>2026-04-18T13:04:35.003Z</time></trkpt><trkpt lat="43.990455365758265" lon="12.253599470251668"><ele>427.0</ele><time>2026-04-18T13:04:36.003Z</time></trkpt><trkpt lat="43.9904667312332" lon="12.253768395609496"><ele>427.0</ele><time>2026-04-18T13:04:37.003Z</time></trkpt><trkpt lat="43.990471648153" lon="12.25393196280548"><ele>427.0</ele><time>2026-04-18T13:04:38.003Z</time></trkpt><trkpt lat="43.99048143120323" lon="12.254084126069337"><ele>427.0</ele><time>2026-04-18T13:04:39.003Z</time></trkpt><trkpt lat="43.99047654400304" lon="12.254247727963111"><ele>427.0</ele><time>2026-04-18T13:04:40.003Z</time></trkpt><trkpt lat="43.99046251016215" lon="12.25440528030881"><ele>427.0</ele><time>2026-04-18T13:04:41.003Z</time></trkpt><trkpt lat="43.990444910384035" lon="12.254557068208781"><ele>427.0</ele><time>2026-04-18T13:04:42.003Z</time></trkpt><trkpt lat="43.99041814229574" lon="12.254715117857318"><ele>427.0</ele><time>2026-04-18T13:04:43.003Z</time></trkpt><trkpt lat="43.990387199101846" lon="12.254867968440871"><ele>427.0</ele><time>2026-04-18T13:04:44.003Z</time></trkpt><trkpt lat="43.99036975627993" lon="12.255019752775286"><ele>427.0</ele><time>2026-04-18T13:04:45.003Z</time></trkpt><trkpt lat="43.990363020556494" lon="12.255189043158337"><ele>427.0</ele><time>2026-04-18T13:04:46.003Z</time></trkpt><trkpt lat="43.990374110078115" lon="12.255365353282594"><ele>427.0</ele><time>2026-04-18T13:04:47.003Z</time></trkpt><trkpt lat="43.99039048424268" lon="12.255555190041447"><ele>427.0</ele><time>2026-04-18T13:04:48.003Z</time></trkpt><trkpt lat="43.99041611075248" lon="12.255731091357521"><ele>429.5</ele><time>2026-04-18T13:04:49.003Z</time></trkpt><trkpt lat="43.990446972370506" lon="12.255903673037773"><ele>432.0</ele><time>2026-04-18T13:04:50.003Z</time></trkpt><trkpt lat="43.99047985046347" lon="12.256079909330213"><ele>434.5</ele><time>2026-04-18T13:04:51.003Z</time></trkpt><trkpt lat="43.99052044552188" lon="12.256220396591392"><ele>437.0</ele><time>2026-04-18T13:04:52.003Z</time></trkpt><trkpt lat="43.99056435340347" lon="12.256353974249615"><ele>439.8</ele><time>2026-04-18T13:04:53.003Z</time></trkpt><trkpt lat="43.9905982482228" lon="12.256474937935531"><ele>442.6</ele><time>2026-04-18T13:04:54.003Z</time></trkpt><trkpt lat="43.990632625905675" lon="12.25661162060881"><ele>445.40000000000003</ele><time>2026-04-18T13:04:55.003Z</time></trkpt><trkpt lat="43.99064773600732" lon="12.25676184049615"><ele>448.20000000000005</ele><time>2026-04-18T13:04:56.003Z</time></trkpt><trkpt lat="43.99065901803433" lon="12.256916263155393"><ele>451.0</ele><time>2026-04-18T13:04:57.003Z</time></trkpt><trkpt lat="43.99066285395724" lon="12.257068469394868"><ele>451.0</ele><time>2026-04-18T13:04:58.003Z</time></trkpt><trkpt lat="43.990651416153305" lon="12.25720426386086"><ele>451.0</ele><time>2026-04-18T13:04:59.003Z</time></trkpt><trkpt lat="43.99063160036573" lon="12.257341089788362"><ele>451.0</ele><time>2026-04-18T13:05:00.003Z</time></trkpt><trkpt lat="43.99060905140154" lon="12.257475350012049"><ele>451.0</ele><time>2026-04-18T13:05:01.003Z</time></trkpt><trkpt lat="43.99059241644236" lon="12.257609125422194"><ele>451.0</ele><time>2026-04-18T13:05:02.003Z</time></trkpt><trkpt lat="43.99057966000952" lon="12.25773906147833"><ele>452.20000000000005</ele><time>2026-04-18T13:05:03.003Z</time></trkpt><trkpt lat="43.99055928068984" lon="12.25788679541036"><ele>453.40000000000003</ele><time>2026-04-18T13:05:04.003Z</time></trkpt><trkpt lat="43.9905422319408" lon="12.258027294815866"><ele>454.6</ele><time>2026-04-18T13:05:05.003Z</time></trkpt><trkpt lat="43.990518334443884" lon="12.258159126075402"><ele>455.8</ele><time>2026-04-18T13:05:06.003Z</time></trkpt><trkpt lat="43.99048596653559" lon="12.258267774193442"><ele>457.0</ele><time>2026-04-18T13:05:07.003Z</time></trkpt><trkpt lat="43.990458429036224" lon="12.258363808637558"><ele>459.25</ele><time>2026-04-18T13:05:08.003Z</time></trkpt><trkpt lat="43.99044281998149" lon="12.258502087786527"><ele>461.5</ele><time>2026-04-18T13:05:09.003Z</time></trkpt><trkpt lat="43.99043564802853" lon="12.258660328564236"><ele>463.75</ele><time>2026-04-18T13:05:10.003Z</time></trkpt><trkpt lat="43.99043698806026" lon="12.258826760533504"><ele>466.0</ele><time>2026-04-18T13:05:11.003Z</time></trkpt><trkpt lat="43.99044031054493" lon="12.25898970761709"><ele>466.4</ele><time>2026-04-18T13:05:12.003Z</time></trkpt><trkpt lat="43.990443516329556" lon="12.259139565211582"><ele>466.8</ele><time>2026-04-18T13:05:13.003Z</time></trkpt><trkpt lat="43.99045020193461" lon="12.259275282759296"><ele>467.19999999999993</ele><time>2026-04-18T13:05:14.003Z</time></trkpt><trkpt lat="43.990456631975434" lon="12.259409685897635"><ele>467.59999999999997</ele><time>2026-04-18T13:05:15.003Z</time></trkpt><trkpt lat="43.99045981311265" lon="12.259547049532419"><ele>468.0</ele><time>2026-04-18T13:05:16.003Z</time></trkpt><trkpt lat="43.99045735739434" lon="12.259686250688786"><ele>468.4</ele><time>2026-04-18T13:05:17.003Z</time></trkpt><trkpt lat="43.990435782095346" lon="12.259831922107871"><ele>468.79999999999995</ele><time>2026-04-18T13:05:18.003Z</time></trkpt><trkpt lat="43.99040912738571" lon="12.25997420930774"><ele>469.2</ele><time>2026-04-18T13:05:19.003Z</time></trkpt><trkpt lat="43.99038001038274" lon="12.260110199908215"><ele>469.6</ele><time>2026-04-18T13:05:20.003Z</time></trkpt><trkpt lat="43.990356079710985" lon="12.260261849303635"><ele>470.0</ele><time>2026-04-18T13:05:21.003Z</time></trkpt><trkpt lat="43.99033631625774" lon="12.260410968863452"><ele>470.0</ele><time>2026-04-18T13:05:22.003Z</time></trkpt><trkpt lat="43.99032743980966" lon="12.260559786236103"><ele>470.0</ele><time>2026-04-18T13:05:23.003Z</time></trkpt><trkpt lat="43.99032453499158" lon="12.260718667619487"><ele>470.0</ele><time>2026-04-18T13:05:24.003Z</time></trkpt><trkpt lat="43.990331711520945" lon="12.260880990708124"><ele>470.0</ele><time>2026-04-18T13:05:25.003Z</time></trkpt><trkpt lat="43.990347541264796" lon="12.261048576831236"><ele>470.0</ele><time>2026-04-18T13:05:26.003Z</time></trkpt><trkpt lat="43.99036858548476" lon="12.261215285007788"><ele>470.0</ele><time>2026-04-18T13:05:27.003Z</time></trkpt><trkpt lat="43.99039265596498" lon="12.261387751351299"><ele>470.0</ele><time>2026-04-18T13:05:28.003Z</time></trkpt><trkpt lat="43.99041712253157" lon="12.261542187900625"><ele>470.0</ele><time>2026-04-18T13:05:29.003Z</time></trkpt><trkpt lat="43.99044138348145" lon="12.261683121114586"><ele>470.0</ele><time>2026-04-18T13:05:30.003Z</time></trkpt><trkpt lat="43.99046991800095" lon="12.261826869369646"><ele>470.0</ele><time>2026-04-18T13:05:31.003Z</time></trkpt><trkpt lat="43.99049356874372" lon="12.261966387600413"><ele>470.0</ele><time>2026-04-18T13:05:32.003Z</time></trkpt><trkpt lat="43.99051449484148" lon="12.262103420588105"><ele>470.0</ele><time>2026-04-18T13:05:33.003Z</time></trkpt><trkpt lat="43.99053568976391" lon="12.262237936895593"><ele>470.0</ele><time>2026-04-18T13:05:34.003Z</time></trkpt><trkpt lat="43.99055734909333" lon="12.262374051236042"><ele>468.4</ele><time>2026-04-18T13:05:35.003Z</time></trkpt><trkpt lat="43.99057161789214" lon="12.262509195871035"><ele>466.8</ele><time>2026-04-18T13:05:36.003Z</time></trkpt><trkpt lat="43.99059369947553" lon="12.262655408613513"><ele>465.20000000000005</ele><time>2026-04-18T13:05:37.003Z</time></trkpt><trkpt lat="43.990615661533546" lon="12.262802440478803"><ele>463.6</ele><time>2026-04-18T13:05:38.003Z</time></trkpt><trkpt lat="43.99063937242023" lon="12.262945170542668"><ele>462.0</ele><time>2026-04-18T13:05:39.003Z</time></trkpt><trkpt lat="43.99066447520076" lon="12.263079691765018"><ele>460.20000000000005</ele><time>2026-04-18T13:05:40.003Z</time></trkpt><trkpt lat="43.99069045720614" lon="12.263219767767906"><ele>458.40000000000003</ele><time>2026-04-18T13:05:41.003Z</time></trkpt><trkpt lat="43.99071307818485" lon="12.263347382038058"><ele>456.59999999999997</ele><time>2026-04-18T13:05:42.003Z</time></trkpt><trkpt lat="43.99073206749008" lon="12.263471851023152"><ele>454.79999999999995</ele><time>2026-04-18T13:05:43.003Z</time></trkpt><trkpt lat="43.99076495940267" lon="12.26359385701536"><ele>453.0</ele><time>2026-04-18T13:05:44.003Z</time></trkpt><trkpt lat="43.99081822187146" lon="12.26370991485151"><ele>456.79999999999995</ele><time>2026-04-18T13:05:45.003Z</time></trkpt><trkpt lat="43.99089326333679" lon="12.26381121929678"><ele>460.59999999999997</ele><time>2026-04-18T13:05:46.003Z</time></trkpt><trkpt lat="43.99097841098328" lon="12.263892345136272"><ele>464.40000000000003</ele><time>2026-04-18T13:05:47.003Z</time></trkpt><trkpt lat="43.99106431507786" lon="12.26395790999314"><ele>468.20000000000005</ele><time>2026-04-18T13:05:48.003Z</time></trkpt><trkpt lat="43.9911301834927" lon="12.264028841696165"><ele>472.0</ele><time>2026-04-18T13:05:49.003Z</time></trkpt><trkpt lat="43.9911723337354" lon="12.2641130097695"><ele>472.0</ele><time>2026-04-18T13:05:50.003Z</time></trkpt><trkpt lat="43.99119131498907" lon="12.264237962916459"><ele>472.00000000000006</ele><time>2026-04-18T13:05:51.003Z</time></trkpt><trkpt lat="43.99119832679299" lon="12.26438887213287"><ele>472.00000000000006</ele><time>2026-04-18T13:05:52.003Z</time></trkpt><trkpt lat="43.991195262088326" lon="12.26455395537489"><ele>472.0</ele><time>2026-04-18T13:05:53.003Z</time></trkpt><trkpt lat="43.99119780565084" lon="12.264710286562686"><ele>472.0</ele><time>2026-04-18T13:05:54.003Z</time></trkpt><trkpt lat="43.99120916333979" lon="12.26487439490011"><ele>471.20000000000005</ele><time>2026-04-18T13:05:55.003Z</time></trkpt><trkpt lat="43.9912293458311" lon="12.265027837705203"><ele>470.40000000000003</ele><time>2026-04-18T13:05:56.003Z</time></trkpt><trkpt lat="43.991254512513144" lon="12.26518019029807"><ele>469.59999999999997</ele><time>2026-04-18T13:05:57.003Z</time></trkpt><trkpt lat="43.99127533611802" lon="12.265329553715763"><ele>468.79999999999995</ele><time>2026-04-18T13:05:58.003Z</time></trkpt><trkpt lat="43.991294730981735" lon="12.265476644289148"><ele>468.0</ele><time>2026-04-18T13:05:59.003Z</time></trkpt><trkpt lat="43.991317012167485" lon="12.26561854301178"><ele>466.0</ele><time>2026-04-18T13:06:00.003Z</time></trkpt><trkpt lat="43.991330477886535" lon="12.265771691764803"><ele>463.99999999999994</ele><time>2026-04-18T13:06:01.003Z</time></trkpt><trkpt lat="43.99135205279979" lon="12.265914754943413"><ele>461.99999999999994</ele><time>2026-04-18T13:06:02.003Z</time></trkpt><trkpt lat="43.991362781222115" lon="12.266059409233698"><ele>460.0</ele><time>2026-04-18T13:06:03.003Z</time></trkpt><trkpt lat="43.99137703605444" lon="12.266206110853902"><ele>458.0</ele><time>2026-04-18T13:06:04.003Z</time></trkpt><trkpt lat="43.991395573884816" lon="12.266354658676667"><ele>456.0</ele><time>2026-04-18T13:06:05.003Z</time></trkpt><trkpt lat="43.99142705772072" lon="12.266500847468162"><ele>453.99999999999994</ele><time>2026-04-18T13:06:06.003Z</time></trkpt><trkpt lat="43.99146403256351" lon="12.26663828123622"><ele>451.99999999999994</ele><time>2026-04-18T13:06:07.003Z</time></trkpt><trkpt lat="43.99150429547085" lon="12.266764952731373"><ele>450.0</ele><time>2026-04-18T13:06:08.003Z</time></trkpt><trkpt lat="43.99155669459805" lon="12.266895898062948"><ele>448.0</ele><time>2026-04-18T13:06:09.003Z</time></trkpt><trkpt lat="43.9916235570947" lon="12.266999477684838"><ele>448.59999999999997</ele><time>2026-04-18T13:06:10.003Z</time></trkpt><trkpt lat="43.99169739595066" lon="12.26706233176795"><ele>449.19999999999993</ele><time>2026-04-18T13:06:11.003Z</time></trkpt><trkpt lat="43.99178134644326" lon="12.267095537564055"><ele>449.8</ele><time>2026-04-18T13:06:12.003Z</time></trkpt><trkpt lat="43.99187700211827" lon="12.267081177376468"><ele>450.4</ele><time>2026-04-18T13:06:13.003Z</time></trkpt><trkpt lat="43.9919805507048" lon="12.267042836628983"><ele>451.0</ele><time>2026-04-18T13:06:14.003Z</time></trkpt><trkpt lat="43.99209032709773" lon="12.26700717383569"><ele>451.0</ele><time>2026-04-18T13:06:15.003Z</time></trkpt><trkpt lat="43.992198010340395" lon="12.266981535705906"><ele>451.0</ele><time>2026-04-18T13:06:16.003Z</time></trkpt><trkpt lat="43.99230523391154" lon="12.266962950895298"><ele>451.0</ele><time>2026-04-18T13:06:17.003Z</time></trkpt><trkpt lat="43.992409007585" lon="12.26695074785829"><ele>451.0</ele><time>2026-04-18T13:06:18.003Z</time></trkpt><trkpt lat="43.99250382896473" lon="12.266931810774775"><ele>451.0</ele><time>2026-04-18T13:06:19.003Z</time></trkpt><trkpt lat="43.99260464999698" lon="12.266904421767508"><ele>449.6</ele><time>2026-04-18T13:06:20.003Z</time></trkpt><trkpt lat="43.99270921752163" lon="12.26688807705522"><ele>448.20000000000005</ele><time>2026-04-18T13:06:21.003Z</time></trkpt><trkpt lat="43.992821435970285" lon="12.266879484775998"><ele>446.79999999999995</ele><time>2026-04-18T13:06:22.003Z</time></trkpt><trkpt lat="43.992925075343514" lon="12.266886968970011"><ele>445.4</ele><time>2026-04-18T13:06:23.003Z</time></trkpt><trkpt lat="43.99302828556821" lon="12.266891300638814"><ele>444.0</ele><time>2026-04-18T13:06:24.003Z</time></trkpt><trkpt lat="43.9931376436049" lon="12.266941255120534"><ele>444.0</ele><time>2026-04-18T13:06:25.003Z</time></trkpt><trkpt lat="43.993225051164934" lon="12.26703754879658"><ele>444.0</ele><time>2026-04-18T13:06:26.003Z</time></trkpt><trkpt lat="43.99328976127126" lon="12.267168433177973"><ele>444.0</ele><time>2026-04-18T13:06:27.003Z</time></trkpt><trkpt lat="43.993359735882365" lon="12.267304414358739"><ele>444.0</ele><time>2026-04-18T13:06:28.003Z</time></trkpt><trkpt lat="43.99342129967288" lon="12.267441570936256"><ele>446.25</ele><time>2026-04-18T13:06:29.003Z</time></trkpt><trkpt lat="43.99345895854951" lon="12.267582889689718"><ele>448.5</ele><time>2026-04-18T13:06:30.003Z</time></trkpt><trkpt lat="43.99348655097157" lon="12.267739241182293"><ele>450.75</ele><time>2026-04-18T13:06:31.003Z</time></trkpt><trkpt lat="43.993518504526634" lon="12.267896762316798"><ele>453.0</ele><time>2026-04-18T13:06:32.003Z</time></trkpt><trkpt lat="43.993534514094925" lon="12.268063608594531"><ele>452.5</ele><time>2026-04-18T13:06:33.003Z</time></trkpt><trkpt lat="43.99354450668886" lon="12.268226041708527"><ele>452.0</ele><time>2026-04-18T13:06:34.003Z</time></trkpt><trkpt lat="43.99354120365809" lon="12.268396983526685"><ele>451.5</ele><time>2026-04-18T13:06:35.003Z</time></trkpt><trkpt lat="43.99352844463306" lon="12.268573497305706"><ele>451.0</ele><time>2026-04-18T13:06:36.003Z</time></trkpt><trkpt lat="43.993512936817226" lon="12.268739548103039"><ele>451.0</ele><time>2026-04-18T13:06:37.003Z</time></trkpt><trkpt lat="43.99349833406399" lon="12.268897809709607"><ele>451.0</ele><time>2026-04-18T13:06:38.003Z</time></trkpt><trkpt lat="43.993486996587194" lon="12.269052730544713"><ele>451.0</ele><time>2026-04-18T13:06:39.003Z</time></trkpt><trkpt lat="43.99349040767572" lon="12.269208484170937"><ele>451.0</ele><time>2026-04-18T13:06:40.003Z</time></trkpt><trkpt lat="43.99348980422089" lon="12.26937202317293"><ele>451.20000000000005</ele><time>2026-04-18T13:06:41.003Z</time></trkpt><trkpt lat="43.993486594502855" lon="12.269530582459465"><ele>451.40000000000003</ele><time>2026-04-18T13:06:42.003Z</time></trkpt><trkpt lat="43.993478012696166" lon="12.269686087757178"><ele>451.6</ele><time>2026-04-18T13:06:43.003Z</time></trkpt><trkpt lat="43.99347514252956" lon="12.269841243042363"><ele>451.8</ele><time>2026-04-18T13:06:44.003Z</time></trkpt><trkpt lat="43.993473971538705" lon="12.269990223208215"><ele>452.0</ele><time>2026-04-18T13:06:45.003Z</time></trkpt><trkpt lat="43.99346988152285" lon="12.27014572749214"><ele>450.20000000000005</ele><time>2026-04-18T13:06:46.003Z</time></trkpt><trkpt lat="43.99346668353665" lon="12.27030113638352"><ele>448.40000000000003</ele><time>2026-04-18T13:06:47.003Z</time></trkpt><trkpt lat="43.99347133184904" lon="12.27044915246383"><ele>446.59999999999997</ele><time>2026-04-18T13:06:48.003Z</time></trkpt><trkpt lat="43.99347493077608" lon="12.270591965293121"><ele>444.79999999999995</ele><time>2026-04-18T13:06:49.003Z</time></trkpt><trkpt lat="43.99348759335707" lon="12.270728379748189"><ele>443.0</ele><time>2026-04-18T13:06:50.003Z</time></trkpt><trkpt lat="43.993512149826195" lon="12.270872196819997"><ele>440.25</ele><time>2026-04-18T13:06:51.003Z</time></trkpt><trkpt lat="43.99356326761577" lon="12.271023017672992"><ele>437.5</ele><time>2026-04-18T13:06:52.004Z</time></trkpt><trkpt lat="43.99363347459023" lon="12.271164792496108"><ele>434.75</ele><time>2026-04-18T13:06:53.004Z</time></trkpt><trkpt lat="43.99370193410478" lon="12.271302381321073"><ele>432.0</ele><time>2026-04-18T13:06:54.004Z</time></trkpt><trkpt lat="43.993771600283154" lon="12.271436061584936"><ele>430.20000000000005</ele><time>2026-04-18T13:06:55.004Z</time></trkpt><trkpt lat="43.99383596900746" lon="12.271552561164889"><ele>428.40000000000003</ele><time>2026-04-18T13:06:56.004Z</time></trkpt><trkpt lat="43.993881242387616" lon="12.271674503988272"><ele>426.6</ele><time>2026-04-18T13:06:57.004Z</time></trkpt><trkpt lat="43.99394353039109" lon="12.271804158076838"><ele>424.79999999999995</ele><time>2026-04-18T13:06:58.004Z</time></trkpt><trkpt lat="43.99400138139547" lon="12.271920810975987"><ele>423.0</ele><time>2026-04-18T13:06:59.004Z</time></trkpt><trkpt lat="43.994050749674194" lon="12.2720314297683"><ele>423.0</ele><time>2026-04-18T13:07:00.004Z</time></trkpt><trkpt lat="43.99410088212816" lon="12.272129493751322"><ele>423.0</ele><time>2026-04-18T13:07:01.004Z</time></trkpt><trkpt lat="43.99413833590757" lon="12.272240848924627"><ele>423.0</ele><time>2026-04-18T13:07:02.004Z</time></trkpt><trkpt lat="43.99413111353689" lon="12.272374547767514"><ele>423.0</ele><time>2026-04-18T13:07:03.004Z</time></trkpt><trkpt lat="43.99408149642397" lon="12.27251664140365"><ele>423.0</ele><time>2026-04-18T13:07:04.004Z</time></trkpt><trkpt lat="43.99401805219201" lon="12.27265206492607"><ele>421.59999999999997</ele><time>2026-04-18T13:07:05.004Z</time></trkpt><trkpt lat="43.99394663895299" lon="12.272775549403404"><ele>420.2</ele><time>2026-04-18T13:07:06.004Z</time></trkpt><trkpt lat="43.993879106200836" lon="12.272902313831404"><ele>418.8</ele><time>2026-04-18T13:07:07.004Z</time></trkpt><trkpt lat="43.993822738068395" lon="12.27303087901575"><ele>417.4</ele><time>2026-04-18T13:07:08.004Z</time></trkpt><trkpt lat="43.99376176663186" lon="12.273151216769"><ele>416.0</ele><time>2026-04-18T13:07:09.004Z</time></trkpt><trkpt lat="43.99369695514724" lon="12.273276523487715"><ele>414.8</ele><time>2026-04-18T13:07:10.004Z</time></trkpt><trkpt lat="43.99363168602036" lon="12.273408368021732"><ele>413.6</ele><time>2026-04-18T13:07:11.004Z</time></trkpt><trkpt lat="43.99356956607752" lon="12.273539682103728"><ele>412.4</ele><time>2026-04-18T13:07:12.004Z</time></trkpt><trkpt lat="43.9935106420702" lon="12.273663750949657"><ele>411.2</ele><time>2026-04-18T13:07:13.004Z</time></trkpt><trkpt lat="43.993453616764505" lon="12.273782544079149"><ele>410.0</ele><time>2026-04-18T13:07:14.004Z</time></trkpt><trkpt lat="43.9934020300987" lon="12.273899166778417"><ele>411.0</ele><time>2026-04-18T13:07:15.004Z</time></trkpt><trkpt lat="43.99335074812352" lon="12.274024813339507"><ele>412.0</ele><time>2026-04-18T13:07:16.004Z</time></trkpt><trkpt lat="43.99329661209274" lon="12.2741610298838"><ele>413.0</ele><time>2026-04-18T13:07:17.004Z</time></trkpt><trkpt lat="43.993251407515004" lon="12.274293266978969"><ele>414.0</ele><time>2026-04-18T13:07:18.004Z</time></trkpt><trkpt lat="43.99320802345815" lon="12.274424299065675"><ele>415.0</ele><time>2026-04-18T13:07:19.004Z</time></trkpt><trkpt lat="43.99317148166171" lon="12.274554174704774"><ele>415.0</ele><time>2026-04-18T13:07:20.004Z</time></trkpt><trkpt lat="43.993115545324784" lon="12.274686093737094"><ele>415.0</ele><time>2026-04-18T13:07:21.004Z</time></trkpt><trkpt lat="43.99306180819804" lon="12.274835160009843"><ele>415.0</ele><time>2026-04-18T13:07:22.004Z</time></trkpt><trkpt lat="43.99301307093703" lon="12.274996705672296"><ele>415.0</ele><time>2026-04-18T13:07:23.004Z</time></trkpt><trkpt lat="43.99297084675031" lon="12.275157458829577"><ele>413.25</ele><time>2026-04-18T13:07:24.004Z</time></trkpt><trkpt lat="43.9929262343845" lon="12.275318196192657"><ele>411.5</ele><time>2026-04-18T13:07:25.004Z</time></trkpt><trkpt lat="43.992894280538" lon="12.27548186099733"><ele>409.75</ele><time>2026-04-18T13:07:26.004Z</time></trkpt><trkpt lat="43.99286763256475" lon="12.275632171262531"><ele>408.0</ele><time>2026-04-18T13:07:27.004Z</time></trkpt><trkpt lat="43.992855658933856" lon="12.275768013203797"><ele>406.59999999999997</ele><time>2026-04-18T13:07:28.004Z</time></trkpt><trkpt lat="43.99283979080566" lon="12.27591332889472"><ele>405.2</ele><time>2026-04-18T13:07:29.004Z</time></trkpt><trkpt lat="43.992824352914205" lon="12.276061268627933"><ele>403.8</ele><time>2026-04-18T13:07:30.004Z</time></trkpt><trkpt lat="43.99280324365767" lon="12.27621756678045"><ele>402.4</ele><time>2026-04-18T13:07:31.004Z</time></trkpt><trkpt lat="43.99278537586494" lon="12.276380721180391"><ele>401.0</ele><time>2026-04-18T13:07:32.004Z</time></trkpt><trkpt lat="43.992766771981664" lon="12.276541545244374"><ele>401.0</ele><time>2026-04-18T13:07:33.004Z</time></trkpt><trkpt lat="43.9927469039026" lon="12.276697862168438"><ele>401.0</ele><time>2026-04-18T13:07:34.004Z</time></trkpt><trkpt lat="43.992732571177356" lon="12.276860133591773"><ele>401.0</ele><time>2026-04-18T13:07:35.004Z</time></trkpt><trkpt lat="43.99272110558094" lon="12.277016973686996"><ele>401.0</ele><time>2026-04-18T13:07:36.004Z</time></trkpt><trkpt lat="43.99270762664302" lon="12.277176526812948"><ele>400.6</ele><time>2026-04-18T13:07:37.004Z</time></trkpt><trkpt lat="43.992696167995284" lon="12.277335036658206"><ele>400.20000000000005</ele><time>2026-04-18T13:07:38.004Z</time></trkpt><trkpt lat="43.992681952640304" lon="12.27748682393539"><ele>399.79999999999995</ele><time>2026-04-18T13:07:39.004Z</time></trkpt><trkpt lat="43.992659121921804" lon="12.2776374415919"><ele>399.4</ele><time>2026-04-18T13:07:40.004Z</time></trkpt><trkpt lat="43.99263177127172" lon="12.277788222211276"><ele>399.0</ele><time>2026-04-18T13:07:41.004Z</time></trkpt><trkpt lat="43.9925970339521" lon="12.277950469540803"><ele>396.0</ele><time>2026-04-18T13:07:42.004Z</time></trkpt><trkpt lat="43.99255629060581" lon="12.278105035103923"><ele>393.0</ele><time>2026-04-18T13:07:43.004Z</time></trkpt><trkpt lat="43.99250832398921" lon="12.278257707525738"><ele>390.0</ele><time>2026-04-18T13:07:44.004Z</time></trkpt><trkpt lat="43.99245728634767" lon="12.278400997548125"><ele>387.0</ele><time>2026-04-18T13:07:45.004Z</time></trkpt><trkpt lat="43.99241055077846" lon="12.278561119494938"><ele>394.25</ele><time>2026-04-18T13:07:46.004Z</time></trkpt><trkpt lat="43.99236452652305" lon="12.278716917947172"><ele>401.5</ele><time>2026-04-18T13:07:47.004Z</time></trkpt><trkpt lat="43.992317859465736" lon="12.278881869592933"><ele>408.75</ele><time>2026-04-18T13:07:48.004Z</time></trkpt><trkpt lat="43.99227769985758" lon="12.27904518142392"><ele>416.0</ele><time>2026-04-18T13:07:49.004Z</time></trkpt><trkpt lat="43.99222823688915" lon="12.279196719913864"><ele>416.0</ele><time>2026-04-18T13:07:50.004Z</time></trkpt><trkpt lat="43.99217786426559" lon="12.27933742569277"><ele>416.0</ele><time>2026-04-18T13:07:51.004Z</time></trkpt><trkpt lat="43.992119645503664" lon="12.279472017708386"><ele>416.0</ele><time>2026-04-18T13:07:52.004Z</time></trkpt><trkpt lat="43.99206512193023" lon="12.279610161564873"><ele>416.0</ele><time>2026-04-18T13:07:53.004Z</time></trkpt><trkpt lat="43.992011807793574" lon="12.279758523377117"><ele>417.25</ele><time>2026-04-18T13:07:54.004Z</time></trkpt><trkpt lat="43.991973352892664" lon="12.279923212865787"><ele>418.5</ele><time>2026-04-18T13:07:55.004Z</time></trkpt><trkpt lat="43.991943975125686" lon="12.280099169152924"><ele>419.75</ele><time>2026-04-18T13:07:56.004Z</time></trkpt><trkpt lat="43.991926246690376" lon="12.280282397570879"><ele>421.0</ele><time>2026-04-18T13:07:57.004Z</time></trkpt><trkpt lat="43.99190358567972" lon="12.280464492247381"><ele>422.0</ele><time>2026-04-18T13:07:58.004Z</time></trkpt><trkpt lat="43.99188672733992" lon="12.280632403378624"><ele>423.0</ele><time>2026-04-18T13:07:59.004Z</time></trkpt><trkpt lat="43.99187712321259" lon="12.280788197592"><ele>424.0</ele><time>2026-04-18T13:08:00.004Z</time></trkpt><trkpt lat="43.99187307417389" lon="12.280930135277336"><ele>425.0</ele><time>2026-04-18T13:08:01.004Z</time></trkpt><trkpt lat="43.99188912337724" lon="12.281067911115406"><ele>426.0</ele><time>2026-04-18T13:08:02.004Z</time></trkpt><trkpt lat="43.991937548226055" lon="12.28119555565232"><ele>426.0</ele><time>2026-04-18T13:08:03.004Z</time></trkpt><trkpt lat="43.99200936259567" lon="12.28130086088101"><ele>426.0</ele><time>2026-04-18T13:08:04.004Z</time></trkpt><trkpt lat="43.99211435170805" lon="12.281383978341982"><ele>426.0</ele><time>2026-04-18T13:08:05.004Z</time></trkpt><trkpt lat="43.99223378917994" lon="12.28144838828915"><ele>426.0</ele><time>2026-04-18T13:08:06.004Z</time></trkpt><trkpt lat="43.99235112289686" lon="12.281508099657318"><ele>423.75</ele><time>2026-04-18T13:08:07.004Z</time></trkpt><trkpt lat="43.99247207938772" lon="12.28159294994549"><ele>421.5</ele><time>2026-04-18T13:08:08.004Z</time></trkpt><trkpt lat="43.99257554784467" lon="12.281691686137984"><ele>419.25</ele><time>2026-04-18T13:08:09.004Z</time></trkpt><trkpt lat="43.99268002696172" lon="12.281814478399122"><ele>417.0</ele><time>2026-04-18T13:08:10.004Z</time></trkpt><trkpt lat="43.99278608565817" lon="12.28193032948623"><ele>414.75</ele><time>2026-04-18T13:08:11.004Z</time></trkpt><trkpt lat="43.99288681610624" lon="12.282026725424279"><ele>412.5</ele><time>2026-04-18T13:08:12.004Z</time></trkpt><trkpt lat="43.992993104786926" lon="12.282126774982034"><ele>410.25</ele><time>2026-04-18T13:08:13.004Z</time></trkpt><trkpt lat="43.99309284577832" lon="12.282222665815418"><ele>408.0</ele><time>2026-04-18T13:08:14.004Z</time></trkpt><trkpt lat="43.99320242622228" lon="12.282327209489294"><ele>408.0</ele><time>2026-04-18T13:08:15.004Z</time></trkpt><trkpt lat="43.99331338211158" lon="12.282431430649973"><ele>408.0</ele><time>2026-04-18T13:08:16.004Z</time></trkpt><trkpt lat="43.99342534345087" lon="12.282531175159837"><ele>408.0</ele><time>2026-04-18T13:08:17.004Z</time></trkpt><trkpt lat="43.99353781603352" lon="12.282630879806794"><ele>408.0</ele><time>2026-04-18T13:08:18.004Z</time></trkpt><trkpt lat="43.993649074621" lon="12.282737364471377"><ele>407.75</ele><time>2026-04-18T13:08:19.004Z</time></trkpt><trkpt lat="43.9937637188206" lon="12.282845198650946"><ele>407.5</ele><time>2026-04-18T13:08:20.004Z</time></trkpt><trkpt lat="43.99387279026151" lon="12.282957213380408"><ele>407.25</ele><time>2026-04-18T13:08:21.004Z</time></trkpt><trkpt lat="43.99398373537678" lon="12.283075373562454"><ele>407.0</ele><time>2026-04-18T13:08:22.004Z</time></trkpt><trkpt lat="43.99409188037792" lon="12.283187557505327"><ele>404.5</ele><time>2026-04-18T13:08:23.004Z</time></trkpt><trkpt lat="43.99419668628496" lon="12.283295264502202"><ele>402.0</ele><time>2026-04-18T13:08:24.004Z</time></trkpt><trkpt lat="43.99430052189311" lon="12.283397756406146"><ele>399.5</ele><time>2026-04-18T13:08:25.004Z</time></trkpt><trkpt lat="43.994394368161785" lon="12.283514671683196"><ele>397.0</ele><time>2026-04-18T13:08:26.004Z</time></trkpt><trkpt lat="43.99448565508134" lon="12.283620767377501"><ele>397.0</ele><time>2026-04-18T13:08:27.004Z</time></trkpt><trkpt lat="43.99456664974053" lon="12.283722936379425"><ele>397.0</ele><time>2026-04-18T13:08:28.004Z</time></trkpt><trkpt lat="43.99464306297377" lon="12.283834265915761"><ele>397.0</ele><time>2026-04-18T13:08:29.004Z</time></trkpt><trkpt lat="43.994712670325924" lon="12.283963704544956"><ele>397.0</ele><time>2026-04-18T13:08:30.004Z</time></trkpt><trkpt lat="43.994784816384815" lon="12.284116600626746"><ele>396.0</ele><time>2026-04-18T13:08:31.004Z</time></trkpt><trkpt lat="43.994850617581214" lon="12.284280770804601"><ele>395.0</ele><time>2026-04-18T13:08:32.004Z</time></trkpt><trkpt lat="43.99490904936907" lon="12.28444871425481"><ele>394.0</ele><time>2026-04-18T13:08:33.004Z</time></trkpt><trkpt lat="43.994972251118824" lon="12.28461408247159"><ele>393.0</ele><time>2026-04-18T13:08:34.004Z</time></trkpt><trkpt lat="43.99504418203866" lon="12.28477611978624"><ele>393.0</ele><time>2026-04-18T13:08:35.004Z</time></trkpt><trkpt lat="43.99511969287436" lon="12.284932792326279"><ele>393.0</ele><time>2026-04-18T13:08:36.004Z</time></trkpt><trkpt lat="43.995194727388714" lon="12.28507483060982"><ele>393.0</ele><time>2026-04-18T13:08:37.004Z</time></trkpt><trkpt lat="43.9952730190986" lon="12.285212401803534"><ele>393.0</ele><time>2026-04-18T13:08:38.004Z</time></trkpt><trkpt lat="43.99534739360666" lon="12.285356859155817"><ele>393.0</ele><time>2026-04-18T13:08:39.004Z</time></trkpt><trkpt lat="43.995417608489845" lon="12.285502413375731"><ele>393.0</ele><time>2026-04-18T13:08:40.004Z</time></trkpt><trkpt lat="43.99547666062912" lon="12.285665583347933"><ele>393.0</ele><time>2026-04-18T13:08:41.004Z</time></trkpt><trkpt lat="43.99551920629879" lon="12.285837320021345"><ele>393.0</ele><time>2026-04-18T13:08:42.004Z</time></trkpt><trkpt lat="43.99555210401284" lon="12.286023943558105"><ele>393.5</ele><time>2026-04-18T13:08:43.004Z</time></trkpt><trkpt lat="43.99557303504454" lon="12.286222424435511"><ele>394.0</ele><time>2026-04-18T13:08:44.004Z</time></trkpt><trkpt lat="43.995599616887816" lon="12.286415110132417"><ele>394.5</ele><time>2026-04-18T13:08:45.004Z</time></trkpt><trkpt lat="43.995621780866195" lon="12.286599586192692"><ele>395.0</ele><time>2026-04-18T13:08:46.004Z</time></trkpt><trkpt lat="43.99563744676347" lon="12.286780292414283"><ele>394.0</ele><time>2026-04-18T13:08:47.004Z</time></trkpt><trkpt lat="43.99564677098054" lon="12.286955103331353"><ele>393.0</ele><time>2026-04-18T13:08:48.004Z</time></trkpt><trkpt lat="43.99565468473984" lon="12.28713499808793"><ele>392.0</ele><time>2026-04-18T13:08:49.004Z</time></trkpt><trkpt lat="43.995650526440414" lon="12.287303974677425"><ele>391.0</ele><time>2026-04-18T13:08:50.004Z</time></trkpt><trkpt lat="43.995633195335685" lon="12.287473410387449"><ele>390.5</ele><time>2026-04-18T13:08:51.004Z</time></trkpt><trkpt lat="43.99559862555189" lon="12.28764336795845"><ele>390.0</ele><time>2026-04-18T13:08:52.004Z</time></trkpt><trkpt lat="43.99555402589524" lon="12.287819357686757"><ele>389.5</ele><time>2026-04-18T13:08:53.004Z</time></trkpt><trkpt lat="43.99551045185368" lon="12.287987970140424"><ele>389.0</ele><time>2026-04-18T13:08:54.004Z</time></trkpt><trkpt lat="43.99546876817435" lon="12.288150328398228"><ele>390.0</ele><time>2026-04-18T13:08:55.004Z</time></trkpt><trkpt lat="43.995426328904685" lon="12.28830995063574"><ele>391.0</ele><time>2026-04-18T13:08:56.004Z</time></trkpt><trkpt lat="43.99538189902147" lon="12.288458749576904"><ele>392.0</ele><time>2026-04-18T13:08:57.004Z</time></trkpt><trkpt lat="43.99533307097619" lon="12.288587013746492"><ele>393.0</ele><time>2026-04-18T13:08:58.004Z</time></trkpt><trkpt lat="43.99528291194572" lon="12.288710721539196"><ele>394.0</ele><time>2026-04-18T13:08:59.004Z</time></trkpt><trkpt lat="43.99522002950284" lon="12.288842281186357"><ele>393.0</ele><time>2026-04-18T13:09:00.004Z</time></trkpt><trkpt lat="43.995147399529344" lon="12.28896950133204"><ele>392.0</ele><time>2026-04-18T13:09:01.004Z</time></trkpt><trkpt lat="43.99507490013152" lon="12.289088156153653"><ele>391.0</ele><time>2026-04-18T13:09:02.004Z</time></trkpt><trkpt lat="43.99499864615245" lon="12.289191844052459"><ele>390.0</ele><time>2026-04-18T13:09:03.004Z</time></trkpt><trkpt lat="43.99492836593777" lon="12.289293340341635"><ele>389.0</ele><time>2026-04-18T13:09:04.004Z</time></trkpt><trkpt lat="43.994856153040566" lon="12.289383530656794"><ele>389.0</ele><time>2026-04-18T13:09:05.004Z</time></trkpt><trkpt lat="43.99478405315674" lon="12.289453828748893"><ele>389.0</ele><time>2026-04-18T13:09:06.004Z</time></trkpt><trkpt lat="43.99470131977547" lon="12.289511578000113"><ele>389.0</ele><time>2026-04-18T13:09:07.004Z</time></trkpt><trkpt lat="43.99458574475164" lon="12.289561182320059"><ele>389.0</ele><time>2026-04-18T13:09:08.004Z</time></trkpt><trkpt lat="43.9944817974699" lon="12.289607215580206"><ele>389.0</ele><time>2026-04-18T13:09:09.004Z</time></trkpt><trkpt lat="43.99440283425185" lon="12.289623068053833"><ele>389.0</ele><time>2026-04-18T13:09:10.004Z</time></trkpt><trkpt lat="43.99431865783458" lon="12.28965515819143"><ele>389.0</ele><time>2026-04-18T13:09:11.004Z</time></trkpt><trkpt lat="43.99419923845094" lon="12.289760473959161"><ele>389.0</ele><time>2026-04-18T13:09:12.004Z</time></trkpt><trkpt lat="43.994098499253944" lon="12.289878255537625"><ele>389.0</ele><time>2026-04-18T13:09:13.004Z</time></trkpt><trkpt lat="43.99400190004581" lon="12.29000786384721"><ele>387.4</ele><time>2026-04-18T13:09:14.004Z</time></trkpt><trkpt lat="43.99393564747138" lon="12.290121608682698"><ele>385.79999999999995</ele><time>2026-04-18T13:09:15.004Z</time></trkpt><trkpt lat="43.99387056677985" lon="12.290224675266549"><ele>384.20000000000005</ele><time>2026-04-18T13:09:16.004Z</time></trkpt><trkpt lat="43.99381268376185" lon="12.29033636460467"><ele>382.6</ele><time>2026-04-18T13:09:17.004Z</time></trkpt><trkpt lat="43.99375585056675" lon="12.2904417959874"><ele>381.0</ele><time>2026-04-18T13:09:18.004Z</time></trkpt><trkpt lat="43.99371387878919" lon="12.290541739693467"><ele>381.0</ele><time>2026-04-18T13:09:19.004Z</time></trkpt><trkpt lat="43.993690477122065" lon="12.290662456936282"><ele>381.0</ele><time>2026-04-18T13:09:20.004Z</time></trkpt><trkpt lat="43.993699647403595" lon="12.290802533318008"><ele>381.0</ele><time>2026-04-18T13:09:21.004Z</time></trkpt><trkpt lat="43.99375669538688" lon="12.290908773503723"><ele>381.0</ele><time>2026-04-18T13:09:22.004Z</time></trkpt><trkpt lat="43.99382970721767" lon="12.291014239465433"><ele>381.0</ele><time>2026-04-18T13:09:23.004Z</time></trkpt><trkpt lat="43.993921015697055" lon="12.291078565940847"><ele>381.0</ele><time>2026-04-18T13:09:24.004Z</time></trkpt><trkpt lat="43.99402810506871" lon="12.291106256967447"><ele>381.0</ele><time>2026-04-18T13:09:25.004Z</time></trkpt><trkpt lat="43.99413911016416" lon="12.291102804629244"><ele>381.0</ele><time>2026-04-18T13:09:26.004Z</time></trkpt><trkpt lat="43.99423888191398" lon="12.29108289131408"><ele>381.0</ele><time>2026-04-18T13:09:27.004Z</time></trkpt><trkpt lat="43.99434869392369" lon="12.291079204248657"><ele>381.0</ele><time>2026-04-18T13:09:28.004Z</time></trkpt><trkpt lat="43.99446857809049" lon="12.291086447503154"><ele>382.20000000000005</ele><time>2026-04-18T13:09:29.004Z</time></trkpt><trkpt lat="43.994581347799695" lon="12.291084111129091"><ele>383.40000000000003</ele><time>2026-04-18T13:09:30.003Z</time></trkpt><trkpt lat="43.994693117745925" lon="12.291078537138391"><ele>384.6</ele><time>2026-04-18T13:09:31.003Z</time></trkpt><trkpt lat="43.99478927532451" lon="12.291075036045871"><ele>385.8</ele><time>2026-04-18T13:09:32.003Z</time></trkpt><trkpt lat="43.994889645376404" lon="12.291081924620485"><ele>387.0</ele><time>2026-04-18T13:09:33.003Z</time></trkpt><trkpt lat="43.99499834192488" lon="12.291114906872654"><ele>387.6</ele><time>2026-04-18T13:09:34.003Z</time></trkpt><trkpt lat="43.99507952798238" lon="12.291190360639511"><ele>388.20000000000005</ele><time>2026-04-18T13:09:35.003Z</time></trkpt><trkpt lat="43.995145061387255" lon="12.291287723697899"><ele>388.8</ele><time>2026-04-18T13:09:36.003Z</time></trkpt><trkpt lat="43.99517270732452" lon="12.29143001586793"><ele>389.4</ele><time>2026-04-18T13:09:37.003Z</time></trkpt><trkpt lat="43.995192954743644" lon="12.291593816284639"><ele>390.0</ele><time>2026-04-18T13:09:38.003Z</time></trkpt><trkpt lat="43.99522613744083" lon="12.291773765296512"><ele>390.0</ele><time>2026-04-18T13:09:39.003Z</time></trkpt><trkpt lat="43.9952771477802" lon="12.29196314456737"><ele>390.0</ele><time>2026-04-18T13:09:40.003Z</time></trkpt><trkpt lat="43.995341058564" lon="12.292157509761935"><ele>390.0</ele><time>2026-04-18T13:09:41.003Z</time></trkpt><trkpt lat="43.995410909093344" lon="12.292342788410684"><ele>387.0</ele><time>2026-04-18T13:09:42.003Z</time></trkpt><trkpt lat="43.99548033768881" lon="12.292536878022096"><ele>384.0</ele><time>2026-04-18T13:09:43.003Z</time></trkpt><trkpt lat="43.99532038864245" lon="12.292427744871313"><ele>381.0</ele><time>2026-04-18T13:09:44.003Z</time></trkpt><trkpt lat="43.99534759007112" lon="12.29257553169395"><ele>378.0</ele><time>2026-04-18T13:09:45.003Z</time></trkpt><trkpt lat="43.99537862998329" lon="12.292735469817895"><ele>378.0</ele><time>2026-04-18T13:09:46.003Z</time></trkpt><trkpt lat="43.995410464087705" lon="12.292891040117002"><ele>378.0</ele><time>2026-04-18T13:09:47.004Z</time></trkpt><trkpt lat="43.99543666169484" lon="12.293033742048937"><ele>378.0</ele><time>2026-04-18T13:09:48.004Z</time></trkpt><trkpt lat="43.995466132742045" lon="12.293164679250296"><ele>378.0</ele><time>2026-04-18T13:09:49.004Z</time></trkpt><trkpt lat="43.995514915147446" lon="12.293295829064514"><ele>378.0</ele><time>2026-04-18T13:09:50.004Z</time></trkpt><trkpt lat="43.995583887566234" lon="12.293427431747645"><ele>376.2</ele><time>2026-04-18T13:09:51.004Z</time></trkpt><trkpt lat="43.99566402478446" lon="12.293535462932603"><ele>374.4</ele><time>2026-04-18T13:09:52.004Z</time></trkpt><trkpt lat="43.995747104949494" lon="12.29363217630993"><ele>372.59999999999997</ele><time>2026-04-18T13:09:53.004Z</time></trkpt><trkpt lat="43.9958325232532" lon="12.293722110749489"><ele>370.79999999999995</ele><time>2026-04-18T13:09:54.004Z</time></trkpt><trkpt lat="43.99591544088119" lon="12.293798033445148"><ele>369.0</ele><time>2026-04-18T13:09:55.004Z</time></trkpt><trkpt lat="43.99601096263127" lon="12.29386019177008"><ele>369.0</ele><time>2026-04-18T13:09:56.004Z</time></trkpt><trkpt lat="43.99611231894604" lon="12.293895906726448"><ele>369.0</ele><time>2026-04-18T13:09:57.004Z</time></trkpt><trkpt lat="43.996219841462036" lon="12.293896846396793"><ele>369.0</ele><time>2026-04-18T13:09:58.004Z</time></trkpt><trkpt lat="43.99632627574302" lon="12.293877979777822"><ele>369.0</ele><time>2026-04-18T13:09:59.004Z</time></trkpt><trkpt lat="43.996432369619406" lon="12.293846556816115"><ele>369.0</ele><time>2026-04-18T13:10:00.004Z</time></trkpt><trkpt lat="43.99652114085357" lon="12.29381559725174"><ele>369.0</ele><time>2026-04-18T13:10:01.004Z</time></trkpt><trkpt lat="43.99661232777711" lon="12.293783279086137"><ele>369.0</ele><time>2026-04-18T13:10:02.004Z</time></trkpt><trkpt lat="43.99670922565919" lon="12.293765591352296"><ele>369.0</ele><time>2026-04-18T13:10:03.004Z</time></trkpt><trkpt lat="43.99681855776805" lon="12.293769738597147"><ele>369.0</ele><time>2026-04-18T13:10:04.004Z</time></trkpt><trkpt lat="43.99692417378855" lon="12.293784998823444"><ele>369.0</ele><time>2026-04-18T13:10:05.004Z</time></trkpt><trkpt lat="43.99703346140513" lon="12.293827222201983"><ele>369.79999999999995</ele><time>2026-04-18T13:10:06.004Z</time></trkpt><trkpt lat="43.99714548919006" lon="12.293877180913384"><ele>370.59999999999997</ele><time>2026-04-18T13:10:07.004Z</time></trkpt><trkpt lat="43.99723843589914" lon="12.293949516556836"><ele>371.4</ele><time>2026-04-18T13:10:08.004Z</time></trkpt><trkpt lat="43.99732181432152" lon="12.29403361038426"><ele>372.2</ele><time>2026-04-18T13:10:09.004Z</time></trkpt><trkpt lat="43.99738483607917" lon="12.294129995177293"><ele>373.0</ele><time>2026-04-18T13:10:10.004Z</time></trkpt><trkpt lat="43.997454900693626" lon="12.294229911668175"><ele>370.2</ele><time>2026-04-18T13:10:11.004Z</time></trkpt><trkpt lat="43.99753106327656" lon="12.294357928820547"><ele>367.4</ele><time>2026-04-18T13:10:12.004Z</time></trkpt><trkpt lat="43.99758047710726" lon="12.294497498602253"><ele>364.59999999999997</ele><time>2026-04-18T13:10:13.004Z</time></trkpt><trkpt lat="43.99760957574086" lon="12.294628873468898"><ele>361.79999999999995</ele><time>2026-04-18T13:10:14.004Z</time></trkpt><trkpt lat="43.99763892678441" lon="12.294748734226019"><ele>359.0</ele><time>2026-04-18T13:10:15.004Z</time></trkpt><trkpt lat="43.99766537629556" lon="12.294875007538204"><ele>358.6</ele><time>2026-04-18T13:10:16.003Z</time></trkpt><trkpt lat="43.99769572007913" lon="12.294988473337716"><ele>358.2</ele><time>2026-04-18T13:10:17.004Z</time></trkpt><trkpt lat="43.99772804739814" lon="12.295099626924838"><ele>357.8</ele><time>2026-04-18T13:10:18.004Z</time></trkpt><trkpt lat="43.99776213542053" lon="12.295218631421612"><ele>357.40000000000003</ele><time>2026-04-18T13:10:19.003Z</time></trkpt><trkpt lat="43.9978065473162" lon="12.295318634452652"><ele>357.0</ele><time>2026-04-18T13:10:20.004Z</time></trkpt><trkpt lat="43.997876267281754" lon="12.295436858313247"><ele>357.0</ele><time>2026-04-18T13:10:21.004Z</time></trkpt><trkpt lat="43.99795170112783" lon="12.295555723298806"><ele>357.0</ele><time>2026-04-18T13:10:22.003Z</time></trkpt><trkpt lat="43.99804336961783" lon="12.295655747043451"><ele>357.0</ele><time>2026-04-18T13:10:23.003Z</time></trkpt><trkpt lat="43.99814223580728" lon="12.295732258120468"><ele>357.0</ele><time>2026-04-18T13:10:24.003Z</time></trkpt><trkpt lat="43.998236661683116" lon="12.295783910025852"><ele>357.0</ele><time>2026-04-18T13:10:25.003Z</time></trkpt><trkpt lat="43.99832963267696" lon="12.295816679166402"><ele>352.8</ele><time>2026-04-18T13:10:26.004Z</time></trkpt><trkpt lat="43.998420970364776" lon="12.29585152735682"><ele>348.6</ele><time>2026-04-18T13:10:27.004Z</time></trkpt><trkpt lat="43.99850603309818" lon="12.295884268969218"><ele>344.40000000000003</ele><time>2026-04-18T13:10:28.003Z</time></trkpt><trkpt lat="43.99859779304033" lon="12.29591181987978"><ele>340.20000000000005</ele><time>2026-04-18T13:10:29.003Z</time></trkpt><trkpt lat="43.998689281191055" lon="12.295901897391266"><ele>336.0</ele><time>2026-04-18T13:10:30.003Z</time></trkpt><trkpt lat="43.99878055146411" lon="12.295866005770677"><ele>336.0</ele><time>2026-04-18T13:10:31.003Z</time></trkpt><trkpt lat="43.99886573637286" lon="12.295817403399735"><ele>336.0</ele><time>2026-04-18T13:10:32.003Z</time></trkpt><trkpt lat="43.998946876755355" lon="12.29577868064828"><ele>336.0</ele><time>2026-04-18T13:10:33.003Z</time></trkpt><trkpt lat="43.999018956521596" lon="12.295739665621811"><ele>336.0</ele><time>2026-04-18T13:10:34.003Z</time></trkpt><trkpt lat="43.99908166882668" lon="12.295704379273296"><ele>336.0</ele><time>2026-04-18T13:10:35.003Z</time></trkpt><trkpt lat="43.999206354262846" lon="12.29567685449672"><ele>336.0</ele><time>2026-04-18T13:10:37.003Z</time></trkpt><trkpt lat="43.99928749142305" lon="12.295802333769165"><ele>335.6</ele><time>2026-04-18T13:10:39.003Z</time></trkpt><trkpt lat="43.99932644746784" lon="12.295883227313512"><ele>335.20000000000005</ele><time>2026-04-18T13:10:40.003Z</time></trkpt><trkpt lat="43.99945432462352" lon="12.295885804029393"><ele>334.79999999999995</ele><time>2026-04-18T13:10:42.003Z</time></trkpt><trkpt lat="43.99951377855064" lon="12.295806281480251"><ele>334.4</ele><time>2026-04-18T13:10:43.003Z</time></trkpt><trkpt lat="43.99955807536912" lon="12.295705043871894"><ele>334.0</ele><time>2026-04-18T13:10:44.003Z</time></trkpt><trkpt lat="43.99959184213589" lon="12.295585097097876"><ele>331.6</ele><time>2026-04-18T13:10:45.003Z</time></trkpt><trkpt lat="43.99965318927449" lon="12.295509959707017"><ele>329.2</ele><time>2026-04-18T13:10:46.003Z</time></trkpt><trkpt lat="43.99973084829806" lon="12.295467099178207"><ele>326.8</ele><time>2026-04-18T13:10:47.003Z</time></trkpt><trkpt lat="43.999823303455976" lon="12.295462584313537"><ele>324.40000000000003</ele><time>2026-04-18T13:10:48.003Z</time></trkpt><trkpt lat="43.999919923262816" lon="12.2954981421434"><ele>322.0</ele><time>2026-04-18T13:10:49.003Z</time></trkpt><trkpt lat="44.00001546720834" lon="12.295564067148424"><ele>324.40000000000003</ele><time>2026-04-18T13:10:50.003Z</time></trkpt><trkpt lat="44.00009817667365" lon="12.295640346177011"><ele>326.8</ele><time>2026-04-18T13:10:51.003Z</time></trkpt><trkpt lat="44.000177202678145" lon="12.295718784089955"><ele>329.2</ele><time>2026-04-18T13:10:52.003Z</time></trkpt><trkpt lat="44.00026118420889" lon="12.295791111023618"><ele>331.6</ele><time>2026-04-18T13:10:53.003Z</time></trkpt><trkpt lat="44.00034619486157" lon="12.295861661589697"><ele>334.0</ele><time>2026-04-18T13:10:54.003Z</time></trkpt><trkpt lat="44.00042154505697" lon="12.295923376725993"><ele>334.0</ele><time>2026-04-18T13:10:55.003Z</time></trkpt><trkpt lat="44.00050333504951" lon="12.295990911272536"><ele>334.0</ele><time>2026-04-18T13:10:56.003Z</time></trkpt><trkpt lat="44.000582952549884" lon="12.29605623892648"><ele>334.0</ele><time>2026-04-18T13:10:57.003Z</time></trkpt><trkpt lat="44.00066542040452" lon="12.296137116180041"><ele>334.0</ele><time>2026-04-18T13:10:58.003Z</time></trkpt><trkpt lat="44.00074858514208" lon="12.296206507649957"><ele>334.0</ele><time>2026-04-18T13:10:59.003Z</time></trkpt><trkpt lat="44.00082601572994" lon="12.296274363963212"><ele>334.75</ele><time>2026-04-18T13:11:00.003Z</time></trkpt><trkpt lat="44.00090645787966" lon="12.296344709707547"><ele>335.5</ele><time>2026-04-18T13:11:01.003Z</time></trkpt><trkpt lat="44.00100632883188" lon="12.296422140392101"><ele>336.25</ele><time>2026-04-18T13:11:02.003Z</time></trkpt><trkpt lat="44.00110845725229" lon="12.29650721683789"><ele>337.0</ele><time>2026-04-18T13:11:03.003Z</time></trkpt><trkpt lat="44.00120869111748" lon="12.296606394174962"><ele>337.25</ele><time>2026-04-18T13:11:04.003Z</time></trkpt><trkpt lat="44.00132835261801" lon="12.296695510112208"><ele>337.5</ele><time>2026-04-18T13:11:05.003Z</time></trkpt><trkpt lat="44.001420045223085" lon="12.296796477269021"><ele>337.75</ele><time>2026-04-18T13:11:06.003Z</time></trkpt><trkpt lat="44.001524613133675" lon="12.296889789333386"><ele>338.0</ele><time>2026-04-18T13:11:07.003Z</time></trkpt><trkpt lat="44.00161787799019" lon="12.296973803596632"><ele>338.59999999999997</ele><time>2026-04-18T13:11:08.003Z</time></trkpt><trkpt lat="44.00171257763729" lon="12.29705042300361"><ele>339.2</ele><time>2026-04-18T13:11:09.003Z</time></trkpt><trkpt lat="44.00180739800049" lon="12.297126434773453"><ele>339.8</ele><time>2026-04-18T13:11:10.003Z</time></trkpt><trkpt lat="44.001891033708915" lon="12.297205152488512"><ele>340.4</ele><time>2026-04-18T13:11:11.003Z</time></trkpt><trkpt lat="44.00199458226076" lon="12.297292695100559"><ele>341.0</ele><time>2026-04-18T13:11:12.003Z</time></trkpt><trkpt lat="44.00209335541419" lon="12.297389699345329"><ele>341.0</ele><time>2026-04-18T13:11:13.003Z</time></trkpt><trkpt lat="44.002199551987516" lon="12.297474419391019"><ele>341.0</ele><time>2026-04-18T13:11:14.003Z</time></trkpt><trkpt lat="44.002307948026626" lon="12.297552366489972"><ele>341.0</ele><time>2026-04-18T13:11:15.003Z</time></trkpt><trkpt lat="44.00240842918604" lon="12.297640280168162"><ele>341.0</ele><time>2026-04-18T13:11:16.003Z</time></trkpt><trkpt lat="44.002509258119794" lon="12.297722429008028"><ele>342.20000000000005</ele><time>2026-04-18T13:11:17.003Z</time></trkpt><trkpt lat="44.002597767093576" lon="12.297800993612695"><ele>343.40000000000003</ele><time>2026-04-18T13:11:18.003Z</time></trkpt><trkpt lat="44.00268209913261" lon="12.297876298135684"><ele>344.6</ele><time>2026-04-18T13:11:19.003Z</time></trkpt><trkpt lat="44.0027677675248" lon="12.297967979555741"><ele>345.8</ele><time>2026-04-18T13:11:20.003Z</time></trkpt><trkpt lat="44.002855759504314" lon="12.29804616944428"><ele>347.0</ele><time>2026-04-18T13:11:21.003Z</time></trkpt><trkpt lat="44.00294456798438" lon="12.2981194872829"><ele>347.0</ele><time>2026-04-18T13:11:22.003Z</time></trkpt><trkpt lat="44.00303327504981" lon="12.298191861607974"><ele>347.0</ele><time>2026-04-18T13:11:23.003Z</time></trkpt><trkpt lat="44.003124856413635" lon="12.298290088525194"><ele>347.0</ele><time>2026-04-18T13:11:24.003Z</time></trkpt><trkpt lat="44.00320299303583" lon="12.298380875639612"><ele>347.0</ele><time>2026-04-18T13:11:25.003Z</time></trkpt><trkpt lat="44.00326724447858" lon="12.298478063149286"><ele>347.0</ele><time>2026-04-18T13:11:26.003Z</time></trkpt><trkpt lat="44.003321100487696" lon="12.298581423868294"><ele>347.8</ele><time>2026-04-18T13:11:27.003Z</time></trkpt><trkpt lat="44.00336828577597" lon="12.298702842296075"><ele>348.6</ele><time>2026-04-18T13:11:28.003Z</time></trkpt><trkpt lat="44.003413302285765" lon="12.29883133384257"><ele>349.40000000000003</ele><time>2026-04-18T13:11:29.003Z</time></trkpt><trkpt lat="44.003453169469026" lon="12.298941841264185"><ele>350.20000000000005</ele><time>2026-04-18T13:11:30.003Z</time></trkpt><trkpt lat="44.00349448978074" lon="12.299043593972424"><ele>351.0</ele><time>2026-04-18T13:11:31.003Z</time></trkpt><trkpt lat="44.003529389017125" lon="12.299149686408922"><ele>351.0</ele><time>2026-04-18T13:11:32.003Z</time></trkpt><trkpt lat="44.00356381869623" lon="12.299264510906319"><ele>351.0</ele><time>2026-04-18T13:11:33.003Z</time></trkpt><trkpt lat="44.003605974332544" lon="12.29936312308622"><ele>351.0</ele><time>2026-04-18T13:11:34.003Z</time></trkpt><trkpt lat="44.00363984650985" lon="12.299463699406258"><ele>351.0</ele><time>2026-04-18T13:11:35.003Z</time></trkpt><trkpt lat="44.00367293919726" lon="12.299562240221237"><ele>351.0</ele><time>2026-04-18T13:11:36.003Z</time></trkpt><trkpt lat="44.003700273641655" lon="12.299645762623207"><ele>351.0</ele><time>2026-04-18T13:11:37.003Z</time></trkpt><trkpt lat="44.00373721738621" lon="12.299786376015986"><ele>351.0</ele><time>2026-04-18T13:11:39.003Z</time></trkpt><trkpt lat="44.00375739379574" lon="12.299874403829541"><ele>351.0</ele><time>2026-04-18T13:11:41.003Z</time></trkpt><trkpt lat="44.00373758863926" lon="12.299761461875917"><ele>351.0</ele><time>2026-04-18T13:11:59.003Z</time></trkpt><trkpt lat="44.003715647811916" lon="12.299661831948839"><ele>351.0</ele><time>2026-04-18T13:12:02.003Z</time></trkpt><trkpt lat="44.003673585655186" lon="12.299568652205467"><ele>351.0</ele><time>2026-04-18T13:12:04.003Z</time></trkpt><trkpt lat="44.003637644566275" lon="12.299482769092046"><ele>351.0</ele><time>2026-04-18T13:12:05.003Z</time></trkpt><trkpt lat="44.00360884080279" lon="12.299385659505793"><ele>351.0</ele><time>2026-04-18T13:12:06.003Z</time></trkpt><trkpt lat="44.00356043211374" lon="12.299291685588015"><ele>351.0</ele><time>2026-04-18T13:12:07.003Z</time></trkpt><trkpt lat="44.003527707803734" lon="12.299186817892712"><ele>351.0</ele><time>2026-04-18T13:12:08.003Z</time></trkpt><trkpt lat="44.003495319391426" lon="12.299087382260373"><ele>351.0</ele><time>2026-04-18T13:12:09.003Z</time></trkpt><trkpt lat="44.00345583800123" lon="12.29899236221323"><ele>351.0</ele><time>2026-04-18T13:12:10.003Z</time></trkpt><trkpt lat="44.00341647848294" lon="12.298902249091231"><ele>351.0</ele><time>2026-04-18T13:12:11.003Z</time></trkpt><trkpt lat="44.00338449816951" lon="12.298821092098025"><ele>351.0</ele><time>2026-04-18T13:12:12.003Z</time></trkpt><trkpt lat="44.00335281215313" lon="12.298710051614464"><ele>351.0</ele><time>2026-04-18T13:12:14.003Z</time></trkpt><trkpt lat="44.00341180993047" lon="12.298674491661295"><ele>351.0</ele><time>2026-04-18T13:12:18.003Z</time></trkpt><trkpt lat="44.00349389082455" lon="12.298862757105313"><ele>351.0</ele><time>2026-04-18T13:12:21.003Z</time></trkpt><trkpt lat="44.00352967073271" lon="12.298965994307416"><ele>351.0</ele><time>2026-04-18T13:12:22.003Z</time></trkpt><trkpt lat="44.00356729183752" lon="12.299049839278267"><ele>351.0</ele><time>2026-04-18T13:12:23.004Z</time></trkpt><trkpt lat="44.00360145484158" lon="12.299125762425454"><ele>351.0</ele><time>2026-04-18T13:12:24.004Z</time></trkpt><trkpt lat="44.00363685909771" lon="12.299199640920959"><ele>351.0</ele><time>2026-04-18T13:12:25.003Z</time></trkpt><trkpt lat="44.003675386586124" lon="12.299272825509856"><ele>351.0</ele><time>2026-04-18T13:12:26.003Z</time></trkpt><trkpt lat="44.00373565632492" lon="12.299407708899423"><ele>351.0</ele><time>2026-04-18T13:12:28.003Z</time></trkpt><trkpt lat="44.00380497625405" lon="12.299546173434942"><ele>351.0</ele><time>2026-04-18T13:12:30.003Z</time></trkpt><trkpt lat="44.003842971449245" lon="12.299620109290096"><ele>351.0</ele><time>2026-04-18T13:12:31.004Z</time></trkpt><trkpt lat="44.003884103760186" lon="12.299692555056993"><ele>351.0</ele><time>2026-04-18T13:12:32.003Z</time></trkpt><trkpt lat="44.003920321974896" lon="12.299774429287144"><ele>351.0</ele><time>2026-04-18T13:12:33.003Z</time></trkpt><trkpt lat="44.00396071439046" lon="12.299859836425705"><ele>351.0</ele><time>2026-04-18T13:12:34.003Z</time></trkpt><trkpt lat="44.003998466736206" lon="12.29996215051319"><ele>351.0</ele><time>2026-04-18T13:12:35.003Z</time></trkpt><trkpt lat="44.00404102869642" lon="12.30006672782366"><ele>351.0</ele><time>2026-04-18T13:12:36.003Z</time></trkpt><trkpt lat="44.00408477089834" lon="12.300165517090505"><ele>350.3333333333333</ele><time>2026-04-18T13:12:37.003Z</time></trkpt><trkpt lat="44.00413143601746" lon="12.300272747133414"><ele>349.6666666666667</ele><time>2026-04-18T13:12:38.003Z</time></trkpt><trkpt lat="44.004177659564746" lon="12.300362134010822"><ele>349.0</ele><time>2026-04-18T13:12:39.003Z</time></trkpt><trkpt lat="44.004237009665935" lon="12.300457740879203"><ele>348.33333333333337</ele><time>2026-04-18T13:12:41.003Z</time></trkpt><trkpt lat="44.004294688068235" lon="12.300497402291223"><ele>347.6666666666667</ele><time>2026-04-18T13:12:59.003Z</time></trkpt><trkpt lat="44.004359512112416" lon="12.300510574522832"><ele>347.0</ele><time>2026-04-18T13:13:52.003Z</time></trkpt><trkpt lat="44.00430382230357" lon="12.300457080827092"><ele>347.0</ele><time>2026-04-18T13:14:12.004Z</time></trkpt><trkpt lat="44.00425011778905" lon="12.300387270240561"><ele>347.0</ele><time>2026-04-18T13:14:14.004Z</time></trkpt><trkpt lat="44.00418818513708" lon="12.300287640859455"><ele>347.0</ele><time>2026-04-18T13:14:16.004Z</time></trkpt><trkpt lat="44.00411609997495" lon="12.300153911307806"><ele>347.0</ele><time>2026-04-18T13:14:18.004Z</time></trkpt><trkpt lat="44.00404447429142" lon="12.300011161271996"><ele>347.0</ele><time>2026-04-18T13:14:20.004Z</time></trkpt><trkpt lat="44.004012185334254" lon="12.299934523116622"><ele>347.0</ele><time>2026-04-18T13:14:21.004Z</time></trkpt><trkpt lat="44.00397767861891" lon="12.299851102357403"><ele>347.0</ele><time>2026-04-18T13:14:22.004Z</time></trkpt><trkpt lat="44.003903832306584" lon="12.299696577070604"><ele>347.0</ele><time>2026-04-18T13:14:24.004Z</time></trkpt><trkpt lat="44.00386666621079" lon="12.299622908025972"><ele>347.0</ele><time>2026-04-18T13:14:25.004Z</time></trkpt><trkpt lat="44.00382185491003" lon="12.299532691029944"><ele>347.0</ele><time>2026-04-18T13:14:26.004Z</time></trkpt><trkpt lat="44.00378263500226" lon="12.299450103140227"><ele>347.0</ele><time>2026-04-18T13:14:27.004Z</time></trkpt><trkpt lat="44.00374078108998" lon="12.29936756630339"><ele>347.6666666666667</ele><time>2026-04-18T13:14:28.004Z</time></trkpt><trkpt lat="44.00370056194611" lon="12.299282212459971"><ele>348.33333333333337</ele><time>2026-04-18T13:14:29.004Z</time></trkpt><trkpt lat="44.0036604175097" lon="12.299193633651212"><ele>349.0</ele><time>2026-04-18T13:14:30.004Z</time></trkpt><trkpt lat="44.003616237028716" lon="12.299104202189906"><ele>349.6666666666667</ele><time>2026-04-18T13:14:31.003Z</time></trkpt><trkpt lat="44.003582360169425" lon="12.299021644747613"><ele>350.3333333333333</ele><time>2026-04-18T13:14:32.004Z</time></trkpt><trkpt lat="44.003547433378564" lon="12.298935659055761"><ele>351.0</ele><time>2026-04-18T13:14:33.004Z</time></trkpt><trkpt lat="44.00348715385365" lon="12.298795779084362"><ele>351.0</ele><time>2026-04-18T13:14:35.003Z</time></trkpt><trkpt lat="44.00343235753147" lon="12.298690026709737"><ele>351.0</ele><time>2026-04-18T13:14:37.004Z</time></trkpt><trkpt lat="44.003391875626335" lon="12.298613631853547"><ele>351.0</ele><time>2026-04-18T13:14:39.003Z</time></trkpt><trkpt lat="44.00332891630244" lon="12.298526235328108"><ele>351.0</ele><time>2026-04-18T13:15:03.003Z</time></trkpt><trkpt lat="44.003261101733045" lon="12.298454368445103"><ele>351.0</ele><time>2026-04-18T13:15:05.003Z</time></trkpt><trkpt lat="44.003240811890265" lon="12.298368583902446"><ele>351.0</ele><time>2026-04-18T13:15:07.003Z</time></trkpt><trkpt lat="44.003305332973376" lon="12.298335635484186"><ele>351.0</ele><time>2026-04-18T13:15:09.003Z</time></trkpt><trkpt lat="44.00339245167747" lon="12.29834675642324"><ele>351.0</ele><time>2026-04-18T13:15:11.003Z</time></trkpt><trkpt lat="44.0034840206223" lon="12.298364606006336"><ele>351.0</ele><time>2026-04-18T13:15:13.003Z</time></trkpt><trkpt lat="44.00360220296614" lon="12.29837170860418"><ele>351.0</ele><time>2026-04-18T13:15:15.003Z</time></trkpt><trkpt lat="44.00366826849493" lon="12.298380697977013"><ele>351.0</ele><time>2026-04-18T13:15:16.003Z</time></trkpt><trkpt lat="44.003734994812305" lon="12.298380605642631"><ele>351.0</ele><time>2026-04-18T13:15:17.003Z</time></trkpt><trkpt lat="44.00380306206603" lon="12.298383051140002"><ele>351.00000000000006</ele><time>2026-04-18T13:15:18.003Z</time></trkpt><trkpt lat="44.00387195374253" lon="12.298395579773604"><ele>351.0</ele><time>2026-04-18T13:15:19.003Z</time></trkpt><trkpt lat="44.00393913073223" lon="12.29841629164174"><ele>351.0</ele><time>2026-04-18T13:15:20.003Z</time></trkpt><trkpt lat="44.0040055777977" lon="12.298441759983739"><ele>351.0</ele><time>2026-04-18T13:15:21.003Z</time></trkpt><trkpt lat="44.004069779476914" lon="12.298470941111171"><ele>351.0</ele><time>2026-04-18T13:15:22.003Z</time></trkpt><trkpt lat="44.004129308940385" lon="12.298528797342549"><ele>351.00000000000006</ele><time>2026-04-18T13:15:23.003Z</time></trkpt><trkpt lat="44.00418512524717" lon="12.298572626193808"><ele>351.0</ele><time>2026-04-18T13:15:24.003Z</time></trkpt><trkpt lat="44.00424605289642" lon="12.298618306362735"><ele>350.3333333333333</ele><time>2026-04-18T13:15:25.003Z</time></trkpt><trkpt lat="44.00432385974856" lon="12.298656799462332"><ele>349.6666666666667</ele><time>2026-04-18T13:15:26.003Z</time></trkpt><trkpt lat="44.00439718533817" lon="12.298691563144388"><ele>349.0</ele><time>2026-04-18T13:15:27.003Z</time></trkpt><trkpt lat="44.00447002140118" lon="12.298745047694347"><ele>348.33333333333337</ele><time>2026-04-18T13:15:28.003Z</time></trkpt><trkpt lat="44.004552642898524" lon="12.298796531372005"><ele>347.6666666666667</ele><time>2026-04-18T13:15:29.003Z</time></trkpt><trkpt lat="44.00463990319458" lon="12.298836651197881"><ele>347.0</ele><time>2026-04-18T13:15:30.003Z</time></trkpt><trkpt lat="44.00472839340635" lon="12.298872025492926"><ele>347.0</ele><time>2026-04-18T13:15:31.003Z</time></trkpt><trkpt lat="44.00482568790077" lon="12.298902848237413"><ele>347.0</ele><time>2026-04-18T13:15:32.003Z</time></trkpt><trkpt lat="44.004924011401904" lon="12.298928027256274"><ele>347.0</ele><time>2026-04-18T13:15:33.003Z</time></trkpt><trkpt lat="44.00502825570371" lon="12.298945905677964"><ele>347.0</ele><time>2026-04-18T13:15:34.003Z</time></trkpt><trkpt lat="44.0051420409609" lon="12.298944399190908"><ele>347.0</ele><time>2026-04-18T13:15:35.003Z</time></trkpt><trkpt lat="44.00525169754103" lon="12.298943026323464"><ele>348.0</ele><time>2026-04-18T13:15:36.003Z</time></trkpt><trkpt lat="44.00534853316129" lon="12.29894825013765"><ele>349.0</ele><time>2026-04-18T13:15:37.003Z</time></trkpt><trkpt lat="44.005450836216426" lon="12.29895886507913"><ele>350.0</ele><time>2026-04-18T13:15:38.003Z</time></trkpt><trkpt lat="44.00554270736552" lon="12.298961709859713"><ele>351.0</ele><time>2026-04-18T13:15:39.003Z</time></trkpt><trkpt lat="44.005647897057656" lon="12.298966840511664"><ele>352.0</ele><time>2026-04-18T13:15:40.003Z</time></trkpt><trkpt lat="44.00574533498532" lon="12.298969220064965"><ele>350.5</ele><time>2026-04-18T13:15:41.003Z</time></trkpt><trkpt lat="44.00583148208106" lon="12.298972209567522"><ele>349.0</ele><time>2026-04-18T13:15:42.003Z</time></trkpt><trkpt lat="44.005916859270265" lon="12.298979400965537"><ele>347.5</ele><time>2026-04-18T13:15:43.003Z</time></trkpt><trkpt lat="44.00600321852583" lon="12.298971053942635"><ele>346.0</ele><time>2026-04-18T13:15:44.003Z</time></trkpt><trkpt lat="44.006076498877604" lon="12.298973170801895"><ele>344.5</ele><time>2026-04-18T13:15:45.003Z</time></trkpt><trkpt lat="44.006145791017765" lon="12.298983425985671"><ele>343.0</ele><time>2026-04-18T13:15:46.003Z</time></trkpt><trkpt lat="44.00621810923332" lon="12.2989817101752"><ele>343.0</ele><time>2026-04-18T13:15:47.003Z</time></trkpt><trkpt lat="44.00631666304799" lon="12.299005437375916"><ele>343.0</ele><time>2026-04-18T13:15:48.003Z</time></trkpt><trkpt lat="44.006414391909004" lon="12.299034018603647"><ele>343.0</ele><time>2026-04-18T13:15:49.003Z</time></trkpt><trkpt lat="44.00648060570686" lon="12.299083718902915"><ele>343.0</ele><time>2026-04-18T13:15:50.003Z</time></trkpt><trkpt lat="44.00652317060866" lon="12.299174418190285"><ele>343.0</ele><time>2026-04-18T13:15:51.003Z</time></trkpt><trkpt lat="44.006558991033785" lon="12.299282749596655"><ele>343.0</ele><time>2026-04-18T13:15:52.003Z</time></trkpt><trkpt lat="44.00656567583901" lon="12.299410964795984"><ele>343.0</ele><time>2026-04-18T13:15:53.003Z</time></trkpt><trkpt lat="44.00659164623642" lon="12.299541269295268"><ele>343.0</ele><time>2026-04-18T13:15:54.003Z</time></trkpt><trkpt lat="44.00662939236118" lon="12.299661765313976"><ele>343.0</ele><time>2026-04-18T13:15:55.003Z</time></trkpt><trkpt lat="44.00668750978698" lon="12.299770179336967"><ele>343.0</ele><time>2026-04-18T13:15:56.003Z</time></trkpt><trkpt lat="44.006749038503415" lon="12.299875962500549"><ele>343.0</ele><time>2026-04-18T13:15:57.003Z</time></trkpt><trkpt lat="44.006810285040906" lon="12.299962051030796"><ele>342.4</ele><time>2026-04-18T13:15:58.003Z</time></trkpt><trkpt lat="44.00688137616654" lon="12.300017690107515"><ele>341.79999999999995</ele><time>2026-04-18T13:15:59.003Z</time></trkpt><trkpt lat="44.006967160377435" lon="12.300050811006797"><ele>341.2</ele><time>2026-04-18T13:16:00.003Z</time></trkpt><trkpt lat="44.007068810396184" lon="12.300060690817487"><ele>340.6</ele><time>2026-04-18T13:16:01.003Z</time></trkpt><trkpt lat="44.007169518089654" lon="12.300057958207093"><ele>340.0</ele><time>2026-04-18T13:16:02.003Z</time></trkpt><trkpt lat="44.00725720670238" lon="12.300032651288925"><ele>340.0</ele><time>2026-04-18T13:16:03.003Z</time></trkpt><trkpt lat="44.00734224452101" lon="12.300024393811444"><ele>340.0</ele><time>2026-04-18T13:16:04.003Z</time></trkpt><trkpt lat="44.00742231665502" lon="12.299999245720846"><ele>340.0</ele><time>2026-04-18T13:16:05.003Z</time></trkpt><trkpt lat="44.007493773787445" lon="12.29996494591977"><ele>340.0</ele><time>2026-04-18T13:16:06.003Z</time></trkpt><trkpt lat="44.00754800060947" lon="12.299894304282734"><ele>340.0</ele><time>2026-04-18T13:16:07.003Z</time></trkpt><trkpt lat="44.00759139113928" lon="12.29979960325562"><ele>340.0</ele><time>2026-04-18T13:16:08.003Z</time></trkpt><trkpt lat="44.00760768428243" lon="12.299691905562742"><ele>335.8</ele><time>2026-04-18T13:16:09.003Z</time></trkpt><trkpt lat="44.00760999164761" lon="12.299567744928295"><ele>331.6</ele><time>2026-04-18T13:16:10.003Z</time></trkpt><trkpt lat="44.00759780200547" lon="12.299435112740111"><ele>327.4</ele><time>2026-04-18T13:16:11.003Z</time></trkpt><trkpt lat="44.007578323000374" lon="12.299297478296001"><ele>323.2</ele><time>2026-04-18T13:16:12.003Z</time></trkpt><trkpt lat="44.00756054837919" lon="12.29916433823954"><ele>319.0</ele><time>2026-04-18T13:16:13.003Z</time></trkpt><trkpt lat="44.00755848593372" lon="12.299013443665354"><ele>317.4</ele><time>2026-04-18T13:16:14.003Z</time></trkpt><trkpt lat="44.007574974056006" lon="12.29888412716563"><ele>315.79999999999995</ele><time>2026-04-18T13:16:15.003Z</time></trkpt><trkpt lat="44.007583999081106" lon="12.29875421732455"><ele>314.20000000000005</ele><time>2026-04-18T13:16:16.003Z</time></trkpt><trkpt lat="44.00759323022926" lon="12.298625735650488"><ele>312.6</ele><time>2026-04-18T13:16:17.003Z</time></trkpt><trkpt lat="44.00762551558958" lon="12.298508021065457"><ele>311.0</ele><time>2026-04-18T13:16:18.003Z</time></trkpt><trkpt lat="44.007671767916825" lon="12.298410527187531"><ele>311.0</ele><time>2026-04-18T13:16:19.003Z</time></trkpt><trkpt lat="44.00773251540207" lon="12.29833498227953"><ele>311.0</ele><time>2026-04-18T13:16:20.003Z</time></trkpt><trkpt lat="44.00780794813016" lon="12.298285241855368"><ele>311.0</ele><time>2026-04-18T13:16:21.003Z</time></trkpt><trkpt lat="44.00788290637668" lon="12.298277307609068"><ele>311.0</ele><time>2026-04-18T13:16:22.003Z</time></trkpt><trkpt lat="44.007948996369315" lon="12.298312996299599"><ele>311.0</ele><time>2026-04-18T13:16:23.003Z</time></trkpt><trkpt lat="44.00799573056224" lon="12.298381631753461"><ele>311.0</ele><time>2026-04-18T13:16:24.003Z</time></trkpt><trkpt lat="44.00802475069061" lon="12.29846887014349"><ele>311.0</ele><time>2026-04-18T13:16:25.003Z</time></trkpt><trkpt lat="44.008019445047175" lon="12.298565040700488"><ele>311.0</ele><time>2026-04-18T13:16:26.003Z</time></trkpt><trkpt lat="44.00799609412834" lon="12.298663812559008"><ele>311.0</ele><time>2026-04-18T13:16:27.003Z</time></trkpt><trkpt lat="44.00797716702528" lon="12.298756020828302"><ele>311.0</ele><time>2026-04-18T13:16:28.003Z</time></trkpt><trkpt lat="44.007976638837874" lon="12.298849762889168"><ele>311.0</ele><time>2026-04-18T13:16:29.003Z</time></trkpt><trkpt lat="44.008001015002215" lon="12.29894409002117"><ele>311.0</ele><time>2026-04-18T13:16:30.003Z</time></trkpt><trkpt lat="44.00805168271566" lon="12.29900851360389"><ele>311.0</ele><time>2026-04-18T13:16:31.003Z</time></trkpt><trkpt lat="44.00811980506144" lon="12.299032558470634"><ele>311.0</ele><time>2026-04-18T13:16:32.003Z</time></trkpt><trkpt lat="44.00818307963829" lon="12.299014396396775"><ele>311.0</ele><time>2026-04-18T13:16:33.003Z</time></trkpt><trkpt lat="44.008236459474524" lon="12.298949877566079"><ele>311.0</ele><time>2026-04-18T13:16:34.003Z</time></trkpt><trkpt lat="44.00827246258562" lon="12.298863879679914"><ele>311.0</ele><time>2026-04-18T13:16:35.003Z</time></trkpt><trkpt lat="44.00829870812286" lon="12.298770972279826"><ele>311.0</ele><time>2026-04-18T13:16:36.003Z</time></trkpt><trkpt lat="44.0083270293156" lon="12.298686230393738"><ele>311.0</ele><time>2026-04-18T13:16:37.003Z</time></trkpt><trkpt lat="44.008393507460504" lon="12.298560359028446"><ele>311.0</ele><time>2026-04-18T13:16:39.003Z</time></trkpt><trkpt lat="44.008488471909494" lon="12.29858564592551"><ele>308.83333333333337</ele><time>2026-04-18T13:16:41.003Z</time></trkpt><trkpt lat="44.00850413322287" lon="12.29875563408464"><ele>306.6666666666667</ele><time>2026-04-18T13:16:43.003Z</time></trkpt><trkpt lat="44.008474406767874" lon="12.29884405288471"><ele>304.5</ele><time>2026-04-18T13:16:44.004Z</time></trkpt><trkpt lat="44.008441185712925" lon="12.29892715185928"><ele>302.3333333333333</ele><time>2026-04-18T13:16:45.004Z</time></trkpt><trkpt lat="44.00840559737462" lon="12.299004027969636"><ele>300.16666666666663</ele><time>2026-04-18T13:16:46.004Z</time></trkpt><trkpt lat="44.00838292263242" lon="12.299087726855475"><ele>298.0</ele><time>2026-04-18T13:16:47.003Z</time></trkpt><trkpt lat="44.00842160715849" lon="12.29923524678113"><ele>298.0</ele><time>2026-04-18T13:16:49.003Z</time></trkpt><trkpt lat="44.008490697921985" lon="12.299266901666606"><ele>298.0</ele><time>2026-04-18T13:16:50.003Z</time></trkpt><trkpt lat="44.00857071323419" lon="12.299238506479652"><ele>298.0</ele><time>2026-04-18T13:16:51.003Z</time></trkpt><trkpt lat="44.00864059373796" lon="12.299167616641288"><ele>298.0</ele><time>2026-04-18T13:16:52.003Z</time></trkpt><trkpt lat="44.00869345261558" lon="12.299082849365911"><ele>298.0</ele><time>2026-04-18T13:16:53.003Z</time></trkpt><trkpt lat="44.00874013755424" lon="12.298986882365531"><ele>298.0</ele><time>2026-04-18T13:16:54.003Z</time></trkpt><trkpt lat="44.00877980566286" lon="12.298894677130317"><ele>298.0</ele><time>2026-04-18T13:16:55.003Z</time></trkpt><trkpt lat="44.00880965398859" lon="12.29880698175934"><ele>298.0</ele><time>2026-04-18T13:16:56.003Z</time></trkpt><trkpt lat="44.00882832699469" lon="12.298718255798308"><ele>298.0</ele><time>2026-04-18T13:16:57.003Z</time></trkpt><trkpt lat="44.008842271649826" lon="12.298626850620689"><ele>298.0</ele><time>2026-04-18T13:16:58.003Z</time></trkpt><trkpt lat="44.00885100393424" lon="12.29853457253911"><ele>298.0</ele><time>2026-04-18T13:16:59.003Z</time></trkpt><trkpt lat="44.0088561499064" lon="12.298446953609622"><ele>298.0</ele><time>2026-04-18T13:17:00.003Z</time></trkpt><trkpt lat="44.00885342701145" lon="12.298357753737616"><ele>298.0</ele><time>2026-04-18T13:17:01.003Z</time></trkpt><trkpt lat="44.00884824648098" lon="12.29826944741202"><ele>298.0</ele><time>2026-04-18T13:17:02.003Z</time></trkpt><trkpt lat="44.00883696275044" lon="12.298152157728023"><ele>298.0</ele><time>2026-04-18T13:17:03.003Z</time></trkpt><trkpt lat="44.00882352756791" lon="12.298044541842552"><ele>298.0</ele><time>2026-04-18T13:17:04.003Z</time></trkpt><trkpt lat="44.008802983428275" lon="12.297932861405958"><ele>298.0</ele><time>2026-04-18T13:17:05.003Z</time></trkpt><trkpt lat="44.008771378147664" lon="12.297813293399676"><ele>298.0</ele><time>2026-04-18T13:17:06.003Z</time></trkpt><trkpt lat="44.00873157429054" lon="12.297691651888284"><ele>298.0</ele><time>2026-04-18T13:17:07.003Z</time></trkpt><trkpt lat="44.008688009353804" lon="12.297570895593532"><ele>296.4</ele><time>2026-04-18T13:17:08.003Z</time></trkpt><trkpt lat="44.0086311531522" lon="12.297452085451152"><ele>294.8</ele><time>2026-04-18T13:17:09.003Z</time></trkpt><trkpt lat="44.008565741683356" lon="12.297328844322246"><ele>293.2</ele><time>2026-04-18T13:17:10.003Z</time></trkpt><trkpt lat="44.008488534160165" lon="12.29721118991507"><ele>291.6</ele><time>2026-04-18T13:17:11.003Z</time></trkpt><trkpt lat="44.00840782323814" lon="12.297105970683177"><ele>290.0</ele><time>2026-04-18T13:17:12.003Z</time></trkpt><trkpt lat="44.00832747024118" lon="12.297006582144547"><ele>288.0</ele><time>2026-04-18T13:17:13.003Z</time></trkpt><trkpt lat="44.0082573679326" lon="12.296918103898921"><ele>286.0</ele><time>2026-04-18T13:17:14.003Z</time></trkpt><trkpt lat="44.008198538029006" lon="12.296842231907483"><ele>284.0</ele><time>2026-04-18T13:17:15.003Z</time></trkpt><trkpt lat="44.00815061930535" lon="12.296767509170671"><ele>282.0</ele><time>2026-04-18T13:17:16.003Z</time></trkpt><trkpt lat="44.00812376303728" lon="12.296670817351071"><ele>280.0</ele><time>2026-04-18T13:17:17.003Z</time></trkpt><trkpt lat="44.00813673111254" lon="12.296584846957987"><ele>278.0</ele><time>2026-04-18T13:17:18.003Z</time></trkpt><trkpt lat="44.00826852028014" lon="12.296551566270452"><ele>277.4</ele><time>2026-04-18T13:17:20.003Z</time></trkpt><trkpt lat="44.008337452927755" lon="12.29658951937794"><ele>276.8</ele><time>2026-04-18T13:17:21.003Z</time></trkpt><trkpt lat="44.00841607824575" lon="12.296661019402647"><ele>276.2</ele><time>2026-04-18T13:17:22.003Z</time></trkpt><trkpt lat="44.00850002832287" lon="12.29673894333758"><ele>275.6</ele><time>2026-04-18T13:17:23.003Z</time></trkpt><trkpt lat="44.008575760557434" lon="12.296805004062211"><ele>275.0</ele><time>2026-04-18T13:17:24.003Z</time></trkpt><trkpt lat="44.00866071371157" lon="12.296879621253941"><ele>275.0</ele><time>2026-04-18T13:17:25.003Z</time></trkpt><trkpt lat="44.00874513764277" lon="12.296948837766706"><ele>275.0</ele><time>2026-04-18T13:17:26.003Z</time></trkpt><trkpt lat="44.00882698795218" lon="12.297017613651034"><ele>275.0</ele><time>2026-04-18T13:17:27.003Z</time></trkpt><trkpt lat="44.00890830229895" lon="12.297087538476124"><ele>275.0</ele><time>2026-04-18T13:17:28.003Z</time></trkpt><trkpt lat="44.00899120451032" lon="12.297157702772834"><ele>275.0</ele><time>2026-04-18T13:17:29.003Z</time></trkpt><trkpt lat="44.00906873214038" lon="12.297234864279314"><ele>274.2</ele><time>2026-04-18T13:17:30.003Z</time></trkpt><trkpt lat="44.00914525379205" lon="12.297319095786358"><ele>273.4</ele><time>2026-04-18T13:17:31.003Z</time></trkpt><trkpt lat="44.00921662438308" lon="12.29741339899301"><ele>272.6</ele><time>2026-04-18T13:17:32.003Z</time></trkpt><trkpt lat="44.0092769130508" lon="12.297538404988316"><ele>271.8</ele><time>2026-04-18T13:17:33.003Z</time></trkpt><trkpt lat="44.009334498096266" lon="12.297663808447822"><ele>271.0</ele><time>2026-04-18T13:17:34.003Z</time></trkpt><trkpt lat="44.009381553081546" lon="12.29778676512991"><ele>271.0</ele><time>2026-04-18T13:17:35.003Z</time></trkpt><trkpt lat="44.00942081071497" lon="12.29790879692427"><ele>271.0</ele><time>2026-04-18T13:17:36.003Z</time></trkpt><trkpt lat="44.009464152370235" lon="12.298021766092564"><ele>271.0</ele><time>2026-04-18T13:17:37.003Z</time></trkpt><trkpt lat="44.009519092257314" lon="12.298110768285998"><ele>271.0</ele><time>2026-04-18T13:17:38.003Z</time></trkpt><trkpt lat="44.00957795127417" lon="12.298161277460702"><ele>271.0</ele><time>2026-04-18T13:17:39.003Z</time></trkpt><trkpt lat="44.009640153696054" lon="12.298193518733886"><ele>271.0</ele><time>2026-04-18T13:17:40.003Z</time></trkpt><trkpt lat="44.009707928668384" lon="12.298202677629638"><ele>271.0</ele><time>2026-04-18T13:17:41.003Z</time></trkpt><trkpt lat="44.009786343545954" lon="12.298173631249826"><ele>271.0</ele><time>2026-04-18T13:17:42.004Z</time></trkpt><trkpt lat="44.00984388627447" lon="12.298102003458084"><ele>271.0</ele><time>2026-04-18T13:17:43.004Z</time></trkpt><trkpt lat="44.009888480476775" lon="12.298004886562524"><ele>271.0</ele><time>2026-04-18T13:17:44.004Z</time></trkpt><trkpt lat="44.00990128223156" lon="12.29786878925516"><ele>271.0</ele><time>2026-04-18T13:17:45.004Z</time></trkpt><trkpt lat="44.009888267074636" lon="12.297729810916566"><ele>271.0</ele><time>2026-04-18T13:17:46.004Z</time></trkpt><trkpt lat="44.00985702326486" lon="12.297604340873018"><ele>271.0</ele><time>2026-04-18T13:17:47.004Z</time></trkpt><trkpt lat="44.009809263550316" lon="12.29750071944416"><ele>271.0</ele><time>2026-04-18T13:17:48.004Z</time></trkpt><trkpt lat="44.009762939929956" lon="12.297391286035934"><ele>271.0</ele><time>2026-04-18T13:17:49.004Z</time></trkpt><trkpt lat="44.00971862532824" lon="12.297269989568644"><ele>271.0</ele><time>2026-04-18T13:17:50.004Z</time></trkpt><trkpt lat="44.00967239136208" lon="12.297146013426335"><ele>271.0</ele><time>2026-04-18T13:17:51.004Z</time></trkpt><trkpt lat="44.0096251356039" lon="12.297024626649035"><ele>269.5</ele><time>2026-04-18T13:17:52.004Z</time></trkpt><trkpt lat="44.009568129670775" lon="12.296905248299717"><ele>268.0</ele><time>2026-04-18T13:17:53.004Z</time></trkpt><trkpt lat="44.00951562968405" lon="12.296801934224728"><ele>266.5</ele><time>2026-04-18T13:17:54.004Z</time></trkpt><trkpt lat="44.00946594334342" lon="12.296706937574907"><ele>265.0</ele><time>2026-04-18T13:17:55.004Z</time></trkpt><trkpt lat="44.009419704924795" lon="12.296624148051455"><ele>263.5</ele><time>2026-04-18T13:17:56.004Z</time></trkpt><trkpt lat="44.009378996860136" lon="12.296542417513049"><ele>262.0</ele><time>2026-04-18T13:17:57.004Z</time></trkpt><trkpt lat="44.00934529373013" lon="12.296463389273715"><ele>262.0</ele><time>2026-04-18T13:17:58.004Z</time></trkpt><trkpt lat="44.009379962935675" lon="12.296326887794164"><ele>262.0</ele><time>2026-04-18T13:18:00.004Z</time></trkpt><trkpt lat="44.00949686761737" lon="12.296340786567532"><ele>262.0</ele><time>2026-04-18T13:18:02.004Z</time></trkpt><trkpt lat="44.009560982303135" lon="12.296408115284903"><ele>262.0</ele><time>2026-04-18T13:18:03.004Z</time></trkpt><trkpt lat="44.00962480485636" lon="12.29649093406164"><ele>262.0</ele><time>2026-04-18T13:18:04.004Z</time></trkpt><trkpt lat="44.00970302420425" lon="12.296569539681474"><ele>262.0</ele><time>2026-04-18T13:18:05.004Z</time></trkpt><trkpt lat="44.00977713941457" lon="12.296647632521605"><ele>262.0</ele><time>2026-04-18T13:18:06.004Z</time></trkpt><trkpt lat="44.00985500124731" lon="12.296734016866756"><ele>262.0</ele><time>2026-04-18T13:18:07.004Z</time></trkpt><trkpt lat="44.009928817847275" lon="12.296817682768001"><ele>262.0</ele><time>2026-04-18T13:18:08.004Z</time></trkpt><trkpt lat="44.01000161990311" lon="12.296898453642195"><ele>262.0</ele><time>2026-04-18T13:18:09.004Z</time></trkpt><trkpt lat="44.01007496307659" lon="12.29698147035555"><ele>260.66666666666663</ele><time>2026-04-18T13:18:10.004Z</time></trkpt><trkpt lat="44.01014819060764" lon="12.297059192383061"><ele>259.3333333333333</ele><time>2026-04-18T13:18:11.004Z</time></trkpt><trkpt lat="44.01021886798637" lon="12.297133782904055"><ele>258.0</ele><time>2026-04-18T13:18:12.004Z</time></trkpt><trkpt lat="44.010285678325474" lon="12.297210506619662"><ele>256.6666666666667</ele><time>2026-04-18T13:18:13.004Z</time></trkpt><trkpt lat="44.01035521417121" lon="12.297289134672802"><ele>255.33333333333334</ele><time>2026-04-18T13:18:14.004Z</time></trkpt><trkpt lat="44.01041717930966" lon="12.297356357660394"><ele>254.0</ele><time>2026-04-18T13:18:15.004Z</time></trkpt><trkpt lat="44.010470626321236" lon="12.297412030026328"><ele>254.0</ele><time>2026-04-18T13:18:16.004Z</time></trkpt><trkpt lat="44.010571992396265" lon="12.297480666239805"><ele>253.99999999999997</ele><time>2026-04-18T13:18:18.004Z</time></trkpt><trkpt lat="44.01068968411692" lon="12.297431959750979"><ele>253.99999999999997</ele><time>2026-04-18T13:18:20.004Z</time></trkpt><trkpt lat="44.01072420241534" lon="12.297344073664112"><ele>254.0</ele><time>2026-04-18T13:18:21.004Z</time></trkpt><trkpt lat="44.01072558300799" lon="12.297238473925727"><ele>254.0</ele><time>2026-04-18T13:18:22.004Z</time></trkpt><trkpt lat="44.01070395143437" lon="12.297125330959659"><ele>252.50000000000003</ele><time>2026-04-18T13:18:23.004Z</time></trkpt><trkpt lat="44.010665643251876" lon="12.297018518397854"><ele>251.0</ele><time>2026-04-18T13:18:24.004Z</time></trkpt><trkpt lat="44.010627389052246" lon="12.296917434455699"><ele>249.5</ele><time>2026-04-18T13:18:25.004Z</time></trkpt><trkpt lat="44.01058373905361" lon="12.296823559676016"><ele>248.0</ele><time>2026-04-18T13:18:26.004Z</time></trkpt><trkpt lat="44.01053532568787" lon="12.296729622806405"><ele>246.50000000000003</ele><time>2026-04-18T13:18:27.004Z</time></trkpt><trkpt lat="44.010495979679234" lon="12.296637110923522"><ele>245.0</ele><time>2026-04-18T13:18:28.004Z</time></trkpt><trkpt lat="44.01045101877022" lon="12.29654467438082"><ele>245.00000000000003</ele><time>2026-04-18T13:18:29.004Z</time></trkpt><trkpt lat="44.01040814494034" lon="12.296443479106648"><ele>245.0</ele><time>2026-04-18T13:18:30.004Z</time></trkpt><trkpt lat="44.01036313224099" lon="12.296332433399458"><ele>245.0</ele><time>2026-04-18T13:18:31.004Z</time></trkpt><trkpt lat="44.01032590186123" lon="12.29622709158347"><ele>245.0</ele><time>2026-04-18T13:18:32.004Z</time></trkpt><trkpt lat="44.01029878179608" lon="12.296117795594764"><ele>245.00000000000003</ele><time>2026-04-18T13:18:33.004Z</time></trkpt><trkpt lat="44.010279281251464" lon="12.296003501960916"><ele>245.0</ele><time>2026-04-18T13:18:34.004Z</time></trkpt><trkpt lat="44.01025892927136" lon="12.295892673310789"><ele>242.8</ele><time>2026-04-18T13:18:35.004Z</time></trkpt><trkpt lat="44.010235806737064" lon="12.29577939993487"><ele>240.6</ele><time>2026-04-18T13:18:36.004Z</time></trkpt><trkpt lat="44.01022017246301" lon="12.295685376219268"><ele>238.39999999999998</ele><time>2026-04-18T13:18:37.004Z</time></trkpt><trkpt lat="44.01025326818767" lon="12.295547700467068"><ele>236.2</ele><time>2026-04-18T13:18:39.004Z</time></trkpt><trkpt lat="44.01035167701021" lon="12.295518108888853"><ele>234.0</ele><time>2026-04-18T13:18:41.004Z</time></trkpt><trkpt lat="44.0104315033393" lon="12.295666579575352"><ele>234.0</ele><time>2026-04-18T13:18:43.003Z</time></trkpt><trkpt lat="44.01046786458614" lon="12.295776299549214"><ele>234.0</ele><time>2026-04-18T13:18:44.004Z</time></trkpt><trkpt lat="44.01050641021423" lon="12.295885456055222"><ele>234.0</ele><time>2026-04-18T13:18:45.004Z</time></trkpt><trkpt lat="44.010552393543726" lon="12.29598931435923"><ele>234.0</ele><time>2026-04-18T13:18:46.004Z</time></trkpt><trkpt lat="44.0106004679486" lon="12.296090039198752"><ele>234.0</ele><time>2026-04-18T13:18:47.004Z</time></trkpt><trkpt lat="44.01066276482572" lon="12.296164959328697"><ele>234.0</ele><time>2026-04-18T13:18:48.004Z</time></trkpt><trkpt lat="44.01074362649433" lon="12.29619515523549"><ele>234.0</ele><time>2026-04-18T13:18:49.003Z</time></trkpt><trkpt lat="44.01081419635479" lon="12.296178410061216"><ele>234.0</ele><time>2026-04-18T13:18:50.004Z</time></trkpt><trkpt lat="44.01083852073555" lon="12.296097382497788"><ele>234.0</ele><time>2026-04-18T13:18:51.004Z</time></trkpt><trkpt lat="44.01083674315536" lon="12.295926103483172"><ele>234.0</ele><time>2026-04-18T13:18:53.003Z</time></trkpt><trkpt lat="44.0107946545733" lon="12.295813101341519"><ele>234.0</ele><time>2026-04-18T13:18:54.003Z</time></trkpt><trkpt lat="44.0107549344799" lon="12.295714839822994"><ele>234.0</ele><time>2026-04-18T13:18:55.003Z</time></trkpt><trkpt lat="44.01071475159016" lon="12.295599385105058"><ele>230.6</ele><time>2026-04-18T13:18:56.003Z</time></trkpt><trkpt lat="44.01067599127593" lon="12.29548385322937"><ele>227.2</ele><time>2026-04-18T13:18:57.003Z</time></trkpt><trkpt lat="44.010627822729695" lon="12.295360985714119"><ele>223.79999999999998</ele><time>2026-04-18T13:18:58.003Z</time></trkpt><trkpt lat="44.0105811414303" lon="12.295256765899403"><ele>220.39999999999998</ele><time>2026-04-18T13:18:59.003Z</time></trkpt><trkpt lat="44.01053544732761" lon="12.29515722002689"><ele>217.0</ele><time>2026-04-18T13:19:00.003Z</time></trkpt><trkpt lat="44.01048472933106" lon="12.29505844556072"><ele>216.99999999999997</ele><time>2026-04-18T13:19:01.003Z</time></trkpt><trkpt lat="44.010445396656024" lon="12.294983670264838"><ele>217.0</ele><time>2026-04-18T13:19:02.003Z</time></trkpt><trkpt lat="44.01042235229576" lon="12.29485616814253"><ele>217.0</ele><time>2026-04-18T13:19:04.003Z</time></trkpt><trkpt lat="44.01052151885163" lon="12.294806076298274"><ele>217.0</ele><time>2026-04-18T13:19:06.003Z</time></trkpt><trkpt lat="44.01057712934349" lon="12.294861536919207"><ele>216.99999999999997</ele><time>2026-04-18T13:19:07.003Z</time></trkpt><trkpt lat="44.01061064688273" lon="12.294959507332091"><ele>217.0</ele><time>2026-04-18T13:19:08.003Z</time></trkpt><trkpt lat="44.010641356995734" lon="12.29507124206468"><ele>216.99999999999997</ele><time>2026-04-18T13:19:09.003Z</time></trkpt><trkpt lat="44.010678354903945" lon="12.295182851028397"><ele>217.0</ele><time>2026-04-18T13:19:10.003Z</time></trkpt><trkpt lat="44.01071582823349" lon="12.295282004907527"><ele>217.0</ele><time>2026-04-18T13:19:11.003Z</time></trkpt><trkpt lat="44.01075224621169" lon="12.295372085871188"><ele>217.0</ele><time>2026-04-18T13:19:12.003Z</time></trkpt><trkpt lat="44.01078882321069" lon="12.295451243624932"><ele>216.99999999999997</ele><time>2026-04-18T13:19:13.003Z</time></trkpt><trkpt lat="44.01089122676127" lon="12.295520954208644"><ele>217.0</ele><time>2026-04-18T13:19:15.003Z</time></trkpt><trkpt lat="44.01096014853694" lon="12.295383553481475"><ele>216.2</ele><time>2026-04-18T13:19:17.003Z</time></trkpt><trkpt lat="44.01095157287495" lon="12.295290209368156"><ele>215.39999999999998</ele><time>2026-04-18T13:19:18.003Z</time></trkpt><trkpt lat="44.01093386383663" lon="12.295177058359323"><ele>214.60000000000002</ele><time>2026-04-18T13:19:19.003Z</time></trkpt><trkpt lat="44.01091359198057" lon="12.295047560401535"><ele>213.8</ele><time>2026-04-18T13:19:20.003Z</time></trkpt><trkpt lat="44.010887145185265" lon="12.294905872720133"><ele>213.0</ele><time>2026-04-18T13:19:21.003Z</time></trkpt><trkpt lat="44.01085789838673" lon="12.294766144558462"><ele>211.4</ele><time>2026-04-18T13:19:22.003Z</time></trkpt><trkpt lat="44.01083209110948" lon="12.29462490377618"><ele>209.8</ele><time>2026-04-18T13:19:23.003Z</time></trkpt><trkpt lat="44.0108186417916" lon="12.294492732311893"><ele>208.2</ele><time>2026-04-18T13:19:24.003Z</time></trkpt><trkpt lat="44.01080665090068" lon="12.294359474526248"><ele>206.6</ele><time>2026-04-18T13:19:25.003Z</time></trkpt><trkpt lat="44.010812100526245" lon="12.294226855656007"><ele>205.0</ele><time>2026-04-18T13:19:26.003Z</time></trkpt><trkpt lat="44.010842465431416" lon="12.294111063503196"><ele>204.99999999999997</ele><time>2026-04-18T13:19:27.003Z</time></trkpt><trkpt lat="44.010906451836455" lon="12.29402250463183"><ele>205.0</ele><time>2026-04-18T13:19:28.003Z</time></trkpt><trkpt lat="44.01098895440148" lon="12.293971286779968"><ele>205.0</ele><time>2026-04-18T13:19:29.003Z</time></trkpt><trkpt lat="44.011078440990595" lon="12.293951028982857"><ele>205.0</ele><time>2026-04-18T13:19:30.003Z</time></trkpt><trkpt lat="44.01115450866576" lon="12.293974083342585"><ele>204.99999999999997</ele><time>2026-04-18T13:19:31.003Z</time></trkpt><trkpt lat="44.011222131997805" lon="12.294028899316176"><ele>205.0</ele><time>2026-04-18T13:19:32.003Z</time></trkpt><trkpt lat="44.01127292337804" lon="12.294103551759623"><ele>204.99999999999997</ele><time>2026-04-18T13:19:33.003Z</time></trkpt><trkpt lat="44.01132652521953" lon="12.29416502858034"><ele>205.0</ele><time>2026-04-18T13:19:34.003Z</time></trkpt><trkpt lat="44.011439569252104" lon="12.294173362782766"><ele>205.0</ele><time>2026-04-18T13:19:36.003Z</time></trkpt><trkpt lat="44.011482707911625" lon="12.294105864497684"><ele>205.0</ele><time>2026-04-18T13:19:37.003Z</time></trkpt><trkpt lat="44.01148449435954" lon="12.293991509829107"><ele>204.99999999999997</ele><time>2026-04-18T13:19:38.003Z</time></trkpt><trkpt lat="44.01144111685738" lon="12.293897053381672"><ele>205.0</ele><time>2026-04-18T13:19:39.003Z</time></trkpt><trkpt lat="44.011367504098786" lon="12.293824195840248"><ele>202.0</ele><time>2026-04-18T13:19:40.003Z</time></trkpt><trkpt lat="44.01128952373439" lon="12.293753703341002"><ele>199.0</ele><time>2026-04-18T13:19:41.003Z</time></trkpt><trkpt lat="44.011215056031006" lon="12.293682900435009"><ele>196.0</ele><time>2026-04-18T13:19:42.003Z</time></trkpt><trkpt lat="44.0111516324877" lon="12.29362243883691"><ele>193.0</ele><time>2026-04-18T13:19:43.003Z</time></trkpt><trkpt lat="44.01107306365477" lon="12.29351061797737"><ele>190.0</ele><time>2026-04-18T13:19:45.003Z</time></trkpt><trkpt lat="44.01111789055331" lon="12.293399851764597"><ele>190.0</ele><time>2026-04-18T13:19:47.003Z</time></trkpt><trkpt lat="44.01118096288678" lon="12.293398786603726"><ele>190.0</ele><time>2026-04-18T13:19:48.003Z</time></trkpt><trkpt lat="44.01126131419002" lon="12.293457076837283"><ele>190.0</ele><time>2026-04-18T13:19:49.003Z</time></trkpt><trkpt lat="44.011332463310296" lon="12.293514292963794"><ele>190.0</ele><time>2026-04-18T13:19:50.003Z</time></trkpt><trkpt lat="44.01141274757102" lon="12.293566678045739"><ele>190.0</ele><time>2026-04-18T13:19:51.003Z</time></trkpt><trkpt lat="44.011492182042815" lon="12.293616074774793"><ele>190.0</ele><time>2026-04-18T13:19:52.003Z</time></trkpt><trkpt lat="44.0115723547013" lon="12.293670353827022"><ele>190.0</ele><time>2026-04-18T13:19:53.003Z</time></trkpt><trkpt lat="44.01164739811929" lon="12.29372332564561"><ele>190.0</ele><time>2026-04-18T13:19:54.003Z</time></trkpt><trkpt lat="44.01171868556749" lon="12.293780965957467"><ele>190.0</ele><time>2026-04-18T13:19:55.003Z</time></trkpt><trkpt lat="44.01178391978295" lon="12.293850620980024"><ele>190.0</ele><time>2026-04-18T13:19:56.003Z</time></trkpt><trkpt lat="44.011839085250685" lon="12.293927526561626"><ele>190.0</ele><time>2026-04-18T13:19:57.003Z</time></trkpt><trkpt lat="44.011887076951034" lon="12.294007638587608"><ele>190.0</ele><time>2026-04-18T13:19:58.003Z</time></trkpt><trkpt lat="44.01193206717574" lon="12.29407708733773"><ele>190.33333333333334</ele><time>2026-04-18T13:19:59.003Z</time></trkpt><trkpt lat="44.01203769231702" lon="12.294147122853623"><ele>190.66666666666669</ele><time>2026-04-18T13:20:01.003Z</time></trkpt><trkpt lat="44.01208778788104" lon="12.294084447232361"><ele>191.0</ele><time>2026-04-18T13:20:02.003Z</time></trkpt><trkpt lat="44.01209520526416" lon="12.293986716519159"><ele>191.33333333333334</ele><time>2026-04-18T13:20:03.003Z</time></trkpt><trkpt lat="44.012060364135664" lon="12.293889914617928"><ele>191.66666666666666</ele><time>2026-04-18T13:20:04.003Z</time></trkpt><trkpt lat="44.01201546232781" lon="12.293809296101106"><ele>192.0</ele><time>2026-04-18T13:20:05.003Z</time></trkpt><trkpt lat="44.01196058476895" lon="12.293724611543887"><ele>191.6</ele><time>2026-04-18T13:20:06.003Z</time></trkpt><trkpt lat="44.01190479458845" lon="12.29363884590676"><ele>191.2</ele><time>2026-04-18T13:20:07.003Z</time></trkpt><trkpt lat="44.01184512744338" lon="12.293548879693848"><ele>190.8</ele><time>2026-04-18T13:20:08.003Z</time></trkpt><trkpt lat="44.011790842710674" lon="12.293454263461145"><ele>190.4</ele><time>2026-04-18T13:20:09.003Z</time></trkpt><trkpt lat="44.01172065428658" lon="12.293354091469013"><ele>190.0</ele><time>2026-04-18T13:20:10.003Z</time></trkpt><trkpt lat="44.01165540274161" lon="12.293262261795908"><ele>190.0</ele><time>2026-04-18T13:20:11.003Z</time></trkpt><trkpt lat="44.011596401362574" lon="12.293177168728752"><ele>190.0</ele><time>2026-04-18T13:20:12.003Z</time></trkpt><trkpt lat="44.01152503044411" lon="12.293086313576294"><ele>190.0</ele><time>2026-04-18T13:20:13.003Z</time></trkpt><trkpt lat="44.01146888644053" lon="12.293000400067056"><ele>190.0</ele><time>2026-04-18T13:20:14.003Z</time></trkpt><trkpt lat="44.011410074019274" lon="12.292910843249464"><ele>190.0</ele><time>2026-04-18T13:20:15.003Z</time></trkpt><trkpt lat="44.011358621685424" lon="12.292823255495144"><ele>190.0</ele><time>2026-04-18T13:20:16.003Z</time></trkpt><trkpt lat="44.011322450132525" lon="12.292739719405802"><ele>187.16666666666669</ele><time>2026-04-18T13:20:17.003Z</time></trkpt><trkpt lat="44.01129980950476" lon="12.29263946620411"><ele>184.33333333333334</ele><time>2026-04-18T13:20:18.003Z</time></trkpt><trkpt lat="44.01129401131895" lon="12.292530296314077"><ele>181.5</ele><time>2026-04-18T13:20:19.003Z</time></trkpt><trkpt lat="44.01129080990683" lon="12.292413905572731"><ele>178.66666666666666</ele><time>2026-04-18T13:20:20.003Z</time></trkpt><trkpt lat="44.01128808571928" lon="12.292291199255944"><ele>175.83333333333331</ele><time>2026-04-18T13:20:21.003Z</time></trkpt><trkpt lat="44.01128591685505" lon="12.292172622773629"><ele>173.0</ele><time>2026-04-18T13:20:22.003Z</time></trkpt><trkpt lat="44.011280497115095" lon="12.292051537896809"><ele>172.33333333333331</ele><time>2026-04-18T13:20:23.003Z</time></trkpt><trkpt lat="44.01127535462957" lon="12.291932134612155"><ele>171.66666666666666</ele><time>2026-04-18T13:20:24.003Z</time></trkpt><trkpt lat="44.01127035451187" lon="12.291811274442278"><ele>171.0</ele><time>2026-04-18T13:20:25.003Z</time></trkpt><trkpt lat="44.01126720680974" lon="12.29168684046684"><ele>170.33333333333334</ele><time>2026-04-18T13:20:26.003Z</time></trkpt><trkpt lat="44.011272529452036" lon="12.291571147078324"><ele>169.66666666666669</ele><time>2026-04-18T13:20:27.003Z</time></trkpt><trkpt lat="44.011284354922026" lon="12.291459215313854"><ele>169.0</ele><time>2026-04-18T13:20:28.003Z</time></trkpt><trkpt lat="44.01131839314849" lon="12.291355757174648"><ele>169.0</ele><time>2026-04-18T13:20:29.003Z</time></trkpt><trkpt lat="44.01138058716355" lon="12.291270249623238"><ele>169.0</ele><time>2026-04-18T13:20:30.003Z</time></trkpt><trkpt lat="44.01145501084712" lon="12.291185280924973"><ele>169.0</ele><time>2026-04-18T13:20:31.003Z</time></trkpt><trkpt lat="44.01153516827326" lon="12.291116992232412"><ele>169.0</ele><time>2026-04-18T13:20:32.003Z</time></trkpt><trkpt lat="44.011625178441584" lon="12.291069553255625"><ele>169.0</ele><time>2026-04-18T13:20:33.003Z</time></trkpt><trkpt lat="44.011710773060194" lon="12.291033739760833"><ele>169.0</ele><time>2026-04-18T13:20:34.003Z</time></trkpt><trkpt lat="44.01178966509248" lon="12.29101266651364"><ele>169.0</ele><time>2026-04-18T13:20:35.003Z</time></trkpt><trkpt lat="44.01187083584115" lon="12.290985016266283"><ele>169.0</ele><time>2026-04-18T13:20:36.003Z</time></trkpt><trkpt lat="44.011953860626654" lon="12.2909688291964"><ele>169.0</ele><time>2026-04-18T13:20:37.003Z</time></trkpt><trkpt lat="44.012029781496466" lon="12.29097876045092"><ele>169.0</ele><time>2026-04-18T13:20:38.003Z</time></trkpt><trkpt lat="44.0121324523802" lon="12.290999720751032"><ele>169.0</ele><time>2026-04-18T13:20:39.003Z</time></trkpt><trkpt lat="44.01222019030543" lon="12.291055511116015"><ele>169.0</ele><time>2026-04-18T13:20:40.003Z</time></trkpt><trkpt lat="44.012305426590125" lon="12.291136847004339"><ele>169.0</ele><time>2026-04-18T13:20:41.003Z</time></trkpt><trkpt lat="44.01239814058564" lon="12.291231058654507"><ele>169.0</ele><time>2026-04-18T13:20:42.003Z</time></trkpt><trkpt lat="44.01248929580348" lon="12.291335233740057"><ele>169.0</ele><time>2026-04-18T13:20:43.003Z</time></trkpt><trkpt lat="44.01258835026157" lon="12.291441062702386"><ele>167.0</ele><time>2026-04-18T13:20:44.003Z</time></trkpt><trkpt lat="44.012677016631116" lon="12.291549780781432"><ele>165.0</ele><time>2026-04-18T13:20:45.003Z</time></trkpt><trkpt lat="44.01277040958166" lon="12.291656581902835"><ele>163.0</ele><time>2026-04-18T13:20:46.003Z</time></trkpt><trkpt lat="44.012872436952854" lon="12.291770383361147"><ele>161.0</ele><time>2026-04-18T13:20:47.004Z</time></trkpt><trkpt lat="44.012971117757814" lon="12.291875064020074"><ele>161.0</ele><time>2026-04-18T13:20:48.004Z</time></trkpt><trkpt lat="44.013067503772945" lon="12.291976755940796"><ele>161.0</ele><time>2026-04-18T13:20:49.004Z</time></trkpt><trkpt lat="44.01316341227003" lon="12.29208519476279"><ele>161.0</ele><time>2026-04-18T13:20:50.003Z</time></trkpt><trkpt lat="44.01325606469618" lon="12.29219087757734"><ele>161.0</ele><time>2026-04-18T13:20:51.003Z</time></trkpt><trkpt lat="44.013360695548734" lon="12.292286238461685"><ele>160.75</ele><time>2026-04-18T13:20:52.004Z</time></trkpt><trkpt lat="44.01345785600049" lon="12.29237779769082"><ele>160.5</ele><time>2026-04-18T13:20:53.003Z</time></trkpt><trkpt lat="44.01355529215776" lon="12.292467759639958"><ele>160.25</ele><time>2026-04-18T13:20:54.003Z</time></trkpt><trkpt lat="44.013650165833596" lon="12.292559730875443"><ele>160.0</ele><time>2026-04-18T13:20:55.003Z</time></trkpt><trkpt lat="44.013739034564644" lon="12.292650178278368"><ele>160.0</ele><time>2026-04-18T13:20:56.004Z</time></trkpt><trkpt lat="44.01383596742429" lon="12.292743254090611"><ele>160.0</ele><time>2026-04-18T13:20:57.004Z</time></trkpt><trkpt lat="44.01403318352169" lon="12.292849199133272"><ele>160.0</ele><time>2026-04-18T13:20:59.003Z</time></trkpt><trkpt lat="44.01413300819594" lon="12.292872298934721"><ele>160.0</ele><time>2026-04-18T13:21:00.003Z</time></trkpt><trkpt lat="44.01421167435901" lon="12.2928639507743"><ele>161.4</ele><time>2026-04-18T13:21:01.003Z</time></trkpt><trkpt lat="44.01429282886097" lon="12.292843125102644"><ele>162.8</ele><time>2026-04-18T13:21:02.003Z</time></trkpt><trkpt lat="44.014382552045326" lon="12.292801840045904"><ele>164.2</ele><time>2026-04-18T13:21:03.003Z</time></trkpt><trkpt lat="44.01447664177958" lon="12.292744272348852"><ele>165.6</ele><time>2026-04-18T13:21:04.003Z</time></trkpt><trkpt lat="44.014567277003884" lon="12.29269084714399"><ele>167.0</ele><time>2026-04-18T13:21:05.003Z</time></trkpt><trkpt lat="44.014660204305976" lon="12.29263595117709"><ele>167.0</ele><time>2026-04-18T13:21:06.003Z</time></trkpt><trkpt lat="44.01474542319011" lon="12.292577788757105"><ele>167.0</ele><time>2026-04-18T13:21:07.003Z</time></trkpt><trkpt lat="44.01483394739147" lon="12.292513838579167"><ele>167.0</ele><time>2026-04-18T13:21:08.003Z</time></trkpt><trkpt lat="44.01492830971184" lon="12.292442499684723"><ele>167.0</ele><time>2026-04-18T13:21:09.003Z</time></trkpt><trkpt lat="44.01501032240285" lon="12.292365046270122"><ele>167.0</ele><time>2026-04-18T13:21:10.003Z</time></trkpt><trkpt lat="44.01508087810491" lon="12.29228448226577"><ele>168.8</ele><time>2026-04-18T13:21:11.003Z</time></trkpt><trkpt lat="44.01514797219318" lon="12.292194297365684"><ele>170.6</ele><time>2026-04-18T13:21:12.003Z</time></trkpt><trkpt lat="44.01519699985752" lon="12.292081297526574"><ele>172.4</ele><time>2026-04-18T13:21:13.003Z</time></trkpt><trkpt lat="44.01523593728478" lon="12.291959467478426"><ele>174.20000000000002</ele><time>2026-04-18T13:21:14.003Z</time></trkpt><trkpt lat="44.01526756304357" lon="12.29182748046362"><ele>176.0</ele><time>2026-04-18T13:21:15.003Z</time></trkpt><trkpt lat="44.015279402096645" lon="12.291692596268248"><ele>176.0</ele><time>2026-04-18T13:21:16.003Z</time></trkpt><trkpt lat="44.015286388863544" lon="12.29156584964919"><ele>176.0</ele><time>2026-04-18T13:21:17.003Z</time></trkpt><trkpt lat="44.015290917442165" lon="12.291442823485161"><ele>176.0</ele><time>2026-04-18T13:21:18.003Z</time></trkpt><trkpt lat="44.015294600617736" lon="12.29133258154873"><ele>176.0</ele><time>2026-04-18T13:21:19.003Z</time></trkpt><trkpt lat="44.01530225788142" lon="12.291232946387561"><ele>176.0</ele><time>2026-04-18T13:21:20.003Z</time></trkpt><trkpt lat="44.01531026701415" lon="12.29114179373552"><ele>176.0</ele><time>2026-04-18T13:21:21.003Z</time></trkpt><trkpt lat="44.01533379315404" lon="12.291006109272816"><ele>176.0</ele><time>2026-04-18T13:21:23.003Z</time></trkpt><trkpt lat="44.01528146217698" lon="12.290937378973203"><ele>176.0</ele><time>2026-04-18T13:21:27.003Z</time></trkpt><trkpt lat="44.01526287066222" lon="12.291021950128235"><ele>176.0</ele><time>2026-04-18T13:21:31.003Z</time></trkpt><trkpt lat="44.01527817908831" lon="12.291111685806028"><ele>176.0</ele><time>2026-04-18T13:21:57.003Z</time></trkpt><trkpt lat="44.015268386411584" lon="12.29123748464993"><ele>176.0</ele><time>2026-04-18T13:21:59.003Z</time></trkpt><trkpt lat="44.01526022236546" lon="12.291362162232492"><ele>176.0</ele><time>2026-04-18T13:22:01.003Z</time></trkpt><trkpt lat="44.015251879741044" lon="12.291529232813536"><ele>176.0</ele><time>2026-04-18T13:22:03.003Z</time></trkpt><trkpt lat="44.015248386355225" lon="12.291622992816508"><ele>176.0</ele><time>2026-04-18T13:22:04.003Z</time></trkpt><trkpt lat="44.01524533361014" lon="12.291720769952327"><ele>176.0</ele><time>2026-04-18T13:22:05.003Z</time></trkpt><trkpt lat="44.01523105070088" lon="12.291818444843601"><ele>176.0</ele><time>2026-04-18T13:22:06.003Z</time></trkpt><trkpt lat="44.01521443443852" lon="12.29191789783343"><ele>176.0</ele><time>2026-04-18T13:22:07.003Z</time></trkpt><trkpt lat="44.015187230660395" lon="12.292008902086506"><ele>176.0</ele><time>2026-04-18T13:22:08.003Z</time></trkpt><trkpt lat="44.015145211117556" lon="12.292101824747887"><ele>176.0</ele><time>2026-04-18T13:22:09.003Z</time></trkpt><trkpt lat="44.01510158376484" lon="12.29217528025399"><ele>176.0</ele><time>2026-04-18T13:22:10.003Z</time></trkpt><trkpt lat="44.01504474566868" lon="12.292253715143673"><ele>176.0</ele><time>2026-04-18T13:22:11.003Z</time></trkpt><trkpt lat="44.014976026070926" lon="12.292325598581279"><ele>176.0</ele><time>2026-04-18T13:22:12.003Z</time></trkpt><trkpt lat="44.0149033861619" lon="12.292395146530836"><ele>176.0</ele><time>2026-04-18T13:22:13.003Z</time></trkpt><trkpt lat="44.014830406873855" lon="12.292456479717652"><ele>176.0</ele><time>2026-04-18T13:22:14.003Z</time></trkpt><trkpt lat="44.01475376826263" lon="12.292513772729123"><ele>176.0</ele><time>2026-04-18T13:22:15.003Z</time></trkpt><trkpt lat="44.01459486790142" lon="12.292622512429686"><ele>174.5</ele><time>2026-04-18T13:22:17.003Z</time></trkpt><trkpt lat="44.01452360481217" lon="12.292670043130798"><ele>173.0</ele><time>2026-04-18T13:22:18.003Z</time></trkpt><trkpt lat="44.01445951005348" lon="12.29270637153324"><ele>171.5</ele><time>2026-04-18T13:22:19.003Z</time></trkpt><trkpt lat="44.0143973039364" lon="12.29273914700839"><ele>170.0</ele><time>2026-04-18T13:22:20.003Z</time></trkpt><trkpt lat="44.014297989347085" lon="12.292796731739053"><ele>168.5</ele><time>2026-04-18T13:22:22.003Z</time></trkpt><trkpt lat="44.014268067460456" lon="12.292878227605112"><ele>167.0</ele><time>2026-04-18T13:22:24.003Z</time></trkpt><trkpt lat="44.0143355875325" lon="12.292967792558645"><ele>167.0</ele><time>2026-04-18T13:22:26.003Z</time></trkpt><trkpt lat="44.014444096147585" lon="12.292940387711921"><ele>167.0</ele><time>2026-04-18T13:22:28.003Z</time></trkpt><trkpt lat="44.01450769524882" lon="12.292906854841629"><ele>167.0</ele><time>2026-04-18T13:22:29.003Z</time></trkpt><trkpt lat="44.01457691108788" lon="12.292877385569561"><ele>167.0</ele><time>2026-04-18T13:22:30.003Z</time></trkpt><trkpt lat="44.01463936887424" lon="12.292845701021696"><ele>167.0</ele><time>2026-04-18T13:22:31.003Z</time></trkpt><trkpt lat="44.014704365481045" lon="12.29281676437034"><ele>167.0</ele><time>2026-04-18T13:22:32.003Z</time></trkpt><trkpt lat="44.01477214820171" lon="12.292791251510806"><ele>167.0</ele><time>2026-04-18T13:22:33.003Z</time></trkpt><trkpt lat="44.01483978394887" lon="12.29277873116541"><ele>167.0</ele><time>2026-04-18T13:22:34.003Z</time></trkpt><trkpt lat="44.0149044616418" lon="12.292772973065619"><ele>167.0</ele><time>2026-04-18T13:22:35.004Z</time></trkpt><trkpt lat="44.01496955230097" lon="12.292775476970403"><ele>167.0</ele><time>2026-04-18T13:22:36.004Z</time></trkpt><trkpt lat="44.015039582279655" lon="12.292782832781535"><ele>167.0</ele><time>2026-04-18T13:22:37.004Z</time></trkpt><trkpt lat="44.01510577088855" lon="12.29280914385824"><ele>167.0</ele><time>2026-04-18T13:22:38.004Z</time></trkpt><trkpt lat="44.01516612905215" lon="12.29285694240332"><ele>167.0</ele><time>2026-04-18T13:22:39.004Z</time></trkpt><trkpt lat="44.0152205869929" lon="12.292917638203656"><ele>166.5</ele><time>2026-04-18T13:22:40.004Z</time></trkpt><trkpt lat="44.015270046990004" lon="12.292995841035763"><ele>166.0</ele><time>2026-04-18T13:22:41.004Z</time></trkpt><trkpt lat="44.01531987139454" lon="12.2930928593198"><ele>165.5</ele><time>2026-04-18T13:22:42.004Z</time></trkpt><trkpt lat="44.0153616324861" lon="12.293197436533227"><ele>165.0</ele><time>2026-04-18T13:22:43.004Z</time></trkpt><trkpt lat="44.01539310979636" lon="12.293309702176781"><ele>164.5</ele><time>2026-04-18T13:22:44.004Z</time></trkpt><trkpt lat="44.01541789112709" lon="12.29343739883674"><ele>164.0</ele><time>2026-04-18T13:22:45.004Z</time></trkpt><trkpt lat="44.01543248800049" lon="12.293567919723184"><ele>162.0</ele><time>2026-04-18T13:22:46.004Z</time></trkpt><trkpt lat="44.015438718009776" lon="12.293701467894993"><ele>160.0</ele><time>2026-04-18T13:22:47.004Z</time></trkpt><trkpt lat="44.01543921210876" lon="12.293849811290816"><ele>158.0</ele><time>2026-04-18T13:22:48.004Z</time></trkpt><trkpt lat="44.01544498214456" lon="12.294001453313813"><ele>156.0</ele><time>2026-04-18T13:22:49.004Z</time></trkpt><trkpt lat="44.015439079924455" lon="12.294135555392822"><ele>154.0</ele><time>2026-04-18T13:22:50.004Z</time></trkpt><trkpt lat="44.01543514251855" lon="12.294268149826587"><ele>153.2</ele><time>2026-04-18T13:22:51.003Z</time></trkpt><trkpt lat="44.015431901741735" lon="12.294400327380343"><ele>152.4</ele><time>2026-04-18T13:22:52.003Z</time></trkpt><trkpt lat="44.01543790913288" lon="12.294543691049284"><ele>151.6</ele><time>2026-04-18T13:22:53.003Z</time></trkpt><trkpt lat="44.01544223519436" lon="12.294693163444434"><ele>150.8</ele><time>2026-04-18T13:22:54.004Z</time></trkpt><trkpt lat="44.015457169009316" lon="12.294864504607045"><ele>150.0</ele><time>2026-04-18T13:22:55.004Z</time></trkpt><trkpt lat="44.01547170020662" lon="12.29503182593119"><ele>149.25</ele><time>2026-04-18T13:22:56.004Z</time></trkpt><trkpt lat="44.01548787550426" lon="12.295206708813781"><ele>148.5</ele><time>2026-04-18T13:22:57.003Z</time></trkpt><trkpt lat="44.0155089318626" lon="12.295391765711361"><ele>147.75</ele><time>2026-04-18T13:22:58.003Z</time></trkpt><trkpt lat="44.01553393904894" lon="12.29559557125467"><ele>147.0</ele><time>2026-04-18T13:22:59.003Z</time></trkpt><trkpt lat="44.01556284407129" lon="12.29581412388892"><ele>146.5</ele><time>2026-04-18T13:23:00.004Z</time></trkpt><trkpt lat="44.01559060822874" lon="12.296022674763034"><ele>146.0</ele><time>2026-04-18T13:23:01.004Z</time></trkpt><trkpt lat="44.01561345820147" lon="12.296223285514046"><ele>145.5</ele><time>2026-04-18T13:23:02.004Z</time></trkpt><trkpt lat="44.01563022472095" lon="12.296414512590637"><ele>145.0</ele><time>2026-04-18T13:23:03.003Z</time></trkpt><trkpt lat="44.0156360079061" lon="12.296606666800406"><ele>144.75</ele><time>2026-04-18T13:23:04.004Z</time></trkpt><trkpt lat="44.015631485875595" lon="12.296805758385124"><ele>144.5</ele><time>2026-04-18T13:23:05.004Z</time></trkpt><trkpt lat="44.01562038825375" lon="12.296996425841192"><ele>144.25</ele><time>2026-04-18T13:23:06.004Z</time></trkpt><trkpt lat="44.01560516150966" lon="12.297170774599456"><ele>144.0</ele><time>2026-04-18T13:23:07.004Z</time></trkpt><trkpt lat="44.01559629690602" lon="12.297344916005594"><ele>144.0</ele><time>2026-04-18T13:23:08.004Z</time></trkpt><trkpt lat="44.01558522443974" lon="12.297512583215516"><ele>144.0</ele><time>2026-04-18T13:23:09.004Z</time></trkpt><trkpt lat="44.01557426024762" lon="12.297675928823239"><ele>144.0</ele><time>2026-04-18T13:23:10.004Z</time></trkpt><trkpt lat="44.01556109278573" lon="12.29784109525073"><ele>144.0</ele><time>2026-04-18T13:23:11.004Z</time></trkpt><trkpt lat="44.015549527809895" lon="12.298027683798507"><ele>144.0</ele><time>2026-04-18T13:23:12.004Z</time></trkpt><trkpt lat="44.01554074029989" lon="12.29820879422805"><ele>144.0</ele><time>2026-04-18T13:23:13.004Z</time></trkpt><trkpt lat="44.015527862205936" lon="12.29838453635233"><ele>144.0</ele><time>2026-04-18T13:23:14.004Z</time></trkpt><trkpt lat="44.01552538491715" lon="12.298554684368224"><ele>144.0</ele><time>2026-04-18T13:23:15.004Z</time></trkpt><trkpt lat="44.01553155018028" lon="12.298713065349775"><ele>144.0</ele><time>2026-04-18T13:23:16.004Z</time></trkpt><trkpt lat="44.015561180249414" lon="12.298852826794604"><ele>144.0</ele><time>2026-04-18T13:23:17.004Z</time></trkpt><trkpt lat="44.01562792215209" lon="12.299016569155754"><ele>144.0</ele><time>2026-04-18T13:23:18.004Z</time></trkpt><trkpt lat="44.01566263875033" lon="12.299166875384756"><ele>144.0</ele><time>2026-04-18T13:23:20.004Z</time></trkpt><trkpt lat="44.01575955057353" lon="12.299291698491736"><ele>142.75</ele><time>2026-04-18T13:23:21.004Z</time></trkpt><trkpt lat="44.01586654769579" lon="12.299428651424048"><ele>141.5</ele><time>2026-04-18T13:23:22.004Z</time></trkpt><trkpt lat="44.01596170973336" lon="12.299552101910665"><ele>140.25</ele><time>2026-04-18T13:23:23.004Z</time></trkpt><trkpt lat="44.01606802209899" lon="12.29968093817774"><ele>139.0</ele><time>2026-04-18T13:23:24.004Z</time></trkpt><trkpt lat="44.0161844244595" lon="12.299787121242526"><ele>139.0</ele><time>2026-04-18T13:23:25.004Z</time></trkpt><trkpt lat="44.01631384794973" lon="12.299875421035585"><ele>139.0</ele><time>2026-04-18T13:23:26.004Z</time></trkpt><trkpt lat="44.016451168484096" lon="12.299956737175771"><ele>139.0</ele><time>2026-04-18T13:23:27.004Z</time></trkpt><trkpt lat="44.01659531537825" lon="12.300036920229234"><ele>139.0</ele><time>2026-04-18T13:23:28.004Z</time></trkpt><trkpt lat="44.01672925727472" lon="12.300111900502062"><ele>139.0</ele><time>2026-04-18T13:23:29.004Z</time></trkpt><trkpt lat="44.016853785450536" lon="12.300190656069011"><ele>139.0</ele><time>2026-04-18T13:23:30.004Z</time></trkpt><trkpt lat="44.01697467309607" lon="12.300267292483278"><ele>139.0</ele><time>2026-04-18T13:23:31.004Z</time></trkpt><trkpt lat="44.01708948734874" lon="12.300346135280295"><ele>139.0</ele><time>2026-04-18T13:23:32.004Z</time></trkpt><trkpt lat="44.01720145639366" lon="12.300426562281599"><ele>139.0</ele><time>2026-04-18T13:23:33.004Z</time></trkpt><trkpt lat="44.01730593957232" lon="12.300513912092155"><ele>139.0</ele><time>2026-04-18T13:23:34.004Z</time></trkpt><trkpt lat="44.017403622138296" lon="12.300610216457136"><ele>139.0</ele><time>2026-04-18T13:23:35.004Z</time></trkpt><trkpt lat="44.017489012949916" lon="12.300705251683743"><ele>139.0</ele><time>2026-04-18T13:23:36.004Z</time></trkpt><trkpt lat="44.01756561375824" lon="12.300785496612436"><ele>139.0</ele><time>2026-04-18T13:23:37.004Z</time></trkpt><trkpt lat="44.01764145935163" lon="12.300857995295083"><ele>139.2</ele><time>2026-04-18T13:23:38.004Z</time></trkpt><trkpt lat="44.01771797319139" lon="12.300916271860858"><ele>139.4</ele><time>2026-04-18T13:23:39.004Z</time></trkpt><trkpt lat="44.01780388119097" lon="12.30095471359991"><ele>139.6</ele><time>2026-04-18T13:23:40.004Z</time></trkpt><trkpt lat="44.017904247890186" lon="12.300970149610889"><ele>139.8</ele><time>2026-04-18T13:23:41.004Z</time></trkpt><trkpt lat="44.01801066013082" lon="12.30093545193709"><ele>140.0</ele><time>2026-04-18T13:23:42.004Z</time></trkpt><trkpt lat="44.01814035955441" lon="12.30094449688499"><ele>140.0</ele><time>2026-04-18T13:23:43.004Z</time></trkpt><trkpt lat="44.01826737238885" lon="12.300974451899709"><ele>140.0</ele><time>2026-04-18T13:23:44.004Z</time></trkpt><trkpt lat="44.01839137387435" lon="12.301009363900295"><ele>140.0</ele><time>2026-04-18T13:23:45.004Z</time></trkpt><trkpt lat="44.0185101345778" lon="12.30103428403201"><ele>140.0</ele><time>2026-04-18T13:23:46.004Z</time></trkpt><trkpt lat="44.01863553406325" lon="12.30106292514294"><ele>139.75</ele><time>2026-04-18T13:23:47.004Z</time></trkpt><trkpt lat="44.018760395247405" lon="12.301083219207577"><ele>139.5</ele><time>2026-04-18T13:23:48.004Z</time></trkpt><trkpt lat="44.0188796253445" lon="12.301097957203547"><ele>139.25</ele><time>2026-04-18T13:23:49.004Z</time></trkpt><trkpt lat="44.01899942495066" lon="12.301115660984083"><ele>139.0</ele><time>2026-04-18T13:23:50.004Z</time></trkpt><trkpt lat="44.01911865496608" lon="12.301140556563464"><ele>138.0</ele><time>2026-04-18T13:23:51.004Z</time></trkpt><trkpt lat="44.019234049462895" lon="12.301170148254622"><ele>137.0</ele><time>2026-04-18T13:23:52.004Z</time></trkpt><trkpt lat="44.019359180867745" lon="12.301242599175508"><ele>136.0</ele><time>2026-04-18T13:23:53.004Z</time></trkpt><trkpt lat="44.019453145644164" lon="12.301338394278584"><ele>135.0</ele><time>2026-04-18T13:23:54.004Z</time></trkpt><trkpt lat="44.01955616533682" lon="12.30144560644819"><ele>134.0</ele><time>2026-04-18T13:23:55.004Z</time></trkpt><trkpt lat="44.01965978670565" lon="12.30156657939398"><ele>133.0</ele><time>2026-04-18T13:23:56.004Z</time></trkpt><trkpt lat="44.01976328185384" lon="12.301696175406155"><ele>132.0</ele><time>2026-04-18T13:23:57.004Z</time></trkpt><trkpt lat="44.01987869493997" lon="12.301831983286553"><ele>131.0</ele><time>2026-04-18T13:23:58.004Z</time></trkpt><trkpt lat="44.0199984460814" lon="12.301945141932178"><ele>131.0</ele><time>2026-04-18T13:23:59.004Z</time></trkpt><trkpt lat="44.020110655867065" lon="12.302078243214318"><ele>131.0</ele><time>2026-04-18T13:24:00.004Z</time></trkpt><trkpt lat="44.02022814555057" lon="12.302215338395847"><ele>131.0</ele><time>2026-04-18T13:24:01.004Z</time></trkpt><trkpt lat="44.02034396142741" lon="12.302341905904141"><ele>131.0</ele><time>2026-04-18T13:24:02.004Z</time></trkpt><trkpt lat="44.0204629744285" lon="12.302479626418652"><ele>130.0</ele><time>2026-04-18T13:24:03.004Z</time></trkpt><trkpt lat="44.020580065699605" lon="12.302612273174786"><ele>129.0</ele><time>2026-04-18T13:24:04.004Z</time></trkpt><trkpt lat="44.02069236662577" lon="12.302730653071038"><ele>128.0</ele><time>2026-04-18T13:24:05.004Z</time></trkpt><trkpt lat="44.020802394378215" lon="12.302863120643352"><ele>127.0</ele><time>2026-04-18T13:24:06.004Z</time></trkpt><trkpt lat="44.020895345212274" lon="12.302972435149192"><ele>127.0</ele><time>2026-04-18T13:24:07.004Z</time></trkpt><trkpt lat="44.02098756056554" lon="12.303080350843365"><ele>127.0</ele><time>2026-04-18T13:24:08.004Z</time></trkpt><trkpt lat="44.0210772747095" lon="12.303186475992856"><ele>127.0</ele><time>2026-04-18T13:24:09.004Z</time></trkpt><trkpt lat="44.02116048869816" lon="12.303307026469684"><ele>127.0</ele><time>2026-04-18T13:24:10.004Z</time></trkpt><trkpt lat="44.021223388753064" lon="12.303437949634361"><ele>126.75</ele><time>2026-04-18T13:24:11.004Z</time></trkpt><trkpt lat="44.021272691069484" lon="12.303593603714402"><ele>126.5</ele><time>2026-04-18T13:24:12.004Z</time></trkpt><trkpt lat="44.021319812178604" lon="12.30374851524551"><ele>126.25</ele><time>2026-04-18T13:24:13.004Z</time></trkpt><trkpt lat="44.02136957372021" lon="12.303924318591408"><ele>126.0</ele><time>2026-04-18T13:24:14.004Z</time></trkpt><trkpt lat="44.021417856188" lon="12.3040925818929"><ele>126.5</ele><time>2026-04-18T13:24:15.004Z</time></trkpt><trkpt lat="44.021470088007234" lon="12.304276584107603"><ele>127.0</ele><time>2026-04-18T13:24:16.004Z</time></trkpt><trkpt lat="44.02151790641514" lon="12.30445481848843"><ele>127.5</ele><time>2026-04-18T13:24:17.004Z</time></trkpt><trkpt lat="44.02157033332927" lon="12.304631296701887"><ele>128.0</ele><time>2026-04-18T13:24:18.004Z</time></trkpt><trkpt lat="44.021620414677976" lon="12.30480414737977"><ele>127.25</ele><time>2026-04-18T13:24:19.004Z</time></trkpt><trkpt lat="44.02166778032495" lon="12.304988396907948"><ele>126.5</ele><time>2026-04-18T13:24:20.004Z</time></trkpt><trkpt lat="44.02171949477996" lon="12.30514831940361"><ele>125.75</ele><time>2026-04-18T13:24:21.004Z</time></trkpt><trkpt lat="44.02176752511073" lon="12.305307785082121"><ele>125.0</ele><time>2026-04-18T13:24:22.004Z</time></trkpt><trkpt lat="44.02182167232869" lon="12.305449946914626"><ele>125.0</ele><time>2026-04-18T13:24:23.004Z</time></trkpt><trkpt lat="44.021859947209656" lon="12.30560226935596"><ele>125.0</ele><time>2026-04-18T13:24:24.004Z</time></trkpt><trkpt lat="44.02189117316255" lon="12.305758157625592"><ele>125.0</ele><time>2026-04-18T13:24:25.004Z</time></trkpt><trkpt lat="44.021918316786085" lon="12.305920364367585"><ele>125.0</ele><time>2026-04-18T13:24:26.004Z</time></trkpt><trkpt lat="44.02192516062642" lon="12.306081046382024"><ele>125.0</ele><time>2026-04-18T13:24:27.004Z</time></trkpt><trkpt lat="44.02192031355606" lon="12.306254239694136"><ele>125.0</ele><time>2026-04-18T13:24:28.004Z</time></trkpt><trkpt lat="44.02191411035409" lon="12.306435109250481"><ele>125.0</ele><time>2026-04-18T13:24:29.004Z</time></trkpt><trkpt lat="44.02190078965567" lon="12.306601426250825"><ele>125.0</ele><time>2026-04-18T13:24:30.004Z</time></trkpt><trkpt lat="44.02188400926901" lon="12.30677979782486"><ele>125.0</ele><time>2026-04-18T13:24:31.004Z</time></trkpt><trkpt lat="44.021883456912384" lon="12.306945561584444"><ele>125.0</ele><time>2026-04-18T13:24:32.004Z</time></trkpt><trkpt lat="44.02190621949609" lon="12.307107343462741"><ele>125.0</ele><time>2026-04-18T13:24:33.004Z</time></trkpt><trkpt lat="44.021932723201125" lon="12.307278770459055"><ele>125.0</ele><time>2026-04-18T13:24:34.004Z</time></trkpt><trkpt lat="44.021966530660436" lon="12.307454236555163"><ele>124.25</ele><time>2026-04-18T13:24:35.004Z</time></trkpt><trkpt lat="44.02201610982996" lon="12.307647157761078"><ele>123.5</ele><time>2026-04-18T13:24:36.004Z</time></trkpt><trkpt lat="44.02205251425969" lon="12.307847017234161"><ele>122.75</ele><time>2026-04-18T13:24:37.004Z</time></trkpt><trkpt lat="44.02209848563376" lon="12.308032029841865"><ele>122.0</ele><time>2026-04-18T13:24:38.004Z</time></trkpt><trkpt lat="44.02213220849372" lon="12.30821741955337"><ele>122.0</ele><time>2026-04-18T13:24:39.004Z</time></trkpt><trkpt lat="44.022169344837764" lon="12.30838481933529"><ele>121.99999999999999</ele><time>2026-04-18T13:24:40.004Z</time></trkpt><trkpt lat="44.022208853442855" lon="12.30854337643848"><ele>121.99999999999999</ele><time>2026-04-18T13:24:41.004Z</time></trkpt><trkpt lat="44.022243799886" lon="12.308682503569885"><ele>122.0</ele><time>2026-04-18T13:24:42.004Z</time></trkpt><trkpt lat="44.022268946274565" lon="12.308810859008561"><ele>122.0</ele><time>2026-04-18T13:24:43.004Z</time></trkpt><trkpt lat="44.02231391552991" lon="12.308922762885173"><ele>121.5</ele><time>2026-04-18T13:24:44.004Z</time></trkpt><trkpt lat="44.02239036692349" lon="12.30903926862128"><ele>121.0</ele><time>2026-04-18T13:24:45.004Z</time></trkpt><trkpt lat="44.022495690783586" lon="12.309122948476354"><ele>120.5</ele><time>2026-04-18T13:24:46.004Z</time></trkpt><trkpt lat="44.02260805434549" lon="12.309188559236105"><ele>120.0</ele><time>2026-04-18T13:24:47.004Z</time></trkpt><trkpt lat="44.022767387817005" lon="12.309234382589914"><ele>120.0</ele><time>2026-04-18T13:24:48.004Z</time></trkpt><trkpt lat="44.02291671899775" lon="12.309296318580694"><ele>120.0</ele><time>2026-04-18T13:24:49.004Z</time></trkpt><trkpt lat="44.02304994348853" lon="12.30934636410627"><ele>120.0</ele><time>2026-04-18T13:24:50.004Z</time></trkpt><trkpt lat="44.02317721873871" lon="12.309410369879098"><ele>120.0</ele><time>2026-04-18T13:24:51.004Z</time></trkpt><trkpt lat="44.023304117936085" lon="12.3094664354881"><ele>120.75</ele><time>2026-04-18T13:24:52.004Z</time></trkpt><trkpt lat="44.02343550842267" lon="12.309535033153711"><ele>121.5</ele><time>2026-04-18T13:24:53.004Z</time></trkpt><trkpt lat="44.02356188976599" lon="12.3095877581411"><ele>122.25</ele><time>2026-04-18T13:24:54.004Z</time></trkpt><trkpt lat="44.023686998170284" lon="12.309638208411101"><ele>123.0</ele><time>2026-04-18T13:24:55.004Z</time></trkpt><trkpt lat="44.02380660386446" lon="12.309686498754647"><ele>123.0</ele><time>2026-04-18T13:24:56.004Z</time></trkpt><trkpt lat="44.02393514486358" lon="12.309733022067062"><ele>123.0</ele><time>2026-04-18T13:24:57.003Z</time></trkpt><trkpt lat="44.02405824050056" lon="12.309795744498498"><ele>123.0</ele><time>2026-04-18T13:24:58.003Z</time></trkpt><trkpt lat="44.02418093697935" lon="12.309849985138973"><ele>123.0</ele><time>2026-04-18T13:24:59.003Z</time></trkpt><trkpt lat="44.02429991031208" lon="12.309899601838397"><ele>121.75</ele><time>2026-04-18T13:25:00.003Z</time></trkpt><trkpt lat="44.02441394910447" lon="12.30994613550307"><ele>120.5</ele><time>2026-04-18T13:25:01.003Z</time></trkpt><trkpt lat="44.02452557597787" lon="12.309992705811181"><ele>119.25</ele><time>2026-04-18T13:25:02.003Z</time></trkpt><trkpt lat="44.024641221189555" lon="12.310050862377594"><ele>118.0</ele><time>2026-04-18T13:25:03.003Z</time></trkpt><trkpt lat="44.0247632750433" lon="12.310107372277738"><ele>118.0</ele><time>2026-04-18T13:25:04.004Z</time></trkpt><trkpt lat="44.024882125740184" lon="12.31016895649164"><ele>118.0</ele><time>2026-04-18T13:25:05.004Z</time></trkpt><trkpt lat="44.02500123610953" lon="12.31024298579231"><ele>118.0</ele><time>2026-04-18T13:25:06.004Z</time></trkpt><trkpt lat="44.02511130847507" lon="12.310329807595055"><ele>118.0</ele><time>2026-04-18T13:25:07.004Z</time></trkpt><trkpt lat="44.025214200439216" lon="12.310428455001192"><ele>117.75</ele><time>2026-04-18T13:25:08.004Z</time></trkpt><trkpt lat="44.025316706110814" lon="12.310551319018023"><ele>117.5</ele><time>2026-04-18T13:25:09.003Z</time></trkpt><trkpt lat="44.0254258874422" lon="12.310667271079236"><ele>117.25</ele><time>2026-04-18T13:25:10.003Z</time></trkpt><trkpt lat="44.02553739984989" lon="12.310785053431928"><ele>117.0</ele><time>2026-04-18T13:25:11.003Z</time></trkpt><trkpt lat="44.025653862385845" lon="12.31090459904241"><ele>117.0</ele><time>2026-04-18T13:25:12.003Z</time></trkpt><trkpt lat="44.02576249104198" lon="12.311012358057791"><ele>117.0</ele><time>2026-04-18T13:25:13.003Z</time></trkpt><trkpt lat="44.02587255478703" lon="12.31112206634513"><ele>117.0</ele><time>2026-04-18T13:25:14.003Z</time></trkpt><trkpt lat="44.025978307575876" lon="12.31122908188144"><ele>117.0</ele><time>2026-04-18T13:25:15.003Z</time></trkpt><trkpt lat="44.026077141695914" lon="12.311341946813608"><ele>116.0</ele><time>2026-04-18T13:25:16.003Z</time></trkpt><trkpt lat="44.026178416696204" lon="12.311440969030118"><ele>115.0</ele><time>2026-04-18T13:25:17.003Z</time></trkpt><trkpt lat="44.02627160734083" lon="12.311563856710727"><ele>114.0</ele><time>2026-04-18T13:25:18.003Z</time></trkpt><trkpt lat="44.026360917696806" lon="12.3116880630544"><ele>113.0</ele><time>2026-04-18T13:25:19.003Z</time></trkpt><trkpt lat="44.026452789110465" lon="12.311821090660514"><ele>113.0</ele><time>2026-04-18T13:25:20.003Z</time></trkpt><trkpt lat="44.02655743818643" lon="12.311967078594163"><ele>113.0</ele><time>2026-04-18T13:25:21.003Z</time></trkpt><trkpt lat="44.026647286890785" lon="12.312108322335499"><ele>113.0</ele><time>2026-04-18T13:25:22.003Z</time></trkpt><trkpt lat="44.026731541153644" lon="12.312228595205866"><ele>113.0</ele><time>2026-04-18T13:25:23.003Z</time></trkpt><trkpt lat="44.02682224663476" lon="12.312348393344083"><ele>112.75</ele><time>2026-04-18T13:25:24.003Z</time></trkpt><trkpt lat="44.026917391368606" lon="12.312467618980351"><ele>112.5</ele><time>2026-04-18T13:25:25.003Z</time></trkpt><trkpt lat="44.027008353255155" lon="12.312598678184633"><ele>112.25</ele><time>2026-04-18T13:25:26.003Z</time></trkpt><trkpt lat="44.027095406344955" lon="12.312735038104742"><ele>112.0</ele><time>2026-04-18T13:25:27.003Z</time></trkpt><trkpt lat="44.027189905018474" lon="12.312864174753729"><ele>112.0</ele><time>2026-04-18T13:25:28.003Z</time></trkpt><trkpt lat="44.02726708211172" lon="12.312979988140789"><ele>111.99999999999999</ele><time>2026-04-18T13:25:29.003Z</time></trkpt><trkpt lat="44.02733764870849" lon="12.313079801306055"><ele>111.99999999999999</ele><time>2026-04-18T13:25:30.003Z</time></trkpt><trkpt lat="44.02740626756498" lon="12.313175202588207"><ele>112.0</ele><time>2026-04-18T13:25:31.003Z</time></trkpt><trkpt lat="44.027465680026644" lon="12.313276080335607"><ele>112.0</ele><time>2026-04-18T13:25:32.003Z</time></trkpt><trkpt lat="44.02751842774005" lon="12.31338087523092"><ele>111.8</ele><time>2026-04-18T13:25:33.003Z</time></trkpt><trkpt lat="44.02755260713779" lon="12.31350228207547"><ele>111.6</ele><time>2026-04-18T13:25:34.003Z</time></trkpt><trkpt lat="44.027575084445836" lon="12.313652088489869"><ele>111.39999999999999</ele><time>2026-04-18T13:25:35.003Z</time></trkpt><trkpt lat="44.027579801967576" lon="12.313803027067822"><ele>111.19999999999999</ele><time>2026-04-18T13:25:36.003Z</time></trkpt><trkpt lat="44.02758592039781" lon="12.31396365705332"><ele>111.0</ele><time>2026-04-18T13:25:37.003Z</time></trkpt><trkpt lat="44.02757879101947" lon="12.314122236442566"><ele>111.0</ele><time>2026-04-18T13:25:38.003Z</time></trkpt><trkpt lat="44.02755858568187" lon="12.31427395608157"><ele>111.0</ele><time>2026-04-18T13:25:39.003Z</time></trkpt><trkpt lat="44.02752909426829" lon="12.314416078339628"><ele>111.0</ele><time>2026-04-18T13:25:40.003Z</time></trkpt><trkpt lat="44.02749319360058" lon="12.314571506700325"><ele>111.0</ele><time>2026-04-18T13:25:41.003Z</time></trkpt><trkpt lat="44.02744422220321" lon="12.314731393622262"><ele>113.5</ele><time>2026-04-18T13:25:42.003Z</time></trkpt><trkpt lat="44.02741012962445" lon="12.314891984101205"><ele>116.0</ele><time>2026-04-18T13:25:43.003Z</time></trkpt><trkpt lat="44.02736979457347" lon="12.315054671472888"><ele>118.5</ele><time>2026-04-18T13:25:44.003Z</time></trkpt><trkpt lat="44.02733967992975" lon="12.315207635722087"><ele>121.0</ele><time>2026-04-18T13:25:45.003Z</time></trkpt><trkpt lat="44.02734716660566" lon="12.315354815650567"><ele>121.0</ele><time>2026-04-18T13:25:46.003Z</time></trkpt><trkpt lat="44.02737401483328" lon="12.315488938407325"><ele>121.0</ele><time>2026-04-18T13:25:47.003Z</time></trkpt><trkpt lat="44.02741742604605" lon="12.315597599372033"><ele>121.0</ele><time>2026-04-18T13:25:48.003Z</time></trkpt><trkpt lat="44.02748442231229" lon="12.315692725898797"><ele>121.0</ele><time>2026-04-18T13:25:49.003Z</time></trkpt><trkpt lat="44.0275808653162" lon="12.315757797373834"><ele>121.0</ele><time>2026-04-18T13:25:50.003Z</time></trkpt><trkpt lat="44.02770491066677" lon="12.315821949230457"><ele>117.75</ele><time>2026-04-18T13:25:51.003Z</time></trkpt><trkpt lat="44.02781740864751" lon="12.315879746020759"><ele>114.5</ele><time>2026-04-18T13:25:52.003Z</time></trkpt><trkpt lat="44.02794629823629" lon="12.315947228711645"><ele>111.25</ele><time>2026-04-18T13:25:53.003Z</time></trkpt><trkpt lat="44.028062344477135" lon="12.316015320154836"><ele>108.0</ele><time>2026-04-18T13:25:54.003Z</time></trkpt><trkpt lat="44.02818510954604" lon="12.316065236184695"><ele>108.0</ele><time>2026-04-18T13:25:55.003Z</time></trkpt><trkpt lat="44.02830099045039" lon="12.316118742760851"><ele>108.0</ele><time>2026-04-18T13:25:56.003Z</time></trkpt><trkpt lat="44.028406550957236" lon="12.316178153822975"><ele>108.0</ele><time>2026-04-18T13:25:57.003Z</time></trkpt><trkpt lat="44.0285136732372" lon="12.316232812117802"><ele>108.0</ele><time>2026-04-18T13:25:58.003Z</time></trkpt><trkpt lat="44.02862074272031" lon="12.316301309872847"><ele>108.60000000000001</ele><time>2026-04-18T13:25:59.003Z</time></trkpt><trkpt lat="44.02871263972647" lon="12.316373080989878"><ele>109.20000000000002</ele><time>2026-04-18T13:26:00.003Z</time></trkpt><trkpt lat="44.028801560024746" lon="12.316456807941673"><ele>109.8</ele><time>2026-04-18T13:26:01.003Z</time></trkpt><trkpt lat="44.028877274099926" lon="12.316578559108471"><ele>110.4</ele><time>2026-04-18T13:26:02.003Z</time></trkpt><trkpt lat="44.02894234935636" lon="12.316695418526965"><ele>111.0</ele><time>2026-04-18T13:26:03.003Z</time></trkpt><trkpt lat="44.029006763112896" lon="12.316843134293464"><ele>109.5</ele><time>2026-04-18T13:26:04.003Z</time></trkpt><trkpt lat="44.02905876790404" lon="12.317000228119163"><ele>108.0</ele><time>2026-04-18T13:26:05.003Z</time></trkpt><trkpt lat="44.02910943572174" lon="12.31714890332784"><ele>106.5</ele><time>2026-04-18T13:26:06.003Z</time></trkpt><trkpt lat="44.029152651333305" lon="12.31731231678194"><ele>105.0</ele><time>2026-04-18T13:26:07.003Z</time></trkpt><trkpt lat="44.02919554332906" lon="12.317473067667057"><ele>105.0</ele><time>2026-04-18T13:26:08.003Z</time></trkpt><trkpt lat="44.029234144698826" lon="12.317627503162313"><ele>105.0</ele><time>2026-04-18T13:26:09.003Z</time></trkpt><trkpt lat="44.029288766733096" lon="12.31779209157459"><ele>105.0</ele><time>2026-04-18T13:26:10.003Z</time></trkpt><trkpt lat="44.02936649023122" lon="12.317962767291805"><ele>105.0</ele><time>2026-04-18T13:26:11.003Z</time></trkpt><trkpt lat="44.02945669133064" lon="12.318113818728351"><ele>104.0</ele><time>2026-04-18T13:26:12.003Z</time></trkpt><trkpt lat="44.02954776506178" lon="12.318239353810307"><ele>103.0</ele><time>2026-04-18T13:26:13.003Z</time></trkpt><trkpt lat="44.029635641014735" lon="12.318351581958566"><ele>102.0</ele><time>2026-04-18T13:26:14.003Z</time></trkpt><trkpt lat="44.02971767423541" lon="12.318469105090596"><ele>101.0</ele><time>2026-04-18T13:26:15.003Z</time></trkpt><trkpt lat="44.02978966430292" lon="12.318598543026651"><ele>101.0</ele><time>2026-04-18T13:26:16.003Z</time></trkpt><trkpt lat="44.02985474684346" lon="12.318737100475463"><ele>101.0</ele><time>2026-04-18T13:26:17.003Z</time></trkpt><trkpt lat="44.02991944995439" lon="12.318896205601028"><ele>101.0</ele><time>2026-04-18T13:26:18.003Z</time></trkpt><trkpt lat="44.02998895357932" lon="12.3190703621578"><ele>101.0</ele><time>2026-04-18T13:26:19.003Z</time></trkpt><trkpt lat="44.030057825022716" lon="12.319240381136485"><ele>103.0</ele><time>2026-04-18T13:26:20.003Z</time></trkpt><trkpt lat="44.03012536055617" lon="12.319413161133818"><ele>105.0</ele><time>2026-04-18T13:26:21.003Z</time></trkpt><trkpt lat="44.030195113483934" lon="12.319573572608272"><ele>107.0</ele><time>2026-04-18T13:26:22.003Z</time></trkpt><trkpt lat="44.03025938804215" lon="12.319730721508623"><ele>109.0</ele><time>2026-04-18T13:26:23.003Z</time></trkpt><trkpt lat="44.03032849172637" lon="12.319894874892583"><ele>109.0</ele><time>2026-04-18T13:26:24.003Z</time></trkpt><trkpt lat="44.03040559216024" lon="12.320059326903895"><ele>109.0</ele><time>2026-04-18T13:26:25.003Z</time></trkpt><trkpt lat="44.030483527943886" lon="12.320222096841688"><ele>109.0</ele><time>2026-04-18T13:26:26.003Z</time></trkpt><trkpt lat="44.03056767117157" lon="12.320367057203125"><ele>109.0</ele><time>2026-04-18T13:26:27.003Z</time></trkpt><trkpt lat="44.03064875397855" lon="12.320516875552215"><ele>108.25</ele><time>2026-04-18T13:26:28.003Z</time></trkpt><trkpt lat="44.030738070998396" lon="12.320660075000111"><ele>107.5</ele><time>2026-04-18T13:26:29.003Z</time></trkpt><trkpt lat="44.03081850183812" lon="12.320806259590093"><ele>106.75</ele><time>2026-04-18T13:26:30.003Z</time></trkpt><trkpt lat="44.030882373942745" lon="12.320939075149957"><ele>106.0</ele><time>2026-04-18T13:26:31.003Z</time></trkpt><trkpt lat="44.03093958923123" lon="12.321065073151956"><ele>107.8</ele><time>2026-04-18T13:26:32.003Z</time></trkpt><trkpt lat="44.03100327608018" lon="12.321189139907114"><ele>109.6</ele><time>2026-04-18T13:26:33.003Z</time></trkpt><trkpt lat="44.031076006041786" lon="12.321298986591348"><ele>111.4</ele><time>2026-04-18T13:26:34.003Z</time></trkpt><trkpt lat="44.03116255581744" lon="12.321387529523488"><ele>113.2</ele><time>2026-04-18T13:26:35.003Z</time></trkpt><trkpt lat="44.03125237380351" lon="12.321465776438044"><ele>115.0</ele><time>2026-04-18T13:26:36.003Z</time></trkpt><trkpt lat="44.03134962996808" lon="12.321532852116919"><ele>115.0</ele><time>2026-04-18T13:26:37.003Z</time></trkpt><trkpt lat="44.03144957827987" lon="12.32157553826232"><ele>115.0</ele><time>2026-04-18T13:26:38.003Z</time></trkpt><trkpt lat="44.031544529035806" lon="12.32160911152462"><ele>115.0</ele><time>2026-04-18T13:26:39.003Z</time></trkpt><trkpt lat="44.03164020043075" lon="12.321656035471397"><ele>115.0</ele><time>2026-04-18T13:26:40.003Z</time></trkpt><trkpt lat="44.03172867353188" lon="12.321720369027815"><ele>115.0</ele><time>2026-04-18T13:26:41.003Z</time></trkpt><trkpt lat="44.03181449945905" lon="12.321806167273872"><ele>116.0</ele><time>2026-04-18T13:26:42.003Z</time></trkpt><trkpt lat="44.03188649248667" lon="12.321903598087948"><ele>117.0</ele><time>2026-04-18T13:26:43.003Z</time></trkpt><trkpt lat="44.03196236200012" lon="12.322013156484651"><ele>118.0</ele><time>2026-04-18T13:26:44.003Z</time></trkpt><trkpt lat="44.032027287362006" lon="12.322125358520479"><ele>119.0</ele><time>2026-04-18T13:26:45.003Z</time></trkpt><trkpt lat="44.03208400266903" lon="12.322228420741668"><ele>120.0</ele><time>2026-04-18T13:26:46.003Z</time></trkpt><trkpt lat="44.03212692502897" lon="12.32231955207261"><ele>120.0</ele><time>2026-04-18T13:26:47.003Z</time></trkpt><trkpt lat="44.03217182300531" lon="12.322417036672446"><ele>120.0</ele><time>2026-04-18T13:26:48.003Z</time></trkpt><trkpt lat="44.032227679132156" lon="12.322515701840125"><ele>120.0</ele><time>2026-04-18T13:26:49.003Z</time></trkpt><trkpt lat="44.03229145285374" lon="12.3226092393723"><ele>120.0</ele><time>2026-04-18T13:26:50.003Z</time></trkpt><trkpt lat="44.032361275919236" lon="12.322694754636267"><ele>120.0</ele><time>2026-04-18T13:26:51.003Z</time></trkpt><trkpt lat="44.03244694622029" lon="12.32279352183225"><ele>119.0</ele><time>2026-04-18T13:26:52.003Z</time></trkpt><trkpt lat="44.03254126928967" lon="12.322893317045123"><ele>118.0</ele><time>2026-04-18T13:26:53.003Z</time></trkpt><trkpt lat="44.03263969641777" lon="12.32298448578709"><ele>117.0</ele><time>2026-04-18T13:26:54.003Z</time></trkpt><trkpt lat="44.03273657472349" lon="12.323070227613687"><ele>116.0</ele><time>2026-04-18T13:26:55.003Z</time></trkpt><trkpt lat="44.03283226487166" lon="12.323153796436504"><ele>116.0</ele><time>2026-04-18T13:26:56.003Z</time></trkpt><trkpt lat="44.032928612125616" lon="12.32323430340436"><ele>116.0</ele><time>2026-04-18T13:26:57.003Z</time></trkpt><trkpt lat="44.033020165527994" lon="12.32331704528902"><ele>116.0</ele><time>2026-04-18T13:26:58.003Z</time></trkpt><trkpt lat="44.033112876489426" lon="12.323397483860825"><ele>116.0</ele><time>2026-04-18T13:26:59.003Z</time></trkpt><trkpt lat="44.03320633715134" lon="12.32348204864285"><ele>116.0</ele><time>2026-04-18T13:27:00.003Z</time></trkpt><trkpt lat="44.03329265086096" lon="12.323571821089734"><ele>115.8</ele><time>2026-04-18T13:27:01.003Z</time></trkpt><trkpt lat="44.033370535400245" lon="12.323672495584647"><ele>115.6</ele><time>2026-04-18T13:27:02.003Z</time></trkpt><trkpt lat="44.03343589881158" lon="12.323781820198352"><ele>115.4</ele><time>2026-04-18T13:27:03.003Z</time></trkpt><trkpt lat="44.03348850304526" lon="12.323913477958099"><ele>115.2</ele><time>2026-04-18T13:27:04.003Z</time></trkpt><trkpt lat="44.033521747999444" lon="12.32406208876542"><ele>115.0</ele><time>2026-04-18T13:27:05.003Z</time></trkpt><trkpt lat="44.03353649990738" lon="12.324226048445393"><ele>115.0</ele><time>2026-04-18T13:27:06.004Z</time></trkpt><trkpt lat="44.033530791950206" lon="12.324407998237056"><ele>115.0</ele><time>2026-04-18T13:27:07.003Z</time></trkpt><trkpt lat="44.03350535046402" lon="12.324601689884807"><ele>115.0</ele><time>2026-04-18T13:27:08.003Z</time></trkpt><trkpt lat="44.03347606102884" lon="12.32479249699008"><ele>115.0</ele><time>2026-04-18T13:27:09.003Z</time></trkpt><trkpt lat="44.033451245367" lon="12.32498124872783"><ele>113.5</ele><time>2026-04-18T13:27:10.004Z</time></trkpt><trkpt lat="44.03342952531312" lon="12.325162721396746"><ele>112.0</ele><time>2026-04-18T13:27:11.004Z</time></trkpt><trkpt lat="44.033417023323516" lon="12.325335512734307"><ele>110.5</ele><time>2026-04-18T13:27:12.003Z</time></trkpt><trkpt lat="44.03342036866335" lon="12.325513971667915"><ele>109.0</ele><time>2026-04-18T13:27:13.003Z</time></trkpt><trkpt lat="44.03344831541828" lon="12.325692074840653"><ele>107.66666666666667</ele><time>2026-04-18T13:27:14.003Z</time></trkpt><trkpt lat="44.03348791510307" lon="12.325890529356244"><ele>106.33333333333334</ele><time>2026-04-18T13:27:15.003Z</time></trkpt><trkpt lat="44.03353515111069" lon="12.32608908195636"><ele>105.0</ele><time>2026-04-18T13:27:16.003Z</time></trkpt><trkpt lat="44.03358713478561" lon="12.326291069322316"><ele>104.66666666666666</ele><time>2026-04-18T13:27:17.003Z</time></trkpt><trkpt lat="44.0336404956487" lon="12.32649785372613"><ele>104.33333333333333</ele><time>2026-04-18T13:27:18.003Z</time></trkpt><trkpt lat="44.03369497755655" lon="12.326697921999845"><ele>104.0</ele><time>2026-04-18T13:27:19.003Z</time></trkpt><trkpt lat="44.03374947614854" lon="12.32688859745475"><ele>104.0</ele><time>2026-04-18T13:27:20.003Z</time></trkpt><trkpt lat="44.03379613063476" lon="12.327073205986249"><ele>104.0</ele><time>2026-04-18T13:27:21.003Z</time></trkpt><trkpt lat="44.03384206628139" lon="12.327240627787887"><ele>104.0</ele><time>2026-04-18T13:27:22.003Z</time></trkpt><trkpt lat="44.0338962947672" lon="12.327425949461084"><ele>104.0</ele><time>2026-04-18T13:27:23.003Z</time></trkpt><trkpt lat="44.03394054978033" lon="12.327593264937358"><ele>102.75</ele><time>2026-04-18T13:27:24.003Z</time></trkpt><trkpt lat="44.033978751326075" lon="12.327762757249145"><ele>101.5</ele><time>2026-04-18T13:27:25.003Z</time></trkpt><trkpt lat="44.03401605251599" lon="12.327956135150988"><ele>100.25</ele><time>2026-04-18T13:27:26.003Z</time></trkpt><trkpt lat="44.03405949039754" lon="12.328154827820681"><ele>99.0</ele><time>2026-04-18T13:27:27.003Z</time></trkpt><trkpt lat="44.03410319192848" lon="12.328348120119191"><ele>98.33333333333334</ele><time>2026-04-18T13:27:28.003Z</time></trkpt><trkpt lat="44.03414283949826" lon="12.328543686155202"><ele>97.66666666666667</ele><time>2026-04-18T13:27:29.003Z</time></trkpt><trkpt lat="44.03419040042602" lon="12.328769844877964"><ele>97.0</ele><time>2026-04-18T13:27:30.003Z</time></trkpt><trkpt lat="44.03424445591767" lon="12.329023096614431"><ele>93.66666666666667</ele><time>2026-04-18T13:27:31.003Z</time></trkpt><trkpt lat="44.034301272582695" lon="12.329281747243014"><ele>90.33333333333334</ele><time>2026-04-18T13:27:32.003Z</time></trkpt><trkpt lat="44.0343346947473" lon="12.32951123882478"><ele>87.0</ele><time>2026-04-18T13:27:33.003Z</time></trkpt><trkpt lat="44.03436787787293" lon="12.329740441410795"><ele>86.33333333333333</ele><time>2026-04-18T13:27:34.003Z</time></trkpt><trkpt lat="44.03440651907366" lon="12.329954213467312"><ele>85.66666666666666</ele><time>2026-04-18T13:27:35.003Z</time></trkpt><trkpt lat="44.034435253838865" lon="12.330162700207671"><ele>85.0</ele><time>2026-04-18T13:27:36.003Z</time></trkpt><trkpt lat="44.03447112245282" lon="12.330378723339877"><ele>84.66666666666666</ele><time>2026-04-18T13:27:37.003Z</time></trkpt><trkpt lat="44.03450611888634" lon="12.330586069541448"><ele>84.33333333333333</ele><time>2026-04-18T13:27:38.003Z</time></trkpt><trkpt lat="44.034544925053666" lon="12.330799317333437"><ele>84.0</ele><time>2026-04-18T13:27:39.003Z</time></trkpt><trkpt lat="44.034586499743206" lon="12.331015561325797"><ele>84.0</ele><time>2026-04-18T13:27:40.003Z</time></trkpt><trkpt lat="44.0346264185865" lon="12.331229233912554"><ele>84.0</ele><time>2026-04-18T13:27:41.003Z</time></trkpt><trkpt lat="44.034675107807445" lon="12.331430619599683"><ele>84.0</ele><time>2026-04-18T13:27:42.003Z</time></trkpt><trkpt lat="44.03470635412268" lon="12.331629460344656"><ele>85.75</ele><time>2026-04-18T13:27:43.003Z</time></trkpt><trkpt lat="44.03474033887174" lon="12.331821440141544"><ele>87.5</ele><time>2026-04-18T13:27:44.003Z</time></trkpt><trkpt lat="44.03478178152476" lon="12.332026753487916"><ele>89.25</ele><time>2026-04-18T13:27:45.003Z</time></trkpt><trkpt lat="44.03482145436623" lon="12.332231168262298"><ele>91.0</ele><time>2026-04-18T13:27:46.003Z</time></trkpt><trkpt lat="44.03486068595004" lon="12.332424410996422"><ele>90.75</ele><time>2026-04-18T13:27:47.003Z</time></trkpt><trkpt lat="44.034906802691104" lon="12.332611812004252"><ele>90.5</ele><time>2026-04-18T13:27:48.003Z</time></trkpt><trkpt lat="44.03496137363299" lon="12.332796020149708"><ele>90.25</ele><time>2026-04-18T13:27:49.003Z</time></trkpt><trkpt lat="44.03503093339323" lon="12.3329759319022"><ele>90.0</ele><time>2026-04-18T13:27:50.003Z</time></trkpt><trkpt lat="44.035117633099354" lon="12.333153216102069"><ele>90.0</ele><time>2026-04-18T13:27:51.003Z</time></trkpt><trkpt lat="44.03522507559064" lon="12.33332699861253"><ele>90.0</ele><time>2026-04-18T13:27:52.003Z</time></trkpt><trkpt lat="44.03533585189257" lon="12.333497651799384"><ele>90.0</ele><time>2026-04-18T13:27:53.003Z</time></trkpt><trkpt lat="44.03544738710279" lon="12.333670539239696"><ele>90.0</ele><time>2026-04-18T13:27:54.003Z</time></trkpt><trkpt lat="44.035555455857484" lon="12.333839246087495"><ele>90.0</ele><time>2026-04-18T13:27:55.003Z</time></trkpt><trkpt lat="44.03566184840199" lon="12.334007450658483"><ele>90.0</ele><time>2026-04-18T13:27:56.003Z</time></trkpt><trkpt lat="44.0357628510027" lon="12.334169339829865"><ele>89.0</ele><time>2026-04-18T13:27:57.003Z</time></trkpt><trkpt lat="44.03586192022447" lon="12.334314776624078"><ele>88.0</ele><time>2026-04-18T13:27:58.003Z</time></trkpt><trkpt lat="44.03595654760625" lon="12.334463287956556"><ele>87.0</ele><time>2026-04-18T13:27:59.003Z</time></trkpt><trkpt lat="44.036053247716204" lon="12.334606270087908"><ele>86.0</ele><time>2026-04-18T13:28:00.003Z</time></trkpt><trkpt lat="44.03614887740922" lon="12.334749997654612"><ele>88.0</ele><time>2026-04-18T13:28:01.003Z</time></trkpt><trkpt lat="44.03624172197151" lon="12.334888550361166"><ele>90.0</ele><time>2026-04-18T13:28:02.003Z</time></trkpt><trkpt lat="44.036338049951645" lon="12.335036163798385"><ele>92.0</ele><time>2026-04-18T13:28:03.003Z</time></trkpt><trkpt lat="44.03642893984613" lon="12.335182780265674"><ele>94.0</ele><time>2026-04-18T13:28:04.003Z</time></trkpt><trkpt lat="44.03651887093877" lon="12.335344922469812"><ele>94.0</ele><time>2026-04-18T13:28:05.003Z</time></trkpt><trkpt lat="44.03660375583" lon="12.335508615581496"><ele>94.0</ele><time>2026-04-18T13:28:06.003Z</time></trkpt><trkpt lat="44.03668643304369" lon="12.335665911350974"><ele>94.0</ele><time>2026-04-18T13:28:07.003Z</time></trkpt><trkpt lat="44.0367711394343" lon="12.33582032534876"><ele>94.0</ele><time>2026-04-18T13:28:08.003Z</time></trkpt><trkpt lat="44.036847008609435" lon="12.335973246947475"><ele>94.75</ele><time>2026-04-18T13:28:09.003Z</time></trkpt><trkpt lat="44.03691804854747" lon="12.33611776587576"><ele>95.5</ele><time>2026-04-18T13:28:10.003Z</time></trkpt><trkpt lat="44.03699486650544" lon="12.33627952977786"><ele>96.25</ele><time>2026-04-18T13:28:11.003Z</time></trkpt><trkpt lat="44.03707908505912" lon="12.336451548258994"><ele>97.0</ele><time>2026-04-18T13:28:12.003Z</time></trkpt><trkpt lat="44.037155501869655" lon="12.336624056292221"><ele>97.0</ele><time>2026-04-18T13:28:13.003Z</time></trkpt><trkpt lat="44.03725191360896" lon="12.336801996529864"><ele>97.0</ele><time>2026-04-18T13:28:14.003Z</time></trkpt><trkpt lat="44.03734610082465" lon="12.33698443085419"><ele>97.0</ele><time>2026-04-18T13:28:15.003Z</time></trkpt><trkpt lat="44.03743707509392" lon="12.337162451842135"><ele>96.25</ele><time>2026-04-18T13:28:16.003Z</time></trkpt><trkpt lat="44.03752670399046" lon="12.33734031233372"><ele>95.5</ele><time>2026-04-18T13:28:17.003Z</time></trkpt><trkpt lat="44.03761268351817" lon="12.337506656165418"><ele>94.75</ele><time>2026-04-18T13:28:18.003Z</time></trkpt><trkpt lat="44.03769842283793" lon="12.337666820072378"><ele>94.0</ele><time>2026-04-18T13:28:19.003Z</time></trkpt><trkpt lat="44.037781306887545" lon="12.337822155038454"><ele>94.0</ele><time>2026-04-18T13:28:20.003Z</time></trkpt><trkpt lat="44.037866104163356" lon="12.337981883905474"><ele>94.0</ele><time>2026-04-18T13:28:21.003Z</time></trkpt><trkpt lat="44.03794949209501" lon="12.338143387130666"><ele>94.0</ele><time>2026-04-18T13:28:22.003Z</time></trkpt><trkpt lat="44.038041027296906" lon="12.338313483215023"><ele>94.0</ele><time>2026-04-18T13:28:23.003Z</time></trkpt><trkpt lat="44.03812811483293" lon="12.338484002334264"><ele>94.5</ele><time>2026-04-18T13:28:24.003Z</time></trkpt><trkpt lat="44.038212154151125" lon="12.33865777645535"><ele>95.0</ele><time>2026-04-18T13:28:25.003Z</time></trkpt><trkpt lat="44.038296315792806" lon="12.338824766316653"><ele>95.5</ele><time>2026-04-18T13:28:26.003Z</time></trkpt><trkpt lat="44.03838328147752" lon="12.338990850449218"><ele>96.0</ele><time>2026-04-18T13:28:27.003Z</time></trkpt><trkpt lat="44.03846071026435" lon="12.339153694631328"><ele>96.0</ele><time>2026-04-18T13:28:28.003Z</time></trkpt><trkpt lat="44.03853746005327" lon="12.339310797712619"><ele>96.0</ele><time>2026-04-18T13:28:29.003Z</time></trkpt><trkpt lat="44.038617715123785" lon="12.339473429585821"><ele>96.0</ele><time>2026-04-18T13:28:30.003Z</time></trkpt><trkpt lat="44.03870315340518" lon="12.339633229371696"><ele>96.0</ele><time>2026-04-18T13:28:31.003Z</time></trkpt><trkpt lat="44.038787619177256" lon="12.3397957260296"><ele>96.0</ele><time>2026-04-18T13:28:32.003Z</time></trkpt><trkpt lat="44.03887524300075" lon="12.339952720056651"><ele>96.0</ele><time>2026-04-18T13:28:33.003Z</time></trkpt><trkpt lat="44.03896673884219" lon="12.340103376404139"><ele>96.0</ele><time>2026-04-18T13:28:34.003Z</time></trkpt><trkpt lat="44.0390673451113" lon="12.340249770618287"><ele>96.0</ele><time>2026-04-18T13:28:35.003Z</time></trkpt><trkpt lat="44.039172302232465" lon="12.340392738362478"><ele>96.0</ele><time>2026-04-18T13:28:36.003Z</time></trkpt><trkpt lat="44.03929119148412" lon="12.34054201240056"><ele>96.0</ele><time>2026-04-18T13:28:37.004Z</time></trkpt><trkpt lat="44.03941182647403" lon="12.340687396228864"><ele>96.0</ele><time>2026-04-18T13:28:38.004Z</time></trkpt><trkpt lat="44.039538658505954" lon="12.34083760151376"><ele>97.33333333333334</ele><time>2026-04-18T13:28:39.004Z</time></trkpt><trkpt lat="44.03967064008123" lon="12.34098703864456"><ele>98.66666666666667</ele><time>2026-04-18T13:28:40.004Z</time></trkpt><trkpt lat="44.039797498465546" lon="12.341126583411016"><ele>100.0</ele><time>2026-04-18T13:28:41.004Z</time></trkpt><trkpt lat="44.03991853482836" lon="12.341261532609321"><ele>99.0</ele><time>2026-04-18T13:28:42.004Z</time></trkpt><trkpt lat="44.04003865887389" lon="12.341396351925418"><ele>98.0</ele><time>2026-04-18T13:28:43.004Z</time></trkpt><trkpt lat="44.040157397913745" lon="12.341530441565629"><ele>97.0</ele><time>2026-04-18T13:28:44.004Z</time></trkpt><trkpt lat="44.04027810266248" lon="12.34166501165631"><ele>97.0</ele><time>2026-04-18T13:28:45.004Z</time></trkpt><trkpt lat="44.04039202704987" lon="12.34180292375611"><ele>97.0</ele><time>2026-04-18T13:28:46.004Z</time></trkpt><trkpt lat="44.040512649148006" lon="12.341936300741889"><ele>97.0</ele><time>2026-04-18T13:28:47.004Z</time></trkpt><trkpt lat="44.040621741644664" lon="12.342072026237801"><ele>97.0</ele><time>2026-04-18T13:28:48.004Z</time></trkpt><trkpt lat="44.04073893923199" lon="12.342209820020955"><ele>97.0</ele><time>2026-04-18T13:28:49.004Z</time></trkpt><trkpt lat="44.0408552303377" lon="12.342338819019666"><ele>97.0</ele><time>2026-04-18T13:28:50.004Z</time></trkpt><trkpt lat="44.0409680829656" lon="12.342465957776147"><ele>97.0</ele><time>2026-04-18T13:28:51.004Z</time></trkpt><trkpt lat="44.04108237301381" lon="12.342599765882037"><ele>96.0</ele><time>2026-04-18T13:28:52.004Z</time></trkpt><trkpt lat="44.041196799681295" lon="12.34273294053848"><ele>95.0</ele><time>2026-04-18T13:28:53.004Z</time></trkpt><trkpt lat="44.04131475449842" lon="12.342863489735574"><ele>94.0</ele><time>2026-04-18T13:28:54.004Z</time></trkpt><trkpt lat="44.04143509392242" lon="12.342993660620383"><ele>94.33333333333333</ele><time>2026-04-18T13:28:55.004Z</time></trkpt><trkpt lat="44.04155475895559" lon="12.343120662455908"><ele>94.66666666666667</ele><time>2026-04-18T13:28:56.004Z</time></trkpt><trkpt lat="44.041679220051364" lon="12.343248090351107"><ele>95.0</ele><time>2026-04-18T13:28:57.004Z</time></trkpt><trkpt lat="44.041806867631365" lon="12.343367211393506"><ele>91.0</ele><time>2026-04-18T13:28:58.004Z</time></trkpt><trkpt lat="44.04193668963017" lon="12.343489247546305"><ele>87.0</ele><time>2026-04-18T13:28:59.004Z</time></trkpt><trkpt lat="44.04206720228933" lon="12.343614192864566"><ele>83.0</ele><time>2026-04-18T13:29:00.004Z</time></trkpt><trkpt lat="44.04219673885482" lon="12.34372749479171"><ele>83.0</ele><time>2026-04-18T13:29:01.004Z</time></trkpt><trkpt lat="44.04232446906288" lon="12.343849025670817"><ele>83.0</ele><time>2026-04-18T13:29:02.004Z</time></trkpt><trkpt lat="44.04244694563535" lon="12.343958663271346"><ele>83.0</ele><time>2026-04-18T13:29:03.004Z</time></trkpt><trkpt lat="44.042570219426885" lon="12.344076647582668"><ele>80.66666666666667</ele><time>2026-04-18T13:29:04.004Z</time></trkpt><trkpt lat="44.04271397953973" lon="12.344208271333311"><ele>78.33333333333333</ele><time>2026-04-18T13:29:05.004Z</time></trkpt><trkpt lat="44.0428621497345" lon="12.3443462840536"><ele>76.0</ele><time>2026-04-18T13:29:06.004Z</time></trkpt><trkpt lat="44.04301082528452" lon="12.344487541712319"><ele>76.0</ele><time>2026-04-18T13:29:07.004Z</time></trkpt><trkpt lat="44.04315375578204" lon="12.344624660660774"><ele>76.0</ele><time>2026-04-18T13:29:08.004Z</time></trkpt><trkpt lat="44.043288106832385" lon="12.344758237484015"><ele>76.0</ele><time>2026-04-18T13:29:09.003Z</time></trkpt><trkpt lat="44.04341858679192" lon="12.344885671502597"><ele>74.75</ele><time>2026-04-18T13:29:10.003Z</time></trkpt><trkpt lat="44.04354016938508" lon="12.345007540881065"><ele>73.5</ele><time>2026-04-18T13:29:11.003Z</time></trkpt><trkpt lat="44.04365668296657" lon="12.345127486463102"><ele>72.25</ele><time>2026-04-18T13:29:12.004Z</time></trkpt><trkpt lat="44.04377858551155" lon="12.345236472604562"><ele>71.0</ele><time>2026-04-18T13:29:13.004Z</time></trkpt><trkpt lat="44.04388035996276" lon="12.345341460866335"><ele>71.0</ele><time>2026-04-18T13:29:14.004Z</time></trkpt><trkpt lat="44.0439725382403" lon="12.345433686569802"><ele>71.0</ele><time>2026-04-18T13:29:15.004Z</time></trkpt><trkpt lat="44.04406745924672" lon="12.345519246321265"><ele>71.0</ele><time>2026-04-18T13:29:16.004Z</time></trkpt><trkpt lat="44.04414523656222" lon="12.345608042812534"><ele>71.0</ele><time>2026-04-18T13:29:17.004Z</time></trkpt><trkpt lat="44.04421497413583" lon="12.3457060408356"><ele>71.0</ele><time>2026-04-18T13:29:18.004Z</time></trkpt><trkpt lat="44.044248896489854" lon="12.34583727092609"><ele>71.0</ele><time>2026-04-18T13:29:19.004Z</time></trkpt><trkpt lat="44.044279336963186" lon="12.345987789464964"><ele>71.0</ele><time>2026-04-18T13:29:20.004Z</time></trkpt><trkpt lat="44.04428457941391" lon="12.346149192786687"><ele>71.0</ele><time>2026-04-18T13:29:21.003Z</time></trkpt><trkpt lat="44.04426642252795" lon="12.346319424132158"><ele>71.0</ele><time>2026-04-18T13:29:22.004Z</time></trkpt><trkpt lat="44.04424319099314" lon="12.346500726181247"><ele>71.75</ele><time>2026-04-18T13:29:23.004Z</time></trkpt><trkpt lat="44.04422445331328" lon="12.34670177759789"><ele>72.5</ele><time>2026-04-18T13:29:24.004Z</time></trkpt><trkpt lat="44.04423386780241" lon="12.346904793547958"><ele>73.25</ele><time>2026-04-18T13:29:25.004Z</time></trkpt><trkpt lat="44.044238414635956" lon="12.347099489755783"><ele>74.0</ele><time>2026-04-18T13:29:26.004Z</time></trkpt><trkpt lat="44.04423836434112" lon="12.347283980806408"><ele>74.0</ele><time>2026-04-18T13:29:27.004Z</time></trkpt><trkpt lat="44.044245296799595" lon="12.347468930107093"><ele>74.0</ele><time>2026-04-18T13:29:28.004Z</time></trkpt><trkpt lat="44.04425348087987" lon="12.347643613645856"><ele>74.0</ele><time>2026-04-18T13:29:29.004Z</time></trkpt><trkpt lat="44.044263256761376" lon="12.347798354890383"><ele>74.0</ele><time>2026-04-18T13:29:30.004Z</time></trkpt><trkpt lat="44.04429452658819" lon="12.347956178037956"><ele>75.5</ele><time>2026-04-18T13:29:31.004Z</time></trkpt><trkpt lat="44.04434401986907" lon="12.348125290516824"><ele>77.0</ele><time>2026-04-18T13:29:32.004Z</time></trkpt><trkpt lat="44.04440532464873" lon="12.348291515672265"><ele>78.5</ele><time>2026-04-18T13:29:33.004Z</time></trkpt><trkpt lat="44.044471033963426" lon="12.348464075323113"><ele>80.0</ele><time>2026-04-18T13:29:34.004Z</time></trkpt><trkpt lat="44.04453909863055" lon="12.348627434867351"><ele>80.0</ele><time>2026-04-18T13:29:35.004Z</time></trkpt><trkpt lat="44.04460731990571" lon="12.348795973527569"><ele>80.0</ele><time>2026-04-18T13:29:36.004Z</time></trkpt><trkpt lat="44.04468166807352" lon="12.348959329493978"><ele>80.0</ele><time>2026-04-18T13:29:37.004Z</time></trkpt><trkpt lat="44.044765238408" lon="12.34913799055044"><ele>80.0</ele><time>2026-04-18T13:29:38.004Z</time></trkpt><trkpt lat="44.04485634620278" lon="12.349299548076978"><ele>80.25</ele><time>2026-04-18T13:29:39.004Z</time></trkpt><trkpt lat="44.04494496841302" lon="12.349432784485996"><ele>80.5</ele><time>2026-04-18T13:29:40.004Z</time></trkpt><trkpt lat="44.0450363548534" lon="12.349543481505025"><ele>80.75</ele><time>2026-04-18T13:29:41.004Z</time></trkpt><trkpt lat="44.045131871051254" lon="12.34963277583345"><ele>81.0</ele><time>2026-04-18T13:29:42.004Z</time></trkpt><trkpt lat="44.04523947112835" lon="12.349692297228225"><ele>82.25</ele><time>2026-04-18T13:29:43.004Z</time></trkpt><trkpt lat="44.045349131840254" lon="12.349733065847103"><ele>83.5</ele><time>2026-04-18T13:29:44.004Z</time></trkpt><trkpt lat="44.045464990063444" lon="12.349760211998413"><ele>84.75</ele><time>2026-04-18T13:29:45.004Z</time></trkpt><trkpt lat="44.04558178328257" lon="12.349792711089131"><ele>86.0</ele><time>2026-04-18T13:29:46.004Z</time></trkpt><trkpt lat="44.04569748851017" lon="12.349847507768173"><ele>84.75</ele><time>2026-04-18T13:29:47.004Z</time></trkpt><trkpt lat="44.04580431083506" lon="12.349895060177891"><ele>83.5</ele><time>2026-04-18T13:29:48.004Z</time></trkpt><trkpt lat="44.045908589822595" lon="12.349939369589508"><ele>82.25</ele><time>2026-04-18T13:29:49.004Z</time></trkpt><trkpt lat="44.04601277993904" lon="12.350009739994114"><ele>81.0</ele><time>2026-04-18T13:29:50.004Z</time></trkpt><trkpt lat="44.04612165694495" lon="12.350096824712601"><ele>81.0</ele><time>2026-04-18T13:29:51.004Z</time></trkpt><trkpt lat="44.046233116489034" lon="12.350212604066957"><ele>81.0</ele><time>2026-04-18T13:29:52.004Z</time></trkpt><trkpt lat="44.04635947200249" lon="12.350338686283319"><ele>81.0</ele><time>2026-04-18T13:29:53.004Z</time></trkpt><trkpt lat="44.04648788550059" lon="12.350465764773631"><ele>81.33333333333333</ele><time>2026-04-18T13:29:54.004Z</time></trkpt><trkpt lat="44.04662649506262" lon="12.350607685617119"><ele>81.66666666666666</ele><time>2026-04-18T13:29:55.004Z</time></trkpt><trkpt lat="44.046767643151576" lon="12.350745805545671"><ele>82.0</ele><time>2026-04-18T13:29:56.004Z</time></trkpt><trkpt lat="44.04692082735531" lon="12.350869512390709"><ele>82.0</ele><time>2026-04-18T13:29:57.004Z</time></trkpt><trkpt lat="44.04707240551535" lon="12.350984624941301"><ele>82.0</ele><time>2026-04-18T13:29:58.004Z</time></trkpt><trkpt lat="44.04721592032019" lon="12.351085771680525"><ele>82.0</ele><time>2026-04-18T13:29:59.004Z</time></trkpt><trkpt lat="44.04735899396084" lon="12.351177030709696"><ele>81.33333333333333</ele><time>2026-04-18T13:30:00.004Z</time></trkpt><trkpt lat="44.04749639740656" lon="12.35126898920948"><ele>80.66666666666667</ele><time>2026-04-18T13:30:01.004Z</time></trkpt><trkpt lat="44.04764217275011" lon="12.35136440562042"><ele>80.0</ele><time>2026-04-18T13:30:02.004Z</time></trkpt><trkpt lat="44.047784607177704" lon="12.351468568316735"><ele>80.0</ele><time>2026-04-18T13:30:03.004Z</time></trkpt><trkpt lat="44.04792437080429" lon="12.351566587262443"><ele>80.0</ele><time>2026-04-18T13:30:04.004Z</time></trkpt><trkpt lat="44.0480692181496" lon="12.35166274341021"><ele>80.0</ele><time>2026-04-18T13:30:05.004Z</time></trkpt><trkpt lat="44.048215025520946" lon="12.35175706861677"><ele>78.66666666666667</ele><time>2026-04-18T13:30:06.004Z</time></trkpt><trkpt lat="44.04836020572232" lon="12.351855175088543"><ele>77.33333333333333</ele><time>2026-04-18T13:30:07.004Z</time></trkpt><trkpt lat="44.04850958316354" lon="12.351954859822515"><ele>76.0</ele><time>2026-04-18T13:30:08.004Z</time></trkpt><trkpt lat="44.0486485620591" lon="12.352048750782151"><ele>76.0</ele><time>2026-04-18T13:30:09.004Z</time></trkpt><trkpt lat="44.04879242609834" lon="12.352148589925811"><ele>76.0</ele><time>2026-04-18T13:30:10.004Z</time></trkpt><trkpt lat="44.04892654860066" lon="12.352238058132313"><ele>76.0</ele><time>2026-04-18T13:30:11.004Z</time></trkpt><trkpt lat="44.049059019384075" lon="12.352325573569344"><ele>77.0</ele><time>2026-04-18T13:30:12.004Z</time></trkpt><trkpt lat="44.049193186375156" lon="12.352414433929631"><ele>78.0</ele><time>2026-04-18T13:30:13.004Z</time></trkpt><trkpt lat="44.04932437219718" lon="12.35250552565186"><ele>79.0</ele><time>2026-04-18T13:30:14.004Z</time></trkpt><trkpt lat="44.04945444382914" lon="12.352594404850649"><ele>80.0</ele><time>2026-04-18T13:30:15.004Z</time></trkpt><trkpt lat="44.04958240397362" lon="12.352684879475403"><ele>80.0</ele><time>2026-04-18T13:30:16.004Z</time></trkpt><trkpt lat="44.04971779792242" lon="12.352776347486055"><ele>80.0</ele><time>2026-04-18T13:30:17.004Z</time></trkpt><trkpt lat="44.0498483738832" lon="12.35286759772395"><ele>80.0</ele><time>2026-04-18T13:30:18.004Z</time></trkpt><trkpt lat="44.0499834051784" lon="12.352960024438365"><ele>80.0</ele><time>2026-04-18T13:30:19.004Z</time></trkpt><trkpt lat="44.05011666175481" lon="12.353052683406396"><ele>79.66666666666667</ele><time>2026-04-18T13:30:20.004Z</time></trkpt><trkpt lat="44.050250291226135" lon="12.35314257919803"><ele>79.33333333333333</ele><time>2026-04-18T13:30:21.004Z</time></trkpt><trkpt lat="44.05038910627949" lon="12.353232153337558"><ele>79.0</ele><time>2026-04-18T13:30:22.004Z</time></trkpt><trkpt lat="44.05052557892371" lon="12.353318619045092"><ele>79.0</ele><time>2026-04-18T13:30:23.004Z</time></trkpt><trkpt lat="44.0506665252646" lon="12.353404563257797"><ele>79.0</ele><time>2026-04-18T13:30:24.004Z</time></trkpt><trkpt lat="44.05080729605905" lon="12.353484524016864"><ele>79.0</ele><time>2026-04-18T13:30:25.004Z</time></trkpt><trkpt lat="44.050943275596154" lon="12.353563128939168"><ele>78.0</ele><time>2026-04-18T13:30:26.004Z</time></trkpt><trkpt lat="44.05107119462947" lon="12.353650373655073"><ele>77.0</ele><time>2026-04-18T13:30:27.004Z</time></trkpt><trkpt lat="44.05120572712748" lon="12.353741094457488"><ele>76.0</ele><time>2026-04-18T13:30:28.004Z</time></trkpt><trkpt lat="44.05133771920641" lon="12.353835952035096"><ele>75.0</ele><time>2026-04-18T13:30:29.004Z</time></trkpt><trkpt lat="44.05147809180836" lon="12.353923960644712"><ele>75.0</ele><time>2026-04-18T13:30:30.004Z</time></trkpt><trkpt lat="44.05161441255244" lon="12.354014698147312"><ele>75.0</ele><time>2026-04-18T13:30:31.004Z</time></trkpt><trkpt lat="44.05174320001076" lon="12.35410661105739"><ele>75.0</ele><time>2026-04-18T13:30:32.004Z</time></trkpt><trkpt lat="44.05187012702244" lon="12.354200859093877"><ele>75.0</ele><time>2026-04-18T13:30:33.004Z</time></trkpt><trkpt lat="44.05199710020128" lon="12.35429582300865"><ele>72.25</ele><time>2026-04-18T13:30:34.004Z</time></trkpt><trkpt lat="44.05212158814662" lon="12.354392234546287"><ele>69.5</ele><time>2026-04-18T13:30:35.004Z</time></trkpt><trkpt lat="44.05224873208899" lon="12.35449746703599"><ele>66.75</ele><time>2026-04-18T13:30:36.004Z</time></trkpt><trkpt lat="44.05236599055339" lon="12.354608946240921"><ele>64.0</ele><time>2026-04-18T13:30:37.004Z</time></trkpt><trkpt lat="44.052471602323635" lon="12.354725503297228"><ele>62.75</ele><time>2026-04-18T13:30:38.004Z</time></trkpt><trkpt lat="44.052578189377336" lon="12.354849941646888"><ele>61.5</ele><time>2026-04-18T13:30:39.004Z</time></trkpt><trkpt lat="44.052673534856574" lon="12.354995237506772"><ele>60.25</ele><time>2026-04-18T13:30:40.004Z</time></trkpt><trkpt lat="44.05276890110933" lon="12.355151536193887"><ele>59.0</ele><time>2026-04-18T13:30:41.004Z</time></trkpt><trkpt lat="44.05285898256707" lon="12.35530243970378"><ele>59.0</ele><time>2026-04-18T13:30:42.004Z</time></trkpt><trkpt lat="44.052949231438326" lon="12.355450498136127"><ele>59.0</ele><time>2026-04-18T13:30:43.004Z</time></trkpt><trkpt lat="44.05303839196142" lon="12.355593514500303"><ele>59.0</ele><time>2026-04-18T13:30:44.004Z</time></trkpt><trkpt lat="44.05312405414019" lon="12.35573085493299"><ele>59.0</ele><time>2026-04-18T13:30:45.004Z</time></trkpt><trkpt lat="44.053213909137106" lon="12.355870916116638"><ele>60.0</ele><time>2026-04-18T13:30:46.004Z</time></trkpt><trkpt lat="44.05329926836009" lon="12.356002196946823"><ele>61.0</ele><time>2026-04-18T13:30:47.004Z</time></trkpt><trkpt lat="44.053390662175794" lon="12.356117396762428"><ele>62.0</ele><time>2026-04-18T13:30:48.004Z</time></trkpt><trkpt lat="44.05348727605277" lon="12.356214124371961"><ele>63.0</ele><time>2026-04-18T13:30:49.004Z</time></trkpt><trkpt lat="44.05358181989328" lon="12.356290185452789"><ele>63.0</ele><time>2026-04-18T13:30:50.004Z</time></trkpt><trkpt lat="44.053673650170495" lon="12.356362095735717"><ele>63.0</ele><time>2026-04-18T13:30:51.004Z</time></trkpt><trkpt lat="44.05376996232386" lon="12.356427000920776"><ele>63.0</ele><time>2026-04-18T13:30:52.004Z</time></trkpt><trkpt lat="44.05386513350556" lon="12.356481315273664"><ele>63.0</ele><time>2026-04-18T13:30:53.004Z</time></trkpt><trkpt lat="44.05395493664049" lon="12.356540362904514"><ele>63.0</ele><time>2026-04-18T13:30:54.004Z</time></trkpt><trkpt lat="44.05403924531002" lon="12.35658767787207"><ele>62.4</ele><time>2026-04-18T13:30:55.004Z</time></trkpt><trkpt lat="44.05411166832231" lon="12.356632029608505"><ele>61.8</ele><time>2026-04-18T13:30:56.004Z</time></trkpt><trkpt lat="44.054188426569226" lon="12.356686677714691"><ele>61.2</ele><time>2026-04-18T13:30:57.004Z</time></trkpt><trkpt lat="44.05426237524696" lon="12.356755798249594"><ele>60.6</ele><time>2026-04-18T13:30:58.004Z</time></trkpt><trkpt lat="44.054355884310944" lon="12.356843483059253"><ele>60.0</ele><time>2026-04-18T13:30:59.004Z</time></trkpt><trkpt lat="44.054471728795654" lon="12.356977818015109"><ele>60.66666666666667</ele><time>2026-04-18T13:31:00.004Z</time></trkpt><trkpt lat="44.05460440258866" lon="12.357141147100466"><ele>61.333333333333336</ele><time>2026-04-18T13:31:01.004Z</time></trkpt><trkpt lat="44.0547231440493" lon="12.357285701904742"><ele>62.0</ele><time>2026-04-18T13:31:02.004Z</time></trkpt><trkpt lat="44.05482701464129" lon="12.357411479791784"><ele>62.0</ele><time>2026-04-18T13:31:03.004Z</time></trkpt><trkpt lat="44.05492017414324" lon="12.357532095819442"><ele>62.0</ele><time>2026-04-18T13:31:04.004Z</time></trkpt><trkpt lat="44.05501257571894" lon="12.357653817376278"><ele>62.0</ele><time>2026-04-18T13:31:05.004Z</time></trkpt><trkpt lat="44.055103006559975" lon="12.357777385341183"><ele>62.0</ele><time>2026-04-18T13:31:06.004Z</time></trkpt><trkpt lat="44.055199265990744" lon="12.357897314311126"><ele>62.6</ele><time>2026-04-18T13:31:07.004Z</time></trkpt><trkpt lat="44.05528016817853" lon="12.358016375116998"><ele>63.2</ele><time>2026-04-18T13:31:08.004Z</time></trkpt><trkpt lat="44.05535434979941" lon="12.35813486870367"><ele>63.8</ele><time>2026-04-18T13:31:09.004Z</time></trkpt><trkpt lat="44.05542775216792" lon="12.35824300168869"><ele>64.4</ele><time>2026-04-18T13:31:10.004Z</time></trkpt><trkpt lat="44.05550417349526" lon="12.358354955595471"><ele>65.0</ele><time>2026-04-18T13:31:11.004Z</time></trkpt><trkpt lat="44.055576035377804" lon="12.358472019058828"><ele>65.0</ele><time>2026-04-18T13:31:12.004Z</time></trkpt><trkpt lat="44.055651855812236" lon="12.358589737604072"><ele>65.0</ele><time>2026-04-18T13:31:13.004Z</time></trkpt><trkpt lat="44.05572426955045" lon="12.35870892470819"><ele>65.0</ele><time>2026-04-18T13:31:14.004Z</time></trkpt><trkpt lat="44.05579286051809" lon="12.358827775575895"><ele>65.0</ele><time>2026-04-18T13:31:15.003Z</time></trkpt><trkpt lat="44.05586339966217" lon="12.358939384285941"><ele>65.0</ele><time>2026-04-18T13:31:16.004Z</time></trkpt><trkpt lat="44.05593879309016" lon="12.359045842817883"><ele>65.0</ele><time>2026-04-18T13:31:17.004Z</time></trkpt><trkpt lat="44.05600861185107" lon="12.359155454421948"><ele>65.0</ele><time>2026-04-18T13:31:18.003Z</time></trkpt><trkpt lat="44.056080319779845" lon="12.359259198200682"><ele>65.0</ele><time>2026-04-18T13:31:19.004Z</time></trkpt><trkpt lat="44.0561415653196" lon="12.359354521265168"><ele>65.0</ele><time>2026-04-18T13:31:20.004Z</time></trkpt><trkpt lat="44.05620687740223" lon="12.35945233074156"><ele>65.0</ele><time>2026-04-18T13:31:21.004Z</time></trkpt><trkpt lat="44.05627496121445" lon="12.35955249309262"><ele>65.0</ele><time>2026-04-18T13:31:22.003Z</time></trkpt><trkpt lat="44.05633695630811" lon="12.35964990622356"><ele>65.0</ele><time>2026-04-18T13:31:23.003Z</time></trkpt><trkpt lat="44.05640615132735" lon="12.359754940788605"><ele>65.0</ele><time>2026-04-18T13:31:24.003Z</time></trkpt><trkpt lat="44.05648389168473" lon="12.35986982824312"><ele>65.0</ele><time>2026-04-18T13:31:25.003Z</time></trkpt><trkpt lat="44.05656657477427" lon="12.359988165242434"><ele>65.0</ele><time>2026-04-18T13:31:26.003Z</time></trkpt><trkpt lat="44.056654172810546" lon="12.36011765818664"><ele>65.0</ele><time>2026-04-18T13:31:27.004Z</time></trkpt><trkpt lat="44.056740819772955" lon="12.360248211305667"><ele>65.0</ele><time>2026-04-18T13:31:28.003Z</time></trkpt><trkpt lat="44.05683071571025" lon="12.360379668494007"><ele>65.0</ele><time>2026-04-18T13:31:29.003Z</time></trkpt><trkpt lat="44.056924115155034" lon="12.360520535724788"><ele>65.0</ele><time>2026-04-18T13:31:30.003Z</time></trkpt><trkpt lat="44.057012216323514" lon="12.360660517171883"><ele>64.25</ele><time>2026-04-18T13:31:31.003Z</time></trkpt><trkpt lat="44.057104190809376" lon="12.360793753023827"><ele>63.5</ele><time>2026-04-18T13:31:32.003Z</time></trkpt><trkpt lat="44.05718930289277" lon="12.360922962976321"><ele>62.75</ele><time>2026-04-18T13:31:33.003Z</time></trkpt><trkpt lat="44.0572751425749" lon="12.361051794639087"><ele>62.0</ele><time>2026-04-18T13:31:34.003Z</time></trkpt><trkpt lat="44.05735645999803" lon="12.3611865486174"><ele>62.0</ele><time>2026-04-18T13:31:35.003Z</time></trkpt><trkpt lat="44.057436370680556" lon="12.361307772336264"><ele>62.0</ele><time>2026-04-18T13:31:36.003Z</time></trkpt><trkpt lat="44.05751100253168" lon="12.36143335132235"><ele>62.0</ele><time>2026-04-18T13:31:37.003Z</time></trkpt><trkpt lat="44.05758845985566" lon="12.361550833323756"><ele>62.0</ele><time>2026-04-18T13:31:38.003Z</time></trkpt><trkpt lat="44.0576610392686" lon="12.361658650383399"><ele>61.8</ele><time>2026-04-18T13:31:39.003Z</time></trkpt><trkpt lat="44.05773646687585" lon="12.36177165805285"><ele>61.6</ele><time>2026-04-18T13:31:40.003Z</time></trkpt><trkpt lat="44.05781035166218" lon="12.361884340398682"><ele>61.39999999999999</ele><time>2026-04-18T13:31:41.003Z</time></trkpt><trkpt lat="44.057886169080135" lon="12.361993890272036"><ele>61.199999999999996</ele><time>2026-04-18T13:31:42.003Z</time></trkpt><trkpt lat="44.05795716156715" lon="12.362100887597428"><ele>61.0</ele><time>2026-04-18T13:31:43.003Z</time></trkpt><trkpt lat="44.05802800069937" lon="12.362200839923382"><ele>61.0</ele><time>2026-04-18T13:31:44.003Z</time></trkpt><trkpt lat="44.058090631165854" lon="12.36231150980933"><ele>60.99999999999999</ele><time>2026-04-18T13:31:45.003Z</time></trkpt><trkpt lat="44.05813384806148" lon="12.362431412929963"><ele>60.99999999999999</ele><time>2026-04-18T13:31:46.003Z</time></trkpt><trkpt lat="44.05815694605901" lon="12.362565539464306"><ele>61.0</ele><time>2026-04-18T13:31:47.003Z</time></trkpt><trkpt lat="44.05816046815007" lon="12.362702741457662"><ele>61.0</ele><time>2026-04-18T13:31:48.003Z</time></trkpt><trkpt lat="44.05812902282703" lon="12.362838150740146"><ele>61.0</ele><time>2026-04-18T13:31:49.003Z</time></trkpt><trkpt lat="44.058075794243365" lon="12.362979606883949"><ele>61.0</ele><time>2026-04-18T13:31:50.003Z</time></trkpt><trkpt lat="44.05799568820546" lon="12.363128028783299"><ele>61.0</ele><time>2026-04-18T13:31:51.003Z</time></trkpt><trkpt lat="44.057895038356186" lon="12.363267355153942"><ele>61.0</ele><time>2026-04-18T13:31:52.003Z</time></trkpt><trkpt lat="44.05781036722024" lon="12.363417835405269"><ele>59.75</ele><time>2026-04-18T13:31:53.003Z</time></trkpt><trkpt lat="44.05772570703271" lon="12.363564328527602"><ele>58.5</ele><time>2026-04-18T13:31:54.003Z</time></trkpt><trkpt lat="44.057645657315874" lon="12.363699162902842"><ele>57.25</ele><time>2026-04-18T13:31:55.003Z</time></trkpt><trkpt lat="44.05756646284379" lon="12.363832085150342"><ele>56.0</ele><time>2026-04-18T13:31:56.003Z</time></trkpt><trkpt lat="44.05748766876126" lon="12.36395742553736"><ele>56.4</ele><time>2026-04-18T13:31:57.003Z</time></trkpt><trkpt lat="44.057419232134635" lon="12.364073394202249"><ele>56.8</ele><time>2026-04-18T13:31:58.003Z</time></trkpt><trkpt lat="44.05734240320842" lon="12.36418536497289"><ele>57.199999999999996</ele><time>2026-04-18T13:31:59.003Z</time></trkpt><trkpt lat="44.057290691733456" lon="12.364288101667544"><ele>57.599999999999994</ele><time>2026-04-18T13:32:00.003Z</time></trkpt><trkpt lat="44.057247512772335" lon="12.364402538317023"><ele>58.0</ele><time>2026-04-18T13:32:01.003Z</time></trkpt><trkpt lat="44.057217369368125" lon="12.36453876411253"><ele>58.0</ele><time>2026-04-18T13:32:02.003Z</time></trkpt><trkpt lat="44.05719789242738" lon="12.36468368863818"><ele>58.0</ele><time>2026-04-18T13:32:03.003Z</time></trkpt><trkpt lat="44.057214567680774" lon="12.364828569619586"><ele>58.0</ele><time>2026-04-18T13:32:04.003Z</time></trkpt><trkpt lat="44.0572409452663" lon="12.364987131311835"><ele>58.0</ele><time>2026-04-18T13:32:05.003Z</time></trkpt><trkpt lat="44.05730268255899" lon="12.365124919118072"><ele>58.0</ele><time>2026-04-18T13:32:06.003Z</time></trkpt><trkpt lat="44.05738473080427" lon="12.365248493189318"><ele>58.25</ele><time>2026-04-18T13:32:07.003Z</time></trkpt><trkpt lat="44.05748321615626" lon="12.365343920922268"><ele>58.5</ele><time>2026-04-18T13:32:08.003Z</time></trkpt><trkpt lat="44.057589951697615" lon="12.365422152132252"><ele>58.75</ele><time>2026-04-18T13:32:09.003Z</time></trkpt><trkpt lat="44.057692343959374" lon="12.365496146225423"><ele>59.0</ele><time>2026-04-18T13:32:10.003Z</time></trkpt><trkpt lat="44.057803671342754" lon="12.365585700734439"><ele>60.5</ele><time>2026-04-18T13:32:11.003Z</time></trkpt><trkpt lat="44.05792341988984" lon="12.365689057323674"><ele>62.0</ele><time>2026-04-18T13:32:12.003Z</time></trkpt><trkpt lat="44.058039795825415" lon="12.36578281496233"><ele>63.5</ele><time>2026-04-18T13:32:13.003Z</time></trkpt><trkpt lat="44.05815408517774" lon="12.36587057776439"><ele>65.0</ele><time>2026-04-18T13:32:14.003Z</time></trkpt><trkpt lat="44.05827553170029" lon="12.365968257778505"><ele>63.75</ele><time>2026-04-18T13:32:15.003Z</time></trkpt><trkpt lat="44.05840944272254" lon="12.36606902394111"><ele>62.5</ele><time>2026-04-18T13:32:16.003Z</time></trkpt><trkpt lat="44.05853563312249" lon="12.366159693154362"><ele>61.25</ele><time>2026-04-18T13:32:17.003Z</time></trkpt><trkpt lat="44.05866878376296" lon="12.366254041279614"><ele>60.0</ele><time>2026-04-18T13:32:18.003Z</time></trkpt><trkpt lat="44.058799538322134" lon="12.366348198335865"><ele>60.0</ele><time>2026-04-18T13:32:19.003Z</time></trkpt><trkpt lat="44.058937970517114" lon="12.366437249834286"><ele>60.0</ele><time>2026-04-18T13:32:20.003Z</time></trkpt><trkpt lat="44.059076861176926" lon="12.366524943998185"><ele>60.0</ele><time>2026-04-18T13:32:21.003Z</time></trkpt><trkpt lat="44.05921401646398" lon="12.366602876632594"><ele>60.0</ele><time>2026-04-18T13:32:22.003Z</time></trkpt><trkpt lat="44.05934675129916" lon="12.366670833252005"><ele>60.0</ele><time>2026-04-18T13:32:23.003Z</time></trkpt><trkpt lat="44.05947274110941" lon="12.366729980345646"><ele>60.0</ele><time>2026-04-18T13:32:24.003Z</time></trkpt><trkpt lat="44.05960277461321" lon="12.366788405057632"><ele>60.0</ele><time>2026-04-18T13:32:25.003Z</time></trkpt><trkpt lat="44.059729728427854" lon="12.366839330383355"><ele>60.0</ele><time>2026-04-18T13:32:26.003Z</time></trkpt><trkpt lat="44.05985975112995" lon="12.366882870061175"><ele>60.0</ele><time>2026-04-18T13:32:27.003Z</time></trkpt><trkpt lat="44.059991385896986" lon="12.366917999588038"><ele>60.0</ele><time>2026-04-18T13:32:28.003Z</time></trkpt><trkpt lat="44.06013186060478" lon="12.366953215304658"><ele>60.0</ele><time>2026-04-18T13:32:29.003Z</time></trkpt><trkpt lat="44.06027110292151" lon="12.366994599141984"><ele>59.75</ele><time>2026-04-18T13:32:30.003Z</time></trkpt><trkpt lat="44.060409058483444" lon="12.367046255734392"><ele>59.5</ele><time>2026-04-18T13:32:31.003Z</time></trkpt><trkpt lat="44.06054733947776" lon="12.367107290612338"><ele>59.25</ele><time>2026-04-18T13:32:32.003Z</time></trkpt><trkpt lat="44.060676445503006" lon="12.36717727292362"><ele>59.0</ele><time>2026-04-18T13:32:33.003Z</time></trkpt><trkpt lat="44.06081034933823" lon="12.367244098189607"><ele>60.5</ele><time>2026-04-18T13:32:34.003Z</time></trkpt><trkpt lat="44.06093388704628" lon="12.367306726613013"><ele>62.0</ele><time>2026-04-18T13:32:35.003Z</time></trkpt><trkpt lat="44.06104812296043" lon="12.36737316373544"><ele>63.5</ele><time>2026-04-18T13:32:36.003Z</time></trkpt><trkpt lat="44.06115785229231" lon="12.367435501264326"><ele>65.0</ele><time>2026-04-18T13:32:37.003Z</time></trkpt><trkpt lat="44.0612753067695" lon="12.367499977875816"><ele>65.0</ele><time>2026-04-18T13:32:38.003Z</time></trkpt><trkpt lat="44.06140016334446" lon="12.367580239588937"><ele>65.0</ele><time>2026-04-18T13:32:39.003Z</time></trkpt><trkpt lat="44.06154203740411" lon="12.367653725662965"><ele>65.0</ele><time>2026-04-18T13:32:40.004Z</time></trkpt><trkpt lat="44.0616733308423" lon="12.367749707660987"><ele>65.0</ele><time>2026-04-18T13:32:41.004Z</time></trkpt><trkpt lat="44.06181926796841" lon="12.367838302588778"><ele>64.5</ele><time>2026-04-18T13:32:42.004Z</time></trkpt><trkpt lat="44.061952090431895" lon="12.367924535766248"><ele>64.0</ele><time>2026-04-18T13:32:43.004Z</time></trkpt><trkpt lat="44.062075478159684" lon="12.36799815805321"><ele>63.5</ele><time>2026-04-18T13:32:44.004Z</time></trkpt><trkpt lat="44.06220200901959" lon="12.368075439198597"><ele>63.0</ele><time>2026-04-18T13:32:45.004Z</time></trkpt><trkpt lat="44.06231349055135" lon="12.36813709011203"><ele>63.0</ele><time>2026-04-18T13:32:46.004Z</time></trkpt><trkpt lat="44.06243640796927" lon="12.36819606168677"><ele>63.0</ele><time>2026-04-18T13:32:47.004Z</time></trkpt><trkpt lat="44.0625629243353" lon="12.36825411285057"><ele>63.0</ele><time>2026-04-18T13:32:48.004Z</time></trkpt><trkpt lat="44.062697085510734" lon="12.36831198930542"><ele>63.0</ele><time>2026-04-18T13:32:49.004Z</time></trkpt><trkpt lat="44.062829577163704" lon="12.368360474705115"><ele>62.5</ele><time>2026-04-18T13:32:50.004Z</time></trkpt><trkpt lat="44.062963355471496" lon="12.368407286934152"><ele>62.0</ele><time>2026-04-18T13:32:51.004Z</time></trkpt><trkpt lat="44.063101666930436" lon="12.368456016093536"><ele>61.5</ele><time>2026-04-18T13:32:52.004Z</time></trkpt><trkpt lat="44.063241700983255" lon="12.368506550738987"><ele>61.0</ele><time>2026-04-18T13:32:53.004Z</time></trkpt><trkpt lat="44.06337604540298" lon="12.368552728731903"><ele>60.5</ele><time>2026-04-18T13:32:54.004Z</time></trkpt><trkpt lat="44.063507000696646" lon="12.368606093975885"><ele>60.0</ele><time>2026-04-18T13:32:55.004Z</time></trkpt><trkpt lat="44.06363363486111" lon="12.368674866275997"><ele>59.5</ele><time>2026-04-18T13:32:56.004Z</time></trkpt><trkpt lat="44.06376123525293" lon="12.368762099164407"><ele>59.0</ele><time>2026-04-18T13:32:57.004Z</time></trkpt><trkpt lat="44.0638888264985" lon="12.368860692031467"><ele>59.25</ele><time>2026-04-18T13:32:58.004Z</time></trkpt><trkpt lat="44.064012748180915" lon="12.36896111910262"><ele>59.5</ele><time>2026-04-18T13:32:59.004Z</time></trkpt><trkpt lat="44.06413351106572" lon="12.369068649577459"><ele>59.75</ele><time>2026-04-18T13:33:00.004Z</time></trkpt><trkpt lat="44.064260680582514" lon="12.369166001943354"><ele>60.0</ele><time>2026-04-18T13:33:01.004Z</time></trkpt><trkpt lat="44.06439773516785" lon="12.369266794952644"><ele>60.0</ele><time>2026-04-18T13:33:02.004Z</time></trkpt><trkpt lat="44.06453492830137" lon="12.36935314098032"><ele>60.0</ele><time>2026-04-18T13:33:03.004Z</time></trkpt><trkpt lat="44.06467327520707" lon="12.36944217314879"><ele>60.0</ele><time>2026-04-18T13:33:04.004Z</time></trkpt><trkpt lat="44.06480546718588" lon="12.369522685827656"><ele>60.0</ele><time>2026-04-18T13:33:05.004Z</time></trkpt><trkpt lat="44.064936513080426" lon="12.369594207617084"><ele>60.75</ele><time>2026-04-18T13:33:06.004Z</time></trkpt><trkpt lat="44.06506484693861" lon="12.369664017055753"><ele>61.5</ele><time>2026-04-18T13:33:07.004Z</time></trkpt><trkpt lat="44.06519646486947" lon="12.369741640986614"><ele>62.25</ele><time>2026-04-18T13:33:08.004Z</time></trkpt><trkpt lat="44.06533114114133" lon="12.369826494645277"><ele>63.0</ele><time>2026-04-18T13:33:09.004Z</time></trkpt><trkpt lat="44.06545415264884" lon="12.36990632513126"><ele>63.0</ele><time>2026-04-18T13:33:10.004Z</time></trkpt><trkpt lat="44.06557323942013" lon="12.369992956632473"><ele>63.0</ele><time>2026-04-18T13:33:11.004Z</time></trkpt><trkpt lat="44.065689747215465" lon="12.370089780660148"><ele>63.0</ele><time>2026-04-18T13:33:12.004Z</time></trkpt><trkpt lat="44.06581125911745" lon="12.370191767711322"><ele>63.0</ele><time>2026-04-18T13:33:13.004Z</time></trkpt><trkpt lat="44.065932755343994" lon="12.370287926287011"><ele>63.0</ele><time>2026-04-18T13:33:14.004Z</time></trkpt><trkpt lat="44.06605323739252" lon="12.370378269028956"><ele>63.0</ele><time>2026-04-18T13:33:15.004Z</time></trkpt><trkpt lat="44.066179559317725" lon="12.370456284859909"><ele>63.0</ele><time>2026-04-18T13:33:16.004Z</time></trkpt><trkpt lat="44.066315221387754" lon="12.370514094709387"><ele>63.0</ele><time>2026-04-18T13:33:17.004Z</time></trkpt><trkpt lat="44.066477622511776" lon="12.370568188674595"><ele>60.66666666666667</ele><time>2026-04-18T13:33:18.004Z</time></trkpt><trkpt lat="44.06664264642984" lon="12.370617518788228"><ele>58.333333333333336</ele><time>2026-04-18T13:33:19.004Z</time></trkpt><trkpt lat="44.0667957510766" lon="12.370663474011668"><ele>56.0</ele><time>2026-04-18T13:33:20.004Z</time></trkpt><trkpt lat="44.066939100604394" lon="12.370729824428084"><ele>56.0</ele><time>2026-04-18T13:33:21.003Z</time></trkpt><trkpt lat="44.06708892758856" lon="12.370813082105773"><ele>56.0</ele><time>2026-04-18T13:33:22.003Z</time></trkpt><trkpt lat="44.06723289255555" lon="12.370908461416564"><ele>56.0</ele><time>2026-04-18T13:33:23.003Z</time></trkpt><trkpt lat="44.06737116638944" lon="12.371018701577588"><ele>55.25</ele><time>2026-04-18T13:33:24.003Z</time></trkpt><trkpt lat="44.0674976965257" lon="12.371135468770772"><ele>54.5</ele><time>2026-04-18T13:33:25.003Z</time></trkpt><trkpt lat="44.067628589102625" lon="12.371252121800522"><ele>53.75</ele><time>2026-04-18T13:33:26.003Z</time></trkpt><trkpt lat="44.0677426132234" lon="12.371361662361194"><ele>53.0</ele><time>2026-04-18T13:33:27.003Z</time></trkpt><trkpt lat="44.06785756420343" lon="12.371459399557507"><ele>52.75</ele><time>2026-04-18T13:33:28.003Z</time></trkpt><trkpt lat="44.06797365966191" lon="12.371559384533976"><ele>52.5</ele><time>2026-04-18T13:33:29.003Z</time></trkpt><trkpt lat="44.0680810943289" lon="12.37166765576833"><ele>52.25</ele><time>2026-04-18T13:33:30.003Z</time></trkpt><trkpt lat="44.06820263540097" lon="12.371789996625672"><ele>52.0</ele><time>2026-04-18T13:33:31.003Z</time></trkpt><trkpt lat="44.068326034565814" lon="12.37191569289264"><ele>51.33333333333333</ele><time>2026-04-18T13:33:32.003Z</time></trkpt><trkpt lat="44.068449624389544" lon="12.372040106942446"><ele>50.66666666666667</ele><time>2026-04-18T13:33:33.004Z</time></trkpt><trkpt lat="44.06857255026635" lon="12.372170298976645"><ele>50.0</ele><time>2026-04-18T13:33:34.003Z</time></trkpt><trkpt lat="44.06869651309659" lon="12.37229333837237"><ele>50.0</ele><time>2026-04-18T13:33:35.003Z</time></trkpt><trkpt lat="44.06882189093235" lon="12.372425422343538"><ele>50.0</ele><time>2026-04-18T13:33:36.003Z</time></trkpt><trkpt lat="44.06894467329225" lon="12.372555365893882"><ele>50.0</ele><time>2026-04-18T13:33:37.003Z</time></trkpt><trkpt lat="44.06907165033005" lon="12.372686788144318"><ele>49.66666666666667</ele><time>2026-04-18T13:33:38.003Z</time></trkpt><trkpt lat="44.06919839032864" lon="12.372819030696103"><ele>49.33333333333333</ele><time>2026-04-18T13:33:39.003Z</time></trkpt><trkpt lat="44.069320052314694" lon="12.372944965609204"><ele>49.0</ele><time>2026-04-18T13:33:40.003Z</time></trkpt><trkpt lat="44.06944323773079" lon="12.373084315686667"><ele>49.0</ele><time>2026-04-18T13:33:41.003Z</time></trkpt><trkpt lat="44.06957022074752" lon="12.373222072357239"><ele>49.0</ele><time>2026-04-18T13:33:42.003Z</time></trkpt><trkpt lat="44.069702742080615" lon="12.373359712613057"><ele>49.0</ele><time>2026-04-18T13:33:43.003Z</time></trkpt><trkpt lat="44.06983517897951" lon="12.373498321470125"><ele>49.0</ele><time>2026-04-18T13:33:44.003Z</time></trkpt><trkpt lat="44.06996632365751" lon="12.37363257536086"><ele>49.0</ele><time>2026-04-18T13:33:45.003Z</time></trkpt><trkpt lat="44.070099687465394" lon="12.373771490047423"><ele>49.0</ele><time>2026-04-18T13:33:46.003Z</time></trkpt><trkpt lat="44.07023216688461" lon="12.373910930581571"><ele>49.0</ele><time>2026-04-18T13:33:47.003Z</time></trkpt><trkpt lat="44.07036492973053" lon="12.374047769643601"><ele>49.0</ele><time>2026-04-18T13:33:48.003Z</time></trkpt><trkpt lat="44.07049230032338" lon="12.374180617770934"><ele>49.0</ele><time>2026-04-18T13:33:49.003Z</time></trkpt><trkpt lat="44.070617725725654" lon="12.374313507056932"><ele>49.0</ele><time>2026-04-18T13:33:50.003Z</time></trkpt><trkpt lat="44.07074544911558" lon="12.374443782684269"><ele>49.0</ele><time>2026-04-18T13:33:51.003Z</time></trkpt><trkpt lat="44.070872536818754" lon="12.374578548292428"><ele>49.0</ele><time>2026-04-18T13:33:52.003Z</time></trkpt><trkpt lat="44.071000372356295" lon="12.374712404161311"><ele>48.33333333333333</ele><time>2026-04-18T13:33:53.003Z</time></trkpt><trkpt lat="44.07112951503197" lon="12.374853136507959"><ele>47.666666666666664</ele><time>2026-04-18T13:33:54.003Z</time></trkpt><trkpt lat="44.07125892645542" lon="12.374988756165363"><ele>47.0</ele><time>2026-04-18T13:33:55.003Z</time></trkpt><trkpt lat="44.071389279353845" lon="12.375125910372349"><ele>47.0</ele><time>2026-04-18T13:33:56.003Z</time></trkpt><trkpt lat="44.071523293836336" lon="12.375263161853809"><ele>47.0</ele><time>2026-04-18T13:33:57.003Z</time></trkpt><trkpt lat="44.07165478280321" lon="12.375398241698479"><ele>47.0</ele><time>2026-04-18T13:33:58.003Z</time></trkpt><trkpt lat="44.07178396657276" lon="12.375530343036742"><ele>46.33333333333333</ele><time>2026-04-18T13:33:59.003Z</time></trkpt><trkpt lat="44.07191494802784" lon="12.375663896541369"><ele>45.666666666666664</ele><time>2026-04-18T13:34:00.003Z</time></trkpt><trkpt lat="44.07204259344926" lon="12.375798118186289"><ele>45.0</ele><time>2026-04-18T13:34:01.003Z</time></trkpt><trkpt lat="44.072166252135936" lon="12.375931183847763"><ele>45.0</ele><time>2026-04-18T13:34:02.003Z</time></trkpt><trkpt lat="44.07229372001155" lon="12.37605987426861"><ele>45.0</ele><time>2026-04-18T13:34:03.003Z</time></trkpt><trkpt lat="44.07241115438615" lon="12.376185182123708"><ele>45.0</ele><time>2026-04-18T13:34:04.003Z</time></trkpt><trkpt lat="44.07253176992179" lon="12.376307341519883"><ele>44.75</ele><time>2026-04-18T13:34:05.003Z</time></trkpt><trkpt lat="44.07264827451707" lon="12.376426152729312"><ele>44.5</ele><time>2026-04-18T13:34:06.003Z</time></trkpt><trkpt lat="44.072763502903044" lon="12.37654868420169"><ele>44.25</ele><time>2026-04-18T13:34:07.003Z</time></trkpt><trkpt lat="44.07287709798265" lon="12.37666741607071"><ele>44.0</ele><time>2026-04-18T13:34:08.003Z</time></trkpt><trkpt lat="44.07299703115632" lon="12.376791824445823"><ele>44.0</ele><time>2026-04-18T13:34:09.003Z</time></trkpt><trkpt lat="44.07311357343491" lon="12.376917658593488"><ele>44.0</ele><time>2026-04-18T13:34:10.003Z</time></trkpt><trkpt lat="44.073229036109616" lon="12.377036509541695"><ele>44.0</ele><time>2026-04-18T13:34:11.003Z</time></trkpt><trkpt lat="44.07333888469137" lon="12.37715934298624"><ele>44.0</ele><time>2026-04-18T13:34:12.003Z</time></trkpt><trkpt lat="44.07344659385451" lon="12.37728375626481"><ele>43.75</ele><time>2026-04-18T13:34:13.003Z</time></trkpt><trkpt lat="44.073549079581305" lon="12.377411852989269"><ele>43.5</ele><time>2026-04-18T13:34:14.003Z</time></trkpt><trkpt lat="44.073637756194955" lon="12.377545588349468"><ele>43.25</ele><time>2026-04-18T13:34:15.003Z</time></trkpt><trkpt lat="44.07371758176119" lon="12.377668394998297"><ele>43.0</ele><time>2026-04-18T13:34:16.003Z</time></trkpt><trkpt lat="44.07379878193237" lon="12.377816052843473"><ele>43.0</ele><time>2026-04-18T13:34:17.003Z</time></trkpt><trkpt lat="44.07388622316057" lon="12.37796934024557"><ele>43.0</ele><time>2026-04-18T13:34:18.003Z</time></trkpt><trkpt lat="44.073977103843134" lon="12.378113508847079"><ele>43.0</ele><time>2026-04-18T13:34:19.003Z</time></trkpt><trkpt lat="44.07406705393962" lon="12.378268716805987"><ele>43.0</ele><time>2026-04-18T13:34:20.003Z</time></trkpt><trkpt lat="44.07415717627117" lon="12.378433326458671"><ele>42.75</ele><time>2026-04-18T13:34:21.003Z</time></trkpt><trkpt lat="44.07424585804237" lon="12.378591344598192"><ele>42.5</ele><time>2026-04-18T13:34:22.003Z</time></trkpt><trkpt lat="44.07432701256784" lon="12.378747357730587"><ele>42.25</ele><time>2026-04-18T13:34:23.003Z</time></trkpt><trkpt lat="44.07439597140872" lon="12.378911279817002"><ele>42.0</ele><time>2026-04-18T13:34:24.003Z</time></trkpt><trkpt lat="44.07445133599312" lon="12.379085085239208"><ele>42.0</ele><time>2026-04-18T13:34:25.003Z</time></trkpt><trkpt lat="44.074500081661604" lon="12.379271042881484"><ele>42.0</ele><time>2026-04-18T13:34:26.003Z</time></trkpt><trkpt lat="44.07455335346557" lon="12.379461587007867"><ele>42.0</ele><time>2026-04-18T13:34:27.003Z</time></trkpt><trkpt lat="44.07460937542116" lon="12.379659355578458"><ele>42.0</ele><time>2026-04-18T13:34:28.003Z</time></trkpt><trkpt lat="44.074654698597115" lon="12.37985565694506"><ele>42.333333333333336</ele><time>2026-04-18T13:34:29.003Z</time></trkpt><trkpt lat="44.07470158100997" lon="12.38006046072614"><ele>42.66666666666667</ele><time>2026-04-18T13:34:30.003Z</time></trkpt><trkpt lat="44.07474454621227" lon="12.380262609488943"><ele>43.0</ele><time>2026-04-18T13:34:31.003Z</time></trkpt><trkpt lat="44.074779648266386" lon="12.380471344163189"><ele>42.66666666666667</ele><time>2026-04-18T13:34:32.003Z</time></trkpt><trkpt lat="44.07481690320848" lon="12.380679833681874"><ele>42.333333333333336</ele><time>2026-04-18T13:34:33.003Z</time></trkpt><trkpt lat="44.07485173783648" lon="12.380886023380418"><ele>42.0</ele><time>2026-04-18T13:34:34.003Z</time></trkpt><trkpt lat="44.074885915645446" lon="12.381085686585315"><ele>42.0</ele><time>2026-04-18T13:34:35.003Z</time></trkpt><trkpt lat="44.07492298558613" lon="12.381291371383922"><ele>42.0</ele><time>2026-04-18T13:34:36.003Z</time></trkpt><trkpt lat="44.07495577727562" lon="12.381498030827116"><ele>42.0</ele><time>2026-04-18T13:34:37.003Z</time></trkpt><trkpt lat="44.074979424723885" lon="12.38169514140398"><ele>42.0</ele><time>2026-04-18T13:34:38.003Z</time></trkpt><trkpt lat="44.07500056419679" lon="12.381902683287196"><ele>42.0</ele><time>2026-04-18T13:34:39.003Z</time></trkpt><trkpt lat="44.0750124799854" lon="12.38211028909359"><ele>42.0</ele><time>2026-04-18T13:34:40.003Z</time></trkpt><trkpt lat="44.07502499880538" lon="12.382318868294659"><ele>42.0</ele><time>2026-04-18T13:34:41.003Z</time></trkpt><trkpt lat="44.07503767028229" lon="12.382530227970522"><ele>42.0</ele><time>2026-04-18T13:34:42.003Z</time></trkpt><trkpt lat="44.07505011005284" lon="12.38273419417961"><ele>42.0</ele><time>2026-04-18T13:34:43.003Z</time></trkpt><trkpt lat="44.07505708034988" lon="12.38294156005053"><ele>42.0</ele><time>2026-04-18T13:34:44.003Z</time></trkpt><trkpt lat="44.07506555072914" lon="12.383153607042257"><ele>42.0</ele><time>2026-04-18T13:34:45.003Z</time></trkpt><trkpt lat="44.07506480495536" lon="12.383361556599754"><ele>42.0</ele><time>2026-04-18T13:34:46.003Z</time></trkpt><trkpt lat="44.075063392464365" lon="12.383550475632626"><ele>42.0</ele><time>2026-04-18T13:34:47.003Z</time></trkpt><trkpt lat="44.075064223985336" lon="12.383720300501771"><ele>42.0</ele><time>2026-04-18T13:34:48.003Z</time></trkpt><trkpt lat="44.075071812148465" lon="12.383878697430932"><ele>42.0</ele><time>2026-04-18T13:34:49.003Z</time></trkpt><trkpt lat="44.07509199618012" lon="12.384018060342608"><ele>42.0</ele><time>2026-04-18T13:34:50.003Z</time></trkpt><trkpt lat="44.07512632195301" lon="12.384158910885041"><ele>42.0</ele><time>2026-04-18T13:34:51.003Z</time></trkpt><trkpt lat="44.07517555369244" lon="12.384288501547685"><ele>42.0</ele><time>2026-04-18T13:34:52.003Z</time></trkpt><trkpt lat="44.07524599506391" lon="12.384406454049222"><ele>42.0</ele><time>2026-04-18T13:34:53.003Z</time></trkpt><trkpt lat="44.07533614118393" lon="12.38449750668851"><ele>42.0</ele><time>2026-04-18T13:34:54.003Z</time></trkpt><trkpt lat="44.07545174622953" lon="12.384572026530776"><ele>42.0</ele><time>2026-04-18T13:34:55.003Z</time></trkpt><trkpt lat="44.07557472271458" lon="12.384639093838835"><ele>42.0</ele><time>2026-04-18T13:34:56.003Z</time></trkpt><trkpt lat="44.075710043899086" lon="12.384702330408567"><ele>42.0</ele><time>2026-04-18T13:34:57.003Z</time></trkpt><trkpt lat="44.07584730045587" lon="12.384764537880459"><ele>42.0</ele><time>2026-04-18T13:34:58.003Z</time></trkpt><trkpt lat="44.0759778533559" lon="12.384830107420779"><ele>41.75</ele><time>2026-04-18T13:34:59.003Z</time></trkpt><trkpt lat="44.07610770398008" lon="12.384902322223153"><ele>41.5</ele><time>2026-04-18T13:35:00.003Z</time></trkpt><trkpt lat="44.07622509570322" lon="12.384981021041792"><ele>41.25</ele><time>2026-04-18T13:35:01.003Z</time></trkpt><trkpt lat="44.076336757871054" lon="12.385062564104507"><ele>41.0</ele><time>2026-04-18T13:35:02.003Z</time></trkpt><trkpt lat="44.07644949488428" lon="12.38514555054926"><ele>41.0</ele><time>2026-04-18T13:35:03.003Z</time></trkpt><trkpt lat="44.07656319560426" lon="12.38522720243095"><ele>41.0</ele><time>2026-04-18T13:35:04.003Z</time></trkpt><trkpt lat="44.07667667125245" lon="12.385309012411895"><ele>41.0</ele><time>2026-04-18T13:35:05.003Z</time></trkpt><trkpt lat="44.0767923043328" lon="12.385392040370897"><ele>41.0</ele><time>2026-04-18T13:35:06.003Z</time></trkpt><trkpt lat="44.07691173019363" lon="12.385478315337288"><ele>41.75</ele><time>2026-04-18T13:35:07.003Z</time></trkpt><trkpt lat="44.07703439395263" lon="12.385556002554436"><ele>42.5</ele><time>2026-04-18T13:35:08.003Z</time></trkpt><trkpt lat="44.07715350980555" lon="12.38563937209162"><ele>43.25</ele><time>2026-04-18T13:35:09.003Z</time></trkpt><trkpt lat="44.07728493642847" lon="12.385738587069879"><ele>44.0</ele><time>2026-04-18T13:35:10.003Z</time></trkpt><trkpt lat="44.07741487950154" lon="12.38582578963142"><ele>43.0</ele><time>2026-04-18T13:35:11.003Z</time></trkpt><trkpt lat="44.07753833166067" lon="12.385914641254073"><ele>42.0</ele><time>2026-04-18T13:35:12.003Z</time></trkpt><trkpt lat="44.07765412206523" lon="12.386013864350067"><ele>41.0</ele><time>2026-04-18T13:35:13.003Z</time></trkpt><trkpt lat="44.07776450821695" lon="12.386133319621004"><ele>40.0</ele><time>2026-04-18T13:35:14.003Z</time></trkpt><trkpt lat="44.07788110801086" lon="12.386277049484352"><ele>39.75</ele><time>2026-04-18T13:35:15.003Z</time></trkpt><trkpt lat="44.077994690046" lon="12.386422456124368"><ele>39.5</ele><time>2026-04-18T13:35:16.003Z</time></trkpt><trkpt lat="44.0781013477626" lon="12.386565260246297"><ele>39.25</ele><time>2026-04-18T13:35:17.003Z</time></trkpt><trkpt lat="44.07820459894851" lon="12.386703954170656"><ele>39.0</ele><time>2026-04-18T13:35:18.003Z</time></trkpt><trkpt lat="44.07830545175189" lon="12.386848370351808"><ele>39.0</ele><time>2026-04-18T13:35:19.003Z</time></trkpt><trkpt lat="44.07839597870449" lon="12.386994304638103"><ele>39.0</ele><time>2026-04-18T13:35:20.003Z</time></trkpt><trkpt lat="44.078486527832396" lon="12.38713337921101"><ele>39.0</ele><time>2026-04-18T13:35:21.003Z</time></trkpt><trkpt lat="44.07857208660594" lon="12.387264960894878"><ele>39.0</ele><time>2026-04-18T13:35:22.003Z</time></trkpt><trkpt lat="44.07865086639093" lon="12.387403805279977"><ele>39.75</ele><time>2026-04-18T13:35:23.003Z</time></trkpt><trkpt lat="44.07871466347651" lon="12.387557172640877"><ele>40.5</ele><time>2026-04-18T13:35:24.003Z</time></trkpt><trkpt lat="44.07876166126467" lon="12.387733283955022"><ele>41.25</ele><time>2026-04-18T13:35:25.003Z</time></trkpt><trkpt lat="44.07879914555858" lon="12.38791563273258"><ele>42.0</ele><time>2026-04-18T13:35:26.003Z</time></trkpt><trkpt lat="44.0788284719606" lon="12.388096596531163"><ele>43.0</ele><time>2026-04-18T13:35:27.003Z</time></trkpt><trkpt lat="44.078857984904396" lon="12.388273178268228"><ele>44.0</ele><time>2026-04-18T13:35:28.003Z</time></trkpt><trkpt lat="44.07888562721663" lon="12.388447509034101"><ele>45.0</ele><time>2026-04-18T13:35:29.003Z</time></trkpt><trkpt lat="44.07890794457711" lon="12.38861599324453"><ele>46.0</ele><time>2026-04-18T13:35:30.004Z</time></trkpt><trkpt lat="44.07893449487567" lon="12.388777908965528"><ele>46.0</ele><time>2026-04-18T13:35:31.003Z</time></trkpt><trkpt lat="44.07895794849114" lon="12.388925935683229"><ele>46.0</ele><time>2026-04-18T13:35:32.003Z</time></trkpt><trkpt lat="44.07896337059847" lon="12.389051892639724"><ele>46.0</ele><time>2026-04-18T13:35:33.003Z</time></trkpt><trkpt lat="44.07895106943695" lon="12.389151893627924"><ele>46.0</ele><time>2026-04-18T13:35:34.004Z</time></trkpt><trkpt lat="44.07887883123088" lon="12.389262071263033"><ele>46.0</ele><time>2026-04-18T13:35:36.003Z</time></trkpt><trkpt lat="44.07887239861946" lon="12.389394613944356"><ele>46.0</ele><time>2026-04-18T13:35:50.004Z</time></trkpt><trkpt lat="44.07895154501434" lon="12.38953437516861"><ele>46.0</ele><time>2026-04-18T13:35:52.004Z</time></trkpt><trkpt lat="44.079034471765894" lon="12.389611305777406"><ele>46.0</ele><time>2026-04-18T13:35:53.004Z</time></trkpt><trkpt lat="44.07913189251294" lon="12.389693217887427"><ele>46.0</ele><time>2026-04-18T13:35:54.004Z</time></trkpt><trkpt lat="44.079231916240055" lon="12.389771837466085"><ele>46.0</ele><time>2026-04-18T13:35:55.004Z</time></trkpt><trkpt lat="44.07934595416788" lon="12.389854121157171"><ele>46.0</ele><time>2026-04-18T13:35:56.004Z</time></trkpt><trkpt lat="44.07946010678619" lon="12.389936826225664"><ele>46.0</ele><time>2026-04-18T13:35:57.004Z</time></trkpt><trkpt lat="44.07957352838747" lon="12.390009190375537"><ele>46.0</ele><time>2026-04-18T13:35:58.004Z</time></trkpt><trkpt lat="44.07968230407597" lon="12.39006577106365"><ele>46.0</ele><time>2026-04-18T13:35:59.004Z</time></trkpt><trkpt lat="44.07980607544805" lon="12.390113260624679"><ele>46.0</ele><time>2026-04-18T13:36:00.004Z</time></trkpt><trkpt lat="44.0799339686181" lon="12.390156964688002"><ele>46.0</ele><time>2026-04-18T13:36:01.004Z</time></trkpt><trkpt lat="44.08005793112014" lon="12.390192843842692"><ele>46.0</ele><time>2026-04-18T13:36:02.004Z</time></trkpt><trkpt lat="44.08019206754462" lon="12.390219372089437"><ele>45.75</ele><time>2026-04-18T13:36:03.004Z</time></trkpt><trkpt lat="44.08032007954656" lon="12.390237426072309"><ele>45.5</ele><time>2026-04-18T13:36:04.004Z</time></trkpt><trkpt lat="44.08045881734232" lon="12.390241158802226"><ele>45.25</ele><time>2026-04-18T13:36:05.004Z</time></trkpt><trkpt lat="44.080605428697595" lon="12.390236003396803"><ele>45.0</ele><time>2026-04-18T13:36:06.004Z</time></trkpt><trkpt lat="44.080755234114164" lon="12.390217311065364"><ele>43.666666666666664</ele><time>2026-04-18T13:36:07.004Z</time></trkpt><trkpt lat="44.08091237130749" lon="12.390186645283146"><ele>42.33333333333333</ele><time>2026-04-18T13:36:08.004Z</time></trkpt><trkpt lat="44.081077702058266" lon="12.390156508735686"><ele>41.0</ele><time>2026-04-18T13:36:09.004Z</time></trkpt><trkpt lat="44.08124975937495" lon="12.39012430358227"><ele>41.0</ele><time>2026-04-18T13:36:10.004Z</time></trkpt><trkpt lat="44.08142681834479" lon="12.390087429564014"><ele>41.0</ele><time>2026-04-18T13:36:11.004Z</time></trkpt><trkpt lat="44.08160199612664" lon="12.390051914214064"><ele>41.0</ele><time>2026-04-18T13:36:12.004Z</time></trkpt><trkpt lat="44.081773265861315" lon="12.390021104506166"><ele>39.666666666666664</ele><time>2026-04-18T13:36:13.004Z</time></trkpt><trkpt lat="44.08193921248599" lon="12.389985240303202"><ele>38.333333333333336</ele><time>2026-04-18T13:36:14.004Z</time></trkpt><trkpt lat="44.08209801208585" lon="12.3899496069539"><ele>37.0</ele><time>2026-04-18T13:36:15.004Z</time></trkpt><trkpt lat="44.08225265205278" lon="12.389919724033499"><ele>37.0</ele><time>2026-04-18T13:36:16.004Z</time></trkpt><trkpt lat="44.08241418163395" lon="12.389889561328744"><ele>37.0</ele><time>2026-04-18T13:36:17.004Z</time></trkpt><trkpt lat="44.08257384467884" lon="12.389857054307527"><ele>37.0</ele><time>2026-04-18T13:36:18.004Z</time></trkpt><trkpt lat="44.08273272881914" lon="12.389826668854733"><ele>36.333333333333336</ele><time>2026-04-18T13:36:19.004Z</time></trkpt><trkpt lat="44.082893880465164" lon="12.389794731168035"><ele>35.666666666666664</ele><time>2026-04-18T13:36:20.004Z</time></trkpt><trkpt lat="44.08304810823012" lon="12.389760757939174"><ele>35.0</ele><time>2026-04-18T13:36:21.004Z</time></trkpt><trkpt lat="44.083198438438046" lon="12.389729357583802"><ele>34.5</ele><time>2026-04-18T13:36:22.004Z</time></trkpt><trkpt lat="44.08334174584914" lon="12.389699765604304"><ele>34.0</ele><time>2026-04-18T13:36:23.004Z</time></trkpt><trkpt lat="44.08348023224994" lon="12.389668164606311"><ele>33.5</ele><time>2026-04-18T13:36:24.004Z</time></trkpt><trkpt lat="44.08361797246403" lon="12.389640686915282"><ele>33.0</ele><time>2026-04-18T13:36:25.004Z</time></trkpt><trkpt lat="44.083763382284445" lon="12.389612430505503"><ele>33.0</ele><time>2026-04-18T13:36:26.004Z</time></trkpt><trkpt lat="44.08390752173671" lon="12.38958039876353"><ele>33.0</ele><time>2026-04-18T13:36:27.004Z</time></trkpt><trkpt lat="44.08405900894737" lon="12.389551533428888"><ele>33.0</ele><time>2026-04-18T13:36:28.004Z</time></trkpt><trkpt lat="44.08420978064204" lon="12.389524830833228"><ele>33.0</ele><time>2026-04-18T13:36:29.004Z</time></trkpt><trkpt lat="44.084359868948205" lon="12.38949908442633"><ele>33.0</ele><time>2026-04-18T13:36:30.004Z</time></trkpt><trkpt lat="44.08451423108661" lon="12.389476000152234"><ele>33.0</ele><time>2026-04-18T13:36:31.004Z</time></trkpt><trkpt lat="44.08466431681336" lon="12.389460059300388"><ele>33.0</ele><time>2026-04-18T13:36:32.004Z</time></trkpt><trkpt lat="44.08481106584528" lon="12.38945567065142"><ele>33.0</ele><time>2026-04-18T13:36:33.004Z</time></trkpt><trkpt lat="44.08495790948693" lon="12.389464573530157"><ele>33.0</ele><time>2026-04-18T13:36:34.004Z</time></trkpt><trkpt lat="44.08510807651348" lon="12.389480967176613"><ele>33.0</ele><time>2026-04-18T13:36:35.004Z</time></trkpt><trkpt lat="44.08526070452073" lon="12.38949975057413"><ele>33.333333333333336</ele><time>2026-04-18T13:36:36.004Z</time></trkpt><trkpt lat="44.0854125518822" lon="12.389526707023489"><ele>33.66666666666667</ele><time>2026-04-18T13:36:37.004Z</time></trkpt><trkpt lat="44.085565451893245" lon="12.389563867315234"><ele>34.0</ele><time>2026-04-18T13:36:38.004Z</time></trkpt><trkpt lat="44.08572003672181" lon="12.389618812626768"><ele>34.5</ele><time>2026-04-18T13:36:39.004Z</time></trkpt><trkpt lat="44.08585328378002" lon="12.38968177681675"><ele>35.0</ele><time>2026-04-18T13:36:40.004Z</time></trkpt><trkpt lat="44.085986734233565" lon="12.389751007458102"><ele>35.5</ele><time>2026-04-18T13:36:41.004Z</time></trkpt><trkpt lat="44.08611187716174" lon="12.389813403366066"><ele>36.0</ele><time>2026-04-18T13:36:42.004Z</time></trkpt><trkpt lat="44.086237253300126" lon="12.38988864262599"><ele>36.0</ele><time>2026-04-18T13:36:43.004Z</time></trkpt><trkpt lat="44.08635924805738" lon="12.389958343713461"><ele>36.0</ele><time>2026-04-18T13:36:44.004Z</time></trkpt><trkpt lat="44.086477257938064" lon="12.390029269693185"><ele>36.0</ele><time>2026-04-18T13:36:45.004Z</time></trkpt><trkpt lat="44.08660490771547" lon="12.390088111572986"><ele>36.0</ele><time>2026-04-18T13:36:46.004Z</time></trkpt><trkpt lat="44.08672166049589" lon="12.39015424106322"><ele>36.0</ele><time>2026-04-18T13:36:47.004Z</time></trkpt><trkpt lat="44.08683736316361" lon="12.390216909333958"><ele>36.0</ele><time>2026-04-18T13:36:48.004Z</time></trkpt><trkpt lat="44.086957894539225" lon="12.390279625485132"><ele>36.0</ele><time>2026-04-18T13:36:49.004Z</time></trkpt><trkpt lat="44.08708607582718" lon="12.39034571925686"><ele>36.0</ele><time>2026-04-18T13:36:50.004Z</time></trkpt><trkpt lat="44.08722098094669" lon="12.390411418677783"><ele>36.0</ele><time>2026-04-18T13:36:51.004Z</time></trkpt><trkpt lat="44.08735072784408" lon="12.39048232110062"><ele>36.0</ele><time>2026-04-18T13:36:52.004Z</time></trkpt><trkpt lat="44.08747970006332" lon="12.390544951283006"><ele>36.0</ele><time>2026-04-18T13:36:53.004Z</time></trkpt><trkpt lat="44.08760179313814" lon="12.390610443851882"><ele>36.0</ele><time>2026-04-18T13:36:54.004Z</time></trkpt><trkpt lat="44.08772864133943" lon="12.39068304204072"><ele>35.5</ele><time>2026-04-18T13:36:55.004Z</time></trkpt><trkpt lat="44.08787230235373" lon="12.39076489555571"><ele>35.0</ele><time>2026-04-18T13:36:56.004Z</time></trkpt><trkpt lat="44.08800095732687" lon="12.390835577850588"><ele>34.5</ele><time>2026-04-18T13:36:57.004Z</time></trkpt><trkpt lat="44.088136019536165" lon="12.390905647842546"><ele>34.0</ele><time>2026-04-18T13:36:58.004Z</time></trkpt><trkpt lat="44.08826808500668" lon="12.390959960792648"><ele>34.0</ele><time>2026-04-18T13:36:59.004Z</time></trkpt><trkpt lat="44.08839267706191" lon="12.391011799321602"><ele>34.0</ele><time>2026-04-18T13:37:00.004Z</time></trkpt><trkpt lat="44.08850298162934" lon="12.391065711912516"><ele>34.0</ele><time>2026-04-18T13:37:01.004Z</time></trkpt><trkpt lat="44.08861192318084" lon="12.391106274608264"><ele>34.0</ele><time>2026-04-18T13:37:02.004Z</time></trkpt><trkpt lat="44.08871941296759" lon="12.391130293545775"><ele>34.0</ele><time>2026-04-18T13:37:03.004Z</time></trkpt><trkpt lat="44.08883790569476" lon="12.391153323773384"><ele>34.0</ele><time>2026-04-18T13:37:04.004Z</time></trkpt><trkpt lat="44.08896580766277" lon="12.391170172423546"><ele>34.0</ele><time>2026-04-18T13:37:05.004Z</time></trkpt><trkpt lat="44.08909098484296" lon="12.391185955622852"><ele>34.0</ele><time>2026-04-18T13:37:06.004Z</time></trkpt><trkpt lat="44.08921761245544" lon="12.391199207212296"><ele>34.25</ele><time>2026-04-18T13:37:07.004Z</time></trkpt><trkpt lat="44.08934075695016" lon="12.39120273043383"><ele>34.5</ele><time>2026-04-18T13:37:08.004Z</time></trkpt><trkpt lat="44.089457062730375" lon="12.391198961952897"><ele>34.75</ele><time>2026-04-18T13:37:09.004Z</time></trkpt><trkpt lat="44.08958400481215" lon="12.391185077028"><ele>35.0</ele><time>2026-04-18T13:37:10.004Z</time></trkpt><trkpt lat="44.08971226235634" lon="12.39116788076947"><ele>35.0</ele><time>2026-04-18T13:37:11.004Z</time></trkpt><trkpt lat="44.08984385995423" lon="12.391153523218213"><ele>35.0</ele><time>2026-04-18T13:37:12.004Z</time></trkpt><trkpt lat="44.08995299633685" lon="12.39114183512173"><ele>35.0</ele><time>2026-04-18T13:37:13.004Z</time></trkpt><trkpt lat="44.09006194857688" lon="12.3911293566174"><ele>35.0</ele><time>2026-04-18T13:37:14.004Z</time></trkpt><trkpt lat="44.09016702869067" lon="12.391109948776883"><ele>34.666666666666664</ele><time>2026-04-18T13:37:15.004Z</time></trkpt><trkpt lat="44.090269102982255" lon="12.391102193443256"><ele>34.33333333333333</ele><time>2026-04-18T13:37:16.004Z</time></trkpt><trkpt lat="44.09035443266211" lon="12.391085804127409"><ele>34.0</ele><time>2026-04-18T13:37:17.004Z</time></trkpt><trkpt lat="44.090442698512504" lon="12.391080784423432"><ele>33.666666666666664</ele><time>2026-04-18T13:37:18.004Z</time></trkpt><trkpt lat="44.09053025990093" lon="12.391078196982338"><ele>33.333333333333336</ele><time>2026-04-18T13:37:19.004Z</time></trkpt><trkpt lat="44.09060822412278" lon="12.39107172565628"><ele>33.0</ele><time>2026-04-18T13:37:20.004Z</time></trkpt><trkpt lat="44.09068151459752" lon="12.391066873933582"><ele>33.166666666666664</ele><time>2026-04-18T13:37:21.004Z</time></trkpt><trkpt lat="44.09075887466258" lon="12.391065970506407"><ele>33.333333333333336</ele><time>2026-04-18T13:37:22.004Z</time></trkpt><trkpt lat="44.09083281132817" lon="12.391050943542913"><ele>33.5</ele><time>2026-04-18T13:37:23.004Z</time></trkpt><trkpt lat="44.09091472895501" lon="12.391049280758667"><ele>33.66666666666667</ele><time>2026-04-18T13:37:24.004Z</time></trkpt><trkpt lat="44.09099229006132" lon="12.391043980028966"><ele>33.833333333333336</ele><time>2026-04-18T13:37:25.004Z</time></trkpt><trkpt lat="44.09106701822279" lon="12.391039561499802"><ele>34.0</ele><time>2026-04-18T13:37:26.004Z</time></trkpt><trkpt lat="44.091135518874005" lon="12.391036483916803"><ele>34.0</ele><time>2026-04-18T13:37:27.004Z</time></trkpt><trkpt lat="44.09125339748305" lon="12.391062795376321"><ele>34.0</ele><time>2026-04-18T13:37:29.004Z</time></trkpt><trkpt lat="44.09136954005336" lon="12.391122273518434"><ele>34.0</ele><time>2026-04-18T13:37:31.004Z</time></trkpt><trkpt lat="44.09143406083656" lon="12.391105812396713"><ele>34.0</ele><time>2026-04-18T13:37:32.004Z</time></trkpt><trkpt lat="44.09149511305209" lon="12.391053177653575"><ele>34.0</ele><time>2026-04-18T13:37:33.003Z</time></trkpt><trkpt lat="44.09156090641837" lon="12.391005684143696"><ele>33.6</ele><time>2026-04-18T13:37:34.003Z</time></trkpt><trkpt lat="44.09163229490297" lon="12.390987581569716"><ele>33.2</ele><time>2026-04-18T13:37:35.003Z</time></trkpt><trkpt lat="44.09170458992082" lon="12.39097398226294"><ele>32.800000000000004</ele><time>2026-04-18T13:37:36.003Z</time></trkpt><trkpt lat="44.09177112860076" lon="12.390973620867896"><ele>32.4</ele><time>2026-04-18T13:37:37.003Z</time></trkpt><trkpt lat="44.09188531861437" lon="12.390998271577603"><ele>32.0</ele><time>2026-04-18T13:37:39.004Z</time></trkpt><trkpt lat="44.09200660386904" lon="12.391074358135105"><ele>32.0</ele><time>2026-04-18T13:37:41.003Z</time></trkpt><trkpt lat="44.09208378670711" lon="12.391128107397249"><ele>32.0</ele><time>2026-04-18T13:37:42.003Z</time></trkpt><trkpt lat="44.09216066812679" lon="12.391167925079818"><ele>32.0</ele><time>2026-04-18T13:37:43.003Z</time></trkpt><trkpt lat="44.09225178629379" lon="12.39115794289548"><ele>32.0</ele><time>2026-04-18T13:37:44.003Z</time></trkpt><trkpt lat="44.09234450050862" lon="12.391120255258539"><ele>32.0</ele><time>2026-04-18T13:37:45.003Z</time></trkpt><trkpt lat="44.092430617442155" lon="12.39105606237372"><ele>32.0</ele><time>2026-04-18T13:37:46.003Z</time></trkpt><trkpt lat="44.09253749249661" lon="12.390985747729978"><ele>32.0</ele><time>2026-04-18T13:37:47.003Z</time></trkpt><trkpt lat="44.09263590506179" lon="12.390920005241183"><ele>32.0</ele><time>2026-04-18T13:37:48.003Z</time></trkpt><trkpt lat="44.09274703141942" lon="12.390891725289835"><ele>32.0</ele><time>2026-04-18T13:37:49.003Z</time></trkpt><trkpt lat="44.09286480023013" lon="12.390870677714751"><ele>32.0</ele><time>2026-04-18T13:37:50.003Z</time></trkpt><trkpt lat="44.0929935989573" lon="12.390851230603358"><ele>32.0</ele><time>2026-04-18T13:37:51.003Z</time></trkpt><trkpt lat="44.09313144918913" lon="12.390834262389063"><ele>32.0</ele><time>2026-04-18T13:37:52.003Z</time></trkpt><trkpt lat="44.09326854750719" lon="12.390816192568428"><ele>32.0</ele><time>2026-04-18T13:37:53.003Z</time></trkpt><trkpt lat="44.09339105542242" lon="12.390795816335997"><ele>32.75</ele><time>2026-04-18T13:37:54.003Z</time></trkpt><trkpt lat="44.09351845844706" lon="12.390779525297631"><ele>33.5</ele><time>2026-04-18T13:37:55.003Z</time></trkpt><trkpt lat="44.093666644314794" lon="12.390746294224018"><ele>34.25</ele><time>2026-04-18T13:37:56.003Z</time></trkpt><trkpt lat="44.09381129123717" lon="12.390712132494423"><ele>35.0</ele><time>2026-04-18T13:37:57.003Z</time></trkpt><trkpt lat="44.09396794002019" lon="12.390678827075455"><ele>35.0</ele><time>2026-04-18T13:37:58.003Z</time></trkpt><trkpt lat="44.094117790132024" lon="12.39065245646131"><ele>35.0</ele><time>2026-04-18T13:37:59.003Z</time></trkpt><trkpt lat="44.09428420629057" lon="12.390626105727275"><ele>35.0</ele><time>2026-04-18T13:38:00.003Z</time></trkpt><trkpt lat="44.094453516060774" lon="12.390589744946016"><ele>35.0</ele><time>2026-04-18T13:38:01.003Z</time></trkpt><trkpt lat="44.09462472296458" lon="12.390554372395831"><ele>35.0</ele><time>2026-04-18T13:38:02.003Z</time></trkpt><trkpt lat="44.0947877901393" lon="12.390528948618474"><ele>35.0</ele><time>2026-04-18T13:38:03.003Z</time></trkpt><trkpt lat="44.09494248175761" lon="12.390512157731159"><ele>33.0</ele><time>2026-04-18T13:38:04.003Z</time></trkpt><trkpt lat="44.09509921607174" lon="12.390490404179552"><ele>31.0</ele><time>2026-04-18T13:38:05.003Z</time></trkpt><trkpt lat="44.09525028761841" lon="12.390465199067195"><ele>29.0</ele><time>2026-04-18T13:38:06.003Z</time></trkpt><trkpt lat="44.09539800532798" lon="12.390439040943072"><ele>29.0</ele><time>2026-04-18T13:38:07.003Z</time></trkpt><trkpt lat="44.09555025046432" lon="12.39041334190277"><ele>29.0</ele><time>2026-04-18T13:38:08.003Z</time></trkpt><trkpt lat="44.09570510584392" lon="12.390390849570599"><ele>29.0</ele><time>2026-04-18T13:38:09.003Z</time></trkpt><trkpt lat="44.09586844776199" lon="12.390368576881079"><ele>29.0</ele><time>2026-04-18T13:38:10.003Z</time></trkpt><trkpt lat="44.09603115309788" lon="12.390344254974588"><ele>29.0</ele><time>2026-04-18T13:38:11.003Z</time></trkpt><trkpt lat="44.096194424705494" lon="12.390319277217872"><ele>29.0</ele><time>2026-04-18T13:38:12.003Z</time></trkpt><trkpt lat="44.09635636572061" lon="12.390293813882344"><ele>29.0</ele><time>2026-04-18T13:38:13.003Z</time></trkpt><trkpt lat="44.09651188373422" lon="12.390272188645712"><ele>29.0</ele><time>2026-04-18T13:38:14.003Z</time></trkpt><trkpt lat="44.09666864131163" lon="12.390251791135144"><ele>29.0</ele><time>2026-04-18T13:38:15.003Z</time></trkpt><trkpt lat="44.09683263624751" lon="12.390231875265375"><ele>29.0</ele><time>2026-04-18T13:38:16.003Z</time></trkpt><trkpt lat="44.097001848571914" lon="12.3902057314355"><ele>29.0</ele><time>2026-04-18T13:38:17.003Z</time></trkpt><trkpt lat="44.09717484900366" lon="12.390179017226455"><ele>29.0</ele><time>2026-04-18T13:38:18.003Z</time></trkpt><trkpt lat="44.097342541982904" lon="12.390148794178709"><ele>28.333333333333332</ele><time>2026-04-18T13:38:19.003Z</time></trkpt><trkpt lat="44.09751963041995" lon="12.390112907306088"><ele>27.666666666666664</ele><time>2026-04-18T13:38:20.003Z</time></trkpt><trkpt lat="44.09768220694534" lon="12.390097574945957"><ele>27.0</ele><time>2026-04-18T13:38:21.003Z</time></trkpt><trkpt lat="44.09784800778051" lon="12.390071747878382"><ele>27.0</ele><time>2026-04-18T13:38:22.003Z</time></trkpt><trkpt lat="44.09801796051203" lon="12.39003728999353"><ele>27.0</ele><time>2026-04-18T13:38:23.003Z</time></trkpt><trkpt lat="44.09817816376911" lon="12.390011040314262"><ele>27.0</ele><time>2026-04-18T13:38:24.003Z</time></trkpt><trkpt lat="44.09834024571441" lon="12.389986806672972"><ele>27.0</ele><time>2026-04-18T13:38:25.003Z</time></trkpt><trkpt lat="44.09850275134876" lon="12.389958199204022"><ele>27.0</ele><time>2026-04-18T13:38:26.003Z</time></trkpt><trkpt lat="44.098663834388574" lon="12.389935367183567"><ele>27.0</ele><time>2026-04-18T13:38:27.003Z</time></trkpt><trkpt lat="44.09882016027045" lon="12.389913330227976"><ele>27.0</ele><time>2026-04-18T13:38:28.003Z</time></trkpt><trkpt lat="44.09897530873558" lon="12.389885685362882"><ele>27.0</ele><time>2026-04-18T13:38:29.003Z</time></trkpt><trkpt lat="44.09912855356768" lon="12.389862153260628"><ele>27.0</ele><time>2026-04-18T13:38:30.003Z</time></trkpt><trkpt lat="44.09928550536744" lon="12.389830677604364"><ele>26.666666666666664</ele><time>2026-04-18T13:38:31.003Z</time></trkpt><trkpt lat="44.09944979782707" lon="12.389799735586816"><ele>26.333333333333332</ele><time>2026-04-18T13:38:32.003Z</time></trkpt><trkpt lat="44.099610466249665" lon="12.389774297529069"><ele>26.0</ele><time>2026-04-18T13:38:33.003Z</time></trkpt><trkpt lat="44.09977176302188" lon="12.389745750736441"><ele>25.666666666666664</ele><time>2026-04-18T13:38:34.003Z</time></trkpt><trkpt lat="44.099923105951994" lon="12.389717320475498"><ele>25.333333333333336</ele><time>2026-04-18T13:38:35.003Z</time></trkpt><trkpt lat="44.100074451581484" lon="12.389686532593807"><ele>25.0</ele><time>2026-04-18T13:38:36.003Z</time></trkpt><trkpt lat="44.10022889411349" lon="12.389655043449439"><ele>24.666666666666668</ele><time>2026-04-18T13:38:37.003Z</time></trkpt><trkpt lat="44.1003803598093" lon="12.38962802041917"><ele>24.333333333333336</ele><time>2026-04-18T13:38:38.003Z</time></trkpt><trkpt lat="44.10053223208346" lon="12.389598761708115"><ele>24.0</ele><time>2026-04-18T13:38:39.003Z</time></trkpt><trkpt lat="44.100682218579315" lon="12.389570753471318"><ele>23.666666666666668</ele><time>2026-04-18T13:38:40.003Z</time></trkpt><trkpt lat="44.10083737425944" lon="12.389546516522635"><ele>23.333333333333336</ele><time>2026-04-18T13:38:41.003Z</time></trkpt><trkpt lat="44.100986940726" lon="12.389518807460565"><ele>23.0</ele><time>2026-04-18T13:38:42.003Z</time></trkpt><trkpt lat="44.10114513015186" lon="12.389499139788"><ele>23.0</ele><time>2026-04-18T13:38:43.003Z</time></trkpt><trkpt lat="44.101306876116965" lon="12.389487531544747"><ele>23.0</ele><time>2026-04-18T13:38:44.003Z</time></trkpt><trkpt lat="44.10146842507197" lon="12.389487102017974"><ele>23.0</ele><time>2026-04-18T13:38:45.003Z</time></trkpt><trkpt lat="44.101632281573124" lon="12.389496091236001"><ele>22.333333333333336</ele><time>2026-04-18T13:38:46.003Z</time></trkpt><trkpt lat="44.101791830943384" lon="12.38951080948897"><ele>21.666666666666668</ele><time>2026-04-18T13:38:47.003Z</time></trkpt><trkpt lat="44.101949294374755" lon="12.38952636417517"><ele>21.0</ele><time>2026-04-18T13:38:48.003Z</time></trkpt><trkpt lat="44.10209709578344" lon="12.389544077125475"><ele>21.0</ele><time>2026-04-18T13:38:49.003Z</time></trkpt><trkpt lat="44.102239603397216" lon="12.389559585100725"><ele>21.0</ele><time>2026-04-18T13:38:50.003Z</time></trkpt><trkpt lat="44.102388008311756" lon="12.389564985207823"><ele>21.0</ele><time>2026-04-18T13:38:51.003Z</time></trkpt><trkpt lat="44.10254645935678" lon="12.389569573644259"><ele>21.75</ele><time>2026-04-18T13:38:52.003Z</time></trkpt><trkpt lat="44.10269774170908" lon="12.389564245831059"><ele>22.5</ele><time>2026-04-18T13:38:53.003Z</time></trkpt><trkpt lat="44.10284452080108" lon="12.389552859994591"><ele>23.25</ele><time>2026-04-18T13:38:54.003Z</time></trkpt><trkpt lat="44.102982706701276" lon="12.389536496119355"><ele>24.0</ele><time>2026-04-18T13:38:55.003Z</time></trkpt><trkpt lat="44.103108219674965" lon="12.389522264481402"><ele>24.0</ele><time>2026-04-18T13:38:56.003Z</time></trkpt><trkpt lat="44.1032290583975" lon="12.389507917311679"><ele>24.0</ele><time>2026-04-18T13:38:57.003Z</time></trkpt><trkpt lat="44.103352258786146" lon="12.389491074668934"><ele>24.0</ele><time>2026-04-18T13:38:58.003Z</time></trkpt><trkpt lat="44.10346550490714" lon="12.38947811920762"><ele>24.0</ele><time>2026-04-18T13:38:59.003Z</time></trkpt><trkpt lat="44.10357535872141" lon="12.389461139741243"><ele>24.0</ele><time>2026-04-18T13:39:00.003Z</time></trkpt><trkpt lat="44.103679595156855" lon="12.389446483949394"><ele>24.0</ele><time>2026-04-18T13:39:01.003Z</time></trkpt><trkpt lat="44.10379657538614" lon="12.389425167485378"><ele>24.0</ele><time>2026-04-18T13:39:02.003Z</time></trkpt><trkpt lat="44.10391034765186" lon="12.389416067045607"><ele>24.0</ele><time>2026-04-18T13:39:03.003Z</time></trkpt><trkpt lat="44.10402004300559" lon="12.389413980229353"><ele>24.0</ele><time>2026-04-18T13:39:04.003Z</time></trkpt><trkpt lat="44.10413088710542" lon="12.389416993930832"><ele>24.0</ele><time>2026-04-18T13:39:05.003Z</time></trkpt><trkpt lat="44.1042284479824" lon="12.38941025671447"><ele>24.0</ele><time>2026-04-18T13:39:06.003Z</time></trkpt><trkpt lat="44.10432309092293" lon="12.389401170500811"><ele>24.0</ele><time>2026-04-18T13:39:07.003Z</time></trkpt><trkpt lat="44.10442277983426" lon="12.389397603719853"><ele>24.0</ele><time>2026-04-18T13:39:08.003Z</time></trkpt><trkpt lat="44.104526822656844" lon="12.38938279863935"><ele>24.0</ele><time>2026-04-18T13:39:09.003Z</time></trkpt><trkpt lat="44.10461897662838" lon="12.389372544811097"><ele>24.0</ele><time>2026-04-18T13:39:10.003Z</time></trkpt><trkpt lat="44.10471272290937" lon="12.38937435534007"><ele>24.0</ele><time>2026-04-18T13:39:11.003Z</time></trkpt><trkpt lat="44.10480666605865" lon="12.389403041623316"><ele>24.0</ele><time>2026-04-18T13:39:12.003Z</time></trkpt><trkpt lat="44.104908377036246" lon="12.389441341749402"><ele>24.0</ele><time>2026-04-18T13:39:13.003Z</time></trkpt><trkpt lat="44.10499774670538" lon="12.389472370435717"><ele>24.0</ele><time>2026-04-18T13:39:14.003Z</time></trkpt><trkpt lat="44.1050906975052" lon="12.38947956309549"><ele>23.799999999999997</ele><time>2026-04-18T13:39:15.003Z</time></trkpt><trkpt lat="44.10518650522118" lon="12.389446745802045"><ele>23.599999999999998</ele><time>2026-04-18T13:39:16.004Z</time></trkpt><trkpt lat="44.1052870814202" lon="12.389369464483169"><ele>23.4</ele><time>2026-04-18T13:39:17.004Z</time></trkpt><trkpt lat="44.10537983011617" lon="12.389272833119593"><ele>23.2</ele><time>2026-04-18T13:39:18.004Z</time></trkpt><trkpt lat="44.105469313463445" lon="12.389171691889198"><ele>23.0</ele><time>2026-04-18T13:39:19.004Z</time></trkpt><trkpt lat="44.105583634143464" lon="12.38910224875091"><ele>23.0</ele><time>2026-04-18T13:39:20.004Z</time></trkpt><trkpt lat="44.10570671408447" lon="12.389063375963843"><ele>23.0</ele><time>2026-04-18T13:39:21.004Z</time></trkpt><trkpt lat="44.10583693027571" lon="12.389031469221646"><ele>23.0</ele><time>2026-04-18T13:39:22.004Z</time></trkpt><trkpt lat="44.105975149388044" lon="12.38900110560032"><ele>23.0</ele><time>2026-04-18T13:39:23.004Z</time></trkpt><trkpt lat="44.106120410722575" lon="12.388958193955407"><ele>23.0</ele><time>2026-04-18T13:39:24.004Z</time></trkpt><trkpt lat="44.10626788426776" lon="12.388915259672048"><ele>23.0</ele><time>2026-04-18T13:39:25.004Z</time></trkpt><trkpt lat="44.10641018356864" lon="12.388876212263643"><ele>23.0</ele><time>2026-04-18T13:39:26.004Z</time></trkpt><trkpt lat="44.10655803387791" lon="12.388836333515956"><ele>23.0</ele><time>2026-04-18T13:39:27.004Z</time></trkpt><trkpt lat="44.106708070555406" lon="12.388801779076587"><ele>22.333333333333336</ele><time>2026-04-18T13:39:28.004Z</time></trkpt><trkpt lat="44.106858006755274" lon="12.388766504354175"><ele>21.666666666666668</ele><time>2026-04-18T13:39:29.004Z</time></trkpt><trkpt lat="44.10701095839696" lon="12.388729222684091"><ele>21.0</ele><time>2026-04-18T13:39:30.004Z</time></trkpt><trkpt lat="44.10715661027423" lon="12.388682266505812"><ele>21.0</ele><time>2026-04-18T13:39:31.004Z</time></trkpt><trkpt lat="44.10731382365503" lon="12.388638223330418"><ele>21.0</ele><time>2026-04-18T13:39:32.004Z</time></trkpt><trkpt lat="44.107469114457686" lon="12.388595302316233"><ele>21.0</ele><time>2026-04-18T13:39:33.004Z</time></trkpt><trkpt lat="44.10762511332602" lon="12.388553212211152"><ele>20.333333333333332</ele><time>2026-04-18T13:39:34.004Z</time></trkpt><trkpt lat="44.10777780112927" lon="12.388512770905072"><ele>19.666666666666664</ele><time>2026-04-18T13:39:35.004Z</time></trkpt><trkpt lat="44.10792974995684" lon="12.388468540738515"><ele>19.0</ele><time>2026-04-18T13:39:36.004Z</time></trkpt><trkpt lat="44.10807671964445" lon="12.388426868003114"><ele>19.0</ele><time>2026-04-18T13:39:37.004Z</time></trkpt><trkpt lat="44.10822548064767" lon="12.38838011963745"><ele>19.0</ele><time>2026-04-18T13:39:38.004Z</time></trkpt><trkpt lat="44.10837146485075" lon="12.38833882465719"><ele>19.0</ele><time>2026-04-18T13:39:39.003Z</time></trkpt><trkpt lat="44.108507314002765" lon="12.388303256848653"><ele>19.0</ele><time>2026-04-18T13:39:40.003Z</time></trkpt><trkpt lat="44.10863862623938" lon="12.388268832013287"><ele>19.25</ele><time>2026-04-18T13:39:41.003Z</time></trkpt><trkpt lat="44.10876234524729" lon="12.3882348402268"><ele>19.5</ele><time>2026-04-18T13:39:42.002Z</time></trkpt><trkpt lat="44.10888093487207" lon="12.388207147367115"><ele>19.75</ele><time>2026-04-18T13:39:43.003Z</time></trkpt><trkpt lat="44.10899009335134" lon="12.388182875869035"><ele>20.0</ele><time>2026-04-18T13:39:44.003Z</time></trkpt><trkpt lat="44.109091498449004" lon="12.388160438844523"><ele>19.6</ele><time>2026-04-18T13:39:45.002Z</time></trkpt><trkpt lat="44.109187212419634" lon="12.388149509968933"><ele>19.2</ele><time>2026-04-18T13:39:46.002Z</time></trkpt><trkpt lat="44.10927584295378" lon="12.388149714063742"><ele>18.8</ele><time>2026-04-18T13:39:47.002Z</time></trkpt><trkpt lat="44.109363412888996" lon="12.388153094901034"><ele>18.4</ele><time>2026-04-18T13:39:48.003Z</time></trkpt><trkpt lat="44.1094559457309" lon="12.38817722754189"><ele>18.0</ele><time>2026-04-18T13:39:49.002Z</time></trkpt><trkpt lat="44.10954750135332" lon="12.388204140901559"><ele>18.0</ele><time>2026-04-18T13:39:50.002Z</time></trkpt><trkpt lat="44.109645226698184" lon="12.388215241119703"><ele>18.0</ele><time>2026-04-18T13:39:51.003Z</time></trkpt><trkpt lat="44.1097494771167" lon="12.388191869742991"><ele>18.0</ele><time>2026-04-18T13:39:52.003Z</time></trkpt><trkpt lat="44.10985497776198" lon="12.388131458465919"><ele>18.0</ele><time>2026-04-18T13:39:53.003Z</time></trkpt><trkpt lat="44.10995837923957" lon="12.388043916102776"><ele>18.0</ele><time>2026-04-18T13:39:54.003Z</time></trkpt><trkpt lat="44.11006168272366" lon="12.387967675641509"><ele>18.25</ele><time>2026-04-18T13:39:55.003Z</time></trkpt><trkpt lat="44.11017273818367" lon="12.387905742008039"><ele>18.5</ele><time>2026-04-18T13:39:56.003Z</time></trkpt><trkpt lat="44.110291387007884" lon="12.387854180633745"><ele>18.75</ele><time>2026-04-18T13:39:57.003Z</time></trkpt><trkpt lat="44.11041237251042" lon="12.387809426735672"><ele>19.0</ele><time>2026-04-18T13:39:58.003Z</time></trkpt><trkpt lat="44.11052707860362" lon="12.387774994458187"><ele>19.0</ele><time>2026-04-18T13:39:59.003Z</time></trkpt><trkpt lat="44.11065719862959" lon="12.387742258623321"><ele>19.0</ele><time>2026-04-18T13:40:00.003Z</time></trkpt><trkpt lat="44.11079285610388" lon="12.387710398551436"><ele>19.0</ele><time>2026-04-18T13:40:01.003Z</time></trkpt><trkpt lat="44.11093489786798" lon="12.387672563982157"><ele>19.0</ele><time>2026-04-18T13:40:02.003Z</time></trkpt><trkpt lat="44.11109055409641" lon="12.387631219024085"><ele>19.0</ele><time>2026-04-18T13:40:03.003Z</time></trkpt><trkpt lat="44.11125398657658" lon="12.387586498782527"><ele>19.0</ele><time>2026-04-18T13:40:04.003Z</time></trkpt><trkpt lat="44.11143058332054" lon="12.387537585883598"><ele>19.0</ele><time>2026-04-18T13:40:05.003Z</time></trkpt><trkpt lat="44.11160157133794" lon="12.38748902452654"><ele>18.666666666666664</ele><time>2026-04-18T13:40:06.003Z</time></trkpt><trkpt lat="44.111781221900046" lon="12.387442270657264"><ele>18.333333333333332</ele><time>2026-04-18T13:40:07.003Z</time></trkpt><trkpt lat="44.111956822566924" lon="12.387400090548644"><ele>18.0</ele><time>2026-04-18T13:40:08.003Z</time></trkpt><trkpt lat="44.11212018208414" lon="12.387359277850997"><ele>18.0</ele><time>2026-04-18T13:40:09.003Z</time></trkpt><trkpt lat="44.11228549207359" lon="12.387324014139056"><ele>18.0</ele><time>2026-04-18T13:40:10.003Z</time></trkpt><trkpt lat="44.11244843832205" lon="12.38727887602364"><ele>18.0</ele><time>2026-04-18T13:40:11.003Z</time></trkpt><trkpt lat="44.11261369336685" lon="12.387231498955694"><ele>18.0</ele><time>2026-04-18T13:40:12.003Z</time></trkpt><trkpt lat="44.1127722847518" lon="12.387183668783557"><ele>18.0</ele><time>2026-04-18T13:40:13.003Z</time></trkpt><trkpt lat="44.11293754987904" lon="12.387141950624754"><ele>18.0</ele><time>2026-04-18T13:40:14.003Z</time></trkpt><trkpt lat="44.113096296895556" lon="12.38709786469669"><ele>17.666666666666668</ele><time>2026-04-18T13:40:15.003Z</time></trkpt><trkpt lat="44.11325214391676" lon="12.38705651211093"><ele>17.333333333333336</ele><time>2026-04-18T13:40:16.003Z</time></trkpt><trkpt lat="44.113396074312625" lon="12.38701604909822"><ele>17.0</ele><time>2026-04-18T13:40:17.003Z</time></trkpt><trkpt lat="44.11354614708632" lon="12.386970949734438"><ele>17.0</ele><time>2026-04-18T13:40:18.003Z</time></trkpt><trkpt lat="44.11369034969922" lon="12.386925396747092"><ele>17.0</ele><time>2026-04-18T13:40:19.003Z</time></trkpt><trkpt lat="44.11383384377422" lon="12.386879352217866"><ele>17.0</ele><time>2026-04-18T13:40:20.003Z</time></trkpt><trkpt lat="44.11397434145173" lon="12.386826820919154"><ele>17.0</ele><time>2026-04-18T13:40:21.003Z</time></trkpt><trkpt lat="44.11411080469567" lon="12.386767699053285"><ele>16.333333333333336</ele><time>2026-04-18T13:40:22.003Z</time></trkpt><trkpt lat="44.11424447387833" lon="12.386692053293078"><ele>15.666666666666668</ele><time>2026-04-18T13:40:23.003Z</time></trkpt><trkpt lat="44.114389011139465" lon="12.386599589986862"><ele>15.0</ele><time>2026-04-18T13:40:24.003Z</time></trkpt><trkpt lat="44.1145392603981" lon="12.386515566030011"><ele>15.0</ele><time>2026-04-18T13:40:25.003Z</time></trkpt><trkpt lat="44.1146808572063" lon="12.386417086160424"><ele>15.0</ele><time>2026-04-18T13:40:26.003Z</time></trkpt><trkpt lat="44.114779863372" lon="12.38633790322584"><ele>15.0</ele><time>2026-04-18T13:40:27.003Z</time></trkpt><trkpt lat="44.11488099023368" lon="12.386265270386016"><ele>15.0</ele><time>2026-04-18T13:40:28.003Z</time></trkpt><trkpt lat="44.11495610145304" lon="12.386206910412033"><ele>15.0</ele><time>2026-04-18T13:40:29.003Z</time></trkpt><trkpt lat="44.11502667141414" lon="12.386158265502843"><ele>15.0</ele><time>2026-04-18T13:40:30.003Z</time></trkpt><trkpt lat="44.11508622294787" lon="12.38611154925625"><ele>15.0</ele><time>2026-04-18T13:40:31.003Z</time></trkpt><trkpt lat="44.115154695956875" lon="12.386062248952387"><ele>15.0</ele><time>2026-04-18T13:40:33.003Z</time></trkpt><trkpt lat="44.115203216826316" lon="12.386143342043741"><ele>15.0</ele><time>2026-04-18T13:40:38.003Z</time></trkpt><trkpt lat="44.11531645285622" lon="12.386203513669074"><ele>15.0</ele><time>2026-04-18T13:40:40.003Z</time></trkpt><trkpt lat="44.11538624991507" lon="12.38618920027823"><ele>15.0</ele><time>2026-04-18T13:40:41.003Z</time></trkpt><trkpt lat="44.11544829341041" lon="12.386142994100632"><ele>15.0</ele><time>2026-04-18T13:40:42.003Z</time></trkpt><trkpt lat="44.115501184152116" lon="12.386064512812242"><ele>15.0</ele><time>2026-04-18T13:40:43.003Z</time></trkpt><trkpt lat="44.11552601573522" lon="12.385966639095676"><ele>15.0</ele><time>2026-04-18T13:40:44.003Z</time></trkpt><trkpt lat="44.11552886070599" lon="12.38585187085543"><ele>15.0</ele><time>2026-04-18T13:40:45.003Z</time></trkpt><trkpt lat="44.115540167108676" lon="12.385748497069821"><ele>15.0</ele><time>2026-04-18T13:40:46.003Z</time></trkpt><trkpt lat="44.115582043690495" lon="12.38567737150623"><ele>15.0</ele><time>2026-04-18T13:40:47.003Z</time></trkpt><trkpt lat="44.11562729252481" lon="12.385614208286169"><ele>15.0</ele><time>2026-04-18T13:40:48.003Z</time></trkpt><trkpt lat="44.11568948715679" lon="12.385578706686653"><ele>15.0</ele><time>2026-04-18T13:40:49.003Z</time></trkpt><trkpt lat="44.11575658708195" lon="12.38554129183447"><ele>15.0</ele><time>2026-04-18T13:40:50.003Z</time></trkpt><trkpt lat="44.11583301161251" lon="12.385493276819846"><ele>15.0</ele><time>2026-04-18T13:40:51.003Z</time></trkpt><trkpt lat="44.11592016056517" lon="12.385437016627481"><ele>15.0</ele><time>2026-04-18T13:40:52.003Z</time></trkpt><trkpt lat="44.11600746760259" lon="12.385394349688237"><ele>15.0</ele><time>2026-04-18T13:40:53.003Z</time></trkpt><trkpt lat="44.11614904146204" lon="12.385320491802979"><ele>14.666666666666668</ele><time>2026-04-18T13:40:54.003Z</time></trkpt><trkpt lat="44.11630170546865" lon="12.38523990373906"><ele>14.333333333333334</ele><time>2026-04-18T13:40:55.003Z</time></trkpt><trkpt lat="44.11645116914173" lon="12.385152658210231"><ele>14.0</ele><time>2026-04-18T13:40:56.003Z</time></trkpt><trkpt lat="44.11664784135592" lon="12.385068345648843"><ele>14.0</ele><time>2026-04-18T13:40:57.003Z</time></trkpt><trkpt lat="44.11684087673878" lon="12.384965984007922"><ele>14.0</ele><time>2026-04-18T13:40:58.003Z</time></trkpt><trkpt lat="44.117019770858796" lon="12.38488642981006"><ele>14.0</ele><time>2026-04-18T13:40:59.003Z</time></trkpt><trkpt lat="44.117168760998474" lon="12.384850119258422"><ele>14.0</ele><time>2026-04-18T13:41:00.003Z</time></trkpt><trkpt lat="44.11732374794124" lon="12.384818421670172"><ele>14.0</ele><time>2026-04-18T13:41:01.003Z</time></trkpt><trkpt lat="44.11748047680288" lon="12.3847936842412"><ele>14.0</ele><time>2026-04-18T13:41:02.003Z</time></trkpt><trkpt lat="44.1176273096578" lon="12.38476359696121"><ele>13.666666666666668</ele><time>2026-04-18T13:41:03.003Z</time></trkpt><trkpt lat="44.11778170911781" lon="12.384735284781176"><ele>13.333333333333332</ele><time>2026-04-18T13:41:04.003Z</time></trkpt><trkpt lat="44.117948063168434" lon="12.384709201534408"><ele>13.0</ele><time>2026-04-18T13:41:05.003Z</time></trkpt><trkpt lat="44.118112115438244" lon="12.384682184563832"><ele>13.0</ele><time>2026-04-18T13:41:06.003Z</time></trkpt><trkpt lat="44.118260237073045" lon="12.384659047788853"><ele>13.0</ele><time>2026-04-18T13:41:07.003Z</time></trkpt><trkpt lat="44.11840467090414" lon="12.384637467366261"><ele>13.0</ele><time>2026-04-18T13:41:08.003Z</time></trkpt><trkpt lat="44.11855089892797" lon="12.384614195873176"><ele>13.0</ele><time>2026-04-18T13:41:09.003Z</time></trkpt><trkpt lat="44.11870201395641" lon="12.384588535976263"><ele>13.0</ele><time>2026-04-18T13:41:10.003Z</time></trkpt><trkpt lat="44.1188566601932" lon="12.384561649806722"><ele>13.0</ele><time>2026-04-18T13:41:11.003Z</time></trkpt><trkpt lat="44.11900043744595" lon="12.384540558272576"><ele>13.0</ele><time>2026-04-18T13:41:12.003Z</time></trkpt><trkpt lat="44.11914670547513" lon="12.384521627179248"><ele>13.0</ele><time>2026-04-18T13:41:13.003Z</time></trkpt><trkpt lat="44.11929547848658" lon="12.384501333131947"><ele>12.75</ele><time>2026-04-18T13:41:14.003Z</time></trkpt><trkpt lat="44.11943236413197" lon="12.384482046825035"><ele>12.5</ele><time>2026-04-18T13:41:15.003Z</time></trkpt><trkpt lat="44.11956979207481" lon="12.38446122706607"><ele>12.25</ele><time>2026-04-18T13:41:16.003Z</time></trkpt><trkpt lat="44.11970286722506" lon="12.38443724710659"><ele>12.0</ele><time>2026-04-18T13:41:17.003Z</time></trkpt><trkpt lat="44.11982644566423" lon="12.384418408299434"><ele>12.0</ele><time>2026-04-18T13:41:18.003Z</time></trkpt><trkpt lat="44.1199478780909" lon="12.384399111783907"><ele>12.0</ele><time>2026-04-18T13:41:19.003Z</time></trkpt><trkpt lat="44.1200634988492" lon="12.384374684454608"><ele>12.0</ele><time>2026-04-18T13:41:20.003Z</time></trkpt><trkpt lat="44.12015760911809" lon="12.384368355595509"><ele>12.0</ele><time>2026-04-18T13:41:21.003Z</time></trkpt><trkpt lat="44.120271132103724" lon="12.38435195376586"><ele>12.0</ele><time>2026-04-18T13:41:22.003Z</time></trkpt><trkpt lat="44.12038049249587" lon="12.3843458887951"><ele>12.0</ele><time>2026-04-18T13:41:23.003Z</time></trkpt><trkpt lat="44.12048662199492" lon="12.38435549282512"><ele>12.0</ele><time>2026-04-18T13:41:24.003Z</time></trkpt><trkpt lat="44.12059639475979" lon="12.384374325106858"><ele>12.0</ele><time>2026-04-18T13:41:25.003Z</time></trkpt><trkpt lat="44.12068377400875" lon="12.384396720813937"><ele>12.0</ele><time>2026-04-18T13:41:26.003Z</time></trkpt><trkpt lat="44.12075885095112" lon="12.384400012377856"><ele>12.0</ele><time>2026-04-18T13:41:27.003Z</time></trkpt><trkpt lat="44.120825040658445" lon="12.38437617390793"><ele>12.0</ele><time>2026-04-18T13:41:28.003Z</time></trkpt><trkpt lat="44.120897306138936" lon="12.384323603127887"><ele>12.0</ele><time>2026-04-18T13:41:29.003Z</time></trkpt><trkpt lat="44.12100478739475" lon="12.384257900370951"><ele>12.0</ele><time>2026-04-18T13:41:30.003Z</time></trkpt><trkpt lat="44.12111473193311" lon="12.384214299969392"><ele>12.0</ele><time>2026-04-18T13:41:31.003Z</time></trkpt><trkpt lat="44.12123512658169" lon="12.384195698658466"><ele>12.0</ele><time>2026-04-18T13:41:32.003Z</time></trkpt><trkpt lat="44.12136428520703" lon="12.384180663729094"><ele>12.0</ele><time>2026-04-18T13:41:33.003Z</time></trkpt><trkpt lat="44.12148877994509" lon="12.384166382477154"><ele>12.0</ele><time>2026-04-18T13:41:34.003Z</time></trkpt><trkpt lat="44.12161856910909" lon="12.384145560183388"><ele>12.0</ele><time>2026-04-18T13:41:35.003Z</time></trkpt><trkpt lat="44.121748737993066" lon="12.384129324346945"><ele>12.0</ele><time>2026-04-18T13:41:36.003Z</time></trkpt><trkpt lat="44.12188640237862" lon="12.384110042643576"><ele>12.0</ele><time>2026-04-18T13:41:37.003Z</time></trkpt><trkpt lat="44.1220263300622" lon="12.384089049196854"><ele>12.0</ele><time>2026-04-18T13:41:38.003Z</time></trkpt><trkpt lat="44.12216732574968" lon="12.384068565537506"><ele>12.0</ele><time>2026-04-18T13:41:39.003Z</time></trkpt><trkpt lat="44.12230365467552" lon="12.384044612590213"><ele>12.0</ele><time>2026-04-18T13:41:40.003Z</time></trkpt><trkpt lat="44.12243943590748" lon="12.384020157536883"><ele>12.0</ele><time>2026-04-18T13:41:41.003Z</time></trkpt><trkpt lat="44.12257101694519" lon="12.384003350256684"><ele>12.0</ele><time>2026-04-18T13:41:42.003Z</time></trkpt><trkpt lat="44.12270236402117" lon="12.383996137780693"><ele>12.0</ele><time>2026-04-18T13:41:43.003Z</time></trkpt><trkpt lat="44.12282871655396" lon="12.383996494579563"><ele>12.0</ele><time>2026-04-18T13:41:44.003Z</time></trkpt><trkpt lat="44.12295355655436" lon="12.38401188506343"><ele>12.0</ele><time>2026-04-18T13:41:45.002Z</time></trkpt><trkpt lat="44.12306986925025" lon="12.38405059184414"><ele>12.0</ele><time>2026-04-18T13:41:46.002Z</time></trkpt><trkpt lat="44.123190835138345" lon="12.384093078746622"><ele>12.0</ele><time>2026-04-18T13:41:47.002Z</time></trkpt><trkpt lat="44.12330617273967" lon="12.38414645195768"><ele>12.0</ele><time>2026-04-18T13:41:48.002Z</time></trkpt><trkpt lat="44.12340795327977" lon="12.38420864043924"><ele>11.75</ele><time>2026-04-18T13:41:49.003Z</time></trkpt><trkpt lat="44.12351522958628" lon="12.384287042785825"><ele>11.5</ele><time>2026-04-18T13:41:50.003Z</time></trkpt><trkpt lat="44.123626923219575" lon="12.384369679023054"><ele>11.25</ele><time>2026-04-18T13:41:51.002Z</time></trkpt><trkpt lat="44.1237496414484" lon="12.384456801575372"><ele>11.0</ele><time>2026-04-18T13:41:52.002Z</time></trkpt><trkpt lat="44.12386632023777" lon="12.384544450447455"><ele>11.0</ele><time>2026-04-18T13:41:53.002Z</time></trkpt><trkpt lat="44.12398656619192" lon="12.384634396610393"><ele>11.0</ele><time>2026-04-18T13:41:54.002Z</time></trkpt><trkpt lat="44.12410100904702" lon="12.384719541675274"><ele>11.0</ele><time>2026-04-18T13:41:55.002Z</time></trkpt><trkpt lat="44.12421926102011" lon="12.384803520436177"><ele>11.0</ele><time>2026-04-18T13:41:56.002Z</time></trkpt><trkpt lat="44.12433931864771" lon="12.384894652661618"><ele>11.0</ele><time>2026-04-18T13:41:57.002Z</time></trkpt><trkpt lat="44.12445838856402" lon="12.384980655288063"><ele>11.0</ele><time>2026-04-18T13:41:58.003Z</time></trkpt><trkpt lat="44.12457861054936" lon="12.385068222895116"><ele>11.0</ele><time>2026-04-18T13:41:59.003Z</time></trkpt><trkpt lat="44.12469185517528" lon="12.385158925371812"><ele>11.0</ele><time>2026-04-18T13:42:00.003Z</time></trkpt><trkpt lat="44.12480042633826" lon="12.385256025816618"><ele>11.0</ele><time>2026-04-18T13:42:01.003Z</time></trkpt><trkpt lat="44.12490938367384" lon="12.385371353676865"><ele>11.0</ele><time>2026-04-18T13:42:02.003Z</time></trkpt><trkpt lat="44.125007782851235" lon="12.385495151723774"><ele>11.0</ele><time>2026-04-18T13:42:03.003Z</time></trkpt><trkpt lat="44.12510943680534" lon="12.385626482097443"><ele>11.0</ele><time>2026-04-18T13:42:04.003Z</time></trkpt><trkpt lat="44.12519306005649" lon="12.385773069195006"><ele>11.0</ele><time>2026-04-18T13:42:05.003Z</time></trkpt><trkpt lat="44.12528069330905" lon="12.385907098473437"><ele>11.0</ele><time>2026-04-18T13:42:06.003Z</time></trkpt><trkpt lat="44.12536769825699" lon="12.386042699579756"><ele>11.0</ele><time>2026-04-18T13:42:07.003Z</time></trkpt><trkpt lat="44.125454608157725" lon="12.386188267730756"><ele>11.0</ele><time>2026-04-18T13:42:08.003Z</time></trkpt><trkpt lat="44.12554553463896" lon="12.386312716616235"><ele>11.0</ele><time>2026-04-18T13:42:09.003Z</time></trkpt><trkpt lat="44.125619900743665" lon="12.386444178555955"><ele>11.0</ele><time>2026-04-18T13:42:10.003Z</time></trkpt><trkpt lat="44.125689222811694" lon="12.386567927081174"><ele>11.0</ele><time>2026-04-18T13:42:11.003Z</time></trkpt><trkpt lat="44.1257526792701" lon="12.386680461066277"><ele>11.0</ele><time>2026-04-18T13:42:12.003Z</time></trkpt><trkpt lat="44.12581053272889" lon="12.386804285826496"><ele>11.0</ele><time>2026-04-18T13:42:13.003Z</time></trkpt><trkpt lat="44.12585814220277" lon="12.386929560127303"><ele>11.0</ele><time>2026-04-18T13:42:14.003Z</time></trkpt><trkpt lat="44.12589543622198" lon="12.387056401549275"><ele>11.0</ele><time>2026-04-18T13:42:15.003Z</time></trkpt><trkpt lat="44.125947655535235" lon="12.387183632429224"><ele>11.0</ele><time>2026-04-18T13:42:16.003Z</time></trkpt><trkpt lat="44.126013130138084" lon="12.387288893320209"><ele>11.0</ele><time>2026-04-18T13:42:17.003Z</time></trkpt><trkpt lat="44.126103697556324" lon="12.387367317287687"><ele>11.0</ele><time>2026-04-18T13:42:18.003Z</time></trkpt><trkpt lat="44.126208287009355" lon="12.38742849929205"><ele>11.0</ele><time>2026-04-18T13:42:19.003Z</time></trkpt><trkpt lat="44.126315451188965" lon="12.387481873317885"><ele>11.0</ele><time>2026-04-18T13:42:20.003Z</time></trkpt><trkpt lat="44.12642415206463" lon="12.387548221001119"><ele>11.0</ele><time>2026-04-18T13:42:21.003Z</time></trkpt><trkpt lat="44.12654627054324" lon="12.387635397003883"><ele>11.0</ele><time>2026-04-18T13:42:22.003Z</time></trkpt><trkpt lat="44.12666918608818" lon="12.387723988254892"><ele>11.0</ele><time>2026-04-18T13:42:23.003Z</time></trkpt><trkpt lat="44.126800799936106" lon="12.387794733767372"><ele>11.0</ele><time>2026-04-18T13:42:24.003Z</time></trkpt><trkpt lat="44.126949273134485" lon="12.38785104423553"><ele>11.0</ele><time>2026-04-18T13:42:25.003Z</time></trkpt><trkpt lat="44.12710748588425" lon="12.38789063165309"><ele>11.0</ele><time>2026-04-18T13:42:26.003Z</time></trkpt><trkpt lat="44.12726994939196" lon="12.387925915684184"><ele>11.0</ele><time>2026-04-18T13:42:27.003Z</time></trkpt><trkpt lat="44.12743598324493" lon="12.387963202529255"><ele>11.0</ele><time>2026-04-18T13:42:28.003Z</time></trkpt><trkpt lat="44.127588500251626" lon="12.388002435754544"><ele>10.0</ele><time>2026-04-18T13:42:29.003Z</time></trkpt><trkpt lat="44.12774656433135" lon="12.388030388038663"><ele>9.0</ele><time>2026-04-18T13:42:30.003Z</time></trkpt><trkpt lat="44.12791843382588" lon="12.388068051631238"><ele>8.0</ele><time>2026-04-18T13:42:31.003Z</time></trkpt><trkpt lat="44.128104735183584" lon="12.388109003186319"><ele>8.666666666666666</ele><time>2026-04-18T13:42:32.003Z</time></trkpt><trkpt lat="44.12828599884653" lon="12.388156254423176"><ele>9.333333333333334</ele><time>2026-04-18T13:42:33.003Z</time></trkpt><trkpt lat="44.12845439127589" lon="12.388199727666143"><ele>10.0</ele><time>2026-04-18T13:42:34.003Z</time></trkpt><trkpt lat="44.12863157845681" lon="12.388247151975735"><ele>10.0</ele><time>2026-04-18T13:42:35.003Z</time></trkpt><trkpt lat="44.12879563590176" lon="12.388289277841382"><ele>10.0</ele><time>2026-04-18T13:42:36.003Z</time></trkpt><trkpt lat="44.12896890006269" lon="12.388336935730516"><ele>10.0</ele><time>2026-04-18T13:42:37.003Z</time></trkpt><trkpt lat="44.129118547891345" lon="12.388375457269536"><ele>10.333333333333334</ele><time>2026-04-18T13:42:38.003Z</time></trkpt><trkpt lat="44.12928158468865" lon="12.388414004515006"><ele>10.666666666666666</ele><time>2026-04-18T13:42:39.003Z</time></trkpt><trkpt lat="44.129440175073455" lon="12.388454046956712"><ele>11.0</ele><time>2026-04-18T13:42:40.003Z</time></trkpt><trkpt lat="44.12959436334296" lon="12.388498328354418"><ele>11.0</ele><time>2026-04-18T13:42:41.003Z</time></trkpt><trkpt lat="44.12974813756179" lon="12.388537887453005"><ele>11.0</ele><time>2026-04-18T13:42:42.003Z</time></trkpt><trkpt lat="44.12991427725442" lon="12.388567825023337"><ele>11.0</ele><time>2026-04-18T13:42:43.003Z</time></trkpt><trkpt lat="44.13005760794803" lon="12.388609628366742"><ele>11.25</ele><time>2026-04-18T13:42:44.003Z</time></trkpt><trkpt lat="44.13021249974949" lon="12.388644841163309"><ele>11.5</ele><time>2026-04-18T13:42:45.003Z</time></trkpt><trkpt lat="44.130354487808695" lon="12.388677999797881"><ele>11.75</ele><time>2026-04-18T13:42:46.003Z</time></trkpt><trkpt lat="44.13049356808642" lon="12.388714832421973"><ele>12.0</ele><time>2026-04-18T13:42:47.003Z</time></trkpt><trkpt lat="44.13064282490527" lon="12.388748644516141"><ele>12.0</ele><time>2026-04-18T13:42:48.003Z</time></trkpt><trkpt lat="44.130781125668065" lon="12.38878900209932"><ele>12.0</ele><time>2026-04-18T13:42:49.003Z</time></trkpt><trkpt lat="44.13093256214908" lon="12.388832010041819"><ele>12.0</ele><time>2026-04-18T13:42:50.003Z</time></trkpt><trkpt lat="44.13108949040522" lon="12.388865351222789"><ele>11.333333333333334</ele><time>2026-04-18T13:42:51.003Z</time></trkpt><trkpt lat="44.13125069325685" lon="12.38890022589878"><ele>10.666666666666668</ele><time>2026-04-18T13:42:52.003Z</time></trkpt><trkpt lat="44.131411334060296" lon="12.388940846940162"><ele>10.0</ele><time>2026-04-18T13:42:53.003Z</time></trkpt><trkpt lat="44.13156792817134" lon="12.388975281004425"><ele>10.0</ele><time>2026-04-18T13:42:54.003Z</time></trkpt><trkpt lat="44.13172512646564" lon="12.389007937617768"><ele>10.0</ele><time>2026-04-18T13:42:55.003Z</time></trkpt><trkpt lat="44.13187679166372" lon="12.389036936909186"><ele>10.0</ele><time>2026-04-18T13:42:56.003Z</time></trkpt><trkpt lat="44.13202875430215" lon="12.389062266102158"><ele>10.0</ele><time>2026-04-18T13:42:57.003Z</time></trkpt><trkpt lat="44.13218721980741" lon="12.389087099618521"><ele>10.0</ele><time>2026-04-18T13:42:58.003Z</time></trkpt><trkpt lat="44.132341840499585" lon="12.38910509021709"><ele>10.0</ele><time>2026-04-18T13:42:59.003Z</time></trkpt><trkpt lat="44.13250650718556" lon="12.389122999899618"><ele>10.0</ele><time>2026-04-18T13:43:00.003Z</time></trkpt><trkpt lat="44.132676088969625" lon="12.389132742456653"><ele>10.0</ele><time>2026-04-18T13:43:01.003Z</time></trkpt><trkpt lat="44.13284539224417" lon="12.389136695659055"><ele>10.0</ele><time>2026-04-18T13:43:02.003Z</time></trkpt><trkpt lat="44.13300417068493" lon="12.38914322126495"><ele>10.0</ele><time>2026-04-18T13:43:03.003Z</time></trkpt><trkpt lat="44.133155751122736" lon="12.389146873429679"><ele>10.0</ele><time>2026-04-18T13:43:04.003Z</time></trkpt><trkpt lat="44.13330270168775" lon="12.389146387462048"><ele>10.0</ele><time>2026-04-18T13:43:05.003Z</time></trkpt><trkpt lat="44.13345940575656" lon="12.389142019095674"><ele>10.0</ele><time>2026-04-18T13:43:06.003Z</time></trkpt><trkpt lat="44.13361361618712" lon="12.389139408263109"><ele>10.0</ele><time>2026-04-18T13:43:07.003Z</time></trkpt><trkpt lat="44.13377289627688" lon="12.389136550919943"><ele>10.0</ele><time>2026-04-18T13:43:08.003Z</time></trkpt><trkpt lat="44.133938765176175" lon="12.389136913537806"><ele>10.0</ele><time>2026-04-18T13:43:09.003Z</time></trkpt><trkpt lat="44.13410685643448" lon="12.389135938705964"><ele>10.0</ele><time>2026-04-18T13:43:10.003Z</time></trkpt><trkpt lat="44.13426624158658" lon="12.389129448951989"><ele>10.0</ele><time>2026-04-18T13:43:11.003Z</time></trkpt><trkpt lat="44.134420213092405" lon="12.389122982569976"><ele>10.0</ele><time>2026-04-18T13:43:12.003Z</time></trkpt><trkpt lat="44.13456722413864" lon="12.389117328808613"><ele>10.0</ele><time>2026-04-18T13:43:13.003Z</time></trkpt><trkpt lat="44.13471129605253" lon="12.389113370487653"><ele>10.0</ele><time>2026-04-18T13:43:14.003Z</time></trkpt><trkpt lat="44.13485652299121" lon="12.389112296018663"><ele>10.0</ele><time>2026-04-18T13:43:15.003Z</time></trkpt><trkpt lat="44.1350001720706" lon="12.389109401269133"><ele>9.75</ele><time>2026-04-18T13:43:16.003Z</time></trkpt><trkpt lat="44.13514057977486" lon="12.389106159665273"><ele>9.5</ele><time>2026-04-18T13:43:17.003Z</time></trkpt><trkpt lat="44.13527351481266" lon="12.389103247585235"><ele>9.25</ele><time>2026-04-18T13:43:18.003Z</time></trkpt><trkpt lat="44.13539713649484" lon="12.38910323198124"><ele>9.0</ele><time>2026-04-18T13:43:19.003Z</time></trkpt><trkpt lat="44.135514418066315" lon="12.389105463256199"><ele>9.0</ele><time>2026-04-18T13:43:20.003Z</time></trkpt><trkpt lat="44.13562575505115" lon="12.38910273626725"><ele>9.0</ele><time>2026-04-18T13:43:21.003Z</time></trkpt><trkpt lat="44.13573340164341" lon="12.38910534687044"><ele>9.0</ele><time>2026-04-18T13:43:22.003Z</time></trkpt><trkpt lat="44.13584330395431" lon="12.389100704475249"><ele>9.0</ele><time>2026-04-18T13:43:23.003Z</time></trkpt><trkpt lat="44.13597024942239" lon="12.389101626607331"><ele>9.5</ele><time>2026-04-18T13:43:24.003Z</time></trkpt><trkpt lat="44.13609860324176" lon="12.38910726613251"><ele>10.0</ele><time>2026-04-18T13:43:25.003Z</time></trkpt><trkpt lat="44.13623082270024" lon="12.389105120838265"><ele>10.5</ele><time>2026-04-18T13:43:26.003Z</time></trkpt><trkpt lat="44.13635289988466" lon="12.389100317711858"><ele>11.0</ele><time>2026-04-18T13:43:27.003Z</time></trkpt><trkpt lat="44.136469406681115" lon="12.389103691620358"><ele>11.0</ele><time>2026-04-18T13:43:28.003Z</time></trkpt><trkpt lat="44.13658566186193" lon="12.38910825894728"><ele>11.0</ele><time>2026-04-18T13:43:29.003Z</time></trkpt><trkpt lat="44.13669133901639" lon="12.389113318392138"><ele>11.0</ele><time>2026-04-18T13:43:30.003Z</time></trkpt><trkpt lat="44.136785669951756" lon="12.38912489055683"><ele>11.0</ele><time>2026-04-18T13:43:31.003Z</time></trkpt><trkpt lat="44.136875917230476" lon="12.389140991143194"><ele>11.0</ele><time>2026-04-18T13:43:32.003Z</time></trkpt><trkpt lat="44.13695984941167" lon="12.389164197663787"><ele>11.0</ele><time>2026-04-18T13:43:33.003Z</time></trkpt><trkpt lat="44.13704396474055" lon="12.38920597779068"><ele>11.0</ele><time>2026-04-18T13:43:34.003Z</time></trkpt><trkpt lat="44.1371209308392" lon="12.389264880356448"><ele>11.0</ele><time>2026-04-18T13:43:35.003Z</time></trkpt><trkpt lat="44.137184566757135" lon="12.389342364619766"><ele>11.0</ele><time>2026-04-18T13:43:36.003Z</time></trkpt><trkpt lat="44.1372407241461" lon="12.389444346826005"><ele>11.0</ele><time>2026-04-18T13:43:37.003Z</time></trkpt><trkpt lat="44.13729981374445" lon="12.389545647439"><ele>11.0</ele><time>2026-04-18T13:43:38.003Z</time></trkpt><trkpt lat="44.13737421512817" lon="12.38962946689229"><ele>10.600000000000001</ele><time>2026-04-18T13:43:39.003Z</time></trkpt><trkpt lat="44.137462212758706" lon="12.389682836608475"><ele>10.200000000000001</ele><time>2026-04-18T13:43:40.003Z</time></trkpt><trkpt lat="44.13756023511736" lon="12.389716993409879"><ele>9.8</ele><time>2026-04-18T13:43:41.003Z</time></trkpt><trkpt lat="44.13766965890322" lon="12.389742137975814"><ele>9.4</ele><time>2026-04-18T13:43:42.003Z</time></trkpt><trkpt lat="44.13777702419964" lon="12.389774707939859"><ele>9.0</ele><time>2026-04-18T13:43:43.003Z</time></trkpt><trkpt lat="44.1378772741184" lon="12.389836356441107"><ele>9.0</ele><time>2026-04-18T13:43:44.003Z</time></trkpt><trkpt lat="44.13797071767488" lon="12.389942274244882"><ele>9.0</ele><time>2026-04-18T13:43:45.003Z</time></trkpt><trkpt lat="44.1380754953369" lon="12.390066818421108"><ele>9.0</ele><time>2026-04-18T13:43:46.003Z</time></trkpt><trkpt lat="44.138180140981206" lon="12.390197313500817"><ele>9.0</ele><time>2026-04-18T13:43:47.003Z</time></trkpt><trkpt lat="44.13828769828632" lon="12.390327964350556"><ele>9.666666666666666</ele><time>2026-04-18T13:43:48.003Z</time></trkpt><trkpt lat="44.138415412141306" lon="12.390464384794594"><ele>10.333333333333332</ele><time>2026-04-18T13:43:49.003Z</time></trkpt><trkpt lat="44.138548849610004" lon="12.390610972638445"><ele>11.0</ele><time>2026-04-18T13:43:50.003Z</time></trkpt><trkpt lat="44.138681394672865" lon="12.390735769606575"><ele>11.0</ele><time>2026-04-18T13:43:51.002Z</time></trkpt><trkpt lat="44.13880787530654" lon="12.39084418983208"><ele>11.0</ele><time>2026-04-18T13:43:52.002Z</time></trkpt><trkpt lat="44.13893241357326" lon="12.390951938323711"><ele>11.0</ele><time>2026-04-18T13:43:53.002Z</time></trkpt><trkpt lat="44.139061680211746" lon="12.391056320290968"><ele>11.0</ele><time>2026-04-18T13:43:54.002Z</time></trkpt><trkpt lat="44.139185972023974" lon="12.391159385869184"><ele>10.75</ele><time>2026-04-18T13:43:55.002Z</time></trkpt><trkpt lat="44.139301854346975" lon="12.39126137308428"><ele>10.5</ele><time>2026-04-18T13:43:56.002Z</time></trkpt><trkpt lat="44.139426575799675" lon="12.391367024144492"><ele>10.25</ele><time>2026-04-18T13:43:57.002Z</time></trkpt><trkpt lat="44.13956481338456" lon="12.391480364272978"><ele>10.0</ele><time>2026-04-18T13:43:58.002Z</time></trkpt><trkpt lat="44.13969641925427" lon="12.391595216753192"><ele>10.0</ele><time>2026-04-18T13:43:59.002Z</time></trkpt><trkpt lat="44.1398354988565" lon="12.391710795485363"><ele>10.0</ele><time>2026-04-18T13:44:00.002Z</time></trkpt><trkpt lat="44.13997284889933" lon="12.391815856519901"><ele>10.0</ele><time>2026-04-18T13:44:01.002Z</time></trkpt><trkpt lat="44.14010233748289" lon="12.391919524371477"><ele>10.0</ele><time>2026-04-18T13:44:02.002Z</time></trkpt><trkpt lat="44.14023675033531" lon="12.39201665806127"><ele>10.0</ele><time>2026-04-18T13:44:03.002Z</time></trkpt><trkpt lat="44.14035929696522" lon="12.39210263556012"><ele>10.0</ele><time>2026-04-18T13:44:04.002Z</time></trkpt><trkpt lat="44.140483916995464" lon="12.392188143090765"><ele>10.0</ele><time>2026-04-18T13:44:05.002Z</time></trkpt><trkpt lat="44.14061078697837" lon="12.392267784743844"><ele>10.0</ele><time>2026-04-18T13:44:06.002Z</time></trkpt><trkpt lat="44.14073632783892" lon="12.392348391654814"><ele>10.0</ele><time>2026-04-18T13:44:07.002Z</time></trkpt><trkpt lat="44.1408594021279" lon="12.39243454072254"><ele>10.0</ele><time>2026-04-18T13:44:08.002Z</time></trkpt><trkpt lat="44.14098110053065" lon="12.39252925267912"><ele>10.0</ele><time>2026-04-18T13:44:09.002Z</time></trkpt><trkpt lat="44.14109729096826" lon="12.392621301104949"><ele>10.0</ele><time>2026-04-18T13:44:10.002Z</time></trkpt><trkpt lat="44.14121427131029" lon="12.392722383697762"><ele>10.0</ele><time>2026-04-18T13:44:11.002Z</time></trkpt><trkpt lat="44.14131464796005" lon="12.392815389847456"><ele>10.0</ele><time>2026-04-18T13:44:12.002Z</time></trkpt><trkpt lat="44.14142657947287" lon="12.39290965118921"><ele>10.0</ele><time>2026-04-18T13:44:13.002Z</time></trkpt><trkpt lat="44.141547006694516" lon="12.393018928219911"><ele>9.5</ele><time>2026-04-18T13:44:14.002Z</time></trkpt><trkpt lat="44.141671468766624" lon="12.393129507294807"><ele>9.0</ele><time>2026-04-18T13:44:15.002Z</time></trkpt><trkpt lat="44.14179011778055" lon="12.39323412771605"><ele>8.5</ele><time>2026-04-18T13:44:16.002Z</time></trkpt><trkpt lat="44.141900879431724" lon="12.39333236454609"><ele>8.0</ele><time>2026-04-18T13:44:17.002Z</time></trkpt><trkpt lat="44.142008835783614" lon="12.393428675348362"><ele>8.0</ele><time>2026-04-18T13:44:18.002Z</time></trkpt><trkpt lat="44.1421147507523" lon="12.393522393764737"><ele>8.0</ele><time>2026-04-18T13:44:19.002Z</time></trkpt><trkpt lat="44.142231744816264" lon="12.393621652578881"><ele>8.0</ele><time>2026-04-18T13:44:20.002Z</time></trkpt><trkpt lat="44.142342459243686" lon="12.393721647562177"><ele>8.0</ele><time>2026-04-18T13:44:21.002Z</time></trkpt><trkpt lat="44.14245917697816" lon="12.393822711345319"><ele>8.0</ele><time>2026-04-18T13:44:22.002Z</time></trkpt><trkpt lat="44.14257798100957" lon="12.393920245254073"><ele>8.0</ele><time>2026-04-18T13:44:23.002Z</time></trkpt><trkpt lat="44.14269421228379" lon="12.394018100125345"><ele>8.0</ele><time>2026-04-18T13:44:24.002Z</time></trkpt><trkpt lat="44.14280843973039" lon="12.394122062886682"><ele>8.0</ele><time>2026-04-18T13:44:25.002Z</time></trkpt><trkpt lat="44.142923088088324" lon="12.394218466893149"><ele>8.0</ele><time>2026-04-18T13:44:26.002Z</time></trkpt><trkpt lat="44.14304209146449" lon="12.394316852871265"><ele>8.0</ele><time>2026-04-18T13:44:27.002Z</time></trkpt><trkpt lat="44.14316146848807" lon="12.394409835608796"><ele>8.0</ele><time>2026-04-18T13:44:28.002Z</time></trkpt><trkpt lat="44.1432646255938" lon="12.394506884357513"><ele>8.0</ele><time>2026-04-18T13:44:29.002Z</time></trkpt><trkpt lat="44.14337424407198" lon="12.394614068954006"><ele>8.333333333333332</ele><time>2026-04-18T13:44:30.002Z</time></trkpt><trkpt lat="44.14350104846134" lon="12.394733550591416"><ele>8.666666666666666</ele><time>2026-04-18T13:44:31.002Z</time></trkpt><trkpt lat="44.14364100588753" lon="12.394846774660941"><ele>9.0</ele><time>2026-04-18T13:44:32.002Z</time></trkpt><trkpt lat="44.143771802865466" lon="12.394963960644965"><ele>9.0</ele><time>2026-04-18T13:44:33.002Z</time></trkpt><trkpt lat="44.143884121991825" lon="12.395064650383839"><ele>9.0</ele><time>2026-04-18T13:44:34.002Z</time></trkpt><trkpt lat="44.14399881712492" lon="12.395164362948144"><ele>9.0</ele><time>2026-04-18T13:44:35.002Z</time></trkpt><trkpt lat="44.14411222488069" lon="12.395255574945313"><ele>9.0</ele><time>2026-04-18T13:44:36.002Z</time></trkpt><trkpt lat="44.1442201150992" lon="12.395355307407337"><ele>9.0</ele><time>2026-04-18T13:44:37.002Z</time></trkpt><trkpt lat="44.14432850859924" lon="12.395447615058366"><ele>9.0</ele><time>2026-04-18T13:44:38.002Z</time></trkpt><trkpt lat="44.1444298939293" lon="12.395536731313838"><ele>9.0</ele><time>2026-04-18T13:44:39.002Z</time></trkpt><trkpt lat="44.144534598336605" lon="12.395626832594377"><ele>9.0</ele><time>2026-04-18T13:44:40.002Z</time></trkpt><trkpt lat="44.144647353935426" lon="12.395717210312405"><ele>9.0</ele><time>2026-04-18T13:44:41.002Z</time></trkpt><trkpt lat="44.14475820373492" lon="12.395807806170533"><ele>9.0</ele><time>2026-04-18T13:44:42.002Z</time></trkpt><trkpt lat="44.14487051675275" lon="12.395907827537071"><ele>9.0</ele><time>2026-04-18T13:44:43.002Z</time></trkpt><trkpt lat="44.144982978821716" lon="12.396003034523128"><ele>9.0</ele><time>2026-04-18T13:44:44.002Z</time></trkpt><trkpt lat="44.14510178007716" lon="12.39610108523518"><ele>9.0</ele><time>2026-04-18T13:44:45.002Z</time></trkpt><trkpt lat="44.145219041193826" lon="12.39619811263433"><ele>9.0</ele><time>2026-04-18T13:44:46.002Z</time></trkpt><trkpt lat="44.14534060019222" lon="12.39630103971234"><ele>9.0</ele><time>2026-04-18T13:44:47.002Z</time></trkpt><trkpt lat="44.14545972420204" lon="12.396403545915378"><ele>9.0</ele><time>2026-04-18T13:44:48.002Z</time></trkpt><trkpt lat="44.145579697466935" lon="12.396506340518991"><ele>8.75</ele><time>2026-04-18T13:44:49.002Z</time></trkpt><trkpt lat="44.14570240534274" lon="12.396603190995695"><ele>8.5</ele><time>2026-04-18T13:44:50.002Z</time></trkpt><trkpt lat="44.145823989640526" lon="12.396707345634226"><ele>8.25</ele><time>2026-04-18T13:44:51.002Z</time></trkpt><trkpt lat="44.14593900111752" lon="12.396805833123201"><ele>8.0</ele><time>2026-04-18T13:44:52.002Z</time></trkpt><trkpt lat="44.14605672836971" lon="12.396903722911974"><ele>8.0</ele><time>2026-04-18T13:44:53.002Z</time></trkpt><trkpt lat="44.14617616123502" lon="12.397000237734547"><ele>8.0</ele><time>2026-04-18T13:44:54.002Z</time></trkpt><trkpt lat="44.14629819433676" lon="12.397100773857028"><ele>8.0</ele><time>2026-04-18T13:44:55.002Z</time></trkpt><trkpt lat="44.14640544254615" lon="12.3972046523707"><ele>8.0</ele><time>2026-04-18T13:44:56.002Z</time></trkpt><trkpt lat="44.14651986552016" lon="12.39732307053245"><ele>8.0</ele><time>2026-04-18T13:44:57.002Z</time></trkpt><trkpt lat="44.14663332733758" lon="12.397431743667186"><ele>8.0</ele><time>2026-04-18T13:44:58.002Z</time></trkpt><trkpt lat="44.14673636763202" lon="12.39754375131999"><ele>8.0</ele><time>2026-04-18T13:44:59.002Z</time></trkpt><trkpt lat="44.14684218584315" lon="12.397668913875954"><ele>8.0</ele><time>2026-04-18T13:45:00.002Z</time></trkpt><trkpt lat="44.14694232203975" lon="12.397796431351235"><ele>8.0</ele><time>2026-04-18T13:45:01.002Z</time></trkpt><trkpt lat="44.14704341869487" lon="12.397930326340404"><ele>8.0</ele><time>2026-04-18T13:45:02.002Z</time></trkpt><trkpt lat="44.14714051984367" lon="12.398067057144788"><ele>8.0</ele><time>2026-04-18T13:45:03.002Z</time></trkpt><trkpt lat="44.1472409585362" lon="12.398211398148932"><ele>8.0</ele><time>2026-04-18T13:45:04.002Z</time></trkpt><trkpt lat="44.14734896795292" lon="12.398366033696579"><ele>8.0</ele><time>2026-04-18T13:45:05.002Z</time></trkpt><trkpt lat="44.14746723335344" lon="12.3985381237768"><ele>8.0</ele><time>2026-04-18T13:45:06.002Z</time></trkpt><trkpt lat="44.147599115458135" lon="12.398711228786361"><ele>8.0</ele><time>2026-04-18T13:45:07.002Z</time></trkpt><trkpt lat="44.14772335708883" lon="12.398889846121499"><ele>8.0</ele><time>2026-04-18T13:45:08.002Z</time></trkpt><trkpt lat="44.14785001584663" lon="12.39907860009316"><ele>8.0</ele><time>2026-04-18T13:45:09.002Z</time></trkpt><trkpt lat="44.14797950179202" lon="12.399284585055437"><ele>8.0</ele><time>2026-04-18T13:45:10.002Z</time></trkpt><trkpt lat="44.148124853675235" lon="12.399513008485664"><ele>7.333333333333333</ele><time>2026-04-18T13:45:11.002Z</time></trkpt><trkpt lat="44.148254710282714" lon="12.399736939098561"><ele>6.666666666666666</ele><time>2026-04-18T13:45:12.002Z</time></trkpt><trkpt lat="44.14837852921802" lon="12.39997173415029"><ele>6.0</ele><time>2026-04-18T13:45:13.002Z</time></trkpt><trkpt lat="44.14851767205069" lon="12.400195249058648"><ele>6.0</ele><time>2026-04-18T13:45:14.002Z</time></trkpt><trkpt lat="44.14865640269504" lon="12.400404855078358"><ele>6.0</ele><time>2026-04-18T13:45:15.002Z</time></trkpt><trkpt lat="44.1488003853263" lon="12.400625533380055"><ele>6.0</ele><time>2026-04-18T13:45:16.002Z</time></trkpt><trkpt lat="44.14895057753895" lon="12.40083611502722"><ele>6.333333333333334</ele><time>2026-04-18T13:45:17.002Z</time></trkpt><trkpt lat="44.14909700695144" lon="12.401048360585255"><ele>6.666666666666667</ele><time>2026-04-18T13:45:18.002Z</time></trkpt><trkpt lat="44.14923500887991" lon="12.40125141586865"><ele>7.0</ele><time>2026-04-18T13:45:19.002Z</time></trkpt><trkpt lat="44.14936775053943" lon="12.401449574409508"><ele>7.0</ele><time>2026-04-18T13:45:20.002Z</time></trkpt><trkpt lat="44.1494949304806" lon="12.401644691268631"><ele>7.0</ele><time>2026-04-18T13:45:21.002Z</time></trkpt><trkpt lat="44.149631824605756" lon="12.40184248626597"><ele>7.0</ele><time>2026-04-18T13:45:22.002Z</time></trkpt><trkpt lat="44.149772375747766" lon="12.4020367984132"><ele>6.666666666666667</ele><time>2026-04-18T13:45:23.003Z</time></trkpt><trkpt lat="44.14990975523953" lon="12.402233547969113"><ele>6.333333333333334</ele><time>2026-04-18T13:45:24.003Z</time></trkpt><trkpt lat="44.15004836548595" lon="12.402436963651835"><ele>6.0</ele><time>2026-04-18T13:45:25.003Z</time></trkpt><trkpt lat="44.15018842042554" lon="12.402648416193166"><ele>6.0</ele><time>2026-04-18T13:45:26.003Z</time></trkpt><trkpt lat="44.15032904968051" lon="12.402859394719634"><ele>6.0</ele><time>2026-04-18T13:45:27.003Z</time></trkpt><trkpt lat="44.15047248537966" lon="12.403066984189993"><ele>6.0</ele><time>2026-04-18T13:45:28.003Z</time></trkpt><trkpt lat="44.15060739689243" lon="12.403274935835155"><ele>6.0</ele><time>2026-04-18T13:45:29.003Z</time></trkpt><trkpt lat="44.150743957235164" lon="12.40348214256767"><ele>6.0</ele><time>2026-04-18T13:45:30.003Z</time></trkpt><trkpt lat="44.15087420602635" lon="12.403677372519962"><ele>6.0</ele><time>2026-04-18T13:45:31.003Z</time></trkpt><trkpt lat="44.151009194033094" lon="12.403861695469926"><ele>6.0</ele><time>2026-04-18T13:45:32.003Z</time></trkpt><trkpt lat="44.15115658532148" lon="12.404051720977813"><ele>6.0</ele><time>2026-04-18T13:45:33.003Z</time></trkpt><trkpt lat="44.15130682862195" lon="12.40424535597567"><ele>6.0</ele><time>2026-04-18T13:45:34.003Z</time></trkpt><trkpt lat="44.15145355356683" lon="12.404428158105812"><ele>6.0</ele><time>2026-04-18T13:45:35.003Z</time></trkpt><trkpt lat="44.151601739727454" lon="12.404611053596971"><ele>6.0</ele><time>2026-04-18T13:45:36.003Z</time></trkpt><trkpt lat="44.15175068527402" lon="12.40479173504956"><ele>6.0</ele><time>2026-04-18T13:45:37.003Z</time></trkpt><trkpt lat="44.151906387207056" lon="12.404974370326316"><ele>6.0</ele><time>2026-04-18T13:45:38.003Z</time></trkpt><trkpt lat="44.15206657471383" lon="12.40516211847205"><ele>6.0</ele><time>2026-04-18T13:45:39.003Z</time></trkpt><trkpt lat="44.152223655629705" lon="12.405356019955676"><ele>6.0</ele><time>2026-04-18T13:45:40.003Z</time></trkpt><trkpt lat="44.152374369234614" lon="12.405547994255885"><ele>5.666666666666667</ele><time>2026-04-18T13:45:41.003Z</time></trkpt><trkpt lat="44.152519481403594" lon="12.405733299676795"><ele>5.333333333333334</ele><time>2026-04-18T13:45:42.003Z</time></trkpt><trkpt lat="44.152663222511165" lon="12.405911035713311"><ele>5.0</ele><time>2026-04-18T13:45:43.003Z</time></trkpt><trkpt lat="44.15281330227749" lon="12.406090406415707"><ele>5.0</ele><time>2026-04-18T13:45:44.003Z</time></trkpt><trkpt lat="44.1529576329727" lon="12.406267854779003"><ele>5.0</ele><time>2026-04-18T13:45:45.003Z</time></trkpt><trkpt lat="44.15309122322626" lon="12.406432510160176"><ele>5.0</ele><time>2026-04-18T13:45:46.003Z</time></trkpt><trkpt lat="44.15321978012828" lon="12.406590547778297"><ele>5.0</ele><time>2026-04-18T13:45:47.003Z</time></trkpt><trkpt lat="44.15334928222943" lon="12.406747113656698"><ele>5.0</ele><time>2026-04-18T13:45:48.003Z</time></trkpt><trkpt lat="44.15347131963688" lon="12.406906107346844"><ele>5.0</ele><time>2026-04-18T13:45:49.003Z</time></trkpt><trkpt lat="44.15358464236292" lon="12.407047156300367"><ele>4.75</ele><time>2026-04-18T13:45:50.003Z</time></trkpt><trkpt lat="44.1536915170795" lon="12.407182076313191"><ele>4.5</ele><time>2026-04-18T13:45:51.003Z</time></trkpt><trkpt lat="44.15379642389461" lon="12.407318701025309"><ele>4.25</ele><time>2026-04-18T13:45:52.003Z</time></trkpt><trkpt lat="44.15389796344338" lon="12.407457529674081"><ele>4.0</ele><time>2026-04-18T13:45:53.003Z</time></trkpt><trkpt lat="44.154003483798164" lon="12.407599563008734"><ele>4.0</ele><time>2026-04-18T13:45:54.003Z</time></trkpt><trkpt lat="44.15411267938159" lon="12.407744278207906"><ele>4.0</ele><time>2026-04-18T13:45:55.003Z</time></trkpt><trkpt lat="44.154222672573304" lon="12.407894788169061"><ele>4.0</ele><time>2026-04-18T13:45:56.003Z</time></trkpt><trkpt lat="44.1543245298501" lon="12.408043876678185"><ele>4.0</ele><time>2026-04-18T13:45:57.002Z</time></trkpt><trkpt lat="44.15442330650036" lon="12.40818506589802"><ele>4.0</ele><time>2026-04-18T13:45:58.001Z</time></trkpt><trkpt lat="44.15451854709794" lon="12.408312227118488"><ele>4.0</ele><time>2026-04-18T13:45:59.001Z</time></trkpt><trkpt lat="44.15459398135099" lon="12.408420781500853"><ele>4.0</ele><time>2026-04-18T13:46:00.002Z</time></trkpt><trkpt lat="44.15467468803947" lon="12.408526010161122"><ele>3.9999999999999996</ele><time>2026-04-18T13:46:01.002Z</time></trkpt><trkpt lat="44.15474335227361" lon="12.408625348810814"><ele>4.0</ele><time>2026-04-18T13:46:02.002Z</time></trkpt><trkpt lat="44.15479823534675" lon="12.408727781143368"><ele>4.0</ele><time>2026-04-18T13:46:03.002Z</time></trkpt><trkpt lat="44.15482585625349" lon="12.408827890342518"><ele>4.0</ele><time>2026-04-18T13:46:04.001Z</time></trkpt><trkpt lat="44.15483653481777" lon="12.408941492906482"><ele>3.9999999999999996</ele><time>2026-04-18T13:46:05.001Z</time></trkpt><trkpt lat="44.15484650449936" lon="12.40906575551033"><ele>4.0</ele><time>2026-04-18T13:46:06.002Z</time></trkpt><trkpt lat="44.154865742367214" lon="12.409186885769282"><ele>4.2</ele><time>2026-04-18T13:46:07.002Z</time></trkpt><trkpt lat="44.15490848022125" lon="12.409290151927829"><ele>4.4</ele><time>2026-04-18T13:46:08.002Z</time></trkpt><trkpt lat="44.15497427816354" lon="12.40937789406256"><ele>4.6</ele><time>2026-04-18T13:46:09.001Z</time></trkpt><trkpt lat="44.15505730798173" lon="12.409433971633241"><ele>4.8</ele><time>2026-04-18T13:46:10.002Z</time></trkpt><trkpt lat="44.15515602247189" lon="12.409451538933514"><ele>5.0</ele><time>2026-04-18T13:46:11.002Z</time></trkpt><trkpt lat="44.155253667672234" lon="12.409451051089759"><ele>5.0</ele><time>2026-04-18T13:46:12.002Z</time></trkpt><trkpt lat="44.15535142601728" lon="12.409461819172732"><ele>5.0</ele><time>2026-04-18T13:46:13.002Z</time></trkpt><trkpt lat="44.15543793406179" lon="12.4095082370286"><ele>5.0</ele><time>2026-04-18T13:46:14.002Z</time></trkpt><trkpt lat="44.15551990701685" lon="12.409591968530666"><ele>5.0</ele><time>2026-04-18T13:46:15.002Z</time></trkpt><trkpt lat="44.1556091493742" lon="12.409692159985537"><ele>5.0</ele><time>2026-04-18T13:46:16.002Z</time></trkpt><trkpt lat="44.15571995318001" lon="12.409813531433507"><ele>4.75</ele><time>2026-04-18T13:46:17.002Z</time></trkpt><trkpt lat="44.155828908775234" lon="12.409931057254347"><ele>4.5</ele><time>2026-04-18T13:46:18.002Z</time></trkpt><trkpt lat="44.15594530777237" lon="12.410052217412314"><ele>4.25</ele><time>2026-04-18T13:46:19.002Z</time></trkpt><trkpt lat="44.15605076569769" lon="12.410172057476892"><ele>4.0</ele><time>2026-04-18T13:46:20.002Z</time></trkpt><trkpt lat="44.156158973574165" lon="12.410287907489796"><ele>4.0</ele><time>2026-04-18T13:46:21.002Z</time></trkpt><trkpt lat="44.15627182469836" lon="12.410416291775606"><ele>4.0</ele><time>2026-04-18T13:46:22.002Z</time></trkpt><trkpt lat="44.15638951506175" lon="12.410546439623895"><ele>4.0</ele><time>2026-04-18T13:46:23.002Z</time></trkpt><trkpt lat="44.15650796528484" lon="12.410681368246369"><ele>4.0</ele><time>2026-04-18T13:46:24.002Z</time></trkpt><trkpt lat="44.15663194431354" lon="12.410817823423852"><ele>4.0</ele><time>2026-04-18T13:46:25.002Z</time></trkpt><trkpt lat="44.15675755920731" lon="12.41095252740369"><ele>4.0</ele><time>2026-04-18T13:46:26.002Z</time></trkpt><trkpt lat="44.1568780923281" lon="12.411089883882177"><ele>4.0</ele><time>2026-04-18T13:46:27.002Z</time></trkpt><trkpt lat="44.156999475239346" lon="12.411222129178594"><ele>4.0</ele><time>2026-04-18T13:46:28.002Z</time></trkpt><trkpt lat="44.157121134048396" lon="12.411359110874438"><ele>4.0</ele><time>2026-04-18T13:46:29.002Z</time></trkpt><trkpt lat="44.15723997915807" lon="12.411503838981476"><ele>4.0</ele><time>2026-04-18T13:46:30.002Z</time></trkpt><trkpt lat="44.15735878635494" lon="12.411652181123356"><ele>4.0</ele><time>2026-04-18T13:46:31.002Z</time></trkpt><trkpt lat="44.15747989535155" lon="12.41181881904381"><ele>4.0</ele><time>2026-04-18T13:46:32.002Z</time></trkpt><trkpt lat="44.157601674999206" lon="12.412006281915684"><ele>4.0</ele><time>2026-04-18T13:46:33.002Z</time></trkpt><trkpt lat="44.157722023286205" lon="12.412195976182211"><ele>3.6666666666666665</ele><time>2026-04-18T13:46:34.002Z</time></trkpt><trkpt lat="44.157843200697094" lon="12.412392171732757"><ele>3.333333333333333</ele><time>2026-04-18T13:46:35.002Z</time></trkpt><trkpt lat="44.15795234082386" lon="12.412579315481867"><ele>3.0</ele><time>2026-04-18T13:46:36.002Z</time></trkpt><trkpt lat="44.15807968412599" lon="12.412777906039285"><ele>3.0</ele><time>2026-04-18T13:46:37.002Z</time></trkpt><trkpt lat="44.158201907629866" lon="12.412969949701367"><ele>3.0</ele><time>2026-04-18T13:46:38.002Z</time></trkpt><trkpt lat="44.15832647602676" lon="12.413165503763354"><ele>3.0</ele><time>2026-04-18T13:46:39.002Z</time></trkpt><trkpt lat="44.158451244463144" lon="12.413363632273654"><ele>3.0</ele><time>2026-04-18T13:46:40.002Z</time></trkpt><trkpt lat="44.15857596684863" lon="12.4135614772925"><ele>3.0</ele><time>2026-04-18T13:46:41.002Z</time></trkpt><trkpt lat="44.15870028938663" lon="12.413760407328043"><ele>3.0</ele><time>2026-04-18T13:46:42.002Z</time></trkpt><trkpt lat="44.158818603810936" lon="12.413952553916088"><ele>3.0</ele><time>2026-04-18T13:46:43.002Z</time></trkpt><trkpt lat="44.15893561610667" lon="12.414140944423181"><ele>3.0</ele><time>2026-04-18T13:46:44.002Z</time></trkpt><trkpt lat="44.1590530397197" lon="12.41432404399161"><ele>3.0</ele><time>2026-04-18T13:46:45.002Z</time></trkpt><trkpt lat="44.159176074129725" lon="12.414508931827287"><ele>3.0</ele><time>2026-04-18T13:46:46.002Z</time></trkpt><trkpt lat="44.15929948482368" lon="12.41469913005138"><ele>3.0</ele><time>2026-04-18T13:46:47.002Z</time></trkpt><trkpt lat="44.159409194465255" lon="12.414882328877646"><ele>3.0</ele><time>2026-04-18T13:46:48.002Z</time></trkpt><trkpt lat="44.15951913821847" lon="12.415054747627536"><ele>3.0</ele><time>2026-04-18T13:46:49.002Z</time></trkpt><trkpt lat="44.159621549409344" lon="12.41522255527603"><ele>3.0</ele><time>2026-04-18T13:46:50.002Z</time></trkpt><trkpt lat="44.15972585233454" lon="12.415385132466378"><ele>3.0</ele><time>2026-04-18T13:46:51.002Z</time></trkpt><trkpt lat="44.1598224244549" lon="12.415549400614564"><ele>3.333333333333333</ele><time>2026-04-18T13:46:52.002Z</time></trkpt><trkpt lat="44.15992886963258" lon="12.41571888464302"><ele>3.6666666666666665</ele><time>2026-04-18T13:46:53.002Z</time></trkpt><trkpt lat="44.16003367848726" lon="12.415878365870883"><ele>4.0</ele><time>2026-04-18T13:46:54.002Z</time></trkpt><trkpt lat="44.160132983144905" lon="12.416039607872978"><ele>4.0</ele><time>2026-04-18T13:46:55.002Z</time></trkpt><trkpt lat="44.160241081881516" lon="12.416200956999647"><ele>4.0</ele><time>2026-04-18T13:46:56.002Z</time></trkpt><trkpt lat="44.16035536522743" lon="12.416358262278472"><ele>4.0</ele><time>2026-04-18T13:46:57.002Z</time></trkpt><trkpt lat="44.16046767217232" lon="12.416510537618928"><ele>3.333333333333333</ele><time>2026-04-18T13:46:58.002Z</time></trkpt><trkpt lat="44.160588658844844" lon="12.416664993583105"><ele>2.6666666666666665</ele><time>2026-04-18T13:46:59.002Z</time></trkpt><trkpt lat="44.1607102800177" lon="12.416819856261244"><ele>2.0</ele><time>2026-04-18T13:47:00.002Z</time></trkpt><trkpt lat="44.1608361918434" lon="12.416973611544675"><ele>2.0</ele><time>2026-04-18T13:47:01.002Z</time></trkpt><trkpt lat="44.16095609918554" lon="12.41712514142127"><ele>2.0</ele><time>2026-04-18T13:47:02.002Z</time></trkpt><trkpt lat="44.16107151640379" lon="12.41727053500499"><ele>2.0</ele><time>2026-04-18T13:47:03.002Z</time></trkpt><trkpt lat="44.16118991170867" lon="12.417419308391525"><ele>1.75</ele><time>2026-04-18T13:47:04.002Z</time></trkpt><trkpt lat="44.161307264651185" lon="12.417565139702981"><ele>1.5</ele><time>2026-04-18T13:47:05.002Z</time></trkpt><trkpt lat="44.16141890239582" lon="12.417699549589067"><ele>1.25</ele><time>2026-04-18T13:47:06.002Z</time></trkpt><trkpt lat="44.16152314878319" lon="12.417830491524203"><ele>1.0</ele><time>2026-04-18T13:47:07.002Z</time></trkpt><trkpt lat="44.161631404914104" lon="12.41796358032574"><ele>2.0</ele><time>2026-04-18T13:47:08.002Z</time></trkpt><trkpt lat="44.16173917049092" lon="12.41809557776995"><ele>3.0</ele><time>2026-04-18T13:47:09.002Z</time></trkpt><trkpt lat="44.16185327893087" lon="12.418244688457346"><ele>4.0</ele><time>2026-04-18T13:47:10.002Z</time></trkpt><trkpt lat="44.161965569108304" lon="12.418383262743658"><ele>4.0</ele><time>2026-04-18T13:47:11.002Z</time></trkpt><trkpt lat="44.162074391152714" lon="12.418524860932783"><ele>4.0</ele><time>2026-04-18T13:47:12.002Z</time></trkpt><trkpt lat="44.16218760097019" lon="12.418665648610938"><ele>4.0</ele><time>2026-04-18T13:47:13.002Z</time></trkpt><trkpt lat="44.16230914622185" lon="12.41881380616896"><ele>3.0</ele><time>2026-04-18T13:47:14.002Z</time></trkpt><trkpt lat="44.16243786938327" lon="12.418973449485595"><ele>2.0</ele><time>2026-04-18T13:47:15.002Z</time></trkpt><trkpt lat="44.16257055751479" lon="12.419123241473839"><ele>1.0</ele><time>2026-04-18T13:47:16.002Z</time></trkpt><trkpt lat="44.16269593988448" lon="12.419294633552981"><ele>1.0</ele><time>2026-04-18T13:47:17.002Z</time></trkpt><trkpt lat="44.16281392656028" lon="12.419439296024738"><ele>1.0</ele><time>2026-04-18T13:47:18.002Z</time></trkpt><trkpt lat="44.16292998201017" lon="12.419582283807436"><ele>1.0</ele><time>2026-04-18T13:47:19.002Z</time></trkpt><trkpt lat="44.16303929931119" lon="12.41972656369088"><ele>1.0</ele><time>2026-04-18T13:47:20.002Z</time></trkpt><trkpt lat="44.16314284975047" lon="12.419857384672166"><ele>1.0</ele><time>2026-04-18T13:47:21.002Z</time></trkpt><trkpt lat="44.163238272964136" lon="12.419982803800362"><ele>1.0</ele><time>2026-04-18T13:47:22.002Z</time></trkpt><trkpt lat="44.163330986845544" lon="12.420104320581737"><ele>1.0</ele><time>2026-04-18T13:47:23.002Z</time></trkpt><trkpt lat="44.16342782886127" lon="12.420213020872435"><ele>1.0</ele><time>2026-04-18T13:47:24.002Z</time></trkpt><trkpt lat="44.163515262112675" lon="12.420322326756425"><ele>1.0</ele><time>2026-04-18T13:47:25.002Z</time></trkpt><trkpt lat="44.163600301634325" lon="12.420430500378592"><ele>1.0</ele><time>2026-04-18T13:47:26.002Z</time></trkpt><trkpt lat="44.1636851205656" lon="12.42053394800017"><ele>1.0</ele><time>2026-04-18T13:47:27.002Z</time></trkpt><trkpt lat="44.16377761793362" lon="12.420642466207324"><ele>0.75</ele><time>2026-04-18T13:47:28.002Z</time></trkpt><trkpt lat="44.16387217819412" lon="12.420765665104039"><ele>0.5</ele><time>2026-04-18T13:47:29.002Z</time></trkpt><trkpt lat="44.1639756229022" lon="12.420898015747008"><ele>0.25</ele><time>2026-04-18T13:47:30.002Z</time></trkpt><trkpt lat="44.16407646596709" lon="12.421023835196719"><ele>0.0</ele><time>2026-04-18T13:47:31.002Z</time></trkpt><trkpt lat="44.16417165194691" lon="12.421138036609802"><ele>0.0</ele><time>2026-04-18T13:47:32.002Z</time></trkpt><trkpt lat="44.164255677141874" lon="12.421251086759005"><ele>0.0</ele><time>2026-04-18T13:47:33.002Z</time></trkpt><trkpt lat="44.164340422812096" lon="12.421354516119719"><ele>0.0</ele><time>2026-04-18T13:47:34.002Z</time></trkpt><trkpt lat="44.16442154481813" lon="12.42145784483886"><ele>0.0</ele><time>2026-04-18T13:47:35.002Z</time></trkpt><trkpt lat="44.16449135927966" lon="12.421549658236485"><ele>0.0</ele><time>2026-04-18T13:47:36.002Z</time></trkpt><trkpt lat="44.16456183604931" lon="12.42163777774678"><ele>0.5</ele><time>2026-04-18T13:47:37.002Z</time></trkpt><trkpt lat="44.164627602327116" lon="12.421722213907461"><ele>1.0</ele><time>2026-04-18T13:47:38.002Z</time></trkpt><trkpt lat="44.164692222526384" lon="12.421796045780122"><ele>1.5</ele><time>2026-04-18T13:47:39.002Z</time></trkpt><trkpt lat="44.16475024202108" lon="12.421868633234446"><ele>2.0</ele><time>2026-04-18T13:47:40.002Z</time></trkpt><trkpt lat="44.164804816735156" lon="12.421941125057035"><ele>2.5</ele><time>2026-04-18T13:47:41.002Z</time></trkpt><trkpt lat="44.16485052119825" lon="12.42200516391429"><ele>3.0</ele><time>2026-04-18T13:47:42.002Z</time></trkpt><trkpt lat="44.16490220552219" lon="12.422068162183823"><ele>3.0</ele><time>2026-04-18T13:47:43.002Z</time></trkpt><trkpt lat="44.164950837574075" lon="12.422126791293103"><ele>3.0</ele><time>2026-04-18T13:47:44.002Z</time></trkpt><trkpt lat="44.165024447657004" lon="12.42221061338765"><ele>3.0</ele><time>2026-04-18T13:47:46.002Z</time></trkpt><trkpt lat="44.165084621967154" lon="12.422290599184668"><ele>3.0</ele><time>2026-04-18T13:47:48.002Z</time></trkpt><trkpt lat="44.16513237538833" lon="12.422356561183518"><ele>3.0</ele><time>2026-04-18T13:47:50.002Z</time></trkpt><trkpt lat="44.16517289969549" lon="12.422426034372206"><ele>3.0</ele><time>2026-04-18T13:47:53.002Z</time></trkpt><trkpt lat="44.165230554321255" lon="12.422494165735067"><ele>2.8571428571428568</ele><time>2026-04-18T13:47:55.002Z</time></trkpt><trkpt lat="44.16528349802661" lon="12.422568395559873"><ele>2.7142857142857144</ele><time>2026-04-18T13:47:57.002Z</time></trkpt><trkpt lat="44.16533941522806" lon="12.422651059362249"><ele>2.571428571428571</ele><time>2026-04-18T13:47:59.002Z</time></trkpt><trkpt lat="44.16539192439425" lon="12.42271859002905"><ele>2.4285714285714284</ele><time>2026-04-18T13:48:02.002Z</time></trkpt><trkpt lat="44.16544135554592" lon="12.422794630756895"><ele>2.2857142857142856</ele><time>2026-04-18T13:48:06.001Z</time></trkpt><trkpt lat="44.16549383014715" lon="12.422870273913189"><ele>2.142857142857143</ele><time>2026-04-18T13:48:10.001Z</time></trkpt><trkpt lat="44.16553532298661" lon="12.42294075070448"><ele>2.0</ele><time>2026-04-18T13:48:26.002Z</time></trkpt><trkpt lat="44.165576878828425" lon="12.423011934672257"><ele>1.8</ele><time>2026-04-18T13:48:35.002Z</time></trkpt><trkpt lat="44.1656117757769" lon="12.423125610312368"><ele>1.6</ele><time>2026-04-18T13:48:38.002Z</time></trkpt><trkpt lat="44.16562311791344" lon="12.423229424426458"><ele>1.4000000000000001</ele><time>2026-04-18T13:48:41.002Z</time></trkpt><trkpt lat="44.16561582503337" lon="12.423377395518427"><ele>1.2000000000000002</ele><time>2026-04-18T13:48:45.002Z</time></trkpt><trkpt lat="44.16556142626532" lon="12.42353681839935"><ele>1.0</ele><time>2026-04-18T13:48:47.002Z</time></trkpt><trkpt lat="44.16552261152179" lon="12.423617325135492"><ele>0.9999999999999999</ele><time>2026-04-18T13:48:48.002Z</time></trkpt><trkpt lat="44.1654873726342" lon="12.423701277438038"><ele>1.0</ele><time>2026-04-18T13:48:49.002Z</time></trkpt><trkpt lat="44.1654481972412" lon="12.423780261465698"><ele>1.0</ele><time>2026-04-18T13:48:50.002Z</time></trkpt><trkpt lat="44.16541259693935" lon="12.423853202976762"><ele>1.0</ele><time>2026-04-18T13:48:51.002Z</time></trkpt><trkpt lat="44.16535212847556" lon="12.423977653204764"><ele>0.9999999999999999</ele><time>2026-04-18T13:48:53.002Z</time></trkpt><trkpt lat="44.16529923126672" lon="12.424081838502394"><ele>1.0</ele><time>2026-04-18T13:48:55.002Z</time></trkpt><trkpt lat="44.165244047250745" lon="12.424179860207884"><ele>0.9999999999999999</ele><time>2026-04-18T13:48:57.002Z</time></trkpt><trkpt lat="44.16520100370032" lon="12.424267640878965"><ele>1.0</ele><time>2026-04-18T13:48:59.002Z</time></trkpt><trkpt lat="44.16516683227959" lon="12.424344289749559"><ele>1.0</ele><time>2026-04-18T13:49:01.002Z</time></trkpt><trkpt lat="44.16511616518861" lon="12.424437759103947"><ele>1.0</ele><time>2026-04-18T13:49:03.002Z</time></trkpt><trkpt lat="44.16505851958686" lon="12.424565569850355"><ele>0.9999999999999999</ele><time>2026-04-18T13:49:05.002Z</time></trkpt><trkpt lat="44.16498935081546" lon="12.424693251382832"><ele>1.0</ele><time>2026-04-18T13:49:07.002Z</time></trkpt><trkpt lat="44.16490646593819" lon="12.424835321430656"><ele>1.0</ele><time>2026-04-18T13:49:09.002Z</time></trkpt><trkpt lat="44.16486363224256" lon="12.424919563368222"><ele>0.9999999999999999</ele><time>2026-04-18T13:49:10.002Z</time></trkpt><trkpt lat="44.164823506982756" lon="12.425002640574887"><ele>1.0</ele><time>2026-04-18T13:49:11.002Z</time></trkpt><trkpt lat="44.16478579274004" lon="12.425076945592759"><ele>1.0</ele><time>2026-04-18T13:49:12.002Z</time></trkpt><trkpt lat="44.16474132273831" lon="12.425157002258834"><ele>0.9999999999999999</ele><time>2026-04-18T13:49:13.002Z</time></trkpt><trkpt lat="44.1646917808366" lon="12.425241248902589"><ele>1.0</ele><time>2026-04-18T13:49:14.002Z</time></trkpt><trkpt lat="44.164637208871355" lon="12.425314161344502"><ele>1.0</ele><time>2026-04-18T13:49:15.002Z</time></trkpt><trkpt lat="44.16458306494621" lon="12.425384375171012"><ele>0.8</ele><time>2026-04-18T13:49:16.002Z</time></trkpt><trkpt lat="44.164525535567655" lon="12.425458545191736"><ele>0.6000000000000001</ele><time>2026-04-18T13:49:17.002Z</time></trkpt><trkpt lat="44.16445043226508" lon="12.425546958186604"><ele>0.4</ele><time>2026-04-18T13:49:18.002Z</time></trkpt><trkpt lat="44.1643794189958" lon="12.425649620797367"><ele>0.2</ele><time>2026-04-18T13:49:19.002Z</time></trkpt><trkpt lat="44.1643203574133" lon="12.425755881225301"><ele>0.0</ele><time>2026-04-18T13:49:20.002Z</time></trkpt><trkpt lat="44.16428578559951" lon="12.42587967489469"><ele>0.0</ele><time>2026-04-18T13:49:21.002Z</time></trkpt><trkpt lat="44.164274289420135" lon="12.4260024271614"><ele>0.0</ele><time>2026-04-18T13:49:22.002Z</time></trkpt><trkpt lat="44.16428150231132" lon="12.426127079071337"><ele>0.0</ele><time>2026-04-18T13:49:23.002Z</time></trkpt><trkpt lat="44.16431589643604" lon="12.426239166840471"><ele>0.0</ele><time>2026-04-18T13:49:24.002Z</time></trkpt><trkpt lat="44.164373900434164" lon="12.42633377362394"><ele>0.0</ele><time>2026-04-18T13:49:25.002Z</time></trkpt><trkpt lat="44.16444595148754" lon="12.426404529267892"><ele>0.0</ele><time>2026-04-18T13:49:26.002Z</time></trkpt><trkpt lat="44.16452690140593" lon="12.42644956784316"><ele>0.0</ele><time>2026-04-18T13:49:27.002Z</time></trkpt><trkpt lat="44.16461837670524" lon="12.426459047390098"><ele>0.0</ele><time>2026-04-18T13:49:28.002Z</time></trkpt><trkpt lat="44.16470741885538" lon="12.426459205279288"><ele>0.0</ele><time>2026-04-18T13:49:29.002Z</time></trkpt><trkpt lat="44.16478810327009" lon="12.42646439670471"><ele>0.0</ele><time>2026-04-18T13:49:30.002Z</time></trkpt><trkpt lat="44.16486185540365" lon="12.426497985799037"><ele>0.0</ele><time>2026-04-18T13:49:31.002Z</time></trkpt><trkpt lat="44.164933142473025" lon="12.426559054561874"><ele>0.0</ele><time>2026-04-18T13:49:32.002Z</time></trkpt><trkpt lat="44.165001776881574" lon="12.426656894135103"><ele>-0.25</ele><time>2026-04-18T13:49:33.002Z</time></trkpt><trkpt lat="44.16507537886305" lon="12.426780765039098"><ele>-0.5</ele><time>2026-04-18T13:49:34.002Z</time></trkpt><trkpt lat="44.165152409471936" lon="12.426916240047955"><ele>-0.75</ele><time>2026-04-18T13:49:35.002Z</time></trkpt><trkpt lat="44.16523396311403" lon="12.427062366404309"><ele>-1.0</ele><time>2026-04-18T13:49:36.002Z</time></trkpt><trkpt lat="44.16532553277849" lon="12.427219000181465"><ele>0.0</ele><time>2026-04-18T13:49:37.002Z</time></trkpt><trkpt lat="44.16542219257216" lon="12.427377641909823"><ele>1.0</ele><time>2026-04-18T13:49:38.002Z</time></trkpt><trkpt lat="44.165518679303425" lon="12.427539368684018"><ele>2.0</ele><time>2026-04-18T13:49:39.002Z</time></trkpt><trkpt lat="44.165615347628695" lon="12.427710412891095"><ele>2.0</ele><time>2026-04-18T13:49:40.002Z</time></trkpt><trkpt lat="44.16570568027708" lon="12.427881149524913"><ele>2.0</ele><time>2026-04-18T13:49:41.002Z</time></trkpt><trkpt lat="44.16579174513988" lon="12.428051024132408"><ele>2.0</ele><time>2026-04-18T13:49:42.002Z</time></trkpt><trkpt lat="44.165874281648534" lon="12.428217599073584"><ele>2.0</ele><time>2026-04-18T13:49:43.002Z</time></trkpt><trkpt lat="44.165958911937196" lon="12.42837704387867"><ele>2.0</ele><time>2026-04-18T13:49:44.002Z</time></trkpt><trkpt lat="44.16604713619325" lon="12.428535458716329"><ele>2.0</ele><time>2026-04-18T13:49:45.002Z</time></trkpt><trkpt lat="44.16613754393407" lon="12.428691199972695"><ele>2.0</ele><time>2026-04-18T13:49:46.002Z</time></trkpt><trkpt lat="44.16622344953513" lon="12.428850692934756"><ele>2.0</ele><time>2026-04-18T13:49:47.002Z</time></trkpt><trkpt lat="44.16630242113218" lon="12.428995639883274"><ele>2.0</ele><time>2026-04-18T13:49:48.002Z</time></trkpt><trkpt lat="44.16637576954025" lon="12.42912845228116"><ele>2.0</ele><time>2026-04-18T13:49:49.002Z</time></trkpt><trkpt lat="44.16644546508587" lon="12.429254325196744"><ele>2.0</ele><time>2026-04-18T13:49:50.002Z</time></trkpt><trkpt lat="44.1665166683915" lon="12.429372013208644"><ele>2.0</ele><time>2026-04-18T13:49:51.002Z</time></trkpt><trkpt lat="44.1665860218533" lon="12.429494734678043"><ele>2.2</ele><time>2026-04-18T13:49:52.002Z</time></trkpt><trkpt lat="44.16664713042692" lon="12.42961072153135"><ele>2.4000000000000004</ele><time>2026-04-18T13:49:53.002Z</time></trkpt><trkpt lat="44.1667079697469" lon="12.429722039211645"><ele>2.5999999999999996</ele><time>2026-04-18T13:49:54.002Z</time></trkpt><trkpt lat="44.16676935847768" lon="12.429837297538885"><ele>2.8</ele><time>2026-04-18T13:49:55.002Z</time></trkpt><trkpt lat="44.166830808736584" lon="12.429946690218339"><ele>3.0</ele><time>2026-04-18T13:49:56.002Z</time></trkpt><trkpt lat="44.16688806990511" lon="12.430043150011976"><ele>2.6666666666666665</ele><time>2026-04-18T13:49:57.002Z</time></trkpt><trkpt lat="44.166935352610835" lon="12.430142151220252"><ele>2.3333333333333335</ele><time>2026-04-18T13:49:58.002Z</time></trkpt><trkpt lat="44.1669706713154" lon="12.43024881587752"><ele>2.0</ele><time>2026-04-18T13:49:59.002Z</time></trkpt><trkpt lat="44.16697906973073" lon="12.430363109787338"><ele>1.6666666666666665</ele><time>2026-04-18T13:50:00.002Z</time></trkpt><trkpt lat="44.16696855648655" lon="12.43048732289389"><ele>1.3333333333333333</ele><time>2026-04-18T13:50:01.002Z</time></trkpt><trkpt lat="44.166941571807506" lon="12.430602281353922"><ele>1.0</ele><time>2026-04-18T13:50:02.002Z</time></trkpt><trkpt lat="44.166900496671225" lon="12.430709833199401"><ele>1.1666666666666665</ele><time>2026-04-18T13:50:03.002Z</time></trkpt><trkpt lat="44.166843187651885" lon="12.430800736012923"><ele>1.3333333333333333</ele><time>2026-04-18T13:50:04.002Z</time></trkpt><trkpt lat="44.16678244565667" lon="12.430877560374764"><ele>1.5</ele><time>2026-04-18T13:50:05.002Z</time></trkpt><trkpt lat="44.16671875772133" lon="12.430948305388943"><ele>1.6666666666666665</ele><time>2026-04-18T13:50:06.002Z</time></trkpt><trkpt lat="44.16665708093982" lon="12.431012045277496"><ele>1.8333333333333333</ele><time>2026-04-18T13:50:07.002Z</time></trkpt><trkpt lat="44.16660245508784" lon="12.431073080856702"><ele>2.0</ele><time>2026-04-18T13:50:08.002Z</time></trkpt><trkpt lat="44.16651049143869" lon="12.431180058710801"><ele>1.9999999999999998</ele><time>2026-04-18T13:50:10.001Z</time></trkpt><trkpt lat="44.16648986692256" lon="12.431284624374369"><ele>2.0</ele><time>2026-04-18T13:50:12.001Z</time></trkpt><trkpt lat="44.16656541077692" lon="12.431408147574336"><ele>2.0</ele><time>2026-04-18T13:50:14.001Z</time></trkpt><trkpt lat="44.16661460510514" lon="12.431464823587577"><ele>2.0</ele><time>2026-04-18T13:50:15Z</time></trkpt><trkpt lat="44.16665930480249" lon="12.431531041488878"><ele>1.9999999999999998</ele><time>2026-04-18T13:50:16.001Z</time></trkpt><trkpt lat="44.16670030617163" lon="12.431598809644811"><ele>2.0</ele><time>2026-04-18T13:50:17.001Z</time></trkpt><trkpt lat="44.16676940666243" lon="12.431689762954603"><ele>1.4999999999999998</ele><time>2026-04-18T13:50:19.001Z</time></trkpt><trkpt lat="44.166846180403674" lon="12.431698393189551"><ele>1.0</ele><time>2026-04-18T13:50:21.001Z</time></trkpt><trkpt lat="44.16690018406124" lon="12.431640007569303"><ele>0.5</ele><time>2026-04-18T13:50:22Z</time></trkpt><trkpt lat="44.16694873860042" lon="12.431572689728227"><ele>0.0</ele><time>2026-04-18T13:50:23Z</time></trkpt><trkpt lat="44.16702052826812" lon="12.431496532598375"><ele>-0.49999999999999994</ele><time>2026-04-18T13:50:24Z</time></trkpt><trkpt lat="44.16709082305095" lon="12.431422558497202"><ele>-1.0</ele><time>2026-04-18T13:50:25Z</time></trkpt><trkpt lat="44.16715187983327" lon="12.431356669472777"><ele>-0.9999999999999999</ele><time>2026-04-18T13:50:26Z</time></trkpt><trkpt lat="44.16720630104895" lon="12.431298263585296"><ele>-1.0</ele><time>2026-04-18T13:50:27.001Z</time></trkpt><trkpt lat="44.16725904044953" lon="12.431236726919487"><ele>-1.0</ele><time>2026-04-18T13:50:28.001Z</time></trkpt><trkpt lat="44.167341662747916" lon="12.43113321858658"><ele>-1.0</ele><time>2026-04-18T13:50:30.001Z</time></trkpt><trkpt lat="44.1673513746919" lon="12.43103334581546"><ele>-0.9999999999999999</ele><time>2026-04-18T13:50:32.001Z</time></trkpt><trkpt lat="44.167277392505206" lon="12.430974540624717"><ele>-1.0</ele><time>2026-04-18T13:50:35.001Z</time></trkpt><trkpt lat="44.16721430382309" lon="12.431041714493553"><ele>-1.0</ele><time>2026-04-18T13:50:37.001Z</time></trkpt><trkpt lat="44.167159438328355" lon="12.431106688901078"><ele>-1.0</ele><time>2026-04-18T13:50:40.001Z</time></trkpt><trkpt lat="44.16710546339792" lon="12.431156204771675"><ele>-1.0</ele><time>2026-04-18T13:50:44.001Z</time></trkpt><trkpt lat="44.16725686760623" lon="12.431195959275026"><ele>-1.0</ele><time>2026-04-18T13:51:07.001Z</time></trkpt><trkpt lat="44.167105611640594" lon="12.431158965011072"><ele>-1.0</ele><time>2026-04-18T13:51:10.001Z</time></trkpt><trkpt lat="44.167027958993174" lon="12.43118600332338"><ele>-0.9999999999999999</ele><time>2026-04-18T13:52:03.001Z</time></trkpt><trkpt lat="44.16707107511368" lon="12.431267362443368"><ele>-1.0</ele><time>2026-04-18T13:52:19.001Z</time></trkpt><trkpt lat="44.16704457515769" lon="12.431177330086117"><ele>-1.0</ele><time>2026-04-18T13:52:39.001Z</time></trkpt><trkpt lat="44.16697942329371" lon="12.43117508114707"><ele>-1.0</ele><time>2026-04-18T13:52:45.001Z</time></trkpt><trkpt lat="44.166907217373705" lon="12.431192557832016"><ele>-0.9999999999999999</ele><time>2026-04-18T13:52:51.001Z</time></trkpt><trkpt lat="44.16704911195533" lon="12.431115171833548"><ele>-1.0</ele><time>2026-04-18T13:55:36.004Z</time></trkpt><trkpt lat="44.16711764939322" lon="12.431140225385292"><ele>-1.0</ele><time>2026-04-18T13:55:39.003Z</time></trkpt><trkpt lat="44.16696137033015" lon="12.431207173525996"><ele>-1.0</ele><time>2026-04-18T13:57:30.003Z</time></trkpt><trkpt lat="44.16706555628498" lon="12.431203881299199"><ele>-1.0</ele><time>2026-04-18T13:57:35.004Z</time></trkpt><trkpt lat="44.16695980945444" lon="12.431209326814397"><ele>-1.0</ele><time>2026-04-18T13:57:47.005Z</time></trkpt><trkpt lat="44.1669285209471" lon="12.431302062771895"><ele>-1.0</ele><time>2026-04-18T13:58:57.005Z</time></trkpt><trkpt lat="44.16685606653122" lon="12.431391554800399"><ele>-0.9999999999999999</ele><time>2026-04-18T13:58:59.005Z</time></trkpt><trkpt lat="44.16680032381694" lon="12.431464957468533"><ele>-1.0</ele><time>2026-04-18T13:59:01.005Z</time></trkpt><trkpt lat="44.166744055658384" lon="12.431543352179617"><ele>-1.0</ele><time>2026-04-18T13:59:03.005Z</time></trkpt><trkpt lat="44.166655366528154" lon="12.43153960368722"><ele>-1.0</ele><time>2026-04-18T13:59:06.005Z</time></trkpt><trkpt lat="44.166613689098796" lon="12.431440130891586"><ele>-0.9999999999999999</ele><time>2026-04-18T13:59:08.005Z</time></trkpt><trkpt lat="44.16654959592524" lon="12.431359636533518"><ele>-1.0</ele><time>2026-04-18T13:59:10.005Z</time></trkpt><trkpt lat="44.16652407663793" lon="12.431272686250912"><ele>-0.9999999999999999</ele><time>2026-04-18T13:59:12.005Z</time></trkpt><trkpt lat="44.16656307310158" lon="12.431152495778987"><ele>-1.0</ele><time>2026-04-18T13:59:22.005Z</time></trkpt><trkpt lat="44.166631239952935" lon="12.43102680124689"><ele>-1.0</ele><time>2026-04-18T13:59:24.005Z</time></trkpt><trkpt lat="44.16668126121439" lon="12.430972236253796"><ele>-1.0</ele><time>2026-04-18T13:59:25.005Z</time></trkpt><trkpt lat="44.166766771523825" lon="12.430921969159558"><ele>-0.9999999999999999</ele><time>2026-04-18T13:59:26.005Z</time></trkpt><trkpt lat="44.166845865218725" lon="12.430878243722443"><ele>-1.0</ele><time>2026-04-18T13:59:27.005Z</time></trkpt><trkpt lat="44.16692118947016" lon="12.430842512776403"><ele>-0.9999999999999999</ele><time>2026-04-18T13:59:28.005Z</time></trkpt><trkpt lat="44.167011461649274" lon="12.430832032366729"><ele>-1.0</ele><time>2026-04-18T13:59:29.005Z</time></trkpt><trkpt lat="44.16709092178512" lon="12.430815027629972"><ele>-1.0</ele><time>2026-04-18T13:59:30.005Z</time></trkpt><trkpt lat="44.167164043837666" lon="12.430784817348776"><ele>-1.0</ele><time>2026-04-18T13:59:31.005Z</time></trkpt><trkpt lat="44.1672351684466" lon="12.430733857056747"><ele>-0.9999999999999999</ele><time>2026-04-18T13:59:32.005Z</time></trkpt><trkpt lat="44.1672843535095" lon="12.430650142813459"><ele>-1.0</ele><time>2026-04-18T13:59:33.005Z</time></trkpt><trkpt lat="44.16731724365007" lon="12.43053772883886"><ele>-0.6000000000000001</ele><time>2026-04-18T13:59:34.005Z</time></trkpt><trkpt lat="44.16735841713206" lon="12.430399729122287"><ele>-0.20000000000000007</ele><time>2026-04-18T13:59:35.005Z</time></trkpt><trkpt lat="44.167410877861826" lon="12.430283467727376"><ele>0.20000000000000007</ele><time>2026-04-18T13:59:36.005Z</time></trkpt><trkpt lat="44.16747470139799" lon="12.430167303914669"><ele>0.6000000000000001</ele><time>2026-04-18T13:59:37.005Z</time></trkpt><trkpt lat="44.16754259938023" lon="12.430080994347566"><ele>1.0</ele><time>2026-04-18T13:59:38.005Z</time></trkpt><trkpt lat="44.16761242183234" lon="12.429993550304765"><ele>1.4</ele><time>2026-04-18T13:59:39.005Z</time></trkpt><trkpt lat="44.16769898788102" lon="12.429915253159656"><ele>1.8</ele><time>2026-04-18T13:59:40.005Z</time></trkpt><trkpt lat="44.167801853135956" lon="12.429839644237118"><ele>2.1999999999999997</ele><time>2026-04-18T13:59:41.005Z</time></trkpt><trkpt lat="44.167896742081105" lon="12.429760054524955"><ele>2.6</ele><time>2026-04-18T13:59:42.005Z</time></trkpt><trkpt lat="44.167965520977454" lon="12.429678612077831"><ele>3.0</ele><time>2026-04-18T13:59:43.005Z</time></trkpt><trkpt lat="44.168033567064185" lon="12.429595474504914"><ele>3.0</ele><time>2026-04-18T13:59:44.005Z</time></trkpt><trkpt lat="44.16809665677934" lon="12.429515327135913"><ele>3.0</ele><time>2026-04-18T13:59:45.005Z</time></trkpt><trkpt lat="44.16815243931526" lon="12.42944455665217"><ele>3.0</ele><time>2026-04-18T13:59:46.007Z</time></trkpt><trkpt lat="44.16821915310187" lon="12.429384605668947"><ele>3.0</ele><time>2026-04-18T13:59:47.007Z</time></trkpt><trkpt lat="44.16827491591516" lon="12.42934107436039"><ele>3.0</ele><time>2026-04-18T13:59:48.007Z</time></trkpt><trkpt lat="44.168332289802585" lon="12.429287942680002"><ele>3.0</ele><time>2026-04-18T13:59:49.006Z</time></trkpt><trkpt lat="44.1684272775332" lon="12.429160107915735"><ele>2.6666666666666665</ele><time>2026-04-18T13:59:51.006Z</time></trkpt><trkpt lat="44.16847689547373" lon="12.429078054688024"><ele>2.3333333333333335</ele><time>2026-04-18T13:59:52.006Z</time></trkpt><trkpt lat="44.168533713587834" lon="12.42896380710447"><ele>2.0</ele><time>2026-04-18T13:59:53.007Z</time></trkpt><trkpt lat="44.16858885247552" lon="12.428875621769103"><ele>1.6666666666666665</ele><time>2026-04-18T13:59:54.007Z</time></trkpt><trkpt lat="44.16863275460765" lon="12.428798106337426"><ele>1.3333333333333333</ele><time>2026-04-18T13:59:55.007Z</time></trkpt><trkpt lat="44.16868433097859" lon="12.428726062461054"><ele>1.0</ele><time>2026-04-18T13:59:56.007Z</time></trkpt><trkpt lat="44.16876189783378" lon="12.428619319012617"><ele>0.9999999999999999</ele><time>2026-04-18T13:59:58.007Z</time></trkpt><trkpt lat="44.168828411240135" lon="12.428541329097477"><ele>1.0</ele><time>2026-04-18T14:00:00.006Z</time></trkpt><trkpt lat="44.16890712004091" lon="12.428473639712147"><ele>1.0</ele><time>2026-04-18T14:00:02.006Z</time></trkpt><trkpt lat="44.16898370286718" lon="12.428515248065828"><ele>1.0</ele><time>2026-04-18T14:00:04.006Z</time></trkpt><trkpt lat="44.16902405268929" lon="12.428585027996931"><ele>0.9999999999999999</ele><time>2026-04-18T14:00:05.006Z</time></trkpt><trkpt lat="44.16906077183673" lon="12.428666115435613"><ele>1.0</ele><time>2026-04-18T14:00:06.006Z</time></trkpt><trkpt lat="44.169102287891555" lon="12.42873462911397"><ele>1.2000000000000002</ele><time>2026-04-18T14:00:07.006Z</time></trkpt><trkpt lat="44.169140789261476" lon="12.42881805137539"><ele>1.4000000000000001</ele><time>2026-04-18T14:00:08.006Z</time></trkpt><trkpt lat="44.16921027914913" lon="12.428971994179351"><ele>1.6</ele><time>2026-04-18T14:00:10.006Z</time></trkpt><trkpt lat="44.16928237881862" lon="12.42910961077824"><ele>1.8</ele><time>2026-04-18T14:00:12.006Z</time></trkpt><trkpt lat="44.169362153942686" lon="12.42923605517491"><ele>2.0</ele><time>2026-04-18T14:00:14.006Z</time></trkpt><trkpt lat="44.169456802766604" lon="12.429379759600602"><ele>1.9999999999999998</ele><time>2026-04-18T14:00:16.006Z</time></trkpt><trkpt lat="44.1694984895318" lon="12.429457616820832"><ele>2.0</ele><time>2026-04-18T14:00:17.006Z</time></trkpt><trkpt lat="44.169542988129905" lon="12.429526139663201"><ele>2.0</ele><time>2026-04-18T14:00:18.006Z</time></trkpt><trkpt lat="44.16958802779265" lon="12.429599489346758"><ele>2.0</ele><time>2026-04-18T14:00:19.006Z</time></trkpt><trkpt lat="44.16962147959624" lon="12.42968075763513"><ele>1.9999999999999998</ele><time>2026-04-18T14:00:20.006Z</time></trkpt><trkpt lat="44.16970328053184" lon="12.429829527134466"><ele>2.0</ele><time>2026-04-18T14:00:22.006Z</time></trkpt><trkpt lat="44.169764880008934" lon="12.429914868155567"><ele>2.0</ele><time>2026-04-18T14:00:23.006Z</time></trkpt><trkpt lat="44.1698167395607" lon="12.430003146200203"><ele>2.0</ele><time>2026-04-18T14:00:24.006Z</time></trkpt><trkpt lat="44.16986526652412" lon="12.43011982668956"><ele>2.0</ele><time>2026-04-18T14:00:25.006Z</time></trkpt><trkpt lat="44.169925967139626" lon="12.430224740001306"><ele>2.0</ele><time>2026-04-18T14:00:26.006Z</time></trkpt><trkpt lat="44.16998738669932" lon="12.430323254610439"><ele>2.0</ele><time>2026-04-18T14:00:27.006Z</time></trkpt><trkpt lat="44.170050271544255" lon="12.430439105881165"><ele>2.25</ele><time>2026-04-18T14:00:28.006Z</time></trkpt><trkpt lat="44.170117613069706" lon="12.430581087862164"><ele>2.5</ele><time>2026-04-18T14:00:29.006Z</time></trkpt><trkpt lat="44.17018835403125" lon="12.430721755241077"><ele>2.75</ele><time>2026-04-18T14:00:30.006Z</time></trkpt><trkpt lat="44.17025475951945" lon="12.430841817525195"><ele>3.0</ele><time>2026-04-18T14:00:31.006Z</time></trkpt><trkpt lat="44.1703153062648" lon="12.430950294510678"><ele>3.0</ele><time>2026-04-18T14:00:32.006Z</time></trkpt><trkpt lat="44.17038624925363" lon="12.431071864107478"><ele>3.0</ele><time>2026-04-18T14:00:33.006Z</time></trkpt><trkpt lat="44.17045733225733" lon="12.431194749907656"><ele>3.0</ele><time>2026-04-18T14:00:34.006Z</time></trkpt><trkpt lat="44.17052606259024" lon="12.43131114234425"><ele>3.0</ele><time>2026-04-18T14:00:35.006Z</time></trkpt><trkpt lat="44.17058180200456" lon="12.43141468640014"><ele>3.0</ele><time>2026-04-18T14:00:36.006Z</time></trkpt><trkpt lat="44.17063427022189" lon="12.43151269262597"><ele>3.0</ele><time>2026-04-18T14:00:37.006Z</time></trkpt><trkpt lat="44.17068101364133" lon="12.43158792874338"><ele>3.0</ele><time>2026-04-18T14:00:38.006Z</time></trkpt><trkpt lat="44.17073959158025" lon="12.431693303103707"><ele>3.0</ele><time>2026-04-18T14:00:40.006Z</time></trkpt><trkpt lat="44.170790210240874" lon="12.431747732275864"><ele>3.0</ele><time>2026-04-18T14:00:43.006Z</time></trkpt><trkpt lat="44.170851848194744" lon="12.431799794052488"><ele>3.0</ele><time>2026-04-18T14:00:54.006Z</time></trkpt><trkpt lat="44.170904332819" lon="12.4319319113273"><ele>3.0</ele><time>2026-04-18T14:01:03.006Z</time></trkpt><trkpt lat="44.17095406591363" lon="12.43201959911028"><ele>3.0</ele><time>2026-04-18T14:01:16.006Z</time></trkpt><trkpt lat="44.17099815153308" lon="12.432101429383438"><ele>3.0</ele><time>2026-04-18T14:01:18.006Z</time></trkpt><trkpt lat="44.171049837100576" lon="12.432154885513437"><ele>3.0</ele><time>2026-04-18T14:01:24.006Z</time></trkpt><trkpt lat="44.171122173245394" lon="12.432065684480365"><ele>3.0</ele><time>2026-04-18T14:01:29.006Z</time></trkpt><trkpt lat="44.17120410710744" lon="12.431953174989067"><ele>3.0</ele><time>2026-04-18T14:01:31.006Z</time></trkpt><trkpt lat="44.171279478121065" lon="12.431885293378205"><ele>3.0</ele><time>2026-04-18T14:01:33.007Z</time></trkpt><trkpt lat="44.171353938035296" lon="12.431773368321272"><ele>3.0</ele><time>2026-04-18T14:01:35.007Z</time></trkpt><trkpt lat="44.17140049611643" lon="12.431677827266025"><ele>3.0</ele><time>2026-04-18T14:01:36.007Z</time></trkpt><trkpt lat="44.1714999004597" lon="12.43153563543774"><ele>3.0</ele><time>2026-04-18T14:01:38.007Z</time></trkpt><trkpt lat="44.17158025811862" lon="12.43145251400548"><ele>3.0</ele><time>2026-04-18T14:01:39.007Z</time></trkpt><trkpt lat="44.17165753822025" lon="12.43135585972541"><ele>3.0</ele><time>2026-04-18T14:01:40.007Z</time></trkpt><trkpt lat="44.17173592760624" lon="12.431261489881033"><ele>2.8</ele><time>2026-04-18T14:01:41.007Z</time></trkpt><trkpt lat="44.17182331312035" lon="12.431177838710544"><ele>2.5999999999999996</ele><time>2026-04-18T14:01:42.007Z</time></trkpt><trkpt lat="44.17190209482066" lon="12.431081130676866"><ele>2.4000000000000004</ele><time>2026-04-18T14:01:43.007Z</time></trkpt><trkpt lat="44.17198406096996" lon="12.430990186944427"><ele>2.2</ele><time>2026-04-18T14:01:44.007Z</time></trkpt><trkpt lat="44.17206045520824" lon="12.430916671306486"><ele>2.0</ele><time>2026-04-18T14:01:45.007Z</time></trkpt><trkpt lat="44.17211867723635" lon="12.430834657814934"><ele>2.0</ele><time>2026-04-18T14:01:46.007Z</time></trkpt><trkpt lat="44.17218540568823" lon="12.430754832087466"><ele>2.0</ele><time>2026-04-18T14:01:47.007Z</time></trkpt><trkpt lat="44.17224046804239" lon="12.430657428836877"><ele>2.0</ele><time>2026-04-18T14:01:48.007Z</time></trkpt><trkpt lat="44.172314129887454" lon="12.430556036786392"><ele>2.0</ele><time>2026-04-18T14:01:49.007Z</time></trkpt><trkpt lat="44.17239397567557" lon="12.430458049739787"><ele>2.0</ele><time>2026-04-18T14:01:50.007Z</time></trkpt><trkpt lat="44.17246762260086" lon="12.430368317357352"><ele>1.8</ele><time>2026-04-18T14:01:51.007Z</time></trkpt><trkpt lat="44.172533972141295" lon="12.430280835061128"><ele>1.6</ele><time>2026-04-18T14:01:52.008Z</time></trkpt><trkpt lat="44.172598614130024" lon="12.430186731614958"><ele>1.4000000000000001</ele><time>2026-04-18T14:01:53.008Z</time></trkpt><trkpt lat="44.172669728305415" lon="12.430087709206685"><ele>1.2000000000000002</ele><time>2026-04-18T14:01:54.008Z</time></trkpt><trkpt lat="44.17273246359341" lon="12.42997714951589"><ele>1.0</ele><time>2026-04-18T14:01:55.008Z</time></trkpt><trkpt lat="44.17281466645521" lon="12.429872456078323"><ele>1.0</ele><time>2026-04-18T14:01:56.008Z</time></trkpt><trkpt lat="44.1728953833108" lon="12.429771642546273"><ele>1.0</ele><time>2026-04-18T14:01:57.008Z</time></trkpt><trkpt lat="44.17297402955631" lon="12.429684001780615"><ele>1.0</ele><time>2026-04-18T14:01:58.008Z</time></trkpt><trkpt lat="44.17304704333887" lon="12.429582016170823"><ele>1.0</ele><time>2026-04-18T14:01:59.008Z</time></trkpt><trkpt lat="44.17312646422257" lon="12.429483383104728"><ele>1.0</ele><time>2026-04-18T14:02:00.008Z</time></trkpt><trkpt lat="44.1732091777488" lon="12.429379228965036"><ele>1.2000000000000002</ele><time>2026-04-18T14:02:01.008Z</time></trkpt><trkpt lat="44.173284904958784" lon="12.429283995616974"><ele>1.4000000000000001</ele><time>2026-04-18T14:02:02.008Z</time></trkpt><trkpt lat="44.173369445120024" lon="12.42919281996264"><ele>1.6</ele><time>2026-04-18T14:02:03.008Z</time></trkpt><trkpt lat="44.17345069024259" lon="12.429092421775445"><ele>1.8</ele><time>2026-04-18T14:02:04.008Z</time></trkpt><trkpt lat="44.17353722056472" lon="12.428990826438355"><ele>2.0</ele><time>2026-04-18T14:02:05.009Z</time></trkpt><trkpt lat="44.173619963206846" lon="12.428902824975978"><ele>2.0</ele><time>2026-04-18T14:02:06.009Z</time></trkpt><trkpt lat="44.17369945568867" lon="12.42881228768153"><ele>2.0</ele><time>2026-04-18T14:02:07.009Z</time></trkpt><trkpt lat="44.17376833788169" lon="12.42871053120366"><ele>2.0</ele><time>2026-04-18T14:02:08.009Z</time></trkpt><trkpt lat="44.17384530625212" lon="12.428625533461108"><ele>2.0</ele><time>2026-04-18T14:02:09.009Z</time></trkpt><trkpt lat="44.173900339315786" lon="12.42854620962756"><ele>2.0</ele><time>2026-04-18T14:02:10.009Z</time></trkpt><trkpt lat="44.17397023881995" lon="12.428435056863501"><ele>2.25</ele><time>2026-04-18T14:02:11.009Z</time></trkpt><trkpt lat="44.17405729659329" lon="12.428325748414357"><ele>2.5</ele><time>2026-04-18T14:02:12.009Z</time></trkpt><trkpt lat="44.17414407610801" lon="12.42822484394589"><ele>2.75</ele><time>2026-04-18T14:02:13.009Z</time></trkpt><trkpt lat="44.17422866121891" lon="12.428121628308743"><ele>3.0</ele><time>2026-04-18T14:02:14.009Z</time></trkpt><trkpt lat="44.17431952728474" lon="12.428019133847858"><ele>2.6</ele><time>2026-04-18T14:02:15.009Z</time></trkpt><trkpt lat="44.17438573851888" lon="12.427921334432176"><ele>2.1999999999999997</ele><time>2026-04-18T14:02:16.009Z</time></trkpt><trkpt lat="44.174467418208934" lon="12.427827384358961"><ele>1.8</ele><time>2026-04-18T14:02:17.009Z</time></trkpt><trkpt lat="44.17453322896149" lon="12.427733858334326"><ele>1.4</ele><time>2026-04-18T14:02:18.009Z</time></trkpt><trkpt lat="44.17460492975767" lon="12.4276528104495"><ele>1.0</ele><time>2026-04-18T14:02:19.009Z</time></trkpt><trkpt lat="44.1746763355828" lon="12.427570371756433"><ele>0.9999999999999999</ele><time>2026-04-18T14:02:20.009Z</time></trkpt><trkpt lat="44.174747065719195" lon="12.427475525054987"><ele>1.0</ele><time>2026-04-18T14:02:21.009Z</time></trkpt><trkpt lat="44.17481750940928" lon="12.427382518386523"><ele>1.0</ele><time>2026-04-18T14:02:22.009Z</time></trkpt><trkpt lat="44.174881698733955" lon="12.427282563440087"><ele>1.0</ele><time>2026-04-18T14:02:23.009Z</time></trkpt><trkpt lat="44.17493968252856" lon="12.42720112863893"><ele>0.9999999999999999</ele><time>2026-04-18T14:02:24.009Z</time></trkpt><trkpt lat="44.17499133237269" lon="12.42712499208806"><ele>1.0</ele><time>2026-04-18T14:02:25.009Z</time></trkpt><trkpt lat="44.17505079236738" lon="12.42705240049556"><ele>0.8333333333333333</ele><time>2026-04-18T14:02:26.009Z</time></trkpt><trkpt lat="44.17510758338904" lon="12.426965570722253"><ele>0.6666666666666666</ele><time>2026-04-18T14:02:27.009Z</time></trkpt><trkpt lat="44.1751574358179" lon="12.426880860870455"><ele>0.5</ele><time>2026-04-18T14:02:28.009Z</time></trkpt><trkpt lat="44.17521718584759" lon="12.426805595530693"><ele>0.3333333333333333</ele><time>2026-04-18T14:02:29.009Z</time></trkpt><trkpt lat="44.175275529769934" lon="12.426718951268947"><ele>0.16666666666666666</ele><time>2026-04-18T14:02:30.009Z</time></trkpt><trkpt lat="44.175345511104965" lon="12.426645563566755"><ele>0.0</ele><time>2026-04-18T14:02:31.009Z</time></trkpt><trkpt lat="44.17540668749095" lon="12.426578691850995"><ele>0.0</ele><time>2026-04-18T14:02:32.009Z</time></trkpt><trkpt lat="44.1754509652414" lon="12.426467686706042"><ele>0.0</ele><time>2026-04-18T14:02:34.009Z</time></trkpt><trkpt lat="44.1755279577879" lon="12.426389257114467"><ele>0.0</ele><time>2026-04-18T14:02:36.009Z</time></trkpt><trkpt lat="44.17557768542856" lon="12.426330260422825"><ele>0.0</ele><time>2026-04-18T14:02:38.009Z</time></trkpt><trkpt lat="44.17563117862344" lon="12.4264195989413"><ele>0.0</ele><time>2026-04-18T14:02:43.009Z</time></trkpt><trkpt lat="44.17570548665639" lon="12.426512342606227"><ele>0.0</ele><time>2026-04-18T14:02:45.009Z</time></trkpt><trkpt lat="44.17576036413971" lon="12.426571209452039"><ele>0.0</ele><time>2026-04-18T14:02:46.009Z</time></trkpt><trkpt lat="44.175830493811084" lon="12.426662087894305"><ele>0.0</ele><time>2026-04-18T14:02:47.009Z</time></trkpt><trkpt lat="44.175890205245175" lon="12.42675399177124"><ele>0.0</ele><time>2026-04-18T14:02:48.009Z</time></trkpt><trkpt lat="44.175953271132165" lon="12.426850721090908"><ele>0.0</ele><time>2026-04-18T14:02:49.009Z</time></trkpt><trkpt lat="44.1760115177365" lon="12.426945434427708"><ele>0.0</ele><time>2026-04-18T14:02:50.009Z</time></trkpt><trkpt lat="44.17609605548349" lon="12.427080902354403"><ele>0.2</ele><time>2026-04-18T14:02:51.009Z</time></trkpt><trkpt lat="44.17616709578888" lon="12.427231110776816"><ele>0.4</ele><time>2026-04-18T14:02:52.009Z</time></trkpt><trkpt lat="44.17624243524397" lon="12.427341886618326"><ele>0.6000000000000001</ele><time>2026-04-18T14:02:53.009Z</time></trkpt><trkpt lat="44.17630242620057" lon="12.427459540587725"><ele>0.8</ele><time>2026-04-18T14:02:54.009Z</time></trkpt><trkpt lat="44.176364036185426" lon="12.427569510639124"><ele>1.0</ele><time>2026-04-18T14:02:55.009Z</time></trkpt><trkpt lat="44.176418321413784" lon="12.427661292520824"><ele>1.0</ele><time>2026-04-18T14:02:56.009Z</time></trkpt><trkpt lat="44.17649876373603" lon="12.427783832703605"><ele>1.0</ele><time>2026-04-18T14:02:57.009Z</time></trkpt><trkpt lat="44.17656374274874" lon="12.42789278893117"><ele>1.0</ele><time>2026-04-18T14:02:58.009Z</time></trkpt><trkpt lat="44.176647472903994" lon="12.428009986759047"><ele>1.0</ele><time>2026-04-18T14:02:59.009Z</time></trkpt><trkpt lat="44.17672741555474" lon="12.428119879683797"><ele>1.0</ele><time>2026-04-18T14:03:00.009Z</time></trkpt><trkpt lat="44.176791640668185" lon="12.428233842104735"><ele>1.0</ele><time>2026-04-18T14:03:01.009Z</time></trkpt><trkpt lat="44.176867845400885" lon="12.428346610465201"><ele>1.0</ele><time>2026-04-18T14:03:02.009Z</time></trkpt><trkpt lat="44.17694416652418" lon="12.428458156675042"><ele>1.0</ele><time>2026-04-18T14:03:03.009Z</time></trkpt><trkpt lat="44.17700930083358" lon="12.428567269898265"><ele>1.0</ele><time>2026-04-18T14:03:04.009Z</time></trkpt><trkpt lat="44.17708023032516" lon="12.42868287875168"><ele>1.0</ele><time>2026-04-18T14:03:05.009Z</time></trkpt><trkpt lat="44.17714682517984" lon="12.428790332076382"><ele>1.0</ele><time>2026-04-18T14:03:06.009Z</time></trkpt><trkpt lat="44.177250111024804" lon="12.428901091045873"><ele>1.0</ele><time>2026-04-18T14:03:07.009Z</time></trkpt><trkpt lat="44.17731718695447" lon="12.428990715427775"><ele>1.0</ele><time>2026-04-18T14:03:08.009Z</time></trkpt><trkpt lat="44.1773769684753" lon="12.429078269068164"><ele>1.0</ele><time>2026-04-18T14:03:09.009Z</time></trkpt><trkpt lat="44.17745149108026" lon="12.429173716688423"><ele>1.4</ele><time>2026-04-18T14:03:11.009Z</time></trkpt><trkpt lat="44.177546817765695" lon="12.429129090938037"><ele>1.8</ele><time>2026-04-18T14:03:13.009Z</time></trkpt><trkpt lat="44.17760752052399" lon="12.42906743352302"><ele>2.1999999999999997</ele><time>2026-04-18T14:03:14.009Z</time></trkpt><trkpt lat="44.17764793337966" lon="12.428904463779322"><ele>2.6</ele><time>2026-04-18T14:03:16.009Z</time></trkpt><trkpt lat="44.17768072093412" lon="12.428820292496422"><ele>3.0</ele><time>2026-04-18T14:03:17.009Z</time></trkpt><trkpt lat="44.1777695080029" lon="12.428697978458118"><ele>3.0</ele><time>2026-04-18T14:03:18.009Z</time></trkpt><trkpt lat="44.17789743820541" lon="12.428637351410062"><ele>3.0</ele><time>2026-04-18T14:03:19.009Z</time></trkpt><trkpt lat="44.17797733378587" lon="12.428535068964544"><ele>3.0</ele><time>2026-04-18T14:03:20.009Z</time></trkpt><trkpt lat="44.178068931838986" lon="12.428452403608091"><ele>3.0</ele><time>2026-04-18T14:03:21.009Z</time></trkpt><trkpt lat="44.17812507144501" lon="12.428351364587225"><ele>3.0</ele><time>2026-04-18T14:03:22.009Z</time></trkpt><trkpt lat="44.17817193309722" lon="12.428240139333397"><ele>3.0</ele><time>2026-04-18T14:03:23.009Z</time></trkpt><trkpt lat="44.17824962339805" lon="12.428140988106232"><ele>3.0</ele><time>2026-04-18T14:03:24.009Z</time></trkpt><trkpt lat="44.178314060759" lon="12.42805711879653"><ele>3.0</ele><time>2026-04-18T14:03:25.009Z</time></trkpt><trkpt lat="44.17836642492399" lon="12.427961546670415"><ele>3.0</ele><time>2026-04-18T14:03:26.009Z</time></trkpt><trkpt lat="44.178432981090474" lon="12.427859110523055"><ele>3.0</ele><time>2026-04-18T14:03:27.009Z</time></trkpt><trkpt lat="44.17849887609396" lon="12.42777393657131"><ele>2.8</ele><time>2026-04-18T14:03:28.009Z</time></trkpt><trkpt lat="44.17853716428996" lon="12.427661083380848"><ele>2.5999999999999996</ele><time>2026-04-18T14:03:29.009Z</time></trkpt><trkpt lat="44.178607163360255" lon="12.42756494040668"><ele>2.4000000000000004</ele><time>2026-04-18T14:03:30.009Z</time></trkpt><trkpt lat="44.17872124089614" lon="12.42739417116305"><ele>2.2</ele><time>2026-04-18T14:03:31.009Z</time></trkpt><trkpt lat="44.17876539758194" lon="12.427280907498174"><ele>2.0</ele><time>2026-04-18T14:03:32.009Z</time></trkpt><trkpt lat="44.17879524359708" lon="12.427173673662573"><ele>2.2</ele><time>2026-04-18T14:03:33.009Z</time></trkpt><trkpt lat="44.17882012556345" lon="12.427072681428962"><ele>2.4000000000000004</ele><time>2026-04-18T14:03:34.009Z</time></trkpt><trkpt lat="44.178859946102065" lon="12.426967176794117"><ele>2.5999999999999996</ele><time>2026-04-18T14:03:35.009Z</time></trkpt><trkpt lat="44.17891998417747" lon="12.426858643749025"><ele>2.8</ele><time>2026-04-18T14:03:37.009Z</time></trkpt><trkpt lat="44.17899698975285" lon="12.426850914008927"><ele>3.0</ele><time>2026-04-18T14:03:39.009Z</time></trkpt><trkpt lat="44.179113607576845" lon="12.426919392692415"><ele>2.6666666666666665</ele><time>2026-04-18T14:03:41.009Z</time></trkpt><trkpt lat="44.17917637342599" lon="12.426944770324654"><ele>2.3333333333333335</ele><time>2026-04-18T14:03:42.009Z</time></trkpt><trkpt lat="44.179227390623886" lon="12.427019833414848"><ele>2.0</ele><time>2026-04-18T14:03:45.009Z</time></trkpt><trkpt lat="44.17933815785242" lon="12.427072756504211"><ele>1.6666666666666665</ele><time>2026-04-18T14:03:47.009Z</time></trkpt><trkpt lat="44.17943503989555" lon="12.42712575864959"><ele>1.3333333333333333</ele><time>2026-04-18T14:03:49.009Z</time></trkpt><trkpt lat="44.179492901189526" lon="12.427089529272427"><ele>1.0</ele><time>2026-04-18T14:04:02.009Z</time></trkpt><trkpt lat="44.17951692709061" lon="12.426993160673419"><ele>1.0</ele><time>2026-04-18T14:04:07.01Z</time></trkpt><trkpt lat="44.17957681669383" lon="12.426952818210358"><ele>1.0</ele><time>2026-04-18T14:04:09.009Z</time></trkpt></trkseg></trk></gpx>